<?xml version="1.0" encoding="UTF-8" standalone="no" ?>
<gpx xmlns="http://www.topografix.com/GPX/1/1" xmlns:xsi="http://www.w3.org/2001/XMLSchema-instance" xsi:schemaLocation="http://www.topografix.com/GPX/1/1 http://www.topografix.com/GPX/1/1/gpx.xsd" version="1.1" creator="VisuGPX - https://www.visugpx.com">
  <metadata>
    <name>Pas si fa si l' après ré</name>
    <desc><![CDATA[P seul]]></desc>
  </metadata>
  <trk>
    <name><![CDATA[2023 06 04 pas si fa si l' après ré]]></name>
    <desc><![CDATA[P seul]]></desc>
    <trkseg>
      <trkpt lat="45.83327" lon="4.70922">
        <ele>358.21948</ele>
        <time>2023-06-04T12:21:19.268Z</time>
      </trkpt>
      <trkpt lat="45.83327" lon="4.70925">
        <ele>357.74643</ele>
        <time>2023-06-04T12:21:21.000Z</time>
      </trkpt>
      <trkpt lat="45.83326" lon="4.70928">
        <ele>357.62442</ele>
        <time>2023-06-04T12:21:22.000Z</time>
      </trkpt>
      <trkpt lat="45.83326" lon="4.70931">
        <ele>357.45682</ele>
        <time>2023-06-04T12:21:23.000Z</time>
      </trkpt>
      <trkpt lat="45.83326" lon="4.70933">
        <ele>357.36172</ele>
        <time>2023-06-04T12:21:24.000Z</time>
      </trkpt>
      <trkpt lat="45.83326" lon="4.70938">
        <ele>357.5914</ele>
        <time>2023-06-04T12:21:26.000Z</time>
      </trkpt>
      <trkpt lat="45.83326" lon="4.70941">
        <ele>357.79935</ele>
        <time>2023-06-04T12:21:27.000Z</time>
      </trkpt>
      <trkpt lat="45.83326" lon="4.70945">
        <ele>358.08987</ele>
        <time>2023-06-04T12:21:28.000Z</time>
      </trkpt>
      <trkpt lat="45.83326" lon="4.70948">
        <ele>358.37476</ele>
        <time>2023-06-04T12:21:29.000Z</time>
      </trkpt>
      <trkpt lat="45.83328" lon="4.70949">
        <ele>358.55429</ele>
        <time>2023-06-04T12:21:31.000Z</time>
      </trkpt>
      <trkpt lat="45.83329" lon="4.70946">
        <ele>358.61453</ele>
        <time>2023-06-04T12:21:34.000Z</time>
      </trkpt>
      <trkpt lat="45.83331" lon="4.70946">
        <ele>358.66382</ele>
        <time>2023-06-04T12:21:38.000Z</time>
      </trkpt>
      <trkpt lat="45.83333" lon="4.70948">
        <ele>358.69513</ele>
        <time>2023-06-04T12:21:41.000Z</time>
      </trkpt>
      <trkpt lat="45.8333" lon="4.70951">
        <ele>358.67511</ele>
        <time>2023-06-04T12:21:42.000Z</time>
      </trkpt>
      <trkpt lat="45.83327" lon="4.70954">
        <ele>358.66064</ele>
        <time>2023-06-04T12:21:43.000Z</time>
      </trkpt>
      <trkpt lat="45.83326" lon="4.70956">
        <ele>358.61987</ele>
        <time>2023-06-04T12:21:44.000Z</time>
      </trkpt>
      <trkpt lat="45.83325" lon="4.70959">
        <ele>358.60754</ele>
        <time>2023-06-04T12:21:46.000Z</time>
      </trkpt>
      <trkpt lat="45.83326" lon="4.70962">
        <ele>358.54831</ele>
        <time>2023-06-04T12:21:48.000Z</time>
      </trkpt>
      <trkpt lat="45.83323" lon="4.70964">
        <ele>358.47815</ele>
        <time>2023-06-04T12:21:50.000Z</time>
      </trkpt>
      <trkpt lat="45.8332" lon="4.70967">
        <ele>358.45102</ele>
        <time>2023-06-04T12:21:52.000Z</time>
      </trkpt>
      <trkpt lat="45.83318" lon="4.70969">
        <ele>358.41385</ele>
        <time>2023-06-04T12:21:53.000Z</time>
      </trkpt>
      <trkpt lat="45.83318" lon="4.70964">
        <ele>358.40671</ele>
        <time>2023-06-04T12:21:56.000Z</time>
      </trkpt>
      <trkpt lat="45.8332" lon="4.7096">
        <ele>358.3183</ele>
        <time>2023-06-04T12:21:57.000Z</time>
      </trkpt>
      <trkpt lat="45.83322" lon="4.70956">
        <ele>358.2486</ele>
        <time>2023-06-04T12:21:58.000Z</time>
      </trkpt>
      <trkpt lat="45.83324" lon="4.70951">
        <ele>358.18781</ele>
        <time>2023-06-04T12:21:59.000Z</time>
      </trkpt>
      <trkpt lat="45.83326" lon="4.70945">
        <ele>358.01392</ele>
        <time>2023-06-04T12:22:00.000Z</time>
      </trkpt>
      <trkpt lat="45.83327" lon="4.7094">
        <ele>357.84821</ele>
        <time>2023-06-04T12:22:01.000Z</time>
      </trkpt>
      <trkpt lat="45.83329" lon="4.70935">
        <ele>357.64377</ele>
        <time>2023-06-04T12:22:02.000Z</time>
      </trkpt>
      <trkpt lat="45.83331" lon="4.7093">
        <ele>357.44067</ele>
        <time>2023-06-04T12:22:03.000Z</time>
      </trkpt>
      <trkpt lat="45.83333" lon="4.70925">
        <ele>357.29401</ele>
        <time>2023-06-04T12:22:04.000Z</time>
      </trkpt>
      <trkpt lat="45.83335" lon="4.70919">
        <ele>357.20773</ele>
        <time>2023-06-04T12:22:05.000Z</time>
      </trkpt>
      <trkpt lat="45.83335" lon="4.70914">
        <ele>357.13458</ele>
        <time>2023-06-04T12:22:06.000Z</time>
      </trkpt>
      <trkpt lat="45.83335" lon="4.70909">
        <ele>357.07263</ele>
        <time>2023-06-04T12:22:07.000Z</time>
      </trkpt>
      <trkpt lat="45.83335" lon="4.70905">
        <ele>357.04779</ele>
        <time>2023-06-04T12:22:08.000Z</time>
      </trkpt>
      <trkpt lat="45.83335" lon="4.70899">
        <ele>357.03949</ele>
        <time>2023-06-04T12:22:09.000Z</time>
      </trkpt>
      <trkpt lat="45.83335" lon="4.70894">
        <ele>357.05151</ele>
        <time>2023-06-04T12:22:10.000Z</time>
      </trkpt>
      <trkpt lat="45.83335" lon="4.70889">
        <ele>357.03113</ele>
        <time>2023-06-04T12:22:11.000Z</time>
      </trkpt>
      <trkpt lat="45.83334" lon="4.70884">
        <ele>357.08038</ele>
        <time>2023-06-04T12:22:12.000Z</time>
      </trkpt>
      <trkpt lat="45.83334" lon="4.70879">
        <ele>357.14899</ele>
        <time>2023-06-04T12:22:13.000Z</time>
      </trkpt>
      <trkpt lat="45.83334" lon="4.70874">
        <ele>357.19879</ele>
        <time>2023-06-04T12:22:14.000Z</time>
      </trkpt>
      <trkpt lat="45.83333" lon="4.70869">
        <ele>357.27728</ele>
        <time>2023-06-04T12:22:15.000Z</time>
      </trkpt>
      <trkpt lat="45.83333" lon="4.70864">
        <ele>357.42679</ele>
        <time>2023-06-04T12:22:16.000Z</time>
      </trkpt>
      <trkpt lat="45.83332" lon="4.70859">
        <ele>357.6925</ele>
        <time>2023-06-04T12:22:17.000Z</time>
      </trkpt>
      <trkpt lat="45.83332" lon="4.70855">
        <ele>357.93799</ele>
        <time>2023-06-04T12:22:18.000Z</time>
      </trkpt>
      <trkpt lat="45.83332" lon="4.7085">
        <ele>358.27106</ele>
        <time>2023-06-04T12:22:19.000Z</time>
      </trkpt>
      <trkpt lat="45.83333" lon="4.70845">
        <ele>358.60474</ele>
        <time>2023-06-04T12:22:20.000Z</time>
      </trkpt>
      <trkpt lat="45.83334" lon="4.7084">
        <ele>358.85419</ele>
        <time>2023-06-04T12:22:21.000Z</time>
      </trkpt>
      <trkpt lat="45.83335" lon="4.70835">
        <ele>359.06522</ele>
        <time>2023-06-04T12:22:22.000Z</time>
      </trkpt>
      <trkpt lat="45.83335" lon="4.70831">
        <ele>359.28394</ele>
        <time>2023-06-04T12:22:23.000Z</time>
      </trkpt>
      <trkpt lat="45.83335" lon="4.70827">
        <ele>359.51947</ele>
        <time>2023-06-04T12:22:24.000Z</time>
      </trkpt>
      <trkpt lat="45.83336" lon="4.70823">
        <ele>359.64767</ele>
        <time>2023-06-04T12:22:25.000Z</time>
      </trkpt>
      <trkpt lat="45.83337" lon="4.70818">
        <ele>359.73969</ele>
        <time>2023-06-04T12:22:26.000Z</time>
      </trkpt>
      <trkpt lat="45.83339" lon="4.70812">
        <ele>359.82437</ele>
        <time>2023-06-04T12:22:27.000Z</time>
      </trkpt>
      <trkpt lat="45.8334" lon="4.70808">
        <ele>359.90848</ele>
        <time>2023-06-04T12:22:28.000Z</time>
      </trkpt>
      <trkpt lat="45.83341" lon="4.70802">
        <ele>359.97131</ele>
        <time>2023-06-04T12:22:29.000Z</time>
      </trkpt>
      <trkpt lat="45.83342" lon="4.70796">
        <ele>360.04895</ele>
        <time>2023-06-04T12:22:30.000Z</time>
      </trkpt>
      <trkpt lat="45.83343" lon="4.70791">
        <ele>360.11478</ele>
        <time>2023-06-04T12:22:31.000Z</time>
      </trkpt>
      <trkpt lat="45.83341" lon="4.70787">
        <ele>360.15378</ele>
        <time>2023-06-04T12:22:32.000Z</time>
      </trkpt>
      <trkpt lat="45.8334" lon="4.70783">
        <ele>360.17285</ele>
        <time>2023-06-04T12:22:33.000Z</time>
      </trkpt>
      <trkpt lat="45.83339" lon="4.70779">
        <ele>360.17096</ele>
        <time>2023-06-04T12:22:34.000Z</time>
      </trkpt>
      <trkpt lat="45.83339" lon="4.70773">
        <ele>360.18173</ele>
        <time>2023-06-04T12:22:35.000Z</time>
      </trkpt>
      <trkpt lat="45.83339" lon="4.70764">
        <ele>360.17429</ele>
        <time>2023-06-04T12:22:36.000Z</time>
      </trkpt>
      <trkpt lat="45.83341" lon="4.70756">
        <ele>360.10098</ele>
        <time>2023-06-04T12:22:37.000Z</time>
      </trkpt>
      <trkpt lat="45.83342" lon="4.70748">
        <ele>360.09058</ele>
        <time>2023-06-04T12:22:38.000Z</time>
      </trkpt>
      <trkpt lat="45.83342" lon="4.70741">
        <ele>359.97089</ele>
        <time>2023-06-04T12:22:39.000Z</time>
      </trkpt>
      <trkpt lat="45.83343" lon="4.70734">
        <ele>359.89102</ele>
        <time>2023-06-04T12:22:40.000Z</time>
      </trkpt>
      <trkpt lat="45.83344" lon="4.70729">
        <ele>359.86041</ele>
        <time>2023-06-04T12:22:41.000Z</time>
      </trkpt>
      <trkpt lat="45.83344" lon="4.70722">
        <ele>359.86398</ele>
        <time>2023-06-04T12:22:42.000Z</time>
      </trkpt>
      <trkpt lat="45.83345" lon="4.70715">
        <ele>359.85687</ele>
        <time>2023-06-04T12:22:43.000Z</time>
      </trkpt>
      <trkpt lat="45.83346" lon="4.70709">
        <ele>359.81537</ele>
        <time>2023-06-04T12:22:44.000Z</time>
      </trkpt>
      <trkpt lat="45.83348" lon="4.70703">
        <ele>359.78711</ele>
        <time>2023-06-04T12:22:45.000Z</time>
      </trkpt>
      <trkpt lat="45.83347" lon="4.70697">
        <ele>359.7724</ele>
        <time>2023-06-04T12:22:46.000Z</time>
      </trkpt>
      <trkpt lat="45.83348" lon="4.70688">
        <ele>359.7309</ele>
        <time>2023-06-04T12:22:47.000Z</time>
      </trkpt>
      <trkpt lat="45.83348" lon="4.70681">
        <ele>359.68585</ele>
        <time>2023-06-04T12:22:48.000Z</time>
      </trkpt>
      <trkpt lat="45.83349" lon="4.70674">
        <ele>359.66669</ele>
        <time>2023-06-04T12:22:49.000Z</time>
      </trkpt>
      <trkpt lat="45.83345" lon="4.70669">
        <ele>359.62518</ele>
        <time>2023-06-04T12:22:50.000Z</time>
      </trkpt>
      <trkpt lat="45.83345" lon="4.7066">
        <ele>359.60553</ele>
        <time>2023-06-04T12:22:51.000Z</time>
      </trkpt>
      <trkpt lat="45.83348" lon="4.70649">
        <ele>359.58383</ele>
        <time>2023-06-04T12:22:52.000Z</time>
      </trkpt>
      <trkpt lat="45.83349" lon="4.7064">
        <ele>359.6749</ele>
        <time>2023-06-04T12:22:53.000Z</time>
      </trkpt>
      <trkpt lat="45.83349" lon="4.70632">
        <ele>359.81082</ele>
        <time>2023-06-04T12:22:54.000Z</time>
      </trkpt>
      <trkpt lat="45.83346" lon="4.70623">
        <ele>359.94586</ele>
        <time>2023-06-04T12:22:55.000Z</time>
      </trkpt>
      <trkpt lat="45.83351" lon="4.70613">
        <ele>360.02472</ele>
        <time>2023-06-04T12:22:56.000Z</time>
      </trkpt>
      <trkpt lat="45.83356" lon="4.70608">
        <ele>360.14072</ele>
        <time>2023-06-04T12:22:57.000Z</time>
      </trkpt>
      <trkpt lat="45.83361" lon="4.70606">
        <ele>360.23053</ele>
        <time>2023-06-04T12:22:58.000Z</time>
      </trkpt>
      <trkpt lat="45.83365" lon="4.70604">
        <ele>360.2995</ele>
        <time>2023-06-04T12:22:59.000Z</time>
      </trkpt>
      <trkpt lat="45.83376" lon="4.70609">
        <ele>360.28656</ele>
        <time>2023-06-04T12:23:00.000Z</time>
      </trkpt>
      <trkpt lat="45.83381" lon="4.7061">
        <ele>360.24191</ele>
        <time>2023-06-04T12:23:01.000Z</time>
      </trkpt>
      <trkpt lat="45.83387" lon="4.70612">
        <ele>360.13385</ele>
        <time>2023-06-04T12:23:02.000Z</time>
      </trkpt>
      <trkpt lat="45.83395" lon="4.70615">
        <ele>359.9953</ele>
        <time>2023-06-04T12:23:03.000Z</time>
      </trkpt>
      <trkpt lat="45.83403" lon="4.70612">
        <ele>359.83063</ele>
        <time>2023-06-04T12:23:04.000Z</time>
      </trkpt>
      <trkpt lat="45.83411" lon="4.70614">
        <ele>359.71732</ele>
        <time>2023-06-04T12:23:05.000Z</time>
      </trkpt>
      <trkpt lat="45.83418" lon="4.70615">
        <ele>359.556</ele>
        <time>2023-06-04T12:23:06.000Z</time>
      </trkpt>
      <trkpt lat="45.83426" lon="4.70615">
        <ele>359.44562</ele>
        <time>2023-06-04T12:23:07.000Z</time>
      </trkpt>
      <trkpt lat="45.83433" lon="4.70617">
        <ele>359.358</ele>
        <time>2023-06-04T12:23:08.000Z</time>
      </trkpt>
      <trkpt lat="45.83448" lon="4.70614">
        <ele>359.27228</ele>
        <time>2023-06-04T12:23:09.000Z</time>
      </trkpt>
      <trkpt lat="45.83448" lon="4.70617">
        <ele>359.2016</ele>
        <time>2023-06-04T12:23:10.000Z</time>
      </trkpt>
      <trkpt lat="45.83454" lon="4.70618">
        <ele>359.15015</ele>
        <time>2023-06-04T12:23:11.000Z</time>
      </trkpt>
      <trkpt lat="45.83463" lon="4.70621">
        <ele>359.07614</ele>
        <time>2023-06-04T12:23:12.000Z</time>
      </trkpt>
      <trkpt lat="45.8346" lon="4.7062">
        <ele>358.8826</ele>
        <time>2023-06-04T12:23:13.000Z</time>
      </trkpt>
      <trkpt lat="45.83468" lon="4.7062">
        <ele>358.65582</ele>
        <time>2023-06-04T12:23:14.000Z</time>
      </trkpt>
      <trkpt lat="45.83479" lon="4.70616">
        <ele>358.37778</ele>
        <time>2023-06-04T12:23:15.000Z</time>
      </trkpt>
      <trkpt lat="45.83483" lon="4.70614">
        <ele>358.10007</ele>
        <time>2023-06-04T12:23:16.000Z</time>
      </trkpt>
      <trkpt lat="45.8349" lon="4.70611">
        <ele>357.81699</ele>
        <time>2023-06-04T12:23:17.000Z</time>
      </trkpt>
      <trkpt lat="45.83499" lon="4.70612">
        <ele>357.51849</ele>
        <time>2023-06-04T12:23:18.000Z</time>
      </trkpt>
      <trkpt lat="45.8351" lon="4.70616">
        <ele>357.20865</ele>
        <time>2023-06-04T12:23:19.000Z</time>
      </trkpt>
      <trkpt lat="45.83519" lon="4.7062">
        <ele>356.95035</ele>
        <time>2023-06-04T12:23:20.000Z</time>
      </trkpt>
      <trkpt lat="45.83525" lon="4.70618">
        <ele>356.767</ele>
        <time>2023-06-04T12:23:21.000Z</time>
      </trkpt>
      <trkpt lat="45.83528" lon="4.70619">
        <ele>356.61401</ele>
        <time>2023-06-04T12:23:22.000Z</time>
      </trkpt>
      <trkpt lat="45.83535" lon="4.70619">
        <ele>356.45917</ele>
        <time>2023-06-04T12:23:23.000Z</time>
      </trkpt>
      <trkpt lat="45.83545" lon="4.70618">
        <ele>356.32245</ele>
        <time>2023-06-04T12:23:24.000Z</time>
      </trkpt>
      <trkpt lat="45.83555" lon="4.70617">
        <ele>356.21097</ele>
        <time>2023-06-04T12:23:25.000Z</time>
      </trkpt>
      <trkpt lat="45.8356" lon="4.70616">
        <ele>356.15741</ele>
        <time>2023-06-04T12:23:26.000Z</time>
      </trkpt>
      <trkpt lat="45.83568" lon="4.70615">
        <ele>356.0957</ele>
        <time>2023-06-04T12:23:27.000Z</time>
      </trkpt>
      <trkpt lat="45.83578" lon="4.70617">
        <ele>356.02359</ele>
        <time>2023-06-04T12:23:28.000Z</time>
      </trkpt>
      <trkpt lat="45.83587" lon="4.7062">
        <ele>355.87762</ele>
        <time>2023-06-04T12:23:29.000Z</time>
      </trkpt>
      <trkpt lat="45.83589" lon="4.7062">
        <ele>355.74838</ele>
        <time>2023-06-04T12:23:30.000Z</time>
      </trkpt>
      <trkpt lat="45.83596" lon="4.70623">
        <ele>355.55585</ele>
        <time>2023-06-04T12:23:31.000Z</time>
      </trkpt>
      <trkpt lat="45.83599" lon="4.70627">
        <ele>355.38095</ele>
        <time>2023-06-04T12:23:32.000Z</time>
      </trkpt>
      <trkpt lat="45.83605" lon="4.70631">
        <ele>355.21964</ele>
        <time>2023-06-04T12:23:33.000Z</time>
      </trkpt>
      <trkpt lat="45.83611" lon="4.70632">
        <ele>355.03192</ele>
        <time>2023-06-04T12:23:34.000Z</time>
      </trkpt>
      <trkpt lat="45.83616" lon="4.70635">
        <ele>354.88007</ele>
        <time>2023-06-04T12:23:35.000Z</time>
      </trkpt>
      <trkpt lat="45.83625" lon="4.70631">
        <ele>354.78601</ele>
        <time>2023-06-04T12:23:36.000Z</time>
      </trkpt>
      <trkpt lat="45.8363" lon="4.7063">
        <ele>354.64136</ele>
        <time>2023-06-04T12:23:37.000Z</time>
      </trkpt>
      <trkpt lat="45.83638" lon="4.70627">
        <ele>354.52344</ele>
        <time>2023-06-04T12:23:38.000Z</time>
      </trkpt>
      <trkpt lat="45.83642" lon="4.70623">
        <ele>354.44138</ele>
        <time>2023-06-04T12:23:39.000Z</time>
      </trkpt>
      <trkpt lat="45.83647" lon="4.70618">
        <ele>354.41998</ele>
        <time>2023-06-04T12:23:40.000Z</time>
      </trkpt>
      <trkpt lat="45.83657" lon="4.70614">
        <ele>354.37564</ele>
        <time>2023-06-04T12:23:41.000Z</time>
      </trkpt>
      <trkpt lat="45.83664" lon="4.70607">
        <ele>354.37186</ele>
        <time>2023-06-04T12:23:42.000Z</time>
      </trkpt>
      <trkpt lat="45.83671" lon="4.70605">
        <ele>354.35037</ele>
        <time>2023-06-04T12:23:43.000Z</time>
      </trkpt>
      <trkpt lat="45.83679" lon="4.70606">
        <ele>354.30423</ele>
        <time>2023-06-04T12:23:44.000Z</time>
      </trkpt>
      <trkpt lat="45.83686" lon="4.70602">
        <ele>354.25128</ele>
        <time>2023-06-04T12:23:45.000Z</time>
      </trkpt>
      <trkpt lat="45.83694" lon="4.706">
        <ele>354.20349</ele>
        <time>2023-06-04T12:23:46.000Z</time>
      </trkpt>
      <trkpt lat="45.83698" lon="4.70599">
        <ele>354.17749</ele>
        <time>2023-06-04T12:23:47.000Z</time>
      </trkpt>
      <trkpt lat="45.83702" lon="4.70593">
        <ele>354.15875</ele>
        <time>2023-06-04T12:23:48.000Z</time>
      </trkpt>
      <trkpt lat="45.83708" lon="4.70594">
        <ele>354.20334</ele>
        <time>2023-06-04T12:23:49.000Z</time>
      </trkpt>
      <trkpt lat="45.83715" lon="4.70594">
        <ele>354.24359</ele>
        <time>2023-06-04T12:23:50.000Z</time>
      </trkpt>
      <trkpt lat="45.83725" lon="4.70592">
        <ele>354.35321</ele>
        <time>2023-06-04T12:23:51.000Z</time>
      </trkpt>
      <trkpt lat="45.8373" lon="4.70588">
        <ele>354.42194</ele>
        <time>2023-06-04T12:23:52.000Z</time>
      </trkpt>
      <trkpt lat="45.83736" lon="4.70584">
        <ele>354.50748</ele>
        <time>2023-06-04T12:23:53.000Z</time>
      </trkpt>
      <trkpt lat="45.83745" lon="4.70582">
        <ele>354.60922</ele>
        <time>2023-06-04T12:23:54.000Z</time>
      </trkpt>
      <trkpt lat="45.83755" lon="4.70579">
        <ele>354.72052</ele>
        <time>2023-06-04T12:23:55.000Z</time>
      </trkpt>
      <trkpt lat="45.8376" lon="4.70575">
        <ele>354.80859</ele>
        <time>2023-06-04T12:23:56.000Z</time>
      </trkpt>
      <trkpt lat="45.83769" lon="4.70571">
        <ele>354.91382</ele>
        <time>2023-06-04T12:23:57.000Z</time>
      </trkpt>
      <trkpt lat="45.83774" lon="4.70568">
        <ele>354.97891</ele>
        <time>2023-06-04T12:23:58.000Z</time>
      </trkpt>
      <trkpt lat="45.83781" lon="4.70565">
        <ele>355.0535</ele>
        <time>2023-06-04T12:23:59.000Z</time>
      </trkpt>
      <trkpt lat="45.83789" lon="4.70563">
        <ele>355.06308</ele>
        <time>2023-06-04T12:24:00.000Z</time>
      </trkpt>
      <trkpt lat="45.83794" lon="4.70557">
        <ele>355.02783</ele>
        <time>2023-06-04T12:24:01.000Z</time>
      </trkpt>
      <trkpt lat="45.83802" lon="4.70549">
        <ele>354.95929</ele>
        <time>2023-06-04T12:24:02.000Z</time>
      </trkpt>
      <trkpt lat="45.83811" lon="4.70544">
        <ele>354.92261</ele>
        <time>2023-06-04T12:24:03.000Z</time>
      </trkpt>
      <trkpt lat="45.83817" lon="4.70535">
        <ele>354.89459</ele>
        <time>2023-06-04T12:24:04.000Z</time>
      </trkpt>
      <trkpt lat="45.83826" lon="4.70528">
        <ele>354.86197</ele>
        <time>2023-06-04T12:24:05.000Z</time>
      </trkpt>
      <trkpt lat="45.83826" lon="4.70522">
        <ele>354.79068</ele>
        <time>2023-06-04T12:24:06.000Z</time>
      </trkpt>
      <trkpt lat="45.83839" lon="4.70525">
        <ele>354.62558</ele>
        <time>2023-06-04T12:24:07.000Z</time>
      </trkpt>
      <trkpt lat="45.83846" lon="4.70521">
        <ele>354.54422</ele>
        <time>2023-06-04T12:24:08.000Z</time>
      </trkpt>
      <trkpt lat="45.83853" lon="4.70519">
        <ele>354.42508</ele>
        <time>2023-06-04T12:24:09.000Z</time>
      </trkpt>
      <trkpt lat="45.83859" lon="4.70514">
        <ele>354.26413</ele>
        <time>2023-06-04T12:24:10.000Z</time>
      </trkpt>
      <trkpt lat="45.83866" lon="4.70508">
        <ele>354.05771</ele>
        <time>2023-06-04T12:24:11.000Z</time>
      </trkpt>
      <trkpt lat="45.83872" lon="4.70501">
        <ele>353.9248</ele>
        <time>2023-06-04T12:24:12.000Z</time>
      </trkpt>
      <trkpt lat="45.83878" lon="4.70495">
        <ele>353.75452</ele>
        <time>2023-06-04T12:24:13.000Z</time>
      </trkpt>
      <trkpt lat="45.83885" lon="4.7049">
        <ele>353.57013</ele>
        <time>2023-06-04T12:24:14.000Z</time>
      </trkpt>
      <trkpt lat="45.83894" lon="4.70493">
        <ele>353.24503</ele>
        <time>2023-06-04T12:24:15.000Z</time>
      </trkpt>
      <trkpt lat="45.83901" lon="4.70489">
        <ele>352.82132</ele>
        <time>2023-06-04T12:24:16.000Z</time>
      </trkpt>
      <trkpt lat="45.83906" lon="4.70485">
        <ele>352.4072</ele>
        <time>2023-06-04T12:24:17.000Z</time>
      </trkpt>
      <trkpt lat="45.83911" lon="4.70483">
        <ele>352.04178</ele>
        <time>2023-06-04T12:24:18.000Z</time>
      </trkpt>
      <trkpt lat="45.83917" lon="4.70485">
        <ele>351.67441</ele>
        <time>2023-06-04T12:24:19.000Z</time>
      </trkpt>
      <trkpt lat="45.83921" lon="4.70482">
        <ele>351.59155</ele>
        <time>2023-06-04T12:24:20.000Z</time>
      </trkpt>
      <trkpt lat="45.83928" lon="4.7048">
        <ele>351.31104</ele>
        <time>2023-06-04T12:24:21.000Z</time>
      </trkpt>
      <trkpt lat="45.83929" lon="4.70475">
        <ele>351.06</ele>
        <time>2023-06-04T12:24:22.000Z</time>
      </trkpt>
      <trkpt lat="45.83929" lon="4.70469">
        <ele>350.84299</ele>
        <time>2023-06-04T12:24:23.000Z</time>
      </trkpt>
      <trkpt lat="45.83931" lon="4.70465">
        <ele>350.68781</ele>
        <time>2023-06-04T12:24:25.000Z</time>
      </trkpt>
      <trkpt lat="45.83932" lon="4.70462">
        <ele>350.53802</ele>
        <time>2023-06-04T12:24:26.000Z</time>
      </trkpt>
      <trkpt lat="45.83934" lon="4.70458">
        <ele>350.44904</ele>
        <time>2023-06-04T12:24:27.000Z</time>
      </trkpt>
      <trkpt lat="45.83943" lon="4.70455">
        <ele>350.37384</ele>
        <time>2023-06-04T12:24:28.000Z</time>
      </trkpt>
      <trkpt lat="45.83946" lon="4.70452">
        <ele>350.2106</ele>
        <time>2023-06-04T12:24:29.000Z</time>
      </trkpt>
      <trkpt lat="45.83952" lon="4.70446">
        <ele>350.03497</ele>
        <time>2023-06-04T12:24:30.000Z</time>
      </trkpt>
      <trkpt lat="45.83956" lon="4.70445">
        <ele>349.90704</ele>
        <time>2023-06-04T12:24:31.000Z</time>
      </trkpt>
      <trkpt lat="45.83959" lon="4.70441">
        <ele>349.91357</ele>
        <time>2023-06-04T12:24:32.000Z</time>
      </trkpt>
      <trkpt lat="45.83964" lon="4.70434">
        <ele>349.8504</ele>
        <time>2023-06-04T12:24:33.000Z</time>
      </trkpt>
      <trkpt lat="45.83972" lon="4.70435">
        <ele>349.82724</ele>
        <time>2023-06-04T12:24:34.000Z</time>
      </trkpt>
      <trkpt lat="45.83974" lon="4.70433">
        <ele>349.83716</ele>
        <time>2023-06-04T12:24:35.000Z</time>
      </trkpt>
      <trkpt lat="45.8398" lon="4.70433">
        <ele>349.9678</ele>
        <time>2023-06-04T12:24:36.000Z</time>
      </trkpt>
      <trkpt lat="45.83984" lon="4.7043">
        <ele>350.18381</ele>
        <time>2023-06-04T12:24:37.000Z</time>
      </trkpt>
      <trkpt lat="45.83987" lon="4.70426">
        <ele>350.41412</ele>
        <time>2023-06-04T12:24:38.000Z</time>
      </trkpt>
      <trkpt lat="45.83989" lon="4.70428">
        <ele>350.62158</ele>
        <time>2023-06-04T12:24:39.000Z</time>
      </trkpt>
      <trkpt lat="45.83996" lon="4.70427">
        <ele>350.83572</ele>
        <time>2023-06-04T12:24:40.000Z</time>
      </trkpt>
      <trkpt lat="45.84001" lon="4.70423">
        <ele>350.83783</ele>
        <time>2023-06-04T12:24:41.000Z</time>
      </trkpt>
      <trkpt lat="45.84006" lon="4.70419">
        <ele>350.88174</ele>
        <time>2023-06-04T12:24:42.000Z</time>
      </trkpt>
      <trkpt lat="45.84014" lon="4.70413">
        <ele>350.95978</ele>
        <time>2023-06-04T12:24:43.000Z</time>
      </trkpt>
      <trkpt lat="45.8402" lon="4.70408">
        <ele>350.99014</ele>
        <time>2023-06-04T12:24:44.000Z</time>
      </trkpt>
      <trkpt lat="45.84025" lon="4.70409">
        <ele>350.9577</ele>
        <time>2023-06-04T12:24:45.000Z</time>
      </trkpt>
      <trkpt lat="45.8403" lon="4.70405">
        <ele>350.93372</ele>
        <time>2023-06-04T12:24:46.000Z</time>
      </trkpt>
      <trkpt lat="45.84036" lon="4.70406">
        <ele>350.89215</ele>
        <time>2023-06-04T12:24:47.000Z</time>
      </trkpt>
      <trkpt lat="45.84039" lon="4.70405">
        <ele>350.87222</ele>
        <time>2023-06-04T12:24:48.000Z</time>
      </trkpt>
      <trkpt lat="45.84046" lon="4.70402">
        <ele>350.8244</ele>
        <time>2023-06-04T12:24:49.000Z</time>
      </trkpt>
      <trkpt lat="45.8405" lon="4.70403">
        <ele>350.85068</ele>
        <time>2023-06-04T12:24:50.000Z</time>
      </trkpt>
      <trkpt lat="45.84054" lon="4.70399">
        <ele>350.88388</ele>
        <time>2023-06-04T12:24:51.000Z</time>
      </trkpt>
      <trkpt lat="45.84056" lon="4.70395">
        <ele>350.836</ele>
        <time>2023-06-04T12:24:52.000Z</time>
      </trkpt>
      <trkpt lat="45.84063" lon="4.70389">
        <ele>350.79865</ele>
        <time>2023-06-04T12:24:53.000Z</time>
      </trkpt>
      <trkpt lat="45.8407" lon="4.70384">
        <ele>350.7287</ele>
        <time>2023-06-04T12:24:54.000Z</time>
      </trkpt>
      <trkpt lat="45.84078" lon="4.70381">
        <ele>350.69226</ele>
        <time>2023-06-04T12:24:55.000Z</time>
      </trkpt>
      <trkpt lat="45.84082" lon="4.70379">
        <ele>350.6438</ele>
        <time>2023-06-04T12:24:56.000Z</time>
      </trkpt>
      <trkpt lat="45.84087" lon="4.70378">
        <ele>350.56433</ele>
        <time>2023-06-04T12:24:57.000Z</time>
      </trkpt>
      <trkpt lat="45.84093" lon="4.70375">
        <ele>350.46149</ele>
        <time>2023-06-04T12:24:58.000Z</time>
      </trkpt>
      <trkpt lat="45.84095" lon="4.70371">
        <ele>350.35059</ele>
        <time>2023-06-04T12:24:59.000Z</time>
      </trkpt>
      <trkpt lat="45.84099" lon="4.70369">
        <ele>350.20987</ele>
        <time>2023-06-04T12:25:00.000Z</time>
      </trkpt>
      <trkpt lat="45.84104" lon="4.70363">
        <ele>350.04593</ele>
        <time>2023-06-04T12:25:01.000Z</time>
      </trkpt>
      <trkpt lat="45.84111" lon="4.70356">
        <ele>350.04764</ele>
        <time>2023-06-04T12:25:02.000Z</time>
      </trkpt>
      <trkpt lat="45.84118" lon="4.70352">
        <ele>349.99124</ele>
        <time>2023-06-04T12:25:03.000Z</time>
      </trkpt>
      <trkpt lat="45.84123" lon="4.70353">
        <ele>349.93503</ele>
        <time>2023-06-04T12:25:04.000Z</time>
      </trkpt>
      <trkpt lat="45.84128" lon="4.70348">
        <ele>349.89261</ele>
        <time>2023-06-04T12:25:05.000Z</time>
      </trkpt>
      <trkpt lat="45.84134" lon="4.70343">
        <ele>349.91895</ele>
        <time>2023-06-04T12:25:06.000Z</time>
      </trkpt>
      <trkpt lat="45.84139" lon="4.70335">
        <ele>349.94809</ele>
        <time>2023-06-04T12:25:07.000Z</time>
      </trkpt>
      <trkpt lat="45.84149" lon="4.70333">
        <ele>349.9696</ele>
        <time>2023-06-04T12:25:08.000Z</time>
      </trkpt>
      <trkpt lat="45.84154" lon="4.7033">
        <ele>349.46851</ele>
        <time>2023-06-04T12:25:09.000Z</time>
      </trkpt>
      <trkpt lat="45.8416" lon="4.70328">
        <ele>348.83707</ele>
        <time>2023-06-04T12:25:10.000Z</time>
      </trkpt>
      <trkpt lat="45.84168" lon="4.70326">
        <ele>348.13129</ele>
        <time>2023-06-04T12:25:11.000Z</time>
      </trkpt>
      <trkpt lat="45.84175" lon="4.70328">
        <ele>347.40726</ele>
        <time>2023-06-04T12:25:12.000Z</time>
      </trkpt>
      <trkpt lat="45.84182" lon="4.70329">
        <ele>347.33295</ele>
        <time>2023-06-04T12:25:14.000Z</time>
      </trkpt>
      <trkpt lat="45.84189" lon="4.70329">
        <ele>347.28973</ele>
        <time>2023-06-04T12:25:15.000Z</time>
      </trkpt>
      <trkpt lat="45.84195" lon="4.70329">
        <ele>346.98077</ele>
        <time>2023-06-04T12:25:16.000Z</time>
      </trkpt>
      <trkpt lat="45.842" lon="4.7033">
        <ele>346.47003</ele>
        <time>2023-06-04T12:25:17.000Z</time>
      </trkpt>
      <trkpt lat="45.84208" lon="4.70331">
        <ele>345.931</ele>
        <time>2023-06-04T12:25:18.000Z</time>
      </trkpt>
      <trkpt lat="45.84213" lon="4.70332">
        <ele>345.40756</ele>
        <time>2023-06-04T12:25:19.000Z</time>
      </trkpt>
      <trkpt lat="45.84217" lon="4.70333">
        <ele>344.91193</ele>
        <time>2023-06-04T12:25:20.000Z</time>
      </trkpt>
      <trkpt lat="45.84222" lon="4.70337">
        <ele>344.44778</ele>
        <time>2023-06-04T12:25:21.000Z</time>
      </trkpt>
      <trkpt lat="45.84228" lon="4.70342">
        <ele>343.9147</ele>
        <time>2023-06-04T12:25:22.000Z</time>
      </trkpt>
      <trkpt lat="45.84234" lon="4.70345">
        <ele>343.3912</ele>
        <time>2023-06-04T12:25:23.000Z</time>
      </trkpt>
      <trkpt lat="45.84238" lon="4.70349">
        <ele>342.91251</ele>
        <time>2023-06-04T12:25:24.000Z</time>
      </trkpt>
      <trkpt lat="45.84244" lon="4.7035">
        <ele>342.43756</ele>
        <time>2023-06-04T12:25:25.000Z</time>
      </trkpt>
      <trkpt lat="45.8425" lon="4.70356">
        <ele>341.98697</ele>
        <time>2023-06-04T12:25:26.000Z</time>
      </trkpt>
      <trkpt lat="45.84256" lon="4.70356">
        <ele>341.43982</ele>
        <time>2023-06-04T12:25:27.000Z</time>
      </trkpt>
      <trkpt lat="45.84261" lon="4.70358">
        <ele>340.89557</ele>
        <time>2023-06-04T12:25:28.000Z</time>
      </trkpt>
      <trkpt lat="45.84265" lon="4.70364">
        <ele>340.39142</ele>
        <time>2023-06-04T12:25:29.000Z</time>
      </trkpt>
      <trkpt lat="45.84273" lon="4.7037">
        <ele>340.40594</ele>
        <time>2023-06-04T12:25:30.000Z</time>
      </trkpt>
      <trkpt lat="45.84276" lon="4.7037">
        <ele>340.49786</ele>
        <time>2023-06-04T12:25:31.000Z</time>
      </trkpt>
      <trkpt lat="45.84281" lon="4.70375">
        <ele>340.65985</ele>
        <time>2023-06-04T12:25:32.000Z</time>
      </trkpt>
      <trkpt lat="45.84287" lon="4.70377">
        <ele>340.80511</ele>
        <time>2023-06-04T12:25:33.000Z</time>
      </trkpt>
      <trkpt lat="45.84293" lon="4.7038">
        <ele>340.24927</ele>
        <time>2023-06-04T12:25:34.000Z</time>
      </trkpt>
      <trkpt lat="45.84297" lon="4.70384">
        <ele>339.61261</ele>
        <time>2023-06-04T12:25:35.000Z</time>
      </trkpt>
      <trkpt lat="45.84301" lon="4.70388">
        <ele>339.81812</ele>
        <time>2023-06-04T12:25:36.000Z</time>
      </trkpt>
      <trkpt lat="45.84308" lon="4.70393">
        <ele>340.03607</ele>
        <time>2023-06-04T12:25:37.000Z</time>
      </trkpt>
      <trkpt lat="45.84309" lon="4.70397">
        <ele>340.3432</ele>
        <time>2023-06-04T12:25:38.000Z</time>
      </trkpt>
      <trkpt lat="45.84313" lon="4.70403">
        <ele>340.67651</ele>
        <time>2023-06-04T12:25:39.000Z</time>
      </trkpt>
      <trkpt lat="45.84316" lon="4.7041">
        <ele>341.04214</ele>
        <time>2023-06-04T12:25:40.000Z</time>
      </trkpt>
      <trkpt lat="45.84322" lon="4.70411">
        <ele>341.40698</ele>
        <time>2023-06-04T12:25:41.000Z</time>
      </trkpt>
      <trkpt lat="45.84327" lon="4.70418">
        <ele>341.82941</ele>
        <time>2023-06-04T12:25:42.000Z</time>
      </trkpt>
      <trkpt lat="45.84331" lon="4.70423">
        <ele>342.2579</ele>
        <time>2023-06-04T12:25:43.000Z</time>
      </trkpt>
      <trkpt lat="45.84339" lon="4.70425">
        <ele>342.647</ele>
        <time>2023-06-04T12:25:45.000Z</time>
      </trkpt>
      <trkpt lat="45.84353" lon="4.70429">
        <ele>342.98312</ele>
        <time>2023-06-04T12:25:46.000Z</time>
      </trkpt>
      <trkpt lat="45.84361" lon="4.70431">
        <ele>343.37363</ele>
        <time>2023-06-04T12:25:47.000Z</time>
      </trkpt>
      <trkpt lat="45.84368" lon="4.70433">
        <ele>343.73468</ele>
        <time>2023-06-04T12:25:48.000Z</time>
      </trkpt>
      <trkpt lat="45.84374" lon="4.70435">
        <ele>344.06509</ele>
        <time>2023-06-04T12:25:49.000Z</time>
      </trkpt>
      <trkpt lat="45.84379" lon="4.70437">
        <ele>344.35229</ele>
        <time>2023-06-04T12:25:50.000Z</time>
      </trkpt>
      <trkpt lat="45.8439" lon="4.70437">
        <ele>344.63022</ele>
        <time>2023-06-04T12:25:51.000Z</time>
      </trkpt>
      <trkpt lat="45.84393" lon="4.70442">
        <ele>344.88947</ele>
        <time>2023-06-04T12:25:52.000Z</time>
      </trkpt>
      <trkpt lat="45.84405" lon="4.70444">
        <ele>345.09241</ele>
        <time>2023-06-04T12:25:53.000Z</time>
      </trkpt>
      <trkpt lat="45.84407" lon="4.70446">
        <ele>345.26776</ele>
        <time>2023-06-04T12:25:54.000Z</time>
      </trkpt>
      <trkpt lat="45.84414" lon="4.70447">
        <ele>345.42609</ele>
        <time>2023-06-04T12:25:55.000Z</time>
      </trkpt>
      <trkpt lat="45.84423" lon="4.70447">
        <ele>345.64618</ele>
        <time>2023-06-04T12:25:56.000Z</time>
      </trkpt>
      <trkpt lat="45.84429" lon="4.70448">
        <ele>345.17566</ele>
        <time>2023-06-04T12:25:57.000Z</time>
      </trkpt>
      <trkpt lat="45.84436" lon="4.70448">
        <ele>344.89804</ele>
        <time>2023-06-04T12:25:58.000Z</time>
      </trkpt>
      <trkpt lat="45.84442" lon="4.70448">
        <ele>344.61676</ele>
        <time>2023-06-04T12:25:59.000Z</time>
      </trkpt>
      <trkpt lat="45.84449" lon="4.70454">
        <ele>344.34149</ele>
        <time>2023-06-04T12:26:00.000Z</time>
      </trkpt>
      <trkpt lat="45.84456" lon="4.70455">
        <ele>344.05402</ele>
        <time>2023-06-04T12:26:01.000Z</time>
      </trkpt>
      <trkpt lat="45.84464" lon="4.70457">
        <ele>343.72809</ele>
        <time>2023-06-04T12:26:02.000Z</time>
      </trkpt>
      <trkpt lat="45.84471" lon="4.70459">
        <ele>343.36505</ele>
        <time>2023-06-04T12:26:03.000Z</time>
      </trkpt>
      <trkpt lat="45.84476" lon="4.7046">
        <ele>343.03839</ele>
        <time>2023-06-04T12:26:04.000Z</time>
      </trkpt>
      <trkpt lat="45.84485" lon="4.70459">
        <ele>342.76971</ele>
        <time>2023-06-04T12:26:05.000Z</time>
      </trkpt>
      <trkpt lat="45.84492" lon="4.70461">
        <ele>342.52008</ele>
        <time>2023-06-04T12:26:06.000Z</time>
      </trkpt>
      <trkpt lat="45.84501" lon="4.70464">
        <ele>342.14313</ele>
        <time>2023-06-04T12:26:07.000Z</time>
      </trkpt>
      <trkpt lat="45.84508" lon="4.70465">
        <ele>341.82504</ele>
        <time>2023-06-04T12:26:08.000Z</time>
      </trkpt>
      <trkpt lat="45.84511" lon="4.70467">
        <ele>341.55136</ele>
        <time>2023-06-04T12:26:09.000Z</time>
      </trkpt>
      <trkpt lat="45.84518" lon="4.70467">
        <ele>341.30957</ele>
        <time>2023-06-04T12:26:10.000Z</time>
      </trkpt>
      <trkpt lat="45.84526" lon="4.70469">
        <ele>341.06509</ele>
        <time>2023-06-04T12:26:11.000Z</time>
      </trkpt>
      <trkpt lat="45.84532" lon="4.7047">
        <ele>340.91574</ele>
        <time>2023-06-04T12:26:12.000Z</time>
      </trkpt>
      <trkpt lat="45.8454" lon="4.70472">
        <ele>340.69968</ele>
        <time>2023-06-04T12:26:13.000Z</time>
      </trkpt>
      <trkpt lat="45.84546" lon="4.70473">
        <ele>340.50812</ele>
        <time>2023-06-04T12:26:14.000Z</time>
      </trkpt>
      <trkpt lat="45.84554" lon="4.70472">
        <ele>340.40997</ele>
        <time>2023-06-04T12:26:15.000Z</time>
      </trkpt>
      <trkpt lat="45.8456" lon="4.70474">
        <ele>340.32202</ele>
        <time>2023-06-04T12:26:16.000Z</time>
      </trkpt>
      <trkpt lat="45.84565" lon="4.70475">
        <ele>340.28769</ele>
        <time>2023-06-04T12:26:17.000Z</time>
      </trkpt>
      <trkpt lat="45.84572" lon="4.70477">
        <ele>339.65762</ele>
        <time>2023-06-04T12:26:18.000Z</time>
      </trkpt>
      <trkpt lat="45.84578" lon="4.70479">
        <ele>339.00134</ele>
        <time>2023-06-04T12:26:19.000Z</time>
      </trkpt>
      <trkpt lat="45.84586" lon="4.70481">
        <ele>338.35587</ele>
        <time>2023-06-04T12:26:20.000Z</time>
      </trkpt>
      <trkpt lat="45.84591" lon="4.70481">
        <ele>337.64813</ele>
        <time>2023-06-04T12:26:21.000Z</time>
      </trkpt>
      <trkpt lat="45.84598" lon="4.70483">
        <ele>336.9895</ele>
        <time>2023-06-04T12:26:22.000Z</time>
      </trkpt>
      <trkpt lat="45.84606" lon="4.7048">
        <ele>336.26709</ele>
        <time>2023-06-04T12:26:23.000Z</time>
      </trkpt>
      <trkpt lat="45.84611" lon="4.70481">
        <ele>335.46698</ele>
        <time>2023-06-04T12:26:24.000Z</time>
      </trkpt>
      <trkpt lat="45.84616" lon="4.70479">
        <ele>334.56781</ele>
        <time>2023-06-04T12:26:25.000Z</time>
      </trkpt>
      <trkpt lat="45.8462" lon="4.70478">
        <ele>333.7193</ele>
        <time>2023-06-04T12:26:26.000Z</time>
      </trkpt>
      <trkpt lat="45.84624" lon="4.70476">
        <ele>332.95319</ele>
        <time>2023-06-04T12:26:27.000Z</time>
      </trkpt>
      <trkpt lat="45.84633" lon="4.70481">
        <ele>332.10431</ele>
        <time>2023-06-04T12:26:28.000Z</time>
      </trkpt>
      <trkpt lat="45.8464" lon="4.7048">
        <ele>331.21094</ele>
        <time>2023-06-04T12:26:29.000Z</time>
      </trkpt>
      <trkpt lat="45.84646" lon="4.70479">
        <ele>330.33771</ele>
        <time>2023-06-04T12:26:30.000Z</time>
      </trkpt>
      <trkpt lat="45.8465" lon="4.70478">
        <ele>329.52402</ele>
        <time>2023-06-04T12:26:31.000Z</time>
      </trkpt>
      <trkpt lat="45.84655" lon="4.7048">
        <ele>328.66455</ele>
        <time>2023-06-04T12:26:32.000Z</time>
      </trkpt>
      <trkpt lat="45.84659" lon="4.70479">
        <ele>327.87665</ele>
        <time>2023-06-04T12:26:33.000Z</time>
      </trkpt>
      <trkpt lat="45.84669" lon="4.70484">
        <ele>327.45541</ele>
        <time>2023-06-04T12:26:34.000Z</time>
      </trkpt>
      <trkpt lat="45.84675" lon="4.70484">
        <ele>326.85025</ele>
        <time>2023-06-04T12:26:35.000Z</time>
      </trkpt>
      <trkpt lat="45.8468" lon="4.70485">
        <ele>326.28204</ele>
        <time>2023-06-04T12:26:36.000Z</time>
      </trkpt>
      <trkpt lat="45.84687" lon="4.70487">
        <ele>325.50497</ele>
        <time>2023-06-04T12:26:37.000Z</time>
      </trkpt>
      <trkpt lat="45.84693" lon="4.70489">
        <ele>325.23047</ele>
        <time>2023-06-04T12:26:38.000Z</time>
      </trkpt>
      <trkpt lat="45.84698" lon="4.70491">
        <ele>324.97406</ele>
        <time>2023-06-04T12:26:39.000Z</time>
      </trkpt>
      <trkpt lat="45.84707" lon="4.70494">
        <ele>324.69711</ele>
        <time>2023-06-04T12:26:40.000Z</time>
      </trkpt>
      <trkpt lat="45.84711" lon="4.705">
        <ele>324.49576</ele>
        <time>2023-06-04T12:26:41.000Z</time>
      </trkpt>
      <trkpt lat="45.84719" lon="4.70503">
        <ele>324.29251</ele>
        <time>2023-06-04T12:26:42.000Z</time>
      </trkpt>
      <trkpt lat="45.84719" lon="4.70511">
        <ele>324.18591</ele>
        <time>2023-06-04T12:26:43.000Z</time>
      </trkpt>
      <trkpt lat="45.84725" lon="4.70515">
        <ele>324.13211</ele>
        <time>2023-06-04T12:26:44.000Z</time>
      </trkpt>
      <trkpt lat="45.84729" lon="4.70518">
        <ele>324.14331</ele>
        <time>2023-06-04T12:26:45.000Z</time>
      </trkpt>
      <trkpt lat="45.8473" lon="4.70522">
        <ele>324.17877</ele>
        <time>2023-06-04T12:26:46.000Z</time>
      </trkpt>
      <trkpt lat="45.84736" lon="4.70531">
        <ele>324.21643</ele>
        <time>2023-06-04T12:26:47.000Z</time>
      </trkpt>
      <trkpt lat="45.84739" lon="4.7054">
        <ele>324.33347</ele>
        <time>2023-06-04T12:26:48.000Z</time>
      </trkpt>
      <trkpt lat="45.84747" lon="4.70547">
        <ele>324.44885</ele>
        <time>2023-06-04T12:26:49.000Z</time>
      </trkpt>
      <trkpt lat="45.8475" lon="4.70553">
        <ele>324.60083</ele>
        <time>2023-06-04T12:26:50.000Z</time>
      </trkpt>
      <trkpt lat="45.84753" lon="4.70559">
        <ele>324.74155</ele>
        <time>2023-06-04T12:26:51.000Z</time>
      </trkpt>
      <trkpt lat="45.84765" lon="4.70567">
        <ele>324.83661</ele>
        <time>2023-06-04T12:26:52.000Z</time>
      </trkpt>
      <trkpt lat="45.84769" lon="4.7057">
        <ele>324.9595</ele>
        <time>2023-06-04T12:26:53.000Z</time>
      </trkpt>
      <trkpt lat="45.84769" lon="4.7058">
        <ele>324.69296</ele>
        <time>2023-06-04T12:26:54.000Z</time>
      </trkpt>
      <trkpt lat="45.84772" lon="4.70588">
        <ele>324.58014</ele>
        <time>2023-06-04T12:26:55.000Z</time>
      </trkpt>
      <trkpt lat="45.84772" lon="4.70597">
        <ele>324.41888</ele>
        <time>2023-06-04T12:26:56.000Z</time>
      </trkpt>
      <trkpt lat="45.84775" lon="4.70602">
        <ele>324.49493</ele>
        <time>2023-06-04T12:26:57.000Z</time>
      </trkpt>
      <trkpt lat="45.84781" lon="4.70608">
        <ele>324.69568</ele>
        <time>2023-06-04T12:26:58.000Z</time>
      </trkpt>
      <trkpt lat="45.84784" lon="4.70614">
        <ele>324.86548</ele>
        <time>2023-06-04T12:26:59.000Z</time>
      </trkpt>
      <trkpt lat="45.84794" lon="4.7062">
        <ele>325.01361</ele>
        <time>2023-06-04T12:27:00.000Z</time>
      </trkpt>
      <trkpt lat="45.84797" lon="4.70626">
        <ele>325.1142</ele>
        <time>2023-06-04T12:27:01.000Z</time>
      </trkpt>
      <trkpt lat="45.84801" lon="4.70631">
        <ele>325.21054</ele>
        <time>2023-06-04T12:27:02.000Z</time>
      </trkpt>
      <trkpt lat="45.84807" lon="4.70638">
        <ele>325.27725</ele>
        <time>2023-06-04T12:27:03.000Z</time>
      </trkpt>
      <trkpt lat="45.84814" lon="4.70643">
        <ele>325.43353</ele>
        <time>2023-06-04T12:27:04.000Z</time>
      </trkpt>
      <trkpt lat="45.84818" lon="4.7065">
        <ele>325.60394</ele>
        <time>2023-06-04T12:27:05.000Z</time>
      </trkpt>
      <trkpt lat="45.84823" lon="4.70655">
        <ele>325.72025</ele>
        <time>2023-06-04T12:27:06.000Z</time>
      </trkpt>
      <trkpt lat="45.8483" lon="4.7066">
        <ele>325.79724</ele>
        <time>2023-06-04T12:27:07.000Z</time>
      </trkpt>
      <trkpt lat="45.84836" lon="4.70666">
        <ele>325.92899</ele>
        <time>2023-06-04T12:27:08.000Z</time>
      </trkpt>
      <trkpt lat="45.84833" lon="4.70676">
        <ele>326.05734</ele>
        <time>2023-06-04T12:27:09.000Z</time>
      </trkpt>
      <trkpt lat="45.84838" lon="4.70685">
        <ele>326.10724</ele>
        <time>2023-06-04T12:27:10.000Z</time>
      </trkpt>
      <trkpt lat="45.84843" lon="4.70694">
        <ele>326.13904</ele>
        <time>2023-06-04T12:27:11.000Z</time>
      </trkpt>
      <trkpt lat="45.84844" lon="4.70706">
        <ele>326.18121</ele>
        <time>2023-06-04T12:27:12.000Z</time>
      </trkpt>
      <trkpt lat="45.84851" lon="4.7071">
        <ele>326.19476</ele>
        <time>2023-06-04T12:27:13.000Z</time>
      </trkpt>
      <trkpt lat="45.84852" lon="4.70717">
        <ele>326.21646</ele>
        <time>2023-06-04T12:27:14.000Z</time>
      </trkpt>
      <trkpt lat="45.84856" lon="4.70724">
        <ele>326.27341</ele>
        <time>2023-06-04T12:27:15.000Z</time>
      </trkpt>
      <trkpt lat="45.84861" lon="4.7073">
        <ele>326.3244</ele>
        <time>2023-06-04T12:27:16.000Z</time>
      </trkpt>
      <trkpt lat="45.84867" lon="4.70741">
        <ele>326.35684</ele>
        <time>2023-06-04T12:27:17.000Z</time>
      </trkpt>
      <trkpt lat="45.84873" lon="4.70748">
        <ele>326.37067</ele>
        <time>2023-06-04T12:27:18.000Z</time>
      </trkpt>
      <trkpt lat="45.84879" lon="4.70753">
        <ele>326.39056</ele>
        <time>2023-06-04T12:27:19.000Z</time>
      </trkpt>
      <trkpt lat="45.84886" lon="4.70754">
        <ele>326.41501</ele>
        <time>2023-06-04T12:27:20.000Z</time>
      </trkpt>
      <trkpt lat="45.84892" lon="4.70759">
        <ele>326.38885</ele>
        <time>2023-06-04T12:27:21.000Z</time>
      </trkpt>
      <trkpt lat="45.84899" lon="4.70761">
        <ele>326.32425</ele>
        <time>2023-06-04T12:27:22.000Z</time>
      </trkpt>
      <trkpt lat="45.84907" lon="4.70764">
        <ele>326.26132</ele>
        <time>2023-06-04T12:27:23.000Z</time>
      </trkpt>
      <trkpt lat="45.84914" lon="4.70766">
        <ele>326.07306</ele>
        <time>2023-06-04T12:27:24.000Z</time>
      </trkpt>
      <trkpt lat="45.84919" lon="4.70768">
        <ele>325.83228</ele>
        <time>2023-06-04T12:27:25.000Z</time>
      </trkpt>
      <trkpt lat="45.84927" lon="4.7077">
        <ele>325.60614</ele>
        <time>2023-06-04T12:27:26.000Z</time>
      </trkpt>
      <trkpt lat="45.84931" lon="4.70772">
        <ele>325.38013</ele>
        <time>2023-06-04T12:27:27.000Z</time>
      </trkpt>
      <trkpt lat="45.84937" lon="4.70774">
        <ele>325.09381</ele>
        <time>2023-06-04T12:27:28.000Z</time>
      </trkpt>
      <trkpt lat="45.84942" lon="4.70776">
        <ele>324.85358</ele>
        <time>2023-06-04T12:27:29.000Z</time>
      </trkpt>
      <trkpt lat="45.8495" lon="4.70778">
        <ele>324.66351</ele>
        <time>2023-06-04T12:27:30.000Z</time>
      </trkpt>
      <trkpt lat="45.84958" lon="4.70779">
        <ele>324.4747</ele>
        <time>2023-06-04T12:27:31.000Z</time>
      </trkpt>
      <trkpt lat="45.84966" lon="4.70777">
        <ele>324.23309</ele>
        <time>2023-06-04T12:27:32.000Z</time>
      </trkpt>
      <trkpt lat="45.84971" lon="4.7078">
        <ele>324.0058</ele>
        <time>2023-06-04T12:27:33.000Z</time>
      </trkpt>
      <trkpt lat="45.84979" lon="4.70781">
        <ele>323.79758</ele>
        <time>2023-06-04T12:27:34.000Z</time>
      </trkpt>
      <trkpt lat="45.84987" lon="4.70785">
        <ele>323.54279</ele>
        <time>2023-06-04T12:27:35.000Z</time>
      </trkpt>
      <trkpt lat="45.84997" lon="4.70788">
        <ele>323.29535</ele>
        <time>2023-06-04T12:27:36.000Z</time>
      </trkpt>
      <trkpt lat="45.85008" lon="4.70791">
        <ele>323.03693</ele>
        <time>2023-06-04T12:27:37.000Z</time>
      </trkpt>
      <trkpt lat="45.85015" lon="4.70792">
        <ele>322.79483</ele>
        <time>2023-06-04T12:27:38.000Z</time>
      </trkpt>
      <trkpt lat="45.85022" lon="4.70795">
        <ele>322.5491</ele>
        <time>2023-06-04T12:27:39.000Z</time>
      </trkpt>
      <trkpt lat="45.85035" lon="4.70802">
        <ele>322.27225</ele>
        <time>2023-06-04T12:27:40.000Z</time>
      </trkpt>
      <trkpt lat="45.85048" lon="4.70808">
        <ele>321.99289</ele>
        <time>2023-06-04T12:27:41.000Z</time>
      </trkpt>
      <trkpt lat="45.8506" lon="4.70811">
        <ele>321.69409</ele>
        <time>2023-06-04T12:27:42.000Z</time>
      </trkpt>
      <trkpt lat="45.85077" lon="4.70813">
        <ele>321.4068</ele>
        <time>2023-06-04T12:27:43.000Z</time>
      </trkpt>
      <trkpt lat="45.85093" lon="4.70815">
        <ele>321.14444</ele>
        <time>2023-06-04T12:27:44.000Z</time>
      </trkpt>
      <trkpt lat="45.85106" lon="4.70816">
        <ele>320.91653</ele>
        <time>2023-06-04T12:27:45.000Z</time>
      </trkpt>
      <trkpt lat="45.85123" lon="4.70817">
        <ele>320.53558</ele>
        <time>2023-06-04T12:27:46.000Z</time>
      </trkpt>
      <trkpt lat="45.85135" lon="4.7082">
        <ele>320.17523</ele>
        <time>2023-06-04T12:27:47.000Z</time>
      </trkpt>
      <trkpt lat="45.85149" lon="4.70822">
        <ele>319.83575</ele>
        <time>2023-06-04T12:27:48.000Z</time>
      </trkpt>
      <trkpt lat="45.85155" lon="4.70829">
        <ele>319.35522</ele>
        <time>2023-06-04T12:27:49.000Z</time>
      </trkpt>
      <trkpt lat="45.85163" lon="4.70834">
        <ele>318.84314</ele>
        <time>2023-06-04T12:27:50.000Z</time>
      </trkpt>
      <trkpt lat="45.85176" lon="4.70838">
        <ele>318.31592</ele>
        <time>2023-06-04T12:27:51.000Z</time>
      </trkpt>
      <trkpt lat="45.85188" lon="4.7084">
        <ele>317.76984</ele>
        <time>2023-06-04T12:27:52.000Z</time>
      </trkpt>
      <trkpt lat="45.85193" lon="4.70837">
        <ele>317.18451</ele>
        <time>2023-06-04T12:27:53.000Z</time>
      </trkpt>
      <trkpt lat="45.85204" lon="4.70834">
        <ele>316.71246</ele>
        <time>2023-06-04T12:27:54.000Z</time>
      </trkpt>
      <trkpt lat="45.85212" lon="4.70828">
        <ele>316.64316</ele>
        <time>2023-06-04T12:27:55.000Z</time>
      </trkpt>
      <trkpt lat="45.85221" lon="4.70831">
        <ele>316.66852</ele>
        <time>2023-06-04T12:27:56.000Z</time>
      </trkpt>
      <trkpt lat="45.85232" lon="4.70825">
        <ele>316.64838</ele>
        <time>2023-06-04T12:27:57.000Z</time>
      </trkpt>
      <trkpt lat="45.85238" lon="4.70817">
        <ele>316.29474</ele>
        <time>2023-06-04T12:27:58.000Z</time>
      </trkpt>
      <trkpt lat="45.85243" lon="4.70804">
        <ele>315.91779</ele>
        <time>2023-06-04T12:27:59.000Z</time>
      </trkpt>
      <trkpt lat="45.85249" lon="4.70796">
        <ele>315.52115</ele>
        <time>2023-06-04T12:28:00.000Z</time>
      </trkpt>
      <trkpt lat="45.85258" lon="4.7079">
        <ele>315.07416</ele>
        <time>2023-06-04T12:28:01.000Z</time>
      </trkpt>
      <trkpt lat="45.85265" lon="4.70787">
        <ele>314.58701</ele>
        <time>2023-06-04T12:28:02.000Z</time>
      </trkpt>
      <trkpt lat="45.85275" lon="4.70793">
        <ele>313.96915</ele>
        <time>2023-06-04T12:28:03.000Z</time>
      </trkpt>
      <trkpt lat="45.85278" lon="4.70799">
        <ele>313.0499</ele>
        <time>2023-06-04T12:28:04.000Z</time>
      </trkpt>
      <trkpt lat="45.85286" lon="4.70803">
        <ele>312.12686</ele>
        <time>2023-06-04T12:28:05.000Z</time>
      </trkpt>
      <trkpt lat="45.85294" lon="4.7081">
        <ele>311.29495</ele>
        <time>2023-06-04T12:28:06.000Z</time>
      </trkpt>
      <trkpt lat="45.85298" lon="4.70817">
        <ele>310.55157</ele>
        <time>2023-06-04T12:28:07.000Z</time>
      </trkpt>
      <trkpt lat="45.85306" lon="4.70824">
        <ele>309.76105</ele>
        <time>2023-06-04T12:28:08.000Z</time>
      </trkpt>
      <trkpt lat="45.85314" lon="4.70838">
        <ele>309.1398</ele>
        <time>2023-06-04T12:28:09.000Z</time>
      </trkpt>
      <trkpt lat="45.85317" lon="4.70842">
        <ele>308.55365</ele>
        <time>2023-06-04T12:28:10.000Z</time>
      </trkpt>
      <trkpt lat="45.85326" lon="4.70849">
        <ele>308.04767</ele>
        <time>2023-06-04T12:28:11.000Z</time>
      </trkpt>
      <trkpt lat="45.8533" lon="4.70859">
        <ele>307.58984</ele>
        <time>2023-06-04T12:28:12.000Z</time>
      </trkpt>
      <trkpt lat="45.85332" lon="4.70864">
        <ele>307.11642</ele>
        <time>2023-06-04T12:28:13.000Z</time>
      </trkpt>
      <trkpt lat="45.85337" lon="4.70873">
        <ele>306.58545</ele>
        <time>2023-06-04T12:28:14.000Z</time>
      </trkpt>
      <trkpt lat="45.85343" lon="4.70874">
        <ele>305.6217</ele>
        <time>2023-06-04T12:28:15.000Z</time>
      </trkpt>
      <trkpt lat="45.85347" lon="4.70877">
        <ele>304.49963</ele>
        <time>2023-06-04T12:28:16.000Z</time>
      </trkpt>
      <trkpt lat="45.85356" lon="4.70878">
        <ele>303.37326</ele>
        <time>2023-06-04T12:28:17.000Z</time>
      </trkpt>
      <trkpt lat="45.85362" lon="4.70881">
        <ele>302.47491</ele>
        <time>2023-06-04T12:28:18.000Z</time>
      </trkpt>
      <trkpt lat="45.85367" lon="4.70883">
        <ele>301.55463</ele>
        <time>2023-06-04T12:28:19.000Z</time>
      </trkpt>
      <trkpt lat="45.85374" lon="4.70886">
        <ele>300.68207</ele>
        <time>2023-06-04T12:28:20.000Z</time>
      </trkpt>
      <trkpt lat="45.85378" lon="4.7089">
        <ele>300.05035</ele>
        <time>2023-06-04T12:28:21.000Z</time>
      </trkpt>
      <trkpt lat="45.85384" lon="4.70891">
        <ele>299.44891</ele>
        <time>2023-06-04T12:28:22.000Z</time>
      </trkpt>
      <trkpt lat="45.85392" lon="4.70894">
        <ele>299.03296</ele>
        <time>2023-06-04T12:28:23.000Z</time>
      </trkpt>
      <trkpt lat="45.85398" lon="4.70896">
        <ele>299.02332</ele>
        <time>2023-06-04T12:28:24.000Z</time>
      </trkpt>
      <trkpt lat="45.85402" lon="4.70897">
        <ele>299.01434</ele>
        <time>2023-06-04T12:28:25.000Z</time>
      </trkpt>
      <trkpt lat="45.85408" lon="4.70901">
        <ele>299.05737</ele>
        <time>2023-06-04T12:28:26.000Z</time>
      </trkpt>
      <trkpt lat="45.85416" lon="4.70904">
        <ele>299.02362</ele>
        <time>2023-06-04T12:28:27.000Z</time>
      </trkpt>
      <trkpt lat="45.85422" lon="4.70907">
        <ele>299.15036</ele>
        <time>2023-06-04T12:28:28.000Z</time>
      </trkpt>
      <trkpt lat="45.85426" lon="4.7091">
        <ele>298.85416</ele>
        <time>2023-06-04T12:28:29.000Z</time>
      </trkpt>
      <trkpt lat="45.85433" lon="4.70911">
        <ele>298.2525</ele>
        <time>2023-06-04T12:28:30.000Z</time>
      </trkpt>
      <trkpt lat="45.85438" lon="4.70917">
        <ele>297.28384</ele>
        <time>2023-06-04T12:28:31.000Z</time>
      </trkpt>
      <trkpt lat="45.85443" lon="4.70921">
        <ele>296.36111</ele>
        <time>2023-06-04T12:28:32.000Z</time>
      </trkpt>
      <trkpt lat="45.8545" lon="4.70922">
        <ele>295.51727</ele>
        <time>2023-06-04T12:28:33.000Z</time>
      </trkpt>
      <trkpt lat="45.85456" lon="4.70924">
        <ele>294.44537</ele>
        <time>2023-06-04T12:28:34.000Z</time>
      </trkpt>
      <trkpt lat="45.85462" lon="4.70925">
        <ele>294.65643</ele>
        <time>2023-06-04T12:28:35.000Z</time>
      </trkpt>
      <trkpt lat="45.85465" lon="4.70928">
        <ele>294.87875</ele>
        <time>2023-06-04T12:28:36.000Z</time>
      </trkpt>
      <trkpt lat="45.8547" lon="4.7093">
        <ele>295.24335</ele>
        <time>2023-06-04T12:28:37.000Z</time>
      </trkpt>
      <trkpt lat="45.85478" lon="4.7093">
        <ele>295.70099</ele>
        <time>2023-06-04T12:28:38.000Z</time>
      </trkpt>
      <trkpt lat="45.85483" lon="4.70931">
        <ele>296.29706</ele>
        <time>2023-06-04T12:28:39.000Z</time>
      </trkpt>
      <trkpt lat="45.8549" lon="4.70933">
        <ele>296.99374</ele>
        <time>2023-06-04T12:28:40.000Z</time>
      </trkpt>
      <trkpt lat="45.85493" lon="4.70936">
        <ele>297.1499</ele>
        <time>2023-06-04T12:28:41.000Z</time>
      </trkpt>
      <trkpt lat="45.85496" lon="4.70941">
        <ele>297.33774</ele>
        <time>2023-06-04T12:28:42.000Z</time>
      </trkpt>
      <trkpt lat="45.855" lon="4.70942">
        <ele>297.37775</ele>
        <time>2023-06-04T12:28:43.000Z</time>
      </trkpt>
      <trkpt lat="45.85503" lon="4.70948">
        <ele>297.31223</ele>
        <time>2023-06-04T12:28:44.000Z</time>
      </trkpt>
      <trkpt lat="45.85504" lon="4.70953">
        <ele>297.21927</ele>
        <time>2023-06-04T12:28:45.000Z</time>
      </trkpt>
      <trkpt lat="45.855" lon="4.70963">
        <ele>297.23813</ele>
        <time>2023-06-04T12:28:46.000Z</time>
      </trkpt>
      <trkpt lat="45.855" lon="4.70969">
        <ele>297.3064</ele>
        <time>2023-06-04T12:28:47.000Z</time>
      </trkpt>
      <trkpt lat="45.85499" lon="4.70978">
        <ele>297.28745</ele>
        <time>2023-06-04T12:28:48.000Z</time>
      </trkpt>
      <trkpt lat="45.85499" lon="4.70986">
        <ele>296.58282</ele>
        <time>2023-06-04T12:28:49.000Z</time>
      </trkpt>
      <trkpt lat="45.85499" lon="4.70993">
        <ele>296.15558</ele>
        <time>2023-06-04T12:28:50.000Z</time>
      </trkpt>
      <trkpt lat="45.85497" lon="4.71001">
        <ele>296.00787</ele>
        <time>2023-06-04T12:28:51.000Z</time>
      </trkpt>
      <trkpt lat="45.85497" lon="4.71005">
        <ele>295.77112</ele>
        <time>2023-06-04T12:28:52.000Z</time>
      </trkpt>
      <trkpt lat="45.85497" lon="4.71012">
        <ele>295.47202</ele>
        <time>2023-06-04T12:28:53.000Z</time>
      </trkpt>
      <trkpt lat="45.85502" lon="4.71016">
        <ele>295.28882</ele>
        <time>2023-06-04T12:28:54.000Z</time>
      </trkpt>
      <trkpt lat="45.85507" lon="4.71019">
        <ele>293.8063</ele>
        <time>2023-06-04T12:28:55.000Z</time>
      </trkpt>
      <trkpt lat="45.85509" lon="4.71023">
        <ele>292.4339</ele>
        <time>2023-06-04T12:28:56.000Z</time>
      </trkpt>
      <trkpt lat="45.85511" lon="4.71031">
        <ele>290.9733</ele>
        <time>2023-06-04T12:28:57.000Z</time>
      </trkpt>
      <trkpt lat="45.85516" lon="4.71034">
        <ele>289.51788</ele>
        <time>2023-06-04T12:28:58.000Z</time>
      </trkpt>
      <trkpt lat="45.85519" lon="4.71036">
        <ele>287.97711</ele>
        <time>2023-06-04T12:28:59.000Z</time>
      </trkpt>
      <trkpt lat="45.85521" lon="4.71044">
        <ele>286.33896</ele>
        <time>2023-06-04T12:29:00.000Z</time>
      </trkpt>
      <trkpt lat="45.85518" lon="4.71051">
        <ele>285.04431</ele>
        <time>2023-06-04T12:29:01.000Z</time>
      </trkpt>
      <trkpt lat="45.85518" lon="4.71057">
        <ele>283.77338</ele>
        <time>2023-06-04T12:29:02.000Z</time>
      </trkpt>
      <trkpt lat="45.85518" lon="4.71065">
        <ele>282.60785</ele>
        <time>2023-06-04T12:29:03.000Z</time>
      </trkpt>
      <trkpt lat="45.85518" lon="4.71073">
        <ele>281.47467</ele>
        <time>2023-06-04T12:29:04.000Z</time>
      </trkpt>
      <trkpt lat="45.8552" lon="4.71079">
        <ele>280.33405</ele>
        <time>2023-06-04T12:29:05.000Z</time>
      </trkpt>
      <trkpt lat="45.85522" lon="4.71088">
        <ele>280.37952</ele>
        <time>2023-06-04T12:29:06.000Z</time>
      </trkpt>
      <trkpt lat="45.85522" lon="4.71094">
        <ele>279.97116</ele>
        <time>2023-06-04T12:29:07.000Z</time>
      </trkpt>
      <trkpt lat="45.85523" lon="4.71102">
        <ele>279.55255</ele>
        <time>2023-06-04T12:29:08.000Z</time>
      </trkpt>
      <trkpt lat="45.8552" lon="4.71109">
        <ele>280.14264</ele>
        <time>2023-06-04T12:29:09.000Z</time>
      </trkpt>
      <trkpt lat="45.85521" lon="4.71115">
        <ele>280.66705</ele>
        <time>2023-06-04T12:29:10.000Z</time>
      </trkpt>
      <trkpt lat="45.8552" lon="4.71121">
        <ele>281.2229</ele>
        <time>2023-06-04T12:29:11.000Z</time>
      </trkpt>
      <trkpt lat="45.85518" lon="4.71129">
        <ele>281.77542</ele>
        <time>2023-06-04T12:29:12.000Z</time>
      </trkpt>
      <trkpt lat="45.85518" lon="4.71136">
        <ele>282.38513</ele>
        <time>2023-06-04T12:29:13.000Z</time>
      </trkpt>
      <trkpt lat="45.85517" lon="4.71144">
        <ele>283.0051</ele>
        <time>2023-06-04T12:29:14.000Z</time>
      </trkpt>
      <trkpt lat="45.85516" lon="4.71149">
        <ele>283.65024</ele>
        <time>2023-06-04T12:29:15.000Z</time>
      </trkpt>
      <trkpt lat="45.85515" lon="4.71152">
        <ele>284.2287</ele>
        <time>2023-06-04T12:29:16.000Z</time>
      </trkpt>
      <trkpt lat="45.85513" lon="4.71152">
        <ele>284.85141</ele>
        <time>2023-06-04T12:29:17.000Z</time>
      </trkpt>
      <trkpt lat="45.85511" lon="4.71157">
        <ele>285.53857</ele>
        <time>2023-06-04T12:29:18.000Z</time>
      </trkpt>
      <trkpt lat="45.8551" lon="4.71162">
        <ele>286.22696</ele>
        <time>2023-06-04T12:29:19.000Z</time>
      </trkpt>
      <trkpt lat="45.85507" lon="4.71165">
        <ele>287.12103</ele>
        <time>2023-06-04T12:29:20.000Z</time>
      </trkpt>
      <trkpt lat="45.85506" lon="4.71169">
        <ele>288.06638</ele>
        <time>2023-06-04T12:29:21.000Z</time>
      </trkpt>
      <trkpt lat="45.85504" lon="4.71175">
        <ele>289.29401</ele>
        <time>2023-06-04T12:29:22.000Z</time>
      </trkpt>
      <trkpt lat="45.855" lon="4.71178">
        <ele>290.51382</ele>
        <time>2023-06-04T12:29:23.000Z</time>
      </trkpt>
      <trkpt lat="45.85498" lon="4.71182">
        <ele>291.70389</ele>
        <time>2023-06-04T12:29:24.000Z</time>
      </trkpt>
      <trkpt lat="45.85498" lon="4.71187">
        <ele>292.32672</ele>
        <time>2023-06-04T12:29:25.000Z</time>
      </trkpt>
      <trkpt lat="45.85496" lon="4.71191">
        <ele>291.71158</ele>
        <time>2023-06-04T12:29:26.000Z</time>
      </trkpt>
      <trkpt lat="45.85487" lon="4.71199">
        <ele>291.48853</ele>
        <time>2023-06-04T12:29:27.000Z</time>
      </trkpt>
      <trkpt lat="45.8549" lon="4.71199">
        <ele>291.19379</ele>
        <time>2023-06-04T12:29:28.000Z</time>
      </trkpt>
      <trkpt lat="45.85488" lon="4.71201">
        <ele>290.72455</ele>
        <time>2023-06-04T12:29:30.000Z</time>
      </trkpt>
      <trkpt lat="45.85488" lon="4.71204">
        <ele>290.35443</ele>
        <time>2023-06-04T12:29:31.000Z</time>
      </trkpt>
      <trkpt lat="45.85486" lon="4.71209">
        <ele>290.45074</ele>
        <time>2023-06-04T12:29:32.000Z</time>
      </trkpt>
      <trkpt lat="45.85484" lon="4.71212">
        <ele>290.72372</ele>
        <time>2023-06-04T12:29:33.000Z</time>
      </trkpt>
      <trkpt lat="45.85484" lon="4.71216">
        <ele>291.38123</ele>
        <time>2023-06-04T12:29:34.000Z</time>
      </trkpt>
      <trkpt lat="45.85485" lon="4.71222">
        <ele>291.56586</ele>
        <time>2023-06-04T12:29:35.000Z</time>
      </trkpt>
      <trkpt lat="45.85483" lon="4.71223">
        <ele>291.94739</ele>
        <time>2023-06-04T12:29:36.000Z</time>
      </trkpt>
      <trkpt lat="45.85484" lon="4.71231">
        <ele>292.58444</ele>
        <time>2023-06-04T12:29:38.000Z</time>
      </trkpt>
      <trkpt lat="45.85484" lon="4.71236">
        <ele>293.11716</ele>
        <time>2023-06-04T12:29:39.000Z</time>
      </trkpt>
      <trkpt lat="45.85484" lon="4.71241">
        <ele>293.58746</ele>
        <time>2023-06-04T12:29:40.000Z</time>
      </trkpt>
      <trkpt lat="45.85485" lon="4.71247">
        <ele>293.96088</ele>
        <time>2023-06-04T12:29:41.000Z</time>
      </trkpt>
      <trkpt lat="45.85485" lon="4.71252">
        <ele>294.04163</ele>
        <time>2023-06-04T12:29:42.000Z</time>
      </trkpt>
      <trkpt lat="45.85482" lon="4.71258">
        <ele>294.08047</ele>
        <time>2023-06-04T12:29:43.000Z</time>
      </trkpt>
      <trkpt lat="45.8548" lon="4.71263">
        <ele>293.90634</ele>
        <time>2023-06-04T12:29:44.000Z</time>
      </trkpt>
      <trkpt lat="45.85479" lon="4.71264">
        <ele>293.92755</ele>
        <time>2023-06-04T12:29:45.000Z</time>
      </trkpt>
      <trkpt lat="45.85481" lon="4.71266">
        <ele>294.43921</ele>
        <time>2023-06-04T12:29:49.000Z</time>
      </trkpt>
      <trkpt lat="45.85483" lon="4.71266">
        <ele>295.15793</ele>
        <time>2023-06-04T12:29:51.000Z</time>
      </trkpt>
      <trkpt lat="45.85487" lon="4.71266">
        <ele>296.01767</ele>
        <time>2023-06-04T12:29:53.000Z</time>
      </trkpt>
      <trkpt lat="45.8549" lon="4.71265">
        <ele>296.7774</ele>
        <time>2023-06-04T12:29:55.000Z</time>
      </trkpt>
      <trkpt lat="45.85493" lon="4.71268">
        <ele>297.44867</ele>
        <time>2023-06-04T12:29:57.000Z</time>
      </trkpt>
      <trkpt lat="45.85495" lon="4.71269">
        <ele>298.32318</ele>
        <time>2023-06-04T12:29:58.000Z</time>
      </trkpt>
      <trkpt lat="45.85498" lon="4.71271">
        <ele>299.18646</ele>
        <time>2023-06-04T12:29:59.000Z</time>
      </trkpt>
      <trkpt lat="45.85502" lon="4.71273">
        <ele>299.5661</ele>
        <time>2023-06-04T12:30:00.000Z</time>
      </trkpt>
      <trkpt lat="45.85506" lon="4.71272">
        <ele>300.0307</ele>
        <time>2023-06-04T12:30:01.000Z</time>
      </trkpt>
      <trkpt lat="45.85511" lon="4.71271">
        <ele>300.20123</ele>
        <time>2023-06-04T12:30:02.000Z</time>
      </trkpt>
      <trkpt lat="45.85515" lon="4.71271">
        <ele>300.22247</ele>
        <time>2023-06-04T12:30:03.000Z</time>
      </trkpt>
      <trkpt lat="45.85519" lon="4.7127">
        <ele>300.15115</ele>
        <time>2023-06-04T12:30:04.000Z</time>
      </trkpt>
      <trkpt lat="45.85524" lon="4.71271">
        <ele>299.86603</ele>
        <time>2023-06-04T12:30:05.000Z</time>
      </trkpt>
      <trkpt lat="45.85528" lon="4.71271">
        <ele>299.55692</ele>
        <time>2023-06-04T12:30:06.000Z</time>
      </trkpt>
      <trkpt lat="45.85532" lon="4.71273">
        <ele>299.48648</ele>
        <time>2023-06-04T12:30:07.000Z</time>
      </trkpt>
      <trkpt lat="45.85535" lon="4.71275">
        <ele>299.6076</ele>
        <time>2023-06-04T12:30:08.000Z</time>
      </trkpt>
      <trkpt lat="45.85539" lon="4.71277">
        <ele>299.83121</ele>
        <time>2023-06-04T12:30:09.000Z</time>
      </trkpt>
      <trkpt lat="45.85541" lon="4.71279">
        <ele>299.56772</ele>
        <time>2023-06-04T12:30:10.000Z</time>
      </trkpt>
      <trkpt lat="45.85544" lon="4.71281">
        <ele>299.53687</ele>
        <time>2023-06-04T12:30:11.000Z</time>
      </trkpt>
      <trkpt lat="45.85548" lon="4.71283">
        <ele>299.29282</ele>
        <time>2023-06-04T12:30:12.000Z</time>
      </trkpt>
      <trkpt lat="45.85553" lon="4.71284">
        <ele>298.51361</ele>
        <time>2023-06-04T12:30:13.000Z</time>
      </trkpt>
      <trkpt lat="45.85558" lon="4.71284">
        <ele>298.18887</ele>
        <time>2023-06-04T12:30:14.000Z</time>
      </trkpt>
      <trkpt lat="45.85562" lon="4.71285">
        <ele>297.81927</ele>
        <time>2023-06-04T12:30:15.000Z</time>
      </trkpt>
      <trkpt lat="45.85574" lon="4.71283">
        <ele>297.51538</ele>
        <time>2023-06-04T12:30:16.000Z</time>
      </trkpt>
      <trkpt lat="45.8558" lon="4.71282">
        <ele>297.32925</ele>
        <time>2023-06-04T12:30:17.000Z</time>
      </trkpt>
      <trkpt lat="45.85584" lon="4.71285">
        <ele>297.21942</ele>
        <time>2023-06-04T12:30:18.000Z</time>
      </trkpt>
      <trkpt lat="45.85592" lon="4.71284">
        <ele>296.83832</ele>
        <time>2023-06-04T12:30:19.000Z</time>
      </trkpt>
      <trkpt lat="45.85591" lon="4.71286">
        <ele>296.39224</ele>
        <time>2023-06-04T12:30:20.000Z</time>
      </trkpt>
      <trkpt lat="45.85587" lon="4.71286">
        <ele>295.95416</ele>
        <time>2023-06-04T12:30:21.000Z</time>
      </trkpt>
      <trkpt lat="45.85591" lon="4.7129">
        <ele>295.61835</ele>
        <time>2023-06-04T12:30:22.000Z</time>
      </trkpt>
      <trkpt lat="45.85594" lon="4.7129">
        <ele>295.29568</ele>
        <time>2023-06-04T12:30:23.000Z</time>
      </trkpt>
      <trkpt lat="45.856" lon="4.71289">
        <ele>295.00958</ele>
        <time>2023-06-04T12:30:24.000Z</time>
      </trkpt>
      <trkpt lat="45.85604" lon="4.7129">
        <ele>294.67511</ele>
        <time>2023-06-04T12:30:25.000Z</time>
      </trkpt>
      <trkpt lat="45.85607" lon="4.71293">
        <ele>294.56439</ele>
        <time>2023-06-04T12:30:26.000Z</time>
      </trkpt>
      <trkpt lat="45.85607" lon="4.71298">
        <ele>294.27304</ele>
        <time>2023-06-04T12:30:27.000Z</time>
      </trkpt>
      <trkpt lat="45.85609" lon="4.71299">
        <ele>294.02103</ele>
        <time>2023-06-04T12:30:28.000Z</time>
      </trkpt>
      <trkpt lat="45.85614" lon="4.71293">
        <ele>293.74658</ele>
        <time>2023-06-04T12:30:29.000Z</time>
      </trkpt>
      <trkpt lat="45.85616" lon="4.71296">
        <ele>293.97919</ele>
        <time>2023-06-04T12:30:30.000Z</time>
      </trkpt>
      <trkpt lat="45.85618" lon="4.71294">
        <ele>293.92194</ele>
        <time>2023-06-04T12:30:31.000Z</time>
      </trkpt>
      <trkpt lat="45.85621" lon="4.7129">
        <ele>293.87753</ele>
        <time>2023-06-04T12:30:32.000Z</time>
      </trkpt>
      <trkpt lat="45.85625" lon="4.7128">
        <ele>291.70743</ele>
        <time>2023-06-04T12:30:33.000Z</time>
      </trkpt>
      <trkpt lat="45.85628" lon="4.71275">
        <ele>291.5325</ele>
        <time>2023-06-04T12:30:34.000Z</time>
      </trkpt>
      <trkpt lat="45.85631" lon="4.71267">
        <ele>291.20416</ele>
        <time>2023-06-04T12:30:35.000Z</time>
      </trkpt>
      <trkpt lat="45.85635" lon="4.71264">
        <ele>290.87338</ele>
        <time>2023-06-04T12:30:36.000Z</time>
      </trkpt>
      <trkpt lat="45.85643" lon="4.71262">
        <ele>290.54129</ele>
        <time>2023-06-04T12:30:37.000Z</time>
      </trkpt>
      <trkpt lat="45.85647" lon="4.71263">
        <ele>290.13373</ele>
        <time>2023-06-04T12:30:38.000Z</time>
      </trkpt>
      <trkpt lat="45.85658" lon="4.71266">
        <ele>288.00104</ele>
        <time>2023-06-04T12:30:39.000Z</time>
      </trkpt>
      <trkpt lat="45.85662" lon="4.71269">
        <ele>287.78387</ele>
        <time>2023-06-04T12:30:40.000Z</time>
      </trkpt>
      <trkpt lat="45.85666" lon="4.71276">
        <ele>287.37509</ele>
        <time>2023-06-04T12:30:41.000Z</time>
      </trkpt>
      <trkpt lat="45.8567" lon="4.71279">
        <ele>286.746</ele>
        <time>2023-06-04T12:30:42.000Z</time>
      </trkpt>
      <trkpt lat="45.85676" lon="4.71282">
        <ele>286.74344</ele>
        <time>2023-06-04T12:30:43.000Z</time>
      </trkpt>
      <trkpt lat="45.8568" lon="4.71287">
        <ele>286.67175</ele>
        <time>2023-06-04T12:30:44.000Z</time>
      </trkpt>
      <trkpt lat="45.85688" lon="4.71291">
        <ele>284.93854</ele>
        <time>2023-06-04T12:30:45.000Z</time>
      </trkpt>
      <trkpt lat="45.8569" lon="4.71293">
        <ele>284.67072</ele>
        <time>2023-06-04T12:30:47.000Z</time>
      </trkpt>
      <trkpt lat="45.85697" lon="4.71291">
        <ele>284.3244</ele>
        <time>2023-06-04T12:30:48.000Z</time>
      </trkpt>
      <trkpt lat="45.85699" lon="4.71294">
        <ele>283.82697</ele>
        <time>2023-06-04T12:30:50.000Z</time>
      </trkpt>
      <trkpt lat="45.85695" lon="4.71294">
        <ele>281.73868</ele>
        <time>2023-06-04T12:30:51.000Z</time>
      </trkpt>
      <trkpt lat="45.85698" lon="4.71301">
        <ele>281.13828</ele>
        <time>2023-06-04T12:30:52.000Z</time>
      </trkpt>
      <trkpt lat="45.857" lon="4.71301">
        <ele>280.49625</ele>
        <time>2023-06-04T12:30:53.000Z</time>
      </trkpt>
      <trkpt lat="45.85711" lon="4.71297">
        <ele>279.82495</ele>
        <time>2023-06-04T12:30:54.000Z</time>
      </trkpt>
      <trkpt lat="45.85713" lon="4.71297">
        <ele>279.80908</ele>
        <time>2023-06-04T12:30:55.000Z</time>
      </trkpt>
      <trkpt lat="45.85715" lon="4.71296">
        <ele>277.71722</ele>
        <time>2023-06-04T12:30:56.000Z</time>
      </trkpt>
      <trkpt lat="45.8572" lon="4.71298">
        <ele>275.62314</ele>
        <time>2023-06-04T12:30:58.000Z</time>
      </trkpt>
      <trkpt lat="45.85727" lon="4.71301">
        <ele>273.53125</ele>
        <time>2023-06-04T12:30:59.000Z</time>
      </trkpt>
      <trkpt lat="45.85729" lon="4.71298">
        <ele>271.44705</ele>
        <time>2023-06-04T12:31:00.000Z</time>
      </trkpt>
      <trkpt lat="45.85734" lon="4.713">
        <ele>269.40689</ele>
        <time>2023-06-04T12:31:01.000Z</time>
      </trkpt>
      <trkpt lat="45.85739" lon="4.71301">
        <ele>269.24002</ele>
        <time>2023-06-04T12:31:02.000Z</time>
      </trkpt>
      <trkpt lat="45.85743" lon="4.71304">
        <ele>267.34302</ele>
        <time>2023-06-04T12:31:03.000Z</time>
      </trkpt>
      <trkpt lat="45.85745" lon="4.71303">
        <ele>265.44962</ele>
        <time>2023-06-04T12:31:04.000Z</time>
      </trkpt>
      <trkpt lat="45.85748" lon="4.71304">
        <ele>263.63025</ele>
        <time>2023-06-04T12:31:05.000Z</time>
      </trkpt>
      <trkpt lat="45.85752" lon="4.71303">
        <ele>261.84491</ele>
        <time>2023-06-04T12:31:07.000Z</time>
      </trkpt>
      <trkpt lat="45.85755" lon="4.71302">
        <ele>260.09653</ele>
        <time>2023-06-04T12:31:08.000Z</time>
      </trkpt>
      <trkpt lat="45.85759" lon="4.713">
        <ele>259.98764</ele>
        <time>2023-06-04T12:31:09.000Z</time>
      </trkpt>
      <trkpt lat="45.85762" lon="4.71298">
        <ele>258.43732</ele>
        <time>2023-06-04T12:31:10.000Z</time>
      </trkpt>
      <trkpt lat="45.85765" lon="4.71294">
        <ele>256.86218</ele>
        <time>2023-06-04T12:31:11.000Z</time>
      </trkpt>
      <trkpt lat="45.85767" lon="4.71289">
        <ele>255.3344</ele>
        <time>2023-06-04T12:31:12.000Z</time>
      </trkpt>
      <trkpt lat="45.85769" lon="4.71279">
        <ele>255.39534</ele>
        <time>2023-06-04T12:31:13.000Z</time>
      </trkpt>
      <trkpt lat="45.85771" lon="4.71274">
        <ele>253.99316</ele>
        <time>2023-06-04T12:31:14.000Z</time>
      </trkpt>
      <trkpt lat="45.85773" lon="4.71267">
        <ele>252.62473</ele>
        <time>2023-06-04T12:31:15.000Z</time>
      </trkpt>
      <trkpt lat="45.85776" lon="4.71265">
        <ele>251.26474</ele>
        <time>2023-06-04T12:31:16.000Z</time>
      </trkpt>
      <trkpt lat="45.85782" lon="4.71261">
        <ele>251.38</ele>
        <time>2023-06-04T12:31:17.000Z</time>
      </trkpt>
      <trkpt lat="45.85783" lon="4.71254">
        <ele>251.52251</ele>
        <time>2023-06-04T12:31:18.000Z</time>
      </trkpt>
      <trkpt lat="45.85786" lon="4.71247">
        <ele>251.68936</ele>
        <time>2023-06-04T12:31:19.000Z</time>
      </trkpt>
      <trkpt lat="45.85791" lon="4.7124">
        <ele>251.87517</ele>
        <time>2023-06-04T12:31:20.000Z</time>
      </trkpt>
      <trkpt lat="45.85796" lon="4.71237">
        <ele>252.05273</ele>
        <time>2023-06-04T12:31:21.000Z</time>
      </trkpt>
      <trkpt lat="45.85799" lon="4.71237">
        <ele>252.2354</ele>
        <time>2023-06-04T12:31:22.000Z</time>
      </trkpt>
      <trkpt lat="45.85804" lon="4.71243">
        <ele>252.51004</ele>
        <time>2023-06-04T12:31:23.000Z</time>
      </trkpt>
      <trkpt lat="45.85806" lon="4.71239">
        <ele>252.66812</ele>
        <time>2023-06-04T12:31:24.000Z</time>
      </trkpt>
      <trkpt lat="45.85811" lon="4.7124">
        <ele>252.78622</ele>
        <time>2023-06-04T12:31:25.000Z</time>
      </trkpt>
      <trkpt lat="45.85815" lon="4.71239">
        <ele>252.87631</ele>
        <time>2023-06-04T12:31:26.000Z</time>
      </trkpt>
      <trkpt lat="45.85818" lon="4.71238">
        <ele>252.96846</ele>
        <time>2023-06-04T12:31:27.000Z</time>
      </trkpt>
      <trkpt lat="45.85821" lon="4.71238">
        <ele>253.02713</ele>
        <time>2023-06-04T12:31:28.000Z</time>
      </trkpt>
      <trkpt lat="45.85827" lon="4.71235">
        <ele>253.19035</ele>
        <time>2023-06-04T12:31:29.000Z</time>
      </trkpt>
      <trkpt lat="45.85835" lon="4.71234">
        <ele>253.21091</ele>
        <time>2023-06-04T12:31:30.000Z</time>
      </trkpt>
      <trkpt lat="45.85842" lon="4.71233">
        <ele>253.21216</ele>
        <time>2023-06-04T12:31:31.000Z</time>
      </trkpt>
      <trkpt lat="45.85848" lon="4.71232">
        <ele>253.18494</ele>
        <time>2023-06-04T12:31:32.000Z</time>
      </trkpt>
      <trkpt lat="45.85852" lon="4.71233">
        <ele>253.14676</ele>
        <time>2023-06-04T12:31:33.000Z</time>
      </trkpt>
      <trkpt lat="45.8585" lon="4.7123">
        <ele>253.106</ele>
        <time>2023-06-04T12:31:34.000Z</time>
      </trkpt>
      <trkpt lat="45.85854" lon="4.7123">
        <ele>253.09631</ele>
        <time>2023-06-04T12:31:35.000Z</time>
      </trkpt>
      <trkpt lat="45.85857" lon="4.71229">
        <ele>253.10754</ele>
        <time>2023-06-04T12:31:36.000Z</time>
      </trkpt>
      <trkpt lat="45.85861" lon="4.71227">
        <ele>253.16409</ele>
        <time>2023-06-04T12:31:37.000Z</time>
      </trkpt>
      <trkpt lat="45.85868" lon="4.71224">
        <ele>253.20547</ele>
        <time>2023-06-04T12:31:38.000Z</time>
      </trkpt>
      <trkpt lat="45.85873" lon="4.71221">
        <ele>253.23901</ele>
        <time>2023-06-04T12:31:39.000Z</time>
      </trkpt>
      <trkpt lat="45.85879" lon="4.71223">
        <ele>253.24121</ele>
        <time>2023-06-04T12:31:40.000Z</time>
      </trkpt>
      <trkpt lat="45.85885" lon="4.71222">
        <ele>253.26083</ele>
        <time>2023-06-04T12:31:41.000Z</time>
      </trkpt>
      <trkpt lat="45.85895" lon="4.71221">
        <ele>253.21646</ele>
        <time>2023-06-04T12:31:42.000Z</time>
      </trkpt>
      <trkpt lat="45.85902" lon="4.71222">
        <ele>253.19576</ele>
        <time>2023-06-04T12:31:43.000Z</time>
      </trkpt>
      <trkpt lat="45.85908" lon="4.7122">
        <ele>253.12419</ele>
        <time>2023-06-04T12:31:44.000Z</time>
      </trkpt>
      <trkpt lat="45.85914" lon="4.71224">
        <ele>253.08528</ele>
        <time>2023-06-04T12:31:45.000Z</time>
      </trkpt>
      <trkpt lat="45.8592" lon="4.71226">
        <ele>253.04558</ele>
        <time>2023-06-04T12:31:46.000Z</time>
      </trkpt>
      <trkpt lat="45.85927" lon="4.71228">
        <ele>253.02286</ele>
        <time>2023-06-04T12:31:47.000Z</time>
      </trkpt>
      <trkpt lat="45.85934" lon="4.71229">
        <ele>253.01558</ele>
        <time>2023-06-04T12:31:48.000Z</time>
      </trkpt>
      <trkpt lat="45.85942" lon="4.71229">
        <ele>252.90292</ele>
        <time>2023-06-04T12:31:49.000Z</time>
      </trkpt>
      <trkpt lat="45.85947" lon="4.71228">
        <ele>252.76555</ele>
        <time>2023-06-04T12:31:50.000Z</time>
      </trkpt>
      <trkpt lat="45.85952" lon="4.71227">
        <ele>252.65604</ele>
        <time>2023-06-04T12:31:51.000Z</time>
      </trkpt>
      <trkpt lat="45.85957" lon="4.71228">
        <ele>252.52176</ele>
        <time>2023-06-04T12:31:52.000Z</time>
      </trkpt>
      <trkpt lat="45.85963" lon="4.71231">
        <ele>252.43338</ele>
        <time>2023-06-04T12:31:53.000Z</time>
      </trkpt>
      <trkpt lat="45.8597" lon="4.71233">
        <ele>252.35771</ele>
        <time>2023-06-04T12:31:54.000Z</time>
      </trkpt>
      <trkpt lat="45.85977" lon="4.71234">
        <ele>252.27499</ele>
        <time>2023-06-04T12:31:55.000Z</time>
      </trkpt>
      <trkpt lat="45.85981" lon="4.71239">
        <ele>252.19768</ele>
        <time>2023-06-04T12:31:56.000Z</time>
      </trkpt>
      <trkpt lat="45.85985" lon="4.71241">
        <ele>251.88077</ele>
        <time>2023-06-04T12:31:57.000Z</time>
      </trkpt>
      <trkpt lat="45.85995" lon="4.71244">
        <ele>251.52022</ele>
        <time>2023-06-04T12:31:58.000Z</time>
      </trkpt>
      <trkpt lat="45.86" lon="4.71247">
        <ele>251.11636</ele>
        <time>2023-06-04T12:31:59.000Z</time>
      </trkpt>
      <trkpt lat="45.86007" lon="4.71249">
        <ele>250.68828</ele>
        <time>2023-06-04T12:32:00.000Z</time>
      </trkpt>
      <trkpt lat="45.86016" lon="4.71248">
        <ele>250.3499</ele>
        <time>2023-06-04T12:32:01.000Z</time>
      </trkpt>
      <trkpt lat="45.8602" lon="4.71254">
        <ele>250.00159</ele>
        <time>2023-06-04T12:32:02.000Z</time>
      </trkpt>
      <trkpt lat="45.86025" lon="4.71259">
        <ele>249.63374</ele>
        <time>2023-06-04T12:32:03.000Z</time>
      </trkpt>
      <trkpt lat="45.86029" lon="4.71263">
        <ele>249.319</ele>
        <time>2023-06-04T12:32:04.000Z</time>
      </trkpt>
      <trkpt lat="45.86036" lon="4.71266">
        <ele>249.01941</ele>
        <time>2023-06-04T12:32:05.000Z</time>
      </trkpt>
      <trkpt lat="45.86038" lon="4.71269">
        <ele>248.67905</ele>
        <time>2023-06-04T12:32:06.000Z</time>
      </trkpt>
      <trkpt lat="45.86045" lon="4.71271">
        <ele>248.4863</ele>
        <time>2023-06-04T12:32:07.000Z</time>
      </trkpt>
      <trkpt lat="45.86052" lon="4.71271">
        <ele>248.25284</ele>
        <time>2023-06-04T12:32:08.000Z</time>
      </trkpt>
      <trkpt lat="45.86058" lon="4.71271">
        <ele>248.10571</ele>
        <time>2023-06-04T12:32:09.000Z</time>
      </trkpt>
      <trkpt lat="45.86061" lon="4.71269">
        <ele>247.76225</ele>
        <time>2023-06-04T12:32:10.000Z</time>
      </trkpt>
      <trkpt lat="45.86067" lon="4.71268">
        <ele>247.42363</ele>
        <time>2023-06-04T12:32:11.000Z</time>
      </trkpt>
      <trkpt lat="45.86075" lon="4.71262">
        <ele>247.11887</ele>
        <time>2023-06-04T12:32:12.000Z</time>
      </trkpt>
      <trkpt lat="45.86077" lon="4.71259">
        <ele>246.84409</ele>
        <time>2023-06-04T12:32:13.000Z</time>
      </trkpt>
      <trkpt lat="45.8608" lon="4.71257">
        <ele>246.52628</ele>
        <time>2023-06-04T12:32:14.000Z</time>
      </trkpt>
      <trkpt lat="45.86086" lon="4.71251">
        <ele>246.14311</ele>
        <time>2023-06-04T12:32:15.000Z</time>
      </trkpt>
      <trkpt lat="45.86088" lon="4.71244">
        <ele>245.76257</ele>
        <time>2023-06-04T12:32:16.000Z</time>
      </trkpt>
      <trkpt lat="45.86089" lon="4.7124">
        <ele>245.64261</ele>
        <time>2023-06-04T12:32:17.000Z</time>
      </trkpt>
      <trkpt lat="45.86088" lon="4.71232">
        <ele>245.5927</ele>
        <time>2023-06-04T12:32:18.000Z</time>
      </trkpt>
      <trkpt lat="45.86087" lon="4.71226">
        <ele>245.60861</ele>
        <time>2023-06-04T12:32:19.000Z</time>
      </trkpt>
      <trkpt lat="45.86088" lon="4.71217">
        <ele>245.67679</ele>
        <time>2023-06-04T12:32:20.000Z</time>
      </trkpt>
      <trkpt lat="45.86088" lon="4.71211">
        <ele>245.66621</ele>
        <time>2023-06-04T12:32:21.000Z</time>
      </trkpt>
      <trkpt lat="45.86086" lon="4.71201">
        <ele>245.6666</ele>
        <time>2023-06-04T12:32:22.000Z</time>
      </trkpt>
      <trkpt lat="45.86088" lon="4.71197">
        <ele>245.70186</ele>
        <time>2023-06-04T12:32:23.000Z</time>
      </trkpt>
      <trkpt lat="45.86089" lon="4.71192">
        <ele>245.73135</ele>
        <time>2023-06-04T12:32:24.000Z</time>
      </trkpt>
      <trkpt lat="45.86091" lon="4.71186">
        <ele>245.73718</ele>
        <time>2023-06-04T12:32:25.000Z</time>
      </trkpt>
      <trkpt lat="45.86094" lon="4.71181">
        <ele>245.78397</ele>
        <time>2023-06-04T12:32:26.000Z</time>
      </trkpt>
      <trkpt lat="45.86094" lon="4.71173">
        <ele>245.68559</ele>
        <time>2023-06-04T12:32:27.000Z</time>
      </trkpt>
      <trkpt lat="45.86094" lon="4.71166">
        <ele>245.63266</ele>
        <time>2023-06-04T12:32:28.000Z</time>
      </trkpt>
      <trkpt lat="45.86095" lon="4.71159">
        <ele>245.56201</ele>
        <time>2023-06-04T12:32:29.000Z</time>
      </trkpt>
      <trkpt lat="45.86096" lon="4.71155">
        <ele>245.68369</ele>
        <time>2023-06-04T12:32:30.000Z</time>
      </trkpt>
      <trkpt lat="45.86098" lon="4.71148">
        <ele>245.83125</ele>
        <time>2023-06-04T12:32:31.000Z</time>
      </trkpt>
      <trkpt lat="45.861" lon="4.71143">
        <ele>245.92859</ele>
        <time>2023-06-04T12:32:32.000Z</time>
      </trkpt>
      <trkpt lat="45.86102" lon="4.71136">
        <ele>245.98254</ele>
        <time>2023-06-04T12:32:33.000Z</time>
      </trkpt>
      <trkpt lat="45.86107" lon="4.7113">
        <ele>246.03304</ele>
        <time>2023-06-04T12:32:34.000Z</time>
      </trkpt>
      <trkpt lat="45.86111" lon="4.71124">
        <ele>246.10628</ele>
        <time>2023-06-04T12:32:35.000Z</time>
      </trkpt>
      <trkpt lat="45.86116" lon="4.71122">
        <ele>246.20334</ele>
        <time>2023-06-04T12:32:36.000Z</time>
      </trkpt>
      <trkpt lat="45.86118" lon="4.71117">
        <ele>246.26541</ele>
        <time>2023-06-04T12:32:37.000Z</time>
      </trkpt>
      <trkpt lat="45.86119" lon="4.71113">
        <ele>246.29056</ele>
        <time>2023-06-04T12:32:38.000Z</time>
      </trkpt>
      <trkpt lat="45.86122" lon="4.71102">
        <ele>246.5107</ele>
        <time>2023-06-04T12:32:39.000Z</time>
      </trkpt>
      <trkpt lat="45.86121" lon="4.71096">
        <ele>246.77475</ele>
        <time>2023-06-04T12:32:40.000Z</time>
      </trkpt>
      <trkpt lat="45.86124" lon="4.71094">
        <ele>246.95377</ele>
        <time>2023-06-04T12:32:41.000Z</time>
      </trkpt>
      <trkpt lat="45.86129" lon="4.71085">
        <ele>246.96207</ele>
        <time>2023-06-04T12:32:42.000Z</time>
      </trkpt>
      <trkpt lat="45.86133" lon="4.71077">
        <ele>246.97104</ele>
        <time>2023-06-04T12:32:43.000Z</time>
      </trkpt>
      <trkpt lat="45.86135" lon="4.7107">
        <ele>247.02548</ele>
        <time>2023-06-04T12:32:44.000Z</time>
      </trkpt>
      <trkpt lat="45.8614" lon="4.71064">
        <ele>247.12747</ele>
        <time>2023-06-04T12:32:45.000Z</time>
      </trkpt>
      <trkpt lat="45.86145" lon="4.7106">
        <ele>247.19499</ele>
        <time>2023-06-04T12:32:46.000Z</time>
      </trkpt>
      <trkpt lat="45.8615" lon="4.71057">
        <ele>247.196</ele>
        <time>2023-06-04T12:32:47.000Z</time>
      </trkpt>
      <trkpt lat="45.86153" lon="4.71053">
        <ele>247.15085</ele>
        <time>2023-06-04T12:32:48.000Z</time>
      </trkpt>
      <trkpt lat="45.86158" lon="4.71053">
        <ele>247.08418</ele>
        <time>2023-06-04T12:32:49.000Z</time>
      </trkpt>
      <trkpt lat="45.86167" lon="4.71048">
        <ele>247.0087</ele>
        <time>2023-06-04T12:32:50.000Z</time>
      </trkpt>
      <trkpt lat="45.86172" lon="4.7105">
        <ele>246.94385</ele>
        <time>2023-06-04T12:32:51.000Z</time>
      </trkpt>
      <trkpt lat="45.86178" lon="4.71048">
        <ele>246.87454</ele>
        <time>2023-06-04T12:32:52.000Z</time>
      </trkpt>
      <trkpt lat="45.86185" lon="4.71043">
        <ele>246.78525</ele>
        <time>2023-06-04T12:32:53.000Z</time>
      </trkpt>
      <trkpt lat="45.86192" lon="4.71046">
        <ele>246.69565</ele>
        <time>2023-06-04T12:32:54.000Z</time>
      </trkpt>
      <trkpt lat="45.86194" lon="4.71041">
        <ele>246.86906</ele>
        <time>2023-06-04T12:32:55.000Z</time>
      </trkpt>
      <trkpt lat="45.86194" lon="4.71034">
        <ele>247.09476</ele>
        <time>2023-06-04T12:32:56.000Z</time>
      </trkpt>
      <trkpt lat="45.86197" lon="4.71028">
        <ele>247.32407</ele>
        <time>2023-06-04T12:32:57.000Z</time>
      </trkpt>
      <trkpt lat="45.86204" lon="4.71025">
        <ele>247.56155</ele>
        <time>2023-06-04T12:32:58.000Z</time>
      </trkpt>
      <trkpt lat="45.86207" lon="4.71021">
        <ele>247.57736</ele>
        <time>2023-06-04T12:32:59.000Z</time>
      </trkpt>
      <trkpt lat="45.86211" lon="4.71015">
        <ele>247.53909</ele>
        <time>2023-06-04T12:33:00.000Z</time>
      </trkpt>
      <trkpt lat="45.86214" lon="4.7101">
        <ele>247.58052</ele>
        <time>2023-06-04T12:33:01.000Z</time>
      </trkpt>
      <trkpt lat="45.86217" lon="4.71008">
        <ele>247.79221</ele>
        <time>2023-06-04T12:33:02.000Z</time>
      </trkpt>
      <trkpt lat="45.86219" lon="4.71003">
        <ele>247.95816</ele>
        <time>2023-06-04T12:33:03.000Z</time>
      </trkpt>
      <trkpt lat="45.86224" lon="4.70997">
        <ele>248.07967</ele>
        <time>2023-06-04T12:33:04.000Z</time>
      </trkpt>
      <trkpt lat="45.86228" lon="4.70996">
        <ele>248.20639</ele>
        <time>2023-06-04T12:33:05.000Z</time>
      </trkpt>
      <trkpt lat="45.86239" lon="4.71">
        <ele>248.28775</ele>
        <time>2023-06-04T12:33:06.000Z</time>
      </trkpt>
      <trkpt lat="45.86248" lon="4.71007">
        <ele>248.3728</ele>
        <time>2023-06-04T12:33:07.000Z</time>
      </trkpt>
      <trkpt lat="45.8625" lon="4.7101">
        <ele>248.48471</ele>
        <time>2023-06-04T12:33:08.000Z</time>
      </trkpt>
      <trkpt lat="45.86255" lon="4.71016">
        <ele>248.41264</ele>
        <time>2023-06-04T12:33:09.000Z</time>
      </trkpt>
      <trkpt lat="45.86258" lon="4.7102">
        <ele>248.35481</ele>
        <time>2023-06-04T12:33:10.000Z</time>
      </trkpt>
      <trkpt lat="45.8626" lon="4.71026">
        <ele>248.29117</ele>
        <time>2023-06-04T12:33:11.000Z</time>
      </trkpt>
      <trkpt lat="45.86263" lon="4.71029">
        <ele>248.2811</ele>
        <time>2023-06-04T12:33:12.000Z</time>
      </trkpt>
      <trkpt lat="45.86272" lon="4.71033">
        <ele>248.50383</ele>
        <time>2023-06-04T12:33:13.000Z</time>
      </trkpt>
      <trkpt lat="45.86274" lon="4.71035">
        <ele>248.76538</ele>
        <time>2023-06-04T12:33:14.000Z</time>
      </trkpt>
      <trkpt lat="45.86278" lon="4.71033">
        <ele>248.74712</ele>
        <time>2023-06-04T12:33:15.000Z</time>
      </trkpt>
      <trkpt lat="45.86283" lon="4.71029">
        <ele>248.66838</ele>
        <time>2023-06-04T12:33:16.000Z</time>
      </trkpt>
      <trkpt lat="45.86288" lon="4.71029">
        <ele>248.63342</ele>
        <time>2023-06-04T12:33:17.000Z</time>
      </trkpt>
      <trkpt lat="45.86295" lon="4.71026">
        <ele>248.59824</ele>
        <time>2023-06-04T12:33:18.000Z</time>
      </trkpt>
      <trkpt lat="45.86302" lon="4.71026">
        <ele>248.5354</ele>
        <time>2023-06-04T12:33:19.000Z</time>
      </trkpt>
      <trkpt lat="45.86308" lon="4.7103">
        <ele>248.46977</ele>
        <time>2023-06-04T12:33:20.000Z</time>
      </trkpt>
      <trkpt lat="45.86318" lon="4.71032">
        <ele>248.35995</ele>
        <time>2023-06-04T12:33:21.000Z</time>
      </trkpt>
      <trkpt lat="45.86325" lon="4.71032">
        <ele>248.24907</ele>
        <time>2023-06-04T12:33:22.000Z</time>
      </trkpt>
      <trkpt lat="45.86331" lon="4.71029">
        <ele>248.17293</ele>
        <time>2023-06-04T12:33:23.000Z</time>
      </trkpt>
      <trkpt lat="45.86333" lon="4.71032">
        <ele>248.07181</ele>
        <time>2023-06-04T12:33:24.000Z</time>
      </trkpt>
      <trkpt lat="45.86338" lon="4.71033">
        <ele>247.96895</ele>
        <time>2023-06-04T12:33:25.000Z</time>
      </trkpt>
      <trkpt lat="45.86343" lon="4.71031">
        <ele>247.93611</ele>
        <time>2023-06-04T12:33:26.000Z</time>
      </trkpt>
      <trkpt lat="45.86346" lon="4.71031">
        <ele>247.97562</ele>
        <time>2023-06-04T12:33:27.000Z</time>
      </trkpt>
      <trkpt lat="45.8635" lon="4.71032">
        <ele>248.0105</ele>
        <time>2023-06-04T12:33:28.000Z</time>
      </trkpt>
      <trkpt lat="45.86353" lon="4.71028">
        <ele>248.22514</ele>
        <time>2023-06-04T12:33:29.000Z</time>
      </trkpt>
      <trkpt lat="45.86361" lon="4.71024">
        <ele>248.42216</ele>
        <time>2023-06-04T12:33:30.000Z</time>
      </trkpt>
      <trkpt lat="45.86364" lon="4.71023">
        <ele>248.63103</ele>
        <time>2023-06-04T12:33:31.000Z</time>
      </trkpt>
      <trkpt lat="45.86372" lon="4.71021">
        <ele>248.85518</ele>
        <time>2023-06-04T12:33:32.000Z</time>
      </trkpt>
      <trkpt lat="45.86375" lon="4.71017">
        <ele>248.87943</ele>
        <time>2023-06-04T12:33:33.000Z</time>
      </trkpt>
      <trkpt lat="45.86385" lon="4.71016">
        <ele>248.87199</ele>
        <time>2023-06-04T12:33:34.000Z</time>
      </trkpt>
      <trkpt lat="45.8639" lon="4.71014">
        <ele>248.90804</ele>
        <time>2023-06-04T12:33:35.000Z</time>
      </trkpt>
      <trkpt lat="45.86393" lon="4.71013">
        <ele>248.93852</ele>
        <time>2023-06-04T12:33:36.000Z</time>
      </trkpt>
      <trkpt lat="45.86397" lon="4.7101">
        <ele>248.96919</ele>
        <time>2023-06-04T12:33:37.000Z</time>
      </trkpt>
      <trkpt lat="45.864" lon="4.71007">
        <ele>248.9882</ele>
        <time>2023-06-04T12:33:38.000Z</time>
      </trkpt>
      <trkpt lat="45.86404" lon="4.71004">
        <ele>248.99356</ele>
        <time>2023-06-04T12:33:39.000Z</time>
      </trkpt>
      <trkpt lat="45.86409" lon="4.71002">
        <ele>248.95476</ele>
        <time>2023-06-04T12:33:40.000Z</time>
      </trkpt>
      <trkpt lat="45.86413" lon="4.70999">
        <ele>248.90947</ele>
        <time>2023-06-04T12:33:41.000Z</time>
      </trkpt>
      <trkpt lat="45.86417" lon="4.70995">
        <ele>248.92485</ele>
        <time>2023-06-04T12:33:42.000Z</time>
      </trkpt>
      <trkpt lat="45.86422" lon="4.70992">
        <ele>248.8925</ele>
        <time>2023-06-04T12:33:43.000Z</time>
      </trkpt>
      <trkpt lat="45.86426" lon="4.70989">
        <ele>248.89946</ele>
        <time>2023-06-04T12:33:44.000Z</time>
      </trkpt>
      <trkpt lat="45.86431" lon="4.70986">
        <ele>248.89458</ele>
        <time>2023-06-04T12:33:45.000Z</time>
      </trkpt>
      <trkpt lat="45.86436" lon="4.70985">
        <ele>248.84322</ele>
        <time>2023-06-04T12:33:46.000Z</time>
      </trkpt>
      <trkpt lat="45.86442" lon="4.70985">
        <ele>248.71223</ele>
        <time>2023-06-04T12:33:47.000Z</time>
      </trkpt>
      <trkpt lat="45.86448" lon="4.70985">
        <ele>248.57779</ele>
        <time>2023-06-04T12:33:48.000Z</time>
      </trkpt>
      <trkpt lat="45.86453" lon="4.70986">
        <ele>248.48308</ele>
        <time>2023-06-04T12:33:49.000Z</time>
      </trkpt>
      <trkpt lat="45.86458" lon="4.70987">
        <ele>248.4292</ele>
        <time>2023-06-04T12:33:50.000Z</time>
      </trkpt>
      <trkpt lat="45.86463" lon="4.70988">
        <ele>248.29785</ele>
        <time>2023-06-04T12:33:51.000Z</time>
      </trkpt>
      <trkpt lat="45.86469" lon="4.70988">
        <ele>248.16672</ele>
        <time>2023-06-04T12:33:52.000Z</time>
      </trkpt>
      <trkpt lat="45.86474" lon="4.70989">
        <ele>247.99167</ele>
        <time>2023-06-04T12:33:53.000Z</time>
      </trkpt>
      <trkpt lat="45.86479" lon="4.70989">
        <ele>247.8226</ele>
        <time>2023-06-04T12:33:54.000Z</time>
      </trkpt>
      <trkpt lat="45.86483" lon="4.70989">
        <ele>247.68979</ele>
        <time>2023-06-04T12:33:55.000Z</time>
      </trkpt>
      <trkpt lat="45.86488" lon="4.7099">
        <ele>247.55759</ele>
        <time>2023-06-04T12:33:56.000Z</time>
      </trkpt>
      <trkpt lat="45.86492" lon="4.70991">
        <ele>247.38425</ele>
        <time>2023-06-04T12:33:57.000Z</time>
      </trkpt>
      <trkpt lat="45.86499" lon="4.70998">
        <ele>247.2052</ele>
        <time>2023-06-04T12:33:58.000Z</time>
      </trkpt>
      <trkpt lat="45.86508" lon="4.71001">
        <ele>247.11189</ele>
        <time>2023-06-04T12:33:59.000Z</time>
      </trkpt>
      <trkpt lat="45.86511" lon="4.70997">
        <ele>247.06779</ele>
        <time>2023-06-04T12:34:00.000Z</time>
      </trkpt>
      <trkpt lat="45.86518" lon="4.70996">
        <ele>246.80319</ele>
        <time>2023-06-04T12:34:02.000Z</time>
      </trkpt>
      <trkpt lat="45.86529" lon="4.70997">
        <ele>246.51033</ele>
        <time>2023-06-04T12:34:03.000Z</time>
      </trkpt>
      <trkpt lat="45.86537" lon="4.70994">
        <ele>246.27315</ele>
        <time>2023-06-04T12:34:04.000Z</time>
      </trkpt>
      <trkpt lat="45.8654" lon="4.70993">
        <ele>246.01953</ele>
        <time>2023-06-04T12:34:05.000Z</time>
      </trkpt>
      <trkpt lat="45.86543" lon="4.7099">
        <ele>245.77792</ele>
        <time>2023-06-04T12:34:06.000Z</time>
      </trkpt>
      <trkpt lat="45.8655" lon="4.70991">
        <ele>245.56027</ele>
        <time>2023-06-04T12:34:07.000Z</time>
      </trkpt>
      <trkpt lat="45.86555" lon="4.70994">
        <ele>245.38213</ele>
        <time>2023-06-04T12:34:08.000Z</time>
      </trkpt>
      <trkpt lat="45.86558" lon="4.70996">
        <ele>245.21555</ele>
        <time>2023-06-04T12:34:09.000Z</time>
      </trkpt>
      <trkpt lat="45.86559" lon="4.70999">
        <ele>245.02292</ele>
        <time>2023-06-04T12:34:10.000Z</time>
      </trkpt>
      <trkpt lat="45.86561" lon="4.71004">
        <ele>244.81372</ele>
        <time>2023-06-04T12:34:11.000Z</time>
      </trkpt>
      <trkpt lat="45.86567" lon="4.71006">
        <ele>244.67484</ele>
        <time>2023-06-04T12:34:12.000Z</time>
      </trkpt>
      <trkpt lat="45.86574" lon="4.7101">
        <ele>244.51265</ele>
        <time>2023-06-04T12:34:13.000Z</time>
      </trkpt>
      <trkpt lat="45.86583" lon="4.71011">
        <ele>244.35078</ele>
        <time>2023-06-04T12:34:14.000Z</time>
      </trkpt>
      <trkpt lat="45.86588" lon="4.7101">
        <ele>244.19792</ele>
        <time>2023-06-04T12:34:15.000Z</time>
      </trkpt>
      <trkpt lat="45.86594" lon="4.7101">
        <ele>244.00412</ele>
        <time>2023-06-04T12:34:16.000Z</time>
      </trkpt>
      <trkpt lat="45.86599" lon="4.71012">
        <ele>243.75249</ele>
        <time>2023-06-04T12:34:17.000Z</time>
      </trkpt>
      <trkpt lat="45.86606" lon="4.71016">
        <ele>243.53108</ele>
        <time>2023-06-04T12:34:18.000Z</time>
      </trkpt>
      <trkpt lat="45.86611" lon="4.71017">
        <ele>243.34868</ele>
        <time>2023-06-04T12:34:19.000Z</time>
      </trkpt>
      <trkpt lat="45.86621" lon="4.71018">
        <ele>243.13745</ele>
        <time>2023-06-04T12:34:20.000Z</time>
      </trkpt>
      <trkpt lat="45.86623" lon="4.71022">
        <ele>242.94487</ele>
        <time>2023-06-04T12:34:21.000Z</time>
      </trkpt>
      <trkpt lat="45.8663" lon="4.71026">
        <ele>242.99226</ele>
        <time>2023-06-04T12:34:22.000Z</time>
      </trkpt>
      <trkpt lat="45.86633" lon="4.71029">
        <ele>243.05786</ele>
        <time>2023-06-04T12:34:23.000Z</time>
      </trkpt>
      <trkpt lat="45.86638" lon="4.71031">
        <ele>243.07132</ele>
        <time>2023-06-04T12:34:24.000Z</time>
      </trkpt>
      <trkpt lat="45.86644" lon="4.71033">
        <ele>243.0981</ele>
        <time>2023-06-04T12:34:25.000Z</time>
      </trkpt>
      <trkpt lat="45.8665" lon="4.71037">
        <ele>243.05193</ele>
        <time>2023-06-04T12:34:26.000Z</time>
      </trkpt>
      <trkpt lat="45.86657" lon="4.71037">
        <ele>243.00325</ele>
        <time>2023-06-04T12:34:27.000Z</time>
      </trkpt>
      <trkpt lat="45.8666" lon="4.71038">
        <ele>242.97641</ele>
        <time>2023-06-04T12:34:28.000Z</time>
      </trkpt>
      <trkpt lat="45.86665" lon="4.7104">
        <ele>242.94043</ele>
        <time>2023-06-04T12:34:29.000Z</time>
      </trkpt>
      <trkpt lat="45.8667" lon="4.71043">
        <ele>242.90274</ele>
        <time>2023-06-04T12:34:30.000Z</time>
      </trkpt>
      <trkpt lat="45.86677" lon="4.71045">
        <ele>242.87167</ele>
        <time>2023-06-04T12:34:31.000Z</time>
      </trkpt>
      <trkpt lat="45.86682" lon="4.71047">
        <ele>242.81474</ele>
        <time>2023-06-04T12:34:32.000Z</time>
      </trkpt>
      <trkpt lat="45.86686" lon="4.71049">
        <ele>242.73589</ele>
        <time>2023-06-04T12:34:33.000Z</time>
      </trkpt>
      <trkpt lat="45.86695" lon="4.7105">
        <ele>242.6539</ele>
        <time>2023-06-04T12:34:34.000Z</time>
      </trkpt>
      <trkpt lat="45.86699" lon="4.71053">
        <ele>242.60898</ele>
        <time>2023-06-04T12:34:35.000Z</time>
      </trkpt>
      <trkpt lat="45.86702" lon="4.71057">
        <ele>242.57938</ele>
        <time>2023-06-04T12:34:36.000Z</time>
      </trkpt>
      <trkpt lat="45.86704" lon="4.71057">
        <ele>242.57925</ele>
        <time>2023-06-04T12:34:37.000Z</time>
      </trkpt>
      <trkpt lat="45.86707" lon="4.71061">
        <ele>242.564</ele>
        <time>2023-06-04T12:34:38.000Z</time>
      </trkpt>
      <trkpt lat="45.86712" lon="4.71063">
        <ele>242.5668</ele>
        <time>2023-06-04T12:34:39.000Z</time>
      </trkpt>
      <trkpt lat="45.86715" lon="4.71068">
        <ele>242.56364</ele>
        <time>2023-06-04T12:34:40.000Z</time>
      </trkpt>
      <trkpt lat="45.86721" lon="4.7107">
        <ele>242.55612</ele>
        <time>2023-06-04T12:34:41.000Z</time>
      </trkpt>
      <trkpt lat="45.86725" lon="4.71072">
        <ele>242.5732</ele>
        <time>2023-06-04T12:34:42.000Z</time>
      </trkpt>
      <trkpt lat="45.86732" lon="4.71078">
        <ele>242.54707</ele>
        <time>2023-06-04T12:34:43.000Z</time>
      </trkpt>
      <trkpt lat="45.86738" lon="4.71077">
        <ele>242.56221</ele>
        <time>2023-06-04T12:34:44.000Z</time>
      </trkpt>
      <trkpt lat="45.86745" lon="4.71079">
        <ele>242.60091</ele>
        <time>2023-06-04T12:34:45.000Z</time>
      </trkpt>
      <trkpt lat="45.86748" lon="4.71082">
        <ele>242.69156</ele>
        <time>2023-06-04T12:34:46.000Z</time>
      </trkpt>
      <trkpt lat="45.86754" lon="4.71083">
        <ele>242.80142</ele>
        <time>2023-06-04T12:34:47.000Z</time>
      </trkpt>
      <trkpt lat="45.86759" lon="4.71087">
        <ele>242.84082</ele>
        <time>2023-06-04T12:34:48.000Z</time>
      </trkpt>
      <trkpt lat="45.86766" lon="4.71088">
        <ele>242.87009</ele>
        <time>2023-06-04T12:34:49.000Z</time>
      </trkpt>
      <trkpt lat="45.86774" lon="4.7109">
        <ele>242.88977</ele>
        <time>2023-06-04T12:34:50.000Z</time>
      </trkpt>
      <trkpt lat="45.86779" lon="4.71088">
        <ele>242.88838</ele>
        <time>2023-06-04T12:34:51.000Z</time>
      </trkpt>
      <trkpt lat="45.86782" lon="4.7109">
        <ele>242.90166</ele>
        <time>2023-06-04T12:34:52.000Z</time>
      </trkpt>
      <trkpt lat="45.86787" lon="4.71089">
        <ele>242.94292</ele>
        <time>2023-06-04T12:34:53.000Z</time>
      </trkpt>
      <trkpt lat="45.86791" lon="4.71089">
        <ele>242.97302</ele>
        <time>2023-06-04T12:34:54.000Z</time>
      </trkpt>
      <trkpt lat="45.86793" lon="4.7109">
        <ele>242.9565</ele>
        <time>2023-06-04T12:34:55.000Z</time>
      </trkpt>
      <trkpt lat="45.86796" lon="4.71088">
        <ele>242.94092</ele>
        <time>2023-06-04T12:34:56.000Z</time>
      </trkpt>
      <trkpt lat="45.86798" lon="4.71091">
        <ele>242.94577</ele>
        <time>2023-06-04T12:34:57.000Z</time>
      </trkpt>
      <trkpt lat="45.86807" lon="4.71093">
        <ele>242.95512</ele>
        <time>2023-06-04T12:34:59.000Z</time>
      </trkpt>
      <trkpt lat="45.86815" lon="4.71091">
        <ele>242.91568</ele>
        <time>2023-06-04T12:35:00.000Z</time>
      </trkpt>
      <trkpt lat="45.86814" lon="4.71086">
        <ele>242.89409</ele>
        <time>2023-06-04T12:35:01.000Z</time>
      </trkpt>
      <trkpt lat="45.8682" lon="4.71085">
        <ele>242.87019</ele>
        <time>2023-06-04T12:35:02.000Z</time>
      </trkpt>
      <trkpt lat="45.86819" lon="4.71088">
        <ele>242.85193</ele>
        <time>2023-06-04T12:35:04.000Z</time>
      </trkpt>
      <trkpt lat="45.86816" lon="4.71088">
        <ele>242.83777</ele>
        <time>2023-06-04T12:35:06.000Z</time>
      </trkpt>
      <trkpt lat="45.8682" lon="4.71091">
        <ele>242.77396</ele>
        <time>2023-06-04T12:35:09.000Z</time>
      </trkpt>
      <trkpt lat="45.86812" lon="4.71089">
        <ele>242.71025</ele>
        <time>2023-06-04T12:35:12.000Z</time>
      </trkpt>
      <trkpt lat="45.86818" lon="4.71088">
        <ele>242.6254</ele>
        <time>2023-06-04T12:35:13.000Z</time>
      </trkpt>
      <trkpt lat="45.8682" lon="4.71085">
        <ele>242.55241</ele>
        <time>2023-06-04T12:35:15.000Z</time>
      </trkpt>
      <trkpt lat="45.86822" lon="4.71085">
        <ele>242.58975</ele>
        <time>2023-06-04T12:35:17.000Z</time>
      </trkpt>
      <trkpt lat="45.86826" lon="4.71086">
        <ele>242.9991</ele>
        <time>2023-06-04T12:35:19.000Z</time>
      </trkpt>
      <trkpt lat="45.86829" lon="4.71086">
        <ele>243.39798</ele>
        <time>2023-06-04T12:35:20.000Z</time>
      </trkpt>
      <trkpt lat="45.86831" lon="4.71085">
        <ele>243.51668</ele>
        <time>2023-06-04T12:35:21.000Z</time>
      </trkpt>
      <trkpt lat="45.86834" lon="4.71085">
        <ele>243.64413</ele>
        <time>2023-06-04T12:35:22.000Z</time>
      </trkpt>
      <trkpt lat="45.86837" lon="4.71085">
        <ele>243.73605</ele>
        <time>2023-06-04T12:35:23.000Z</time>
      </trkpt>
      <trkpt lat="45.8684" lon="4.71085">
        <ele>243.91321</ele>
        <time>2023-06-04T12:35:24.000Z</time>
      </trkpt>
      <trkpt lat="45.86843" lon="4.71085">
        <ele>244.11319</ele>
        <time>2023-06-04T12:35:25.000Z</time>
      </trkpt>
      <trkpt lat="45.86846" lon="4.71085">
        <ele>244.27141</ele>
        <time>2023-06-04T12:35:26.000Z</time>
      </trkpt>
      <trkpt lat="45.8685" lon="4.71086">
        <ele>244.41939</ele>
        <time>2023-06-04T12:35:27.000Z</time>
      </trkpt>
      <trkpt lat="45.86853" lon="4.71086">
        <ele>244.57254</ele>
        <time>2023-06-04T12:35:28.000Z</time>
      </trkpt>
      <trkpt lat="45.86857" lon="4.71086">
        <ele>244.77119</ele>
        <time>2023-06-04T12:35:29.000Z</time>
      </trkpt>
      <trkpt lat="45.86861" lon="4.71086">
        <ele>244.87512</ele>
        <time>2023-06-04T12:35:30.000Z</time>
      </trkpt>
      <trkpt lat="45.86864" lon="4.71087">
        <ele>244.96359</ele>
        <time>2023-06-04T12:35:32.000Z</time>
      </trkpt>
      <trkpt lat="45.86866" lon="4.71087">
        <ele>245.05753</ele>
        <time>2023-06-04T12:35:33.000Z</time>
      </trkpt>
      <trkpt lat="45.86869" lon="4.71088">
        <ele>245.18552</ele>
        <time>2023-06-04T12:35:34.000Z</time>
      </trkpt>
      <trkpt lat="45.86871" lon="4.71088">
        <ele>245.43216</ele>
        <time>2023-06-04T12:35:35.000Z</time>
      </trkpt>
      <trkpt lat="45.86873" lon="4.71088">
        <ele>245.70236</ele>
        <time>2023-06-04T12:35:36.000Z</time>
      </trkpt>
      <trkpt lat="45.86876" lon="4.71087">
        <ele>245.95842</ele>
        <time>2023-06-04T12:35:37.000Z</time>
      </trkpt>
      <trkpt lat="45.86878" lon="4.71086">
        <ele>246.21378</ele>
        <time>2023-06-04T12:35:38.000Z</time>
      </trkpt>
      <trkpt lat="45.86881" lon="4.71084">
        <ele>246.41402</ele>
        <time>2023-06-04T12:35:39.000Z</time>
      </trkpt>
      <trkpt lat="45.86883" lon="4.71081">
        <ele>246.26343</ele>
        <time>2023-06-04T12:35:40.000Z</time>
      </trkpt>
      <trkpt lat="45.86887" lon="4.7108">
        <ele>246.15752</ele>
        <time>2023-06-04T12:35:41.000Z</time>
      </trkpt>
      <trkpt lat="45.8689" lon="4.71079">
        <ele>246.33028</ele>
        <time>2023-06-04T12:35:42.000Z</time>
      </trkpt>
      <trkpt lat="45.86892" lon="4.71079">
        <ele>246.4959</ele>
        <time>2023-06-04T12:35:43.000Z</time>
      </trkpt>
      <trkpt lat="45.86889" lon="4.71074">
        <ele>246.63094</ele>
        <time>2023-06-04T12:35:49.000Z</time>
      </trkpt>
      <trkpt lat="45.86887" lon="4.71071">
        <ele>246.70264</ele>
        <time>2023-06-04T12:35:51.000Z</time>
      </trkpt>
      <trkpt lat="45.86889" lon="4.71073">
        <ele>246.75986</ele>
        <time>2023-06-04T12:35:55.000Z</time>
      </trkpt>
      <trkpt lat="45.8689" lon="4.71068">
        <ele>246.84341</ele>
        <time>2023-06-04T12:36:00.000Z</time>
      </trkpt>
      <trkpt lat="45.86892" lon="4.71065">
        <ele>246.91177</ele>
        <time>2023-06-04T12:36:02.000Z</time>
      </trkpt>
      <trkpt lat="45.86895" lon="4.71067">
        <ele>246.95073</ele>
        <time>2023-06-04T12:36:04.000Z</time>
      </trkpt>
      <trkpt lat="45.86895" lon="4.7107">
        <ele>246.92766</ele>
        <time>2023-06-04T12:36:05.000Z</time>
      </trkpt>
      <trkpt lat="45.86893" lon="4.71075">
        <ele>246.95784</ele>
        <time>2023-06-04T12:36:06.000Z</time>
      </trkpt>
      <trkpt lat="45.86891" lon="4.7108">
        <ele>246.98454</ele>
        <time>2023-06-04T12:36:07.000Z</time>
      </trkpt>
      <trkpt lat="45.86888" lon="4.71084">
        <ele>246.93413</ele>
        <time>2023-06-04T12:36:08.000Z</time>
      </trkpt>
      <trkpt lat="45.86886" lon="4.71088">
        <ele>246.90181</ele>
        <time>2023-06-04T12:36:09.000Z</time>
      </trkpt>
      <trkpt lat="45.86884" lon="4.7109">
        <ele>246.77383</ele>
        <time>2023-06-04T12:36:10.000Z</time>
      </trkpt>
      <trkpt lat="45.8688" lon="4.71093">
        <ele>246.59995</ele>
        <time>2023-06-04T12:36:11.000Z</time>
      </trkpt>
      <trkpt lat="45.86872" lon="4.711">
        <ele>246.4519</ele>
        <time>2023-06-04T12:36:12.000Z</time>
      </trkpt>
      <trkpt lat="45.86874" lon="4.71103">
        <ele>246.2915</ele>
        <time>2023-06-04T12:36:13.000Z</time>
      </trkpt>
      <trkpt lat="45.86873" lon="4.71109">
        <ele>246.14487</ele>
        <time>2023-06-04T12:36:14.000Z</time>
      </trkpt>
      <trkpt lat="45.86872" lon="4.71117">
        <ele>245.98276</ele>
        <time>2023-06-04T12:36:15.000Z</time>
      </trkpt>
      <trkpt lat="45.86872" lon="4.71126">
        <ele>245.78751</ele>
        <time>2023-06-04T12:36:16.000Z</time>
      </trkpt>
      <trkpt lat="45.86873" lon="4.71135">
        <ele>245.61809</ele>
        <time>2023-06-04T12:36:17.000Z</time>
      </trkpt>
      <trkpt lat="45.86872" lon="4.71145">
        <ele>245.45947</ele>
        <time>2023-06-04T12:36:18.000Z</time>
      </trkpt>
      <trkpt lat="45.86876" lon="4.71152">
        <ele>245.36914</ele>
        <time>2023-06-04T12:36:19.000Z</time>
      </trkpt>
      <trkpt lat="45.86877" lon="4.71158">
        <ele>245.2963</ele>
        <time>2023-06-04T12:36:20.000Z</time>
      </trkpt>
      <trkpt lat="45.86879" lon="4.71165">
        <ele>245.23257</ele>
        <time>2023-06-04T12:36:21.000Z</time>
      </trkpt>
      <trkpt lat="45.86878" lon="4.71173">
        <ele>245.18661</ele>
        <time>2023-06-04T12:36:22.000Z</time>
      </trkpt>
      <trkpt lat="45.86877" lon="4.71177">
        <ele>245.14803</ele>
        <time>2023-06-04T12:36:23.000Z</time>
      </trkpt>
      <trkpt lat="45.86876" lon="4.71185">
        <ele>245.11417</ele>
        <time>2023-06-04T12:36:24.000Z</time>
      </trkpt>
      <trkpt lat="45.86876" lon="4.71193">
        <ele>245.11479</ele>
        <time>2023-06-04T12:36:25.000Z</time>
      </trkpt>
      <trkpt lat="45.86875" lon="4.71199">
        <ele>245.09863</ele>
        <time>2023-06-04T12:36:26.000Z</time>
      </trkpt>
      <trkpt lat="45.86876" lon="4.71206">
        <ele>245.0704</ele>
        <time>2023-06-04T12:36:27.000Z</time>
      </trkpt>
      <trkpt lat="45.86875" lon="4.71215">
        <ele>245.11494</ele>
        <time>2023-06-04T12:36:28.000Z</time>
      </trkpt>
      <trkpt lat="45.86876" lon="4.71222">
        <ele>245.06885</ele>
        <time>2023-06-04T12:36:29.000Z</time>
      </trkpt>
      <trkpt lat="45.86878" lon="4.71233">
        <ele>245.07149</ele>
        <time>2023-06-04T12:36:30.000Z</time>
      </trkpt>
      <trkpt lat="45.86878" lon="4.71238">
        <ele>245.04292</ele>
        <time>2023-06-04T12:36:31.000Z</time>
      </trkpt>
      <trkpt lat="45.86878" lon="4.71248">
        <ele>245.03979</ele>
        <time>2023-06-04T12:36:32.000Z</time>
      </trkpt>
      <trkpt lat="45.86878" lon="4.71262">
        <ele>245.03711</ele>
        <time>2023-06-04T12:36:33.000Z</time>
      </trkpt>
      <trkpt lat="45.86878" lon="4.71265">
        <ele>245.01343</ele>
        <time>2023-06-04T12:36:34.000Z</time>
      </trkpt>
      <trkpt lat="45.86877" lon="4.71268">
        <ele>245.01492</ele>
        <time>2023-06-04T12:36:35.000Z</time>
      </trkpt>
      <trkpt lat="45.86875" lon="4.71281">
        <ele>245.0022</ele>
        <time>2023-06-04T12:36:36.000Z</time>
      </trkpt>
      <trkpt lat="45.86872" lon="4.71289">
        <ele>244.99185</ele>
        <time>2023-06-04T12:36:37.000Z</time>
      </trkpt>
      <trkpt lat="45.86874" lon="4.71295">
        <ele>244.94547</ele>
        <time>2023-06-04T12:36:38.000Z</time>
      </trkpt>
      <trkpt lat="45.86879" lon="4.71302">
        <ele>244.87068</ele>
        <time>2023-06-04T12:36:39.000Z</time>
      </trkpt>
      <trkpt lat="45.8688" lon="4.71308">
        <ele>244.81314</ele>
        <time>2023-06-04T12:36:40.000Z</time>
      </trkpt>
      <trkpt lat="45.8688" lon="4.71315">
        <ele>244.74321</ele>
        <time>2023-06-04T12:36:41.000Z</time>
      </trkpt>
      <trkpt lat="45.86879" lon="4.71322">
        <ele>244.64059</ele>
        <time>2023-06-04T12:36:42.000Z</time>
      </trkpt>
      <trkpt lat="45.86878" lon="4.71328">
        <ele>244.52734</ele>
        <time>2023-06-04T12:36:43.000Z</time>
      </trkpt>
      <trkpt lat="45.86877" lon="4.71335">
        <ele>244.42456</ele>
        <time>2023-06-04T12:36:44.000Z</time>
      </trkpt>
      <trkpt lat="45.86879" lon="4.71342">
        <ele>244.3251</ele>
        <time>2023-06-04T12:36:45.000Z</time>
      </trkpt>
      <trkpt lat="45.86878" lon="4.71352">
        <ele>244.24602</ele>
        <time>2023-06-04T12:36:46.000Z</time>
      </trkpt>
      <trkpt lat="45.86885" lon="4.7136">
        <ele>244.17598</ele>
        <time>2023-06-04T12:36:47.000Z</time>
      </trkpt>
      <trkpt lat="45.86886" lon="4.71369">
        <ele>244.09367</ele>
        <time>2023-06-04T12:36:48.000Z</time>
      </trkpt>
      <trkpt lat="45.86888" lon="4.71375">
        <ele>244.07321</ele>
        <time>2023-06-04T12:36:49.000Z</time>
      </trkpt>
      <trkpt lat="45.86892" lon="4.71384">
        <ele>244.01279</ele>
        <time>2023-06-04T12:36:50.000Z</time>
      </trkpt>
      <trkpt lat="45.86892" lon="4.71394">
        <ele>243.91679</ele>
        <time>2023-06-04T12:36:51.000Z</time>
      </trkpt>
      <trkpt lat="45.86893" lon="4.71401">
        <ele>243.78064</ele>
        <time>2023-06-04T12:36:52.000Z</time>
      </trkpt>
      <trkpt lat="45.86895" lon="4.71409">
        <ele>243.63533</ele>
        <time>2023-06-04T12:36:53.000Z</time>
      </trkpt>
      <trkpt lat="45.86894" lon="4.71414">
        <ele>243.45764</ele>
        <time>2023-06-04T12:36:54.000Z</time>
      </trkpt>
      <trkpt lat="45.86898" lon="4.7142">
        <ele>243.22527</ele>
        <time>2023-06-04T12:36:55.000Z</time>
      </trkpt>
      <trkpt lat="45.86899" lon="4.71429">
        <ele>243.02356</ele>
        <time>2023-06-04T12:36:56.000Z</time>
      </trkpt>
      <trkpt lat="45.869" lon="4.71435">
        <ele>242.83354</ele>
        <time>2023-06-04T12:36:57.000Z</time>
      </trkpt>
      <trkpt lat="45.869" lon="4.71444">
        <ele>242.64365</ele>
        <time>2023-06-04T12:36:58.000Z</time>
      </trkpt>
      <trkpt lat="45.86902" lon="4.71453">
        <ele>242.46082</ele>
        <time>2023-06-04T12:36:59.000Z</time>
      </trkpt>
      <trkpt lat="45.86904" lon="4.71458">
        <ele>242.2424</ele>
        <time>2023-06-04T12:37:00.000Z</time>
      </trkpt>
      <trkpt lat="45.86908" lon="4.71466">
        <ele>242.03381</ele>
        <time>2023-06-04T12:37:01.000Z</time>
      </trkpt>
      <trkpt lat="45.8691" lon="4.71472">
        <ele>241.78142</ele>
        <time>2023-06-04T12:37:02.000Z</time>
      </trkpt>
      <trkpt lat="45.86911" lon="4.71479">
        <ele>241.60629</ele>
        <time>2023-06-04T12:37:03.000Z</time>
      </trkpt>
      <trkpt lat="45.86913" lon="4.71487">
        <ele>241.44124</ele>
        <time>2023-06-04T12:37:04.000Z</time>
      </trkpt>
      <trkpt lat="45.86914" lon="4.71494">
        <ele>241.28584</ele>
        <time>2023-06-04T12:37:05.000Z</time>
      </trkpt>
      <trkpt lat="45.86918" lon="4.71503">
        <ele>241.14986</ele>
        <time>2023-06-04T12:37:06.000Z</time>
      </trkpt>
      <trkpt lat="45.8692" lon="4.7151">
        <ele>241.04373</ele>
        <time>2023-06-04T12:37:07.000Z</time>
      </trkpt>
      <trkpt lat="45.86922" lon="4.71515">
        <ele>240.95505</ele>
        <time>2023-06-04T12:37:08.000Z</time>
      </trkpt>
      <trkpt lat="45.86927" lon="4.7152">
        <ele>240.86528</ele>
        <time>2023-06-04T12:37:09.000Z</time>
      </trkpt>
      <trkpt lat="45.86933" lon="4.71529">
        <ele>240.79167</ele>
        <time>2023-06-04T12:37:10.000Z</time>
      </trkpt>
      <trkpt lat="45.86937" lon="4.71534">
        <ele>240.80669</ele>
        <time>2023-06-04T12:37:11.000Z</time>
      </trkpt>
      <trkpt lat="45.86941" lon="4.7154">
        <ele>240.83749</ele>
        <time>2023-06-04T12:37:12.000Z</time>
      </trkpt>
      <trkpt lat="45.86943" lon="4.71549">
        <ele>240.83109</ele>
        <time>2023-06-04T12:37:13.000Z</time>
      </trkpt>
      <trkpt lat="45.8694" lon="4.71556">
        <ele>240.87361</ele>
        <time>2023-06-04T12:37:14.000Z</time>
      </trkpt>
      <trkpt lat="45.86943" lon="4.71563">
        <ele>240.86382</ele>
        <time>2023-06-04T12:37:15.000Z</time>
      </trkpt>
      <trkpt lat="45.86946" lon="4.71572">
        <ele>240.84575</ele>
        <time>2023-06-04T12:37:16.000Z</time>
      </trkpt>
      <trkpt lat="45.86953" lon="4.71575">
        <ele>240.84404</ele>
        <time>2023-06-04T12:37:17.000Z</time>
      </trkpt>
      <trkpt lat="45.86958" lon="4.71579">
        <ele>240.86543</ele>
        <time>2023-06-04T12:37:18.000Z</time>
      </trkpt>
      <trkpt lat="45.86963" lon="4.71582">
        <ele>240.87564</ele>
        <time>2023-06-04T12:37:19.000Z</time>
      </trkpt>
      <trkpt lat="45.86969" lon="4.71586">
        <ele>240.91415</ele>
        <time>2023-06-04T12:37:20.000Z</time>
      </trkpt>
      <trkpt lat="45.86972" lon="4.71591">
        <ele>240.96396</ele>
        <time>2023-06-04T12:37:21.000Z</time>
      </trkpt>
      <trkpt lat="45.86978" lon="4.71592">
        <ele>241.09953</ele>
        <time>2023-06-04T12:37:22.000Z</time>
      </trkpt>
      <trkpt lat="45.86984" lon="4.71597">
        <ele>241.14438</ele>
        <time>2023-06-04T12:37:23.000Z</time>
      </trkpt>
      <trkpt lat="45.86991" lon="4.71601">
        <ele>241.15298</ele>
        <time>2023-06-04T12:37:24.000Z</time>
      </trkpt>
      <trkpt lat="45.86997" lon="4.71604">
        <ele>241.14568</ele>
        <time>2023-06-04T12:37:25.000Z</time>
      </trkpt>
      <trkpt lat="45.87002" lon="4.71607">
        <ele>241.13216</ele>
        <time>2023-06-04T12:37:26.000Z</time>
      </trkpt>
      <trkpt lat="45.87009" lon="4.71609">
        <ele>241.10071</ele>
        <time>2023-06-04T12:37:27.000Z</time>
      </trkpt>
      <trkpt lat="45.87014" lon="4.7161">
        <ele>241.05051</ele>
        <time>2023-06-04T12:37:28.000Z</time>
      </trkpt>
      <trkpt lat="45.8702" lon="4.71614">
        <ele>240.99997</ele>
        <time>2023-06-04T12:37:29.000Z</time>
      </trkpt>
      <trkpt lat="45.87026" lon="4.71617">
        <ele>240.96106</ele>
        <time>2023-06-04T12:37:30.000Z</time>
      </trkpt>
      <trkpt lat="45.87031" lon="4.71624">
        <ele>240.8835</ele>
        <time>2023-06-04T12:37:31.000Z</time>
      </trkpt>
      <trkpt lat="45.87034" lon="4.71629">
        <ele>240.80692</ele>
        <time>2023-06-04T12:37:32.000Z</time>
      </trkpt>
      <trkpt lat="45.87039" lon="4.71633">
        <ele>240.78879</ele>
        <time>2023-06-04T12:37:33.000Z</time>
      </trkpt>
      <trkpt lat="45.87043" lon="4.71637">
        <ele>240.7679</ele>
        <time>2023-06-04T12:37:34.000Z</time>
      </trkpt>
      <trkpt lat="45.87049" lon="4.71643">
        <ele>240.80923</ele>
        <time>2023-06-04T12:37:35.000Z</time>
      </trkpt>
      <trkpt lat="45.87053" lon="4.71646">
        <ele>241.02292</ele>
        <time>2023-06-04T12:37:36.000Z</time>
      </trkpt>
      <trkpt lat="45.87059" lon="4.71652">
        <ele>241.19919</ele>
        <time>2023-06-04T12:37:37.000Z</time>
      </trkpt>
      <trkpt lat="45.87068" lon="4.71658">
        <ele>241.35762</ele>
        <time>2023-06-04T12:37:38.000Z</time>
      </trkpt>
      <trkpt lat="45.87071" lon="4.71656">
        <ele>241.50644</ele>
        <time>2023-06-04T12:37:39.000Z</time>
      </trkpt>
      <trkpt lat="45.87076" lon="4.71655">
        <ele>241.66333</ele>
        <time>2023-06-04T12:37:40.000Z</time>
      </trkpt>
      <trkpt lat="45.87083" lon="4.71652">
        <ele>241.87292</ele>
        <time>2023-06-04T12:37:41.000Z</time>
      </trkpt>
      <trkpt lat="45.87089" lon="4.71648">
        <ele>242.04829</ele>
        <time>2023-06-04T12:37:42.000Z</time>
      </trkpt>
      <trkpt lat="45.87096" lon="4.71645">
        <ele>242.24048</ele>
        <time>2023-06-04T12:37:43.000Z</time>
      </trkpt>
      <trkpt lat="45.87101" lon="4.71643">
        <ele>242.48401</ele>
        <time>2023-06-04T12:37:44.000Z</time>
      </trkpt>
      <trkpt lat="45.87105" lon="4.71643">
        <ele>242.7166</ele>
        <time>2023-06-04T12:37:45.000Z</time>
      </trkpt>
      <trkpt lat="45.87112" lon="4.7164">
        <ele>242.92656</ele>
        <time>2023-06-04T12:37:46.000Z</time>
      </trkpt>
      <trkpt lat="45.87116" lon="4.71636">
        <ele>243.14908</ele>
        <time>2023-06-04T12:37:47.000Z</time>
      </trkpt>
      <trkpt lat="45.87118" lon="4.71633">
        <ele>243.37354</ele>
        <time>2023-06-04T12:37:48.000Z</time>
      </trkpt>
      <trkpt lat="45.87124" lon="4.71627">
        <ele>243.60527</ele>
        <time>2023-06-04T12:37:49.000Z</time>
      </trkpt>
      <trkpt lat="45.87128" lon="4.71621">
        <ele>243.82153</ele>
        <time>2023-06-04T12:37:50.000Z</time>
      </trkpt>
      <trkpt lat="45.87133" lon="4.71616">
        <ele>244.05183</ele>
        <time>2023-06-04T12:37:51.000Z</time>
      </trkpt>
      <trkpt lat="45.87138" lon="4.71612">
        <ele>244.2852</ele>
        <time>2023-06-04T12:37:52.000Z</time>
      </trkpt>
      <trkpt lat="45.87143" lon="4.71609">
        <ele>244.47002</ele>
        <time>2023-06-04T12:37:53.000Z</time>
      </trkpt>
      <trkpt lat="45.87149" lon="4.71603">
        <ele>244.66045</ele>
        <time>2023-06-04T12:37:54.000Z</time>
      </trkpt>
      <trkpt lat="45.87152" lon="4.71598">
        <ele>244.89546</ele>
        <time>2023-06-04T12:37:55.000Z</time>
      </trkpt>
      <trkpt lat="45.87153" lon="4.71591">
        <ele>244.92896</ele>
        <time>2023-06-04T12:37:56.000Z</time>
      </trkpt>
      <trkpt lat="45.87157" lon="4.71588">
        <ele>244.80367</ele>
        <time>2023-06-04T12:37:57.000Z</time>
      </trkpt>
      <trkpt lat="45.87163" lon="4.71584">
        <ele>244.73532</ele>
        <time>2023-06-04T12:37:58.000Z</time>
      </trkpt>
      <trkpt lat="45.87167" lon="4.71579">
        <ele>244.68132</ele>
        <time>2023-06-04T12:37:59.000Z</time>
      </trkpt>
      <trkpt lat="45.87169" lon="4.71573">
        <ele>244.64314</ele>
        <time>2023-06-04T12:38:00.000Z</time>
      </trkpt>
      <trkpt lat="45.87177" lon="4.71571">
        <ele>244.51401</ele>
        <time>2023-06-04T12:38:01.000Z</time>
      </trkpt>
      <trkpt lat="45.87179" lon="4.71566">
        <ele>244.39517</ele>
        <time>2023-06-04T12:38:02.000Z</time>
      </trkpt>
      <trkpt lat="45.87184" lon="4.71567">
        <ele>244.25337</ele>
        <time>2023-06-04T12:38:03.000Z</time>
      </trkpt>
      <trkpt lat="45.87187" lon="4.71562">
        <ele>244.06392</ele>
        <time>2023-06-04T12:38:04.000Z</time>
      </trkpt>
      <trkpt lat="45.87191" lon="4.71559">
        <ele>243.88179</ele>
        <time>2023-06-04T12:38:05.000Z</time>
      </trkpt>
      <trkpt lat="45.87194" lon="4.71552">
        <ele>243.71909</ele>
        <time>2023-06-04T12:38:06.000Z</time>
      </trkpt>
      <trkpt lat="45.87197" lon="4.71549">
        <ele>243.49097</ele>
        <time>2023-06-04T12:38:07.000Z</time>
      </trkpt>
      <trkpt lat="45.87202" lon="4.71542">
        <ele>243.27412</ele>
        <time>2023-06-04T12:38:08.000Z</time>
      </trkpt>
      <trkpt lat="45.87205" lon="4.71535">
        <ele>243.04941</ele>
        <time>2023-06-04T12:38:09.000Z</time>
      </trkpt>
      <trkpt lat="45.87206" lon="4.71528">
        <ele>242.82564</ele>
        <time>2023-06-04T12:38:10.000Z</time>
      </trkpt>
      <trkpt lat="45.87207" lon="4.71525">
        <ele>242.616</ele>
        <time>2023-06-04T12:38:11.000Z</time>
      </trkpt>
      <trkpt lat="45.87212" lon="4.71521">
        <ele>242.40544</ele>
        <time>2023-06-04T12:38:12.000Z</time>
      </trkpt>
      <trkpt lat="45.87215" lon="4.71517">
        <ele>242.18851</ele>
        <time>2023-06-04T12:38:13.000Z</time>
      </trkpt>
      <trkpt lat="45.87218" lon="4.71513">
        <ele>241.94568</ele>
        <time>2023-06-04T12:38:14.000Z</time>
      </trkpt>
      <trkpt lat="45.87221" lon="4.71508">
        <ele>241.69873</ele>
        <time>2023-06-04T12:38:15.000Z</time>
      </trkpt>
      <trkpt lat="45.87221" lon="4.71504">
        <ele>241.48062</ele>
        <time>2023-06-04T12:38:16.000Z</time>
      </trkpt>
      <trkpt lat="45.87224" lon="4.71495">
        <ele>241.42583</ele>
        <time>2023-06-04T12:38:17.000Z</time>
      </trkpt>
      <trkpt lat="45.87226" lon="4.7149">
        <ele>241.33652</ele>
        <time>2023-06-04T12:38:18.000Z</time>
      </trkpt>
      <trkpt lat="45.8723" lon="4.71489">
        <ele>241.23125</ele>
        <time>2023-06-04T12:38:19.000Z</time>
      </trkpt>
      <trkpt lat="45.87234" lon="4.71486">
        <ele>241.04785</ele>
        <time>2023-06-04T12:38:20.000Z</time>
      </trkpt>
      <trkpt lat="45.87237" lon="4.71479">
        <ele>240.87077</ele>
        <time>2023-06-04T12:38:21.000Z</time>
      </trkpt>
      <trkpt lat="45.87243" lon="4.71472">
        <ele>240.70996</ele>
        <time>2023-06-04T12:38:22.000Z</time>
      </trkpt>
      <trkpt lat="45.87247" lon="4.71468">
        <ele>240.53987</ele>
        <time>2023-06-04T12:38:23.000Z</time>
      </trkpt>
      <trkpt lat="45.87247" lon="4.7146">
        <ele>240.42444</ele>
        <time>2023-06-04T12:38:24.000Z</time>
      </trkpt>
      <trkpt lat="45.87249" lon="4.71456">
        <ele>240.31387</ele>
        <time>2023-06-04T12:38:25.000Z</time>
      </trkpt>
      <trkpt lat="45.87251" lon="4.71449">
        <ele>240.22696</ele>
        <time>2023-06-04T12:38:26.000Z</time>
      </trkpt>
      <trkpt lat="45.87257" lon="4.71446">
        <ele>240.20361</ele>
        <time>2023-06-04T12:38:27.000Z</time>
      </trkpt>
      <trkpt lat="45.87263" lon="4.71443">
        <ele>240.17061</ele>
        <time>2023-06-04T12:38:28.000Z</time>
      </trkpt>
      <trkpt lat="45.87267" lon="4.71437">
        <ele>240.14883</ele>
        <time>2023-06-04T12:38:29.000Z</time>
      </trkpt>
      <trkpt lat="45.8727" lon="4.71435">
        <ele>240.0905</ele>
        <time>2023-06-04T12:38:30.000Z</time>
      </trkpt>
      <trkpt lat="45.87273" lon="4.71432">
        <ele>240.05273</ele>
        <time>2023-06-04T12:38:31.000Z</time>
      </trkpt>
      <trkpt lat="45.87276" lon="4.71429">
        <ele>240.06084</ele>
        <time>2023-06-04T12:38:32.000Z</time>
      </trkpt>
      <trkpt lat="45.87279" lon="4.71426">
        <ele>240.15137</ele>
        <time>2023-06-04T12:38:33.000Z</time>
      </trkpt>
      <trkpt lat="45.87283" lon="4.71423">
        <ele>240.2729</ele>
        <time>2023-06-04T12:38:34.000Z</time>
      </trkpt>
      <trkpt lat="45.87287" lon="4.71421">
        <ele>240.4043</ele>
        <time>2023-06-04T12:38:35.000Z</time>
      </trkpt>
      <trkpt lat="45.87292" lon="4.71419">
        <ele>240.58066</ele>
        <time>2023-06-04T12:38:36.000Z</time>
      </trkpt>
      <trkpt lat="45.87299" lon="4.71416">
        <ele>240.78589</ele>
        <time>2023-06-04T12:38:37.000Z</time>
      </trkpt>
      <trkpt lat="45.87302" lon="4.71415">
        <ele>241</ele>
        <time>2023-06-04T12:38:38.000Z</time>
      </trkpt>
      <trkpt lat="45.87306" lon="4.71413">
        <ele>241.3085</ele>
        <time>2023-06-04T12:38:39.000Z</time>
      </trkpt>
      <trkpt lat="45.87309" lon="4.71412">
        <ele>241.66191</ele>
        <time>2023-06-04T12:38:40.000Z</time>
      </trkpt>
      <trkpt lat="45.87313" lon="4.7141">
        <ele>242.05698</ele>
        <time>2023-06-04T12:38:41.000Z</time>
      </trkpt>
      <trkpt lat="45.87315" lon="4.71408">
        <ele>242.41426</ele>
        <time>2023-06-04T12:38:42.000Z</time>
      </trkpt>
      <trkpt lat="45.87318" lon="4.71405">
        <ele>242.86356</ele>
        <time>2023-06-04T12:38:43.000Z</time>
      </trkpt>
      <trkpt lat="45.87321" lon="4.71403">
        <ele>243.29265</ele>
        <time>2023-06-04T12:38:44.000Z</time>
      </trkpt>
      <trkpt lat="45.87325" lon="4.714">
        <ele>243.74109</ele>
        <time>2023-06-04T12:38:45.000Z</time>
      </trkpt>
      <trkpt lat="45.87328" lon="4.71397">
        <ele>244.19971</ele>
        <time>2023-06-04T12:38:46.000Z</time>
      </trkpt>
      <trkpt lat="45.87332" lon="4.71396">
        <ele>244.66963</ele>
        <time>2023-06-04T12:38:47.000Z</time>
      </trkpt>
      <trkpt lat="45.87334" lon="4.71394">
        <ele>245.1904</ele>
        <time>2023-06-04T12:38:48.000Z</time>
      </trkpt>
      <trkpt lat="45.87336" lon="4.71392">
        <ele>245.70694</ele>
        <time>2023-06-04T12:38:49.000Z</time>
      </trkpt>
      <trkpt lat="45.87338" lon="4.71391">
        <ele>246.23117</ele>
        <time>2023-06-04T12:38:50.000Z</time>
      </trkpt>
      <trkpt lat="45.87341" lon="4.71392">
        <ele>246.68408</ele>
        <time>2023-06-04T12:38:52.000Z</time>
      </trkpt>
      <trkpt lat="45.87343" lon="4.71393">
        <ele>247.0601</ele>
        <time>2023-06-04T12:38:53.000Z</time>
      </trkpt>
      <trkpt lat="45.87344" lon="4.71398">
        <ele>247.40572</ele>
        <time>2023-06-04T12:38:55.000Z</time>
      </trkpt>
      <trkpt lat="45.87343" lon="4.71395">
        <ele>247.62939</ele>
        <time>2023-06-04T12:39:10.000Z</time>
      </trkpt>
      <trkpt lat="45.87341" lon="4.71396">
        <ele>247.80132</ele>
        <time>2023-06-04T12:39:13.000Z</time>
      </trkpt>
      <trkpt lat="45.87343" lon="4.71396">
        <ele>247.94763</ele>
        <time>2023-06-04T12:39:17.000Z</time>
      </trkpt>
      <trkpt lat="45.87341" lon="4.71399">
        <ele>248.09822</ele>
        <time>2023-06-04T12:39:27.000Z</time>
      </trkpt>
      <trkpt lat="45.8734" lon="4.71402">
        <ele>248.25679</ele>
        <time>2023-06-04T12:39:29.000Z</time>
      </trkpt>
      <trkpt lat="45.87341" lon="4.71399">
        <ele>248.41586</ele>
        <time>2023-06-04T12:39:30.000Z</time>
      </trkpt>
      <trkpt lat="45.87343" lon="4.71393">
        <ele>248.54056</ele>
        <time>2023-06-04T12:39:31.000Z</time>
      </trkpt>
      <trkpt lat="45.87345" lon="4.71388">
        <ele>248.59773</ele>
        <time>2023-06-04T12:39:32.000Z</time>
      </trkpt>
      <trkpt lat="45.87346" lon="4.71382">
        <ele>248.66716</ele>
        <time>2023-06-04T12:39:33.000Z</time>
      </trkpt>
      <trkpt lat="45.87347" lon="4.71376">
        <ele>248.69609</ele>
        <time>2023-06-04T12:39:34.000Z</time>
      </trkpt>
      <trkpt lat="45.87348" lon="4.7137">
        <ele>248.7408</ele>
        <time>2023-06-04T12:39:35.000Z</time>
      </trkpt>
      <trkpt lat="45.8735" lon="4.71363">
        <ele>248.74472</ele>
        <time>2023-06-04T12:39:36.000Z</time>
      </trkpt>
      <trkpt lat="45.8735" lon="4.71357">
        <ele>248.72954</ele>
        <time>2023-06-04T12:39:37.000Z</time>
      </trkpt>
      <trkpt lat="45.87351" lon="4.71351">
        <ele>248.68741</ele>
        <time>2023-06-04T12:39:38.000Z</time>
      </trkpt>
      <trkpt lat="45.87352" lon="4.71345">
        <ele>248.60117</ele>
        <time>2023-06-04T12:39:39.000Z</time>
      </trkpt>
      <trkpt lat="45.87352" lon="4.71339">
        <ele>248.40723</ele>
        <time>2023-06-04T12:39:40.000Z</time>
      </trkpt>
      <trkpt lat="45.87353" lon="4.71332">
        <ele>248.28996</ele>
        <time>2023-06-04T12:39:41.000Z</time>
      </trkpt>
      <trkpt lat="45.87355" lon="4.71325">
        <ele>248.20833</ele>
        <time>2023-06-04T12:39:42.000Z</time>
      </trkpt>
      <trkpt lat="45.87356" lon="4.71313">
        <ele>248.13948</ele>
        <time>2023-06-04T12:39:43.000Z</time>
      </trkpt>
      <trkpt lat="45.87355" lon="4.71308">
        <ele>248.09497</ele>
        <time>2023-06-04T12:39:44.000Z</time>
      </trkpt>
      <trkpt lat="45.87357" lon="4.71303">
        <ele>248.13115</ele>
        <time>2023-06-04T12:39:45.000Z</time>
      </trkpt>
      <trkpt lat="45.87361" lon="4.71299">
        <ele>248.18082</ele>
        <time>2023-06-04T12:39:46.000Z</time>
      </trkpt>
      <trkpt lat="45.87364" lon="4.71293">
        <ele>248.22946</ele>
        <time>2023-06-04T12:39:47.000Z</time>
      </trkpt>
      <trkpt lat="45.87365" lon="4.71287">
        <ele>248.22762</ele>
        <time>2023-06-04T12:39:48.000Z</time>
      </trkpt>
      <trkpt lat="45.87366" lon="4.71281">
        <ele>248.2244</ele>
        <time>2023-06-04T12:39:49.000Z</time>
      </trkpt>
      <trkpt lat="45.87367" lon="4.71278">
        <ele>248.2471</ele>
        <time>2023-06-04T12:39:50.000Z</time>
      </trkpt>
      <trkpt lat="45.87366" lon="4.7127">
        <ele>248.2822</ele>
        <time>2023-06-04T12:39:51.000Z</time>
      </trkpt>
      <trkpt lat="45.87367" lon="4.71265">
        <ele>248.35727</ele>
        <time>2023-06-04T12:39:52.000Z</time>
      </trkpt>
      <trkpt lat="45.87364" lon="4.71259">
        <ele>248.45015</ele>
        <time>2023-06-04T12:39:53.000Z</time>
      </trkpt>
      <trkpt lat="45.87364" lon="4.71254">
        <ele>248.56169</ele>
        <time>2023-06-04T12:39:54.000Z</time>
      </trkpt>
      <trkpt lat="45.87364" lon="4.71249">
        <ele>248.66721</ele>
        <time>2023-06-04T12:39:55.000Z</time>
      </trkpt>
      <trkpt lat="45.87364" lon="4.71245">
        <ele>248.78239</ele>
        <time>2023-06-04T12:39:56.000Z</time>
      </trkpt>
      <trkpt lat="45.87364" lon="4.7124">
        <ele>248.92407</ele>
        <time>2023-06-04T12:39:57.000Z</time>
      </trkpt>
      <trkpt lat="45.87364" lon="4.71234">
        <ele>249.06006</ele>
        <time>2023-06-04T12:39:58.000Z</time>
      </trkpt>
      <trkpt lat="45.87363" lon="4.71228">
        <ele>249.23662</ele>
        <time>2023-06-04T12:39:59.000Z</time>
      </trkpt>
      <trkpt lat="45.87362" lon="4.71221">
        <ele>249.55273</ele>
        <time>2023-06-04T12:40:00.000Z</time>
      </trkpt>
      <trkpt lat="45.87362" lon="4.71215">
        <ele>249.84148</ele>
        <time>2023-06-04T12:40:01.000Z</time>
      </trkpt>
      <trkpt lat="45.87363" lon="4.71209">
        <ele>250.08931</ele>
        <time>2023-06-04T12:40:02.000Z</time>
      </trkpt>
      <trkpt lat="45.87364" lon="4.71204">
        <ele>250.39742</ele>
        <time>2023-06-04T12:40:03.000Z</time>
      </trkpt>
      <trkpt lat="45.87365" lon="4.71199">
        <ele>250.592</ele>
        <time>2023-06-04T12:40:04.000Z</time>
      </trkpt>
      <trkpt lat="45.87367" lon="4.71194">
        <ele>250.77307</ele>
        <time>2023-06-04T12:40:05.000Z</time>
      </trkpt>
      <trkpt lat="45.87368" lon="4.71188">
        <ele>250.95834</ele>
        <time>2023-06-04T12:40:06.000Z</time>
      </trkpt>
      <trkpt lat="45.87369" lon="4.71183">
        <ele>251.12329</ele>
        <time>2023-06-04T12:40:07.000Z</time>
      </trkpt>
      <trkpt lat="45.87369" lon="4.71178">
        <ele>251.26006</ele>
        <time>2023-06-04T12:40:08.000Z</time>
      </trkpt>
      <trkpt lat="45.87371" lon="4.71174">
        <ele>251.39619</ele>
        <time>2023-06-04T12:40:09.000Z</time>
      </trkpt>
      <trkpt lat="45.87373" lon="4.7117">
        <ele>251.57016</ele>
        <time>2023-06-04T12:40:10.000Z</time>
      </trkpt>
      <trkpt lat="45.87377" lon="4.71166">
        <ele>251.73715</ele>
        <time>2023-06-04T12:40:11.000Z</time>
      </trkpt>
      <trkpt lat="45.87382" lon="4.71163">
        <ele>251.90659</ele>
        <time>2023-06-04T12:40:12.000Z</time>
      </trkpt>
      <trkpt lat="45.87386" lon="4.71162">
        <ele>252.09517</ele>
        <time>2023-06-04T12:40:13.000Z</time>
      </trkpt>
      <trkpt lat="45.8739" lon="4.71161">
        <ele>252.27856</ele>
        <time>2023-06-04T12:40:14.000Z</time>
      </trkpt>
      <trkpt lat="45.87393" lon="4.71161">
        <ele>252.40181</ele>
        <time>2023-06-04T12:40:15.000Z</time>
      </trkpt>
      <trkpt lat="45.87397" lon="4.71161">
        <ele>252.58127</ele>
        <time>2023-06-04T12:40:16.000Z</time>
      </trkpt>
      <trkpt lat="45.874" lon="4.71161">
        <ele>252.68466</ele>
        <time>2023-06-04T12:40:17.000Z</time>
      </trkpt>
      <trkpt lat="45.87404" lon="4.71159">
        <ele>252.84859</ele>
        <time>2023-06-04T12:40:18.000Z</time>
      </trkpt>
      <trkpt lat="45.87408" lon="4.71158">
        <ele>253.0435</ele>
        <time>2023-06-04T12:40:19.000Z</time>
      </trkpt>
      <trkpt lat="45.87415" lon="4.7116">
        <ele>253.18367</ele>
        <time>2023-06-04T12:40:20.000Z</time>
      </trkpt>
      <trkpt lat="45.8742" lon="4.71157">
        <ele>253.20703</ele>
        <time>2023-06-04T12:40:21.000Z</time>
      </trkpt>
      <trkpt lat="45.87423" lon="4.71157">
        <ele>253.23262</ele>
        <time>2023-06-04T12:40:22.000Z</time>
      </trkpt>
      <trkpt lat="45.87427" lon="4.71158">
        <ele>253.4041</ele>
        <time>2023-06-04T12:40:23.000Z</time>
      </trkpt>
      <trkpt lat="45.87431" lon="4.71156">
        <ele>253.64371</ele>
        <time>2023-06-04T12:40:25.000Z</time>
      </trkpt>
      <trkpt lat="45.87434" lon="4.71157">
        <ele>253.93887</ele>
        <time>2023-06-04T12:40:26.000Z</time>
      </trkpt>
      <trkpt lat="45.87442" lon="4.71151">
        <ele>254.25691</ele>
        <time>2023-06-04T12:40:27.000Z</time>
      </trkpt>
      <trkpt lat="45.87447" lon="4.71147">
        <ele>254.54443</ele>
        <time>2023-06-04T12:40:28.000Z</time>
      </trkpt>
      <trkpt lat="45.87452" lon="4.71146">
        <ele>254.89041</ele>
        <time>2023-06-04T12:40:29.000Z</time>
      </trkpt>
      <trkpt lat="45.87458" lon="4.71143">
        <ele>255.16768</ele>
        <time>2023-06-04T12:40:30.000Z</time>
      </trkpt>
      <trkpt lat="45.87466" lon="4.71141">
        <ele>255.46623</ele>
        <time>2023-06-04T12:40:31.000Z</time>
      </trkpt>
      <trkpt lat="45.87471" lon="4.7114">
        <ele>255.79626</ele>
        <time>2023-06-04T12:40:33.000Z</time>
      </trkpt>
      <trkpt lat="45.87473" lon="4.71136">
        <ele>256.15244</ele>
        <time>2023-06-04T12:40:34.000Z</time>
      </trkpt>
      <trkpt lat="45.87477" lon="4.71133">
        <ele>256.51019</ele>
        <time>2023-06-04T12:40:35.000Z</time>
      </trkpt>
      <trkpt lat="45.87482" lon="4.7113">
        <ele>256.94913</ele>
        <time>2023-06-04T12:40:36.000Z</time>
      </trkpt>
      <trkpt lat="45.8749" lon="4.71126">
        <ele>257.13287</ele>
        <time>2023-06-04T12:40:37.000Z</time>
      </trkpt>
      <trkpt lat="45.87493" lon="4.71133">
        <ele>257.27325</ele>
        <time>2023-06-04T12:40:38.000Z</time>
      </trkpt>
      <trkpt lat="45.87498" lon="4.71132">
        <ele>257.4545</ele>
        <time>2023-06-04T12:40:39.000Z</time>
      </trkpt>
      <trkpt lat="45.87506" lon="4.71127">
        <ele>257.59949</ele>
        <time>2023-06-04T12:40:40.000Z</time>
      </trkpt>
      <trkpt lat="45.87508" lon="4.71124">
        <ele>257.67731</ele>
        <time>2023-06-04T12:40:41.000Z</time>
      </trkpt>
      <trkpt lat="45.87514" lon="4.71121">
        <ele>259.85428</ele>
        <time>2023-06-04T12:40:42.000Z</time>
      </trkpt>
      <trkpt lat="45.87519" lon="4.71117">
        <ele>260.14252</ele>
        <time>2023-06-04T12:40:43.000Z</time>
      </trkpt>
      <trkpt lat="45.87524" lon="4.71114">
        <ele>260.47858</ele>
        <time>2023-06-04T12:40:44.000Z</time>
      </trkpt>
      <trkpt lat="45.87529" lon="4.71117">
        <ele>260.64166</ele>
        <time>2023-06-04T12:40:45.000Z</time>
      </trkpt>
      <trkpt lat="45.87533" lon="4.71116">
        <ele>260.81622</ele>
        <time>2023-06-04T12:40:46.000Z</time>
      </trkpt>
      <trkpt lat="45.87538" lon="4.71111">
        <ele>260.98129</ele>
        <time>2023-06-04T12:40:47.000Z</time>
      </trkpt>
      <trkpt lat="45.87544" lon="4.71105">
        <ele>262.96063</ele>
        <time>2023-06-04T12:40:48.000Z</time>
      </trkpt>
      <trkpt lat="45.8755" lon="4.71101">
        <ele>263.24695</ele>
        <time>2023-06-04T12:40:49.000Z</time>
      </trkpt>
      <trkpt lat="45.87556" lon="4.71098">
        <ele>263.53027</ele>
        <time>2023-06-04T12:40:50.000Z</time>
      </trkpt>
      <trkpt lat="45.8756" lon="4.71097">
        <ele>263.87799</ele>
        <time>2023-06-04T12:40:52.000Z</time>
      </trkpt>
      <trkpt lat="45.87568" lon="4.71097">
        <ele>264.09695</ele>
        <time>2023-06-04T12:40:53.000Z</time>
      </trkpt>
      <trkpt lat="45.87577" lon="4.71098">
        <ele>266.36859</ele>
        <time>2023-06-04T12:40:54.000Z</time>
      </trkpt>
      <trkpt lat="45.8758" lon="4.71097">
        <ele>266.68369</ele>
        <time>2023-06-04T12:40:55.000Z</time>
      </trkpt>
      <trkpt lat="45.87585" lon="4.71102">
        <ele>266.97433</ele>
        <time>2023-06-04T12:40:56.000Z</time>
      </trkpt>
      <trkpt lat="45.87595" lon="4.71096">
        <ele>267.18283</ele>
        <time>2023-06-04T12:40:57.000Z</time>
      </trkpt>
      <trkpt lat="45.87594" lon="4.71094">
        <ele>267.69452</ele>
        <time>2023-06-04T12:40:58.000Z</time>
      </trkpt>
      <trkpt lat="45.87597" lon="4.7109">
        <ele>268.2226</ele>
        <time>2023-06-04T12:40:59.000Z</time>
      </trkpt>
      <trkpt lat="45.87603" lon="4.71088">
        <ele>270.99799</ele>
        <time>2023-06-04T12:41:00.000Z</time>
      </trkpt>
      <trkpt lat="45.87608" lon="4.71086">
        <ele>271.67517</ele>
        <time>2023-06-04T12:41:01.000Z</time>
      </trkpt>
      <trkpt lat="45.87614" lon="4.71081">
        <ele>272.37897</ele>
        <time>2023-06-04T12:41:02.000Z</time>
      </trkpt>
      <trkpt lat="45.87619" lon="4.7108">
        <ele>272.41302</ele>
        <time>2023-06-04T12:41:03.000Z</time>
      </trkpt>
      <trkpt lat="45.87622" lon="4.71079">
        <ele>274.49136</ele>
        <time>2023-06-04T12:41:04.000Z</time>
      </trkpt>
      <trkpt lat="45.87626" lon="4.71077">
        <ele>276.50314</ele>
        <time>2023-06-04T12:41:05.000Z</time>
      </trkpt>
      <trkpt lat="45.87629" lon="4.71073">
        <ele>278.5903</ele>
        <time>2023-06-04T12:41:06.000Z</time>
      </trkpt>
      <trkpt lat="45.87631" lon="4.7107">
        <ele>280.66162</ele>
        <time>2023-06-04T12:41:07.000Z</time>
      </trkpt>
      <trkpt lat="45.87637" lon="4.7107">
        <ele>282.69473</ele>
        <time>2023-06-04T12:41:08.000Z</time>
      </trkpt>
      <trkpt lat="45.87645" lon="4.71068">
        <ele>282.84595</ele>
        <time>2023-06-04T12:41:09.000Z</time>
      </trkpt>
      <trkpt lat="45.87652" lon="4.71067">
        <ele>284.63446</ele>
        <time>2023-06-04T12:41:10.000Z</time>
      </trkpt>
      <trkpt lat="45.87657" lon="4.71061">
        <ele>286.48065</ele>
        <time>2023-06-04T12:41:11.000Z</time>
      </trkpt>
      <trkpt lat="45.87659" lon="4.7106">
        <ele>288.21964</ele>
        <time>2023-06-04T12:41:12.000Z</time>
      </trkpt>
      <trkpt lat="45.87664" lon="4.71061">
        <ele>289.88419</ele>
        <time>2023-06-04T12:41:13.000Z</time>
      </trkpt>
      <trkpt lat="45.8767" lon="4.71058">
        <ele>289.90607</ele>
        <time>2023-06-04T12:41:15.000Z</time>
      </trkpt>
      <trkpt lat="45.87675" lon="4.71057">
        <ele>292.16364</ele>
        <time>2023-06-04T12:41:16.000Z</time>
      </trkpt>
      <trkpt lat="45.87678" lon="4.71055">
        <ele>294.37451</ele>
        <time>2023-06-04T12:41:17.000Z</time>
      </trkpt>
      <trkpt lat="45.8768" lon="4.71051">
        <ele>296.00934</ele>
        <time>2023-06-04T12:41:18.000Z</time>
      </trkpt>
      <trkpt lat="45.87691" lon="4.71051">
        <ele>297.44144</ele>
        <time>2023-06-04T12:41:19.000Z</time>
      </trkpt>
      <trkpt lat="45.87697" lon="4.71052">
        <ele>298.78149</ele>
        <time>2023-06-04T12:41:20.000Z</time>
      </trkpt>
      <trkpt lat="45.87702" lon="4.7105">
        <ele>298.01227</ele>
        <time>2023-06-04T12:41:21.000Z</time>
      </trkpt>
      <trkpt lat="45.87706" lon="4.7105">
        <ele>299.44403</ele>
        <time>2023-06-04T12:41:23.000Z</time>
      </trkpt>
      <trkpt lat="45.87715" lon="4.71049">
        <ele>300.83246</ele>
        <time>2023-06-04T12:41:24.000Z</time>
      </trkpt>
      <trkpt lat="45.87719" lon="4.71047">
        <ele>301.05215</ele>
        <time>2023-06-04T12:41:25.000Z</time>
      </trkpt>
      <trkpt lat="45.87723" lon="4.71044">
        <ele>300.83578</ele>
        <time>2023-06-04T12:41:26.000Z</time>
      </trkpt>
      <trkpt lat="45.87727" lon="4.71041">
        <ele>300.69977</ele>
        <time>2023-06-04T12:41:27.000Z</time>
      </trkpt>
      <trkpt lat="45.87733" lon="4.71043">
        <ele>300.38171</ele>
        <time>2023-06-04T12:41:28.000Z</time>
      </trkpt>
      <trkpt lat="45.87739" lon="4.71038">
        <ele>300.29742</ele>
        <time>2023-06-04T12:41:29.000Z</time>
      </trkpt>
      <trkpt lat="45.87745" lon="4.71034">
        <ele>300.23834</ele>
        <time>2023-06-04T12:41:30.000Z</time>
      </trkpt>
      <trkpt lat="45.87748" lon="4.71036">
        <ele>300.23032</ele>
        <time>2023-06-04T12:41:31.000Z</time>
      </trkpt>
      <trkpt lat="45.87755" lon="4.71035">
        <ele>300.30533</ele>
        <time>2023-06-04T12:41:32.000Z</time>
      </trkpt>
      <trkpt lat="45.8776" lon="4.7103">
        <ele>300.31204</ele>
        <time>2023-06-04T12:41:33.000Z</time>
      </trkpt>
      <trkpt lat="45.87763" lon="4.71026">
        <ele>298.67133</ele>
        <time>2023-06-04T12:41:35.000Z</time>
      </trkpt>
      <trkpt lat="45.87766" lon="4.71022">
        <ele>298.74646</ele>
        <time>2023-06-04T12:41:36.000Z</time>
      </trkpt>
      <trkpt lat="45.87773" lon="4.71022">
        <ele>298.41101</ele>
        <time>2023-06-04T12:41:37.000Z</time>
      </trkpt>
      <trkpt lat="45.8778" lon="4.7102">
        <ele>297.75555</ele>
        <time>2023-06-04T12:41:38.000Z</time>
      </trkpt>
      <trkpt lat="45.87786" lon="4.71017">
        <ele>297.09827</ele>
        <time>2023-06-04T12:41:39.000Z</time>
      </trkpt>
      <trkpt lat="45.87791" lon="4.71017">
        <ele>296.96967</ele>
        <time>2023-06-04T12:41:40.000Z</time>
      </trkpt>
      <trkpt lat="45.87798" lon="4.71014">
        <ele>295.41058</ele>
        <time>2023-06-04T12:41:41.000Z</time>
      </trkpt>
      <trkpt lat="45.87803" lon="4.71013">
        <ele>295.45633</ele>
        <time>2023-06-04T12:41:42.000Z</time>
      </trkpt>
      <trkpt lat="45.87806" lon="4.71008">
        <ele>293.87323</ele>
        <time>2023-06-04T12:41:43.000Z</time>
      </trkpt>
      <trkpt lat="45.87811" lon="4.71008">
        <ele>292.18857</ele>
        <time>2023-06-04T12:41:44.000Z</time>
      </trkpt>
      <trkpt lat="45.87814" lon="4.71008">
        <ele>290.46429</ele>
        <time>2023-06-04T12:41:45.000Z</time>
      </trkpt>
      <trkpt lat="45.87819" lon="4.71004">
        <ele>288.54266</ele>
        <time>2023-06-04T12:41:46.000Z</time>
      </trkpt>
      <trkpt lat="45.87825" lon="4.71003">
        <ele>287.03287</ele>
        <time>2023-06-04T12:41:47.000Z</time>
      </trkpt>
      <trkpt lat="45.87832" lon="4.70999">
        <ele>285.49463</ele>
        <time>2023-06-04T12:41:48.000Z</time>
      </trkpt>
      <trkpt lat="45.87836" lon="4.70996">
        <ele>284.01248</ele>
        <time>2023-06-04T12:41:49.000Z</time>
      </trkpt>
      <trkpt lat="45.87842" lon="4.70995">
        <ele>282.29681</ele>
        <time>2023-06-04T12:41:50.000Z</time>
      </trkpt>
      <trkpt lat="45.87846" lon="4.70988">
        <ele>280.5816</ele>
        <time>2023-06-04T12:41:51.000Z</time>
      </trkpt>
      <trkpt lat="45.87846" lon="4.70984">
        <ele>278.90009</ele>
        <time>2023-06-04T12:41:52.000Z</time>
      </trkpt>
      <trkpt lat="45.87845" lon="4.70979">
        <ele>277.18686</ele>
        <time>2023-06-04T12:41:53.000Z</time>
      </trkpt>
      <trkpt lat="45.87847" lon="4.70974">
        <ele>275.479</ele>
        <time>2023-06-04T12:41:54.000Z</time>
      </trkpt>
      <trkpt lat="45.87847" lon="4.7097">
        <ele>275.513</ele>
        <time>2023-06-04T12:41:55.000Z</time>
      </trkpt>
      <trkpt lat="45.87847" lon="4.70964">
        <ele>273.91391</ele>
        <time>2023-06-04T12:41:56.000Z</time>
      </trkpt>
      <trkpt lat="45.8785" lon="4.70959">
        <ele>272.34613</ele>
        <time>2023-06-04T12:41:57.000Z</time>
      </trkpt>
      <trkpt lat="45.87852" lon="4.70953">
        <ele>270.85471</ele>
        <time>2023-06-04T12:41:58.000Z</time>
      </trkpt>
      <trkpt lat="45.87852" lon="4.70945">
        <ele>269.23062</ele>
        <time>2023-06-04T12:41:59.000Z</time>
      </trkpt>
      <trkpt lat="45.87855" lon="4.70941">
        <ele>267.66534</ele>
        <time>2023-06-04T12:42:00.000Z</time>
      </trkpt>
      <trkpt lat="45.87855" lon="4.70933">
        <ele>267.72592</ele>
        <time>2023-06-04T12:42:01.000Z</time>
      </trkpt>
      <trkpt lat="45.87855" lon="4.70928">
        <ele>266.17328</ele>
        <time>2023-06-04T12:42:02.000Z</time>
      </trkpt>
      <trkpt lat="45.87856" lon="4.70921">
        <ele>266.09003</ele>
        <time>2023-06-04T12:42:03.000Z</time>
      </trkpt>
      <trkpt lat="45.87857" lon="4.70912">
        <ele>266.01105</ele>
        <time>2023-06-04T12:42:04.000Z</time>
      </trkpt>
      <trkpt lat="45.87862" lon="4.70908">
        <ele>266.0127</ele>
        <time>2023-06-04T12:42:05.000Z</time>
      </trkpt>
      <trkpt lat="45.87863" lon="4.70898">
        <ele>265.98227</ele>
        <time>2023-06-04T12:42:06.000Z</time>
      </trkpt>
      <trkpt lat="45.87866" lon="4.70892">
        <ele>265.94125</ele>
        <time>2023-06-04T12:42:07.000Z</time>
      </trkpt>
      <trkpt lat="45.87871" lon="4.70886">
        <ele>265.91248</ele>
        <time>2023-06-04T12:42:08.000Z</time>
      </trkpt>
      <trkpt lat="45.87869" lon="4.70877">
        <ele>265.76251</ele>
        <time>2023-06-04T12:42:09.000Z</time>
      </trkpt>
      <trkpt lat="45.87871" lon="4.70873">
        <ele>265.80542</ele>
        <time>2023-06-04T12:42:10.000Z</time>
      </trkpt>
      <trkpt lat="45.87872" lon="4.70865">
        <ele>265.86432</ele>
        <time>2023-06-04T12:42:11.000Z</time>
      </trkpt>
      <trkpt lat="45.87872" lon="4.70857">
        <ele>265.86478</ele>
        <time>2023-06-04T12:42:12.000Z</time>
      </trkpt>
      <trkpt lat="45.87873" lon="4.70851">
        <ele>265.85968</ele>
        <time>2023-06-04T12:42:13.000Z</time>
      </trkpt>
      <trkpt lat="45.87875" lon="4.70839">
        <ele>265.84528</ele>
        <time>2023-06-04T12:42:15.000Z</time>
      </trkpt>
      <trkpt lat="45.8788" lon="4.70833">
        <ele>265.82877</ele>
        <time>2023-06-04T12:42:16.000Z</time>
      </trkpt>
      <trkpt lat="45.87882" lon="4.70828">
        <ele>265.78571</ele>
        <time>2023-06-04T12:42:17.000Z</time>
      </trkpt>
      <trkpt lat="45.87879" lon="4.70819">
        <ele>267.71576</ele>
        <time>2023-06-04T12:42:18.000Z</time>
      </trkpt>
      <trkpt lat="45.87881" lon="4.70812">
        <ele>267.67242</ele>
        <time>2023-06-04T12:42:19.000Z</time>
      </trkpt>
      <trkpt lat="45.87883" lon="4.70808">
        <ele>267.79239</ele>
        <time>2023-06-04T12:42:20.000Z</time>
      </trkpt>
      <trkpt lat="45.87882" lon="4.70801">
        <ele>267.89236</ele>
        <time>2023-06-04T12:42:21.000Z</time>
      </trkpt>
      <trkpt lat="45.87885" lon="4.70796">
        <ele>267.9942</ele>
        <time>2023-06-04T12:42:22.000Z</time>
      </trkpt>
      <trkpt lat="45.87887" lon="4.70787">
        <ele>268.17603</ele>
        <time>2023-06-04T12:42:23.000Z</time>
      </trkpt>
      <trkpt lat="45.87887" lon="4.70782">
        <ele>270.30728</ele>
        <time>2023-06-04T12:42:24.000Z</time>
      </trkpt>
      <trkpt lat="45.87888" lon="4.70774">
        <ele>270.60464</ele>
        <time>2023-06-04T12:42:25.000Z</time>
      </trkpt>
      <trkpt lat="45.87886" lon="4.70767">
        <ele>270.88528</ele>
        <time>2023-06-04T12:42:26.000Z</time>
      </trkpt>
      <trkpt lat="45.87887" lon="4.7076">
        <ele>271.16376</ele>
        <time>2023-06-04T12:42:27.000Z</time>
      </trkpt>
      <trkpt lat="45.87886" lon="4.70755">
        <ele>271.41806</ele>
        <time>2023-06-04T12:42:28.000Z</time>
      </trkpt>
      <trkpt lat="45.87891" lon="4.70746">
        <ele>271.67307</ele>
        <time>2023-06-04T12:42:29.000Z</time>
      </trkpt>
      <trkpt lat="45.87888" lon="4.70738">
        <ele>274.10251</ele>
        <time>2023-06-04T12:42:30.000Z</time>
      </trkpt>
      <trkpt lat="45.87892" lon="4.70731">
        <ele>274.4613</ele>
        <time>2023-06-04T12:42:31.000Z</time>
      </trkpt>
      <trkpt lat="45.87891" lon="4.70727">
        <ele>274.82584</ele>
        <time>2023-06-04T12:42:32.000Z</time>
      </trkpt>
      <trkpt lat="45.87894" lon="4.70722">
        <ele>276.65988</ele>
        <time>2023-06-04T12:42:33.000Z</time>
      </trkpt>
      <trkpt lat="45.87895" lon="4.70715">
        <ele>278.47198</ele>
        <time>2023-06-04T12:42:34.000Z</time>
      </trkpt>
      <trkpt lat="45.87895" lon="4.70704">
        <ele>280.18707</ele>
        <time>2023-06-04T12:42:35.000Z</time>
      </trkpt>
      <trkpt lat="45.87899" lon="4.70695">
        <ele>281.9245</ele>
        <time>2023-06-04T12:42:36.000Z</time>
      </trkpt>
      <trkpt lat="45.879" lon="4.70685">
        <ele>283.5239</ele>
        <time>2023-06-04T12:42:37.000Z</time>
      </trkpt>
      <trkpt lat="45.87902" lon="4.70676">
        <ele>283.04361</ele>
        <time>2023-06-04T12:42:38.000Z</time>
      </trkpt>
      <trkpt lat="45.879" lon="4.70668">
        <ele>284.6275</ele>
        <time>2023-06-04T12:42:39.000Z</time>
      </trkpt>
      <trkpt lat="45.87901" lon="4.70662">
        <ele>286.26529</ele>
        <time>2023-06-04T12:42:40.000Z</time>
      </trkpt>
      <trkpt lat="45.87901" lon="4.70653">
        <ele>287.88788</ele>
        <time>2023-06-04T12:42:41.000Z</time>
      </trkpt>
      <trkpt lat="45.87902" lon="4.70646">
        <ele>289.33868</ele>
        <time>2023-06-04T12:42:42.000Z</time>
      </trkpt>
      <trkpt lat="45.87905" lon="4.7064">
        <ele>290.76907</ele>
        <time>2023-06-04T12:42:43.000Z</time>
      </trkpt>
      <trkpt lat="45.87906" lon="4.70634">
        <ele>290.21161</ele>
        <time>2023-06-04T12:42:44.000Z</time>
      </trkpt>
      <trkpt lat="45.87907" lon="4.70626">
        <ele>291.48483</ele>
        <time>2023-06-04T12:42:45.000Z</time>
      </trkpt>
      <trkpt lat="45.87908" lon="4.70616">
        <ele>292.84003</ele>
        <time>2023-06-04T12:42:46.000Z</time>
      </trkpt>
      <trkpt lat="45.87909" lon="4.70609">
        <ele>294.22958</ele>
        <time>2023-06-04T12:42:47.000Z</time>
      </trkpt>
      <trkpt lat="45.87909" lon="4.70602">
        <ele>295.64273</ele>
        <time>2023-06-04T12:42:48.000Z</time>
      </trkpt>
      <trkpt lat="45.87907" lon="4.70598">
        <ele>297.09283</ele>
        <time>2023-06-04T12:42:49.000Z</time>
      </trkpt>
      <trkpt lat="45.87908" lon="4.70591">
        <ele>296.65323</ele>
        <time>2023-06-04T12:42:50.000Z</time>
      </trkpt>
      <trkpt lat="45.87911" lon="4.70581">
        <ele>298.1001</ele>
        <time>2023-06-04T12:42:51.000Z</time>
      </trkpt>
      <trkpt lat="45.87912" lon="4.70576">
        <ele>299.45621</ele>
        <time>2023-06-04T12:42:52.000Z</time>
      </trkpt>
      <trkpt lat="45.87913" lon="4.70569">
        <ele>299.34598</ele>
        <time>2023-06-04T12:42:53.000Z</time>
      </trkpt>
      <trkpt lat="45.87913" lon="4.70561">
        <ele>299.28391</ele>
        <time>2023-06-04T12:42:54.000Z</time>
      </trkpt>
      <trkpt lat="45.87914" lon="4.70553">
        <ele>299.29678</ele>
        <time>2023-06-04T12:42:55.000Z</time>
      </trkpt>
      <trkpt lat="45.87916" lon="4.70548">
        <ele>299.21957</ele>
        <time>2023-06-04T12:42:56.000Z</time>
      </trkpt>
      <trkpt lat="45.8792" lon="4.70537">
        <ele>299.29236</ele>
        <time>2023-06-04T12:42:57.000Z</time>
      </trkpt>
      <trkpt lat="45.87921" lon="4.70535">
        <ele>299.47311</ele>
        <time>2023-06-04T12:42:58.000Z</time>
      </trkpt>
      <trkpt lat="45.87922" lon="4.70527">
        <ele>299.50482</ele>
        <time>2023-06-04T12:42:59.000Z</time>
      </trkpt>
      <trkpt lat="45.87923" lon="4.70522">
        <ele>299.53571</ele>
        <time>2023-06-04T12:43:00.000Z</time>
      </trkpt>
      <trkpt lat="45.87923" lon="4.70516">
        <ele>299.63873</ele>
        <time>2023-06-04T12:43:01.000Z</time>
      </trkpt>
      <trkpt lat="45.87922" lon="4.70508">
        <ele>299.96796</ele>
        <time>2023-06-04T12:43:02.000Z</time>
      </trkpt>
      <trkpt lat="45.87924" lon="4.70504">
        <ele>300.41269</ele>
        <time>2023-06-04T12:43:03.000Z</time>
      </trkpt>
      <trkpt lat="45.87923" lon="4.70499">
        <ele>300.97845</ele>
        <time>2023-06-04T12:43:04.000Z</time>
      </trkpt>
      <trkpt lat="45.87927" lon="4.70496">
        <ele>301.41846</ele>
        <time>2023-06-04T12:43:05.000Z</time>
      </trkpt>
      <trkpt lat="45.87927" lon="4.70491">
        <ele>301.83731</ele>
        <time>2023-06-04T12:43:06.000Z</time>
      </trkpt>
      <trkpt lat="45.8793" lon="4.70486">
        <ele>302.0766</ele>
        <time>2023-06-04T12:43:07.000Z</time>
      </trkpt>
      <trkpt lat="45.8793" lon="4.70483">
        <ele>302.59125</ele>
        <time>2023-06-04T12:43:08.000Z</time>
      </trkpt>
      <trkpt lat="45.87933" lon="4.70479">
        <ele>303.0123</ele>
        <time>2023-06-04T12:43:09.000Z</time>
      </trkpt>
      <trkpt lat="45.87935" lon="4.7047">
        <ele>303.38287</ele>
        <time>2023-06-04T12:43:10.000Z</time>
      </trkpt>
      <trkpt lat="45.87933" lon="4.70468">
        <ele>303.97754</ele>
        <time>2023-06-04T12:43:11.000Z</time>
      </trkpt>
      <trkpt lat="45.87931" lon="4.70463">
        <ele>304.57187</ele>
        <time>2023-06-04T12:43:12.000Z</time>
      </trkpt>
      <trkpt lat="45.87931" lon="4.7046">
        <ele>305.09116</ele>
        <time>2023-06-04T12:43:13.000Z</time>
      </trkpt>
      <trkpt lat="45.87934" lon="4.70454">
        <ele>305.59375</ele>
        <time>2023-06-04T12:43:14.000Z</time>
      </trkpt>
      <trkpt lat="45.87935" lon="4.70451">
        <ele>306.03326</ele>
        <time>2023-06-04T12:43:15.000Z</time>
      </trkpt>
      <trkpt lat="45.87939" lon="4.70446">
        <ele>306.50406</ele>
        <time>2023-06-04T12:43:16.000Z</time>
      </trkpt>
      <trkpt lat="45.8794" lon="4.70442">
        <ele>306.99466</ele>
        <time>2023-06-04T12:43:17.000Z</time>
      </trkpt>
      <trkpt lat="45.87942" lon="4.70436">
        <ele>307.36334</ele>
        <time>2023-06-04T12:43:18.000Z</time>
      </trkpt>
      <trkpt lat="45.87942" lon="4.70431">
        <ele>307.74921</ele>
        <time>2023-06-04T12:43:19.000Z</time>
      </trkpt>
      <trkpt lat="45.87943" lon="4.70426">
        <ele>308.17877</ele>
        <time>2023-06-04T12:43:20.000Z</time>
      </trkpt>
      <trkpt lat="45.87944" lon="4.70422">
        <ele>308.52682</ele>
        <time>2023-06-04T12:43:21.000Z</time>
      </trkpt>
      <trkpt lat="45.87945" lon="4.70418">
        <ele>308.91046</ele>
        <time>2023-06-04T12:43:22.000Z</time>
      </trkpt>
      <trkpt lat="45.87945" lon="4.70414">
        <ele>309.20956</ele>
        <time>2023-06-04T12:43:23.000Z</time>
      </trkpt>
      <trkpt lat="45.87947" lon="4.70408">
        <ele>309.54245</ele>
        <time>2023-06-04T12:43:24.000Z</time>
      </trkpt>
      <trkpt lat="45.87948" lon="4.70403">
        <ele>309.96136</ele>
        <time>2023-06-04T12:43:25.000Z</time>
      </trkpt>
      <trkpt lat="45.87949" lon="4.70399">
        <ele>310.27484</ele>
        <time>2023-06-04T12:43:26.000Z</time>
      </trkpt>
      <trkpt lat="45.8795" lon="4.70395">
        <ele>310.69647</ele>
        <time>2023-06-04T12:43:27.000Z</time>
      </trkpt>
      <trkpt lat="45.87951" lon="4.70391">
        <ele>310.8808</ele>
        <time>2023-06-04T12:43:28.000Z</time>
      </trkpt>
      <trkpt lat="45.87952" lon="4.70386">
        <ele>311.07794</ele>
        <time>2023-06-04T12:43:29.000Z</time>
      </trkpt>
      <trkpt lat="45.87953" lon="4.70381">
        <ele>311.13519</ele>
        <time>2023-06-04T12:43:30.000Z</time>
      </trkpt>
      <trkpt lat="45.87955" lon="4.70376">
        <ele>310.92178</ele>
        <time>2023-06-04T12:43:31.000Z</time>
      </trkpt>
      <trkpt lat="45.87956" lon="4.70372">
        <ele>310.70306</ele>
        <time>2023-06-04T12:43:32.000Z</time>
      </trkpt>
      <trkpt lat="45.87957" lon="4.70368">
        <ele>310.74738</ele>
        <time>2023-06-04T12:43:33.000Z</time>
      </trkpt>
      <trkpt lat="45.87957" lon="4.70363">
        <ele>310.78683</ele>
        <time>2023-06-04T12:43:34.000Z</time>
      </trkpt>
      <trkpt lat="45.87958" lon="4.70358">
        <ele>310.90097</ele>
        <time>2023-06-04T12:43:35.000Z</time>
      </trkpt>
      <trkpt lat="45.87959" lon="4.70353">
        <ele>310.98785</ele>
        <time>2023-06-04T12:43:36.000Z</time>
      </trkpt>
      <trkpt lat="45.8796" lon="4.70348">
        <ele>311.22656</ele>
        <time>2023-06-04T12:43:37.000Z</time>
      </trkpt>
      <trkpt lat="45.87961" lon="4.70339">
        <ele>311.00647</ele>
        <time>2023-06-04T12:43:38.000Z</time>
      </trkpt>
      <trkpt lat="45.8796" lon="4.70333">
        <ele>310.89984</ele>
        <time>2023-06-04T12:43:39.000Z</time>
      </trkpt>
      <trkpt lat="45.87958" lon="4.70329">
        <ele>310.59711</ele>
        <time>2023-06-04T12:43:40.000Z</time>
      </trkpt>
      <trkpt lat="45.87957" lon="4.70327">
        <ele>310.43265</ele>
        <time>2023-06-04T12:43:41.000Z</time>
      </trkpt>
      <trkpt lat="45.87962" lon="4.70317">
        <ele>310.3541</ele>
        <time>2023-06-04T12:43:43.000Z</time>
      </trkpt>
      <trkpt lat="45.8796" lon="4.70313">
        <ele>310.0864</ele>
        <time>2023-06-04T12:43:44.000Z</time>
      </trkpt>
      <trkpt lat="45.87961" lon="4.70307">
        <ele>309.75293</ele>
        <time>2023-06-04T12:43:45.000Z</time>
      </trkpt>
      <trkpt lat="45.87964" lon="4.70301">
        <ele>309.45837</ele>
        <time>2023-06-04T12:43:46.000Z</time>
      </trkpt>
      <trkpt lat="45.87964" lon="4.70295">
        <ele>309.22964</ele>
        <time>2023-06-04T12:43:47.000Z</time>
      </trkpt>
      <trkpt lat="45.87964" lon="4.7029">
        <ele>308.99249</ele>
        <time>2023-06-04T12:43:48.000Z</time>
      </trkpt>
      <trkpt lat="45.87965" lon="4.70285">
        <ele>308.6196</ele>
        <time>2023-06-04T12:43:49.000Z</time>
      </trkpt>
      <trkpt lat="45.87966" lon="4.7028">
        <ele>308.27557</ele>
        <time>2023-06-04T12:43:50.000Z</time>
      </trkpt>
      <trkpt lat="45.87968" lon="4.70274">
        <ele>308.06812</ele>
        <time>2023-06-04T12:43:51.000Z</time>
      </trkpt>
      <trkpt lat="45.87969" lon="4.70269">
        <ele>308.04672</ele>
        <time>2023-06-04T12:43:52.000Z</time>
      </trkpt>
      <trkpt lat="45.8797" lon="4.70264">
        <ele>308.07501</ele>
        <time>2023-06-04T12:43:53.000Z</time>
      </trkpt>
      <trkpt lat="45.87971" lon="4.70259">
        <ele>308.02567</ele>
        <time>2023-06-04T12:43:54.000Z</time>
      </trkpt>
      <trkpt lat="45.87972" lon="4.70254">
        <ele>307.83069</ele>
        <time>2023-06-04T12:43:55.000Z</time>
      </trkpt>
      <trkpt lat="45.87972" lon="4.7025">
        <ele>307.55389</ele>
        <time>2023-06-04T12:43:56.000Z</time>
      </trkpt>
      <trkpt lat="45.87973" lon="4.70245">
        <ele>307.29181</ele>
        <time>2023-06-04T12:43:57.000Z</time>
      </trkpt>
      <trkpt lat="45.87976" lon="4.70237">
        <ele>306.81232</ele>
        <time>2023-06-04T12:43:58.000Z</time>
      </trkpt>
      <trkpt lat="45.87976" lon="4.70231">
        <ele>306.87595</ele>
        <time>2023-06-04T12:43:59.000Z</time>
      </trkpt>
      <trkpt lat="45.87979" lon="4.70223">
        <ele>306.8692</ele>
        <time>2023-06-04T12:44:01.000Z</time>
      </trkpt>
      <trkpt lat="45.87984" lon="4.7022">
        <ele>306.96317</ele>
        <time>2023-06-04T12:44:02.000Z</time>
      </trkpt>
      <trkpt lat="45.87986" lon="4.70211">
        <ele>306.93488</ele>
        <time>2023-06-04T12:44:03.000Z</time>
      </trkpt>
      <trkpt lat="45.8799" lon="4.70208">
        <ele>306.76306</ele>
        <time>2023-06-04T12:44:04.000Z</time>
      </trkpt>
      <trkpt lat="45.87994" lon="4.70206">
        <ele>306.89081</ele>
        <time>2023-06-04T12:44:05.000Z</time>
      </trkpt>
      <trkpt lat="45.88" lon="4.70202">
        <ele>306.95782</ele>
        <time>2023-06-04T12:44:06.000Z</time>
      </trkpt>
      <trkpt lat="45.88006" lon="4.70199">
        <ele>307.01007</ele>
        <time>2023-06-04T12:44:07.000Z</time>
      </trkpt>
      <trkpt lat="45.88014" lon="4.70199">
        <ele>306.98004</ele>
        <time>2023-06-04T12:44:08.000Z</time>
      </trkpt>
      <trkpt lat="45.88019" lon="4.70193">
        <ele>306.9588</ele>
        <time>2023-06-04T12:44:09.000Z</time>
      </trkpt>
      <trkpt lat="45.88025" lon="4.70187">
        <ele>306.91214</ele>
        <time>2023-06-04T12:44:10.000Z</time>
      </trkpt>
      <trkpt lat="45.88025" lon="4.70182">
        <ele>306.92535</ele>
        <time>2023-06-04T12:44:11.000Z</time>
      </trkpt>
      <trkpt lat="45.88027" lon="4.70182">
        <ele>306.8544</ele>
        <time>2023-06-04T12:44:12.000Z</time>
      </trkpt>
      <trkpt lat="45.88032" lon="4.70176">
        <ele>306.66641</ele>
        <time>2023-06-04T12:44:13.000Z</time>
      </trkpt>
      <trkpt lat="45.88033" lon="4.70171">
        <ele>306.4682</ele>
        <time>2023-06-04T12:44:14.000Z</time>
      </trkpt>
      <trkpt lat="45.88037" lon="4.70164">
        <ele>306.09369</ele>
        <time>2023-06-04T12:44:15.000Z</time>
      </trkpt>
      <trkpt lat="45.88038" lon="4.70159">
        <ele>305.8288</ele>
        <time>2023-06-04T12:44:16.000Z</time>
      </trkpt>
      <trkpt lat="45.8804" lon="4.70153">
        <ele>305.6037</ele>
        <time>2023-06-04T12:44:17.000Z</time>
      </trkpt>
      <trkpt lat="45.88042" lon="4.70148">
        <ele>305.5274</ele>
        <time>2023-06-04T12:44:18.000Z</time>
      </trkpt>
      <trkpt lat="45.88043" lon="4.70139">
        <ele>305.49197</ele>
        <time>2023-06-04T12:44:19.000Z</time>
      </trkpt>
      <trkpt lat="45.88043" lon="4.70133">
        <ele>305.46475</ele>
        <time>2023-06-04T12:44:20.000Z</time>
      </trkpt>
      <trkpt lat="45.88048" lon="4.70128">
        <ele>305.74783</ele>
        <time>2023-06-04T12:44:21.000Z</time>
      </trkpt>
      <trkpt lat="45.88053" lon="4.70123">
        <ele>306.00412</ele>
        <time>2023-06-04T12:44:22.000Z</time>
      </trkpt>
      <trkpt lat="45.88057" lon="4.70119">
        <ele>306.28067</ele>
        <time>2023-06-04T12:44:23.000Z</time>
      </trkpt>
      <trkpt lat="45.88063" lon="4.70114">
        <ele>306.49344</ele>
        <time>2023-06-04T12:44:24.000Z</time>
      </trkpt>
      <trkpt lat="45.88067" lon="4.70109">
        <ele>306.55951</ele>
        <time>2023-06-04T12:44:25.000Z</time>
      </trkpt>
      <trkpt lat="45.8807" lon="4.70105">
        <ele>306.71274</ele>
        <time>2023-06-04T12:44:26.000Z</time>
      </trkpt>
      <trkpt lat="45.88074" lon="4.70102">
        <ele>306.8389</ele>
        <time>2023-06-04T12:44:27.000Z</time>
      </trkpt>
      <trkpt lat="45.88076" lon="4.70096">
        <ele>307.01044</ele>
        <time>2023-06-04T12:44:28.000Z</time>
      </trkpt>
      <trkpt lat="45.8808" lon="4.70092">
        <ele>307.24219</ele>
        <time>2023-06-04T12:44:29.000Z</time>
      </trkpt>
      <trkpt lat="45.88082" lon="4.70084">
        <ele>307.53412</ele>
        <time>2023-06-04T12:44:30.000Z</time>
      </trkpt>
      <trkpt lat="45.88085" lon="4.70076">
        <ele>307.81079</ele>
        <time>2023-06-04T12:44:31.000Z</time>
      </trkpt>
      <trkpt lat="45.88085" lon="4.7007">
        <ele>308.05426</ele>
        <time>2023-06-04T12:44:32.000Z</time>
      </trkpt>
      <trkpt lat="45.88085" lon="4.70062">
        <ele>308.40707</ele>
        <time>2023-06-04T12:44:33.000Z</time>
      </trkpt>
      <trkpt lat="45.88087" lon="4.70058">
        <ele>308.92249</ele>
        <time>2023-06-04T12:44:34.000Z</time>
      </trkpt>
      <trkpt lat="45.88089" lon="4.70055">
        <ele>309.63483</ele>
        <time>2023-06-04T12:44:35.000Z</time>
      </trkpt>
      <trkpt lat="45.8809" lon="4.70046">
        <ele>310.27231</ele>
        <time>2023-06-04T12:44:36.000Z</time>
      </trkpt>
      <trkpt lat="45.88092" lon="4.70039">
        <ele>310.86346</ele>
        <time>2023-06-04T12:44:37.000Z</time>
      </trkpt>
      <trkpt lat="45.88094" lon="4.70035">
        <ele>311.52319</ele>
        <time>2023-06-04T12:44:38.000Z</time>
      </trkpt>
      <trkpt lat="45.88096" lon="4.7003">
        <ele>312.12436</ele>
        <time>2023-06-04T12:44:39.000Z</time>
      </trkpt>
      <trkpt lat="45.88098" lon="4.70026">
        <ele>312.75229</ele>
        <time>2023-06-04T12:44:40.000Z</time>
      </trkpt>
      <trkpt lat="45.88099" lon="4.70016">
        <ele>312.95288</ele>
        <time>2023-06-04T12:44:41.000Z</time>
      </trkpt>
      <trkpt lat="45.88099" lon="4.70006">
        <ele>313.03433</ele>
        <time>2023-06-04T12:44:43.000Z</time>
      </trkpt>
      <trkpt lat="45.88098" lon="4.70001">
        <ele>313.0629</ele>
        <time>2023-06-04T12:44:44.000Z</time>
      </trkpt>
      <trkpt lat="45.88103" lon="4.69991">
        <ele>313.12888</ele>
        <time>2023-06-04T12:44:45.000Z</time>
      </trkpt>
      <trkpt lat="45.88103" lon="4.69985">
        <ele>313.28427</ele>
        <time>2023-06-04T12:44:46.000Z</time>
      </trkpt>
      <trkpt lat="45.88106" lon="4.69978">
        <ele>313.51312</ele>
        <time>2023-06-04T12:44:47.000Z</time>
      </trkpt>
      <trkpt lat="45.88106" lon="4.69973">
        <ele>313.74905</ele>
        <time>2023-06-04T12:44:48.000Z</time>
      </trkpt>
      <trkpt lat="45.88106" lon="4.69966">
        <ele>313.95074</ele>
        <time>2023-06-04T12:44:49.000Z</time>
      </trkpt>
      <trkpt lat="45.88107" lon="4.69957">
        <ele>314.03033</ele>
        <time>2023-06-04T12:44:50.000Z</time>
      </trkpt>
      <trkpt lat="45.88106" lon="4.69951">
        <ele>314.11005</ele>
        <time>2023-06-04T12:44:51.000Z</time>
      </trkpt>
      <trkpt lat="45.88105" lon="4.69945">
        <ele>314.16098</ele>
        <time>2023-06-04T12:44:52.000Z</time>
      </trkpt>
      <trkpt lat="45.88105" lon="4.69937">
        <ele>314.33417</ele>
        <time>2023-06-04T12:44:53.000Z</time>
      </trkpt>
      <trkpt lat="45.88106" lon="4.69926">
        <ele>314.39087</ele>
        <time>2023-06-04T12:44:54.000Z</time>
      </trkpt>
      <trkpt lat="45.88109" lon="4.69919">
        <ele>314.4231</ele>
        <time>2023-06-04T12:44:55.000Z</time>
      </trkpt>
      <trkpt lat="45.88109" lon="4.69915">
        <ele>314.30923</ele>
        <time>2023-06-04T12:44:56.000Z</time>
      </trkpt>
      <trkpt lat="45.88108" lon="4.69911">
        <ele>314.31079</ele>
        <time>2023-06-04T12:44:57.000Z</time>
      </trkpt>
      <trkpt lat="45.88108" lon="4.69901">
        <ele>314.354</ele>
        <time>2023-06-04T12:44:58.000Z</time>
      </trkpt>
      <trkpt lat="45.88107" lon="4.69893">
        <ele>314.15317</ele>
        <time>2023-06-04T12:44:59.000Z</time>
      </trkpt>
      <trkpt lat="45.88109" lon="4.6989">
        <ele>314.12039</ele>
        <time>2023-06-04T12:45:00.000Z</time>
      </trkpt>
      <trkpt lat="45.88107" lon="4.69881">
        <ele>314.21558</ele>
        <time>2023-06-04T12:45:01.000Z</time>
      </trkpt>
      <trkpt lat="45.88108" lon="4.69876">
        <ele>314.38068</ele>
        <time>2023-06-04T12:45:02.000Z</time>
      </trkpt>
      <trkpt lat="45.88109" lon="4.69873">
        <ele>314.23959</ele>
        <time>2023-06-04T12:45:03.000Z</time>
      </trkpt>
      <trkpt lat="45.88109" lon="4.69867">
        <ele>314.16431</ele>
        <time>2023-06-04T12:45:04.000Z</time>
      </trkpt>
      <trkpt lat="45.88111" lon="4.69865">
        <ele>314.07654</ele>
        <time>2023-06-04T12:45:05.000Z</time>
      </trkpt>
      <trkpt lat="45.88113" lon="4.69859">
        <ele>313.90179</ele>
        <time>2023-06-04T12:45:06.000Z</time>
      </trkpt>
      <trkpt lat="45.88113" lon="4.69851">
        <ele>313.64224</ele>
        <time>2023-06-04T12:45:07.000Z</time>
      </trkpt>
      <trkpt lat="45.88113" lon="4.69844">
        <ele>313.35925</ele>
        <time>2023-06-04T12:45:08.000Z</time>
      </trkpt>
      <trkpt lat="45.88115" lon="4.6984">
        <ele>313.23843</ele>
        <time>2023-06-04T12:45:09.000Z</time>
      </trkpt>
      <trkpt lat="45.88115" lon="4.69836">
        <ele>313.27713</ele>
        <time>2023-06-04T12:45:10.000Z</time>
      </trkpt>
      <trkpt lat="45.88118" lon="4.69834">
        <ele>313.33051</ele>
        <time>2023-06-04T12:45:11.000Z</time>
      </trkpt>
      <trkpt lat="45.88121" lon="4.69829">
        <ele>313.31546</ele>
        <time>2023-06-04T12:45:12.000Z</time>
      </trkpt>
      <trkpt lat="45.88122" lon="4.69824">
        <ele>313.25397</ele>
        <time>2023-06-04T12:45:13.000Z</time>
      </trkpt>
      <trkpt lat="45.88125" lon="4.69814">
        <ele>313.09894</ele>
        <time>2023-06-04T12:45:14.000Z</time>
      </trkpt>
      <trkpt lat="45.88124" lon="4.69809">
        <ele>312.90948</ele>
        <time>2023-06-04T12:45:15.000Z</time>
      </trkpt>
      <trkpt lat="45.88124" lon="4.69805">
        <ele>312.82269</ele>
        <time>2023-06-04T12:45:16.000Z</time>
      </trkpt>
      <trkpt lat="45.88126" lon="4.69798">
        <ele>312.74533</ele>
        <time>2023-06-04T12:45:17.000Z</time>
      </trkpt>
      <trkpt lat="45.88125" lon="4.69793">
        <ele>312.77603</ele>
        <time>2023-06-04T12:45:18.000Z</time>
      </trkpt>
      <trkpt lat="45.88127" lon="4.69788">
        <ele>312.92581</ele>
        <time>2023-06-04T12:45:19.000Z</time>
      </trkpt>
      <trkpt lat="45.88129" lon="4.69781">
        <ele>313.09164</ele>
        <time>2023-06-04T12:45:20.000Z</time>
      </trkpt>
      <trkpt lat="45.88128" lon="4.69775">
        <ele>313.02466</ele>
        <time>2023-06-04T12:45:21.000Z</time>
      </trkpt>
      <trkpt lat="45.88129" lon="4.69769">
        <ele>312.94849</ele>
        <time>2023-06-04T12:45:22.000Z</time>
      </trkpt>
      <trkpt lat="45.8813" lon="4.69765">
        <ele>313.22995</ele>
        <time>2023-06-04T12:45:23.000Z</time>
      </trkpt>
      <trkpt lat="45.88131" lon="4.69759">
        <ele>313.57617</ele>
        <time>2023-06-04T12:45:24.000Z</time>
      </trkpt>
      <trkpt lat="45.88132" lon="4.69754">
        <ele>313.86176</ele>
        <time>2023-06-04T12:45:25.000Z</time>
      </trkpt>
      <trkpt lat="45.88132" lon="4.69749">
        <ele>314.34424</ele>
        <time>2023-06-04T12:45:26.000Z</time>
      </trkpt>
      <trkpt lat="45.88136" lon="4.69741">
        <ele>314.76117</ele>
        <time>2023-06-04T12:45:27.000Z</time>
      </trkpt>
      <trkpt lat="45.88136" lon="4.69734">
        <ele>315.27597</ele>
        <time>2023-06-04T12:45:28.000Z</time>
      </trkpt>
      <trkpt lat="45.88137" lon="4.6973">
        <ele>315.80316</ele>
        <time>2023-06-04T12:45:29.000Z</time>
      </trkpt>
      <trkpt lat="45.88137" lon="4.69725">
        <ele>315.88467</ele>
        <time>2023-06-04T12:45:30.000Z</time>
      </trkpt>
      <trkpt lat="45.8814" lon="4.69719">
        <ele>316.05411</ele>
        <time>2023-06-04T12:45:31.000Z</time>
      </trkpt>
      <trkpt lat="45.88139" lon="4.69715">
        <ele>316.2435</ele>
        <time>2023-06-04T12:45:32.000Z</time>
      </trkpt>
      <trkpt lat="45.88141" lon="4.69709">
        <ele>316.31049</ele>
        <time>2023-06-04T12:45:33.000Z</time>
      </trkpt>
      <trkpt lat="45.88144" lon="4.69703">
        <ele>316.55817</ele>
        <time>2023-06-04T12:45:34.000Z</time>
      </trkpt>
      <trkpt lat="45.88145" lon="4.69697">
        <ele>316.64526</ele>
        <time>2023-06-04T12:45:35.000Z</time>
      </trkpt>
      <trkpt lat="45.88145" lon="4.69693">
        <ele>316.61435</ele>
        <time>2023-06-04T12:45:36.000Z</time>
      </trkpt>
      <trkpt lat="45.88146" lon="4.6969">
        <ele>316.58005</ele>
        <time>2023-06-04T12:45:37.000Z</time>
      </trkpt>
      <trkpt lat="45.88148" lon="4.69683">
        <ele>316.65845</ele>
        <time>2023-06-04T12:45:38.000Z</time>
      </trkpt>
      <trkpt lat="45.8815" lon="4.69675">
        <ele>316.81644</ele>
        <time>2023-06-04T12:45:39.000Z</time>
      </trkpt>
      <trkpt lat="45.88152" lon="4.69673">
        <ele>316.85211</ele>
        <time>2023-06-04T12:45:40.000Z</time>
      </trkpt>
      <trkpt lat="45.88153" lon="4.69661">
        <ele>317.06543</ele>
        <time>2023-06-04T12:45:41.000Z</time>
      </trkpt>
      <trkpt lat="45.88153" lon="4.69654">
        <ele>317.21448</ele>
        <time>2023-06-04T12:45:42.000Z</time>
      </trkpt>
      <trkpt lat="45.88154" lon="4.69648">
        <ele>317.44272</ele>
        <time>2023-06-04T12:45:43.000Z</time>
      </trkpt>
      <trkpt lat="45.88156" lon="4.69645">
        <ele>317.61087</ele>
        <time>2023-06-04T12:45:44.000Z</time>
      </trkpt>
      <trkpt lat="45.88158" lon="4.69642">
        <ele>317.77448</ele>
        <time>2023-06-04T12:45:45.000Z</time>
      </trkpt>
      <trkpt lat="45.88157" lon="4.69635">
        <ele>317.78461</ele>
        <time>2023-06-04T12:45:46.000Z</time>
      </trkpt>
      <trkpt lat="45.88156" lon="4.69627">
        <ele>317.88278</ele>
        <time>2023-06-04T12:45:47.000Z</time>
      </trkpt>
      <trkpt lat="45.88157" lon="4.69622">
        <ele>317.87366</ele>
        <time>2023-06-04T12:45:48.000Z</time>
      </trkpt>
      <trkpt lat="45.88157" lon="4.69618">
        <ele>317.70038</ele>
        <time>2023-06-04T12:45:49.000Z</time>
      </trkpt>
      <trkpt lat="45.88156" lon="4.69615">
        <ele>317.86102</ele>
        <time>2023-06-04T12:45:50.000Z</time>
      </trkpt>
      <trkpt lat="45.88157" lon="4.69606">
        <ele>318.12872</ele>
        <time>2023-06-04T12:45:51.000Z</time>
      </trkpt>
      <trkpt lat="45.8816" lon="4.69601">
        <ele>318.43591</ele>
        <time>2023-06-04T12:45:52.000Z</time>
      </trkpt>
      <trkpt lat="45.88162" lon="4.69593">
        <ele>318.45828</ele>
        <time>2023-06-04T12:45:53.000Z</time>
      </trkpt>
      <trkpt lat="45.88164" lon="4.69592">
        <ele>318.46063</ele>
        <time>2023-06-04T12:45:54.000Z</time>
      </trkpt>
      <trkpt lat="45.88162" lon="4.69587">
        <ele>318.56195</ele>
        <time>2023-06-04T12:45:55.000Z</time>
      </trkpt>
      <trkpt lat="45.88163" lon="4.69581">
        <ele>318.75436</ele>
        <time>2023-06-04T12:45:56.000Z</time>
      </trkpt>
      <trkpt lat="45.88165" lon="4.69577">
        <ele>318.87949</ele>
        <time>2023-06-04T12:45:57.000Z</time>
      </trkpt>
      <trkpt lat="45.88164" lon="4.69571">
        <ele>318.83185</ele>
        <time>2023-06-04T12:45:58.000Z</time>
      </trkpt>
      <trkpt lat="45.88166" lon="4.69565">
        <ele>318.6936</ele>
        <time>2023-06-04T12:45:59.000Z</time>
      </trkpt>
      <trkpt lat="45.88167" lon="4.69556">
        <ele>318.57181</ele>
        <time>2023-06-04T12:46:00.000Z</time>
      </trkpt>
      <trkpt lat="45.88167" lon="4.69551">
        <ele>318.35492</ele>
        <time>2023-06-04T12:46:01.000Z</time>
      </trkpt>
      <trkpt lat="45.8817" lon="4.69548">
        <ele>318.26517</ele>
        <time>2023-06-04T12:46:02.000Z</time>
      </trkpt>
      <trkpt lat="45.8817" lon="4.69542">
        <ele>318.18301</ele>
        <time>2023-06-04T12:46:03.000Z</time>
      </trkpt>
      <trkpt lat="45.8817" lon="4.69536">
        <ele>318.13583</ele>
        <time>2023-06-04T12:46:04.000Z</time>
      </trkpt>
      <trkpt lat="45.88172" lon="4.6953">
        <ele>318.19693</ele>
        <time>2023-06-04T12:46:05.000Z</time>
      </trkpt>
      <trkpt lat="45.88171" lon="4.69524">
        <ele>318.24243</ele>
        <time>2023-06-04T12:46:06.000Z</time>
      </trkpt>
      <trkpt lat="45.88171" lon="4.69516">
        <ele>318.24039</ele>
        <time>2023-06-04T12:46:07.000Z</time>
      </trkpt>
      <trkpt lat="45.88173" lon="4.69513">
        <ele>318.31421</ele>
        <time>2023-06-04T12:46:08.000Z</time>
      </trkpt>
      <trkpt lat="45.88172" lon="4.6951">
        <ele>318.39117</ele>
        <time>2023-06-04T12:46:09.000Z</time>
      </trkpt>
      <trkpt lat="45.88171" lon="4.69507">
        <ele>318.54065</ele>
        <time>2023-06-04T12:46:10.000Z</time>
      </trkpt>
      <trkpt lat="45.88171" lon="4.69502">
        <ele>318.49237</ele>
        <time>2023-06-04T12:46:11.000Z</time>
      </trkpt>
      <trkpt lat="45.88171" lon="4.69495">
        <ele>318.43573</ele>
        <time>2023-06-04T12:46:12.000Z</time>
      </trkpt>
      <trkpt lat="45.88171" lon="4.69489">
        <ele>318.77432</ele>
        <time>2023-06-04T12:46:13.000Z</time>
      </trkpt>
      <trkpt lat="45.88171" lon="4.69482">
        <ele>319.01459</ele>
        <time>2023-06-04T12:46:14.000Z</time>
      </trkpt>
      <trkpt lat="45.88172" lon="4.69477">
        <ele>319.34943</ele>
        <time>2023-06-04T12:46:15.000Z</time>
      </trkpt>
      <trkpt lat="45.88173" lon="4.69472">
        <ele>319.60986</ele>
        <time>2023-06-04T12:46:16.000Z</time>
      </trkpt>
      <trkpt lat="45.88174" lon="4.69467">
        <ele>320.00845</ele>
        <time>2023-06-04T12:46:17.000Z</time>
      </trkpt>
      <trkpt lat="45.88175" lon="4.69462">
        <ele>320.41476</ele>
        <time>2023-06-04T12:46:18.000Z</time>
      </trkpt>
      <trkpt lat="45.88175" lon="4.69458">
        <ele>320.79333</ele>
        <time>2023-06-04T12:46:19.000Z</time>
      </trkpt>
      <trkpt lat="45.88176" lon="4.69453">
        <ele>321.09711</ele>
        <time>2023-06-04T12:46:20.000Z</time>
      </trkpt>
      <trkpt lat="45.88177" lon="4.69447">
        <ele>321.38275</ele>
        <time>2023-06-04T12:46:21.000Z</time>
      </trkpt>
      <trkpt lat="45.88179" lon="4.69442">
        <ele>321.62759</ele>
        <time>2023-06-04T12:46:22.000Z</time>
      </trkpt>
      <trkpt lat="45.8818" lon="4.69436">
        <ele>321.92719</ele>
        <time>2023-06-04T12:46:23.000Z</time>
      </trkpt>
      <trkpt lat="45.88181" lon="4.6943">
        <ele>322.13614</ele>
        <time>2023-06-04T12:46:24.000Z</time>
      </trkpt>
      <trkpt lat="45.88181" lon="4.69425">
        <ele>322.29926</ele>
        <time>2023-06-04T12:46:25.000Z</time>
      </trkpt>
      <trkpt lat="45.88181" lon="4.69419">
        <ele>322.42944</ele>
        <time>2023-06-04T12:46:26.000Z</time>
      </trkpt>
      <trkpt lat="45.88182" lon="4.69414">
        <ele>322.56616</ele>
        <time>2023-06-04T12:46:27.000Z</time>
      </trkpt>
      <trkpt lat="45.88183" lon="4.69406">
        <ele>322.65552</ele>
        <time>2023-06-04T12:46:28.000Z</time>
      </trkpt>
      <trkpt lat="45.88183" lon="4.69401">
        <ele>322.75137</ele>
        <time>2023-06-04T12:46:29.000Z</time>
      </trkpt>
      <trkpt lat="45.88184" lon="4.69394">
        <ele>322.82266</ele>
        <time>2023-06-04T12:46:30.000Z</time>
      </trkpt>
      <trkpt lat="45.88186" lon="4.69386">
        <ele>322.87479</ele>
        <time>2023-06-04T12:46:31.000Z</time>
      </trkpt>
      <trkpt lat="45.88189" lon="4.69383">
        <ele>322.94586</ele>
        <time>2023-06-04T12:46:32.000Z</time>
      </trkpt>
      <trkpt lat="45.88191" lon="4.69377">
        <ele>322.97583</ele>
        <time>2023-06-04T12:46:33.000Z</time>
      </trkpt>
      <trkpt lat="45.88192" lon="4.69373">
        <ele>323.00702</ele>
        <time>2023-06-04T12:46:34.000Z</time>
      </trkpt>
      <trkpt lat="45.88191" lon="4.69364">
        <ele>322.99112</ele>
        <time>2023-06-04T12:46:35.000Z</time>
      </trkpt>
      <trkpt lat="45.88191" lon="4.69358">
        <ele>323.00653</ele>
        <time>2023-06-04T12:46:36.000Z</time>
      </trkpt>
      <trkpt lat="45.88193" lon="4.69354">
        <ele>322.98749</ele>
        <time>2023-06-04T12:46:37.000Z</time>
      </trkpt>
      <trkpt lat="45.88196" lon="4.69347">
        <ele>322.98892</ele>
        <time>2023-06-04T12:46:38.000Z</time>
      </trkpt>
      <trkpt lat="45.88195" lon="4.69339">
        <ele>323.01514</ele>
        <time>2023-06-04T12:46:39.000Z</time>
      </trkpt>
      <trkpt lat="45.88198" lon="4.69335">
        <ele>323.08691</ele>
        <time>2023-06-04T12:46:40.000Z</time>
      </trkpt>
      <trkpt lat="45.88198" lon="4.6933">
        <ele>323.2215</ele>
        <time>2023-06-04T12:46:41.000Z</time>
      </trkpt>
      <trkpt lat="45.88201" lon="4.69324">
        <ele>323.36322</ele>
        <time>2023-06-04T12:46:42.000Z</time>
      </trkpt>
      <trkpt lat="45.88201" lon="4.69319">
        <ele>323.48102</ele>
        <time>2023-06-04T12:46:43.000Z</time>
      </trkpt>
      <trkpt lat="45.88204" lon="4.69314">
        <ele>323.58655</ele>
        <time>2023-06-04T12:46:44.000Z</time>
      </trkpt>
      <trkpt lat="45.88205" lon="4.69309">
        <ele>323.69492</ele>
        <time>2023-06-04T12:46:45.000Z</time>
      </trkpt>
      <trkpt lat="45.88204" lon="4.69301">
        <ele>323.87909</ele>
        <time>2023-06-04T12:46:46.000Z</time>
      </trkpt>
      <trkpt lat="45.88207" lon="4.69295">
        <ele>324.07172</ele>
        <time>2023-06-04T12:46:47.000Z</time>
      </trkpt>
      <trkpt lat="45.88206" lon="4.69288">
        <ele>324.30157</ele>
        <time>2023-06-04T12:46:48.000Z</time>
      </trkpt>
      <trkpt lat="45.88208" lon="4.69287">
        <ele>324.51065</ele>
        <time>2023-06-04T12:46:49.000Z</time>
      </trkpt>
      <trkpt lat="45.88209" lon="4.69284">
        <ele>324.68607</ele>
        <time>2023-06-04T12:46:50.000Z</time>
      </trkpt>
      <trkpt lat="45.88211" lon="4.69281">
        <ele>324.90649</ele>
        <time>2023-06-04T12:46:51.000Z</time>
      </trkpt>
      <trkpt lat="45.88214" lon="4.69271">
        <ele>325.18817</ele>
        <time>2023-06-04T12:46:52.000Z</time>
      </trkpt>
      <trkpt lat="45.88217" lon="4.6927">
        <ele>325.52777</ele>
        <time>2023-06-04T12:46:53.000Z</time>
      </trkpt>
      <trkpt lat="45.88218" lon="4.69261">
        <ele>325.90118</ele>
        <time>2023-06-04T12:46:54.000Z</time>
      </trkpt>
      <trkpt lat="45.88222" lon="4.69259">
        <ele>326.20004</ele>
        <time>2023-06-04T12:46:55.000Z</time>
      </trkpt>
      <trkpt lat="45.88225" lon="4.69256">
        <ele>326.5351</ele>
        <time>2023-06-04T12:46:56.000Z</time>
      </trkpt>
      <trkpt lat="45.8823" lon="4.69254">
        <ele>326.86462</ele>
        <time>2023-06-04T12:46:57.000Z</time>
      </trkpt>
      <trkpt lat="45.88233" lon="4.69248">
        <ele>327.20428</ele>
        <time>2023-06-04T12:46:58.000Z</time>
      </trkpt>
      <trkpt lat="45.88235" lon="4.69246">
        <ele>327.52328</ele>
        <time>2023-06-04T12:46:59.000Z</time>
      </trkpt>
      <trkpt lat="45.88237" lon="4.69243">
        <ele>327.91171</ele>
        <time>2023-06-04T12:47:00.000Z</time>
      </trkpt>
      <trkpt lat="45.88239" lon="4.6924">
        <ele>328.2247</ele>
        <time>2023-06-04T12:47:01.000Z</time>
      </trkpt>
      <trkpt lat="45.88241" lon="4.69238">
        <ele>328.56934</ele>
        <time>2023-06-04T12:47:02.000Z</time>
      </trkpt>
      <trkpt lat="45.88242" lon="4.69232">
        <ele>328.86469</ele>
        <time>2023-06-04T12:47:03.000Z</time>
      </trkpt>
      <trkpt lat="45.88247" lon="4.69229">
        <ele>329.18304</ele>
        <time>2023-06-04T12:47:04.000Z</time>
      </trkpt>
      <trkpt lat="45.88251" lon="4.69222">
        <ele>329.50183</ele>
        <time>2023-06-04T12:47:05.000Z</time>
      </trkpt>
      <trkpt lat="45.88252" lon="4.69217">
        <ele>329.78107</ele>
        <time>2023-06-04T12:47:06.000Z</time>
      </trkpt>
      <trkpt lat="45.88254" lon="4.69214">
        <ele>330.05945</ele>
        <time>2023-06-04T12:47:07.000Z</time>
      </trkpt>
      <trkpt lat="45.88255" lon="4.6921">
        <ele>330.39313</ele>
        <time>2023-06-04T12:47:08.000Z</time>
      </trkpt>
      <trkpt lat="45.88256" lon="4.69206">
        <ele>330.72626</ele>
        <time>2023-06-04T12:47:09.000Z</time>
      </trkpt>
      <trkpt lat="45.88259" lon="4.69201">
        <ele>331.13174</ele>
        <time>2023-06-04T12:47:10.000Z</time>
      </trkpt>
      <trkpt lat="45.8826" lon="4.69195">
        <ele>331.50409</ele>
        <time>2023-06-04T12:47:11.000Z</time>
      </trkpt>
      <trkpt lat="45.88262" lon="4.69189">
        <ele>331.80109</ele>
        <time>2023-06-04T12:47:12.000Z</time>
      </trkpt>
      <trkpt lat="45.88265" lon="4.69185">
        <ele>332.04025</ele>
        <time>2023-06-04T12:47:13.000Z</time>
      </trkpt>
      <trkpt lat="45.88269" lon="4.69181">
        <ele>332.26596</ele>
        <time>2023-06-04T12:47:14.000Z</time>
      </trkpt>
      <trkpt lat="45.8827" lon="4.69179">
        <ele>332.49643</ele>
        <time>2023-06-04T12:47:15.000Z</time>
      </trkpt>
      <trkpt lat="45.88273" lon="4.69174">
        <ele>332.67456</ele>
        <time>2023-06-04T12:47:16.000Z</time>
      </trkpt>
      <trkpt lat="45.88276" lon="4.6917">
        <ele>332.85345</ele>
        <time>2023-06-04T12:47:17.000Z</time>
      </trkpt>
      <trkpt lat="45.88279" lon="4.69165">
        <ele>333.01764</ele>
        <time>2023-06-04T12:47:18.000Z</time>
      </trkpt>
      <trkpt lat="45.88281" lon="4.69161">
        <ele>333.21359</ele>
        <time>2023-06-04T12:47:19.000Z</time>
      </trkpt>
      <trkpt lat="45.88283" lon="4.69157">
        <ele>333.36258</ele>
        <time>2023-06-04T12:47:20.000Z</time>
      </trkpt>
      <trkpt lat="45.88285" lon="4.69152">
        <ele>333.53986</ele>
        <time>2023-06-04T12:47:21.000Z</time>
      </trkpt>
      <trkpt lat="45.88287" lon="4.69147">
        <ele>333.6358</ele>
        <time>2023-06-04T12:47:22.000Z</time>
      </trkpt>
      <trkpt lat="45.88288" lon="4.69141">
        <ele>333.79648</ele>
        <time>2023-06-04T12:47:23.000Z</time>
      </trkpt>
      <trkpt lat="45.8829" lon="4.69136">
        <ele>333.97748</ele>
        <time>2023-06-04T12:47:24.000Z</time>
      </trkpt>
      <trkpt lat="45.88291" lon="4.6913">
        <ele>334.17371</ele>
        <time>2023-06-04T12:47:25.000Z</time>
      </trkpt>
      <trkpt lat="45.88293" lon="4.69124">
        <ele>334.38483</ele>
        <time>2023-06-04T12:47:26.000Z</time>
      </trkpt>
      <trkpt lat="45.88294" lon="4.69119">
        <ele>334.55374</ele>
        <time>2023-06-04T12:47:27.000Z</time>
      </trkpt>
      <trkpt lat="45.88296" lon="4.69115">
        <ele>334.64828</ele>
        <time>2023-06-04T12:47:28.000Z</time>
      </trkpt>
      <trkpt lat="45.88298" lon="4.69111">
        <ele>334.76416</ele>
        <time>2023-06-04T12:47:29.000Z</time>
      </trkpt>
      <trkpt lat="45.88301" lon="4.69104">
        <ele>334.84235</ele>
        <time>2023-06-04T12:47:30.000Z</time>
      </trkpt>
      <trkpt lat="45.88303" lon="4.69098">
        <ele>334.95612</ele>
        <time>2023-06-04T12:47:31.000Z</time>
      </trkpt>
      <trkpt lat="45.88304" lon="4.69091">
        <ele>335.04697</ele>
        <time>2023-06-04T12:47:32.000Z</time>
      </trkpt>
      <trkpt lat="45.88307" lon="4.69084">
        <ele>335.14032</ele>
        <time>2023-06-04T12:47:33.000Z</time>
      </trkpt>
      <trkpt lat="45.88309" lon="4.69078">
        <ele>335.22418</ele>
        <time>2023-06-04T12:47:34.000Z</time>
      </trkpt>
      <trkpt lat="45.88309" lon="4.69074">
        <ele>335.31635</ele>
        <time>2023-06-04T12:47:35.000Z</time>
      </trkpt>
      <trkpt lat="45.88311" lon="4.69069">
        <ele>335.46136</ele>
        <time>2023-06-04T12:47:36.000Z</time>
      </trkpt>
      <trkpt lat="45.88313" lon="4.69062">
        <ele>335.59619</ele>
        <time>2023-06-04T12:47:37.000Z</time>
      </trkpt>
      <trkpt lat="45.88314" lon="4.69057">
        <ele>335.69858</ele>
        <time>2023-06-04T12:47:38.000Z</time>
      </trkpt>
      <trkpt lat="45.88317" lon="4.69048">
        <ele>335.7876</ele>
        <time>2023-06-04T12:47:39.000Z</time>
      </trkpt>
      <trkpt lat="45.88319" lon="4.69044">
        <ele>335.86743</ele>
        <time>2023-06-04T12:47:40.000Z</time>
      </trkpt>
      <trkpt lat="45.8832" lon="4.69037">
        <ele>335.96777</ele>
        <time>2023-06-04T12:47:41.000Z</time>
      </trkpt>
      <trkpt lat="45.88321" lon="4.69031">
        <ele>336.08829</ele>
        <time>2023-06-04T12:47:42.000Z</time>
      </trkpt>
      <trkpt lat="45.88323" lon="4.69026">
        <ele>336.16858</ele>
        <time>2023-06-04T12:47:43.000Z</time>
      </trkpt>
      <trkpt lat="45.88324" lon="4.6902">
        <ele>336.2428</ele>
        <time>2023-06-04T12:47:44.000Z</time>
      </trkpt>
      <trkpt lat="45.88327" lon="4.69014">
        <ele>336.32092</ele>
        <time>2023-06-04T12:47:45.000Z</time>
      </trkpt>
      <trkpt lat="45.88329" lon="4.69008">
        <ele>336.3942</ele>
        <time>2023-06-04T12:47:46.000Z</time>
      </trkpt>
      <trkpt lat="45.88331" lon="4.69001">
        <ele>336.46454</ele>
        <time>2023-06-04T12:47:47.000Z</time>
      </trkpt>
      <trkpt lat="45.88333" lon="4.68996">
        <ele>336.56409</ele>
        <time>2023-06-04T12:47:48.000Z</time>
      </trkpt>
      <trkpt lat="45.88334" lon="4.6899">
        <ele>336.69888</ele>
        <time>2023-06-04T12:47:49.000Z</time>
      </trkpt>
      <trkpt lat="45.88335" lon="4.68984">
        <ele>336.81406</ele>
        <time>2023-06-04T12:47:50.000Z</time>
      </trkpt>
      <trkpt lat="45.88336" lon="4.68978">
        <ele>336.92972</ele>
        <time>2023-06-04T12:47:51.000Z</time>
      </trkpt>
      <trkpt lat="45.88339" lon="4.68975">
        <ele>337.08032</ele>
        <time>2023-06-04T12:47:52.000Z</time>
      </trkpt>
      <trkpt lat="45.88339" lon="4.68972">
        <ele>337.2327</ele>
        <time>2023-06-04T12:47:53.000Z</time>
      </trkpt>
      <trkpt lat="45.88338" lon="4.6897">
        <ele>337.41068</ele>
        <time>2023-06-04T12:47:54.000Z</time>
      </trkpt>
      <trkpt lat="45.88339" lon="4.68958">
        <ele>337.55704</ele>
        <time>2023-06-04T12:47:55.000Z</time>
      </trkpt>
      <trkpt lat="45.88339" lon="4.68952">
        <ele>337.69171</ele>
        <time>2023-06-04T12:47:56.000Z</time>
      </trkpt>
      <trkpt lat="45.88341" lon="4.68945">
        <ele>337.83331</ele>
        <time>2023-06-04T12:47:57.000Z</time>
      </trkpt>
      <trkpt lat="45.8834" lon="4.68941">
        <ele>338.00064</ele>
        <time>2023-06-04T12:47:58.000Z</time>
      </trkpt>
      <trkpt lat="45.88339" lon="4.68937">
        <ele>338.13428</ele>
        <time>2023-06-04T12:47:59.000Z</time>
      </trkpt>
      <trkpt lat="45.88339" lon="4.68929">
        <ele>338.2915</ele>
        <time>2023-06-04T12:48:01.000Z</time>
      </trkpt>
      <trkpt lat="45.8834" lon="4.68923">
        <ele>338.40875</ele>
        <time>2023-06-04T12:48:02.000Z</time>
      </trkpt>
      <trkpt lat="45.8834" lon="4.68918">
        <ele>338.55072</ele>
        <time>2023-06-04T12:48:03.000Z</time>
      </trkpt>
      <trkpt lat="45.88341" lon="4.68912">
        <ele>338.70587</ele>
        <time>2023-06-04T12:48:04.000Z</time>
      </trkpt>
      <trkpt lat="45.8834" lon="4.68906">
        <ele>338.89484</ele>
        <time>2023-06-04T12:48:05.000Z</time>
      </trkpt>
      <trkpt lat="45.88342" lon="4.68897">
        <ele>339.06772</ele>
        <time>2023-06-04T12:48:06.000Z</time>
      </trkpt>
      <trkpt lat="45.88343" lon="4.68893">
        <ele>339.24677</ele>
        <time>2023-06-04T12:48:07.000Z</time>
      </trkpt>
      <trkpt lat="45.88346" lon="4.68886">
        <ele>339.39792</ele>
        <time>2023-06-04T12:48:08.000Z</time>
      </trkpt>
      <trkpt lat="45.88345" lon="4.68882">
        <ele>339.51138</ele>
        <time>2023-06-04T12:48:09.000Z</time>
      </trkpt>
      <trkpt lat="45.88345" lon="4.68874">
        <ele>339.62845</ele>
        <time>2023-06-04T12:48:10.000Z</time>
      </trkpt>
      <trkpt lat="45.88346" lon="4.68869">
        <ele>339.75858</ele>
        <time>2023-06-04T12:48:11.000Z</time>
      </trkpt>
      <trkpt lat="45.88348" lon="4.68865">
        <ele>339.91745</ele>
        <time>2023-06-04T12:48:12.000Z</time>
      </trkpt>
      <trkpt lat="45.8835" lon="4.68859">
        <ele>340.07706</ele>
        <time>2023-06-04T12:48:13.000Z</time>
      </trkpt>
      <trkpt lat="45.8835" lon="4.68851">
        <ele>340.27258</ele>
        <time>2023-06-04T12:48:14.000Z</time>
      </trkpt>
      <trkpt lat="45.88351" lon="4.68845">
        <ele>340.45038</ele>
        <time>2023-06-04T12:48:15.000Z</time>
      </trkpt>
      <trkpt lat="45.8835" lon="4.68842">
        <ele>340.64703</ele>
        <time>2023-06-04T12:48:16.000Z</time>
      </trkpt>
      <trkpt lat="45.88351" lon="4.68837">
        <ele>340.8316</ele>
        <time>2023-06-04T12:48:17.000Z</time>
      </trkpt>
      <trkpt lat="45.88353" lon="4.68836">
        <ele>341.00525</ele>
        <time>2023-06-04T12:48:19.000Z</time>
      </trkpt>
      <trkpt lat="45.88356" lon="4.68835">
        <ele>341.18427</ele>
        <time>2023-06-04T12:48:20.000Z</time>
      </trkpt>
      <trkpt lat="45.88358" lon="4.68835">
        <ele>341.37024</ele>
        <time>2023-06-04T12:48:21.000Z</time>
      </trkpt>
      <trkpt lat="45.88361" lon="4.68834">
        <ele>341.50696</ele>
        <time>2023-06-04T12:48:22.000Z</time>
      </trkpt>
      <trkpt lat="45.88364" lon="4.68831">
        <ele>341.6806</ele>
        <time>2023-06-04T12:48:23.000Z</time>
      </trkpt>
      <trkpt lat="45.88367" lon="4.68831">
        <ele>341.82819</ele>
        <time>2023-06-04T12:48:24.000Z</time>
      </trkpt>
      <trkpt lat="45.88372" lon="4.68829">
        <ele>341.98926</ele>
        <time>2023-06-04T12:48:25.000Z</time>
      </trkpt>
      <trkpt lat="45.88376" lon="4.68828">
        <ele>342.20224</ele>
        <time>2023-06-04T12:48:26.000Z</time>
      </trkpt>
      <trkpt lat="45.8838" lon="4.68826">
        <ele>342.45889</ele>
        <time>2023-06-04T12:48:27.000Z</time>
      </trkpt>
      <trkpt lat="45.88383" lon="4.68825">
        <ele>342.72409</ele>
        <time>2023-06-04T12:48:28.000Z</time>
      </trkpt>
      <trkpt lat="45.88387" lon="4.68823">
        <ele>343.03229</ele>
        <time>2023-06-04T12:48:29.000Z</time>
      </trkpt>
      <trkpt lat="45.8839" lon="4.6882">
        <ele>343.3555</ele>
        <time>2023-06-04T12:48:30.000Z</time>
      </trkpt>
      <trkpt lat="45.88392" lon="4.68817">
        <ele>343.65527</ele>
        <time>2023-06-04T12:48:31.000Z</time>
      </trkpt>
      <trkpt lat="45.88394" lon="4.68813">
        <ele>343.95444</ele>
        <time>2023-06-04T12:48:32.000Z</time>
      </trkpt>
      <trkpt lat="45.88396" lon="4.68809">
        <ele>344.21997</ele>
        <time>2023-06-04T12:48:33.000Z</time>
      </trkpt>
      <trkpt lat="45.88398" lon="4.68805">
        <ele>344.53915</ele>
        <time>2023-06-04T12:48:34.000Z</time>
      </trkpt>
      <trkpt lat="45.884" lon="4.68801">
        <ele>344.80347</ele>
        <time>2023-06-04T12:48:35.000Z</time>
      </trkpt>
      <trkpt lat="45.88402" lon="4.68797">
        <ele>345.08865</ele>
        <time>2023-06-04T12:48:36.000Z</time>
      </trkpt>
      <trkpt lat="45.88405" lon="4.68794">
        <ele>345.44678</ele>
        <time>2023-06-04T12:48:37.000Z</time>
      </trkpt>
      <trkpt lat="45.88408" lon="4.68791">
        <ele>345.79202</ele>
        <time>2023-06-04T12:48:38.000Z</time>
      </trkpt>
      <trkpt lat="45.88411" lon="4.68788">
        <ele>346.1467</ele>
        <time>2023-06-04T12:48:39.000Z</time>
      </trkpt>
      <trkpt lat="45.88414" lon="4.68785">
        <ele>346.49033</ele>
        <time>2023-06-04T12:48:40.000Z</time>
      </trkpt>
      <trkpt lat="45.88416" lon="4.68781">
        <ele>346.84067</ele>
        <time>2023-06-04T12:48:41.000Z</time>
      </trkpt>
      <trkpt lat="45.8842" lon="4.68777">
        <ele>347.11786</ele>
        <time>2023-06-04T12:48:42.000Z</time>
      </trkpt>
      <trkpt lat="45.88423" lon="4.68774">
        <ele>347.3725</ele>
        <time>2023-06-04T12:48:43.000Z</time>
      </trkpt>
      <trkpt lat="45.88425" lon="4.68772">
        <ele>347.6478</ele>
        <time>2023-06-04T12:48:44.000Z</time>
      </trkpt>
      <trkpt lat="45.88427" lon="4.6877">
        <ele>347.94055</ele>
        <time>2023-06-04T12:48:45.000Z</time>
      </trkpt>
      <trkpt lat="45.88429" lon="4.68768">
        <ele>348.15921</ele>
        <time>2023-06-04T12:48:46.000Z</time>
      </trkpt>
      <trkpt lat="45.88432" lon="4.68766">
        <ele>348.33316</ele>
        <time>2023-06-04T12:48:47.000Z</time>
      </trkpt>
      <trkpt lat="45.88434" lon="4.68765">
        <ele>348.46918</ele>
        <time>2023-06-04T12:48:48.000Z</time>
      </trkpt>
      <trkpt lat="45.88438" lon="4.68764">
        <ele>348.59857</ele>
        <time>2023-06-04T12:48:49.000Z</time>
      </trkpt>
      <trkpt lat="45.88442" lon="4.68763">
        <ele>348.7316</ele>
        <time>2023-06-04T12:48:50.000Z</time>
      </trkpt>
      <trkpt lat="45.88449" lon="4.6876">
        <ele>348.88361</ele>
        <time>2023-06-04T12:48:51.000Z</time>
      </trkpt>
      <trkpt lat="45.8845" lon="4.68757">
        <ele>349.01862</ele>
        <time>2023-06-04T12:48:52.000Z</time>
      </trkpt>
      <trkpt lat="45.88454" lon="4.68752">
        <ele>349.17538</ele>
        <time>2023-06-04T12:48:53.000Z</time>
      </trkpt>
      <trkpt lat="45.88453" lon="4.68748">
        <ele>349.25864</ele>
        <time>2023-06-04T12:48:54.000Z</time>
      </trkpt>
      <trkpt lat="45.88454" lon="4.68744">
        <ele>349.37222</ele>
        <time>2023-06-04T12:48:55.000Z</time>
      </trkpt>
      <trkpt lat="45.88453" lon="4.6874">
        <ele>349.45117</ele>
        <time>2023-06-04T12:48:56.000Z</time>
      </trkpt>
      <trkpt lat="45.88454" lon="4.68737">
        <ele>349.50229</ele>
        <time>2023-06-04T12:48:57.000Z</time>
      </trkpt>
      <trkpt lat="45.88456" lon="4.68731">
        <ele>349.56003</ele>
        <time>2023-06-04T12:48:59.000Z</time>
      </trkpt>
      <trkpt lat="45.8846" lon="4.68724">
        <ele>349.61359</ele>
        <time>2023-06-04T12:49:00.000Z</time>
      </trkpt>
      <trkpt lat="45.88461" lon="4.68721">
        <ele>349.70749</ele>
        <time>2023-06-04T12:49:01.000Z</time>
      </trkpt>
      <trkpt lat="45.88463" lon="4.68716">
        <ele>349.77521</ele>
        <time>2023-06-04T12:49:02.000Z</time>
      </trkpt>
      <trkpt lat="45.88465" lon="4.68713">
        <ele>349.89325</ele>
        <time>2023-06-04T12:49:03.000Z</time>
      </trkpt>
      <trkpt lat="45.8847" lon="4.68708">
        <ele>350.02094</ele>
        <time>2023-06-04T12:49:04.000Z</time>
      </trkpt>
      <trkpt lat="45.8847" lon="4.68704">
        <ele>350.14597</ele>
        <time>2023-06-04T12:49:05.000Z</time>
      </trkpt>
      <trkpt lat="45.88474" lon="4.68703">
        <ele>350.21008</ele>
        <time>2023-06-04T12:49:06.000Z</time>
      </trkpt>
      <trkpt lat="45.88474" lon="4.68699">
        <ele>350.26215</ele>
        <time>2023-06-04T12:49:07.000Z</time>
      </trkpt>
      <trkpt lat="45.88478" lon="4.68697">
        <ele>350.293</ele>
        <time>2023-06-04T12:49:08.000Z</time>
      </trkpt>
      <trkpt lat="45.88481" lon="4.68692">
        <ele>350.32242</ele>
        <time>2023-06-04T12:49:09.000Z</time>
      </trkpt>
      <trkpt lat="45.88483" lon="4.68689">
        <ele>350.3775</ele>
        <time>2023-06-04T12:49:10.000Z</time>
      </trkpt>
      <trkpt lat="45.88486" lon="4.68684">
        <ele>350.43597</ele>
        <time>2023-06-04T12:49:11.000Z</time>
      </trkpt>
      <trkpt lat="45.88487" lon="4.68678">
        <ele>350.47827</ele>
        <time>2023-06-04T12:49:12.000Z</time>
      </trkpt>
      <trkpt lat="45.8849" lon="4.68673">
        <ele>350.52936</ele>
        <time>2023-06-04T12:49:13.000Z</time>
      </trkpt>
      <trkpt lat="45.88491" lon="4.68668">
        <ele>350.56036</ele>
        <time>2023-06-04T12:49:14.000Z</time>
      </trkpt>
      <trkpt lat="45.88491" lon="4.68663">
        <ele>350.60278</ele>
        <time>2023-06-04T12:49:15.000Z</time>
      </trkpt>
      <trkpt lat="45.88491" lon="4.68658">
        <ele>350.65927</ele>
        <time>2023-06-04T12:49:16.000Z</time>
      </trkpt>
      <trkpt lat="45.88491" lon="4.68654">
        <ele>350.73132</ele>
        <time>2023-06-04T12:49:17.000Z</time>
      </trkpt>
      <trkpt lat="45.8849" lon="4.68648">
        <ele>350.82767</ele>
        <time>2023-06-04T12:49:18.000Z</time>
      </trkpt>
      <trkpt lat="45.8849" lon="4.68643">
        <ele>350.98389</ele>
        <time>2023-06-04T12:49:19.000Z</time>
      </trkpt>
      <trkpt lat="45.8849" lon="4.68639">
        <ele>351.13623</ele>
        <time>2023-06-04T12:49:20.000Z</time>
      </trkpt>
      <trkpt lat="45.8849" lon="4.68635">
        <ele>351.25174</ele>
        <time>2023-06-04T12:49:21.000Z</time>
      </trkpt>
      <trkpt lat="45.8849" lon="4.68629">
        <ele>351.34137</ele>
        <time>2023-06-04T12:49:22.000Z</time>
      </trkpt>
      <trkpt lat="45.8849" lon="4.68624">
        <ele>351.56525</ele>
        <time>2023-06-04T12:49:23.000Z</time>
      </trkpt>
      <trkpt lat="45.8849" lon="4.68618">
        <ele>351.76248</ele>
        <time>2023-06-04T12:49:24.000Z</time>
      </trkpt>
      <trkpt lat="45.8849" lon="4.68614">
        <ele>351.98788</ele>
        <time>2023-06-04T12:49:25.000Z</time>
      </trkpt>
      <trkpt lat="45.8849" lon="4.68609">
        <ele>352.19989</ele>
        <time>2023-06-04T12:49:26.000Z</time>
      </trkpt>
      <trkpt lat="45.8849" lon="4.68604">
        <ele>352.44312</ele>
        <time>2023-06-04T12:49:27.000Z</time>
      </trkpt>
      <trkpt lat="45.88491" lon="4.68599">
        <ele>352.65009</ele>
        <time>2023-06-04T12:49:28.000Z</time>
      </trkpt>
      <trkpt lat="45.88491" lon="4.68594">
        <ele>352.87531</ele>
        <time>2023-06-04T12:49:29.000Z</time>
      </trkpt>
      <trkpt lat="45.8849" lon="4.6859">
        <ele>353.07001</ele>
        <time>2023-06-04T12:49:30.000Z</time>
      </trkpt>
      <trkpt lat="45.8849" lon="4.68585">
        <ele>353.26651</ele>
        <time>2023-06-04T12:49:31.000Z</time>
      </trkpt>
      <trkpt lat="45.88492" lon="4.68579">
        <ele>353.47833</ele>
        <time>2023-06-04T12:49:32.000Z</time>
      </trkpt>
      <trkpt lat="45.88494" lon="4.68574">
        <ele>354.03543</ele>
        <time>2023-06-04T12:49:33.000Z</time>
      </trkpt>
      <trkpt lat="45.88496" lon="4.68569">
        <ele>354.60895</ele>
        <time>2023-06-04T12:49:34.000Z</time>
      </trkpt>
      <trkpt lat="45.88498" lon="4.68565">
        <ele>355.19574</ele>
        <time>2023-06-04T12:49:35.000Z</time>
      </trkpt>
      <trkpt lat="45.885" lon="4.68561">
        <ele>355.50513</ele>
        <time>2023-06-04T12:49:36.000Z</time>
      </trkpt>
      <trkpt lat="45.88502" lon="4.68558">
        <ele>355.82187</ele>
        <time>2023-06-04T12:49:37.000Z</time>
      </trkpt>
      <trkpt lat="45.88504" lon="4.68555">
        <ele>356.1167</ele>
        <time>2023-06-04T12:49:38.000Z</time>
      </trkpt>
      <trkpt lat="45.88506" lon="4.68551">
        <ele>356.34119</ele>
        <time>2023-06-04T12:49:40.000Z</time>
      </trkpt>
      <trkpt lat="45.88508" lon="4.68547">
        <ele>356.61581</ele>
        <time>2023-06-04T12:49:41.000Z</time>
      </trkpt>
      <trkpt lat="45.88509" lon="4.68543">
        <ele>356.90088</ele>
        <time>2023-06-04T12:49:42.000Z</time>
      </trkpt>
      <trkpt lat="45.88511" lon="4.68539">
        <ele>357.26712</ele>
        <time>2023-06-04T12:49:43.000Z</time>
      </trkpt>
      <trkpt lat="45.88514" lon="4.68535">
        <ele>357.85553</ele>
        <time>2023-06-04T12:49:44.000Z</time>
      </trkpt>
      <trkpt lat="45.88516" lon="4.68531">
        <ele>358.4505</ele>
        <time>2023-06-04T12:49:45.000Z</time>
      </trkpt>
      <trkpt lat="45.8852" lon="4.68528">
        <ele>358.99759</ele>
        <time>2023-06-04T12:49:46.000Z</time>
      </trkpt>
      <trkpt lat="45.88523" lon="4.68524">
        <ele>359.58566</ele>
        <time>2023-06-04T12:49:47.000Z</time>
      </trkpt>
      <trkpt lat="45.88525" lon="4.68521">
        <ele>360.16367</ele>
        <time>2023-06-04T12:49:48.000Z</time>
      </trkpt>
      <trkpt lat="45.88527" lon="4.68517">
        <ele>360.83124</ele>
        <time>2023-06-04T12:49:49.000Z</time>
      </trkpt>
      <trkpt lat="45.88528" lon="4.68513">
        <ele>361.49622</ele>
        <time>2023-06-04T12:49:50.000Z</time>
      </trkpt>
      <trkpt lat="45.8853" lon="4.68508">
        <ele>362.18002</ele>
        <time>2023-06-04T12:49:51.000Z</time>
      </trkpt>
      <trkpt lat="45.88532" lon="4.68504">
        <ele>362.83481</ele>
        <time>2023-06-04T12:49:52.000Z</time>
      </trkpt>
      <trkpt lat="45.88533" lon="4.685">
        <ele>363.48196</ele>
        <time>2023-06-04T12:49:53.000Z</time>
      </trkpt>
      <trkpt lat="45.88534" lon="4.68495">
        <ele>363.78632</ele>
        <time>2023-06-04T12:49:54.000Z</time>
      </trkpt>
      <trkpt lat="45.88535" lon="4.68489">
        <ele>364.0762</ele>
        <time>2023-06-04T12:49:55.000Z</time>
      </trkpt>
      <trkpt lat="45.88536" lon="4.68484">
        <ele>364.28583</ele>
        <time>2023-06-04T12:49:56.000Z</time>
      </trkpt>
      <trkpt lat="45.88537" lon="4.68479">
        <ele>364.71695</ele>
        <time>2023-06-04T12:49:57.000Z</time>
      </trkpt>
      <trkpt lat="45.88539" lon="4.68475">
        <ele>365.28073</ele>
        <time>2023-06-04T12:49:58.000Z</time>
      </trkpt>
      <trkpt lat="45.88539" lon="4.68471">
        <ele>365.83615</ele>
        <time>2023-06-04T12:49:59.000Z</time>
      </trkpt>
      <trkpt lat="45.8854" lon="4.68467">
        <ele>366.38583</ele>
        <time>2023-06-04T12:50:00.000Z</time>
      </trkpt>
      <trkpt lat="45.88539" lon="4.68464">
        <ele>366.89886</ele>
        <time>2023-06-04T12:50:01.000Z</time>
      </trkpt>
      <trkpt lat="45.88538" lon="4.68458">
        <ele>367.42392</ele>
        <time>2023-06-04T12:50:03.000Z</time>
      </trkpt>
      <trkpt lat="45.88539" lon="4.68454">
        <ele>367.88565</ele>
        <time>2023-06-04T12:50:04.000Z</time>
      </trkpt>
      <trkpt lat="45.88539" lon="4.68451">
        <ele>368.05121</ele>
        <time>2023-06-04T12:50:05.000Z</time>
      </trkpt>
      <trkpt lat="45.88541" lon="4.68449">
        <ele>368.27396</ele>
        <time>2023-06-04T12:50:06.000Z</time>
      </trkpt>
      <trkpt lat="45.88543" lon="4.68446">
        <ele>368.4328</ele>
        <time>2023-06-04T12:50:07.000Z</time>
      </trkpt>
      <trkpt lat="45.88545" lon="4.68444">
        <ele>368.61572</ele>
        <time>2023-06-04T12:50:08.000Z</time>
      </trkpt>
      <trkpt lat="45.88547" lon="4.68442">
        <ele>368.75412</ele>
        <time>2023-06-04T12:50:09.000Z</time>
      </trkpt>
      <trkpt lat="45.88549" lon="4.68441">
        <ele>368.88611</ele>
        <time>2023-06-04T12:50:10.000Z</time>
      </trkpt>
      <trkpt lat="45.88551" lon="4.68442">
        <ele>368.94577</ele>
        <time>2023-06-04T12:50:14.000Z</time>
      </trkpt>
      <trkpt lat="45.88552" lon="4.6844">
        <ele>369.44745</ele>
        <time>2023-06-04T12:50:33.000Z</time>
      </trkpt>
      <trkpt lat="45.88551" lon="4.68439">
        <ele>370.25104</ele>
        <time>2023-06-04T12:50:38.000Z</time>
      </trkpt>
      <trkpt lat="45.88549" lon="4.6844">
        <ele>371.27509</ele>
        <time>2023-06-04T12:50:45.000Z</time>
      </trkpt>
      <trkpt lat="45.88548" lon="4.68442">
        <ele>372.07755</ele>
        <time>2023-06-04T12:50:57.000Z</time>
      </trkpt>
      <trkpt lat="45.88549" lon="4.68445">
        <ele>372.44391</ele>
        <time>2023-06-04T12:51:03.000Z</time>
      </trkpt>
      <trkpt lat="45.88551" lon="4.68446">
        <ele>370.32062</ele>
        <time>2023-06-04T12:51:24.000Z</time>
      </trkpt>
      <trkpt lat="45.88553" lon="4.68446">
        <ele>370.52859</ele>
        <time>2023-06-04T12:51:29.000Z</time>
      </trkpt>
      <trkpt lat="45.88551" lon="4.68444">
        <ele>371.5163</ele>
        <time>2023-06-04T12:51:32.000Z</time>
      </trkpt>
      <trkpt lat="45.88552" lon="4.68441">
        <ele>371.6214</ele>
        <time>2023-06-04T12:51:34.000Z</time>
      </trkpt>
      <trkpt lat="45.88553" lon="4.68438">
        <ele>371.74811</ele>
        <time>2023-06-04T12:51:36.000Z</time>
      </trkpt>
      <trkpt lat="45.88557" lon="4.68436">
        <ele>368.80875</ele>
        <time>2023-06-04T12:51:38.000Z</time>
      </trkpt>
      <trkpt lat="45.88559" lon="4.68434">
        <ele>368.75723</ele>
        <time>2023-06-04T12:51:39.000Z</time>
      </trkpt>
      <trkpt lat="45.88561" lon="4.68432">
        <ele>368.73077</ele>
        <time>2023-06-04T12:51:40.000Z</time>
      </trkpt>
      <trkpt lat="45.88563" lon="4.6843">
        <ele>368.68137</ele>
        <time>2023-06-04T12:51:41.000Z</time>
      </trkpt>
      <trkpt lat="45.88566" lon="4.68427">
        <ele>367.58789</ele>
        <time>2023-06-04T12:51:42.000Z</time>
      </trkpt>
      <trkpt lat="45.88568" lon="4.68424">
        <ele>367.40741</ele>
        <time>2023-06-04T12:51:43.000Z</time>
      </trkpt>
      <trkpt lat="45.88571" lon="4.68422">
        <ele>367.22003</ele>
        <time>2023-06-04T12:51:44.000Z</time>
      </trkpt>
      <trkpt lat="45.88572" lon="4.6842">
        <ele>366.98834</ele>
        <time>2023-06-04T12:51:45.000Z</time>
      </trkpt>
      <trkpt lat="45.88575" lon="4.68418">
        <ele>366.69894</ele>
        <time>2023-06-04T12:51:46.000Z</time>
      </trkpt>
      <trkpt lat="45.88577" lon="4.68416">
        <ele>366.41245</ele>
        <time>2023-06-04T12:51:47.000Z</time>
      </trkpt>
      <trkpt lat="45.88578" lon="4.68414">
        <ele>365.66315</ele>
        <time>2023-06-04T12:51:48.000Z</time>
      </trkpt>
      <trkpt lat="45.8858" lon="4.68413">
        <ele>364.59317</ele>
        <time>2023-06-04T12:51:49.000Z</time>
      </trkpt>
      <trkpt lat="45.88582" lon="4.6841">
        <ele>363.31393</ele>
        <time>2023-06-04T12:51:50.000Z</time>
      </trkpt>
      <trkpt lat="45.88586" lon="4.68406">
        <ele>362.28745</ele>
        <time>2023-06-04T12:51:51.000Z</time>
      </trkpt>
      <trkpt lat="45.88591" lon="4.68403">
        <ele>361.59528</ele>
        <time>2023-06-04T12:51:52.000Z</time>
      </trkpt>
      <trkpt lat="45.88594" lon="4.68401">
        <ele>363.36777</ele>
        <time>2023-06-04T12:51:53.000Z</time>
      </trkpt>
      <trkpt lat="45.88597" lon="4.68398">
        <ele>362.83212</ele>
        <time>2023-06-04T12:51:54.000Z</time>
      </trkpt>
      <trkpt lat="45.88602" lon="4.68396">
        <ele>361.30936</ele>
        <time>2023-06-04T12:51:55.000Z</time>
      </trkpt>
      <trkpt lat="45.88604" lon="4.68393">
        <ele>360.5871</ele>
        <time>2023-06-04T12:51:56.000Z</time>
      </trkpt>
      <trkpt lat="45.88607" lon="4.68389">
        <ele>360.1712</ele>
        <time>2023-06-04T12:51:58.000Z</time>
      </trkpt>
      <trkpt lat="45.88609" lon="4.68387">
        <ele>363.03732</ele>
        <time>2023-06-04T12:51:59.000Z</time>
      </trkpt>
      <trkpt lat="45.88611" lon="4.68385">
        <ele>362.74875</ele>
        <time>2023-06-04T12:52:00.000Z</time>
      </trkpt>
      <trkpt lat="45.88613" lon="4.68383">
        <ele>362.4483</ele>
        <time>2023-06-04T12:52:01.000Z</time>
      </trkpt>
      <trkpt lat="45.88616" lon="4.68382">
        <ele>362.13419</ele>
        <time>2023-06-04T12:52:02.000Z</time>
      </trkpt>
      <trkpt lat="45.88618" lon="4.6838">
        <ele>363.0571</ele>
        <time>2023-06-04T12:52:03.000Z</time>
      </trkpt>
      <trkpt lat="45.88621" lon="4.68378">
        <ele>363.34497</ele>
        <time>2023-06-04T12:52:04.000Z</time>
      </trkpt>
      <trkpt lat="45.88623" lon="4.68375">
        <ele>363.5798</ele>
        <time>2023-06-04T12:52:05.000Z</time>
      </trkpt>
      <trkpt lat="45.88625" lon="4.68372">
        <ele>363.81778</ele>
        <time>2023-06-04T12:52:06.000Z</time>
      </trkpt>
      <trkpt lat="45.88625" lon="4.68369">
        <ele>364.10367</ele>
        <time>2023-06-04T12:52:07.000Z</time>
      </trkpt>
      <trkpt lat="45.88624" lon="4.68367">
        <ele>364.46057</ele>
        <time>2023-06-04T12:52:08.000Z</time>
      </trkpt>
      <trkpt lat="45.88624" lon="4.68364">
        <ele>364.84744</ele>
        <time>2023-06-04T12:52:09.000Z</time>
      </trkpt>
      <trkpt lat="45.88623" lon="4.6836">
        <ele>365.22876</ele>
        <time>2023-06-04T12:52:10.000Z</time>
      </trkpt>
      <trkpt lat="45.88624" lon="4.68356">
        <ele>365.59933</ele>
        <time>2023-06-04T12:52:11.000Z</time>
      </trkpt>
      <trkpt lat="45.88624" lon="4.68351">
        <ele>365.95355</ele>
        <time>2023-06-04T12:52:12.000Z</time>
      </trkpt>
      <trkpt lat="45.88625" lon="4.68347">
        <ele>366.36679</ele>
        <time>2023-06-04T12:52:13.000Z</time>
      </trkpt>
      <trkpt lat="45.88626" lon="4.68343">
        <ele>366.79776</ele>
        <time>2023-06-04T12:52:14.000Z</time>
      </trkpt>
      <trkpt lat="45.88627" lon="4.68338">
        <ele>367.23956</ele>
        <time>2023-06-04T12:52:15.000Z</time>
      </trkpt>
      <trkpt lat="45.88626" lon="4.68334">
        <ele>367.76544</ele>
        <time>2023-06-04T12:52:16.000Z</time>
      </trkpt>
      <trkpt lat="45.88625" lon="4.6833">
        <ele>368.36578</ele>
        <time>2023-06-04T12:52:17.000Z</time>
      </trkpt>
      <trkpt lat="45.88623" lon="4.68326">
        <ele>368.54907</ele>
        <time>2023-06-04T12:52:18.000Z</time>
      </trkpt>
      <trkpt lat="45.88621" lon="4.68321">
        <ele>368.77057</ele>
        <time>2023-06-04T12:52:19.000Z</time>
      </trkpt>
      <trkpt lat="45.88618" lon="4.68318">
        <ele>369.19672</ele>
        <time>2023-06-04T12:52:20.000Z</time>
      </trkpt>
      <trkpt lat="45.88615" lon="4.68315">
        <ele>369.65802</ele>
        <time>2023-06-04T12:52:21.000Z</time>
      </trkpt>
      <trkpt lat="45.88614" lon="4.68313">
        <ele>370.04507</ele>
        <time>2023-06-04T12:52:22.000Z</time>
      </trkpt>
      <trkpt lat="45.88612" lon="4.68308">
        <ele>370.23373</ele>
        <time>2023-06-04T12:52:24.000Z</time>
      </trkpt>
      <trkpt lat="45.88611" lon="4.68304">
        <ele>370.19858</ele>
        <time>2023-06-04T12:52:25.000Z</time>
      </trkpt>
      <trkpt lat="45.88609" lon="4.68301">
        <ele>370.21719</ele>
        <time>2023-06-04T12:52:26.000Z</time>
      </trkpt>
      <trkpt lat="45.88609" lon="4.68297">
        <ele>370.28217</ele>
        <time>2023-06-04T12:52:27.000Z</time>
      </trkpt>
      <trkpt lat="45.88608" lon="4.68294">
        <ele>370.35693</ele>
        <time>2023-06-04T12:52:28.000Z</time>
      </trkpt>
      <trkpt lat="45.88607" lon="4.68291">
        <ele>370.35382</ele>
        <time>2023-06-04T12:52:29.000Z</time>
      </trkpt>
      <trkpt lat="45.88604" lon="4.68287">
        <ele>370.36887</ele>
        <time>2023-06-04T12:52:30.000Z</time>
      </trkpt>
      <trkpt lat="45.88602" lon="4.68286">
        <ele>370.4848</ele>
        <time>2023-06-04T12:52:31.000Z</time>
      </trkpt>
      <trkpt lat="45.88599" lon="4.68285">
        <ele>370.552</ele>
        <time>2023-06-04T12:52:32.000Z</time>
      </trkpt>
      <trkpt lat="45.88596" lon="4.68284">
        <ele>370.63821</ele>
        <time>2023-06-04T12:52:33.000Z</time>
      </trkpt>
      <trkpt lat="45.88594" lon="4.68283">
        <ele>370.81949</ele>
        <time>2023-06-04T12:52:34.000Z</time>
      </trkpt>
      <trkpt lat="45.88591" lon="4.68282">
        <ele>371.08148</ele>
        <time>2023-06-04T12:52:35.000Z</time>
      </trkpt>
      <trkpt lat="45.88587" lon="4.68279">
        <ele>371.34088</ele>
        <time>2023-06-04T12:52:36.000Z</time>
      </trkpt>
      <trkpt lat="45.88585" lon="4.68277">
        <ele>371.61536</ele>
        <time>2023-06-04T12:52:37.000Z</time>
      </trkpt>
      <trkpt lat="45.88584" lon="4.68275">
        <ele>371.93817</ele>
        <time>2023-06-04T12:52:38.000Z</time>
      </trkpt>
      <trkpt lat="45.88581" lon="4.68272">
        <ele>372.26947</ele>
        <time>2023-06-04T12:52:40.000Z</time>
      </trkpt>
      <trkpt lat="45.88579" lon="4.6827">
        <ele>372.26303</ele>
        <time>2023-06-04T12:52:41.000Z</time>
      </trkpt>
      <trkpt lat="45.88576" lon="4.68271">
        <ele>372.65121</ele>
        <time>2023-06-04T12:52:43.000Z</time>
      </trkpt>
      <trkpt lat="45.88577" lon="4.68274">
        <ele>372.90448</ele>
        <time>2023-06-04T12:52:45.000Z</time>
      </trkpt>
      <trkpt lat="45.88578" lon="4.68276">
        <ele>373.13507</ele>
        <time>2023-06-04T12:52:46.000Z</time>
      </trkpt>
      <trkpt lat="45.8858" lon="4.68276">
        <ele>373.24432</ele>
        <time>2023-06-04T12:52:47.000Z</time>
      </trkpt>
      <trkpt lat="45.88582" lon="4.68277">
        <ele>373.23468</ele>
        <time>2023-06-04T12:52:48.000Z</time>
      </trkpt>
      <trkpt lat="45.88585" lon="4.68275">
        <ele>373.20923</ele>
        <time>2023-06-04T12:52:50.000Z</time>
      </trkpt>
      <trkpt lat="45.88587" lon="4.68273">
        <ele>373.12347</ele>
        <time>2023-06-04T12:52:51.000Z</time>
      </trkpt>
      <trkpt lat="45.88589" lon="4.68271">
        <ele>373.05618</ele>
        <time>2023-06-04T12:52:52.000Z</time>
      </trkpt>
      <trkpt lat="45.8859" lon="4.68267">
        <ele>373.03604</ele>
        <time>2023-06-04T12:52:54.000Z</time>
      </trkpt>
      <trkpt lat="45.8859" lon="4.68264">
        <ele>373.00439</ele>
        <time>2023-06-04T12:52:55.000Z</time>
      </trkpt>
      <trkpt lat="45.88593" lon="4.68262">
        <ele>372.95187</ele>
        <time>2023-06-04T12:52:57.000Z</time>
      </trkpt>
      <trkpt lat="45.88595" lon="4.6826">
        <ele>372.98041</ele>
        <time>2023-06-04T12:52:58.000Z</time>
      </trkpt>
      <trkpt lat="45.88597" lon="4.68259">
        <ele>373.00854</ele>
        <time>2023-06-04T12:52:59.000Z</time>
      </trkpt>
      <trkpt lat="45.88598" lon="4.68257">
        <ele>372.92572</ele>
        <time>2023-06-04T12:53:00.000Z</time>
      </trkpt>
      <trkpt lat="45.886" lon="4.68253">
        <ele>372.85068</ele>
        <time>2023-06-04T12:53:02.000Z</time>
      </trkpt>
      <trkpt lat="45.88601" lon="4.68249">
        <ele>372.80008</ele>
        <time>2023-06-04T12:53:03.000Z</time>
      </trkpt>
      <trkpt lat="45.88603" lon="4.68246">
        <ele>372.70541</ele>
        <time>2023-06-04T12:53:04.000Z</time>
      </trkpt>
      <trkpt lat="45.88605" lon="4.68244">
        <ele>372.55014</ele>
        <time>2023-06-04T12:53:05.000Z</time>
      </trkpt>
      <trkpt lat="45.88606" lon="4.68242">
        <ele>372.4913</ele>
        <time>2023-06-04T12:53:06.000Z</time>
      </trkpt>
      <trkpt lat="45.88609" lon="4.68238">
        <ele>372.52524</ele>
        <time>2023-06-04T12:53:08.000Z</time>
      </trkpt>
      <trkpt lat="45.88611" lon="4.68235">
        <ele>372.1575</ele>
        <time>2023-06-04T12:53:10.000Z</time>
      </trkpt>
      <trkpt lat="45.88614" lon="4.68233">
        <ele>371.87729</ele>
        <time>2023-06-04T12:53:11.000Z</time>
      </trkpt>
      <trkpt lat="45.88616" lon="4.68232">
        <ele>371.66211</ele>
        <time>2023-06-04T12:53:12.000Z</time>
      </trkpt>
      <trkpt lat="45.88618" lon="4.68231">
        <ele>371.51227</ele>
        <time>2023-06-04T12:53:13.000Z</time>
      </trkpt>
      <trkpt lat="45.8862" lon="4.68228">
        <ele>371.51443</ele>
        <time>2023-06-04T12:53:14.000Z</time>
      </trkpt>
      <trkpt lat="45.88622" lon="4.68226">
        <ele>371.50983</ele>
        <time>2023-06-04T12:53:15.000Z</time>
      </trkpt>
      <trkpt lat="45.88624" lon="4.68223">
        <ele>371.59741</ele>
        <time>2023-06-04T12:53:16.000Z</time>
      </trkpt>
      <trkpt lat="45.88626" lon="4.6822">
        <ele>371.60757</ele>
        <time>2023-06-04T12:53:17.000Z</time>
      </trkpt>
      <trkpt lat="45.88628" lon="4.68217">
        <ele>371.64264</ele>
        <time>2023-06-04T12:53:18.000Z</time>
      </trkpt>
      <trkpt lat="45.88632" lon="4.68213">
        <ele>371.63309</ele>
        <time>2023-06-04T12:53:19.000Z</time>
      </trkpt>
      <trkpt lat="45.88636" lon="4.68211">
        <ele>371.61099</ele>
        <time>2023-06-04T12:53:20.000Z</time>
      </trkpt>
      <trkpt lat="45.8864" lon="4.68208">
        <ele>371.42218</ele>
        <time>2023-06-04T12:53:21.000Z</time>
      </trkpt>
      <trkpt lat="45.88643" lon="4.68205">
        <ele>371.16888</ele>
        <time>2023-06-04T12:53:22.000Z</time>
      </trkpt>
      <trkpt lat="45.88645" lon="4.68203">
        <ele>371.12524</ele>
        <time>2023-06-04T12:53:23.000Z</time>
      </trkpt>
      <trkpt lat="45.88648" lon="4.682">
        <ele>371.02167</ele>
        <time>2023-06-04T12:53:24.000Z</time>
      </trkpt>
      <trkpt lat="45.8865" lon="4.68198">
        <ele>370.90936</ele>
        <time>2023-06-04T12:53:25.000Z</time>
      </trkpt>
      <trkpt lat="45.8865" lon="4.68194">
        <ele>370.7088</ele>
        <time>2023-06-04T12:53:26.000Z</time>
      </trkpt>
      <trkpt lat="45.88651" lon="4.68191">
        <ele>370.51208</ele>
        <time>2023-06-04T12:53:27.000Z</time>
      </trkpt>
      <trkpt lat="45.88652" lon="4.68188">
        <ele>370.32031</ele>
        <time>2023-06-04T12:53:28.000Z</time>
      </trkpt>
      <trkpt lat="45.88654" lon="4.68187">
        <ele>370.1185</ele>
        <time>2023-06-04T12:53:29.000Z</time>
      </trkpt>
      <trkpt lat="45.88655" lon="4.68185">
        <ele>369.95911</ele>
        <time>2023-06-04T12:53:30.000Z</time>
      </trkpt>
      <trkpt lat="45.88657" lon="4.68183">
        <ele>369.88376</ele>
        <time>2023-06-04T12:53:31.000Z</time>
      </trkpt>
      <trkpt lat="45.88659" lon="4.68182">
        <ele>369.88968</ele>
        <time>2023-06-04T12:53:32.000Z</time>
      </trkpt>
      <trkpt lat="45.88661" lon="4.68179">
        <ele>369.87863</ele>
        <time>2023-06-04T12:53:33.000Z</time>
      </trkpt>
      <trkpt lat="45.88663" lon="4.68177">
        <ele>369.83466</ele>
        <time>2023-06-04T12:53:34.000Z</time>
      </trkpt>
      <trkpt lat="45.88665" lon="4.68175">
        <ele>369.78506</ele>
        <time>2023-06-04T12:53:35.000Z</time>
      </trkpt>
      <trkpt lat="45.88667" lon="4.68171">
        <ele>369.75781</ele>
        <time>2023-06-04T12:53:36.000Z</time>
      </trkpt>
      <trkpt lat="45.8867" lon="4.68168">
        <ele>369.73096</ele>
        <time>2023-06-04T12:53:37.000Z</time>
      </trkpt>
      <trkpt lat="45.88673" lon="4.68163">
        <ele>369.58978</ele>
        <time>2023-06-04T12:53:38.000Z</time>
      </trkpt>
      <trkpt lat="45.88676" lon="4.68158">
        <ele>369.44418</ele>
        <time>2023-06-04T12:53:39.000Z</time>
      </trkpt>
      <trkpt lat="45.88679" lon="4.68153">
        <ele>369.28827</ele>
        <time>2023-06-04T12:53:40.000Z</time>
      </trkpt>
      <trkpt lat="45.88682" lon="4.68147">
        <ele>369.22739</ele>
        <time>2023-06-04T12:53:41.000Z</time>
      </trkpt>
      <trkpt lat="45.88686" lon="4.68142">
        <ele>369.24078</ele>
        <time>2023-06-04T12:53:42.000Z</time>
      </trkpt>
      <trkpt lat="45.88689" lon="4.68137">
        <ele>369.10394</ele>
        <time>2023-06-04T12:53:43.000Z</time>
      </trkpt>
      <trkpt lat="45.88692" lon="4.68132">
        <ele>369.00296</ele>
        <time>2023-06-04T12:53:44.000Z</time>
      </trkpt>
      <trkpt lat="45.88695" lon="4.68127">
        <ele>368.99731</ele>
        <time>2023-06-04T12:53:45.000Z</time>
      </trkpt>
      <trkpt lat="45.88698" lon="4.68122">
        <ele>369.21503</ele>
        <time>2023-06-04T12:53:46.000Z</time>
      </trkpt>
      <trkpt lat="45.88701" lon="4.68116">
        <ele>369.57657</ele>
        <time>2023-06-04T12:53:47.000Z</time>
      </trkpt>
      <trkpt lat="45.88704" lon="4.6811">
        <ele>369.92657</ele>
        <time>2023-06-04T12:53:48.000Z</time>
      </trkpt>
      <trkpt lat="45.88707" lon="4.68105">
        <ele>370.30026</ele>
        <time>2023-06-04T12:53:49.000Z</time>
      </trkpt>
      <trkpt lat="45.88711" lon="4.68101">
        <ele>370.31317</ele>
        <time>2023-06-04T12:53:50.000Z</time>
      </trkpt>
      <trkpt lat="45.88714" lon="4.68097">
        <ele>370.25464</ele>
        <time>2023-06-04T12:53:51.000Z</time>
      </trkpt>
      <trkpt lat="45.88717" lon="4.68093">
        <ele>370.12311</ele>
        <time>2023-06-04T12:53:52.000Z</time>
      </trkpt>
      <trkpt lat="45.8872" lon="4.6809">
        <ele>369.99042</ele>
        <time>2023-06-04T12:53:53.000Z</time>
      </trkpt>
      <trkpt lat="45.88723" lon="4.68086">
        <ele>369.7095</ele>
        <time>2023-06-04T12:53:54.000Z</time>
      </trkpt>
      <trkpt lat="45.88723" lon="4.68081">
        <ele>369.42938</ele>
        <time>2023-06-04T12:53:55.000Z</time>
      </trkpt>
      <trkpt lat="45.88724" lon="4.68079">
        <ele>369.62375</ele>
        <time>2023-06-04T12:53:56.000Z</time>
      </trkpt>
      <trkpt lat="45.88728" lon="4.68078">
        <ele>369.8313</ele>
        <time>2023-06-04T12:53:57.000Z</time>
      </trkpt>
      <trkpt lat="45.8873" lon="4.68072">
        <ele>370.1235</ele>
        <time>2023-06-04T12:53:58.000Z</time>
      </trkpt>
      <trkpt lat="45.88734" lon="4.68065">
        <ele>370.42767</ele>
        <time>2023-06-04T12:53:59.000Z</time>
      </trkpt>
      <trkpt lat="45.88732" lon="4.68062">
        <ele>370.67487</ele>
        <time>2023-06-04T12:54:00.000Z</time>
      </trkpt>
      <trkpt lat="45.88735" lon="4.68056">
        <ele>370.91681</ele>
        <time>2023-06-04T12:54:01.000Z</time>
      </trkpt>
      <trkpt lat="45.88736" lon="4.68051">
        <ele>371.05267</ele>
        <time>2023-06-04T12:54:02.000Z</time>
      </trkpt>
      <trkpt lat="45.88739" lon="4.68048">
        <ele>371.06808</ele>
        <time>2023-06-04T12:54:03.000Z</time>
      </trkpt>
      <trkpt lat="45.88743" lon="4.68044">
        <ele>371.07547</ele>
        <time>2023-06-04T12:54:04.000Z</time>
      </trkpt>
      <trkpt lat="45.88744" lon="4.6804">
        <ele>371.00281</ele>
        <time>2023-06-04T12:54:05.000Z</time>
      </trkpt>
      <trkpt lat="45.88748" lon="4.68037">
        <ele>370.86487</ele>
        <time>2023-06-04T12:54:06.000Z</time>
      </trkpt>
      <trkpt lat="45.88754" lon="4.68033">
        <ele>370.58487</ele>
        <time>2023-06-04T12:54:07.000Z</time>
      </trkpt>
      <trkpt lat="45.88757" lon="4.68035">
        <ele>369.83261</ele>
        <time>2023-06-04T12:54:08.000Z</time>
      </trkpt>
      <trkpt lat="45.88757" lon="4.68031">
        <ele>369.04556</ele>
        <time>2023-06-04T12:54:09.000Z</time>
      </trkpt>
      <trkpt lat="45.88761" lon="4.68023">
        <ele>368.60391</ele>
        <time>2023-06-04T12:54:10.000Z</time>
      </trkpt>
      <trkpt lat="45.88764" lon="4.68015">
        <ele>368.16733</ele>
        <time>2023-06-04T12:54:11.000Z</time>
      </trkpt>
      <trkpt lat="45.88767" lon="4.68009">
        <ele>367.70645</ele>
        <time>2023-06-04T12:54:12.000Z</time>
      </trkpt>
      <trkpt lat="45.88772" lon="4.68005">
        <ele>367.16077</ele>
        <time>2023-06-04T12:54:13.000Z</time>
      </trkpt>
      <trkpt lat="45.88774" lon="4.67999">
        <ele>366.80273</ele>
        <time>2023-06-04T12:54:14.000Z</time>
      </trkpt>
      <trkpt lat="45.88776" lon="4.67995">
        <ele>366.42743</ele>
        <time>2023-06-04T12:54:15.000Z</time>
      </trkpt>
      <trkpt lat="45.88779" lon="4.67991">
        <ele>365.57761</ele>
        <time>2023-06-04T12:54:16.000Z</time>
      </trkpt>
      <trkpt lat="45.88782" lon="4.67985">
        <ele>364.76105</ele>
        <time>2023-06-04T12:54:17.000Z</time>
      </trkpt>
      <trkpt lat="45.88786" lon="4.67979">
        <ele>363.81766</ele>
        <time>2023-06-04T12:54:19.000Z</time>
      </trkpt>
      <trkpt lat="45.88788" lon="4.67976">
        <ele>362.87582</ele>
        <time>2023-06-04T12:54:20.000Z</time>
      </trkpt>
      <trkpt lat="45.88789" lon="4.67973">
        <ele>362.1572</ele>
        <time>2023-06-04T12:54:21.000Z</time>
      </trkpt>
      <trkpt lat="45.8879" lon="4.67966">
        <ele>361.49557</ele>
        <time>2023-06-04T12:54:22.000Z</time>
      </trkpt>
      <trkpt lat="45.88791" lon="4.67959">
        <ele>360.84625</ele>
        <time>2023-06-04T12:54:23.000Z</time>
      </trkpt>
      <trkpt lat="45.88795" lon="4.67956">
        <ele>360.30963</ele>
        <time>2023-06-04T12:54:24.000Z</time>
      </trkpt>
      <trkpt lat="45.88796" lon="4.67952">
        <ele>359.77084</ele>
        <time>2023-06-04T12:54:25.000Z</time>
      </trkpt>
      <trkpt lat="45.88797" lon="4.67946">
        <ele>359.03638</ele>
        <time>2023-06-04T12:54:26.000Z</time>
      </trkpt>
      <trkpt lat="45.88799" lon="4.67941">
        <ele>358.18643</ele>
        <time>2023-06-04T12:54:27.000Z</time>
      </trkpt>
      <trkpt lat="45.88801" lon="4.67938">
        <ele>357.31451</ele>
        <time>2023-06-04T12:54:28.000Z</time>
      </trkpt>
      <trkpt lat="45.88804" lon="4.67934">
        <ele>356.92688</ele>
        <time>2023-06-04T12:54:29.000Z</time>
      </trkpt>
      <trkpt lat="45.88806" lon="4.67932">
        <ele>356.52713</ele>
        <time>2023-06-04T12:54:30.000Z</time>
      </trkpt>
      <trkpt lat="45.88807" lon="4.67932">
        <ele>356.11533</ele>
        <time>2023-06-04T12:54:31.000Z</time>
      </trkpt>
      <trkpt lat="45.8881" lon="4.67932">
        <ele>355.7132</ele>
        <time>2023-06-04T12:54:33.000Z</time>
      </trkpt>
      <trkpt lat="45.88806" lon="4.67934">
        <ele>355.36713</ele>
        <time>2023-06-04T12:54:36.000Z</time>
      </trkpt>
      <trkpt lat="45.88803" lon="4.67935">
        <ele>355.13547</ele>
        <time>2023-06-04T12:54:37.000Z</time>
      </trkpt>
      <trkpt lat="45.88799" lon="4.67936">
        <ele>354.8847</ele>
        <time>2023-06-04T12:54:38.000Z</time>
      </trkpt>
      <trkpt lat="45.88798" lon="4.67935">
        <ele>354.59384</ele>
        <time>2023-06-04T12:54:39.000Z</time>
      </trkpt>
      <trkpt lat="45.88799" lon="4.6793">
        <ele>354.27695</ele>
        <time>2023-06-04T12:54:41.000Z</time>
      </trkpt>
      <trkpt lat="45.88801" lon="4.67929">
        <ele>353.93671</ele>
        <time>2023-06-04T12:54:42.000Z</time>
      </trkpt>
      <trkpt lat="45.88799" lon="4.67925">
        <ele>353.77271</ele>
        <time>2023-06-04T12:54:45.000Z</time>
      </trkpt>
      <trkpt lat="45.88798" lon="4.67922">
        <ele>353.59641</ele>
        <time>2023-06-04T12:54:46.000Z</time>
      </trkpt>
      <trkpt lat="45.88799" lon="4.67919">
        <ele>353.22943</ele>
        <time>2023-06-04T12:54:47.000Z</time>
      </trkpt>
      <trkpt lat="45.88801" lon="4.67917">
        <ele>352.86829</ele>
        <time>2023-06-04T12:54:48.000Z</time>
      </trkpt>
      <trkpt lat="45.88803" lon="4.67915">
        <ele>352.54391</ele>
        <time>2023-06-04T12:54:49.000Z</time>
      </trkpt>
      <trkpt lat="45.88805" lon="4.67914">
        <ele>352.17999</ele>
        <time>2023-06-04T12:54:50.000Z</time>
      </trkpt>
      <trkpt lat="45.88808" lon="4.67911">
        <ele>351.80573</ele>
        <time>2023-06-04T12:54:51.000Z</time>
      </trkpt>
      <trkpt lat="45.8881" lon="4.67908">
        <ele>351.59698</ele>
        <time>2023-06-04T12:54:52.000Z</time>
      </trkpt>
      <trkpt lat="45.88819" lon="4.67901">
        <ele>351.40765</ele>
        <time>2023-06-04T12:54:53.000Z</time>
      </trkpt>
      <trkpt lat="45.8882" lon="4.67897">
        <ele>351.24249</ele>
        <time>2023-06-04T12:54:54.000Z</time>
      </trkpt>
      <trkpt lat="45.88823" lon="4.67891">
        <ele>351.09515</ele>
        <time>2023-06-04T12:54:56.000Z</time>
      </trkpt>
      <trkpt lat="45.88825" lon="4.6789">
        <ele>350.97028</ele>
        <time>2023-06-04T12:54:57.000Z</time>
      </trkpt>
      <trkpt lat="45.88826" lon="4.67886">
        <ele>350.82675</ele>
        <time>2023-06-04T12:54:58.000Z</time>
      </trkpt>
      <trkpt lat="45.88828" lon="4.67888">
        <ele>350.70065</ele>
        <time>2023-06-04T12:54:59.000Z</time>
      </trkpt>
      <trkpt lat="45.88826" lon="4.6789">
        <ele>350.58972</ele>
        <time>2023-06-04T12:55:00.000Z</time>
      </trkpt>
      <trkpt lat="45.88829" lon="4.67886">
        <ele>350.49261</ele>
        <time>2023-06-04T12:55:02.000Z</time>
      </trkpt>
      <trkpt lat="45.88833" lon="4.67884">
        <ele>350.43878</ele>
        <time>2023-06-04T12:55:05.000Z</time>
      </trkpt>
      <trkpt lat="45.88835" lon="4.67881">
        <ele>350.41129</ele>
        <time>2023-06-04T12:55:06.000Z</time>
      </trkpt>
      <trkpt lat="45.88837" lon="4.67878">
        <ele>350.40814</ele>
        <time>2023-06-04T12:55:07.000Z</time>
      </trkpt>
      <trkpt lat="45.8884" lon="4.67875">
        <ele>350.44965</ele>
        <time>2023-06-04T12:55:09.000Z</time>
      </trkpt>
      <trkpt lat="45.88842" lon="4.67873">
        <ele>350.46796</ele>
        <time>2023-06-04T12:55:10.000Z</time>
      </trkpt>
      <trkpt lat="45.88847" lon="4.67872">
        <ele>350.48407</ele>
        <time>2023-06-04T12:55:11.000Z</time>
      </trkpt>
      <trkpt lat="45.88851" lon="4.67872">
        <ele>350.51019</ele>
        <time>2023-06-04T12:55:12.000Z</time>
      </trkpt>
      <trkpt lat="45.88854" lon="4.67873">
        <ele>350.50714</ele>
        <time>2023-06-04T12:55:13.000Z</time>
      </trkpt>
      <trkpt lat="45.88858" lon="4.67874">
        <ele>350.51865</ele>
        <time>2023-06-04T12:55:14.000Z</time>
      </trkpt>
      <trkpt lat="45.88863" lon="4.67873">
        <ele>350.55811</ele>
        <time>2023-06-04T12:55:15.000Z</time>
      </trkpt>
      <trkpt lat="45.88868" lon="4.67872">
        <ele>350.59637</ele>
        <time>2023-06-04T12:55:16.000Z</time>
      </trkpt>
      <trkpt lat="45.8887" lon="4.67871">
        <ele>350.62491</ele>
        <time>2023-06-04T12:55:17.000Z</time>
      </trkpt>
      <trkpt lat="45.88873" lon="4.6787">
        <ele>350.66718</ele>
        <time>2023-06-04T12:55:18.000Z</time>
      </trkpt>
      <trkpt lat="45.88877" lon="4.67869">
        <ele>350.70789</ele>
        <time>2023-06-04T12:55:19.000Z</time>
      </trkpt>
      <trkpt lat="45.88879" lon="4.67869">
        <ele>350.73895</ele>
        <time>2023-06-04T12:55:20.000Z</time>
      </trkpt>
      <trkpt lat="45.88882" lon="4.67868">
        <ele>350.80765</ele>
        <time>2023-06-04T12:55:21.000Z</time>
      </trkpt>
      <trkpt lat="45.88885" lon="4.67866">
        <ele>350.93362</ele>
        <time>2023-06-04T12:55:22.000Z</time>
      </trkpt>
      <trkpt lat="45.88887" lon="4.67864">
        <ele>351.03867</ele>
        <time>2023-06-04T12:55:23.000Z</time>
      </trkpt>
      <trkpt lat="45.8889" lon="4.67862">
        <ele>351.11697</ele>
        <time>2023-06-04T12:55:24.000Z</time>
      </trkpt>
      <trkpt lat="45.88892" lon="4.67859">
        <ele>351.18262</ele>
        <time>2023-06-04T12:55:25.000Z</time>
      </trkpt>
      <trkpt lat="45.88895" lon="4.67856">
        <ele>351.23297</ele>
        <time>2023-06-04T12:55:26.000Z</time>
      </trkpt>
      <trkpt lat="45.88896" lon="4.67854">
        <ele>351.31796</ele>
        <time>2023-06-04T12:55:27.000Z</time>
      </trkpt>
      <trkpt lat="45.88898" lon="4.67852">
        <ele>351.35587</ele>
        <time>2023-06-04T12:55:28.000Z</time>
      </trkpt>
      <trkpt lat="45.889" lon="4.6785">
        <ele>351.40604</ele>
        <time>2023-06-04T12:55:29.000Z</time>
      </trkpt>
      <trkpt lat="45.88903" lon="4.67848">
        <ele>351.45459</ele>
        <time>2023-06-04T12:55:30.000Z</time>
      </trkpt>
      <trkpt lat="45.88907" lon="4.67846">
        <ele>351.50009</ele>
        <time>2023-06-04T12:55:31.000Z</time>
      </trkpt>
      <trkpt lat="45.88911" lon="4.67845">
        <ele>351.57672</ele>
        <time>2023-06-04T12:55:32.000Z</time>
      </trkpt>
      <trkpt lat="45.88914" lon="4.67843">
        <ele>351.65445</ele>
        <time>2023-06-04T12:55:33.000Z</time>
      </trkpt>
      <trkpt lat="45.88917" lon="4.67841">
        <ele>351.75787</ele>
        <time>2023-06-04T12:55:34.000Z</time>
      </trkpt>
      <trkpt lat="45.8892" lon="4.67839">
        <ele>351.90115</ele>
        <time>2023-06-04T12:55:35.000Z</time>
      </trkpt>
      <trkpt lat="45.88923" lon="4.67838">
        <ele>352.02264</ele>
        <time>2023-06-04T12:55:36.000Z</time>
      </trkpt>
      <trkpt lat="45.88927" lon="4.67837">
        <ele>352.16705</ele>
        <time>2023-06-04T12:55:37.000Z</time>
      </trkpt>
      <trkpt lat="45.8893" lon="4.67835">
        <ele>352.3027</ele>
        <time>2023-06-04T12:55:38.000Z</time>
      </trkpt>
      <trkpt lat="45.88934" lon="4.67834">
        <ele>352.46521</ele>
        <time>2023-06-04T12:55:39.000Z</time>
      </trkpt>
      <trkpt lat="45.88939" lon="4.67833">
        <ele>352.5994</ele>
        <time>2023-06-04T12:55:40.000Z</time>
      </trkpt>
      <trkpt lat="45.88941" lon="4.67833">
        <ele>352.69312</ele>
        <time>2023-06-04T12:55:41.000Z</time>
      </trkpt>
      <trkpt lat="45.88944" lon="4.67832">
        <ele>352.75775</ele>
        <time>2023-06-04T12:55:42.000Z</time>
      </trkpt>
      <trkpt lat="45.88948" lon="4.67831">
        <ele>352.83701</ele>
        <time>2023-06-04T12:55:43.000Z</time>
      </trkpt>
      <trkpt lat="45.88952" lon="4.6783">
        <ele>352.97345</ele>
        <time>2023-06-04T12:55:44.000Z</time>
      </trkpt>
      <trkpt lat="45.88956" lon="4.6783">
        <ele>353.09064</ele>
        <time>2023-06-04T12:55:45.000Z</time>
      </trkpt>
      <trkpt lat="45.8896" lon="4.6783">
        <ele>353.15912</ele>
        <time>2023-06-04T12:55:46.000Z</time>
      </trkpt>
      <trkpt lat="45.88964" lon="4.67831">
        <ele>353.19962</ele>
        <time>2023-06-04T12:55:47.000Z</time>
      </trkpt>
      <trkpt lat="45.88967" lon="4.67831">
        <ele>353.25104</ele>
        <time>2023-06-04T12:55:48.000Z</time>
      </trkpt>
      <trkpt lat="45.88969" lon="4.67831">
        <ele>353.26181</ele>
        <time>2023-06-04T12:55:49.000Z</time>
      </trkpt>
      <trkpt lat="45.88972" lon="4.67829">
        <ele>353.2977</ele>
        <time>2023-06-04T12:55:50.000Z</time>
      </trkpt>
      <trkpt lat="45.88975" lon="4.67826">
        <ele>353.3652</ele>
        <time>2023-06-04T12:55:51.000Z</time>
      </trkpt>
      <trkpt lat="45.88978" lon="4.67821">
        <ele>353.43985</ele>
        <time>2023-06-04T12:55:52.000Z</time>
      </trkpt>
      <trkpt lat="45.88979" lon="4.67817">
        <ele>353.56845</ele>
        <time>2023-06-04T12:55:53.000Z</time>
      </trkpt>
      <trkpt lat="45.88979" lon="4.67811">
        <ele>353.689</ele>
        <time>2023-06-04T12:55:54.000Z</time>
      </trkpt>
      <trkpt lat="45.88979" lon="4.67805">
        <ele>353.82932</ele>
        <time>2023-06-04T12:55:55.000Z</time>
      </trkpt>
      <trkpt lat="45.88978" lon="4.67798">
        <ele>353.98944</ele>
        <time>2023-06-04T12:55:56.000Z</time>
      </trkpt>
      <trkpt lat="45.88976" lon="4.67793">
        <ele>354.16205</ele>
        <time>2023-06-04T12:55:57.000Z</time>
      </trkpt>
      <trkpt lat="45.88974" lon="4.67788">
        <ele>354.37216</ele>
        <time>2023-06-04T12:55:58.000Z</time>
      </trkpt>
      <trkpt lat="45.88973" lon="4.67783">
        <ele>354.5593</ele>
        <time>2023-06-04T12:55:59.000Z</time>
      </trkpt>
      <trkpt lat="45.88972" lon="4.67776">
        <ele>354.75674</ele>
        <time>2023-06-04T12:56:00.000Z</time>
      </trkpt>
      <trkpt lat="45.88971" lon="4.6777">
        <ele>354.92343</ele>
        <time>2023-06-04T12:56:01.000Z</time>
      </trkpt>
      <trkpt lat="45.88971" lon="4.67764">
        <ele>355.20569</ele>
        <time>2023-06-04T12:56:02.000Z</time>
      </trkpt>
      <trkpt lat="45.88971" lon="4.67757">
        <ele>355.40057</ele>
        <time>2023-06-04T12:56:03.000Z</time>
      </trkpt>
      <trkpt lat="45.8897" lon="4.67752">
        <ele>355.72763</ele>
        <time>2023-06-04T12:56:04.000Z</time>
      </trkpt>
      <trkpt lat="45.8897" lon="4.67748">
        <ele>356.00214</ele>
        <time>2023-06-04T12:56:05.000Z</time>
      </trkpt>
      <trkpt lat="45.88969" lon="4.67743">
        <ele>356.30499</ele>
        <time>2023-06-04T12:56:06.000Z</time>
      </trkpt>
      <trkpt lat="45.88969" lon="4.67736">
        <ele>356.67636</ele>
        <time>2023-06-04T12:56:07.000Z</time>
      </trkpt>
      <trkpt lat="45.8897" lon="4.67731">
        <ele>357.07901</ele>
        <time>2023-06-04T12:56:08.000Z</time>
      </trkpt>
      <trkpt lat="45.8897" lon="4.67727">
        <ele>357.51498</ele>
        <time>2023-06-04T12:56:09.000Z</time>
      </trkpt>
      <trkpt lat="45.8897" lon="4.67723">
        <ele>357.97955</ele>
        <time>2023-06-04T12:56:10.000Z</time>
      </trkpt>
      <trkpt lat="45.8897" lon="4.67719">
        <ele>358.37628</ele>
        <time>2023-06-04T12:56:11.000Z</time>
      </trkpt>
      <trkpt lat="45.88969" lon="4.67715">
        <ele>358.81186</ele>
        <time>2023-06-04T12:56:12.000Z</time>
      </trkpt>
      <trkpt lat="45.88968" lon="4.6771">
        <ele>359.23291</ele>
        <time>2023-06-04T12:56:13.000Z</time>
      </trkpt>
      <trkpt lat="45.88967" lon="4.67705">
        <ele>359.56046</ele>
        <time>2023-06-04T12:56:14.000Z</time>
      </trkpt>
      <trkpt lat="45.88965" lon="4.677">
        <ele>360.59198</ele>
        <time>2023-06-04T12:56:15.000Z</time>
      </trkpt>
      <trkpt lat="45.88964" lon="4.67696">
        <ele>361.61148</ele>
        <time>2023-06-04T12:56:16.000Z</time>
      </trkpt>
      <trkpt lat="45.88962" lon="4.67691">
        <ele>362.63577</ele>
        <time>2023-06-04T12:56:17.000Z</time>
      </trkpt>
      <trkpt lat="45.88959" lon="4.67684">
        <ele>363.633</ele>
        <time>2023-06-04T12:56:18.000Z</time>
      </trkpt>
      <trkpt lat="45.88961" lon="4.6768">
        <ele>364.62964</ele>
        <time>2023-06-04T12:56:19.000Z</time>
      </trkpt>
      <trkpt lat="45.88962" lon="4.67673">
        <ele>365.63354</ele>
        <time>2023-06-04T12:56:20.000Z</time>
      </trkpt>
      <trkpt lat="45.8896" lon="4.67669">
        <ele>366.65518</ele>
        <time>2023-06-04T12:56:21.000Z</time>
      </trkpt>
      <trkpt lat="45.8896" lon="4.67657">
        <ele>367.5513</ele>
        <time>2023-06-04T12:56:22.000Z</time>
      </trkpt>
      <trkpt lat="45.88958" lon="4.67652">
        <ele>368.53204</ele>
        <time>2023-06-04T12:56:23.000Z</time>
      </trkpt>
      <trkpt lat="45.88958" lon="4.67648">
        <ele>369.367</ele>
        <time>2023-06-04T12:56:24.000Z</time>
      </trkpt>
      <trkpt lat="45.88959" lon="4.67644">
        <ele>370.32635</ele>
        <time>2023-06-04T12:56:26.000Z</time>
      </trkpt>
      <trkpt lat="45.88958" lon="4.6764">
        <ele>371.31464</ele>
        <time>2023-06-04T12:56:27.000Z</time>
      </trkpt>
      <trkpt lat="45.88957" lon="4.67635">
        <ele>372.27094</ele>
        <time>2023-06-04T12:56:28.000Z</time>
      </trkpt>
      <trkpt lat="45.88956" lon="4.6763">
        <ele>373.19547</ele>
        <time>2023-06-04T12:56:29.000Z</time>
      </trkpt>
      <trkpt lat="45.88957" lon="4.67626">
        <ele>374.10248</ele>
        <time>2023-06-04T12:56:30.000Z</time>
      </trkpt>
      <trkpt lat="45.88958" lon="4.67623">
        <ele>374.99026</ele>
        <time>2023-06-04T12:56:31.000Z</time>
      </trkpt>
      <trkpt lat="45.88958" lon="4.67615">
        <ele>375.93707</ele>
        <time>2023-06-04T12:56:32.000Z</time>
      </trkpt>
      <trkpt lat="45.88957" lon="4.6761">
        <ele>376.82635</ele>
        <time>2023-06-04T12:56:33.000Z</time>
      </trkpt>
      <trkpt lat="45.88957" lon="4.67606">
        <ele>377.67102</ele>
        <time>2023-06-04T12:56:34.000Z</time>
      </trkpt>
      <trkpt lat="45.88957" lon="4.67601">
        <ele>378.6134</ele>
        <time>2023-06-04T12:56:35.000Z</time>
      </trkpt>
      <trkpt lat="45.88956" lon="4.67597">
        <ele>378.84045</ele>
        <time>2023-06-04T12:56:36.000Z</time>
      </trkpt>
      <trkpt lat="45.88955" lon="4.67594">
        <ele>379.14844</ele>
        <time>2023-06-04T12:56:37.000Z</time>
      </trkpt>
      <trkpt lat="45.88953" lon="4.67589">
        <ele>379.42804</ele>
        <time>2023-06-04T12:56:38.000Z</time>
      </trkpt>
      <trkpt lat="45.88952" lon="4.67584">
        <ele>379.68073</ele>
        <time>2023-06-04T12:56:39.000Z</time>
      </trkpt>
      <trkpt lat="45.88954" lon="4.6758">
        <ele>379.87207</ele>
        <time>2023-06-04T12:56:40.000Z</time>
      </trkpt>
      <trkpt lat="45.88955" lon="4.67577">
        <ele>380.14651</ele>
        <time>2023-06-04T12:56:41.000Z</time>
      </trkpt>
      <trkpt lat="45.88955" lon="4.67574">
        <ele>380.42224</ele>
        <time>2023-06-04T12:56:42.000Z</time>
      </trkpt>
      <trkpt lat="45.88955" lon="4.67571">
        <ele>380.79257</ele>
        <time>2023-06-04T12:56:44.000Z</time>
      </trkpt>
      <trkpt lat="45.88952" lon="4.67574">
        <ele>381.16492</ele>
        <time>2023-06-04T12:56:46.000Z</time>
      </trkpt>
      <trkpt lat="45.88949" lon="4.67577">
        <ele>381.48944</ele>
        <time>2023-06-04T12:56:47.000Z</time>
      </trkpt>
      <trkpt lat="45.88947" lon="4.6758">
        <ele>381.78986</ele>
        <time>2023-06-04T12:56:48.000Z</time>
      </trkpt>
      <trkpt lat="45.88944" lon="4.67583">
        <ele>382.09341</ele>
        <time>2023-06-04T12:56:49.000Z</time>
      </trkpt>
      <trkpt lat="45.88943" lon="4.67586">
        <ele>382.39673</ele>
        <time>2023-06-04T12:56:50.000Z</time>
      </trkpt>
      <trkpt lat="45.88941" lon="4.67588">
        <ele>382.69611</ele>
        <time>2023-06-04T12:56:51.000Z</time>
      </trkpt>
      <trkpt lat="45.88938" lon="4.67591">
        <ele>382.97165</ele>
        <time>2023-06-04T12:56:52.000Z</time>
      </trkpt>
      <trkpt lat="45.88936" lon="4.67594">
        <ele>383.24173</ele>
        <time>2023-06-04T12:56:53.000Z</time>
      </trkpt>
      <trkpt lat="45.88934" lon="4.67597">
        <ele>383.49051</ele>
        <time>2023-06-04T12:56:54.000Z</time>
      </trkpt>
      <trkpt lat="45.88931" lon="4.67599">
        <ele>383.72827</ele>
        <time>2023-06-04T12:56:55.000Z</time>
      </trkpt>
      <trkpt lat="45.88928" lon="4.67602">
        <ele>383.99872</ele>
        <time>2023-06-04T12:56:56.000Z</time>
      </trkpt>
      <trkpt lat="45.88924" lon="4.67605">
        <ele>384.30774</ele>
        <time>2023-06-04T12:56:57.000Z</time>
      </trkpt>
      <trkpt lat="45.88921" lon="4.67606">
        <ele>384.56476</ele>
        <time>2023-06-04T12:56:58.000Z</time>
      </trkpt>
      <trkpt lat="45.88917" lon="4.67607">
        <ele>384.77881</ele>
        <time>2023-06-04T12:56:59.000Z</time>
      </trkpt>
      <trkpt lat="45.88913" lon="4.67608">
        <ele>385.03094</ele>
        <time>2023-06-04T12:57:00.000Z</time>
      </trkpt>
      <trkpt lat="45.88909" lon="4.67609">
        <ele>385.35669</ele>
        <time>2023-06-04T12:57:01.000Z</time>
      </trkpt>
      <trkpt lat="45.88905" lon="4.6761">
        <ele>385.69772</ele>
        <time>2023-06-04T12:57:02.000Z</time>
      </trkpt>
      <trkpt lat="45.88896" lon="4.67609">
        <ele>385.93399</ele>
        <time>2023-06-04T12:57:03.000Z</time>
      </trkpt>
      <trkpt lat="45.88894" lon="4.67609">
        <ele>386.18201</ele>
        <time>2023-06-04T12:57:04.000Z</time>
      </trkpt>
      <trkpt lat="45.8889" lon="4.6761">
        <ele>386.39365</ele>
        <time>2023-06-04T12:57:06.000Z</time>
      </trkpt>
      <trkpt lat="45.88888" lon="4.67611">
        <ele>386.70053</ele>
        <time>2023-06-04T12:57:07.000Z</time>
      </trkpt>
      <trkpt lat="45.88885" lon="4.6761">
        <ele>387.05121</ele>
        <time>2023-06-04T12:57:08.000Z</time>
      </trkpt>
      <trkpt lat="45.88883" lon="4.67611">
        <ele>387.38425</ele>
        <time>2023-06-04T12:57:09.000Z</time>
      </trkpt>
      <trkpt lat="45.88881" lon="4.67612">
        <ele>387.67145</ele>
        <time>2023-06-04T12:57:10.000Z</time>
      </trkpt>
      <trkpt lat="45.88881" lon="4.67615">
        <ele>387.97696</ele>
        <time>2023-06-04T12:57:11.000Z</time>
      </trkpt>
      <trkpt lat="45.88879" lon="4.6762">
        <ele>388.33957</ele>
        <time>2023-06-04T12:57:12.000Z</time>
      </trkpt>
      <trkpt lat="45.88871" lon="4.67621">
        <ele>388.73642</ele>
        <time>2023-06-04T12:57:13.000Z</time>
      </trkpt>
      <trkpt lat="45.88868" lon="4.6762">
        <ele>389.07831</ele>
        <time>2023-06-04T12:57:14.000Z</time>
      </trkpt>
      <trkpt lat="45.88863" lon="4.67618">
        <ele>389.43179</ele>
        <time>2023-06-04T12:57:15.000Z</time>
      </trkpt>
      <trkpt lat="45.8886" lon="4.67618">
        <ele>389.76495</ele>
        <time>2023-06-04T12:57:16.000Z</time>
      </trkpt>
      <trkpt lat="45.88856" lon="4.67618">
        <ele>390.10236</ele>
        <time>2023-06-04T12:57:17.000Z</time>
      </trkpt>
      <trkpt lat="45.88851" lon="4.67619">
        <ele>390.32974</ele>
        <time>2023-06-04T12:57:18.000Z</time>
      </trkpt>
      <trkpt lat="45.88847" lon="4.6762">
        <ele>390.55414</ele>
        <time>2023-06-04T12:57:19.000Z</time>
      </trkpt>
      <trkpt lat="45.88843" lon="4.67619">
        <ele>390.7511</ele>
        <time>2023-06-04T12:57:20.000Z</time>
      </trkpt>
      <trkpt lat="45.88839" lon="4.67619">
        <ele>390.8757</ele>
        <time>2023-06-04T12:57:21.000Z</time>
      </trkpt>
      <trkpt lat="45.88835" lon="4.67618">
        <ele>390.97198</ele>
        <time>2023-06-04T12:57:22.000Z</time>
      </trkpt>
      <trkpt lat="45.88828" lon="4.67616">
        <ele>391.0939</ele>
        <time>2023-06-04T12:57:23.000Z</time>
      </trkpt>
      <trkpt lat="45.88824" lon="4.67616">
        <ele>391.22784</ele>
        <time>2023-06-04T12:57:24.000Z</time>
      </trkpt>
      <trkpt lat="45.88819" lon="4.67615">
        <ele>391.36169</ele>
        <time>2023-06-04T12:57:25.000Z</time>
      </trkpt>
      <trkpt lat="45.88815" lon="4.67617">
        <ele>391.48163</ele>
        <time>2023-06-04T12:57:26.000Z</time>
      </trkpt>
      <trkpt lat="45.88811" lon="4.67617">
        <ele>391.48804</ele>
        <time>2023-06-04T12:57:27.000Z</time>
      </trkpt>
      <trkpt lat="45.88804" lon="4.67615">
        <ele>391.44214</ele>
        <time>2023-06-04T12:57:28.000Z</time>
      </trkpt>
      <trkpt lat="45.88802" lon="4.67614">
        <ele>391.37091</ele>
        <time>2023-06-04T12:57:29.000Z</time>
      </trkpt>
      <trkpt lat="45.88798" lon="4.67615">
        <ele>391.30923</ele>
        <time>2023-06-04T12:57:30.000Z</time>
      </trkpt>
      <trkpt lat="45.88796" lon="4.67612">
        <ele>391.23795</ele>
        <time>2023-06-04T12:57:31.000Z</time>
      </trkpt>
      <trkpt lat="45.88794" lon="4.67618">
        <ele>391.10919</ele>
        <time>2023-06-04T12:57:32.000Z</time>
      </trkpt>
      <trkpt lat="45.88791" lon="4.67618">
        <ele>390.96759</ele>
        <time>2023-06-04T12:57:33.000Z</time>
      </trkpt>
      <trkpt lat="45.88789" lon="4.67618">
        <ele>390.86768</ele>
        <time>2023-06-04T12:57:34.000Z</time>
      </trkpt>
      <trkpt lat="45.88787" lon="4.67616">
        <ele>390.80365</ele>
        <time>2023-06-04T12:57:35.000Z</time>
      </trkpt>
      <trkpt lat="45.88783" lon="4.67614">
        <ele>390.76852</ele>
        <time>2023-06-04T12:57:36.000Z</time>
      </trkpt>
      <trkpt lat="45.88786" lon="4.67616">
        <ele>390.65778</ele>
        <time>2023-06-04T12:57:37.000Z</time>
      </trkpt>
      <trkpt lat="45.88786" lon="4.67613">
        <ele>390.63129</ele>
        <time>2023-06-04T12:57:39.000Z</time>
      </trkpt>
      <trkpt lat="45.88783" lon="4.67611">
        <ele>390.5744</ele>
        <time>2023-06-04T12:57:41.000Z</time>
      </trkpt>
      <trkpt lat="45.88781" lon="4.6761">
        <ele>390.55573</ele>
        <time>2023-06-04T12:57:42.000Z</time>
      </trkpt>
      <trkpt lat="45.88779" lon="4.67609">
        <ele>390.56088</ele>
        <time>2023-06-04T12:57:43.000Z</time>
      </trkpt>
      <trkpt lat="45.88777" lon="4.67606">
        <ele>390.58453</ele>
        <time>2023-06-04T12:57:45.000Z</time>
      </trkpt>
      <trkpt lat="45.88777" lon="4.67603">
        <ele>390.67056</ele>
        <time>2023-06-04T12:57:50.000Z</time>
      </trkpt>
      <trkpt lat="45.88775" lon="4.67604">
        <ele>390.7435</ele>
        <time>2023-06-04T12:57:53.000Z</time>
      </trkpt>
      <trkpt lat="45.88771" lon="4.67606">
        <ele>390.81631</ele>
        <time>2023-06-04T12:57:55.000Z</time>
      </trkpt>
      <trkpt lat="45.88767" lon="4.67607">
        <ele>390.86005</ele>
        <time>2023-06-04T12:57:56.000Z</time>
      </trkpt>
      <trkpt lat="45.88763" lon="4.6761">
        <ele>390.90485</ele>
        <time>2023-06-04T12:57:57.000Z</time>
      </trkpt>
      <trkpt lat="45.8876" lon="4.67613">
        <ele>390.98685</ele>
        <time>2023-06-04T12:57:58.000Z</time>
      </trkpt>
      <trkpt lat="45.88756" lon="4.67615">
        <ele>391.08118</ele>
        <time>2023-06-04T12:57:59.000Z</time>
      </trkpt>
      <trkpt lat="45.88752" lon="4.67616">
        <ele>391.13196</ele>
        <time>2023-06-04T12:58:00.000Z</time>
      </trkpt>
      <trkpt lat="45.88749" lon="4.67616">
        <ele>391.17578</ele>
        <time>2023-06-04T12:58:01.000Z</time>
      </trkpt>
      <trkpt lat="45.88746" lon="4.67615">
        <ele>391.20026</ele>
        <time>2023-06-04T12:58:02.000Z</time>
      </trkpt>
      <trkpt lat="45.88743" lon="4.67616">
        <ele>391.21759</ele>
        <time>2023-06-04T12:58:03.000Z</time>
      </trkpt>
      <trkpt lat="45.8874" lon="4.67616">
        <ele>391.20157</ele>
        <time>2023-06-04T12:58:04.000Z</time>
      </trkpt>
      <trkpt lat="45.88737" lon="4.67615">
        <ele>391.185</ele>
        <time>2023-06-04T12:58:05.000Z</time>
      </trkpt>
      <trkpt lat="45.88734" lon="4.67613">
        <ele>391.11288</ele>
        <time>2023-06-04T12:58:06.000Z</time>
      </trkpt>
      <trkpt lat="45.88731" lon="4.6761">
        <ele>391.08051</ele>
        <time>2023-06-04T12:58:07.000Z</time>
      </trkpt>
      <trkpt lat="45.88729" lon="4.67607">
        <ele>391.02509</ele>
        <time>2023-06-04T12:58:08.000Z</time>
      </trkpt>
      <trkpt lat="45.88727" lon="4.67604">
        <ele>390.99771</ele>
        <time>2023-06-04T12:58:09.000Z</time>
      </trkpt>
      <trkpt lat="45.88725" lon="4.67601">
        <ele>390.96384</ele>
        <time>2023-06-04T12:58:10.000Z</time>
      </trkpt>
      <trkpt lat="45.88722" lon="4.67598">
        <ele>391.02405</ele>
        <time>2023-06-04T12:58:11.000Z</time>
      </trkpt>
      <trkpt lat="45.8872" lon="4.67596">
        <ele>391.09305</ele>
        <time>2023-06-04T12:58:12.000Z</time>
      </trkpt>
      <trkpt lat="45.88716" lon="4.67594">
        <ele>391.04901</ele>
        <time>2023-06-04T12:58:13.000Z</time>
      </trkpt>
      <trkpt lat="45.88713" lon="4.67593">
        <ele>390.98132</ele>
        <time>2023-06-04T12:58:14.000Z</time>
      </trkpt>
      <trkpt lat="45.8871" lon="4.67592">
        <ele>390.90277</ele>
        <time>2023-06-04T12:58:15.000Z</time>
      </trkpt>
      <trkpt lat="45.88707" lon="4.67591">
        <ele>390.85236</ele>
        <time>2023-06-04T12:58:16.000Z</time>
      </trkpt>
      <trkpt lat="45.88704" lon="4.67591">
        <ele>390.81027</ele>
        <time>2023-06-04T12:58:17.000Z</time>
      </trkpt>
      <trkpt lat="45.88699" lon="4.6759">
        <ele>390.77878</ele>
        <time>2023-06-04T12:58:18.000Z</time>
      </trkpt>
      <trkpt lat="45.88695" lon="4.67589">
        <ele>390.72836</ele>
        <time>2023-06-04T12:58:19.000Z</time>
      </trkpt>
      <trkpt lat="45.88691" lon="4.67586">
        <ele>390.72415</ele>
        <time>2023-06-04T12:58:20.000Z</time>
      </trkpt>
      <trkpt lat="45.88686" lon="4.67583">
        <ele>390.66562</ele>
        <time>2023-06-04T12:58:21.000Z</time>
      </trkpt>
      <trkpt lat="45.88684" lon="4.6758">
        <ele>390.62506</ele>
        <time>2023-06-04T12:58:22.000Z</time>
      </trkpt>
      <trkpt lat="45.88681" lon="4.67577">
        <ele>390.59793</ele>
        <time>2023-06-04T12:58:23.000Z</time>
      </trkpt>
      <trkpt lat="45.8868" lon="4.67574">
        <ele>390.5498</ele>
        <time>2023-06-04T12:58:24.000Z</time>
      </trkpt>
      <trkpt lat="45.88678" lon="4.67571">
        <ele>390.47687</ele>
        <time>2023-06-04T12:58:25.000Z</time>
      </trkpt>
      <trkpt lat="45.88676" lon="4.67569">
        <ele>390.41333</ele>
        <time>2023-06-04T12:58:26.000Z</time>
      </trkpt>
      <trkpt lat="45.88674" lon="4.67566">
        <ele>390.36209</ele>
        <time>2023-06-04T12:58:27.000Z</time>
      </trkpt>
      <trkpt lat="45.88672" lon="4.67565">
        <ele>390.32138</ele>
        <time>2023-06-04T12:58:28.000Z</time>
      </trkpt>
      <trkpt lat="45.8867" lon="4.67563">
        <ele>390.32916</ele>
        <time>2023-06-04T12:58:29.000Z</time>
      </trkpt>
      <trkpt lat="45.88668" lon="4.67561">
        <ele>390.32813</ele>
        <time>2023-06-04T12:58:30.000Z</time>
      </trkpt>
      <trkpt lat="45.88666" lon="4.67559">
        <ele>390.1861</ele>
        <time>2023-06-04T12:58:31.000Z</time>
      </trkpt>
      <trkpt lat="45.88663" lon="4.67555">
        <ele>390.03741</ele>
        <time>2023-06-04T12:58:32.000Z</time>
      </trkpt>
      <trkpt lat="45.8866" lon="4.67552">
        <ele>389.92267</ele>
        <time>2023-06-04T12:58:33.000Z</time>
      </trkpt>
      <trkpt lat="45.88657" lon="4.67549">
        <ele>389.85358</ele>
        <time>2023-06-04T12:58:34.000Z</time>
      </trkpt>
      <trkpt lat="45.88654" lon="4.67547">
        <ele>389.80396</ele>
        <time>2023-06-04T12:58:35.000Z</time>
      </trkpt>
      <trkpt lat="45.88651" lon="4.67545">
        <ele>389.74713</ele>
        <time>2023-06-04T12:58:36.000Z</time>
      </trkpt>
      <trkpt lat="45.88648" lon="4.67542">
        <ele>389.68427</ele>
        <time>2023-06-04T12:58:37.000Z</time>
      </trkpt>
      <trkpt lat="45.88646" lon="4.6754">
        <ele>389.60092</ele>
        <time>2023-06-04T12:58:38.000Z</time>
      </trkpt>
      <trkpt lat="45.88644" lon="4.67537">
        <ele>389.50723</ele>
        <time>2023-06-04T12:58:39.000Z</time>
      </trkpt>
      <trkpt lat="45.88642" lon="4.67533">
        <ele>389.40079</ele>
        <time>2023-06-04T12:58:40.000Z</time>
      </trkpt>
      <trkpt lat="45.88639" lon="4.67531">
        <ele>389.35641</ele>
        <time>2023-06-04T12:58:41.000Z</time>
      </trkpt>
      <trkpt lat="45.88638" lon="4.67528">
        <ele>389.31525</ele>
        <time>2023-06-04T12:58:42.000Z</time>
      </trkpt>
      <trkpt lat="45.88636" lon="4.67525">
        <ele>389.24811</ele>
        <time>2023-06-04T12:58:43.000Z</time>
      </trkpt>
      <trkpt lat="45.88634" lon="4.67522">
        <ele>389.19858</ele>
        <time>2023-06-04T12:58:44.000Z</time>
      </trkpt>
      <trkpt lat="45.88633" lon="4.67519">
        <ele>389.15454</ele>
        <time>2023-06-04T12:58:45.000Z</time>
      </trkpt>
      <trkpt lat="45.88631" lon="4.67516">
        <ele>389.16263</ele>
        <time>2023-06-04T12:58:46.000Z</time>
      </trkpt>
      <trkpt lat="45.88629" lon="4.67515">
        <ele>389.19806</ele>
        <time>2023-06-04T12:58:47.000Z</time>
      </trkpt>
      <trkpt lat="45.88627" lon="4.67514">
        <ele>389.2175</ele>
        <time>2023-06-04T12:58:48.000Z</time>
      </trkpt>
      <trkpt lat="45.88624" lon="4.67513">
        <ele>389.20035</ele>
        <time>2023-06-04T12:58:49.000Z</time>
      </trkpt>
      <trkpt lat="45.88622" lon="4.67511">
        <ele>389.14044</ele>
        <time>2023-06-04T12:58:50.000Z</time>
      </trkpt>
      <trkpt lat="45.88621" lon="4.67507">
        <ele>389.15045</ele>
        <time>2023-06-04T12:58:51.000Z</time>
      </trkpt>
      <trkpt lat="45.88619" lon="4.67503">
        <ele>389.16541</ele>
        <time>2023-06-04T12:58:52.000Z</time>
      </trkpt>
      <trkpt lat="45.88618" lon="4.67499">
        <ele>389.18979</ele>
        <time>2023-06-04T12:58:53.000Z</time>
      </trkpt>
      <trkpt lat="45.88617" lon="4.67496">
        <ele>389.24939</ele>
        <time>2023-06-04T12:58:55.000Z</time>
      </trkpt>
      <trkpt lat="45.88619" lon="4.67498">
        <ele>389.29095</ele>
        <time>2023-06-04T12:58:58.000Z</time>
      </trkpt>
      <trkpt lat="45.8862" lon="4.675">
        <ele>389.33389</ele>
        <time>2023-06-04T12:58:59.000Z</time>
      </trkpt>
      <trkpt lat="45.88623" lon="4.67503">
        <ele>389.31204</ele>
        <time>2023-06-04T12:59:02.000Z</time>
      </trkpt>
      <trkpt lat="45.88625" lon="4.67502">
        <ele>389.29858</ele>
        <time>2023-06-04T12:59:04.000Z</time>
      </trkpt>
      <trkpt lat="45.88628" lon="4.67499">
        <ele>389.35065</ele>
        <time>2023-06-04T12:59:06.000Z</time>
      </trkpt>
      <trkpt lat="45.88629" lon="4.67496">
        <ele>389.41705</ele>
        <time>2023-06-04T12:59:07.000Z</time>
      </trkpt>
      <trkpt lat="45.8863" lon="4.67494">
        <ele>389.45306</ele>
        <time>2023-06-04T12:59:08.000Z</time>
      </trkpt>
      <trkpt lat="45.88632" lon="4.6749">
        <ele>389.50067</ele>
        <time>2023-06-04T12:59:10.000Z</time>
      </trkpt>
      <trkpt lat="45.88633" lon="4.67488">
        <ele>389.53601</ele>
        <time>2023-06-04T12:59:11.000Z</time>
      </trkpt>
      <trkpt lat="45.88634" lon="4.67485">
        <ele>389.56622</ele>
        <time>2023-06-04T12:59:12.000Z</time>
      </trkpt>
      <trkpt lat="45.88636" lon="4.67481">
        <ele>389.59726</ele>
        <time>2023-06-04T12:59:13.000Z</time>
      </trkpt>
      <trkpt lat="45.88637" lon="4.67477">
        <ele>389.61075</ele>
        <time>2023-06-04T12:59:14.000Z</time>
      </trkpt>
      <trkpt lat="45.88639" lon="4.67472">
        <ele>389.58661</ele>
        <time>2023-06-04T12:59:15.000Z</time>
      </trkpt>
      <trkpt lat="45.8864" lon="4.67469">
        <ele>389.55988</ele>
        <time>2023-06-04T12:59:16.000Z</time>
      </trkpt>
      <trkpt lat="45.88643" lon="4.67465">
        <ele>389.52524</ele>
        <time>2023-06-04T12:59:17.000Z</time>
      </trkpt>
      <trkpt lat="45.88645" lon="4.6746">
        <ele>389.56812</ele>
        <time>2023-06-04T12:59:18.000Z</time>
      </trkpt>
      <trkpt lat="45.88646" lon="4.67455">
        <ele>389.57001</ele>
        <time>2023-06-04T12:59:19.000Z</time>
      </trkpt>
      <trkpt lat="45.88646" lon="4.67449">
        <ele>389.59406</ele>
        <time>2023-06-04T12:59:20.000Z</time>
      </trkpt>
      <trkpt lat="45.88646" lon="4.67445">
        <ele>389.65009</ele>
        <time>2023-06-04T12:59:21.000Z</time>
      </trkpt>
      <trkpt lat="45.88646" lon="4.67441">
        <ele>389.66498</ele>
        <time>2023-06-04T12:59:22.000Z</time>
      </trkpt>
      <trkpt lat="45.88646" lon="4.67438">
        <ele>389.65939</ele>
        <time>2023-06-04T12:59:23.000Z</time>
      </trkpt>
      <trkpt lat="45.88647" lon="4.67434">
        <ele>389.6463</ele>
        <time>2023-06-04T12:59:24.000Z</time>
      </trkpt>
      <trkpt lat="45.88647" lon="4.67431">
        <ele>389.69534</ele>
        <time>2023-06-04T12:59:25.000Z</time>
      </trkpt>
      <trkpt lat="45.88647" lon="4.67426">
        <ele>389.77414</ele>
        <time>2023-06-04T12:59:27.000Z</time>
      </trkpt>
      <trkpt lat="45.88648" lon="4.67424">
        <ele>389.7941</ele>
        <time>2023-06-04T12:59:29.000Z</time>
      </trkpt>
      <trkpt lat="45.8865" lon="4.67422">
        <ele>389.78729</ele>
        <time>2023-06-04T12:59:31.000Z</time>
      </trkpt>
      <trkpt lat="45.88653" lon="4.67427">
        <ele>389.78244</ele>
        <time>2023-06-04T12:59:33.000Z</time>
      </trkpt>
      <trkpt lat="45.88654" lon="4.67433">
        <ele>389.78348</ele>
        <time>2023-06-04T12:59:34.000Z</time>
      </trkpt>
      <trkpt lat="45.88654" lon="4.67441">
        <ele>389.81308</ele>
        <time>2023-06-04T12:59:35.000Z</time>
      </trkpt>
      <trkpt lat="45.88654" lon="4.67449">
        <ele>389.86005</ele>
        <time>2023-06-04T12:59:36.000Z</time>
      </trkpt>
      <trkpt lat="45.88653" lon="4.67458">
        <ele>389.88153</ele>
        <time>2023-06-04T12:59:37.000Z</time>
      </trkpt>
      <trkpt lat="45.88644" lon="4.67474">
        <ele>390.17709</ele>
        <time>2023-06-04T12:59:38.000Z</time>
      </trkpt>
      <trkpt lat="45.88643" lon="4.67476">
        <ele>390.3974</ele>
        <time>2023-06-04T12:59:39.000Z</time>
      </trkpt>
      <trkpt lat="45.88636" lon="4.67475">
        <ele>390.39169</ele>
        <time>2023-06-04T12:59:40.000Z</time>
      </trkpt>
      <trkpt lat="45.88637" lon="4.67477">
        <ele>390.39813</ele>
        <time>2023-06-04T12:59:41.000Z</time>
      </trkpt>
      <trkpt lat="45.88633" lon="4.67479">
        <ele>390.36539</ele>
        <time>2023-06-04T12:59:42.000Z</time>
      </trkpt>
      <trkpt lat="45.88632" lon="4.67482">
        <ele>390.35223</ele>
        <time>2023-06-04T12:59:43.000Z</time>
      </trkpt>
      <trkpt lat="45.88631" lon="4.67487">
        <ele>390.28281</ele>
        <time>2023-06-04T12:59:44.000Z</time>
      </trkpt>
      <trkpt lat="45.8863" lon="4.67491">
        <ele>390.1983</ele>
        <time>2023-06-04T12:59:45.000Z</time>
      </trkpt>
      <trkpt lat="45.88629" lon="4.67494">
        <ele>390.14935</ele>
        <time>2023-06-04T12:59:46.000Z</time>
      </trkpt>
      <trkpt lat="45.8863" lon="4.67497">
        <ele>390.11917</ele>
        <time>2023-06-04T12:59:47.000Z</time>
      </trkpt>
      <trkpt lat="45.88627" lon="4.67498">
        <ele>390.09894</ele>
        <time>2023-06-04T12:59:48.000Z</time>
      </trkpt>
      <trkpt lat="45.88624" lon="4.67497">
        <ele>390.02368</ele>
        <time>2023-06-04T12:59:50.000Z</time>
      </trkpt>
      <trkpt lat="45.88621" lon="4.67497">
        <ele>389.94415</ele>
        <time>2023-06-04T12:59:52.000Z</time>
      </trkpt>
      <trkpt lat="45.88617" lon="4.67495">
        <ele>389.8692</ele>
        <time>2023-06-04T12:59:54.000Z</time>
      </trkpt>
      <trkpt lat="45.88615" lon="4.67493">
        <ele>389.78271</ele>
        <time>2023-06-04T12:59:55.000Z</time>
      </trkpt>
      <trkpt lat="45.88612" lon="4.6749">
        <ele>389.70001</ele>
        <time>2023-06-04T12:59:56.000Z</time>
      </trkpt>
      <trkpt lat="45.8861" lon="4.67489">
        <ele>389.61301</ele>
        <time>2023-06-04T12:59:57.000Z</time>
      </trkpt>
      <trkpt lat="45.88607" lon="4.67486">
        <ele>389.50574</ele>
        <time>2023-06-04T12:59:58.000Z</time>
      </trkpt>
      <trkpt lat="45.88604" lon="4.67483">
        <ele>389.42279</ele>
        <time>2023-06-04T12:59:59.000Z</time>
      </trkpt>
      <trkpt lat="45.886" lon="4.67481">
        <ele>389.37756</ele>
        <time>2023-06-04T13:00:00.000Z</time>
      </trkpt>
      <trkpt lat="45.88595" lon="4.67479">
        <ele>389.0668</ele>
        <time>2023-06-04T13:00:01.000Z</time>
      </trkpt>
      <trkpt lat="45.88591" lon="4.67477">
        <ele>388.82819</ele>
        <time>2023-06-04T13:00:02.000Z</time>
      </trkpt>
      <trkpt lat="45.88583" lon="4.67478">
        <ele>388.81049</ele>
        <time>2023-06-04T13:00:03.000Z</time>
      </trkpt>
      <trkpt lat="45.8858" lon="4.67476">
        <ele>388.76138</ele>
        <time>2023-06-04T13:00:04.000Z</time>
      </trkpt>
      <trkpt lat="45.88575" lon="4.67471">
        <ele>388.71255</ele>
        <time>2023-06-04T13:00:05.000Z</time>
      </trkpt>
      <trkpt lat="45.88569" lon="4.67469">
        <ele>388.68765</ele>
        <time>2023-06-04T13:00:06.000Z</time>
      </trkpt>
      <trkpt lat="45.88562" lon="4.67467">
        <ele>388.66968</ele>
        <time>2023-06-04T13:00:07.000Z</time>
      </trkpt>
      <trkpt lat="45.88556" lon="4.6746">
        <ele>388.60004</ele>
        <time>2023-06-04T13:00:08.000Z</time>
      </trkpt>
      <trkpt lat="45.88549" lon="4.67457">
        <ele>388.47531</ele>
        <time>2023-06-04T13:00:09.000Z</time>
      </trkpt>
      <trkpt lat="45.88542" lon="4.67454">
        <ele>388.34164</ele>
        <time>2023-06-04T13:00:10.000Z</time>
      </trkpt>
      <trkpt lat="45.88534" lon="4.67448">
        <ele>388.18381</ele>
        <time>2023-06-04T13:00:11.000Z</time>
      </trkpt>
      <trkpt lat="45.88526" lon="4.67444">
        <ele>388.03076</ele>
        <time>2023-06-04T13:00:12.000Z</time>
      </trkpt>
      <trkpt lat="45.88519" lon="4.67443">
        <ele>387.85535</ele>
        <time>2023-06-04T13:00:13.000Z</time>
      </trkpt>
      <trkpt lat="45.88516" lon="4.6744">
        <ele>387.68063</ele>
        <time>2023-06-04T13:00:14.000Z</time>
      </trkpt>
      <trkpt lat="45.88513" lon="4.67439">
        <ele>387.49921</ele>
        <time>2023-06-04T13:00:15.000Z</time>
      </trkpt>
      <trkpt lat="45.88511" lon="4.67438">
        <ele>387.3277</ele>
        <time>2023-06-04T13:00:16.000Z</time>
      </trkpt>
      <trkpt lat="45.88505" lon="4.67438">
        <ele>387.12268</ele>
        <time>2023-06-04T13:00:17.000Z</time>
      </trkpt>
      <trkpt lat="45.885" lon="4.67436">
        <ele>386.95477</ele>
        <time>2023-06-04T13:00:18.000Z</time>
      </trkpt>
      <trkpt lat="45.88498" lon="4.67438">
        <ele>386.7482</ele>
        <time>2023-06-04T13:00:19.000Z</time>
      </trkpt>
      <trkpt lat="45.88493" lon="4.67436">
        <ele>386.55984</ele>
        <time>2023-06-04T13:00:20.000Z</time>
      </trkpt>
      <trkpt lat="45.8849" lon="4.67434">
        <ele>386.39215</ele>
        <time>2023-06-04T13:00:21.000Z</time>
      </trkpt>
      <trkpt lat="45.88488" lon="4.67437">
        <ele>386.26385</ele>
        <time>2023-06-04T13:00:22.000Z</time>
      </trkpt>
      <trkpt lat="45.88484" lon="4.6744">
        <ele>386.15854</ele>
        <time>2023-06-04T13:00:23.000Z</time>
      </trkpt>
      <trkpt lat="45.88484" lon="4.67443">
        <ele>386.07407</ele>
        <time>2023-06-04T13:00:24.000Z</time>
      </trkpt>
      <trkpt lat="45.88483" lon="4.67449">
        <ele>386.00079</ele>
        <time>2023-06-04T13:00:25.000Z</time>
      </trkpt>
      <trkpt lat="45.8848" lon="4.67451">
        <ele>385.95703</ele>
        <time>2023-06-04T13:00:26.000Z</time>
      </trkpt>
      <trkpt lat="45.88481" lon="4.67454">
        <ele>385.94745</ele>
        <time>2023-06-04T13:00:28.000Z</time>
      </trkpt>
      <trkpt lat="45.88482" lon="4.67457">
        <ele>386.00186</ele>
        <time>2023-06-04T13:00:29.000Z</time>
      </trkpt>
      <trkpt lat="45.88482" lon="4.6746">
        <ele>386.08841</ele>
        <time>2023-06-04T13:00:30.000Z</time>
      </trkpt>
      <trkpt lat="45.88482" lon="4.67464">
        <ele>386.16498</ele>
        <time>2023-06-04T13:00:32.000Z</time>
      </trkpt>
      <trkpt lat="45.88479" lon="4.67468">
        <ele>386.2399</ele>
        <time>2023-06-04T13:00:34.000Z</time>
      </trkpt>
      <trkpt lat="45.88477" lon="4.67469">
        <ele>386.35153</ele>
        <time>2023-06-04T13:00:35.000Z</time>
      </trkpt>
      <trkpt lat="45.88474" lon="4.67471">
        <ele>386.42993</ele>
        <time>2023-06-04T13:00:36.000Z</time>
      </trkpt>
      <trkpt lat="45.88472" lon="4.6747">
        <ele>386.56107</ele>
        <time>2023-06-04T13:00:37.000Z</time>
      </trkpt>
      <trkpt lat="45.88474" lon="4.67472">
        <ele>386.7153</ele>
        <time>2023-06-04T13:00:41.000Z</time>
      </trkpt>
      <trkpt lat="45.88474" lon="4.67475">
        <ele>386.87445</ele>
        <time>2023-06-04T13:00:43.000Z</time>
      </trkpt>
      <trkpt lat="45.88472" lon="4.67473">
        <ele>386.98416</ele>
        <time>2023-06-04T13:00:45.000Z</time>
      </trkpt>
      <trkpt lat="45.88472" lon="4.67469">
        <ele>387.08282</ele>
        <time>2023-06-04T13:00:47.000Z</time>
      </trkpt>
      <trkpt lat="45.88473" lon="4.67466">
        <ele>387.23373</ele>
        <time>2023-06-04T13:00:48.000Z</time>
      </trkpt>
      <trkpt lat="45.88475" lon="4.67463">
        <ele>387.37177</ele>
        <time>2023-06-04T13:00:49.000Z</time>
      </trkpt>
      <trkpt lat="45.88477" lon="4.6746">
        <ele>387.49069</ele>
        <time>2023-06-04T13:00:50.000Z</time>
      </trkpt>
      <trkpt lat="45.88479" lon="4.67456">
        <ele>387.57318</ele>
        <time>2023-06-04T13:00:51.000Z</time>
      </trkpt>
      <trkpt lat="45.88479" lon="4.67451">
        <ele>387.61865</ele>
        <time>2023-06-04T13:00:52.000Z</time>
      </trkpt>
      <trkpt lat="45.88479" lon="4.67447">
        <ele>387.67593</ele>
        <time>2023-06-04T13:00:53.000Z</time>
      </trkpt>
      <trkpt lat="45.88477" lon="4.67444">
        <ele>387.7287</ele>
        <time>2023-06-04T13:00:54.000Z</time>
      </trkpt>
      <trkpt lat="45.88474" lon="4.67443">
        <ele>387.71768</ele>
        <time>2023-06-04T13:00:55.000Z</time>
      </trkpt>
      <trkpt lat="45.8847" lon="4.67443">
        <ele>387.68872</ele>
        <time>2023-06-04T13:00:56.000Z</time>
      </trkpt>
      <trkpt lat="45.88466" lon="4.67444">
        <ele>387.62164</ele>
        <time>2023-06-04T13:00:57.000Z</time>
      </trkpt>
      <trkpt lat="45.88462" lon="4.67444">
        <ele>387.51019</ele>
        <time>2023-06-04T13:00:58.000Z</time>
      </trkpt>
      <trkpt lat="45.88457" lon="4.67444">
        <ele>387.40854</ele>
        <time>2023-06-04T13:00:59.000Z</time>
      </trkpt>
      <trkpt lat="45.88454" lon="4.67445">
        <ele>387.32306</ele>
        <time>2023-06-04T13:01:00.000Z</time>
      </trkpt>
      <trkpt lat="45.88451" lon="4.67446">
        <ele>387.26614</ele>
        <time>2023-06-04T13:01:01.000Z</time>
      </trkpt>
      <trkpt lat="45.88448" lon="4.67447">
        <ele>387.23517</ele>
        <time>2023-06-04T13:01:02.000Z</time>
      </trkpt>
      <trkpt lat="45.88445" lon="4.67448">
        <ele>387.20438</ele>
        <time>2023-06-04T13:01:03.000Z</time>
      </trkpt>
      <trkpt lat="45.88441" lon="4.67449">
        <ele>387.15897</ele>
        <time>2023-06-04T13:01:04.000Z</time>
      </trkpt>
      <trkpt lat="45.88437" lon="4.67449">
        <ele>387.10806</ele>
        <time>2023-06-04T13:01:05.000Z</time>
      </trkpt>
      <trkpt lat="45.88433" lon="4.67449">
        <ele>387.13959</ele>
        <time>2023-06-04T13:01:06.000Z</time>
      </trkpt>
      <trkpt lat="45.88429" lon="4.67448">
        <ele>387.14316</ele>
        <time>2023-06-04T13:01:07.000Z</time>
      </trkpt>
      <trkpt lat="45.88426" lon="4.67448">
        <ele>387.16632</ele>
        <time>2023-06-04T13:01:08.000Z</time>
      </trkpt>
      <trkpt lat="45.88424" lon="4.67447">
        <ele>387.15024</ele>
        <time>2023-06-04T13:01:09.000Z</time>
      </trkpt>
      <trkpt lat="45.88421" lon="4.67446">
        <ele>387.14444</ele>
        <time>2023-06-04T13:01:10.000Z</time>
      </trkpt>
      <trkpt lat="45.88417" lon="4.67444">
        <ele>387.11346</ele>
        <time>2023-06-04T13:01:11.000Z</time>
      </trkpt>
      <trkpt lat="45.88413" lon="4.67442">
        <ele>387.1026</ele>
        <time>2023-06-04T13:01:12.000Z</time>
      </trkpt>
      <trkpt lat="45.8841" lon="4.6744">
        <ele>387.09286</ele>
        <time>2023-06-04T13:01:13.000Z</time>
      </trkpt>
      <trkpt lat="45.88407" lon="4.67438">
        <ele>387.08136</ele>
        <time>2023-06-04T13:01:14.000Z</time>
      </trkpt>
      <trkpt lat="45.88403" lon="4.67436">
        <ele>387.13931</ele>
        <time>2023-06-04T13:01:15.000Z</time>
      </trkpt>
      <trkpt lat="45.88399" lon="4.67434">
        <ele>387.17093</ele>
        <time>2023-06-04T13:01:16.000Z</time>
      </trkpt>
      <trkpt lat="45.88397" lon="4.67433">
        <ele>387.2189</ele>
        <time>2023-06-04T13:01:17.000Z</time>
      </trkpt>
      <trkpt lat="45.88394" lon="4.67432">
        <ele>387.30624</ele>
        <time>2023-06-04T13:01:18.000Z</time>
      </trkpt>
      <trkpt lat="45.88391" lon="4.6743">
        <ele>387.41202</ele>
        <time>2023-06-04T13:01:19.000Z</time>
      </trkpt>
      <trkpt lat="45.88387" lon="4.67429">
        <ele>387.54315</ele>
        <time>2023-06-04T13:01:20.000Z</time>
      </trkpt>
      <trkpt lat="45.88384" lon="4.67427">
        <ele>387.67572</ele>
        <time>2023-06-04T13:01:21.000Z</time>
      </trkpt>
      <trkpt lat="45.8838" lon="4.67426">
        <ele>387.79352</ele>
        <time>2023-06-04T13:01:22.000Z</time>
      </trkpt>
      <trkpt lat="45.88377" lon="4.67424">
        <ele>387.89441</ele>
        <time>2023-06-04T13:01:23.000Z</time>
      </trkpt>
      <trkpt lat="45.88373" lon="4.67423">
        <ele>388.02524</ele>
        <time>2023-06-04T13:01:24.000Z</time>
      </trkpt>
      <trkpt lat="45.88371" lon="4.67421">
        <ele>388.1694</ele>
        <time>2023-06-04T13:01:25.000Z</time>
      </trkpt>
      <trkpt lat="45.88368" lon="4.6742">
        <ele>388.33643</ele>
        <time>2023-06-04T13:01:26.000Z</time>
      </trkpt>
      <trkpt lat="45.88364" lon="4.67418">
        <ele>388.51825</ele>
        <time>2023-06-04T13:01:27.000Z</time>
      </trkpt>
      <trkpt lat="45.88362" lon="4.67417">
        <ele>388.65442</ele>
        <time>2023-06-04T13:01:28.000Z</time>
      </trkpt>
      <trkpt lat="45.88359" lon="4.67415">
        <ele>388.80621</ele>
        <time>2023-06-04T13:01:29.000Z</time>
      </trkpt>
      <trkpt lat="45.88355" lon="4.67414">
        <ele>388.93903</ele>
        <time>2023-06-04T13:01:30.000Z</time>
      </trkpt>
      <trkpt lat="45.88351" lon="4.67412">
        <ele>389.0813</ele>
        <time>2023-06-04T13:01:31.000Z</time>
      </trkpt>
      <trkpt lat="45.88348" lon="4.67411">
        <ele>389.20746</ele>
        <time>2023-06-04T13:01:32.000Z</time>
      </trkpt>
      <trkpt lat="45.88344" lon="4.67409">
        <ele>389.32343</ele>
        <time>2023-06-04T13:01:33.000Z</time>
      </trkpt>
      <trkpt lat="45.88342" lon="4.67407">
        <ele>389.44553</ele>
        <time>2023-06-04T13:01:34.000Z</time>
      </trkpt>
      <trkpt lat="45.8834" lon="4.67404">
        <ele>389.5069</ele>
        <time>2023-06-04T13:01:35.000Z</time>
      </trkpt>
      <trkpt lat="45.88337" lon="4.67402">
        <ele>389.57272</ele>
        <time>2023-06-04T13:01:36.000Z</time>
      </trkpt>
      <trkpt lat="45.88334" lon="4.67399">
        <ele>389.66315</ele>
        <time>2023-06-04T13:01:37.000Z</time>
      </trkpt>
      <trkpt lat="45.88331" lon="4.67398">
        <ele>389.73541</ele>
        <time>2023-06-04T13:01:38.000Z</time>
      </trkpt>
      <trkpt lat="45.88327" lon="4.67397">
        <ele>389.78284</ele>
        <time>2023-06-04T13:01:39.000Z</time>
      </trkpt>
      <trkpt lat="45.88322" lon="4.67396">
        <ele>389.81079</ele>
        <time>2023-06-04T13:01:40.000Z</time>
      </trkpt>
      <trkpt lat="45.88318" lon="4.67396">
        <ele>389.82983</ele>
        <time>2023-06-04T13:01:41.000Z</time>
      </trkpt>
      <trkpt lat="45.88314" lon="4.67394">
        <ele>389.84515</ele>
        <time>2023-06-04T13:01:42.000Z</time>
      </trkpt>
      <trkpt lat="45.8831" lon="4.67393">
        <ele>389.86816</ele>
        <time>2023-06-04T13:01:43.000Z</time>
      </trkpt>
      <trkpt lat="45.88307" lon="4.67392">
        <ele>389.88556</ele>
        <time>2023-06-04T13:01:44.000Z</time>
      </trkpt>
      <trkpt lat="45.88303" lon="4.6739">
        <ele>389.90845</ele>
        <time>2023-06-04T13:01:45.000Z</time>
      </trkpt>
      <trkpt lat="45.883" lon="4.67387">
        <ele>389.92813</ele>
        <time>2023-06-04T13:01:46.000Z</time>
      </trkpt>
      <trkpt lat="45.88297" lon="4.67385">
        <ele>389.92682</ele>
        <time>2023-06-04T13:01:47.000Z</time>
      </trkpt>
      <trkpt lat="45.88293" lon="4.67383">
        <ele>389.9296</ele>
        <time>2023-06-04T13:01:48.000Z</time>
      </trkpt>
      <trkpt lat="45.8829" lon="4.67381">
        <ele>389.91724</ele>
        <time>2023-06-04T13:01:49.000Z</time>
      </trkpt>
      <trkpt lat="45.88287" lon="4.67381">
        <ele>389.88953</ele>
        <time>2023-06-04T13:01:50.000Z</time>
      </trkpt>
      <trkpt lat="45.88285" lon="4.67379">
        <ele>389.88586</ele>
        <time>2023-06-04T13:01:51.000Z</time>
      </trkpt>
      <trkpt lat="45.88282" lon="4.67378">
        <ele>389.90225</ele>
        <time>2023-06-04T13:01:52.000Z</time>
      </trkpt>
      <trkpt lat="45.88279" lon="4.67376">
        <ele>389.92682</ele>
        <time>2023-06-04T13:01:53.000Z</time>
      </trkpt>
      <trkpt lat="45.88276" lon="4.67376">
        <ele>389.92352</ele>
        <time>2023-06-04T13:01:54.000Z</time>
      </trkpt>
      <trkpt lat="45.88273" lon="4.67377">
        <ele>389.94104</ele>
        <time>2023-06-04T13:01:55.000Z</time>
      </trkpt>
      <trkpt lat="45.88269" lon="4.67377">
        <ele>389.96436</ele>
        <time>2023-06-04T13:01:56.000Z</time>
      </trkpt>
      <trkpt lat="45.88266" lon="4.67378">
        <ele>390.02051</ele>
        <time>2023-06-04T13:01:57.000Z</time>
      </trkpt>
      <trkpt lat="45.88263" lon="4.67378">
        <ele>390.08856</ele>
        <time>2023-06-04T13:01:58.000Z</time>
      </trkpt>
      <trkpt lat="45.8826" lon="4.67377">
        <ele>390.18311</ele>
        <time>2023-06-04T13:01:59.000Z</time>
      </trkpt>
      <trkpt lat="45.88258" lon="4.67376">
        <ele>390.2738</ele>
        <time>2023-06-04T13:02:00.000Z</time>
      </trkpt>
      <trkpt lat="45.88255" lon="4.67375">
        <ele>390.37915</ele>
        <time>2023-06-04T13:02:01.000Z</time>
      </trkpt>
      <trkpt lat="45.88252" lon="4.67374">
        <ele>390.54068</ele>
        <time>2023-06-04T13:02:02.000Z</time>
      </trkpt>
      <trkpt lat="45.88248" lon="4.67373">
        <ele>390.67874</ele>
        <time>2023-06-04T13:02:03.000Z</time>
      </trkpt>
      <trkpt lat="45.88245" lon="4.67372">
        <ele>390.90369</ele>
        <time>2023-06-04T13:02:04.000Z</time>
      </trkpt>
      <trkpt lat="45.88243" lon="4.67373">
        <ele>391.10208</ele>
        <time>2023-06-04T13:02:05.000Z</time>
      </trkpt>
      <trkpt lat="45.88239" lon="4.67373">
        <ele>391.23553</ele>
        <time>2023-06-04T13:02:06.000Z</time>
      </trkpt>
      <trkpt lat="45.88236" lon="4.67375">
        <ele>391.35614</ele>
        <time>2023-06-04T13:02:07.000Z</time>
      </trkpt>
      <trkpt lat="45.88233" lon="4.67375">
        <ele>391.45642</ele>
        <time>2023-06-04T13:02:08.000Z</time>
      </trkpt>
      <trkpt lat="45.8823" lon="4.67374">
        <ele>391.58307</ele>
        <time>2023-06-04T13:02:09.000Z</time>
      </trkpt>
      <trkpt lat="45.88227" lon="4.67373">
        <ele>391.73352</ele>
        <time>2023-06-04T13:02:10.000Z</time>
      </trkpt>
      <trkpt lat="45.88223" lon="4.67371">
        <ele>391.84662</ele>
        <time>2023-06-04T13:02:11.000Z</time>
      </trkpt>
      <trkpt lat="45.88219" lon="4.6737">
        <ele>391.97736</ele>
        <time>2023-06-04T13:02:12.000Z</time>
      </trkpt>
      <trkpt lat="45.88216" lon="4.6737">
        <ele>392.10938</ele>
        <time>2023-06-04T13:02:13.000Z</time>
      </trkpt>
      <trkpt lat="45.88213" lon="4.67371">
        <ele>392.27927</ele>
        <time>2023-06-04T13:02:14.000Z</time>
      </trkpt>
      <trkpt lat="45.8821" lon="4.67372">
        <ele>392.47913</ele>
        <time>2023-06-04T13:02:15.000Z</time>
      </trkpt>
      <trkpt lat="45.88208" lon="4.67372">
        <ele>392.64264</ele>
        <time>2023-06-04T13:02:16.000Z</time>
      </trkpt>
      <trkpt lat="45.88206" lon="4.67372">
        <ele>392.79318</ele>
        <time>2023-06-04T13:02:17.000Z</time>
      </trkpt>
      <trkpt lat="45.88203" lon="4.67372">
        <ele>392.92999</ele>
        <time>2023-06-04T13:02:18.000Z</time>
      </trkpt>
      <trkpt lat="45.882" lon="4.67372">
        <ele>393.06812</ele>
        <time>2023-06-04T13:02:19.000Z</time>
      </trkpt>
      <trkpt lat="45.88197" lon="4.67372">
        <ele>393.20343</ele>
        <time>2023-06-04T13:02:20.000Z</time>
      </trkpt>
      <trkpt lat="45.88194" lon="4.67372">
        <ele>393.33353</ele>
        <time>2023-06-04T13:02:21.000Z</time>
      </trkpt>
      <trkpt lat="45.88191" lon="4.67372">
        <ele>393.4566</ele>
        <time>2023-06-04T13:02:22.000Z</time>
      </trkpt>
      <trkpt lat="45.88189" lon="4.67372">
        <ele>393.56952</ele>
        <time>2023-06-04T13:02:23.000Z</time>
      </trkpt>
      <trkpt lat="45.88187" lon="4.67373">
        <ele>393.6431</ele>
        <time>2023-06-04T13:02:24.000Z</time>
      </trkpt>
      <trkpt lat="45.88184" lon="4.67373">
        <ele>393.68936</ele>
        <time>2023-06-04T13:02:25.000Z</time>
      </trkpt>
      <trkpt lat="45.8818" lon="4.67372">
        <ele>393.76511</ele>
        <time>2023-06-04T13:02:26.000Z</time>
      </trkpt>
      <trkpt lat="45.88177" lon="4.67372">
        <ele>393.9165</ele>
        <time>2023-06-04T13:02:27.000Z</time>
      </trkpt>
      <trkpt lat="45.88173" lon="4.67373">
        <ele>394.00098</ele>
        <time>2023-06-04T13:02:28.000Z</time>
      </trkpt>
      <trkpt lat="45.88171" lon="4.67377">
        <ele>394.05475</ele>
        <time>2023-06-04T13:02:29.000Z</time>
      </trkpt>
      <trkpt lat="45.88174" lon="4.67396">
        <ele>394.07962</ele>
        <time>2023-06-04T13:02:30.000Z</time>
      </trkpt>
      <trkpt lat="45.8817" lon="4.67402">
        <ele>394.14603</ele>
        <time>2023-06-04T13:02:31.000Z</time>
      </trkpt>
      <trkpt lat="45.88168" lon="4.67409">
        <ele>394.20404</ele>
        <time>2023-06-04T13:02:32.000Z</time>
      </trkpt>
      <trkpt lat="45.88166" lon="4.67417">
        <ele>394.22043</ele>
        <time>2023-06-04T13:02:33.000Z</time>
      </trkpt>
      <trkpt lat="45.88164" lon="4.67424">
        <ele>394.23575</ele>
        <time>2023-06-04T13:02:34.000Z</time>
      </trkpt>
      <trkpt lat="45.88163" lon="4.67431">
        <ele>394.23517</ele>
        <time>2023-06-04T13:02:35.000Z</time>
      </trkpt>
      <trkpt lat="45.8816" lon="4.67439">
        <ele>394.27155</ele>
        <time>2023-06-04T13:02:36.000Z</time>
      </trkpt>
      <trkpt lat="45.8816" lon="4.67445">
        <ele>394.27264</ele>
        <time>2023-06-04T13:02:37.000Z</time>
      </trkpt>
      <trkpt lat="45.88153" lon="4.67444">
        <ele>394.23236</ele>
        <time>2023-06-04T13:02:38.000Z</time>
      </trkpt>
      <trkpt lat="45.88151" lon="4.67441">
        <ele>394.12909</ele>
        <time>2023-06-04T13:02:39.000Z</time>
      </trkpt>
      <trkpt lat="45.88149" lon="4.67437">
        <ele>394.00153</ele>
        <time>2023-06-04T13:02:40.000Z</time>
      </trkpt>
      <trkpt lat="45.88144" lon="4.67432">
        <ele>393.94293</ele>
        <time>2023-06-04T13:02:41.000Z</time>
      </trkpt>
      <trkpt lat="45.8814" lon="4.67428">
        <ele>393.82373</ele>
        <time>2023-06-04T13:02:42.000Z</time>
      </trkpt>
      <trkpt lat="45.88138" lon="4.67426">
        <ele>393.75439</ele>
        <time>2023-06-04T13:02:43.000Z</time>
      </trkpt>
      <trkpt lat="45.88135" lon="4.67427">
        <ele>393.66617</ele>
        <time>2023-06-04T13:02:44.000Z</time>
      </trkpt>
      <trkpt lat="45.88131" lon="4.67425">
        <ele>393.64987</ele>
        <time>2023-06-04T13:02:45.000Z</time>
      </trkpt>
      <trkpt lat="45.88128" lon="4.67423">
        <ele>393.61218</ele>
        <time>2023-06-04T13:02:46.000Z</time>
      </trkpt>
      <trkpt lat="45.88126" lon="4.67423">
        <ele>393.53415</ele>
        <time>2023-06-04T13:02:47.000Z</time>
      </trkpt>
      <trkpt lat="45.88124" lon="4.67421">
        <ele>393.50546</ele>
        <time>2023-06-04T13:02:48.000Z</time>
      </trkpt>
      <trkpt lat="45.88123" lon="4.67419">
        <ele>393.47421</ele>
        <time>2023-06-04T13:02:49.000Z</time>
      </trkpt>
      <trkpt lat="45.88121" lon="4.67418">
        <ele>393.46429</ele>
        <time>2023-06-04T13:02:50.000Z</time>
      </trkpt>
      <trkpt lat="45.88119" lon="4.67415">
        <ele>393.45804</ele>
        <time>2023-06-04T13:02:51.000Z</time>
      </trkpt>
      <trkpt lat="45.88117" lon="4.67414">
        <ele>393.44016</ele>
        <time>2023-06-04T13:02:52.000Z</time>
      </trkpt>
      <trkpt lat="45.88116" lon="4.67413">
        <ele>393.44781</ele>
        <time>2023-06-04T13:02:53.000Z</time>
      </trkpt>
      <trkpt lat="45.88113" lon="4.67411">
        <ele>392.84283</ele>
        <time>2023-06-04T13:02:55.000Z</time>
      </trkpt>
      <trkpt lat="45.88117" lon="4.67413">
        <ele>392.34787</ele>
        <time>2023-06-04T13:02:59.000Z</time>
      </trkpt>
      <trkpt lat="45.8812" lon="4.67415">
        <ele>392.289</ele>
        <time>2023-06-04T13:03:00.000Z</time>
      </trkpt>
      <trkpt lat="45.88123" lon="4.67417">
        <ele>392.40073</ele>
        <time>2023-06-04T13:03:01.000Z</time>
      </trkpt>
      <trkpt lat="45.88127" lon="4.6742">
        <ele>392.53845</ele>
        <time>2023-06-04T13:03:02.000Z</time>
      </trkpt>
      <trkpt lat="45.88131" lon="4.67423">
        <ele>392.76764</ele>
        <time>2023-06-04T13:03:03.000Z</time>
      </trkpt>
      <trkpt lat="45.88135" lon="4.67426">
        <ele>393.01556</ele>
        <time>2023-06-04T13:03:04.000Z</time>
      </trkpt>
      <trkpt lat="45.88138" lon="4.67428">
        <ele>393.21942</ele>
        <time>2023-06-04T13:03:05.000Z</time>
      </trkpt>
      <trkpt lat="45.88141" lon="4.6743">
        <ele>393.48816</ele>
        <time>2023-06-04T13:03:06.000Z</time>
      </trkpt>
      <trkpt lat="45.88143" lon="4.67432">
        <ele>393.7171</ele>
        <time>2023-06-04T13:03:07.000Z</time>
      </trkpt>
      <trkpt lat="45.88146" lon="4.67434">
        <ele>393.89832</ele>
        <time>2023-06-04T13:03:08.000Z</time>
      </trkpt>
      <trkpt lat="45.88154" lon="4.6744">
        <ele>394.02164</ele>
        <time>2023-06-04T13:03:09.000Z</time>
      </trkpt>
      <trkpt lat="45.88157" lon="4.67444">
        <ele>394.20746</ele>
        <time>2023-06-04T13:03:11.000Z</time>
      </trkpt>
      <trkpt lat="45.88156" lon="4.67448">
        <ele>394.36627</ele>
        <time>2023-06-04T13:03:12.000Z</time>
      </trkpt>
      <trkpt lat="45.88156" lon="4.67451">
        <ele>394.53973</ele>
        <time>2023-06-04T13:03:13.000Z</time>
      </trkpt>
      <trkpt lat="45.88155" lon="4.67456">
        <ele>394.71075</ele>
        <time>2023-06-04T13:03:14.000Z</time>
      </trkpt>
      <trkpt lat="45.88153" lon="4.67461">
        <ele>394.87836</ele>
        <time>2023-06-04T13:03:15.000Z</time>
      </trkpt>
      <trkpt lat="45.8815" lon="4.67465">
        <ele>395.01456</ele>
        <time>2023-06-04T13:03:16.000Z</time>
      </trkpt>
      <trkpt lat="45.88147" lon="4.6747">
        <ele>395.13983</ele>
        <time>2023-06-04T13:03:17.000Z</time>
      </trkpt>
      <trkpt lat="45.88147" lon="4.67476">
        <ele>395.27969</ele>
        <time>2023-06-04T13:03:18.000Z</time>
      </trkpt>
      <trkpt lat="45.88145" lon="4.67481">
        <ele>396.0311</ele>
        <time>2023-06-04T13:03:19.000Z</time>
      </trkpt>
      <trkpt lat="45.88144" lon="4.67485">
        <ele>396.67636</ele>
        <time>2023-06-04T13:03:20.000Z</time>
      </trkpt>
      <trkpt lat="45.88143" lon="4.6749">
        <ele>396.89767</ele>
        <time>2023-06-04T13:03:21.000Z</time>
      </trkpt>
      <trkpt lat="45.88142" lon="4.67494">
        <ele>396.93365</ele>
        <time>2023-06-04T13:03:22.000Z</time>
      </trkpt>
      <trkpt lat="45.88141" lon="4.67498">
        <ele>397.02707</ele>
        <time>2023-06-04T13:03:23.000Z</time>
      </trkpt>
      <trkpt lat="45.8814" lon="4.67503">
        <ele>397.10931</ele>
        <time>2023-06-04T13:03:24.000Z</time>
      </trkpt>
      <trkpt lat="45.88138" lon="4.67507">
        <ele>397.17749</ele>
        <time>2023-06-04T13:03:25.000Z</time>
      </trkpt>
      <trkpt lat="45.88136" lon="4.67511">
        <ele>397.22144</ele>
        <time>2023-06-04T13:03:26.000Z</time>
      </trkpt>
      <trkpt lat="45.88134" lon="4.67513">
        <ele>397.19394</ele>
        <time>2023-06-04T13:03:27.000Z</time>
      </trkpt>
      <trkpt lat="45.88132" lon="4.67516">
        <ele>397.14142</ele>
        <time>2023-06-04T13:03:28.000Z</time>
      </trkpt>
      <trkpt lat="45.8813" lon="4.6752">
        <ele>397.09821</ele>
        <time>2023-06-04T13:03:29.000Z</time>
      </trkpt>
      <trkpt lat="45.88128" lon="4.67524">
        <ele>397.08859</ele>
        <time>2023-06-04T13:03:30.000Z</time>
      </trkpt>
      <trkpt lat="45.88127" lon="4.67529">
        <ele>397.05243</ele>
        <time>2023-06-04T13:03:31.000Z</time>
      </trkpt>
      <trkpt lat="45.88126" lon="4.67534">
        <ele>397.0654</ele>
        <time>2023-06-04T13:03:32.000Z</time>
      </trkpt>
      <trkpt lat="45.88124" lon="4.67538">
        <ele>397.0853</ele>
        <time>2023-06-04T13:03:33.000Z</time>
      </trkpt>
      <trkpt lat="45.88122" lon="4.67542">
        <ele>397.15228</ele>
        <time>2023-06-04T13:03:34.000Z</time>
      </trkpt>
      <trkpt lat="45.8812" lon="4.67544">
        <ele>397.26251</ele>
        <time>2023-06-04T13:03:35.000Z</time>
      </trkpt>
      <trkpt lat="45.88117" lon="4.67544">
        <ele>397.40234</ele>
        <time>2023-06-04T13:03:36.000Z</time>
      </trkpt>
      <trkpt lat="45.88114" lon="4.67543">
        <ele>397.5499</ele>
        <time>2023-06-04T13:03:37.000Z</time>
      </trkpt>
      <trkpt lat="45.88111" lon="4.67542">
        <ele>397.72357</ele>
        <time>2023-06-04T13:03:38.000Z</time>
      </trkpt>
      <trkpt lat="45.88108" lon="4.67541">
        <ele>397.89032</ele>
        <time>2023-06-04T13:03:39.000Z</time>
      </trkpt>
      <trkpt lat="45.88105" lon="4.67539">
        <ele>398.06024</ele>
        <time>2023-06-04T13:03:40.000Z</time>
      </trkpt>
      <trkpt lat="45.88103" lon="4.67538">
        <ele>398.25433</ele>
        <time>2023-06-04T13:03:41.000Z</time>
      </trkpt>
      <trkpt lat="45.881" lon="4.67536">
        <ele>398.47845</ele>
        <time>2023-06-04T13:03:42.000Z</time>
      </trkpt>
      <trkpt lat="45.88098" lon="4.67535">
        <ele>398.70938</ele>
        <time>2023-06-04T13:03:43.000Z</time>
      </trkpt>
      <trkpt lat="45.88095" lon="4.67533">
        <ele>398.90182</ele>
        <time>2023-06-04T13:03:44.000Z</time>
      </trkpt>
      <trkpt lat="45.88092" lon="4.67532">
        <ele>399.1011</ele>
        <time>2023-06-04T13:03:45.000Z</time>
      </trkpt>
      <trkpt lat="45.8809" lon="4.6753">
        <ele>399.28864</ele>
        <time>2023-06-04T13:03:46.000Z</time>
      </trkpt>
      <trkpt lat="45.88087" lon="4.67528">
        <ele>399.49597</ele>
        <time>2023-06-04T13:03:47.000Z</time>
      </trkpt>
      <trkpt lat="45.88084" lon="4.67527">
        <ele>399.77917</ele>
        <time>2023-06-04T13:03:48.000Z</time>
      </trkpt>
      <trkpt lat="45.88081" lon="4.67526">
        <ele>399.70102</ele>
        <time>2023-06-04T13:03:49.000Z</time>
      </trkpt>
      <trkpt lat="45.88079" lon="4.67524">
        <ele>399.49359</ele>
        <time>2023-06-04T13:03:50.000Z</time>
      </trkpt>
      <trkpt lat="45.88075" lon="4.6752">
        <ele>399.26935</ele>
        <time>2023-06-04T13:03:51.000Z</time>
      </trkpt>
      <trkpt lat="45.88072" lon="4.6752">
        <ele>399.00366</ele>
        <time>2023-06-04T13:03:52.000Z</time>
      </trkpt>
      <trkpt lat="45.88069" lon="4.67515">
        <ele>398.70355</ele>
        <time>2023-06-04T13:03:53.000Z</time>
      </trkpt>
      <trkpt lat="45.88066" lon="4.67516">
        <ele>398.44931</ele>
        <time>2023-06-04T13:03:54.000Z</time>
      </trkpt>
      <trkpt lat="45.88064" lon="4.67513">
        <ele>398.12143</ele>
        <time>2023-06-04T13:03:55.000Z</time>
      </trkpt>
      <trkpt lat="45.8806" lon="4.67513">
        <ele>397.66196</ele>
        <time>2023-06-04T13:03:56.000Z</time>
      </trkpt>
      <trkpt lat="45.88056" lon="4.67512">
        <ele>397.20386</ele>
        <time>2023-06-04T13:03:57.000Z</time>
      </trkpt>
      <trkpt lat="45.88052" lon="4.67512">
        <ele>396.65552</ele>
        <time>2023-06-04T13:03:58.000Z</time>
      </trkpt>
      <trkpt lat="45.88048" lon="4.6751">
        <ele>396.08252</ele>
        <time>2023-06-04T13:04:01.000Z</time>
      </trkpt>
      <trkpt lat="45.88042" lon="4.67509">
        <ele>395.47198</ele>
        <time>2023-06-04T13:04:02.000Z</time>
      </trkpt>
      <trkpt lat="45.88039" lon="4.67507">
        <ele>394.87469</ele>
        <time>2023-06-04T13:04:03.000Z</time>
      </trkpt>
      <trkpt lat="45.88035" lon="4.67506">
        <ele>394.30338</ele>
        <time>2023-06-04T13:04:04.000Z</time>
      </trkpt>
      <trkpt lat="45.88032" lon="4.67506">
        <ele>393.69647</ele>
        <time>2023-06-04T13:04:05.000Z</time>
      </trkpt>
      <trkpt lat="45.88029" lon="4.67505">
        <ele>393.12457</ele>
        <time>2023-06-04T13:04:06.000Z</time>
      </trkpt>
      <trkpt lat="45.88027" lon="4.67504">
        <ele>392.53281</ele>
        <time>2023-06-04T13:04:07.000Z</time>
      </trkpt>
      <trkpt lat="45.88024" lon="4.67502">
        <ele>391.97031</ele>
        <time>2023-06-04T13:04:08.000Z</time>
      </trkpt>
      <trkpt lat="45.88021" lon="4.67502">
        <ele>391.41791</ele>
        <time>2023-06-04T13:04:09.000Z</time>
      </trkpt>
      <trkpt lat="45.88018" lon="4.67502">
        <ele>390.76428</ele>
        <time>2023-06-04T13:04:10.000Z</time>
      </trkpt>
      <trkpt lat="45.88014" lon="4.67502">
        <ele>390.47748</ele>
        <time>2023-06-04T13:04:11.000Z</time>
      </trkpt>
      <trkpt lat="45.88011" lon="4.67502">
        <ele>390.29184</ele>
        <time>2023-06-04T13:04:12.000Z</time>
      </trkpt>
      <trkpt lat="45.88008" lon="4.67501">
        <ele>390.11002</ele>
        <time>2023-06-04T13:04:13.000Z</time>
      </trkpt>
      <trkpt lat="45.88004" lon="4.67499">
        <ele>389.9433</ele>
        <time>2023-06-04T13:04:14.000Z</time>
      </trkpt>
      <trkpt lat="45.88001" lon="4.67498">
        <ele>390.54547</ele>
        <time>2023-06-04T13:04:15.000Z</time>
      </trkpt>
      <trkpt lat="45.87998" lon="4.67496">
        <ele>391.07315</ele>
        <time>2023-06-04T13:04:16.000Z</time>
      </trkpt>
      <trkpt lat="45.87995" lon="4.67495">
        <ele>391.64575</ele>
        <time>2023-06-04T13:04:17.000Z</time>
      </trkpt>
      <trkpt lat="45.87993" lon="4.67493">
        <ele>392.32977</ele>
        <time>2023-06-04T13:04:19.000Z</time>
      </trkpt>
      <trkpt lat="45.87992" lon="4.67491">
        <ele>392.99628</ele>
        <time>2023-06-04T13:04:21.000Z</time>
      </trkpt>
      <trkpt lat="45.87991" lon="4.67488">
        <ele>393.75482</ele>
        <time>2023-06-04T13:04:22.000Z</time>
      </trkpt>
      <trkpt lat="45.87989" lon="4.67484">
        <ele>394.48032</ele>
        <time>2023-06-04T13:04:23.000Z</time>
      </trkpt>
      <trkpt lat="45.87986" lon="4.6748">
        <ele>395.32785</ele>
        <time>2023-06-04T13:04:24.000Z</time>
      </trkpt>
      <trkpt lat="45.87983" lon="4.67477">
        <ele>396.09796</ele>
        <time>2023-06-04T13:04:25.000Z</time>
      </trkpt>
      <trkpt lat="45.8798" lon="4.67476">
        <ele>396.76331</ele>
        <time>2023-06-04T13:04:26.000Z</time>
      </trkpt>
      <trkpt lat="45.87978" lon="4.67477">
        <ele>396.46729</ele>
        <time>2023-06-04T13:04:27.000Z</time>
      </trkpt>
      <trkpt lat="45.87976" lon="4.67479">
        <ele>397.24469</ele>
        <time>2023-06-04T13:04:28.000Z</time>
      </trkpt>
      <trkpt lat="45.87974" lon="4.67482">
        <ele>398.06326</ele>
        <time>2023-06-04T13:04:29.000Z</time>
      </trkpt>
      <trkpt lat="45.87973" lon="4.67486">
        <ele>398.88593</ele>
        <time>2023-06-04T13:04:30.000Z</time>
      </trkpt>
      <trkpt lat="45.87972" lon="4.6749">
        <ele>399.74713</ele>
        <time>2023-06-04T13:04:31.000Z</time>
      </trkpt>
      <trkpt lat="45.87971" lon="4.67495">
        <ele>400.65546</ele>
        <time>2023-06-04T13:04:32.000Z</time>
      </trkpt>
      <trkpt lat="45.87971" lon="4.675">
        <ele>401.5838</ele>
        <time>2023-06-04T13:04:33.000Z</time>
      </trkpt>
      <trkpt lat="45.87971" lon="4.67506">
        <ele>402.55853</ele>
        <time>2023-06-04T13:04:34.000Z</time>
      </trkpt>
      <trkpt lat="45.87971" lon="4.67509">
        <ele>403.49832</ele>
        <time>2023-06-04T13:04:35.000Z</time>
      </trkpt>
      <trkpt lat="45.8797" lon="4.67515">
        <ele>404.40958</ele>
        <time>2023-06-04T13:04:37.000Z</time>
      </trkpt>
      <trkpt lat="45.87968" lon="4.67519">
        <ele>404.58154</ele>
        <time>2023-06-04T13:04:38.000Z</time>
      </trkpt>
      <trkpt lat="45.87966" lon="4.67523">
        <ele>404.76913</ele>
        <time>2023-06-04T13:04:39.000Z</time>
      </trkpt>
      <trkpt lat="45.87964" lon="4.67525">
        <ele>404.97586</ele>
        <time>2023-06-04T13:04:40.000Z</time>
      </trkpt>
      <trkpt lat="45.87962" lon="4.67527">
        <ele>405.17484</ele>
        <time>2023-06-04T13:04:41.000Z</time>
      </trkpt>
      <trkpt lat="45.87959" lon="4.6753">
        <ele>405.31992</ele>
        <time>2023-06-04T13:04:42.000Z</time>
      </trkpt>
      <trkpt lat="45.87956" lon="4.67533">
        <ele>405.42511</ele>
        <time>2023-06-04T13:04:43.000Z</time>
      </trkpt>
      <trkpt lat="45.87954" lon="4.67536">
        <ele>405.63019</ele>
        <time>2023-06-04T13:04:44.000Z</time>
      </trkpt>
      <trkpt lat="45.87952" lon="4.67539">
        <ele>405.77277</ele>
        <time>2023-06-04T13:04:45.000Z</time>
      </trkpt>
      <trkpt lat="45.8795" lon="4.67543">
        <ele>405.95135</ele>
        <time>2023-06-04T13:04:46.000Z</time>
      </trkpt>
      <trkpt lat="45.87947" lon="4.67547">
        <ele>406.17712</ele>
        <time>2023-06-04T13:04:47.000Z</time>
      </trkpt>
      <trkpt lat="45.87946" lon="4.6755">
        <ele>407.40305</ele>
        <time>2023-06-04T13:04:48.000Z</time>
      </trkpt>
      <trkpt lat="45.87944" lon="4.67554">
        <ele>407.56674</ele>
        <time>2023-06-04T13:04:49.000Z</time>
      </trkpt>
      <trkpt lat="45.87943" lon="4.67558">
        <ele>407.67734</ele>
        <time>2023-06-04T13:04:50.000Z</time>
      </trkpt>
      <trkpt lat="45.87941" lon="4.67561">
        <ele>407.81064</ele>
        <time>2023-06-04T13:04:51.000Z</time>
      </trkpt>
      <trkpt lat="45.8794" lon="4.67565">
        <ele>407.86292</ele>
        <time>2023-06-04T13:04:52.000Z</time>
      </trkpt>
      <trkpt lat="45.87938" lon="4.67568">
        <ele>407.8313</ele>
        <time>2023-06-04T13:04:53.000Z</time>
      </trkpt>
      <trkpt lat="45.87938" lon="4.67572">
        <ele>408.047</ele>
        <time>2023-06-04T13:04:54.000Z</time>
      </trkpt>
      <trkpt lat="45.87936" lon="4.67575">
        <ele>408.23087</ele>
        <time>2023-06-04T13:04:55.000Z</time>
      </trkpt>
      <trkpt lat="45.87935" lon="4.67579">
        <ele>408.42365</ele>
        <time>2023-06-04T13:04:56.000Z</time>
      </trkpt>
      <trkpt lat="45.87934" lon="4.67583">
        <ele>408.67126</ele>
        <time>2023-06-04T13:04:57.000Z</time>
      </trkpt>
      <trkpt lat="45.87932" lon="4.67587">
        <ele>408.94202</ele>
        <time>2023-06-04T13:04:58.000Z</time>
      </trkpt>
      <trkpt lat="45.87931" lon="4.67592">
        <ele>409.17014</ele>
        <time>2023-06-04T13:04:59.000Z</time>
      </trkpt>
      <trkpt lat="45.87931" lon="4.67597">
        <ele>409.31064</ele>
        <time>2023-06-04T13:05:00.000Z</time>
      </trkpt>
      <trkpt lat="45.8793" lon="4.67603">
        <ele>409.4444</ele>
        <time>2023-06-04T13:05:01.000Z</time>
      </trkpt>
      <trkpt lat="45.8793" lon="4.67608">
        <ele>409.63126</ele>
        <time>2023-06-04T13:05:02.000Z</time>
      </trkpt>
      <trkpt lat="45.8793" lon="4.67613">
        <ele>409.92398</ele>
        <time>2023-06-04T13:05:03.000Z</time>
      </trkpt>
      <trkpt lat="45.8793" lon="4.67617">
        <ele>410.21503</ele>
        <time>2023-06-04T13:05:04.000Z</time>
      </trkpt>
      <trkpt lat="45.87929" lon="4.67623">
        <ele>410.49176</ele>
        <time>2023-06-04T13:05:05.000Z</time>
      </trkpt>
      <trkpt lat="45.87928" lon="4.67627">
        <ele>410.81894</ele>
        <time>2023-06-04T13:05:06.000Z</time>
      </trkpt>
      <trkpt lat="45.87926" lon="4.67632">
        <ele>411.17572</ele>
        <time>2023-06-04T13:05:07.000Z</time>
      </trkpt>
      <trkpt lat="45.87924" lon="4.67636">
        <ele>411.40021</ele>
        <time>2023-06-04T13:05:08.000Z</time>
      </trkpt>
      <trkpt lat="45.87922" lon="4.67639">
        <ele>411.58966</ele>
        <time>2023-06-04T13:05:09.000Z</time>
      </trkpt>
      <trkpt lat="45.87921" lon="4.67643">
        <ele>411.82977</ele>
        <time>2023-06-04T13:05:10.000Z</time>
      </trkpt>
      <trkpt lat="45.87918" lon="4.67646">
        <ele>411.9765</ele>
        <time>2023-06-04T13:05:11.000Z</time>
      </trkpt>
      <trkpt lat="45.87916" lon="4.67649">
        <ele>412.01505</ele>
        <time>2023-06-04T13:05:12.000Z</time>
      </trkpt>
      <trkpt lat="45.87914" lon="4.67651">
        <ele>412.05463</ele>
        <time>2023-06-04T13:05:13.000Z</time>
      </trkpt>
      <trkpt lat="45.87912" lon="4.67654">
        <ele>411.94904</ele>
        <time>2023-06-04T13:05:14.000Z</time>
      </trkpt>
      <trkpt lat="45.87909" lon="4.67656">
        <ele>411.86255</ele>
        <time>2023-06-04T13:05:15.000Z</time>
      </trkpt>
      <trkpt lat="45.87906" lon="4.67659">
        <ele>411.78436</ele>
        <time>2023-06-04T13:05:16.000Z</time>
      </trkpt>
      <trkpt lat="45.87904" lon="4.6766">
        <ele>411.7149</ele>
        <time>2023-06-04T13:05:17.000Z</time>
      </trkpt>
      <trkpt lat="45.879" lon="4.6766">
        <ele>411.62653</ele>
        <time>2023-06-04T13:05:18.000Z</time>
      </trkpt>
      <trkpt lat="45.87896" lon="4.67658">
        <ele>411.64194</ele>
        <time>2023-06-04T13:05:19.000Z</time>
      </trkpt>
      <trkpt lat="45.87894" lon="4.67655">
        <ele>411.70923</ele>
        <time>2023-06-04T13:05:20.000Z</time>
      </trkpt>
      <trkpt lat="45.87892" lon="4.6765">
        <ele>411.82831</ele>
        <time>2023-06-04T13:05:21.000Z</time>
      </trkpt>
      <trkpt lat="45.8789" lon="4.67644">
        <ele>411.9523</ele>
        <time>2023-06-04T13:05:22.000Z</time>
      </trkpt>
      <trkpt lat="45.87889" lon="4.67639">
        <ele>411.95905</ele>
        <time>2023-06-04T13:05:23.000Z</time>
      </trkpt>
      <trkpt lat="45.87886" lon="4.67633">
        <ele>411.9126</ele>
        <time>2023-06-04T13:05:24.000Z</time>
      </trkpt>
      <trkpt lat="45.87884" lon="4.67629">
        <ele>411.81329</ele>
        <time>2023-06-04T13:05:25.000Z</time>
      </trkpt>
      <trkpt lat="45.87881" lon="4.67626">
        <ele>411.53729</ele>
        <time>2023-06-04T13:05:26.000Z</time>
      </trkpt>
      <trkpt lat="45.87879" lon="4.67623">
        <ele>411.2077</ele>
        <time>2023-06-04T13:05:27.000Z</time>
      </trkpt>
      <trkpt lat="45.87877" lon="4.67621">
        <ele>411.02539</ele>
        <time>2023-06-04T13:05:28.000Z</time>
      </trkpt>
      <trkpt lat="45.87874" lon="4.67619">
        <ele>411.11053</ele>
        <time>2023-06-04T13:05:29.000Z</time>
      </trkpt>
      <trkpt lat="45.87872" lon="4.67616">
        <ele>411.11411</ele>
        <time>2023-06-04T13:05:30.000Z</time>
      </trkpt>
      <trkpt lat="45.8787" lon="4.67614">
        <ele>411.10309</ele>
        <time>2023-06-04T13:05:31.000Z</time>
      </trkpt>
      <trkpt lat="45.87868" lon="4.67612">
        <ele>411.27362</ele>
        <time>2023-06-04T13:05:32.000Z</time>
      </trkpt>
      <trkpt lat="45.87865" lon="4.67611">
        <ele>411.513</ele>
        <time>2023-06-04T13:05:34.000Z</time>
      </trkpt>
      <trkpt lat="45.87862" lon="4.6761">
        <ele>411.67172</ele>
        <time>2023-06-04T13:05:35.000Z</time>
      </trkpt>
      <trkpt lat="45.8786" lon="4.67609">
        <ele>411.70917</ele>
        <time>2023-06-04T13:05:36.000Z</time>
      </trkpt>
      <trkpt lat="45.87858" lon="4.67607">
        <ele>411.74786</ele>
        <time>2023-06-04T13:05:37.000Z</time>
      </trkpt>
      <trkpt lat="45.87856" lon="4.67604">
        <ele>411.81299</ele>
        <time>2023-06-04T13:05:38.000Z</time>
      </trkpt>
      <trkpt lat="45.87853" lon="4.67601">
        <ele>411.83527</ele>
        <time>2023-06-04T13:05:39.000Z</time>
      </trkpt>
      <trkpt lat="45.8785" lon="4.67598">
        <ele>411.73822</ele>
        <time>2023-06-04T13:05:40.000Z</time>
      </trkpt>
      <trkpt lat="45.87848" lon="4.67596">
        <ele>411.62811</ele>
        <time>2023-06-04T13:05:41.000Z</time>
      </trkpt>
      <trkpt lat="45.87844" lon="4.67593">
        <ele>411.5004</ele>
        <time>2023-06-04T13:05:42.000Z</time>
      </trkpt>
      <trkpt lat="45.87841" lon="4.67591">
        <ele>411.4455</ele>
        <time>2023-06-04T13:05:43.000Z</time>
      </trkpt>
      <trkpt lat="45.87839" lon="4.67588">
        <ele>411.44122</ele>
        <time>2023-06-04T13:05:44.000Z</time>
      </trkpt>
      <trkpt lat="45.87838" lon="4.67585">
        <ele>411.40936</ele>
        <time>2023-06-04T13:05:45.000Z</time>
      </trkpt>
      <trkpt lat="45.87836" lon="4.67582">
        <ele>411.40317</ele>
        <time>2023-06-04T13:05:46.000Z</time>
      </trkpt>
      <trkpt lat="45.87835" lon="4.67579">
        <ele>411.39175</ele>
        <time>2023-06-04T13:05:47.000Z</time>
      </trkpt>
      <trkpt lat="45.87834" lon="4.67576">
        <ele>411.38727</ele>
        <time>2023-06-04T13:05:48.000Z</time>
      </trkpt>
      <trkpt lat="45.87834" lon="4.67571">
        <ele>411.37637</ele>
        <time>2023-06-04T13:05:50.000Z</time>
      </trkpt>
      <trkpt lat="45.87833" lon="4.67567">
        <ele>411.39716</ele>
        <time>2023-06-04T13:05:51.000Z</time>
      </trkpt>
      <trkpt lat="45.87831" lon="4.67562">
        <ele>411.40332</ele>
        <time>2023-06-04T13:05:52.000Z</time>
      </trkpt>
      <trkpt lat="45.87829" lon="4.67557">
        <ele>411.42139</ele>
        <time>2023-06-04T13:05:53.000Z</time>
      </trkpt>
      <trkpt lat="45.87827" lon="4.67553">
        <ele>411.49823</ele>
        <time>2023-06-04T13:05:54.000Z</time>
      </trkpt>
      <trkpt lat="45.87824" lon="4.67548">
        <ele>411.59979</ele>
        <time>2023-06-04T13:05:55.000Z</time>
      </trkpt>
      <trkpt lat="45.87821" lon="4.67544">
        <ele>411.63458</ele>
        <time>2023-06-04T13:05:56.000Z</time>
      </trkpt>
      <trkpt lat="45.87818" lon="4.67541">
        <ele>411.85605</ele>
        <time>2023-06-04T13:05:57.000Z</time>
      </trkpt>
      <trkpt lat="45.87815" lon="4.67538">
        <ele>412.17218</ele>
        <time>2023-06-04T13:05:58.000Z</time>
      </trkpt>
      <trkpt lat="45.87813" lon="4.67536">
        <ele>412.4118</ele>
        <time>2023-06-04T13:05:59.000Z</time>
      </trkpt>
      <trkpt lat="45.87811" lon="4.67534">
        <ele>412.69635</ele>
        <time>2023-06-04T13:06:00.000Z</time>
      </trkpt>
      <trkpt lat="45.87809" lon="4.6753">
        <ele>412.94</ele>
        <time>2023-06-04T13:06:01.000Z</time>
      </trkpt>
      <trkpt lat="45.87807" lon="4.67528">
        <ele>413.056</ele>
        <time>2023-06-04T13:06:02.000Z</time>
      </trkpt>
      <trkpt lat="45.87809" lon="4.67526">
        <ele>413.38785</ele>
        <time>2023-06-04T13:06:05.000Z</time>
      </trkpt>
      <trkpt lat="45.87812" lon="4.67529">
        <ele>413.59125</ele>
        <time>2023-06-04T13:06:07.000Z</time>
      </trkpt>
      <trkpt lat="45.87815" lon="4.67533">
        <ele>413.69928</ele>
        <time>2023-06-04T13:06:08.000Z</time>
      </trkpt>
      <trkpt lat="45.87816" lon="4.67537">
        <ele>413.75961</ele>
        <time>2023-06-04T13:06:09.000Z</time>
      </trkpt>
      <trkpt lat="45.87816" lon="4.67541">
        <ele>413.80243</ele>
        <time>2023-06-04T13:06:10.000Z</time>
      </trkpt>
      <trkpt lat="45.87816" lon="4.67546">
        <ele>413.94794</ele>
        <time>2023-06-04T13:06:11.000Z</time>
      </trkpt>
      <trkpt lat="45.87816" lon="4.6755">
        <ele>414.10822</ele>
        <time>2023-06-04T13:06:12.000Z</time>
      </trkpt>
      <trkpt lat="45.87817" lon="4.67554">
        <ele>414.21747</ele>
        <time>2023-06-04T13:06:13.000Z</time>
      </trkpt>
      <trkpt lat="45.8782" lon="4.67557">
        <ele>414.00497</ele>
        <time>2023-06-04T13:06:14.000Z</time>
      </trkpt>
      <trkpt lat="45.87823" lon="4.6756">
        <ele>413.92853</ele>
        <time>2023-06-04T13:06:15.000Z</time>
      </trkpt>
      <trkpt lat="45.87826" lon="4.67562">
        <ele>413.85562</ele>
        <time>2023-06-04T13:06:16.000Z</time>
      </trkpt>
      <trkpt lat="45.87828" lon="4.67564">
        <ele>413.81171</ele>
        <time>2023-06-04T13:06:17.000Z</time>
      </trkpt>
      <trkpt lat="45.8783" lon="4.67566">
        <ele>413.79004</ele>
        <time>2023-06-04T13:06:18.000Z</time>
      </trkpt>
      <trkpt lat="45.87832" lon="4.67569">
        <ele>413.81378</ele>
        <time>2023-06-04T13:06:19.000Z</time>
      </trkpt>
      <trkpt lat="45.87833" lon="4.67571">
        <ele>413.61929</ele>
        <time>2023-06-04T13:06:20.000Z</time>
      </trkpt>
      <trkpt lat="45.87835" lon="4.67576">
        <ele>413.23798</ele>
        <time>2023-06-04T13:06:21.000Z</time>
      </trkpt>
      <trkpt lat="45.87839" lon="4.67581">
        <ele>412.86572</ele>
        <time>2023-06-04T13:06:22.000Z</time>
      </trkpt>
      <trkpt lat="45.87842" lon="4.67584">
        <ele>412.39581</ele>
        <time>2023-06-04T13:06:23.000Z</time>
      </trkpt>
      <trkpt lat="45.87844" lon="4.67587">
        <ele>412.38174</ele>
        <time>2023-06-04T13:06:24.000Z</time>
      </trkpt>
      <trkpt lat="45.87846" lon="4.67589">
        <ele>412.50723</ele>
        <time>2023-06-04T13:06:25.000Z</time>
      </trkpt>
      <trkpt lat="45.87849" lon="4.67592">
        <ele>412.40015</ele>
        <time>2023-06-04T13:06:26.000Z</time>
      </trkpt>
      <trkpt lat="45.8785" lon="4.67594">
        <ele>412.33408</ele>
        <time>2023-06-04T13:06:27.000Z</time>
      </trkpt>
      <trkpt lat="45.87852" lon="4.67596">
        <ele>412.30328</ele>
        <time>2023-06-04T13:06:28.000Z</time>
      </trkpt>
      <trkpt lat="45.87853" lon="4.676">
        <ele>412.3815</ele>
        <time>2023-06-04T13:06:29.000Z</time>
      </trkpt>
      <trkpt lat="45.87855" lon="4.67602">
        <ele>412.39594</ele>
        <time>2023-06-04T13:06:30.000Z</time>
      </trkpt>
      <trkpt lat="45.87856" lon="4.67606">
        <ele>412.40875</ele>
        <time>2023-06-04T13:06:31.000Z</time>
      </trkpt>
      <trkpt lat="45.87857" lon="4.67609">
        <ele>412.46182</ele>
        <time>2023-06-04T13:06:32.000Z</time>
      </trkpt>
      <trkpt lat="45.8786" lon="4.67611">
        <ele>412.46124</ele>
        <time>2023-06-04T13:06:34.000Z</time>
      </trkpt>
      <trkpt lat="45.87862" lon="4.67611">
        <ele>412.50226</ele>
        <time>2023-06-04T13:06:35.000Z</time>
      </trkpt>
      <trkpt lat="45.87865" lon="4.67611">
        <ele>412.36978</ele>
        <time>2023-06-04T13:06:36.000Z</time>
      </trkpt>
      <trkpt lat="45.87869" lon="4.67613">
        <ele>412.30731</ele>
        <time>2023-06-04T13:06:37.000Z</time>
      </trkpt>
      <trkpt lat="45.87871" lon="4.67613">
        <ele>412.18344</ele>
        <time>2023-06-04T13:06:38.000Z</time>
      </trkpt>
      <trkpt lat="45.87873" lon="4.67615">
        <ele>412.03888</ele>
        <time>2023-06-04T13:06:39.000Z</time>
      </trkpt>
      <trkpt lat="45.87871" lon="4.67613">
        <ele>412.07089</ele>
        <time>2023-06-04T13:06:42.000Z</time>
      </trkpt>
      <trkpt lat="45.87869" lon="4.67612">
        <ele>412.52426</ele>
        <time>2023-06-04T13:06:44.000Z</time>
      </trkpt>
      <trkpt lat="45.87867" lon="4.67612">
        <ele>413.13287</ele>
        <time>2023-06-04T13:06:45.000Z</time>
      </trkpt>
      <trkpt lat="45.87865" lon="4.67611">
        <ele>413.75726</ele>
        <time>2023-06-04T13:06:46.000Z</time>
      </trkpt>
      <trkpt lat="45.87862" lon="4.67608">
        <ele>414.58063</ele>
        <time>2023-06-04T13:06:48.000Z</time>
      </trkpt>
      <trkpt lat="45.8786" lon="4.67606">
        <ele>415.08194</ele>
        <time>2023-06-04T13:06:50.000Z</time>
      </trkpt>
      <trkpt lat="45.87858" lon="4.67604">
        <ele>415.62582</ele>
        <time>2023-06-04T13:06:51.000Z</time>
      </trkpt>
      <trkpt lat="45.87856" lon="4.67602">
        <ele>416.13239</ele>
        <time>2023-06-04T13:06:52.000Z</time>
      </trkpt>
      <trkpt lat="45.87853" lon="4.67599">
        <ele>416.63052</ele>
        <time>2023-06-04T13:06:53.000Z</time>
      </trkpt>
      <trkpt lat="45.87851" lon="4.67596">
        <ele>417.16171</ele>
        <time>2023-06-04T13:06:54.000Z</time>
      </trkpt>
      <trkpt lat="45.8785" lon="4.67594">
        <ele>417.69189</ele>
        <time>2023-06-04T13:06:55.000Z</time>
      </trkpt>
      <trkpt lat="45.87848" lon="4.67592">
        <ele>418.32364</ele>
        <time>2023-06-04T13:06:56.000Z</time>
      </trkpt>
      <trkpt lat="45.87847" lon="4.6759">
        <ele>418.98721</ele>
        <time>2023-06-04T13:06:57.000Z</time>
      </trkpt>
      <trkpt lat="45.87845" lon="4.67587">
        <ele>419.64145</ele>
        <time>2023-06-04T13:06:58.000Z</time>
      </trkpt>
      <trkpt lat="45.87842" lon="4.67583">
        <ele>420.33749</ele>
        <time>2023-06-04T13:06:59.000Z</time>
      </trkpt>
      <trkpt lat="45.8784" lon="4.6758">
        <ele>420.93253</ele>
        <time>2023-06-04T13:07:00.000Z</time>
      </trkpt>
      <trkpt lat="45.87838" lon="4.67576">
        <ele>421.65118</ele>
        <time>2023-06-04T13:07:01.000Z</time>
      </trkpt>
      <trkpt lat="45.87836" lon="4.67573">
        <ele>422.34952</ele>
        <time>2023-06-04T13:07:02.000Z</time>
      </trkpt>
      <trkpt lat="45.87834" lon="4.67569">
        <ele>423.00131</ele>
        <time>2023-06-04T13:07:03.000Z</time>
      </trkpt>
      <trkpt lat="45.87831" lon="4.67565">
        <ele>423.63712</ele>
        <time>2023-06-04T13:07:04.000Z</time>
      </trkpt>
      <trkpt lat="45.87829" lon="4.67561">
        <ele>424.06528</ele>
        <time>2023-06-04T13:07:05.000Z</time>
      </trkpt>
      <trkpt lat="45.87827" lon="4.67556">
        <ele>424.18604</ele>
        <time>2023-06-04T13:07:06.000Z</time>
      </trkpt>
      <trkpt lat="45.87824" lon="4.67551">
        <ele>424.26788</ele>
        <time>2023-06-04T13:07:07.000Z</time>
      </trkpt>
      <trkpt lat="45.87821" lon="4.67545">
        <ele>424.29654</ele>
        <time>2023-06-04T13:07:08.000Z</time>
      </trkpt>
      <trkpt lat="45.87818" lon="4.6754">
        <ele>424.23553</ele>
        <time>2023-06-04T13:07:09.000Z</time>
      </trkpt>
      <trkpt lat="45.87815" lon="4.67535">
        <ele>424.08237</ele>
        <time>2023-06-04T13:07:10.000Z</time>
      </trkpt>
      <trkpt lat="45.87813" lon="4.67531">
        <ele>423.89703</ele>
        <time>2023-06-04T13:07:11.000Z</time>
      </trkpt>
      <trkpt lat="45.8781" lon="4.67526">
        <ele>423.7688</ele>
        <time>2023-06-04T13:07:12.000Z</time>
      </trkpt>
      <trkpt lat="45.87808" lon="4.67521">
        <ele>423.63214</ele>
        <time>2023-06-04T13:07:13.000Z</time>
      </trkpt>
      <trkpt lat="45.87805" lon="4.67516">
        <ele>423.50146</ele>
        <time>2023-06-04T13:07:14.000Z</time>
      </trkpt>
      <trkpt lat="45.87802" lon="4.67511">
        <ele>423.34961</ele>
        <time>2023-06-04T13:07:15.000Z</time>
      </trkpt>
      <trkpt lat="45.87799" lon="4.67506">
        <ele>423.16812</ele>
        <time>2023-06-04T13:07:16.000Z</time>
      </trkpt>
      <trkpt lat="45.87796" lon="4.67502">
        <ele>422.7641</ele>
        <time>2023-06-04T13:07:17.000Z</time>
      </trkpt>
      <trkpt lat="45.87793" lon="4.67498">
        <ele>422.34561</ele>
        <time>2023-06-04T13:07:18.000Z</time>
      </trkpt>
      <trkpt lat="45.87789" lon="4.67494">
        <ele>421.94391</ele>
        <time>2023-06-04T13:07:19.000Z</time>
      </trkpt>
      <trkpt lat="45.87786" lon="4.67489">
        <ele>421.62177</ele>
        <time>2023-06-04T13:07:20.000Z</time>
      </trkpt>
      <trkpt lat="45.87783" lon="4.67485">
        <ele>421.28351</ele>
        <time>2023-06-04T13:07:21.000Z</time>
      </trkpt>
      <trkpt lat="45.87779" lon="4.67481">
        <ele>420.90909</ele>
        <time>2023-06-04T13:07:22.000Z</time>
      </trkpt>
      <trkpt lat="45.87776" lon="4.67476">
        <ele>420.53571</ele>
        <time>2023-06-04T13:07:23.000Z</time>
      </trkpt>
      <trkpt lat="45.87772" lon="4.67472">
        <ele>420.17377</ele>
        <time>2023-06-04T13:07:24.000Z</time>
      </trkpt>
      <trkpt lat="45.87768" lon="4.67466">
        <ele>419.8125</ele>
        <time>2023-06-04T13:07:25.000Z</time>
      </trkpt>
      <trkpt lat="45.87765" lon="4.67463">
        <ele>419.44214</ele>
        <time>2023-06-04T13:07:26.000Z</time>
      </trkpt>
      <trkpt lat="45.87761" lon="4.6746">
        <ele>419.07788</ele>
        <time>2023-06-04T13:07:27.000Z</time>
      </trkpt>
      <trkpt lat="45.87758" lon="4.67457">
        <ele>418.75116</ele>
        <time>2023-06-04T13:07:28.000Z</time>
      </trkpt>
      <trkpt lat="45.87755" lon="4.67452">
        <ele>418.68793</ele>
        <time>2023-06-04T13:07:29.000Z</time>
      </trkpt>
      <trkpt lat="45.87752" lon="4.67446">
        <ele>418.57623</ele>
        <time>2023-06-04T13:07:30.000Z</time>
      </trkpt>
      <trkpt lat="45.87748" lon="4.67441">
        <ele>418.4129</ele>
        <time>2023-06-04T13:07:31.000Z</time>
      </trkpt>
      <trkpt lat="45.87745" lon="4.67437">
        <ele>418.25406</ele>
        <time>2023-06-04T13:07:32.000Z</time>
      </trkpt>
      <trkpt lat="45.87742" lon="4.67436">
        <ele>418.17764</ele>
        <time>2023-06-04T13:07:33.000Z</time>
      </trkpt>
      <trkpt lat="45.8774" lon="4.67433">
        <ele>417.87335</ele>
        <time>2023-06-04T13:07:35.000Z</time>
      </trkpt>
      <trkpt lat="45.87736" lon="4.67428">
        <ele>417.76929</ele>
        <time>2023-06-04T13:07:36.000Z</time>
      </trkpt>
      <trkpt lat="45.87733" lon="4.67425">
        <ele>417.61664</ele>
        <time>2023-06-04T13:07:37.000Z</time>
      </trkpt>
      <trkpt lat="45.8773" lon="4.67423">
        <ele>417.69556</ele>
        <time>2023-06-04T13:07:38.000Z</time>
      </trkpt>
      <trkpt lat="45.87727" lon="4.6742">
        <ele>417.68359</ele>
        <time>2023-06-04T13:07:39.000Z</time>
      </trkpt>
      <trkpt lat="45.87723" lon="4.67418">
        <ele>417.53336</ele>
        <time>2023-06-04T13:07:40.000Z</time>
      </trkpt>
      <trkpt lat="45.8772" lon="4.67416">
        <ele>417.32892</ele>
        <time>2023-06-04T13:07:41.000Z</time>
      </trkpt>
      <trkpt lat="45.87717" lon="4.67414">
        <ele>417.42929</ele>
        <time>2023-06-04T13:07:42.000Z</time>
      </trkpt>
      <trkpt lat="45.87714" lon="4.67412">
        <ele>417.56015</ele>
        <time>2023-06-04T13:07:43.000Z</time>
      </trkpt>
      <trkpt lat="45.87711" lon="4.67408">
        <ele>417.71826</ele>
        <time>2023-06-04T13:07:44.000Z</time>
      </trkpt>
      <trkpt lat="45.87708" lon="4.67405">
        <ele>417.83099</ele>
        <time>2023-06-04T13:07:45.000Z</time>
      </trkpt>
      <trkpt lat="45.87705" lon="4.674">
        <ele>417.95966</ele>
        <time>2023-06-04T13:07:46.000Z</time>
      </trkpt>
      <trkpt lat="45.87702" lon="4.67396">
        <ele>418.0733</ele>
        <time>2023-06-04T13:07:47.000Z</time>
      </trkpt>
      <trkpt lat="45.877" lon="4.67392">
        <ele>418.20279</ele>
        <time>2023-06-04T13:07:48.000Z</time>
      </trkpt>
      <trkpt lat="45.87697" lon="4.67389">
        <ele>418.35516</ele>
        <time>2023-06-04T13:07:49.000Z</time>
      </trkpt>
      <trkpt lat="45.87693" lon="4.67386">
        <ele>418.26349</ele>
        <time>2023-06-04T13:07:50.000Z</time>
      </trkpt>
      <trkpt lat="45.8769" lon="4.67383">
        <ele>418.21616</ele>
        <time>2023-06-04T13:07:51.000Z</time>
      </trkpt>
      <trkpt lat="45.87688" lon="4.67381">
        <ele>418.24628</ele>
        <time>2023-06-04T13:07:52.000Z</time>
      </trkpt>
      <trkpt lat="45.87686" lon="4.67378">
        <ele>418.22177</ele>
        <time>2023-06-04T13:07:53.000Z</time>
      </trkpt>
      <trkpt lat="45.87683" lon="4.67376">
        <ele>418.14673</ele>
        <time>2023-06-04T13:07:54.000Z</time>
      </trkpt>
      <trkpt lat="45.8768" lon="4.67373">
        <ele>418.29657</ele>
        <time>2023-06-04T13:07:55.000Z</time>
      </trkpt>
      <trkpt lat="45.87677" lon="4.67371">
        <ele>418.15707</ele>
        <time>2023-06-04T13:07:56.000Z</time>
      </trkpt>
      <trkpt lat="45.87675" lon="4.67368">
        <ele>417.96451</ele>
        <time>2023-06-04T13:07:57.000Z</time>
      </trkpt>
      <trkpt lat="45.87673" lon="4.67365">
        <ele>417.71704</ele>
        <time>2023-06-04T13:07:58.000Z</time>
      </trkpt>
      <trkpt lat="45.87671" lon="4.67364">
        <ele>417.95898</ele>
        <time>2023-06-04T13:07:59.000Z</time>
      </trkpt>
      <trkpt lat="45.87668" lon="4.67362">
        <ele>418.22119</ele>
        <time>2023-06-04T13:08:00.000Z</time>
      </trkpt>
      <trkpt lat="45.87666" lon="4.67361">
        <ele>418.52817</ele>
        <time>2023-06-04T13:08:01.000Z</time>
      </trkpt>
      <trkpt lat="45.87663" lon="4.6736">
        <ele>418.44839</ele>
        <time>2023-06-04T13:08:02.000Z</time>
      </trkpt>
      <trkpt lat="45.8766" lon="4.6736">
        <ele>418.21906</ele>
        <time>2023-06-04T13:08:03.000Z</time>
      </trkpt>
      <trkpt lat="45.87657" lon="4.67361">
        <ele>418.33783</ele>
        <time>2023-06-04T13:08:04.000Z</time>
      </trkpt>
      <trkpt lat="45.87653" lon="4.67361">
        <ele>418.46298</ele>
        <time>2023-06-04T13:08:05.000Z</time>
      </trkpt>
      <trkpt lat="45.8765" lon="4.67362">
        <ele>418.63934</ele>
        <time>2023-06-04T13:08:06.000Z</time>
      </trkpt>
      <trkpt lat="45.87647" lon="4.67362">
        <ele>418.89999</ele>
        <time>2023-06-04T13:08:07.000Z</time>
      </trkpt>
      <trkpt lat="45.87643" lon="4.67365">
        <ele>419.67651</ele>
        <time>2023-06-04T13:08:08.000Z</time>
      </trkpt>
      <trkpt lat="45.87639" lon="4.67363">
        <ele>419.47461</ele>
        <time>2023-06-04T13:08:10.000Z</time>
      </trkpt>
      <trkpt lat="45.87633" lon="4.67364">
        <ele>419.10709</ele>
        <time>2023-06-04T13:08:11.000Z</time>
      </trkpt>
      <trkpt lat="45.87629" lon="4.67365">
        <ele>419.15518</ele>
        <time>2023-06-04T13:08:12.000Z</time>
      </trkpt>
      <trkpt lat="45.87627" lon="4.67369">
        <ele>419.15668</ele>
        <time>2023-06-04T13:08:13.000Z</time>
      </trkpt>
      <trkpt lat="45.87622" lon="4.67373">
        <ele>419.142</ele>
        <time>2023-06-04T13:08:14.000Z</time>
      </trkpt>
      <trkpt lat="45.87619" lon="4.67372">
        <ele>419.22339</ele>
        <time>2023-06-04T13:08:15.000Z</time>
      </trkpt>
      <trkpt lat="45.87617" lon="4.67369">
        <ele>419.06454</ele>
        <time>2023-06-04T13:08:16.000Z</time>
      </trkpt>
      <trkpt lat="45.87613" lon="4.67368">
        <ele>418.8082</ele>
        <time>2023-06-04T13:08:17.000Z</time>
      </trkpt>
      <trkpt lat="45.87611" lon="4.6737">
        <ele>418.62387</ele>
        <time>2023-06-04T13:08:18.000Z</time>
      </trkpt>
      <trkpt lat="45.87606" lon="4.6737">
        <ele>418.80161</ele>
        <time>2023-06-04T13:08:19.000Z</time>
      </trkpt>
      <trkpt lat="45.87601" lon="4.67371">
        <ele>418.59464</ele>
        <time>2023-06-04T13:08:20.000Z</time>
      </trkpt>
      <trkpt lat="45.87594" lon="4.67372">
        <ele>418.49078</ele>
        <time>2023-06-04T13:08:21.000Z</time>
      </trkpt>
      <trkpt lat="45.8759" lon="4.67372">
        <ele>418.42871</ele>
        <time>2023-06-04T13:08:22.000Z</time>
      </trkpt>
      <trkpt lat="45.87587" lon="4.67374">
        <ele>418.51276</ele>
        <time>2023-06-04T13:08:23.000Z</time>
      </trkpt>
      <trkpt lat="45.87582" lon="4.67373">
        <ele>418.75024</ele>
        <time>2023-06-04T13:08:24.000Z</time>
      </trkpt>
      <trkpt lat="45.87577" lon="4.67374">
        <ele>418.64673</ele>
        <time>2023-06-04T13:08:26.000Z</time>
      </trkpt>
      <trkpt lat="45.87574" lon="4.67376">
        <ele>418.66455</ele>
        <time>2023-06-04T13:08:27.000Z</time>
      </trkpt>
      <trkpt lat="45.87572" lon="4.67375">
        <ele>418.67831</ele>
        <time>2023-06-04T13:08:28.000Z</time>
      </trkpt>
      <trkpt lat="45.87568" lon="4.67378">
        <ele>418.64435</ele>
        <time>2023-06-04T13:08:29.000Z</time>
      </trkpt>
      <trkpt lat="45.87565" lon="4.67382">
        <ele>417.96661</ele>
        <time>2023-06-04T13:08:30.000Z</time>
      </trkpt>
      <trkpt lat="45.8756" lon="4.67381">
        <ele>418.19672</ele>
        <time>2023-06-04T13:08:31.000Z</time>
      </trkpt>
      <trkpt lat="45.87557" lon="4.67385">
        <ele>418.4791</ele>
        <time>2023-06-04T13:08:32.000Z</time>
      </trkpt>
      <trkpt lat="45.87556" lon="4.67388">
        <ele>418.39511</ele>
        <time>2023-06-04T13:08:33.000Z</time>
      </trkpt>
      <trkpt lat="45.87553" lon="4.67391">
        <ele>418.34961</ele>
        <time>2023-06-04T13:08:34.000Z</time>
      </trkpt>
      <trkpt lat="45.87546" lon="4.67396">
        <ele>418.32584</ele>
        <time>2023-06-04T13:08:35.000Z</time>
      </trkpt>
      <trkpt lat="45.87544" lon="4.67399">
        <ele>418.18268</ele>
        <time>2023-06-04T13:08:36.000Z</time>
      </trkpt>
      <trkpt lat="45.8754" lon="4.674">
        <ele>418.31396</ele>
        <time>2023-06-04T13:08:37.000Z</time>
      </trkpt>
      <trkpt lat="45.87536" lon="4.67405">
        <ele>418.60223</ele>
        <time>2023-06-04T13:08:38.000Z</time>
      </trkpt>
      <trkpt lat="45.87532" lon="4.67403">
        <ele>418.84692</ele>
        <time>2023-06-04T13:08:39.000Z</time>
      </trkpt>
      <trkpt lat="45.87529" lon="4.67406">
        <ele>418.76871</ele>
        <time>2023-06-04T13:08:40.000Z</time>
      </trkpt>
      <trkpt lat="45.87527" lon="4.67407">
        <ele>418.69672</ele>
        <time>2023-06-04T13:08:41.000Z</time>
      </trkpt>
      <trkpt lat="45.87525" lon="4.67409">
        <ele>418.64639</ele>
        <time>2023-06-04T13:08:42.000Z</time>
      </trkpt>
      <trkpt lat="45.87522" lon="4.67411">
        <ele>418.46783</ele>
        <time>2023-06-04T13:08:43.000Z</time>
      </trkpt>
      <trkpt lat="45.87517" lon="4.67415">
        <ele>418.24017</ele>
        <time>2023-06-04T13:08:44.000Z</time>
      </trkpt>
      <trkpt lat="45.87512" lon="4.67417">
        <ele>417.89752</ele>
        <time>2023-06-04T13:08:45.000Z</time>
      </trkpt>
      <trkpt lat="45.87509" lon="4.67421">
        <ele>417.90057</ele>
        <time>2023-06-04T13:08:46.000Z</time>
      </trkpt>
      <trkpt lat="45.87505" lon="4.67424">
        <ele>417.74643</ele>
        <time>2023-06-04T13:08:47.000Z</time>
      </trkpt>
      <trkpt lat="45.875" lon="4.67425">
        <ele>417.54639</ele>
        <time>2023-06-04T13:08:48.000Z</time>
      </trkpt>
      <trkpt lat="45.87494" lon="4.67426">
        <ele>417.32269</ele>
        <time>2023-06-04T13:08:49.000Z</time>
      </trkpt>
      <trkpt lat="45.87483" lon="4.67426">
        <ele>417.13266</ele>
        <time>2023-06-04T13:08:50.000Z</time>
      </trkpt>
      <trkpt lat="45.87478" lon="4.67428">
        <ele>416.95035</ele>
        <time>2023-06-04T13:08:51.000Z</time>
      </trkpt>
      <trkpt lat="45.87472" lon="4.6743">
        <ele>416.84433</ele>
        <time>2023-06-04T13:08:52.000Z</time>
      </trkpt>
      <trkpt lat="45.87468" lon="4.67434">
        <ele>416.69037</ele>
        <time>2023-06-04T13:08:53.000Z</time>
      </trkpt>
      <trkpt lat="45.87461" lon="4.67436">
        <ele>416.4147</ele>
        <time>2023-06-04T13:08:54.000Z</time>
      </trkpt>
      <trkpt lat="45.87452" lon="4.67437">
        <ele>416.14557</ele>
        <time>2023-06-04T13:08:55.000Z</time>
      </trkpt>
      <trkpt lat="45.87446" lon="4.67441">
        <ele>415.89056</ele>
        <time>2023-06-04T13:08:56.000Z</time>
      </trkpt>
      <trkpt lat="45.87438" lon="4.67442">
        <ele>415.44888</ele>
        <time>2023-06-04T13:08:57.000Z</time>
      </trkpt>
      <trkpt lat="45.87431" lon="4.67443">
        <ele>415.01703</ele>
        <time>2023-06-04T13:08:58.000Z</time>
      </trkpt>
      <trkpt lat="45.87422" lon="4.67447">
        <ele>414.92572</ele>
        <time>2023-06-04T13:08:59.000Z</time>
      </trkpt>
      <trkpt lat="45.87413" lon="4.6745">
        <ele>414.76285</ele>
        <time>2023-06-04T13:09:00.000Z</time>
      </trkpt>
      <trkpt lat="45.87404" lon="4.67452">
        <ele>414.56973</ele>
        <time>2023-06-04T13:09:01.000Z</time>
      </trkpt>
      <trkpt lat="45.87393" lon="4.67451">
        <ele>414.3663</ele>
        <time>2023-06-04T13:09:02.000Z</time>
      </trkpt>
      <trkpt lat="45.87386" lon="4.67454">
        <ele>414.28305</ele>
        <time>2023-06-04T13:09:03.000Z</time>
      </trkpt>
      <trkpt lat="45.87378" lon="4.67454">
        <ele>414.18564</ele>
        <time>2023-06-04T13:09:04.000Z</time>
      </trkpt>
      <trkpt lat="45.87371" lon="4.67454">
        <ele>414.17938</ele>
        <time>2023-06-04T13:09:05.000Z</time>
      </trkpt>
      <trkpt lat="45.87364" lon="4.67462">
        <ele>413.72134</ele>
        <time>2023-06-04T13:09:06.000Z</time>
      </trkpt>
      <trkpt lat="45.87353" lon="4.67462">
        <ele>413.34268</ele>
        <time>2023-06-04T13:09:07.000Z</time>
      </trkpt>
      <trkpt lat="45.87342" lon="4.67459">
        <ele>413.25333</ele>
        <time>2023-06-04T13:09:08.000Z</time>
      </trkpt>
      <trkpt lat="45.8733" lon="4.67459">
        <ele>413.31763</ele>
        <time>2023-06-04T13:09:09.000Z</time>
      </trkpt>
      <trkpt lat="45.87319" lon="4.6746">
        <ele>413.44733</ele>
        <time>2023-06-04T13:09:10.000Z</time>
      </trkpt>
      <trkpt lat="45.87309" lon="4.67454">
        <ele>413.56479</ele>
        <time>2023-06-04T13:09:11.000Z</time>
      </trkpt>
      <trkpt lat="45.87302" lon="4.67455">
        <ele>413.70108</ele>
        <time>2023-06-04T13:09:12.000Z</time>
      </trkpt>
      <trkpt lat="45.87295" lon="4.67455">
        <ele>413.85907</ele>
        <time>2023-06-04T13:09:13.000Z</time>
      </trkpt>
      <trkpt lat="45.87287" lon="4.67459">
        <ele>414.1001</ele>
        <time>2023-06-04T13:09:14.000Z</time>
      </trkpt>
      <trkpt lat="45.87279" lon="4.67466">
        <ele>414.34332</ele>
        <time>2023-06-04T13:09:15.000Z</time>
      </trkpt>
      <trkpt lat="45.87272" lon="4.67469">
        <ele>414.58218</ele>
        <time>2023-06-04T13:09:16.000Z</time>
      </trkpt>
      <trkpt lat="45.87266" lon="4.67471">
        <ele>414.32822</ele>
        <time>2023-06-04T13:09:17.000Z</time>
      </trkpt>
      <trkpt lat="45.87261" lon="4.67473">
        <ele>414.30167</ele>
        <time>2023-06-04T13:09:18.000Z</time>
      </trkpt>
      <trkpt lat="45.87254" lon="4.67474">
        <ele>414.15747</ele>
        <time>2023-06-04T13:09:19.000Z</time>
      </trkpt>
      <trkpt lat="45.87247" lon="4.67474">
        <ele>414.10336</ele>
        <time>2023-06-04T13:09:20.000Z</time>
      </trkpt>
      <trkpt lat="45.87242" lon="4.67477">
        <ele>414.04581</ele>
        <time>2023-06-04T13:09:21.000Z</time>
      </trkpt>
      <trkpt lat="45.87239" lon="4.67479">
        <ele>412.84073</ele>
        <time>2023-06-04T13:09:22.000Z</time>
      </trkpt>
      <trkpt lat="45.87236" lon="4.67486">
        <ele>412.2504</ele>
        <time>2023-06-04T13:09:23.000Z</time>
      </trkpt>
      <trkpt lat="45.87233" lon="4.6749">
        <ele>411.90976</ele>
        <time>2023-06-04T13:09:24.000Z</time>
      </trkpt>
      <trkpt lat="45.87226" lon="4.67491">
        <ele>411.6026</ele>
        <time>2023-06-04T13:09:25.000Z</time>
      </trkpt>
      <trkpt lat="45.8722" lon="4.67495">
        <ele>411.34293</ele>
        <time>2023-06-04T13:09:26.000Z</time>
      </trkpt>
      <trkpt lat="45.87213" lon="4.67499">
        <ele>411.07513</ele>
        <time>2023-06-04T13:09:27.000Z</time>
      </trkpt>
      <trkpt lat="45.87206" lon="4.67505">
        <ele>410.52423</ele>
        <time>2023-06-04T13:09:28.000Z</time>
      </trkpt>
      <trkpt lat="45.87202" lon="4.67508">
        <ele>409.83429</ele>
        <time>2023-06-04T13:09:29.000Z</time>
      </trkpt>
      <trkpt lat="45.87198" lon="4.67513">
        <ele>409.23172</ele>
        <time>2023-06-04T13:09:30.000Z</time>
      </trkpt>
      <trkpt lat="45.87196" lon="4.67517">
        <ele>408.673</ele>
        <time>2023-06-04T13:09:31.000Z</time>
      </trkpt>
      <trkpt lat="45.87185" lon="4.6752">
        <ele>408.06097</ele>
        <time>2023-06-04T13:09:32.000Z</time>
      </trkpt>
      <trkpt lat="45.87186" lon="4.67524">
        <ele>407.49838</ele>
        <time>2023-06-04T13:09:33.000Z</time>
      </trkpt>
      <trkpt lat="45.8718" lon="4.67522">
        <ele>406.79889</ele>
        <time>2023-06-04T13:09:34.000Z</time>
      </trkpt>
      <trkpt lat="45.87174" lon="4.67524">
        <ele>406.09268</ele>
        <time>2023-06-04T13:09:35.000Z</time>
      </trkpt>
      <trkpt lat="45.87172" lon="4.67526">
        <ele>405.40222</ele>
        <time>2023-06-04T13:09:36.000Z</time>
      </trkpt>
      <trkpt lat="45.87174" lon="4.67528">
        <ele>405.23767</ele>
        <time>2023-06-04T13:09:38.000Z</time>
      </trkpt>
      <trkpt lat="45.87176" lon="4.67529">
        <ele>404.78345</ele>
        <time>2023-06-04T13:09:39.000Z</time>
      </trkpt>
      <trkpt lat="45.87172" lon="4.67531">
        <ele>404.50818</ele>
        <time>2023-06-04T13:09:40.000Z</time>
      </trkpt>
      <trkpt lat="45.87169" lon="4.67532">
        <ele>404.20291</ele>
        <time>2023-06-04T13:09:42.000Z</time>
      </trkpt>
      <trkpt lat="45.87162" lon="4.67536">
        <ele>403.92862</ele>
        <time>2023-06-04T13:09:43.000Z</time>
      </trkpt>
      <trkpt lat="45.87158" lon="4.67539">
        <ele>404.37271</ele>
        <time>2023-06-04T13:09:44.000Z</time>
      </trkpt>
      <trkpt lat="45.87155" lon="4.67539">
        <ele>404.20959</ele>
        <time>2023-06-04T13:09:45.000Z</time>
      </trkpt>
      <trkpt lat="45.87151" lon="4.67542">
        <ele>403.79089</ele>
        <time>2023-06-04T13:09:46.000Z</time>
      </trkpt>
      <trkpt lat="45.87147" lon="4.67543">
        <ele>403.40924</ele>
        <time>2023-06-04T13:09:47.000Z</time>
      </trkpt>
      <trkpt lat="45.87138" lon="4.67546">
        <ele>403.24161</ele>
        <time>2023-06-04T13:09:48.000Z</time>
      </trkpt>
      <trkpt lat="45.87131" lon="4.67545">
        <ele>403.03149</ele>
        <time>2023-06-04T13:09:49.000Z</time>
      </trkpt>
      <trkpt lat="45.87123" lon="4.67542">
        <ele>402.8078</ele>
        <time>2023-06-04T13:09:50.000Z</time>
      </trkpt>
      <trkpt lat="45.87115" lon="4.6754">
        <ele>402.53726</ele>
        <time>2023-06-04T13:09:51.000Z</time>
      </trkpt>
      <trkpt lat="45.87108" lon="4.67539">
        <ele>402.19629</ele>
        <time>2023-06-04T13:09:52.000Z</time>
      </trkpt>
      <trkpt lat="45.87102" lon="4.67534">
        <ele>401.68906</ele>
        <time>2023-06-04T13:09:53.000Z</time>
      </trkpt>
      <trkpt lat="45.87095" lon="4.6753">
        <ele>401.20239</ele>
        <time>2023-06-04T13:09:54.000Z</time>
      </trkpt>
      <trkpt lat="45.87088" lon="4.67528">
        <ele>400.5835</ele>
        <time>2023-06-04T13:09:55.000Z</time>
      </trkpt>
      <trkpt lat="45.87082" lon="4.67527">
        <ele>400.11847</ele>
        <time>2023-06-04T13:09:56.000Z</time>
      </trkpt>
      <trkpt lat="45.87076" lon="4.67525">
        <ele>399.66293</ele>
        <time>2023-06-04T13:09:57.000Z</time>
      </trkpt>
      <trkpt lat="45.87069" lon="4.6752">
        <ele>399.19901</ele>
        <time>2023-06-04T13:09:58.000Z</time>
      </trkpt>
      <trkpt lat="45.87063" lon="4.67517">
        <ele>398.86154</ele>
        <time>2023-06-04T13:09:59.000Z</time>
      </trkpt>
      <trkpt lat="45.87054" lon="4.67512">
        <ele>398.5788</ele>
        <time>2023-06-04T13:10:00.000Z</time>
      </trkpt>
      <trkpt lat="45.87046" lon="4.67507">
        <ele>397.93738</ele>
        <time>2023-06-04T13:10:01.000Z</time>
      </trkpt>
      <trkpt lat="45.87042" lon="4.67499">
        <ele>397.25369</ele>
        <time>2023-06-04T13:10:02.000Z</time>
      </trkpt>
      <trkpt lat="45.87036" lon="4.67498">
        <ele>396.5705</ele>
        <time>2023-06-04T13:10:03.000Z</time>
      </trkpt>
      <trkpt lat="45.87028" lon="4.67499">
        <ele>396.29984</ele>
        <time>2023-06-04T13:10:04.000Z</time>
      </trkpt>
      <trkpt lat="45.8702" lon="4.675">
        <ele>395.99045</ele>
        <time>2023-06-04T13:10:05.000Z</time>
      </trkpt>
      <trkpt lat="45.87011" lon="4.67506">
        <ele>395.6955</ele>
        <time>2023-06-04T13:10:06.000Z</time>
      </trkpt>
      <trkpt lat="45.87003" lon="4.67512">
        <ele>395.31656</ele>
        <time>2023-06-04T13:10:07.000Z</time>
      </trkpt>
      <trkpt lat="45.86997" lon="4.67518">
        <ele>394.71988</ele>
        <time>2023-06-04T13:10:08.000Z</time>
      </trkpt>
      <trkpt lat="45.8699" lon="4.67521">
        <ele>394.13593</ele>
        <time>2023-06-04T13:10:09.000Z</time>
      </trkpt>
      <trkpt lat="45.86983" lon="4.67518">
        <ele>393.52423</ele>
        <time>2023-06-04T13:10:10.000Z</time>
      </trkpt>
      <trkpt lat="45.86976" lon="4.67516">
        <ele>392.98914</ele>
        <time>2023-06-04T13:10:11.000Z</time>
      </trkpt>
      <trkpt lat="45.86968" lon="4.67513">
        <ele>392.4046</ele>
        <time>2023-06-04T13:10:12.000Z</time>
      </trkpt>
      <trkpt lat="45.86962" lon="4.67512">
        <ele>391.94037</ele>
        <time>2023-06-04T13:10:13.000Z</time>
      </trkpt>
      <trkpt lat="45.86955" lon="4.6751">
        <ele>391.4722</ele>
        <time>2023-06-04T13:10:14.000Z</time>
      </trkpt>
      <trkpt lat="45.86951" lon="4.67511">
        <ele>391.11401</ele>
        <time>2023-06-04T13:10:15.000Z</time>
      </trkpt>
      <trkpt lat="45.86949" lon="4.67513">
        <ele>390.7439</ele>
        <time>2023-06-04T13:10:16.000Z</time>
      </trkpt>
      <trkpt lat="45.86945" lon="4.67513">
        <ele>390.96472</ele>
        <time>2023-06-04T13:10:17.000Z</time>
      </trkpt>
      <trkpt lat="45.86942" lon="4.67509">
        <ele>391.19525</ele>
        <time>2023-06-04T13:10:18.000Z</time>
      </trkpt>
      <trkpt lat="45.86938" lon="4.67509">
        <ele>391.05511</ele>
        <time>2023-06-04T13:10:19.000Z</time>
      </trkpt>
      <trkpt lat="45.86938" lon="4.67504">
        <ele>391.20398</ele>
        <time>2023-06-04T13:10:20.000Z</time>
      </trkpt>
      <trkpt lat="45.86935" lon="4.67499">
        <ele>391.45364</ele>
        <time>2023-06-04T13:10:21.000Z</time>
      </trkpt>
      <trkpt lat="45.86932" lon="4.67497">
        <ele>391.45264</ele>
        <time>2023-06-04T13:10:22.000Z</time>
      </trkpt>
      <trkpt lat="45.86935" lon="4.67498">
        <ele>391.50711</ele>
        <time>2023-06-04T13:10:23.000Z</time>
      </trkpt>
      <trkpt lat="45.86932" lon="4.67496">
        <ele>391.60492</ele>
        <time>2023-06-04T13:10:24.000Z</time>
      </trkpt>
      <trkpt lat="45.8693" lon="4.67495">
        <ele>391.42087</ele>
        <time>2023-06-04T13:10:25.000Z</time>
      </trkpt>
      <trkpt lat="45.86927" lon="4.67493">
        <ele>391.15417</ele>
        <time>2023-06-04T13:10:27.000Z</time>
      </trkpt>
      <trkpt lat="45.86923" lon="4.67494">
        <ele>390.91718</ele>
        <time>2023-06-04T13:10:29.000Z</time>
      </trkpt>
      <trkpt lat="45.86921" lon="4.67496">
        <ele>390.71805</ele>
        <time>2023-06-04T13:10:31.000Z</time>
      </trkpt>
      <trkpt lat="45.86923" lon="4.67496">
        <ele>390.45993</ele>
        <time>2023-06-04T13:10:35.000Z</time>
      </trkpt>
      <trkpt lat="45.86926" lon="4.67497">
        <ele>390.25699</ele>
        <time>2023-06-04T13:10:40.000Z</time>
      </trkpt>
      <trkpt lat="45.86924" lon="4.67495">
        <ele>390.04315</ele>
        <time>2023-06-04T13:10:48.000Z</time>
      </trkpt>
      <trkpt lat="45.86921" lon="4.67495">
        <ele>389.93771</ele>
        <time>2023-06-04T13:10:50.000Z</time>
      </trkpt>
      <trkpt lat="45.86919" lon="4.67496">
        <ele>389.87567</ele>
        <time>2023-06-04T13:10:51.000Z</time>
      </trkpt>
      <trkpt lat="45.86917" lon="4.67496">
        <ele>389.8031</ele>
        <time>2023-06-04T13:10:52.000Z</time>
      </trkpt>
      <trkpt lat="45.86914" lon="4.67495">
        <ele>389.66318</ele>
        <time>2023-06-04T13:10:53.000Z</time>
      </trkpt>
      <trkpt lat="45.86911" lon="4.67493">
        <ele>389.52274</ele>
        <time>2023-06-04T13:10:54.000Z</time>
      </trkpt>
      <trkpt lat="45.86907" lon="4.67492">
        <ele>388.84567</ele>
        <time>2023-06-04T13:10:55.000Z</time>
      </trkpt>
      <trkpt lat="45.86904" lon="4.67492">
        <ele>388.17194</ele>
        <time>2023-06-04T13:10:56.000Z</time>
      </trkpt>
      <trkpt lat="45.86901" lon="4.67492">
        <ele>387.86206</ele>
        <time>2023-06-04T13:10:57.000Z</time>
      </trkpt>
      <trkpt lat="45.86897" lon="4.67491">
        <ele>387.29221</ele>
        <time>2023-06-04T13:10:58.000Z</time>
      </trkpt>
      <trkpt lat="45.86894" lon="4.67491">
        <ele>386.6347</ele>
        <time>2023-06-04T13:10:59.000Z</time>
      </trkpt>
      <trkpt lat="45.86891" lon="4.6749">
        <ele>386.27844</ele>
        <time>2023-06-04T13:11:00.000Z</time>
      </trkpt>
      <trkpt lat="45.86884" lon="4.67489">
        <ele>385.82635</ele>
        <time>2023-06-04T13:11:01.000Z</time>
      </trkpt>
      <trkpt lat="45.86879" lon="4.67489">
        <ele>386.12555</ele>
        <time>2023-06-04T13:11:02.000Z</time>
      </trkpt>
      <trkpt lat="45.86875" lon="4.67491">
        <ele>386.46362</ele>
        <time>2023-06-04T13:11:03.000Z</time>
      </trkpt>
      <trkpt lat="45.86872" lon="4.67492">
        <ele>386.92902</ele>
        <time>2023-06-04T13:11:04.000Z</time>
      </trkpt>
      <trkpt lat="45.86869" lon="4.67495">
        <ele>387.42825</ele>
        <time>2023-06-04T13:11:05.000Z</time>
      </trkpt>
      <trkpt lat="45.86858" lon="4.67493">
        <ele>387.83063</ele>
        <time>2023-06-04T13:11:06.000Z</time>
      </trkpt>
      <trkpt lat="45.86849" lon="4.67488">
        <ele>388.31622</ele>
        <time>2023-06-04T13:11:07.000Z</time>
      </trkpt>
      <trkpt lat="45.86839" lon="4.67483">
        <ele>388.71738</ele>
        <time>2023-06-04T13:11:08.000Z</time>
      </trkpt>
      <trkpt lat="45.8683" lon="4.67483">
        <ele>389.21448</ele>
        <time>2023-06-04T13:11:09.000Z</time>
      </trkpt>
      <trkpt lat="45.86823" lon="4.67482">
        <ele>389.61459</ele>
        <time>2023-06-04T13:11:10.000Z</time>
      </trkpt>
      <trkpt lat="45.86816" lon="4.67481">
        <ele>390.13931</ele>
        <time>2023-06-04T13:11:11.000Z</time>
      </trkpt>
      <trkpt lat="45.86812" lon="4.67483">
        <ele>390.24841</ele>
        <time>2023-06-04T13:11:12.000Z</time>
      </trkpt>
      <trkpt lat="45.86806" lon="4.67479">
        <ele>390.39246</ele>
        <time>2023-06-04T13:11:13.000Z</time>
      </trkpt>
      <trkpt lat="45.86802" lon="4.67476">
        <ele>390.3046</ele>
        <time>2023-06-04T13:11:14.000Z</time>
      </trkpt>
      <trkpt lat="45.86799" lon="4.67475">
        <ele>390.17606</ele>
        <time>2023-06-04T13:11:15.000Z</time>
      </trkpt>
      <trkpt lat="45.86797" lon="4.67474">
        <ele>390.02484</ele>
        <time>2023-06-04T13:11:16.000Z</time>
      </trkpt>
      <trkpt lat="45.86795" lon="4.67472">
        <ele>389.83502</ele>
        <time>2023-06-04T13:11:17.000Z</time>
      </trkpt>
      <trkpt lat="45.8679" lon="4.67468">
        <ele>389.56958</ele>
        <time>2023-06-04T13:11:19.000Z</time>
      </trkpt>
      <trkpt lat="45.86787" lon="4.67466">
        <ele>389.35376</ele>
        <time>2023-06-04T13:11:21.000Z</time>
      </trkpt>
      <trkpt lat="45.86789" lon="4.67469">
        <ele>388.77734</ele>
        <time>2023-06-04T13:11:27.000Z</time>
      </trkpt>
      <trkpt lat="45.86788" lon="4.67471">
        <ele>388.36362</ele>
        <time>2023-06-04T13:11:34.000Z</time>
      </trkpt>
      <trkpt lat="45.8679" lon="4.67471">
        <ele>387.09476</ele>
        <time>2023-06-04T13:11:38.000Z</time>
      </trkpt>
      <trkpt lat="45.86789" lon="4.67467">
        <ele>386.01337</ele>
        <time>2023-06-04T13:11:40.000Z</time>
      </trkpt>
      <trkpt lat="45.86787" lon="4.67464">
        <ele>384.85837</ele>
        <time>2023-06-04T13:11:41.000Z</time>
      </trkpt>
      <trkpt lat="45.86785" lon="4.67461">
        <ele>383.6557</ele>
        <time>2023-06-04T13:11:42.000Z</time>
      </trkpt>
      <trkpt lat="45.86784" lon="4.67459">
        <ele>382.5448</ele>
        <time>2023-06-04T13:11:43.000Z</time>
      </trkpt>
      <trkpt lat="45.86782" lon="4.67458">
        <ele>381.4317</ele>
        <time>2023-06-04T13:11:44.000Z</time>
      </trkpt>
      <trkpt lat="45.8678" lon="4.67456">
        <ele>380.30914</ele>
        <time>2023-06-04T13:11:45.000Z</time>
      </trkpt>
      <trkpt lat="45.86778" lon="4.67454">
        <ele>379.10345</ele>
        <time>2023-06-04T13:11:46.000Z</time>
      </trkpt>
      <trkpt lat="45.86775" lon="4.67452">
        <ele>377.89319</ele>
        <time>2023-06-04T13:11:48.000Z</time>
      </trkpt>
      <trkpt lat="45.86771" lon="4.6745">
        <ele>376.56906</ele>
        <time>2023-06-04T13:11:49.000Z</time>
      </trkpt>
      <trkpt lat="45.86767" lon="4.67448">
        <ele>375.65512</ele>
        <time>2023-06-04T13:11:50.000Z</time>
      </trkpt>
      <trkpt lat="45.86763" lon="4.67447">
        <ele>374.74857</ele>
        <time>2023-06-04T13:11:51.000Z</time>
      </trkpt>
      <trkpt lat="45.86759" lon="4.67446">
        <ele>374.00372</ele>
        <time>2023-06-04T13:11:52.000Z</time>
      </trkpt>
      <trkpt lat="45.86755" lon="4.67444">
        <ele>373.27377</ele>
        <time>2023-06-04T13:11:53.000Z</time>
      </trkpt>
      <trkpt lat="45.86752" lon="4.67442">
        <ele>372.58182</ele>
        <time>2023-06-04T13:11:54.000Z</time>
      </trkpt>
      <trkpt lat="45.86748" lon="4.6744">
        <ele>371.92203</ele>
        <time>2023-06-04T13:11:55.000Z</time>
      </trkpt>
      <trkpt lat="45.86744" lon="4.67438">
        <ele>371.32147</ele>
        <time>2023-06-04T13:11:56.000Z</time>
      </trkpt>
      <trkpt lat="45.8674" lon="4.67437">
        <ele>370.69135</ele>
        <time>2023-06-04T13:11:57.000Z</time>
      </trkpt>
      <trkpt lat="45.86737" lon="4.67438">
        <ele>370.42862</ele>
        <time>2023-06-04T13:11:58.000Z</time>
      </trkpt>
      <trkpt lat="45.86734" lon="4.67439">
        <ele>370.0264</ele>
        <time>2023-06-04T13:11:59.000Z</time>
      </trkpt>
      <trkpt lat="45.86733" lon="4.67441">
        <ele>369.71045</ele>
        <time>2023-06-04T13:12:00.000Z</time>
      </trkpt>
      <trkpt lat="45.86731" lon="4.67443">
        <ele>369.44702</ele>
        <time>2023-06-04T13:12:01.000Z</time>
      </trkpt>
      <trkpt lat="45.86729" lon="4.67445">
        <ele>369.1922</ele>
        <time>2023-06-04T13:12:02.000Z</time>
      </trkpt>
      <trkpt lat="45.86727" lon="4.67447">
        <ele>368.96964</ele>
        <time>2023-06-04T13:12:03.000Z</time>
      </trkpt>
      <trkpt lat="45.86726" lon="4.6745">
        <ele>368.76208</ele>
        <time>2023-06-04T13:12:04.000Z</time>
      </trkpt>
      <trkpt lat="45.86723" lon="4.67452">
        <ele>368.51807</ele>
        <time>2023-06-04T13:12:05.000Z</time>
      </trkpt>
      <trkpt lat="45.86721" lon="4.67455">
        <ele>368.36432</ele>
        <time>2023-06-04T13:12:06.000Z</time>
      </trkpt>
      <trkpt lat="45.86718" lon="4.67457">
        <ele>368.17401</ele>
        <time>2023-06-04T13:12:07.000Z</time>
      </trkpt>
      <trkpt lat="45.86715" lon="4.6746">
        <ele>368.11734</ele>
        <time>2023-06-04T13:12:08.000Z</time>
      </trkpt>
      <trkpt lat="45.86712" lon="4.67463">
        <ele>368.07953</ele>
        <time>2023-06-04T13:12:09.000Z</time>
      </trkpt>
      <trkpt lat="45.8671" lon="4.67465">
        <ele>368.07886</ele>
        <time>2023-06-04T13:12:10.000Z</time>
      </trkpt>
      <trkpt lat="45.86707" lon="4.67468">
        <ele>368.09326</ele>
        <time>2023-06-04T13:12:11.000Z</time>
      </trkpt>
      <trkpt lat="45.86705" lon="4.6747">
        <ele>368.12323</ele>
        <time>2023-06-04T13:12:12.000Z</time>
      </trkpt>
      <trkpt lat="45.86702" lon="4.67472">
        <ele>368.13138</ele>
        <time>2023-06-04T13:12:13.000Z</time>
      </trkpt>
      <trkpt lat="45.867" lon="4.67474">
        <ele>368.12561</ele>
        <time>2023-06-04T13:12:14.000Z</time>
      </trkpt>
      <trkpt lat="45.86697" lon="4.67476">
        <ele>368.1058</ele>
        <time>2023-06-04T13:12:15.000Z</time>
      </trkpt>
      <trkpt lat="45.86695" lon="4.67477">
        <ele>368.07758</ele>
        <time>2023-06-04T13:12:16.000Z</time>
      </trkpt>
      <trkpt lat="45.86693" lon="4.67479">
        <ele>368.07819</ele>
        <time>2023-06-04T13:12:17.000Z</time>
      </trkpt>
      <trkpt lat="45.86691" lon="4.6748">
        <ele>368.11758</ele>
        <time>2023-06-04T13:12:18.000Z</time>
      </trkpt>
      <trkpt lat="45.86689" lon="4.67481">
        <ele>368.14929</ele>
        <time>2023-06-04T13:12:19.000Z</time>
      </trkpt>
      <trkpt lat="45.86686" lon="4.67483">
        <ele>368.10455</ele>
        <time>2023-06-04T13:12:20.000Z</time>
      </trkpt>
      <trkpt lat="45.86685" lon="4.67486">
        <ele>368.10968</ele>
        <time>2023-06-04T13:12:21.000Z</time>
      </trkpt>
      <trkpt lat="45.86684" lon="4.6749">
        <ele>368.14703</ele>
        <time>2023-06-04T13:12:22.000Z</time>
      </trkpt>
      <trkpt lat="45.86684" lon="4.67495">
        <ele>368.1955</ele>
        <time>2023-06-04T13:12:23.000Z</time>
      </trkpt>
      <trkpt lat="45.86689" lon="4.67502">
        <ele>368.25522</ele>
        <time>2023-06-04T13:12:24.000Z</time>
      </trkpt>
      <trkpt lat="45.86689" lon="4.67505">
        <ele>368.3587</ele>
        <time>2023-06-04T13:12:25.000Z</time>
      </trkpt>
      <trkpt lat="45.86687" lon="4.6751">
        <ele>368.41266</ele>
        <time>2023-06-04T13:12:27.000Z</time>
      </trkpt>
      <trkpt lat="45.86688" lon="4.67516">
        <ele>368.50708</ele>
        <time>2023-06-04T13:12:28.000Z</time>
      </trkpt>
      <trkpt lat="45.86688" lon="4.6752">
        <ele>368.48984</ele>
        <time>2023-06-04T13:12:29.000Z</time>
      </trkpt>
      <trkpt lat="45.86686" lon="4.67522">
        <ele>368.42865</ele>
        <time>2023-06-04T13:12:30.000Z</time>
      </trkpt>
      <trkpt lat="45.86684" lon="4.67527">
        <ele>368.36649</ele>
        <time>2023-06-04T13:12:31.000Z</time>
      </trkpt>
      <trkpt lat="45.86685" lon="4.67536">
        <ele>368.34177</ele>
        <time>2023-06-04T13:12:33.000Z</time>
      </trkpt>
      <trkpt lat="45.86685" lon="4.67542">
        <ele>368.39563</ele>
        <time>2023-06-04T13:12:34.000Z</time>
      </trkpt>
      <trkpt lat="45.86685" lon="4.67548">
        <ele>368.46701</ele>
        <time>2023-06-04T13:12:35.000Z</time>
      </trkpt>
      <trkpt lat="45.86684" lon="4.67553">
        <ele>368.51245</ele>
        <time>2023-06-04T13:12:36.000Z</time>
      </trkpt>
      <trkpt lat="45.86685" lon="4.67557">
        <ele>368.59268</ele>
        <time>2023-06-04T13:12:37.000Z</time>
      </trkpt>
      <trkpt lat="45.86685" lon="4.67561">
        <ele>368.68918</ele>
        <time>2023-06-04T13:12:38.000Z</time>
      </trkpt>
      <trkpt lat="45.86687" lon="4.67566">
        <ele>368.77374</ele>
        <time>2023-06-04T13:12:39.000Z</time>
      </trkpt>
      <trkpt lat="45.86689" lon="4.67569">
        <ele>368.82169</ele>
        <time>2023-06-04T13:12:40.000Z</time>
      </trkpt>
      <trkpt lat="45.8669" lon="4.67571">
        <ele>368.8559</ele>
        <time>2023-06-04T13:12:41.000Z</time>
      </trkpt>
      <trkpt lat="45.86691" lon="4.67576">
        <ele>368.94897</ele>
        <time>2023-06-04T13:12:43.000Z</time>
      </trkpt>
      <trkpt lat="45.86693" lon="4.67579">
        <ele>369.00922</ele>
        <time>2023-06-04T13:12:44.000Z</time>
      </trkpt>
      <trkpt lat="45.86696" lon="4.67581">
        <ele>369.06973</ele>
        <time>2023-06-04T13:12:45.000Z</time>
      </trkpt>
      <trkpt lat="45.86698" lon="4.67584">
        <ele>369.09708</ele>
        <time>2023-06-04T13:12:46.000Z</time>
      </trkpt>
      <trkpt lat="45.867" lon="4.67587">
        <ele>369.03702</ele>
        <time>2023-06-04T13:12:47.000Z</time>
      </trkpt>
      <trkpt lat="45.86702" lon="4.6759">
        <ele>369.02985</ele>
        <time>2023-06-04T13:12:48.000Z</time>
      </trkpt>
      <trkpt lat="45.86704" lon="4.67593">
        <ele>369.0372</ele>
        <time>2023-06-04T13:12:49.000Z</time>
      </trkpt>
      <trkpt lat="45.86706" lon="4.67597">
        <ele>369.01559</ele>
        <time>2023-06-04T13:12:50.000Z</time>
      </trkpt>
      <trkpt lat="45.86709" lon="4.676">
        <ele>369.01141</ele>
        <time>2023-06-04T13:12:51.000Z</time>
      </trkpt>
      <trkpt lat="45.86712" lon="4.67602">
        <ele>369.02933</ele>
        <time>2023-06-04T13:12:52.000Z</time>
      </trkpt>
      <trkpt lat="45.86715" lon="4.67604">
        <ele>369.04037</ele>
        <time>2023-06-04T13:12:53.000Z</time>
      </trkpt>
      <trkpt lat="45.86717" lon="4.67606">
        <ele>369.03177</ele>
        <time>2023-06-04T13:12:54.000Z</time>
      </trkpt>
      <trkpt lat="45.8672" lon="4.67608">
        <ele>368.99548</ele>
        <time>2023-06-04T13:12:55.000Z</time>
      </trkpt>
      <trkpt lat="45.86723" lon="4.67611">
        <ele>368.9472</ele>
        <time>2023-06-04T13:12:56.000Z</time>
      </trkpt>
      <trkpt lat="45.86726" lon="4.67613">
        <ele>368.95529</ele>
        <time>2023-06-04T13:12:57.000Z</time>
      </trkpt>
      <trkpt lat="45.86729" lon="4.67615">
        <ele>368.94614</ele>
        <time>2023-06-04T13:12:58.000Z</time>
      </trkpt>
      <trkpt lat="45.86732" lon="4.67617">
        <ele>368.95306</ele>
        <time>2023-06-04T13:12:59.000Z</time>
      </trkpt>
      <trkpt lat="45.86735" lon="4.67621">
        <ele>368.96014</ele>
        <time>2023-06-04T13:13:00.000Z</time>
      </trkpt>
      <trkpt lat="45.86737" lon="4.67624">
        <ele>368.98257</ele>
        <time>2023-06-04T13:13:01.000Z</time>
      </trkpt>
      <trkpt lat="45.86739" lon="4.67627">
        <ele>369.05899</ele>
        <time>2023-06-04T13:13:02.000Z</time>
      </trkpt>
      <trkpt lat="45.86741" lon="4.67631">
        <ele>369.16583</ele>
        <time>2023-06-04T13:13:03.000Z</time>
      </trkpt>
      <trkpt lat="45.86744" lon="4.67636">
        <ele>369.29965</ele>
        <time>2023-06-04T13:13:04.000Z</time>
      </trkpt>
      <trkpt lat="45.86747" lon="4.67639">
        <ele>369.40964</ele>
        <time>2023-06-04T13:13:05.000Z</time>
      </trkpt>
      <trkpt lat="45.86749" lon="4.67642">
        <ele>369.9678</ele>
        <time>2023-06-04T13:13:06.000Z</time>
      </trkpt>
      <trkpt lat="45.86752" lon="4.67645">
        <ele>370.12936</ele>
        <time>2023-06-04T13:13:07.000Z</time>
      </trkpt>
      <trkpt lat="45.86755" lon="4.67648">
        <ele>370.2583</ele>
        <time>2023-06-04T13:13:08.000Z</time>
      </trkpt>
      <trkpt lat="45.86758" lon="4.67652">
        <ele>370.41211</ele>
        <time>2023-06-04T13:13:09.000Z</time>
      </trkpt>
      <trkpt lat="45.86759" lon="4.67656">
        <ele>370.54575</ele>
        <time>2023-06-04T13:13:10.000Z</time>
      </trkpt>
      <trkpt lat="45.86758" lon="4.67661">
        <ele>370.62595</ele>
        <time>2023-06-04T13:13:11.000Z</time>
      </trkpt>
      <trkpt lat="45.86756" lon="4.67665">
        <ele>370.70465</ele>
        <time>2023-06-04T13:13:12.000Z</time>
      </trkpt>
      <trkpt lat="45.86741" lon="4.67664">
        <ele>370.73215</ele>
        <time>2023-06-04T13:13:13.000Z</time>
      </trkpt>
      <trkpt lat="45.86736" lon="4.67664">
        <ele>370.73105</ele>
        <time>2023-06-04T13:13:14.000Z</time>
      </trkpt>
      <trkpt lat="45.86732" lon="4.6767">
        <ele>370.76239</ele>
        <time>2023-06-04T13:13:15.000Z</time>
      </trkpt>
      <trkpt lat="45.86726" lon="4.67674">
        <ele>370.76132</ele>
        <time>2023-06-04T13:13:16.000Z</time>
      </trkpt>
      <trkpt lat="45.86719" lon="4.67673">
        <ele>370.7623</ele>
        <time>2023-06-04T13:13:17.000Z</time>
      </trkpt>
      <trkpt lat="45.86713" lon="4.67674">
        <ele>370.74921</ele>
        <time>2023-06-04T13:13:18.000Z</time>
      </trkpt>
      <trkpt lat="45.86709" lon="4.67677">
        <ele>370.68646</ele>
        <time>2023-06-04T13:13:19.000Z</time>
      </trkpt>
      <trkpt lat="45.86704" lon="4.67679">
        <ele>370.60791</ele>
        <time>2023-06-04T13:13:20.000Z</time>
      </trkpt>
      <trkpt lat="45.86696" lon="4.67686">
        <ele>370.48276</ele>
        <time>2023-06-04T13:13:21.000Z</time>
      </trkpt>
      <trkpt lat="45.86694" lon="4.67693">
        <ele>370.34039</ele>
        <time>2023-06-04T13:13:22.000Z</time>
      </trkpt>
      <trkpt lat="45.86693" lon="4.67705">
        <ele>370.15839</ele>
        <time>2023-06-04T13:13:23.000Z</time>
      </trkpt>
      <trkpt lat="45.86689" lon="4.67714">
        <ele>369.94977</ele>
        <time>2023-06-04T13:13:24.000Z</time>
      </trkpt>
      <trkpt lat="45.86688" lon="4.67727">
        <ele>369.76337</ele>
        <time>2023-06-04T13:13:25.000Z</time>
      </trkpt>
      <trkpt lat="45.86685" lon="4.67734">
        <ele>369.11807</ele>
        <time>2023-06-04T13:13:26.000Z</time>
      </trkpt>
      <trkpt lat="45.86682" lon="4.6774">
        <ele>368.91415</ele>
        <time>2023-06-04T13:13:27.000Z</time>
      </trkpt>
      <trkpt lat="45.8668" lon="4.67751">
        <ele>368.6861</ele>
        <time>2023-06-04T13:13:28.000Z</time>
      </trkpt>
      <trkpt lat="45.86677" lon="4.67757">
        <ele>368.4494</ele>
        <time>2023-06-04T13:13:29.000Z</time>
      </trkpt>
      <trkpt lat="45.8667" lon="4.67761">
        <ele>368.19836</ele>
        <time>2023-06-04T13:13:30.000Z</time>
      </trkpt>
      <trkpt lat="45.86663" lon="4.67764">
        <ele>367.8902</ele>
        <time>2023-06-04T13:13:31.000Z</time>
      </trkpt>
      <trkpt lat="45.8665" lon="4.67764">
        <ele>367.48447</ele>
        <time>2023-06-04T13:13:32.000Z</time>
      </trkpt>
      <trkpt lat="45.86641" lon="4.67764">
        <ele>367.09988</ele>
        <time>2023-06-04T13:13:33.000Z</time>
      </trkpt>
      <trkpt lat="45.86632" lon="4.67765">
        <ele>366.79309</ele>
        <time>2023-06-04T13:13:34.000Z</time>
      </trkpt>
      <trkpt lat="45.86622" lon="4.67768">
        <ele>366.4364</ele>
        <time>2023-06-04T13:13:35.000Z</time>
      </trkpt>
      <trkpt lat="45.86613" lon="4.67771">
        <ele>366.08759</ele>
        <time>2023-06-04T13:13:36.000Z</time>
      </trkpt>
      <trkpt lat="45.86601" lon="4.67775">
        <ele>365.65411</ele>
        <time>2023-06-04T13:13:37.000Z</time>
      </trkpt>
      <trkpt lat="45.8659" lon="4.67783">
        <ele>365.26346</ele>
        <time>2023-06-04T13:13:38.000Z</time>
      </trkpt>
      <trkpt lat="45.8658" lon="4.67791">
        <ele>364.88739</ele>
        <time>2023-06-04T13:13:39.000Z</time>
      </trkpt>
      <trkpt lat="45.8657" lon="4.67798">
        <ele>364.47363</ele>
        <time>2023-06-04T13:13:40.000Z</time>
      </trkpt>
      <trkpt lat="45.86559" lon="4.67808">
        <ele>364.03479</ele>
        <time>2023-06-04T13:13:41.000Z</time>
      </trkpt>
      <trkpt lat="45.86552" lon="4.67816">
        <ele>363.56479</ele>
        <time>2023-06-04T13:13:42.000Z</time>
      </trkpt>
      <trkpt lat="45.86541" lon="4.67821">
        <ele>363.06088</ele>
        <time>2023-06-04T13:13:43.000Z</time>
      </trkpt>
      <trkpt lat="45.86535" lon="4.67827">
        <ele>362.61035</ele>
        <time>2023-06-04T13:13:44.000Z</time>
      </trkpt>
      <trkpt lat="45.86525" lon="4.67831">
        <ele>362.14691</ele>
        <time>2023-06-04T13:13:45.000Z</time>
      </trkpt>
      <trkpt lat="45.86514" lon="4.6783">
        <ele>361.49329</ele>
        <time>2023-06-04T13:13:46.000Z</time>
      </trkpt>
      <trkpt lat="45.86507" lon="4.67831">
        <ele>360.8266</ele>
        <time>2023-06-04T13:13:47.000Z</time>
      </trkpt>
      <trkpt lat="45.86499" lon="4.67833">
        <ele>360.21503</ele>
        <time>2023-06-04T13:13:48.000Z</time>
      </trkpt>
      <trkpt lat="45.86492" lon="4.6784">
        <ele>359.55823</ele>
        <time>2023-06-04T13:13:49.000Z</time>
      </trkpt>
      <trkpt lat="45.86485" lon="4.67846">
        <ele>358.94196</ele>
        <time>2023-06-04T13:13:50.000Z</time>
      </trkpt>
      <trkpt lat="45.86477" lon="4.67851">
        <ele>358.40292</ele>
        <time>2023-06-04T13:13:51.000Z</time>
      </trkpt>
      <trkpt lat="45.86468" lon="4.67857">
        <ele>357.95807</ele>
        <time>2023-06-04T13:13:52.000Z</time>
      </trkpt>
      <trkpt lat="45.86464" lon="4.67863">
        <ele>357.54065</ele>
        <time>2023-06-04T13:13:53.000Z</time>
      </trkpt>
      <trkpt lat="45.86457" lon="4.67872">
        <ele>357.0788</ele>
        <time>2023-06-04T13:13:54.000Z</time>
      </trkpt>
      <trkpt lat="45.86449" lon="4.6788">
        <ele>356.6434</ele>
        <time>2023-06-04T13:13:55.000Z</time>
      </trkpt>
      <trkpt lat="45.8644" lon="4.67889">
        <ele>356.26575</ele>
        <time>2023-06-04T13:13:56.000Z</time>
      </trkpt>
      <trkpt lat="45.86433" lon="4.67896">
        <ele>355.89249</ele>
        <time>2023-06-04T13:13:57.000Z</time>
      </trkpt>
      <trkpt lat="45.86425" lon="4.67904">
        <ele>355.47858</ele>
        <time>2023-06-04T13:13:58.000Z</time>
      </trkpt>
      <trkpt lat="45.86417" lon="4.67917">
        <ele>355.08795</ele>
        <time>2023-06-04T13:13:59.000Z</time>
      </trkpt>
      <trkpt lat="45.86411" lon="4.67927">
        <ele>354.71933</ele>
        <time>2023-06-04T13:14:00.000Z</time>
      </trkpt>
      <trkpt lat="45.86406" lon="4.67941">
        <ele>354.39517</ele>
        <time>2023-06-04T13:14:01.000Z</time>
      </trkpt>
      <trkpt lat="45.86397" lon="4.67958">
        <ele>354.07446</ele>
        <time>2023-06-04T13:14:02.000Z</time>
      </trkpt>
      <trkpt lat="45.86393" lon="4.67974">
        <ele>353.81192</ele>
        <time>2023-06-04T13:14:03.000Z</time>
      </trkpt>
      <trkpt lat="45.86389" lon="4.67991">
        <ele>353.51581</ele>
        <time>2023-06-04T13:14:04.000Z</time>
      </trkpt>
      <trkpt lat="45.86379" lon="4.68001">
        <ele>353.19571</ele>
        <time>2023-06-04T13:14:05.000Z</time>
      </trkpt>
      <trkpt lat="45.86373" lon="4.68012">
        <ele>353.03546</ele>
        <time>2023-06-04T13:14:06.000Z</time>
      </trkpt>
      <trkpt lat="45.86359" lon="4.68026">
        <ele>352.79364</ele>
        <time>2023-06-04T13:14:07.000Z</time>
      </trkpt>
      <trkpt lat="45.86347" lon="4.6804">
        <ele>352.41833</ele>
        <time>2023-06-04T13:14:08.000Z</time>
      </trkpt>
      <trkpt lat="45.86334" lon="4.68053">
        <ele>351.97003</ele>
        <time>2023-06-04T13:14:09.000Z</time>
      </trkpt>
      <trkpt lat="45.86325" lon="4.68063">
        <ele>351.3667</ele>
        <time>2023-06-04T13:14:10.000Z</time>
      </trkpt>
      <trkpt lat="45.86317" lon="4.68074">
        <ele>350.7215</ele>
        <time>2023-06-04T13:14:11.000Z</time>
      </trkpt>
      <trkpt lat="45.86313" lon="4.6808">
        <ele>350.02142</ele>
        <time>2023-06-04T13:14:12.000Z</time>
      </trkpt>
      <trkpt lat="45.86307" lon="4.68086">
        <ele>349.29443</ele>
        <time>2023-06-04T13:14:13.000Z</time>
      </trkpt>
      <trkpt lat="45.86305" lon="4.68088">
        <ele>348.42401</ele>
        <time>2023-06-04T13:14:14.000Z</time>
      </trkpt>
      <trkpt lat="45.86302" lon="4.68092">
        <ele>347.56723</ele>
        <time>2023-06-04T13:14:15.000Z</time>
      </trkpt>
      <trkpt lat="45.86297" lon="4.68095">
        <ele>346.61774</ele>
        <time>2023-06-04T13:14:16.000Z</time>
      </trkpt>
      <trkpt lat="45.86294" lon="4.68093">
        <ele>345.74997</ele>
        <time>2023-06-04T13:14:17.000Z</time>
      </trkpt>
      <trkpt lat="45.86292" lon="4.68087">
        <ele>344.82953</ele>
        <time>2023-06-04T13:14:18.000Z</time>
      </trkpt>
      <trkpt lat="45.86292" lon="4.68083">
        <ele>343.83026</ele>
        <time>2023-06-04T13:14:19.000Z</time>
      </trkpt>
      <trkpt lat="45.8629" lon="4.68074">
        <ele>342.93506</ele>
        <time>2023-06-04T13:14:20.000Z</time>
      </trkpt>
      <trkpt lat="45.86288" lon="4.68068">
        <ele>341.99854</ele>
        <time>2023-06-04T13:14:21.000Z</time>
      </trkpt>
      <trkpt lat="45.86284" lon="4.68063">
        <ele>341.01987</ele>
        <time>2023-06-04T13:14:22.000Z</time>
      </trkpt>
      <trkpt lat="45.86283" lon="4.68054">
        <ele>340.0578</ele>
        <time>2023-06-04T13:14:23.000Z</time>
      </trkpt>
      <trkpt lat="45.86282" lon="4.68051">
        <ele>339.05496</ele>
        <time>2023-06-04T13:14:24.000Z</time>
      </trkpt>
      <trkpt lat="45.8628" lon="4.68046">
        <ele>338.04266</ele>
        <time>2023-06-04T13:14:25.000Z</time>
      </trkpt>
      <trkpt lat="45.86276" lon="4.68038">
        <ele>336.96924</ele>
        <time>2023-06-04T13:14:26.000Z</time>
      </trkpt>
      <trkpt lat="45.86273" lon="4.68033">
        <ele>336.13153</ele>
        <time>2023-06-04T13:14:27.000Z</time>
      </trkpt>
      <trkpt lat="45.8627" lon="4.68023">
        <ele>335.44354</ele>
        <time>2023-06-04T13:14:28.000Z</time>
      </trkpt>
      <trkpt lat="45.86269" lon="4.68014">
        <ele>334.84698</ele>
        <time>2023-06-04T13:14:29.000Z</time>
      </trkpt>
      <trkpt lat="45.86265" lon="4.68005">
        <ele>334.36758</ele>
        <time>2023-06-04T13:14:30.000Z</time>
      </trkpt>
      <trkpt lat="45.86262" lon="4.67996">
        <ele>333.95297</ele>
        <time>2023-06-04T13:14:31.000Z</time>
      </trkpt>
      <trkpt lat="45.86257" lon="4.67986">
        <ele>333.61288</ele>
        <time>2023-06-04T13:14:32.000Z</time>
      </trkpt>
      <trkpt lat="45.86255" lon="4.67975">
        <ele>333.32196</ele>
        <time>2023-06-04T13:14:33.000Z</time>
      </trkpt>
      <trkpt lat="45.86251" lon="4.67963">
        <ele>333.11334</ele>
        <time>2023-06-04T13:14:34.000Z</time>
      </trkpt>
      <trkpt lat="45.86248" lon="4.6795">
        <ele>332.81766</ele>
        <time>2023-06-04T13:14:35.000Z</time>
      </trkpt>
      <trkpt lat="45.86243" lon="4.67936">
        <ele>332.51349</ele>
        <time>2023-06-04T13:14:36.000Z</time>
      </trkpt>
      <trkpt lat="45.86239" lon="4.67922">
        <ele>332.12311</ele>
        <time>2023-06-04T13:14:37.000Z</time>
      </trkpt>
      <trkpt lat="45.86232" lon="4.67906">
        <ele>331.75888</ele>
        <time>2023-06-04T13:14:38.000Z</time>
      </trkpt>
      <trkpt lat="45.86228" lon="4.67893">
        <ele>331.39127</ele>
        <time>2023-06-04T13:14:39.000Z</time>
      </trkpt>
      <trkpt lat="45.86223" lon="4.67887">
        <ele>331.09683</ele>
        <time>2023-06-04T13:14:40.000Z</time>
      </trkpt>
      <trkpt lat="45.86218" lon="4.67876">
        <ele>330.76025</ele>
        <time>2023-06-04T13:14:41.000Z</time>
      </trkpt>
      <trkpt lat="45.86212" lon="4.67864">
        <ele>330.39584</ele>
        <time>2023-06-04T13:14:42.000Z</time>
      </trkpt>
      <trkpt lat="45.86206" lon="4.67853">
        <ele>330.23654</ele>
        <time>2023-06-04T13:14:43.000Z</time>
      </trkpt>
      <trkpt lat="45.86203" lon="4.67845">
        <ele>330.10965</ele>
        <time>2023-06-04T13:14:44.000Z</time>
      </trkpt>
      <trkpt lat="45.86197" lon="4.67838">
        <ele>330.3382</ele>
        <time>2023-06-04T13:14:45.000Z</time>
      </trkpt>
      <trkpt lat="45.86193" lon="4.67829">
        <ele>330.38269</ele>
        <time>2023-06-04T13:14:46.000Z</time>
      </trkpt>
      <trkpt lat="45.86189" lon="4.6782">
        <ele>330.29428</ele>
        <time>2023-06-04T13:14:47.000Z</time>
      </trkpt>
      <trkpt lat="45.86187" lon="4.67818">
        <ele>330.13113</ele>
        <time>2023-06-04T13:14:48.000Z</time>
      </trkpt>
      <trkpt lat="45.86185" lon="4.67814">
        <ele>328.49704</ele>
        <time>2023-06-04T13:14:49.000Z</time>
      </trkpt>
      <trkpt lat="45.86182" lon="4.6781">
        <ele>328.29984</ele>
        <time>2023-06-04T13:14:50.000Z</time>
      </trkpt>
      <trkpt lat="45.86177" lon="4.67807">
        <ele>328.09113</ele>
        <time>2023-06-04T13:14:51.000Z</time>
      </trkpt>
      <trkpt lat="45.86172" lon="4.67802">
        <ele>327.85858</ele>
        <time>2023-06-04T13:14:52.000Z</time>
      </trkpt>
      <trkpt lat="45.86171" lon="4.67797">
        <ele>326.12323</ele>
        <time>2023-06-04T13:14:53.000Z</time>
      </trkpt>
      <trkpt lat="45.86166" lon="4.67791">
        <ele>324.35748</ele>
        <time>2023-06-04T13:14:54.000Z</time>
      </trkpt>
      <trkpt lat="45.86162" lon="4.67787">
        <ele>322.6441</ele>
        <time>2023-06-04T13:14:55.000Z</time>
      </trkpt>
      <trkpt lat="45.8616" lon="4.67781">
        <ele>321.27191</ele>
        <time>2023-06-04T13:14:56.000Z</time>
      </trkpt>
      <trkpt lat="45.8616" lon="4.67776">
        <ele>319.95441</ele>
        <time>2023-06-04T13:14:57.000Z</time>
      </trkpt>
      <trkpt lat="45.86158" lon="4.67772">
        <ele>318.68933</ele>
        <time>2023-06-04T13:14:58.000Z</time>
      </trkpt>
      <trkpt lat="45.86156" lon="4.67769">
        <ele>317.52274</ele>
        <time>2023-06-04T13:14:59.000Z</time>
      </trkpt>
      <trkpt lat="45.86155" lon="4.67763">
        <ele>316.18271</ele>
        <time>2023-06-04T13:15:00.000Z</time>
      </trkpt>
      <trkpt lat="45.86153" lon="4.6776">
        <ele>314.93246</ele>
        <time>2023-06-04T13:15:01.000Z</time>
      </trkpt>
      <trkpt lat="45.86152" lon="4.67755">
        <ele>313.7355</ele>
        <time>2023-06-04T13:15:02.000Z</time>
      </trkpt>
      <trkpt lat="45.86148" lon="4.67753">
        <ele>313.77899</ele>
        <time>2023-06-04T13:15:03.000Z</time>
      </trkpt>
      <trkpt lat="45.86143" lon="4.67744">
        <ele>313.8349</ele>
        <time>2023-06-04T13:15:04.000Z</time>
      </trkpt>
      <trkpt lat="45.86141" lon="4.6774">
        <ele>313.51501</ele>
        <time>2023-06-04T13:15:05.000Z</time>
      </trkpt>
      <trkpt lat="45.86139" lon="4.67734">
        <ele>313.39935</ele>
        <time>2023-06-04T13:15:06.000Z</time>
      </trkpt>
      <trkpt lat="45.86135" lon="4.67726">
        <ele>313.33456</ele>
        <time>2023-06-04T13:15:07.000Z</time>
      </trkpt>
      <trkpt lat="45.86133" lon="4.67721">
        <ele>313.25653</ele>
        <time>2023-06-04T13:15:08.000Z</time>
      </trkpt>
      <trkpt lat="45.86131" lon="4.67714">
        <ele>314.6994</ele>
        <time>2023-06-04T13:15:09.000Z</time>
      </trkpt>
      <trkpt lat="45.8613" lon="4.67711">
        <ele>315.05344</ele>
        <time>2023-06-04T13:15:10.000Z</time>
      </trkpt>
      <trkpt lat="45.86131" lon="4.67704">
        <ele>315.3363</ele>
        <time>2023-06-04T13:15:11.000Z</time>
      </trkpt>
      <trkpt lat="45.86129" lon="4.67696">
        <ele>315.60779</ele>
        <time>2023-06-04T13:15:12.000Z</time>
      </trkpt>
      <trkpt lat="45.86128" lon="4.67691">
        <ele>317.42889</ele>
        <time>2023-06-04T13:15:13.000Z</time>
      </trkpt>
      <trkpt lat="45.86128" lon="4.67688">
        <ele>319.4678</ele>
        <time>2023-06-04T13:15:14.000Z</time>
      </trkpt>
      <trkpt lat="45.86126" lon="4.67682">
        <ele>321.43134</ele>
        <time>2023-06-04T13:15:15.000Z</time>
      </trkpt>
      <trkpt lat="45.86125" lon="4.67677">
        <ele>323.12808</ele>
        <time>2023-06-04T13:15:16.000Z</time>
      </trkpt>
      <trkpt lat="45.86124" lon="4.6767">
        <ele>324.96219</ele>
        <time>2023-06-04T13:15:17.000Z</time>
      </trkpt>
      <trkpt lat="45.86122" lon="4.67664">
        <ele>326.7525</ele>
        <time>2023-06-04T13:15:18.000Z</time>
      </trkpt>
      <trkpt lat="45.86121" lon="4.67661">
        <ele>328.50439</ele>
        <time>2023-06-04T13:15:19.000Z</time>
      </trkpt>
      <trkpt lat="45.8612" lon="4.67654">
        <ele>330.29419</ele>
        <time>2023-06-04T13:15:20.000Z</time>
      </trkpt>
      <trkpt lat="45.86118" lon="4.67648">
        <ele>332.02649</ele>
        <time>2023-06-04T13:15:21.000Z</time>
      </trkpt>
      <trkpt lat="45.86117" lon="4.67642">
        <ele>333.83368</ele>
        <time>2023-06-04T13:15:22.000Z</time>
      </trkpt>
      <trkpt lat="45.86117" lon="4.67636">
        <ele>334.19244</ele>
        <time>2023-06-04T13:15:23.000Z</time>
      </trkpt>
      <trkpt lat="45.86115" lon="4.67628">
        <ele>334.62091</ele>
        <time>2023-06-04T13:15:24.000Z</time>
      </trkpt>
      <trkpt lat="45.86113" lon="4.6762">
        <ele>335.09732</ele>
        <time>2023-06-04T13:15:26.000Z</time>
      </trkpt>
      <trkpt lat="45.86112" lon="4.67615">
        <ele>335.66156</ele>
        <time>2023-06-04T13:15:27.000Z</time>
      </trkpt>
      <trkpt lat="45.86114" lon="4.67611">
        <ele>336.16223</ele>
        <time>2023-06-04T13:15:28.000Z</time>
      </trkpt>
      <trkpt lat="45.86113" lon="4.67607">
        <ele>336.68878</ele>
        <time>2023-06-04T13:15:29.000Z</time>
      </trkpt>
      <trkpt lat="45.86114" lon="4.67605">
        <ele>337.1665</ele>
        <time>2023-06-04T13:15:30.000Z</time>
      </trkpt>
      <trkpt lat="45.8611" lon="4.67597">
        <ele>337.33264</ele>
        <time>2023-06-04T13:15:31.000Z</time>
      </trkpt>
      <trkpt lat="45.86106" lon="4.67591">
        <ele>337.58853</ele>
        <time>2023-06-04T13:15:32.000Z</time>
      </trkpt>
      <trkpt lat="45.86105" lon="4.67586">
        <ele>337.82462</ele>
        <time>2023-06-04T13:15:33.000Z</time>
      </trkpt>
      <trkpt lat="45.86103" lon="4.67583">
        <ele>337.92462</ele>
        <time>2023-06-04T13:15:34.000Z</time>
      </trkpt>
      <trkpt lat="45.86105" lon="4.67579">
        <ele>337.94666</ele>
        <time>2023-06-04T13:15:35.000Z</time>
      </trkpt>
      <trkpt lat="45.86106" lon="4.67573">
        <ele>338.11731</ele>
        <time>2023-06-04T13:15:36.000Z</time>
      </trkpt>
      <trkpt lat="45.86106" lon="4.67564">
        <ele>338.20444</ele>
        <time>2023-06-04T13:15:37.000Z</time>
      </trkpt>
      <trkpt lat="45.86105" lon="4.6756">
        <ele>338.12292</ele>
        <time>2023-06-04T13:15:38.000Z</time>
      </trkpt>
      <trkpt lat="45.86107" lon="4.67555">
        <ele>338.11041</ele>
        <time>2023-06-04T13:15:39.000Z</time>
      </trkpt>
      <trkpt lat="45.86108" lon="4.67547">
        <ele>338.10898</ele>
        <time>2023-06-04T13:15:40.000Z</time>
      </trkpt>
      <trkpt lat="45.86108" lon="4.67543">
        <ele>338.1673</ele>
        <time>2023-06-04T13:15:41.000Z</time>
      </trkpt>
      <trkpt lat="45.86109" lon="4.67536">
        <ele>338.28864</ele>
        <time>2023-06-04T13:15:42.000Z</time>
      </trkpt>
      <trkpt lat="45.86108" lon="4.67528">
        <ele>338.38028</ele>
        <time>2023-06-04T13:15:43.000Z</time>
      </trkpt>
      <trkpt lat="45.86106" lon="4.67523">
        <ele>338.59613</ele>
        <time>2023-06-04T13:15:44.000Z</time>
      </trkpt>
      <trkpt lat="45.86105" lon="4.67517">
        <ele>338.68433</ele>
        <time>2023-06-04T13:15:45.000Z</time>
      </trkpt>
      <trkpt lat="45.86102" lon="4.6751">
        <ele>338.34576</ele>
        <time>2023-06-04T13:15:46.000Z</time>
      </trkpt>
      <trkpt lat="45.86101" lon="4.67502">
        <ele>338.14801</ele>
        <time>2023-06-04T13:15:47.000Z</time>
      </trkpt>
      <trkpt lat="45.86105" lon="4.67494">
        <ele>337.9866</ele>
        <time>2023-06-04T13:15:48.000Z</time>
      </trkpt>
      <trkpt lat="45.86104" lon="4.67489">
        <ele>337.76984</ele>
        <time>2023-06-04T13:15:49.000Z</time>
      </trkpt>
      <trkpt lat="45.86103" lon="4.67483">
        <ele>337.5683</ele>
        <time>2023-06-04T13:15:50.000Z</time>
      </trkpt>
      <trkpt lat="45.86099" lon="4.67475">
        <ele>337.44708</ele>
        <time>2023-06-04T13:15:51.000Z</time>
      </trkpt>
      <trkpt lat="45.86098" lon="4.67467">
        <ele>337.38171</ele>
        <time>2023-06-04T13:15:52.000Z</time>
      </trkpt>
      <trkpt lat="45.86101" lon="4.67459">
        <ele>337.2475</ele>
        <time>2023-06-04T13:15:53.000Z</time>
      </trkpt>
      <trkpt lat="45.861" lon="4.67449">
        <ele>337.1619</ele>
        <time>2023-06-04T13:15:54.000Z</time>
      </trkpt>
      <trkpt lat="45.861" lon="4.67439">
        <ele>336.9704</ele>
        <time>2023-06-04T13:15:55.000Z</time>
      </trkpt>
      <trkpt lat="45.861" lon="4.67434">
        <ele>336.6778</ele>
        <time>2023-06-04T13:15:56.000Z</time>
      </trkpt>
      <trkpt lat="45.861" lon="4.67427">
        <ele>336.52084</ele>
        <time>2023-06-04T13:15:57.000Z</time>
      </trkpt>
      <trkpt lat="45.86102" lon="4.67417">
        <ele>336.3356</ele>
        <time>2023-06-04T13:15:58.000Z</time>
      </trkpt>
      <trkpt lat="45.86102" lon="4.67411">
        <ele>336.09955</ele>
        <time>2023-06-04T13:15:59.000Z</time>
      </trkpt>
      <trkpt lat="45.861" lon="4.67403">
        <ele>335.67511</ele>
        <time>2023-06-04T13:16:00.000Z</time>
      </trkpt>
      <trkpt lat="45.86099" lon="4.67395">
        <ele>334.97186</ele>
        <time>2023-06-04T13:16:01.000Z</time>
      </trkpt>
      <trkpt lat="45.86098" lon="4.67386">
        <ele>334.23468</ele>
        <time>2023-06-04T13:16:02.000Z</time>
      </trkpt>
      <trkpt lat="45.86095" lon="4.67377">
        <ele>333.88</ele>
        <time>2023-06-04T13:16:03.000Z</time>
      </trkpt>
      <trkpt lat="45.86092" lon="4.67368">
        <ele>333.37506</ele>
        <time>2023-06-04T13:16:04.000Z</time>
      </trkpt>
      <trkpt lat="45.86093" lon="4.67355">
        <ele>332.90823</ele>
        <time>2023-06-04T13:16:05.000Z</time>
      </trkpt>
      <trkpt lat="45.86096" lon="4.67345">
        <ele>332.88385</ele>
        <time>2023-06-04T13:16:06.000Z</time>
      </trkpt>
      <trkpt lat="45.86098" lon="4.67334">
        <ele>332.66257</ele>
        <time>2023-06-04T13:16:07.000Z</time>
      </trkpt>
      <trkpt lat="45.86098" lon="4.6732">
        <ele>332.37756</ele>
        <time>2023-06-04T13:16:08.000Z</time>
      </trkpt>
      <trkpt lat="45.86097" lon="4.67311">
        <ele>332.13327</ele>
        <time>2023-06-04T13:16:09.000Z</time>
      </trkpt>
      <trkpt lat="45.86093" lon="4.67299">
        <ele>331.85748</ele>
        <time>2023-06-04T13:16:10.000Z</time>
      </trkpt>
      <trkpt lat="45.86089" lon="4.67287">
        <ele>331.48654</ele>
        <time>2023-06-04T13:16:11.000Z</time>
      </trkpt>
      <trkpt lat="45.86083" lon="4.67273">
        <ele>331.02551</ele>
        <time>2023-06-04T13:16:12.000Z</time>
      </trkpt>
      <trkpt lat="45.86077" lon="4.67256">
        <ele>330.64005</ele>
        <time>2023-06-04T13:16:13.000Z</time>
      </trkpt>
      <trkpt lat="45.8607" lon="4.67242">
        <ele>330.35339</ele>
        <time>2023-06-04T13:16:14.000Z</time>
      </trkpt>
      <trkpt lat="45.86064" lon="4.6723">
        <ele>330.10892</ele>
        <time>2023-06-04T13:16:15.000Z</time>
      </trkpt>
      <trkpt lat="45.86056" lon="4.67217">
        <ele>329.78812</ele>
        <time>2023-06-04T13:16:16.000Z</time>
      </trkpt>
      <trkpt lat="45.86049" lon="4.67204">
        <ele>329.38699</ele>
        <time>2023-06-04T13:16:17.000Z</time>
      </trkpt>
      <trkpt lat="45.86043" lon="4.67193">
        <ele>328.91516</ele>
        <time>2023-06-04T13:16:18.000Z</time>
      </trkpt>
      <trkpt lat="45.86038" lon="4.67185">
        <ele>327.73019</ele>
        <time>2023-06-04T13:16:19.000Z</time>
      </trkpt>
      <trkpt lat="45.86033" lon="4.67175">
        <ele>326.92099</ele>
        <time>2023-06-04T13:16:20.000Z</time>
      </trkpt>
      <trkpt lat="45.86028" lon="4.67169">
        <ele>326.25342</ele>
        <time>2023-06-04T13:16:21.000Z</time>
      </trkpt>
      <trkpt lat="45.86023" lon="4.67163">
        <ele>325.5463</ele>
        <time>2023-06-04T13:16:22.000Z</time>
      </trkpt>
      <trkpt lat="45.86018" lon="4.67157">
        <ele>324.43427</ele>
        <time>2023-06-04T13:16:23.000Z</time>
      </trkpt>
      <trkpt lat="45.86014" lon="4.67148">
        <ele>323.37482</ele>
        <time>2023-06-04T13:16:24.000Z</time>
      </trkpt>
      <trkpt lat="45.86011" lon="4.67135">
        <ele>322.3685</ele>
        <time>2023-06-04T13:16:25.000Z</time>
      </trkpt>
      <trkpt lat="45.86008" lon="4.6712">
        <ele>321.42401</ele>
        <time>2023-06-04T13:16:26.000Z</time>
      </trkpt>
      <trkpt lat="45.86005" lon="4.67099">
        <ele>320.58771</ele>
        <time>2023-06-04T13:16:27.000Z</time>
      </trkpt>
      <trkpt lat="45.86006" lon="4.67087">
        <ele>319.72601</ele>
        <time>2023-06-04T13:16:28.000Z</time>
      </trkpt>
      <trkpt lat="45.86006" lon="4.67069">
        <ele>318.94379</ele>
        <time>2023-06-04T13:16:29.000Z</time>
      </trkpt>
      <trkpt lat="45.86001" lon="4.67051">
        <ele>318.09845</ele>
        <time>2023-06-04T13:16:30.000Z</time>
      </trkpt>
      <trkpt lat="45.85997" lon="4.67036">
        <ele>317.30212</ele>
        <time>2023-06-04T13:16:31.000Z</time>
      </trkpt>
      <trkpt lat="45.85992" lon="4.67018">
        <ele>316.46298</ele>
        <time>2023-06-04T13:16:32.000Z</time>
      </trkpt>
      <trkpt lat="45.85988" lon="4.67007">
        <ele>315.59454</ele>
        <time>2023-06-04T13:16:33.000Z</time>
      </trkpt>
      <trkpt lat="45.85992" lon="4.66993">
        <ele>314.6857</ele>
        <time>2023-06-04T13:16:34.000Z</time>
      </trkpt>
      <trkpt lat="45.85992" lon="4.66976">
        <ele>313.74078</ele>
        <time>2023-06-04T13:16:35.000Z</time>
      </trkpt>
      <trkpt lat="45.85992" lon="4.66966">
        <ele>312.88742</ele>
        <time>2023-06-04T13:16:36.000Z</time>
      </trkpt>
      <trkpt lat="45.85988" lon="4.66953">
        <ele>312.02338</ele>
        <time>2023-06-04T13:16:37.000Z</time>
      </trkpt>
      <trkpt lat="45.85986" lon="4.66949">
        <ele>311.46405</ele>
        <time>2023-06-04T13:16:38.000Z</time>
      </trkpt>
      <trkpt lat="45.85987" lon="4.66949">
        <ele>311.72125</ele>
        <time>2023-06-04T13:16:39.000Z</time>
      </trkpt>
      <trkpt lat="45.85984" lon="4.66957">
        <ele>311.74542</ele>
        <time>2023-06-04T13:16:40.000Z</time>
      </trkpt>
      <trkpt lat="45.85978" lon="4.66957">
        <ele>311.86154</ele>
        <time>2023-06-04T13:16:41.000Z</time>
      </trkpt>
      <trkpt lat="45.85973" lon="4.66965">
        <ele>311.94287</ele>
        <time>2023-06-04T13:16:42.000Z</time>
      </trkpt>
      <trkpt lat="45.85968" lon="4.66966">
        <ele>312.1669</ele>
        <time>2023-06-04T13:16:43.000Z</time>
      </trkpt>
      <trkpt lat="45.85961" lon="4.66972">
        <ele>312.25922</ele>
        <time>2023-06-04T13:16:44.000Z</time>
      </trkpt>
      <trkpt lat="45.85953" lon="4.66975">
        <ele>312.30267</ele>
        <time>2023-06-04T13:16:45.000Z</time>
      </trkpt>
      <trkpt lat="45.8594" lon="4.66977">
        <ele>312.27219</ele>
        <time>2023-06-04T13:16:46.000Z</time>
      </trkpt>
      <trkpt lat="45.85934" lon="4.66971">
        <ele>312.12027</ele>
        <time>2023-06-04T13:16:47.000Z</time>
      </trkpt>
      <trkpt lat="45.85924" lon="4.66965">
        <ele>311.97147</ele>
        <time>2023-06-04T13:16:48.000Z</time>
      </trkpt>
      <trkpt lat="45.85914" lon="4.66958">
        <ele>311.616</ele>
        <time>2023-06-04T13:16:49.000Z</time>
      </trkpt>
      <trkpt lat="45.85907" lon="4.66958">
        <ele>311.37619</ele>
        <time>2023-06-04T13:16:50.000Z</time>
      </trkpt>
      <trkpt lat="45.85898" lon="4.66956">
        <ele>310.99329</ele>
        <time>2023-06-04T13:16:51.000Z</time>
      </trkpt>
      <trkpt lat="45.8589" lon="4.66955">
        <ele>310.69907</ele>
        <time>2023-06-04T13:16:52.000Z</time>
      </trkpt>
      <trkpt lat="45.85886" lon="4.66953">
        <ele>310.4628</ele>
        <time>2023-06-04T13:16:53.000Z</time>
      </trkpt>
      <trkpt lat="45.85879" lon="4.66945">
        <ele>310.19464</ele>
        <time>2023-06-04T13:16:54.000Z</time>
      </trkpt>
      <trkpt lat="45.85871" lon="4.66944">
        <ele>309.81903</ele>
        <time>2023-06-04T13:16:55.000Z</time>
      </trkpt>
      <trkpt lat="45.85863" lon="4.66944">
        <ele>309.69516</ele>
        <time>2023-06-04T13:16:56.000Z</time>
      </trkpt>
      <trkpt lat="45.85855" lon="4.66946">
        <ele>309.59744</ele>
        <time>2023-06-04T13:16:57.000Z</time>
      </trkpt>
      <trkpt lat="45.85849" lon="4.66946">
        <ele>309.54596</ele>
        <time>2023-06-04T13:16:58.000Z</time>
      </trkpt>
      <trkpt lat="45.85843" lon="4.66942">
        <ele>309.36777</ele>
        <time>2023-06-04T13:16:59.000Z</time>
      </trkpt>
      <trkpt lat="45.85835" lon="4.6694">
        <ele>309.28705</ele>
        <time>2023-06-04T13:17:00.000Z</time>
      </trkpt>
      <trkpt lat="45.85829" lon="4.66938">
        <ele>309.02277</ele>
        <time>2023-06-04T13:17:01.000Z</time>
      </trkpt>
      <trkpt lat="45.85826" lon="4.66938">
        <ele>308.84396</ele>
        <time>2023-06-04T13:17:02.000Z</time>
      </trkpt>
      <trkpt lat="45.8582" lon="4.66937">
        <ele>308.97372</ele>
        <time>2023-06-04T13:17:03.000Z</time>
      </trkpt>
      <trkpt lat="45.85817" lon="4.6694">
        <ele>308.99994</ele>
        <time>2023-06-04T13:17:04.000Z</time>
      </trkpt>
      <trkpt lat="45.85811" lon="4.66938">
        <ele>309.21677</ele>
        <time>2023-06-04T13:17:05.000Z</time>
      </trkpt>
      <trkpt lat="45.85806" lon="4.66936">
        <ele>309.64502</ele>
        <time>2023-06-04T13:17:06.000Z</time>
      </trkpt>
      <trkpt lat="45.85802" lon="4.66934">
        <ele>309.31216</ele>
        <time>2023-06-04T13:17:07.000Z</time>
      </trkpt>
      <trkpt lat="45.85798" lon="4.66934">
        <ele>309.25168</ele>
        <time>2023-06-04T13:17:08.000Z</time>
      </trkpt>
      <trkpt lat="45.8579" lon="4.66939">
        <ele>309.20682</ele>
        <time>2023-06-04T13:17:09.000Z</time>
      </trkpt>
      <trkpt lat="45.85786" lon="4.66934">
        <ele>309.11917</ele>
        <time>2023-06-04T13:17:10.000Z</time>
      </trkpt>
      <trkpt lat="45.85777" lon="4.66935">
        <ele>309.1792</ele>
        <time>2023-06-04T13:17:11.000Z</time>
      </trkpt>
      <trkpt lat="45.85767" lon="4.66941">
        <ele>308.93854</ele>
        <time>2023-06-04T13:17:12.000Z</time>
      </trkpt>
      <trkpt lat="45.85764" lon="4.66938">
        <ele>308.6662</ele>
        <time>2023-06-04T13:17:13.000Z</time>
      </trkpt>
      <trkpt lat="45.8576" lon="4.66936">
        <ele>308.51239</ele>
        <time>2023-06-04T13:17:14.000Z</time>
      </trkpt>
      <trkpt lat="45.85753" lon="4.66934">
        <ele>308.41797</ele>
        <time>2023-06-04T13:17:15.000Z</time>
      </trkpt>
      <trkpt lat="45.8575" lon="4.6693">
        <ele>308.10504</ele>
        <time>2023-06-04T13:17:16.000Z</time>
      </trkpt>
      <trkpt lat="45.85744" lon="4.66925">
        <ele>307.72733</ele>
        <time>2023-06-04T13:17:17.000Z</time>
      </trkpt>
      <trkpt lat="45.85739" lon="4.66925">
        <ele>307.27118</ele>
        <time>2023-06-04T13:17:18.000Z</time>
      </trkpt>
      <trkpt lat="45.85734" lon="4.66924">
        <ele>306.89938</ele>
        <time>2023-06-04T13:17:19.000Z</time>
      </trkpt>
      <trkpt lat="45.85732" lon="4.66925">
        <ele>306.5126</ele>
        <time>2023-06-04T13:17:20.000Z</time>
      </trkpt>
      <trkpt lat="45.85725" lon="4.66926">
        <ele>306.64105</ele>
        <time>2023-06-04T13:17:21.000Z</time>
      </trkpt>
      <trkpt lat="45.8572" lon="4.66922">
        <ele>306.72104</ele>
        <time>2023-06-04T13:17:22.000Z</time>
      </trkpt>
      <trkpt lat="45.85713" lon="4.66916">
        <ele>306.87344</ele>
        <time>2023-06-04T13:17:24.000Z</time>
      </trkpt>
      <trkpt lat="45.85707" lon="4.66912">
        <ele>307.28168</ele>
        <time>2023-06-04T13:17:25.000Z</time>
      </trkpt>
      <trkpt lat="45.85702" lon="4.66908">
        <ele>307.49792</ele>
        <time>2023-06-04T13:17:26.000Z</time>
      </trkpt>
      <trkpt lat="45.85697" lon="4.66904">
        <ele>307.43341</ele>
        <time>2023-06-04T13:17:27.000Z</time>
      </trkpt>
      <trkpt lat="45.85691" lon="4.66904">
        <ele>308.28571</ele>
        <time>2023-06-04T13:17:28.000Z</time>
      </trkpt>
      <trkpt lat="45.85686" lon="4.66905">
        <ele>308.79669</ele>
        <time>2023-06-04T13:17:29.000Z</time>
      </trkpt>
      <trkpt lat="45.85681" lon="4.66907">
        <ele>309.67545</ele>
        <time>2023-06-04T13:17:30.000Z</time>
      </trkpt>
      <trkpt lat="45.85677" lon="4.66908">
        <ele>310.5882</ele>
        <time>2023-06-04T13:17:31.000Z</time>
      </trkpt>
      <trkpt lat="45.85672" lon="4.66909">
        <ele>311.34106</ele>
        <time>2023-06-04T13:17:32.000Z</time>
      </trkpt>
      <trkpt lat="45.85666" lon="4.66916">
        <ele>312.49814</ele>
        <time>2023-06-04T13:17:33.000Z</time>
      </trkpt>
      <trkpt lat="45.8566" lon="4.66915">
        <ele>313.7081</ele>
        <time>2023-06-04T13:17:34.000Z</time>
      </trkpt>
      <trkpt lat="45.85653" lon="4.66917">
        <ele>314.79825</ele>
        <time>2023-06-04T13:17:35.000Z</time>
      </trkpt>
      <trkpt lat="45.8565" lon="4.66921">
        <ele>316.03424</ele>
        <time>2023-06-04T13:17:36.000Z</time>
      </trkpt>
      <trkpt lat="45.85645" lon="4.66923">
        <ele>317.11667</ele>
        <time>2023-06-04T13:17:37.000Z</time>
      </trkpt>
      <trkpt lat="45.85641" lon="4.66926">
        <ele>318.43976</ele>
        <time>2023-06-04T13:17:38.000Z</time>
      </trkpt>
      <trkpt lat="45.85633" lon="4.66928">
        <ele>319.55023</ele>
        <time>2023-06-04T13:17:39.000Z</time>
      </trkpt>
      <trkpt lat="45.85627" lon="4.66929">
        <ele>320.49939</ele>
        <time>2023-06-04T13:17:40.000Z</time>
      </trkpt>
      <trkpt lat="45.85623" lon="4.66931">
        <ele>321.66986</ele>
        <time>2023-06-04T13:17:41.000Z</time>
      </trkpt>
      <trkpt lat="45.85617" lon="4.66936">
        <ele>322.76123</ele>
        <time>2023-06-04T13:17:42.000Z</time>
      </trkpt>
      <trkpt lat="45.85607" lon="4.66938">
        <ele>323.8793</ele>
        <time>2023-06-04T13:17:43.000Z</time>
      </trkpt>
      <trkpt lat="45.856" lon="4.66938">
        <ele>324.31549</ele>
        <time>2023-06-04T13:17:44.000Z</time>
      </trkpt>
      <trkpt lat="45.85597" lon="4.66939">
        <ele>324.7381</ele>
        <time>2023-06-04T13:17:45.000Z</time>
      </trkpt>
      <trkpt lat="45.85588" lon="4.66938">
        <ele>325.09113</ele>
        <time>2023-06-04T13:17:46.000Z</time>
      </trkpt>
      <trkpt lat="45.85583" lon="4.66939">
        <ele>325.7482</ele>
        <time>2023-06-04T13:17:47.000Z</time>
      </trkpt>
      <trkpt lat="45.85575" lon="4.6694">
        <ele>326.18515</ele>
        <time>2023-06-04T13:17:48.000Z</time>
      </trkpt>
      <trkpt lat="45.85567" lon="4.66943">
        <ele>326.93921</ele>
        <time>2023-06-04T13:17:49.000Z</time>
      </trkpt>
      <trkpt lat="45.85562" lon="4.66945">
        <ele>327.33746</ele>
        <time>2023-06-04T13:17:50.000Z</time>
      </trkpt>
      <trkpt lat="45.85556" lon="4.66944">
        <ele>327.62494</ele>
        <time>2023-06-04T13:17:51.000Z</time>
      </trkpt>
      <trkpt lat="45.85553" lon="4.66943">
        <ele>327.85071</ele>
        <time>2023-06-04T13:17:52.000Z</time>
      </trkpt>
      <trkpt lat="45.8555" lon="4.66945">
        <ele>328.1286</ele>
        <time>2023-06-04T13:17:53.000Z</time>
      </trkpt>
      <trkpt lat="45.85551" lon="4.6695">
        <ele>328.42828</ele>
        <time>2023-06-04T13:17:54.000Z</time>
      </trkpt>
      <trkpt lat="45.85547" lon="4.6695">
        <ele>328.63092</ele>
        <time>2023-06-04T13:17:55.000Z</time>
      </trkpt>
      <trkpt lat="45.85541" lon="4.66952">
        <ele>328.71149</ele>
        <time>2023-06-04T13:17:56.000Z</time>
      </trkpt>
      <trkpt lat="45.85536" lon="4.6695">
        <ele>328.93488</ele>
        <time>2023-06-04T13:17:57.000Z</time>
      </trkpt>
      <trkpt lat="45.85532" lon="4.66942">
        <ele>328.93024</ele>
        <time>2023-06-04T13:17:58.000Z</time>
      </trkpt>
      <trkpt lat="45.8553" lon="4.66934">
        <ele>329.24649</ele>
        <time>2023-06-04T13:17:59.000Z</time>
      </trkpt>
      <trkpt lat="45.85527" lon="4.66923">
        <ele>329.67105</ele>
        <time>2023-06-04T13:18:00.000Z</time>
      </trkpt>
      <trkpt lat="45.85527" lon="4.66918">
        <ele>329.95541</ele>
        <time>2023-06-04T13:18:01.000Z</time>
      </trkpt>
      <trkpt lat="45.85524" lon="4.6691">
        <ele>329.72836</ele>
        <time>2023-06-04T13:18:02.000Z</time>
      </trkpt>
      <trkpt lat="45.85524" lon="4.66901">
        <ele>330.02982</ele>
        <time>2023-06-04T13:18:03.000Z</time>
      </trkpt>
      <trkpt lat="45.85524" lon="4.66895">
        <ele>329.11853</ele>
        <time>2023-06-04T13:18:04.000Z</time>
      </trkpt>
      <trkpt lat="45.85525" lon="4.66888">
        <ele>328.23282</ele>
        <time>2023-06-04T13:18:05.000Z</time>
      </trkpt>
      <trkpt lat="45.85523" lon="4.66879">
        <ele>327.40842</ele>
        <time>2023-06-04T13:18:06.000Z</time>
      </trkpt>
      <trkpt lat="45.8552" lon="4.66869">
        <ele>326.77325</ele>
        <time>2023-06-04T13:18:07.000Z</time>
      </trkpt>
      <trkpt lat="45.85521" lon="4.66859">
        <ele>326.61487</ele>
        <time>2023-06-04T13:18:08.000Z</time>
      </trkpt>
      <trkpt lat="45.85525" lon="4.66856">
        <ele>326.26825</ele>
        <time>2023-06-04T13:18:09.000Z</time>
      </trkpt>
      <trkpt lat="45.85527" lon="4.66849">
        <ele>326.7421</ele>
        <time>2023-06-04T13:18:10.000Z</time>
      </trkpt>
      <trkpt lat="45.85524" lon="4.66842">
        <ele>327.68106</ele>
        <time>2023-06-04T13:18:11.000Z</time>
      </trkpt>
      <trkpt lat="45.85526" lon="4.66834">
        <ele>327.86792</ele>
        <time>2023-06-04T13:18:12.000Z</time>
      </trkpt>
      <trkpt lat="45.85528" lon="4.66827">
        <ele>328.03836</ele>
        <time>2023-06-04T13:18:13.000Z</time>
      </trkpt>
      <trkpt lat="45.85527" lon="4.66818">
        <ele>327.83224</ele>
        <time>2023-06-04T13:18:14.000Z</time>
      </trkpt>
      <trkpt lat="45.85524" lon="4.66809">
        <ele>327.92947</ele>
        <time>2023-06-04T13:18:15.000Z</time>
      </trkpt>
      <trkpt lat="45.85522" lon="4.66799">
        <ele>328.21536</ele>
        <time>2023-06-04T13:18:16.000Z</time>
      </trkpt>
      <trkpt lat="45.8552" lon="4.66785">
        <ele>328.64307</ele>
        <time>2023-06-04T13:18:17.000Z</time>
      </trkpt>
      <trkpt lat="45.85515" lon="4.66777">
        <ele>329.20615</ele>
        <time>2023-06-04T13:18:18.000Z</time>
      </trkpt>
      <trkpt lat="45.85514" lon="4.66771">
        <ele>329.39233</ele>
        <time>2023-06-04T13:18:19.000Z</time>
      </trkpt>
      <trkpt lat="45.85514" lon="4.66767">
        <ele>329.63226</ele>
        <time>2023-06-04T13:18:20.000Z</time>
      </trkpt>
      <trkpt lat="45.85517" lon="4.66765">
        <ele>329.61929</ele>
        <time>2023-06-04T13:18:21.000Z</time>
      </trkpt>
      <trkpt lat="45.85515" lon="4.66761">
        <ele>329.68839</ele>
        <time>2023-06-04T13:18:22.000Z</time>
      </trkpt>
      <trkpt lat="45.85518" lon="4.66757">
        <ele>329.39154</ele>
        <time>2023-06-04T13:18:23.000Z</time>
      </trkpt>
      <trkpt lat="45.85518" lon="4.6675">
        <ele>330.4772</ele>
        <time>2023-06-04T13:18:24.000Z</time>
      </trkpt>
      <trkpt lat="45.85516" lon="4.66741">
        <ele>331.39594</ele>
        <time>2023-06-04T13:18:25.000Z</time>
      </trkpt>
      <trkpt lat="45.85511" lon="4.6673">
        <ele>332.29709</ele>
        <time>2023-06-04T13:18:26.000Z</time>
      </trkpt>
      <trkpt lat="45.85507" lon="4.66725">
        <ele>332.80203</ele>
        <time>2023-06-04T13:18:27.000Z</time>
      </trkpt>
      <trkpt lat="45.85506" lon="4.66718">
        <ele>333.13947</ele>
        <time>2023-06-04T13:18:28.000Z</time>
      </trkpt>
      <trkpt lat="45.85507" lon="4.66707">
        <ele>333.59708</ele>
        <time>2023-06-04T13:18:29.000Z</time>
      </trkpt>
      <trkpt lat="45.85504" lon="4.66702">
        <ele>333.1893</ele>
        <time>2023-06-04T13:18:30.000Z</time>
      </trkpt>
      <trkpt lat="45.85503" lon="4.66693">
        <ele>332.71597</ele>
        <time>2023-06-04T13:18:31.000Z</time>
      </trkpt>
      <trkpt lat="45.85498" lon="4.66686">
        <ele>332.90579</ele>
        <time>2023-06-04T13:18:32.000Z</time>
      </trkpt>
      <trkpt lat="45.85499" lon="4.66679">
        <ele>333.04523</ele>
        <time>2023-06-04T13:18:33.000Z</time>
      </trkpt>
      <trkpt lat="45.85501" lon="4.66671">
        <ele>333.24554</ele>
        <time>2023-06-04T13:18:34.000Z</time>
      </trkpt>
      <trkpt lat="45.85497" lon="4.66663">
        <ele>332.85541</ele>
        <time>2023-06-04T13:18:35.000Z</time>
      </trkpt>
      <trkpt lat="45.85496" lon="4.66653">
        <ele>332.13068</ele>
        <time>2023-06-04T13:18:36.000Z</time>
      </trkpt>
      <trkpt lat="45.85495" lon="4.66646">
        <ele>331.46359</ele>
        <time>2023-06-04T13:18:37.000Z</time>
      </trkpt>
      <trkpt lat="45.85497" lon="4.66638">
        <ele>330.82391</ele>
        <time>2023-06-04T13:18:38.000Z</time>
      </trkpt>
      <trkpt lat="45.85497" lon="4.66632">
        <ele>330.3699</ele>
        <time>2023-06-04T13:18:39.000Z</time>
      </trkpt>
      <trkpt lat="45.85499" lon="4.66624">
        <ele>329.88031</ele>
        <time>2023-06-04T13:18:40.000Z</time>
      </trkpt>
      <trkpt lat="45.85498" lon="4.66617">
        <ele>329.26044</ele>
        <time>2023-06-04T13:18:41.000Z</time>
      </trkpt>
      <trkpt lat="45.855" lon="4.66615">
        <ele>328.86807</ele>
        <time>2023-06-04T13:18:42.000Z</time>
      </trkpt>
      <trkpt lat="45.85503" lon="4.66606">
        <ele>328.35776</ele>
        <time>2023-06-04T13:18:43.000Z</time>
      </trkpt>
      <trkpt lat="45.85503" lon="4.66598">
        <ele>327.6109</ele>
        <time>2023-06-04T13:18:44.000Z</time>
      </trkpt>
      <trkpt lat="45.85503" lon="4.6659">
        <ele>326.91763</ele>
        <time>2023-06-04T13:18:45.000Z</time>
      </trkpt>
      <trkpt lat="45.85502" lon="4.66583">
        <ele>326.08856</ele>
        <time>2023-06-04T13:18:46.000Z</time>
      </trkpt>
      <trkpt lat="45.85508" lon="4.66579">
        <ele>325.29071</ele>
        <time>2023-06-04T13:18:47.000Z</time>
      </trkpt>
      <trkpt lat="45.85506" lon="4.66573">
        <ele>324.57135</ele>
        <time>2023-06-04T13:18:48.000Z</time>
      </trkpt>
      <trkpt lat="45.85502" lon="4.6657">
        <ele>324.15414</ele>
        <time>2023-06-04T13:18:49.000Z</time>
      </trkpt>
      <trkpt lat="45.85497" lon="4.66564">
        <ele>323.90161</ele>
        <time>2023-06-04T13:18:50.000Z</time>
      </trkpt>
      <trkpt lat="45.85496" lon="4.66561">
        <ele>324.1109</ele>
        <time>2023-06-04T13:18:51.000Z</time>
      </trkpt>
      <trkpt lat="45.85493" lon="4.66557">
        <ele>323.55792</ele>
        <time>2023-06-04T13:18:52.000Z</time>
      </trkpt>
      <trkpt lat="45.85482" lon="4.66565">
        <ele>322.73822</ele>
        <time>2023-06-04T13:18:53.000Z</time>
      </trkpt>
      <trkpt lat="45.85476" lon="4.66562">
        <ele>322.43268</ele>
        <time>2023-06-04T13:18:54.000Z</time>
      </trkpt>
      <trkpt lat="45.85473" lon="4.66557">
        <ele>322.43048</ele>
        <time>2023-06-04T13:18:55.000Z</time>
      </trkpt>
      <trkpt lat="45.8547" lon="4.66555">
        <ele>322.67172</ele>
        <time>2023-06-04T13:18:56.000Z</time>
      </trkpt>
      <trkpt lat="45.85468" lon="4.66552">
        <ele>322.65787</ele>
        <time>2023-06-04T13:18:57.000Z</time>
      </trkpt>
      <trkpt lat="45.85466" lon="4.66549">
        <ele>322.7641</ele>
        <time>2023-06-04T13:18:58.000Z</time>
      </trkpt>
      <trkpt lat="45.85465" lon="4.66544">
        <ele>322.86661</ele>
        <time>2023-06-04T13:18:59.000Z</time>
      </trkpt>
      <trkpt lat="45.85464" lon="4.66539">
        <ele>322.90726</ele>
        <time>2023-06-04T13:19:00.000Z</time>
      </trkpt>
      <trkpt lat="45.85465" lon="4.66535">
        <ele>323.26044</ele>
        <time>2023-06-04T13:19:01.000Z</time>
      </trkpt>
      <trkpt lat="45.85466" lon="4.66531">
        <ele>323.71799</ele>
        <time>2023-06-04T13:19:02.000Z</time>
      </trkpt>
      <trkpt lat="45.85466" lon="4.66525">
        <ele>324.1955</ele>
        <time>2023-06-04T13:19:03.000Z</time>
      </trkpt>
      <trkpt lat="45.85464" lon="4.66512">
        <ele>324.71735</ele>
        <time>2023-06-04T13:19:04.000Z</time>
      </trkpt>
      <trkpt lat="45.85464" lon="4.66509">
        <ele>325.50873</ele>
        <time>2023-06-04T13:19:05.000Z</time>
      </trkpt>
      <trkpt lat="45.85466" lon="4.66504">
        <ele>326.43027</ele>
        <time>2023-06-04T13:19:06.000Z</time>
      </trkpt>
      <trkpt lat="45.85469" lon="4.66502">
        <ele>327.44415</ele>
        <time>2023-06-04T13:19:07.000Z</time>
      </trkpt>
      <trkpt lat="45.85471" lon="4.66498">
        <ele>327.88751</ele>
        <time>2023-06-04T13:19:08.000Z</time>
      </trkpt>
      <trkpt lat="45.85473" lon="4.66493">
        <ele>327.79984</ele>
        <time>2023-06-04T13:19:09.000Z</time>
      </trkpt>
      <trkpt lat="45.85471" lon="4.66485">
        <ele>327.82974</ele>
        <time>2023-06-04T13:19:10.000Z</time>
      </trkpt>
      <trkpt lat="45.85473" lon="4.66481">
        <ele>327.07657</ele>
        <time>2023-06-04T13:19:11.000Z</time>
      </trkpt>
      <trkpt lat="45.85473" lon="4.66478">
        <ele>327.26202</ele>
        <time>2023-06-04T13:19:12.000Z</time>
      </trkpt>
      <trkpt lat="45.85473" lon="4.66473">
        <ele>327.17258</ele>
        <time>2023-06-04T13:19:13.000Z</time>
      </trkpt>
      <trkpt lat="45.85473" lon="4.66469">
        <ele>326.67432</ele>
        <time>2023-06-04T13:19:14.000Z</time>
      </trkpt>
      <trkpt lat="45.85474" lon="4.66465">
        <ele>326.17807</ele>
        <time>2023-06-04T13:19:15.000Z</time>
      </trkpt>
      <trkpt lat="45.85475" lon="4.66461">
        <ele>325.69434</ele>
        <time>2023-06-04T13:19:16.000Z</time>
      </trkpt>
      <trkpt lat="45.85477" lon="4.66457">
        <ele>325.24066</ele>
        <time>2023-06-04T13:19:17.000Z</time>
      </trkpt>
      <trkpt lat="45.85478" lon="4.66452">
        <ele>324.60773</ele>
        <time>2023-06-04T13:19:18.000Z</time>
      </trkpt>
      <trkpt lat="45.85479" lon="4.66447">
        <ele>323.6192</ele>
        <time>2023-06-04T13:19:19.000Z</time>
      </trkpt>
      <trkpt lat="45.85481" lon="4.66442">
        <ele>322.80789</ele>
        <time>2023-06-04T13:19:20.000Z</time>
      </trkpt>
      <trkpt lat="45.85483" lon="4.66437">
        <ele>322.01547</ele>
        <time>2023-06-04T13:19:21.000Z</time>
      </trkpt>
      <trkpt lat="45.85485" lon="4.66431">
        <ele>321.06189</ele>
        <time>2023-06-04T13:19:22.000Z</time>
      </trkpt>
      <trkpt lat="45.85487" lon="4.66424">
        <ele>319.96384</ele>
        <time>2023-06-04T13:19:23.000Z</time>
      </trkpt>
      <trkpt lat="45.85488" lon="4.66417">
        <ele>319.06793</ele>
        <time>2023-06-04T13:19:24.000Z</time>
      </trkpt>
      <trkpt lat="45.85489" lon="4.66411">
        <ele>317.85022</ele>
        <time>2023-06-04T13:19:25.000Z</time>
      </trkpt>
      <trkpt lat="45.8549" lon="4.66405">
        <ele>316.41391</ele>
        <time>2023-06-04T13:19:26.000Z</time>
      </trkpt>
      <trkpt lat="45.8549" lon="4.664">
        <ele>314.87006</ele>
        <time>2023-06-04T13:19:27.000Z</time>
      </trkpt>
      <trkpt lat="45.85491" lon="4.66394">
        <ele>313.55905</ele>
        <time>2023-06-04T13:19:28.000Z</time>
      </trkpt>
      <trkpt lat="45.85494" lon="4.66384">
        <ele>312.34912</ele>
        <time>2023-06-04T13:19:29.000Z</time>
      </trkpt>
      <trkpt lat="45.85495" lon="4.66377">
        <ele>310.9339</ele>
        <time>2023-06-04T13:19:30.000Z</time>
      </trkpt>
      <trkpt lat="45.85495" lon="4.66371">
        <ele>309.43835</ele>
        <time>2023-06-04T13:19:31.000Z</time>
      </trkpt>
      <trkpt lat="45.85495" lon="4.66367">
        <ele>308.39539</ele>
        <time>2023-06-04T13:19:32.000Z</time>
      </trkpt>
      <trkpt lat="45.85494" lon="4.66362">
        <ele>307.99951</ele>
        <time>2023-06-04T13:19:33.000Z</time>
      </trkpt>
      <trkpt lat="45.85494" lon="4.66356">
        <ele>307.97714</ele>
        <time>2023-06-04T13:19:34.000Z</time>
      </trkpt>
      <trkpt lat="45.85494" lon="4.66349">
        <ele>308.24457</ele>
        <time>2023-06-04T13:19:35.000Z</time>
      </trkpt>
      <trkpt lat="45.85494" lon="4.66342">
        <ele>308.53146</ele>
        <time>2023-06-04T13:19:36.000Z</time>
      </trkpt>
      <trkpt lat="45.85492" lon="4.66334">
        <ele>308.92404</ele>
        <time>2023-06-04T13:19:37.000Z</time>
      </trkpt>
      <trkpt lat="45.85494" lon="4.6633">
        <ele>309.46698</ele>
        <time>2023-06-04T13:19:38.000Z</time>
      </trkpt>
      <trkpt lat="45.85496" lon="4.66325">
        <ele>310.10538</ele>
        <time>2023-06-04T13:19:39.000Z</time>
      </trkpt>
      <trkpt lat="45.85497" lon="4.66318">
        <ele>310.46783</ele>
        <time>2023-06-04T13:19:40.000Z</time>
      </trkpt>
      <trkpt lat="45.855" lon="4.66313">
        <ele>310.51837</ele>
        <time>2023-06-04T13:19:41.000Z</time>
      </trkpt>
      <trkpt lat="45.85502" lon="4.66309">
        <ele>310.42285</ele>
        <time>2023-06-04T13:19:42.000Z</time>
      </trkpt>
      <trkpt lat="45.85504" lon="4.66304">
        <ele>310.39478</ele>
        <time>2023-06-04T13:19:43.000Z</time>
      </trkpt>
      <trkpt lat="45.85505" lon="4.66295">
        <ele>310.37283</ele>
        <time>2023-06-04T13:19:44.000Z</time>
      </trkpt>
      <trkpt lat="45.85507" lon="4.66289">
        <ele>310.38336</ele>
        <time>2023-06-04T13:19:45.000Z</time>
      </trkpt>
      <trkpt lat="45.85509" lon="4.66284">
        <ele>310.68439</ele>
        <time>2023-06-04T13:19:46.000Z</time>
      </trkpt>
      <trkpt lat="45.85509" lon="4.66276">
        <ele>310.94641</ele>
        <time>2023-06-04T13:19:47.000Z</time>
      </trkpt>
      <trkpt lat="45.8551" lon="4.6627">
        <ele>311.04153</ele>
        <time>2023-06-04T13:19:48.000Z</time>
      </trkpt>
      <trkpt lat="45.85514" lon="4.66265">
        <ele>311.2348</ele>
        <time>2023-06-04T13:19:49.000Z</time>
      </trkpt>
      <trkpt lat="45.85516" lon="4.6626">
        <ele>311.55048</ele>
        <time>2023-06-04T13:19:50.000Z</time>
      </trkpt>
      <trkpt lat="45.85519" lon="4.66255">
        <ele>312.00507</ele>
        <time>2023-06-04T13:19:51.000Z</time>
      </trkpt>
      <trkpt lat="45.85519" lon="4.6625">
        <ele>312.03644</ele>
        <time>2023-06-04T13:19:52.000Z</time>
      </trkpt>
      <trkpt lat="45.8552" lon="4.66242">
        <ele>311.90494</ele>
        <time>2023-06-04T13:19:53.000Z</time>
      </trkpt>
      <trkpt lat="45.85521" lon="4.66237">
        <ele>311.50458</ele>
        <time>2023-06-04T13:19:54.000Z</time>
      </trkpt>
      <trkpt lat="45.8552" lon="4.66229">
        <ele>310.95316</ele>
        <time>2023-06-04T13:19:55.000Z</time>
      </trkpt>
      <trkpt lat="45.8552" lon="4.66221">
        <ele>310.3399</ele>
        <time>2023-06-04T13:19:56.000Z</time>
      </trkpt>
      <trkpt lat="45.8552" lon="4.66215">
        <ele>309.50751</ele>
        <time>2023-06-04T13:19:57.000Z</time>
      </trkpt>
      <trkpt lat="45.85521" lon="4.66209">
        <ele>308.46207</ele>
        <time>2023-06-04T13:19:58.000Z</time>
      </trkpt>
      <trkpt lat="45.8552" lon="4.66203">
        <ele>307.66528</ele>
        <time>2023-06-04T13:19:59.000Z</time>
      </trkpt>
      <trkpt lat="45.85521" lon="4.66195">
        <ele>307.38455</ele>
        <time>2023-06-04T13:20:00.000Z</time>
      </trkpt>
      <trkpt lat="45.85521" lon="4.66188">
        <ele>307.30145</ele>
        <time>2023-06-04T13:20:01.000Z</time>
      </trkpt>
      <trkpt lat="45.85518" lon="4.66179">
        <ele>307.35596</ele>
        <time>2023-06-04T13:20:02.000Z</time>
      </trkpt>
      <trkpt lat="45.85518" lon="4.66169">
        <ele>307.48486</ele>
        <time>2023-06-04T13:20:03.000Z</time>
      </trkpt>
      <trkpt lat="45.8552" lon="4.66165">
        <ele>307.59372</ele>
        <time>2023-06-04T13:20:04.000Z</time>
      </trkpt>
      <trkpt lat="45.8552" lon="4.66157">
        <ele>307.60114</ele>
        <time>2023-06-04T13:20:05.000Z</time>
      </trkpt>
      <trkpt lat="45.8552" lon="4.6615">
        <ele>307.71671</ele>
        <time>2023-06-04T13:20:06.000Z</time>
      </trkpt>
      <trkpt lat="45.85522" lon="4.66143">
        <ele>307.82556</ele>
        <time>2023-06-04T13:20:07.000Z</time>
      </trkpt>
      <trkpt lat="45.85523" lon="4.66136">
        <ele>308.25766</ele>
        <time>2023-06-04T13:20:08.000Z</time>
      </trkpt>
      <trkpt lat="45.85525" lon="4.66133">
        <ele>308.61395</ele>
        <time>2023-06-04T13:20:09.000Z</time>
      </trkpt>
      <trkpt lat="45.85526" lon="4.66127">
        <ele>309.13458</ele>
        <time>2023-06-04T13:20:10.000Z</time>
      </trkpt>
      <trkpt lat="45.85523" lon="4.6612">
        <ele>309.66656</ele>
        <time>2023-06-04T13:20:11.000Z</time>
      </trkpt>
      <trkpt lat="45.8552" lon="4.6611">
        <ele>310.24771</ele>
        <time>2023-06-04T13:20:12.000Z</time>
      </trkpt>
      <trkpt lat="45.85525" lon="4.66104">
        <ele>310.98672</ele>
        <time>2023-06-04T13:20:13.000Z</time>
      </trkpt>
      <trkpt lat="45.85525" lon="4.66099">
        <ele>311.92059</ele>
        <time>2023-06-04T13:20:14.000Z</time>
      </trkpt>
      <trkpt lat="45.85523" lon="4.66094">
        <ele>312.6987</ele>
        <time>2023-06-04T13:20:15.000Z</time>
      </trkpt>
      <trkpt lat="45.85519" lon="4.66085">
        <ele>313.52875</ele>
        <time>2023-06-04T13:20:16.000Z</time>
      </trkpt>
      <trkpt lat="45.8552" lon="4.66078">
        <ele>314.89142</ele>
        <time>2023-06-04T13:20:17.000Z</time>
      </trkpt>
      <trkpt lat="45.85523" lon="4.66071">
        <ele>316.27866</ele>
        <time>2023-06-04T13:20:18.000Z</time>
      </trkpt>
      <trkpt lat="45.85521" lon="4.66066">
        <ele>317.41022</ele>
        <time>2023-06-04T13:20:19.000Z</time>
      </trkpt>
      <trkpt lat="45.85526" lon="4.66061">
        <ele>317.93964</ele>
        <time>2023-06-04T13:20:20.000Z</time>
      </trkpt>
      <trkpt lat="45.85523" lon="4.66051">
        <ele>318.53366</ele>
        <time>2023-06-04T13:20:21.000Z</time>
      </trkpt>
      <trkpt lat="45.85519" lon="4.66042">
        <ele>318.87091</ele>
        <time>2023-06-04T13:20:22.000Z</time>
      </trkpt>
      <trkpt lat="45.85517" lon="4.66032">
        <ele>319.22015</ele>
        <time>2023-06-04T13:20:23.000Z</time>
      </trkpt>
      <trkpt lat="45.8551" lon="4.6602">
        <ele>319.84558</ele>
        <time>2023-06-04T13:20:24.000Z</time>
      </trkpt>
      <trkpt lat="45.85512" lon="4.66013">
        <ele>320.70596</ele>
        <time>2023-06-04T13:20:25.000Z</time>
      </trkpt>
      <trkpt lat="45.85519" lon="4.66012">
        <ele>321.41306</ele>
        <time>2023-06-04T13:20:26.000Z</time>
      </trkpt>
      <trkpt lat="45.8552" lon="4.66005">
        <ele>322.15228</ele>
        <time>2023-06-04T13:20:27.000Z</time>
      </trkpt>
      <trkpt lat="45.85516" lon="4.65993">
        <ele>322.78693</ele>
        <time>2023-06-04T13:20:28.000Z</time>
      </trkpt>
      <trkpt lat="45.85522" lon="4.65994">
        <ele>323.38812</ele>
        <time>2023-06-04T13:20:29.000Z</time>
      </trkpt>
      <trkpt lat="45.8552" lon="4.65983">
        <ele>323.75555</ele>
        <time>2023-06-04T13:20:30.000Z</time>
      </trkpt>
      <trkpt lat="45.85521" lon="4.65975">
        <ele>324.28897</ele>
        <time>2023-06-04T13:20:31.000Z</time>
      </trkpt>
      <trkpt lat="45.85519" lon="4.65966">
        <ele>324.75885</ele>
        <time>2023-06-04T13:20:32.000Z</time>
      </trkpt>
      <trkpt lat="45.85515" lon="4.65951">
        <ele>325.01843</ele>
        <time>2023-06-04T13:20:33.000Z</time>
      </trkpt>
      <trkpt lat="45.85516" lon="4.65946">
        <ele>324.97464</ele>
        <time>2023-06-04T13:20:34.000Z</time>
      </trkpt>
      <trkpt lat="45.85517" lon="4.65941">
        <ele>325.05066</ele>
        <time>2023-06-04T13:20:35.000Z</time>
      </trkpt>
      <trkpt lat="45.85518" lon="4.65936">
        <ele>324.74533</ele>
        <time>2023-06-04T13:20:36.000Z</time>
      </trkpt>
      <trkpt lat="45.85515" lon="4.65932">
        <ele>324.26581</ele>
        <time>2023-06-04T13:20:37.000Z</time>
      </trkpt>
      <trkpt lat="45.85512" lon="4.65929">
        <ele>323.62643</ele>
        <time>2023-06-04T13:20:38.000Z</time>
      </trkpt>
      <trkpt lat="45.8551" lon="4.65925">
        <ele>323.10614</ele>
        <time>2023-06-04T13:20:39.000Z</time>
      </trkpt>
      <trkpt lat="45.85514" lon="4.65924">
        <ele>322.87012</ele>
        <time>2023-06-04T13:20:40.000Z</time>
      </trkpt>
      <trkpt lat="45.85509" lon="4.65919">
        <ele>322.57813</ele>
        <time>2023-06-04T13:20:41.000Z</time>
      </trkpt>
      <trkpt lat="45.85506" lon="4.6592">
        <ele>323.38937</ele>
        <time>2023-06-04T13:20:42.000Z</time>
      </trkpt>
      <trkpt lat="45.85504" lon="4.65919">
        <ele>324.4444</ele>
        <time>2023-06-04T13:20:43.000Z</time>
      </trkpt>
      <trkpt lat="45.85502" lon="4.65917">
        <ele>324.43915</ele>
        <time>2023-06-04T13:20:44.000Z</time>
      </trkpt>
      <trkpt lat="45.85492" lon="4.65914">
        <ele>324.94931</ele>
        <time>2023-06-04T13:20:45.000Z</time>
      </trkpt>
      <trkpt lat="45.85492" lon="4.65917">
        <ele>325.35699</ele>
        <time>2023-06-04T13:20:46.000Z</time>
      </trkpt>
      <trkpt lat="45.85488" lon="4.65917">
        <ele>326.04965</ele>
        <time>2023-06-04T13:20:48.000Z</time>
      </trkpt>
      <trkpt lat="45.85488" lon="4.65922">
        <ele>326.67328</ele>
        <time>2023-06-04T13:20:49.000Z</time>
      </trkpt>
      <trkpt lat="45.85482" lon="4.6593">
        <ele>326.75739</ele>
        <time>2023-06-04T13:20:50.000Z</time>
      </trkpt>
      <trkpt lat="45.85475" lon="4.65923">
        <ele>328.25385</ele>
        <time>2023-06-04T13:20:51.000Z</time>
      </trkpt>
      <trkpt lat="45.85469" lon="4.65921">
        <ele>329.20801</ele>
        <time>2023-06-04T13:20:52.000Z</time>
      </trkpt>
      <trkpt lat="45.85465" lon="4.65918">
        <ele>330.04239</ele>
        <time>2023-06-04T13:20:53.000Z</time>
      </trkpt>
      <trkpt lat="45.85461" lon="4.65918">
        <ele>330.84683</ele>
        <time>2023-06-04T13:20:54.000Z</time>
      </trkpt>
      <trkpt lat="45.85459" lon="4.65918">
        <ele>331.98309</ele>
        <time>2023-06-04T13:20:55.000Z</time>
      </trkpt>
      <trkpt lat="45.85455" lon="4.65917">
        <ele>333.25494</ele>
        <time>2023-06-04T13:20:56.000Z</time>
      </trkpt>
      <trkpt lat="45.85451" lon="4.65915">
        <ele>334.99243</ele>
        <time>2023-06-04T13:20:57.000Z</time>
      </trkpt>
      <trkpt lat="45.85447" lon="4.65913">
        <ele>336.68317</ele>
        <time>2023-06-04T13:20:58.000Z</time>
      </trkpt>
      <trkpt lat="45.85445" lon="4.65913">
        <ele>337.68854</ele>
        <time>2023-06-04T13:20:59.000Z</time>
      </trkpt>
      <trkpt lat="45.85439" lon="4.65913">
        <ele>338.77313</ele>
        <time>2023-06-04T13:21:00.000Z</time>
      </trkpt>
      <trkpt lat="45.85433" lon="4.65908">
        <ele>339.71832</ele>
        <time>2023-06-04T13:21:01.000Z</time>
      </trkpt>
      <trkpt lat="45.85428" lon="4.65906">
        <ele>340.5795</ele>
        <time>2023-06-04T13:21:02.000Z</time>
      </trkpt>
      <trkpt lat="45.85425" lon="4.65904">
        <ele>340.44861</ele>
        <time>2023-06-04T13:21:03.000Z</time>
      </trkpt>
      <trkpt lat="45.85421" lon="4.65901">
        <ele>340.89606</ele>
        <time>2023-06-04T13:21:04.000Z</time>
      </trkpt>
      <trkpt lat="45.85416" lon="4.65895">
        <ele>341.78305</ele>
        <time>2023-06-04T13:21:05.000Z</time>
      </trkpt>
      <trkpt lat="45.85411" lon="4.65891">
        <ele>341.8609</ele>
        <time>2023-06-04T13:21:06.000Z</time>
      </trkpt>
      <trkpt lat="45.85408" lon="4.65888">
        <ele>341.80038</ele>
        <time>2023-06-04T13:21:07.000Z</time>
      </trkpt>
      <trkpt lat="45.85404" lon="4.65885">
        <ele>341.1756</ele>
        <time>2023-06-04T13:21:08.000Z</time>
      </trkpt>
      <trkpt lat="45.85402" lon="4.65883">
        <ele>341.34213</ele>
        <time>2023-06-04T13:21:09.000Z</time>
      </trkpt>
      <trkpt lat="45.85396" lon="4.6588">
        <ele>340.95749</ele>
        <time>2023-06-04T13:21:10.000Z</time>
      </trkpt>
      <trkpt lat="45.85391" lon="4.65879">
        <ele>339.34589</ele>
        <time>2023-06-04T13:21:11.000Z</time>
      </trkpt>
      <trkpt lat="45.85387" lon="4.65877">
        <ele>338.12885</ele>
        <time>2023-06-04T13:21:12.000Z</time>
      </trkpt>
      <trkpt lat="45.85382" lon="4.65875">
        <ele>337.37738</ele>
        <time>2023-06-04T13:21:13.000Z</time>
      </trkpt>
      <trkpt lat="45.85378" lon="4.65873">
        <ele>336.6066</ele>
        <time>2023-06-04T13:21:14.000Z</time>
      </trkpt>
      <trkpt lat="45.85373" lon="4.65871">
        <ele>335.8735</ele>
        <time>2023-06-04T13:21:15.000Z</time>
      </trkpt>
      <trkpt lat="45.85369" lon="4.65869">
        <ele>335.01541</ele>
        <time>2023-06-04T13:21:16.000Z</time>
      </trkpt>
      <trkpt lat="45.8537" lon="4.65873">
        <ele>334.03848</ele>
        <time>2023-06-04T13:21:17.000Z</time>
      </trkpt>
      <trkpt lat="45.85367" lon="4.65872">
        <ele>333.14093</ele>
        <time>2023-06-04T13:21:18.000Z</time>
      </trkpt>
      <trkpt lat="45.85364" lon="4.65872">
        <ele>333.32764</ele>
        <time>2023-06-04T13:21:19.000Z</time>
      </trkpt>
      <trkpt lat="45.85375" lon="4.65874">
        <ele>333.65463</ele>
        <time>2023-06-04T13:21:20.000Z</time>
      </trkpt>
      <trkpt lat="45.85378" lon="4.65874">
        <ele>334.07654</ele>
        <time>2023-06-04T13:21:21.000Z</time>
      </trkpt>
      <trkpt lat="45.85382" lon="4.65839">
        <ele>334.8898</ele>
        <time>2023-06-04T13:21:22.000Z</time>
      </trkpt>
      <trkpt lat="45.85347" lon="4.65848">
        <ele>335.32263</ele>
        <time>2023-06-04T13:21:23.000Z</time>
      </trkpt>
      <trkpt lat="45.85342" lon="4.65845">
        <ele>334.4967</ele>
        <time>2023-06-04T13:21:24.000Z</time>
      </trkpt>
      <trkpt lat="45.85338" lon="4.65843">
        <ele>333.85938</ele>
        <time>2023-06-04T13:21:25.000Z</time>
      </trkpt>
      <trkpt lat="45.85333" lon="4.6584">
        <ele>333.1716</ele>
        <time>2023-06-04T13:21:26.000Z</time>
      </trkpt>
      <trkpt lat="45.8533" lon="4.65839">
        <ele>332.5788</ele>
        <time>2023-06-04T13:21:27.000Z</time>
      </trkpt>
      <trkpt lat="45.85325" lon="4.65837">
        <ele>332.01093</ele>
        <time>2023-06-04T13:21:28.000Z</time>
      </trkpt>
      <trkpt lat="45.85319" lon="4.65836">
        <ele>330.57651</ele>
        <time>2023-06-04T13:21:29.000Z</time>
      </trkpt>
      <trkpt lat="45.85317" lon="4.65839">
        <ele>330.12943</ele>
        <time>2023-06-04T13:21:30.000Z</time>
      </trkpt>
      <trkpt lat="45.85314" lon="4.6584">
        <ele>329.44189</ele>
        <time>2023-06-04T13:21:31.000Z</time>
      </trkpt>
      <trkpt lat="45.85313" lon="4.65847">
        <ele>328.68082</ele>
        <time>2023-06-04T13:21:32.000Z</time>
      </trkpt>
      <trkpt lat="45.85312" lon="4.65852">
        <ele>327.67963</ele>
        <time>2023-06-04T13:21:33.000Z</time>
      </trkpt>
      <trkpt lat="45.85311" lon="4.65858">
        <ele>326.73154</ele>
        <time>2023-06-04T13:21:34.000Z</time>
      </trkpt>
      <trkpt lat="45.8531" lon="4.65864">
        <ele>325.61823</ele>
        <time>2023-06-04T13:21:35.000Z</time>
      </trkpt>
      <trkpt lat="45.85311" lon="4.6587">
        <ele>324.55557</ele>
        <time>2023-06-04T13:21:36.000Z</time>
      </trkpt>
      <trkpt lat="45.8531" lon="4.65875">
        <ele>323.76172</ele>
        <time>2023-06-04T13:21:37.000Z</time>
      </trkpt>
      <trkpt lat="45.85308" lon="4.6588">
        <ele>322.68924</ele>
        <time>2023-06-04T13:21:38.000Z</time>
      </trkpt>
      <trkpt lat="45.8531" lon="4.65881">
        <ele>321.60434</ele>
        <time>2023-06-04T13:21:39.000Z</time>
      </trkpt>
      <trkpt lat="45.85308" lon="4.65887">
        <ele>320.40915</ele>
        <time>2023-06-04T13:21:41.000Z</time>
      </trkpt>
      <trkpt lat="45.8531" lon="4.65895">
        <ele>319.26157</ele>
        <time>2023-06-04T13:21:42.000Z</time>
      </trkpt>
      <trkpt lat="45.85308" lon="4.65904">
        <ele>317.97263</ele>
        <time>2023-06-04T13:21:43.000Z</time>
      </trkpt>
      <trkpt lat="45.85306" lon="4.6591">
        <ele>317.09875</ele>
        <time>2023-06-04T13:21:44.000Z</time>
      </trkpt>
      <trkpt lat="45.85308" lon="4.65916">
        <ele>316.91568</ele>
        <time>2023-06-04T13:21:45.000Z</time>
      </trkpt>
      <trkpt lat="45.85312" lon="4.65921">
        <ele>317.0108</ele>
        <time>2023-06-04T13:21:46.000Z</time>
      </trkpt>
      <trkpt lat="45.85313" lon="4.65926">
        <ele>317.3942</ele>
        <time>2023-06-04T13:21:47.000Z</time>
      </trkpt>
      <trkpt lat="45.85313" lon="4.65932">
        <ele>317.82782</ele>
        <time>2023-06-04T13:21:48.000Z</time>
      </trkpt>
      <trkpt lat="45.85312" lon="4.65936">
        <ele>318.44876</ele>
        <time>2023-06-04T13:21:49.000Z</time>
      </trkpt>
      <trkpt lat="45.85313" lon="4.65943">
        <ele>319.32635</ele>
        <time>2023-06-04T13:21:50.000Z</time>
      </trkpt>
      <trkpt lat="45.85308" lon="4.65945">
        <ele>320.16147</ele>
        <time>2023-06-04T13:21:51.000Z</time>
      </trkpt>
      <trkpt lat="45.85306" lon="4.65945">
        <ele>320.99344</ele>
        <time>2023-06-04T13:21:53.000Z</time>
      </trkpt>
      <trkpt lat="45.85303" lon="4.65947">
        <ele>321.68857</ele>
        <time>2023-06-04T13:21:54.000Z</time>
      </trkpt>
      <trkpt lat="45.853" lon="4.65947">
        <ele>322.3746</ele>
        <time>2023-06-04T13:21:55.000Z</time>
      </trkpt>
      <trkpt lat="45.85297" lon="4.65947">
        <ele>323.00824</ele>
        <time>2023-06-04T13:21:56.000Z</time>
      </trkpt>
      <trkpt lat="45.85293" lon="4.65949">
        <ele>323.82526</ele>
        <time>2023-06-04T13:21:57.000Z</time>
      </trkpt>
      <trkpt lat="45.85289" lon="4.6595">
        <ele>325.12695</ele>
        <time>2023-06-04T13:21:58.000Z</time>
      </trkpt>
      <trkpt lat="45.85286" lon="4.65952">
        <ele>326.11224</ele>
        <time>2023-06-04T13:21:59.000Z</time>
      </trkpt>
      <trkpt lat="45.85283" lon="4.65953">
        <ele>327.0542</ele>
        <time>2023-06-04T13:22:00.000Z</time>
      </trkpt>
      <trkpt lat="45.85279" lon="4.65953">
        <ele>327.79272</ele>
        <time>2023-06-04T13:22:01.000Z</time>
      </trkpt>
      <trkpt lat="45.85274" lon="4.65954">
        <ele>328.5083</ele>
        <time>2023-06-04T13:22:02.000Z</time>
      </trkpt>
      <trkpt lat="45.85271" lon="4.65955">
        <ele>329.19977</ele>
        <time>2023-06-04T13:22:03.000Z</time>
      </trkpt>
      <trkpt lat="45.85268" lon="4.65957">
        <ele>330.12433</ele>
        <time>2023-06-04T13:22:04.000Z</time>
      </trkpt>
      <trkpt lat="45.85265" lon="4.65959">
        <ele>330.35687</ele>
        <time>2023-06-04T13:22:05.000Z</time>
      </trkpt>
      <trkpt lat="45.85262" lon="4.65963">
        <ele>330.48898</ele>
        <time>2023-06-04T13:22:06.000Z</time>
      </trkpt>
      <trkpt lat="45.85259" lon="4.65966">
        <ele>330.47174</ele>
        <time>2023-06-04T13:22:07.000Z</time>
      </trkpt>
      <trkpt lat="45.85256" lon="4.6597">
        <ele>330.30527</ele>
        <time>2023-06-04T13:22:08.000Z</time>
      </trkpt>
      <trkpt lat="45.85252" lon="4.65974">
        <ele>330.23236</ele>
        <time>2023-06-04T13:22:09.000Z</time>
      </trkpt>
      <trkpt lat="45.85249" lon="4.65977">
        <ele>330.45038</ele>
        <time>2023-06-04T13:22:10.000Z</time>
      </trkpt>
      <trkpt lat="45.85245" lon="4.6598">
        <ele>330.54596</ele>
        <time>2023-06-04T13:22:11.000Z</time>
      </trkpt>
      <trkpt lat="45.85241" lon="4.65983">
        <ele>330.80984</ele>
        <time>2023-06-04T13:22:12.000Z</time>
      </trkpt>
      <trkpt lat="45.85238" lon="4.65985">
        <ele>331.10263</ele>
        <time>2023-06-04T13:22:13.000Z</time>
      </trkpt>
      <trkpt lat="45.85235" lon="4.65988">
        <ele>331.36978</ele>
        <time>2023-06-04T13:22:14.000Z</time>
      </trkpt>
      <trkpt lat="45.85231" lon="4.6599">
        <ele>331.57483</ele>
        <time>2023-06-04T13:22:15.000Z</time>
      </trkpt>
      <trkpt lat="45.85227" lon="4.65992">
        <ele>331.86752</ele>
        <time>2023-06-04T13:22:16.000Z</time>
      </trkpt>
      <trkpt lat="45.85224" lon="4.65993">
        <ele>332.07806</ele>
        <time>2023-06-04T13:22:17.000Z</time>
      </trkpt>
      <trkpt lat="45.85221" lon="4.65994">
        <ele>331.59439</ele>
        <time>2023-06-04T13:22:18.000Z</time>
      </trkpt>
      <trkpt lat="45.85216" lon="4.65994">
        <ele>331.10602</ele>
        <time>2023-06-04T13:22:19.000Z</time>
      </trkpt>
      <trkpt lat="45.8521" lon="4.65995">
        <ele>331.17059</ele>
        <time>2023-06-04T13:22:20.000Z</time>
      </trkpt>
      <trkpt lat="45.85207" lon="4.65999">
        <ele>331.09927</ele>
        <time>2023-06-04T13:22:21.000Z</time>
      </trkpt>
      <trkpt lat="45.85204" lon="4.65998">
        <ele>331.08057</ele>
        <time>2023-06-04T13:22:22.000Z</time>
      </trkpt>
      <trkpt lat="45.85206" lon="4.66003">
        <ele>331.08075</ele>
        <time>2023-06-04T13:22:23.000Z</time>
      </trkpt>
      <trkpt lat="45.85201" lon="4.66007">
        <ele>330.73724</ele>
        <time>2023-06-04T13:22:24.000Z</time>
      </trkpt>
      <trkpt lat="45.85196" lon="4.66005">
        <ele>331.10492</ele>
        <time>2023-06-04T13:22:25.000Z</time>
      </trkpt>
      <trkpt lat="45.85189" lon="4.66005">
        <ele>331.27829</ele>
        <time>2023-06-04T13:22:26.000Z</time>
      </trkpt>
      <trkpt lat="45.85187" lon="4.66008">
        <ele>331.49359</ele>
        <time>2023-06-04T13:22:27.000Z</time>
      </trkpt>
      <trkpt lat="45.85182" lon="4.6601">
        <ele>331.71384</ele>
        <time>2023-06-04T13:22:28.000Z</time>
      </trkpt>
      <trkpt lat="45.85179" lon="4.66009">
        <ele>331.90479</ele>
        <time>2023-06-04T13:22:29.000Z</time>
      </trkpt>
      <trkpt lat="45.85172" lon="4.6601">
        <ele>331.81418</ele>
        <time>2023-06-04T13:22:30.000Z</time>
      </trkpt>
      <trkpt lat="45.85168" lon="4.66009">
        <ele>331.93057</ele>
        <time>2023-06-04T13:22:31.000Z</time>
      </trkpt>
      <trkpt lat="45.85164" lon="4.66009">
        <ele>331.42264</ele>
        <time>2023-06-04T13:22:32.000Z</time>
      </trkpt>
      <trkpt lat="45.85159" lon="4.66011">
        <ele>331.14124</ele>
        <time>2023-06-04T13:22:33.000Z</time>
      </trkpt>
      <trkpt lat="45.85157" lon="4.66013">
        <ele>331.04568</ele>
        <time>2023-06-04T13:22:34.000Z</time>
      </trkpt>
      <trkpt lat="45.85151" lon="4.66015">
        <ele>331.03436</ele>
        <time>2023-06-04T13:22:35.000Z</time>
      </trkpt>
      <trkpt lat="45.85147" lon="4.66014">
        <ele>331.01208</ele>
        <time>2023-06-04T13:22:36.000Z</time>
      </trkpt>
      <trkpt lat="45.85142" lon="4.66014">
        <ele>330.87079</ele>
        <time>2023-06-04T13:22:37.000Z</time>
      </trkpt>
      <trkpt lat="45.8514" lon="4.66017">
        <ele>331.03522</ele>
        <time>2023-06-04T13:22:38.000Z</time>
      </trkpt>
      <trkpt lat="45.85137" lon="4.66018">
        <ele>331.13898</ele>
        <time>2023-06-04T13:22:39.000Z</time>
      </trkpt>
      <trkpt lat="45.85133" lon="4.66018">
        <ele>330.74942</ele>
        <time>2023-06-04T13:22:40.000Z</time>
      </trkpt>
      <trkpt lat="45.85129" lon="4.66018">
        <ele>330.49588</ele>
        <time>2023-06-04T13:22:41.000Z</time>
      </trkpt>
      <trkpt lat="45.85125" lon="4.6602">
        <ele>330.21896</ele>
        <time>2023-06-04T13:22:42.000Z</time>
      </trkpt>
      <trkpt lat="45.8512" lon="4.66022">
        <ele>329.89215</ele>
        <time>2023-06-04T13:22:43.000Z</time>
      </trkpt>
      <trkpt lat="45.85115" lon="4.66022">
        <ele>329.59109</ele>
        <time>2023-06-04T13:22:44.000Z</time>
      </trkpt>
      <trkpt lat="45.85112" lon="4.66024">
        <ele>329.38205</ele>
        <time>2023-06-04T13:22:45.000Z</time>
      </trkpt>
      <trkpt lat="45.85108" lon="4.66026">
        <ele>329.2121</ele>
        <time>2023-06-04T13:22:46.000Z</time>
      </trkpt>
      <trkpt lat="45.85105" lon="4.66029">
        <ele>329.10638</ele>
        <time>2023-06-04T13:22:47.000Z</time>
      </trkpt>
      <trkpt lat="45.85101" lon="4.6603">
        <ele>329.10754</ele>
        <time>2023-06-04T13:22:48.000Z</time>
      </trkpt>
      <trkpt lat="45.85097" lon="4.66031">
        <ele>329.19986</ele>
        <time>2023-06-04T13:22:49.000Z</time>
      </trkpt>
      <trkpt lat="45.85093" lon="4.66032">
        <ele>329.37695</ele>
        <time>2023-06-04T13:22:50.000Z</time>
      </trkpt>
      <trkpt lat="45.85088" lon="4.66033">
        <ele>329.37866</ele>
        <time>2023-06-04T13:22:51.000Z</time>
      </trkpt>
      <trkpt lat="45.85085" lon="4.66033">
        <ele>329.95047</ele>
        <time>2023-06-04T13:22:52.000Z</time>
      </trkpt>
      <trkpt lat="45.85081" lon="4.66033">
        <ele>330.27545</ele>
        <time>2023-06-04T13:22:53.000Z</time>
      </trkpt>
      <trkpt lat="45.85077" lon="4.66033">
        <ele>330.6673</ele>
        <time>2023-06-04T13:22:54.000Z</time>
      </trkpt>
      <trkpt lat="45.85074" lon="4.66034">
        <ele>331.07245</ele>
        <time>2023-06-04T13:22:55.000Z</time>
      </trkpt>
      <trkpt lat="45.8507" lon="4.66035">
        <ele>331.54614</ele>
        <time>2023-06-04T13:22:56.000Z</time>
      </trkpt>
      <trkpt lat="45.85066" lon="4.66036">
        <ele>331.95709</ele>
        <time>2023-06-04T13:22:57.000Z</time>
      </trkpt>
      <trkpt lat="45.85061" lon="4.66037">
        <ele>332.16986</ele>
        <time>2023-06-04T13:22:58.000Z</time>
      </trkpt>
      <trkpt lat="45.85056" lon="4.66037">
        <ele>332.5051</ele>
        <time>2023-06-04T13:22:59.000Z</time>
      </trkpt>
      <trkpt lat="45.85051" lon="4.66037">
        <ele>332.97531</ele>
        <time>2023-06-04T13:23:00.000Z</time>
      </trkpt>
      <trkpt lat="45.85046" lon="4.66036">
        <ele>333.4765</ele>
        <time>2023-06-04T13:23:01.000Z</time>
      </trkpt>
      <trkpt lat="45.85042" lon="4.66034">
        <ele>333.87744</ele>
        <time>2023-06-04T13:23:02.000Z</time>
      </trkpt>
      <trkpt lat="45.85035" lon="4.66031">
        <ele>333.15359</ele>
        <time>2023-06-04T13:23:03.000Z</time>
      </trkpt>
      <trkpt lat="45.85033" lon="4.66032">
        <ele>332.43494</ele>
        <time>2023-06-04T13:23:04.000Z</time>
      </trkpt>
      <trkpt lat="45.85028" lon="4.66035">
        <ele>333.37784</ele>
        <time>2023-06-04T13:23:05.000Z</time>
      </trkpt>
      <trkpt lat="45.85023" lon="4.66034">
        <ele>334.22577</ele>
        <time>2023-06-04T13:23:07.000Z</time>
      </trkpt>
      <trkpt lat="45.85018" lon="4.66033">
        <ele>334.90372</ele>
        <time>2023-06-04T13:23:08.000Z</time>
      </trkpt>
      <trkpt lat="45.85014" lon="4.66035">
        <ele>335.53644</ele>
        <time>2023-06-04T13:23:09.000Z</time>
      </trkpt>
      <trkpt lat="45.85009" lon="4.66033">
        <ele>336.07898</ele>
        <time>2023-06-04T13:23:10.000Z</time>
      </trkpt>
      <trkpt lat="45.85006" lon="4.66039">
        <ele>336.71381</ele>
        <time>2023-06-04T13:23:11.000Z</time>
      </trkpt>
      <trkpt lat="45.85001" lon="4.66037">
        <ele>337.41602</ele>
        <time>2023-06-04T13:23:12.000Z</time>
      </trkpt>
      <trkpt lat="45.84999" lon="4.66038">
        <ele>338.14679</ele>
        <time>2023-06-04T13:23:13.000Z</time>
      </trkpt>
      <trkpt lat="45.84995" lon="4.66036">
        <ele>338.84155</ele>
        <time>2023-06-04T13:23:14.000Z</time>
      </trkpt>
      <trkpt lat="45.84987" lon="4.66035">
        <ele>339.38434</ele>
        <time>2023-06-04T13:23:15.000Z</time>
      </trkpt>
      <trkpt lat="45.84984" lon="4.66034">
        <ele>339.94736</ele>
        <time>2023-06-04T13:23:16.000Z</time>
      </trkpt>
      <trkpt lat="45.84981" lon="4.66034">
        <ele>340.36334</ele>
        <time>2023-06-04T13:23:17.000Z</time>
      </trkpt>
      <trkpt lat="45.84975" lon="4.66033">
        <ele>340.84955</ele>
        <time>2023-06-04T13:23:18.000Z</time>
      </trkpt>
      <trkpt lat="45.84969" lon="4.6603">
        <ele>341.29587</ele>
        <time>2023-06-04T13:23:19.000Z</time>
      </trkpt>
      <trkpt lat="45.84966" lon="4.66031">
        <ele>341.69772</ele>
        <time>2023-06-04T13:23:20.000Z</time>
      </trkpt>
      <trkpt lat="45.8496" lon="4.66029">
        <ele>342.1109</ele>
        <time>2023-06-04T13:23:21.000Z</time>
      </trkpt>
      <trkpt lat="45.84956" lon="4.66027">
        <ele>342.6723</ele>
        <time>2023-06-04T13:23:22.000Z</time>
      </trkpt>
      <trkpt lat="45.84952" lon="4.66027">
        <ele>343.19656</ele>
        <time>2023-06-04T13:23:23.000Z</time>
      </trkpt>
      <trkpt lat="45.8495" lon="4.6603">
        <ele>344.91412</ele>
        <time>2023-06-04T13:23:24.000Z</time>
      </trkpt>
      <trkpt lat="45.84944" lon="4.6603">
        <ele>346.77228</ele>
        <time>2023-06-04T13:23:25.000Z</time>
      </trkpt>
      <trkpt lat="45.8494" lon="4.66028">
        <ele>346.92657</ele>
        <time>2023-06-04T13:23:26.000Z</time>
      </trkpt>
      <trkpt lat="45.84936" lon="4.66028">
        <ele>346.62625</ele>
        <time>2023-06-04T13:23:27.000Z</time>
      </trkpt>
      <trkpt lat="45.84932" lon="4.66029">
        <ele>346.4375</ele>
        <time>2023-06-04T13:23:28.000Z</time>
      </trkpt>
      <trkpt lat="45.84925" lon="4.66029">
        <ele>346.27875</ele>
        <time>2023-06-04T13:23:29.000Z</time>
      </trkpt>
      <trkpt lat="45.8492" lon="4.66029">
        <ele>346.35632</ele>
        <time>2023-06-04T13:23:30.000Z</time>
      </trkpt>
      <trkpt lat="45.84916" lon="4.66027">
        <ele>346.26483</ele>
        <time>2023-06-04T13:23:31.000Z</time>
      </trkpt>
      <trkpt lat="45.84914" lon="4.66024">
        <ele>346.08551</ele>
        <time>2023-06-04T13:23:32.000Z</time>
      </trkpt>
      <trkpt lat="45.84909" lon="4.66024">
        <ele>345.97391</ele>
        <time>2023-06-04T13:23:33.000Z</time>
      </trkpt>
      <trkpt lat="45.84901" lon="4.66025">
        <ele>346.01953</ele>
        <time>2023-06-04T13:23:34.000Z</time>
      </trkpt>
      <trkpt lat="45.84898" lon="4.66026">
        <ele>346.24274</ele>
        <time>2023-06-04T13:23:35.000Z</time>
      </trkpt>
      <trkpt lat="45.84892" lon="4.66025">
        <ele>346.48523</ele>
        <time>2023-06-04T13:23:36.000Z</time>
      </trkpt>
      <trkpt lat="45.84889" lon="4.66025">
        <ele>346.8027</ele>
        <time>2023-06-04T13:23:37.000Z</time>
      </trkpt>
      <trkpt lat="45.84886" lon="4.66025">
        <ele>347.28424</ele>
        <time>2023-06-04T13:23:38.000Z</time>
      </trkpt>
      <trkpt lat="45.84883" lon="4.66025">
        <ele>347.85257</ele>
        <time>2023-06-04T13:23:39.000Z</time>
      </trkpt>
      <trkpt lat="45.8488" lon="4.66025">
        <ele>348.37662</ele>
        <time>2023-06-04T13:23:40.000Z</time>
      </trkpt>
      <trkpt lat="45.84875" lon="4.66025">
        <ele>348.80045</ele>
        <time>2023-06-04T13:23:41.000Z</time>
      </trkpt>
      <trkpt lat="45.84871" lon="4.66025">
        <ele>349.06635</ele>
        <time>2023-06-04T13:23:42.000Z</time>
      </trkpt>
      <trkpt lat="45.84868" lon="4.66026">
        <ele>349.41364</ele>
        <time>2023-06-04T13:23:43.000Z</time>
      </trkpt>
      <trkpt lat="45.84863" lon="4.66027">
        <ele>349.58612</ele>
        <time>2023-06-04T13:23:44.000Z</time>
      </trkpt>
      <trkpt lat="45.8486" lon="4.66029">
        <ele>349.70001</ele>
        <time>2023-06-04T13:23:45.000Z</time>
      </trkpt>
      <trkpt lat="45.84857" lon="4.66031">
        <ele>349.89685</ele>
        <time>2023-06-04T13:23:46.000Z</time>
      </trkpt>
      <trkpt lat="45.84854" lon="4.66033">
        <ele>350.65405</ele>
        <time>2023-06-04T13:23:47.000Z</time>
      </trkpt>
      <trkpt lat="45.8485" lon="4.66036">
        <ele>351.42929</ele>
        <time>2023-06-04T13:23:48.000Z</time>
      </trkpt>
      <trkpt lat="45.84845" lon="4.66039">
        <ele>352.20355</ele>
        <time>2023-06-04T13:23:49.000Z</time>
      </trkpt>
      <trkpt lat="45.8484" lon="4.66041">
        <ele>352.74249</ele>
        <time>2023-06-04T13:23:50.000Z</time>
      </trkpt>
      <trkpt lat="45.84835" lon="4.66044">
        <ele>353.29501</ele>
        <time>2023-06-04T13:23:51.000Z</time>
      </trkpt>
      <trkpt lat="45.8483" lon="4.66046">
        <ele>353.86499</ele>
        <time>2023-06-04T13:23:52.000Z</time>
      </trkpt>
      <trkpt lat="45.84825" lon="4.66049">
        <ele>354.33569</ele>
        <time>2023-06-04T13:23:53.000Z</time>
      </trkpt>
      <trkpt lat="45.8482" lon="4.66051">
        <ele>354.86514</ele>
        <time>2023-06-04T13:23:54.000Z</time>
      </trkpt>
      <trkpt lat="45.84814" lon="4.66054">
        <ele>355.1774</ele>
        <time>2023-06-04T13:23:55.000Z</time>
      </trkpt>
      <trkpt lat="45.8481" lon="4.66057">
        <ele>355.44443</ele>
        <time>2023-06-04T13:23:56.000Z</time>
      </trkpt>
      <trkpt lat="45.84806" lon="4.6606">
        <ele>355.68408</ele>
        <time>2023-06-04T13:23:57.000Z</time>
      </trkpt>
      <trkpt lat="45.84803" lon="4.66063">
        <ele>355.72675</ele>
        <time>2023-06-04T13:23:58.000Z</time>
      </trkpt>
      <trkpt lat="45.84798" lon="4.66066">
        <ele>355.72089</ele>
        <time>2023-06-04T13:23:59.000Z</time>
      </trkpt>
      <trkpt lat="45.84794" lon="4.66068">
        <ele>355.79071</ele>
        <time>2023-06-04T13:24:00.000Z</time>
      </trkpt>
      <trkpt lat="45.84789" lon="4.6607">
        <ele>355.931</ele>
        <time>2023-06-04T13:24:01.000Z</time>
      </trkpt>
      <trkpt lat="45.84783" lon="4.66072">
        <ele>355.98474</ele>
        <time>2023-06-04T13:24:02.000Z</time>
      </trkpt>
      <trkpt lat="45.84779" lon="4.66074">
        <ele>356.22562</ele>
        <time>2023-06-04T13:24:03.000Z</time>
      </trkpt>
      <trkpt lat="45.84775" lon="4.66076">
        <ele>356.6272</ele>
        <time>2023-06-04T13:24:04.000Z</time>
      </trkpt>
      <trkpt lat="45.8477" lon="4.66081">
        <ele>356.92081</ele>
        <time>2023-06-04T13:24:05.000Z</time>
      </trkpt>
      <trkpt lat="45.84757" lon="4.66083">
        <ele>357.37552</ele>
        <time>2023-06-04T13:24:06.000Z</time>
      </trkpt>
      <trkpt lat="45.84754" lon="4.66088">
        <ele>357.79044</ele>
        <time>2023-06-04T13:24:07.000Z</time>
      </trkpt>
      <trkpt lat="45.84747" lon="4.66087">
        <ele>357.99988</ele>
        <time>2023-06-04T13:24:08.000Z</time>
      </trkpt>
      <trkpt lat="45.84745" lon="4.6609">
        <ele>358.21014</ele>
        <time>2023-06-04T13:24:09.000Z</time>
      </trkpt>
      <trkpt lat="45.84738" lon="4.66089">
        <ele>358.56183</ele>
        <time>2023-06-04T13:24:10.000Z</time>
      </trkpt>
      <trkpt lat="45.84731" lon="4.66092">
        <ele>358.85114</ele>
        <time>2023-06-04T13:24:11.000Z</time>
      </trkpt>
      <trkpt lat="45.84728" lon="4.66096">
        <ele>359.02408</ele>
        <time>2023-06-04T13:24:12.000Z</time>
      </trkpt>
      <trkpt lat="45.84726" lon="4.66098">
        <ele>359.16766</ele>
        <time>2023-06-04T13:24:13.000Z</time>
      </trkpt>
      <trkpt lat="45.84719" lon="4.66098">
        <ele>359.0752</ele>
        <time>2023-06-04T13:24:14.000Z</time>
      </trkpt>
      <trkpt lat="45.84716" lon="4.66102">
        <ele>359.02744</ele>
        <time>2023-06-04T13:24:15.000Z</time>
      </trkpt>
      <trkpt lat="45.84711" lon="4.66103">
        <ele>358.92844</ele>
        <time>2023-06-04T13:24:16.000Z</time>
      </trkpt>
      <trkpt lat="45.84705" lon="4.66104">
        <ele>358.75302</ele>
        <time>2023-06-04T13:24:17.000Z</time>
      </trkpt>
      <trkpt lat="45.847" lon="4.66107">
        <ele>358.5343</ele>
        <time>2023-06-04T13:24:18.000Z</time>
      </trkpt>
      <trkpt lat="45.84694" lon="4.66108">
        <ele>358.37854</ele>
        <time>2023-06-04T13:24:19.000Z</time>
      </trkpt>
      <trkpt lat="45.84686" lon="4.6611">
        <ele>358.33554</ele>
        <time>2023-06-04T13:24:20.000Z</time>
      </trkpt>
      <trkpt lat="45.8468" lon="4.6611">
        <ele>358.19977</ele>
        <time>2023-06-04T13:24:21.000Z</time>
      </trkpt>
      <trkpt lat="45.84676" lon="4.66111">
        <ele>358.05145</ele>
        <time>2023-06-04T13:24:22.000Z</time>
      </trkpt>
      <trkpt lat="45.8467" lon="4.66113">
        <ele>357.67532</ele>
        <time>2023-06-04T13:24:23.000Z</time>
      </trkpt>
      <trkpt lat="45.84665" lon="4.66115">
        <ele>357.19281</ele>
        <time>2023-06-04T13:24:24.000Z</time>
      </trkpt>
      <trkpt lat="45.84659" lon="4.66117">
        <ele>356.68793</ele>
        <time>2023-06-04T13:24:25.000Z</time>
      </trkpt>
      <trkpt lat="45.84655" lon="4.66119">
        <ele>355.94379</ele>
        <time>2023-06-04T13:24:26.000Z</time>
      </trkpt>
      <trkpt lat="45.84651" lon="4.66122">
        <ele>355.23596</ele>
        <time>2023-06-04T13:24:27.000Z</time>
      </trkpt>
      <trkpt lat="45.84647" lon="4.66124">
        <ele>354.77429</ele>
        <time>2023-06-04T13:24:28.000Z</time>
      </trkpt>
      <trkpt lat="45.84645" lon="4.66129">
        <ele>354.44046</ele>
        <time>2023-06-04T13:24:29.000Z</time>
      </trkpt>
      <trkpt lat="45.84638" lon="4.66131">
        <ele>353.95529</ele>
        <time>2023-06-04T13:24:30.000Z</time>
      </trkpt>
      <trkpt lat="45.84634" lon="4.66133">
        <ele>353.66068</ele>
        <time>2023-06-04T13:24:31.000Z</time>
      </trkpt>
      <trkpt lat="45.84629" lon="4.66139">
        <ele>353.51752</ele>
        <time>2023-06-04T13:24:32.000Z</time>
      </trkpt>
      <trkpt lat="45.84627" lon="4.66146">
        <ele>353.48627</ele>
        <time>2023-06-04T13:24:33.000Z</time>
      </trkpt>
      <trkpt lat="45.84624" lon="4.6615">
        <ele>353.66959</ele>
        <time>2023-06-04T13:24:34.000Z</time>
      </trkpt>
      <trkpt lat="45.84623" lon="4.66157">
        <ele>353.97598</ele>
        <time>2023-06-04T13:24:35.000Z</time>
      </trkpt>
      <trkpt lat="45.84616" lon="4.6616">
        <ele>354.21326</ele>
        <time>2023-06-04T13:24:36.000Z</time>
      </trkpt>
      <trkpt lat="45.84616" lon="4.66165">
        <ele>354.68021</ele>
        <time>2023-06-04T13:24:37.000Z</time>
      </trkpt>
      <trkpt lat="45.84612" lon="4.6617">
        <ele>355.27252</ele>
        <time>2023-06-04T13:24:38.000Z</time>
      </trkpt>
      <trkpt lat="45.84606" lon="4.66172">
        <ele>355.80963</ele>
        <time>2023-06-04T13:24:39.000Z</time>
      </trkpt>
      <trkpt lat="45.84604" lon="4.66172">
        <ele>356.17352</ele>
        <time>2023-06-04T13:24:40.000Z</time>
      </trkpt>
      <trkpt lat="45.84601" lon="4.66175">
        <ele>356.52646</ele>
        <time>2023-06-04T13:24:41.000Z</time>
      </trkpt>
      <trkpt lat="45.84594" lon="4.66176">
        <ele>356.92972</ele>
        <time>2023-06-04T13:24:42.000Z</time>
      </trkpt>
      <trkpt lat="45.8459" lon="4.66175">
        <ele>357.29898</ele>
        <time>2023-06-04T13:24:43.000Z</time>
      </trkpt>
      <trkpt lat="45.84584" lon="4.66176">
        <ele>357.66309</ele>
        <time>2023-06-04T13:24:44.000Z</time>
      </trkpt>
      <trkpt lat="45.84581" lon="4.66169">
        <ele>357.96997</ele>
        <time>2023-06-04T13:24:45.000Z</time>
      </trkpt>
      <trkpt lat="45.84577" lon="4.66167">
        <ele>358.29401</ele>
        <time>2023-06-04T13:24:46.000Z</time>
      </trkpt>
      <trkpt lat="45.84571" lon="4.66164">
        <ele>358.48318</ele>
        <time>2023-06-04T13:24:47.000Z</time>
      </trkpt>
      <trkpt lat="45.84565" lon="4.66163">
        <ele>358.60049</ele>
        <time>2023-06-04T13:24:48.000Z</time>
      </trkpt>
      <trkpt lat="45.84561" lon="4.66161">
        <ele>358.76849</ele>
        <time>2023-06-04T13:24:49.000Z</time>
      </trkpt>
      <trkpt lat="45.84555" lon="4.66156">
        <ele>359.03394</ele>
        <time>2023-06-04T13:24:50.000Z</time>
      </trkpt>
      <trkpt lat="45.84553" lon="4.66154">
        <ele>359.01849</ele>
        <time>2023-06-04T13:24:51.000Z</time>
      </trkpt>
      <trkpt lat="45.84548" lon="4.66154">
        <ele>358.97046</ele>
        <time>2023-06-04T13:24:52.000Z</time>
      </trkpt>
      <trkpt lat="45.84543" lon="4.66153">
        <ele>358.92291</ele>
        <time>2023-06-04T13:24:53.000Z</time>
      </trkpt>
      <trkpt lat="45.84541" lon="4.66148">
        <ele>358.70135</ele>
        <time>2023-06-04T13:24:54.000Z</time>
      </trkpt>
      <trkpt lat="45.8454" lon="4.66143">
        <ele>358.36606</ele>
        <time>2023-06-04T13:24:55.000Z</time>
      </trkpt>
      <trkpt lat="45.84536" lon="4.66137">
        <ele>358.29535</ele>
        <time>2023-06-04T13:24:56.000Z</time>
      </trkpt>
      <trkpt lat="45.84533" lon="4.66129">
        <ele>358.16846</ele>
        <time>2023-06-04T13:24:57.000Z</time>
      </trkpt>
      <trkpt lat="45.84529" lon="4.66122">
        <ele>357.89795</ele>
        <time>2023-06-04T13:24:58.000Z</time>
      </trkpt>
      <trkpt lat="45.84525" lon="4.66122">
        <ele>357.62335</ele>
        <time>2023-06-04T13:24:59.000Z</time>
      </trkpt>
      <trkpt lat="45.84521" lon="4.66115">
        <ele>357.40869</ele>
        <time>2023-06-04T13:25:00.000Z</time>
      </trkpt>
      <trkpt lat="45.84516" lon="4.66112">
        <ele>357.22034</ele>
        <time>2023-06-04T13:25:01.000Z</time>
      </trkpt>
      <trkpt lat="45.84512" lon="4.66106">
        <ele>357.05737</ele>
        <time>2023-06-04T13:25:02.000Z</time>
      </trkpt>
      <trkpt lat="45.84508" lon="4.66104">
        <ele>357.04245</ele>
        <time>2023-06-04T13:25:03.000Z</time>
      </trkpt>
      <trkpt lat="45.84506" lon="4.66097">
        <ele>356.9671</ele>
        <time>2023-06-04T13:25:04.000Z</time>
      </trkpt>
      <trkpt lat="45.84503" lon="4.66095">
        <ele>356.96381</ele>
        <time>2023-06-04T13:25:05.000Z</time>
      </trkpt>
      <trkpt lat="45.84498" lon="4.66088">
        <ele>357.04465</ele>
        <time>2023-06-04T13:25:06.000Z</time>
      </trkpt>
      <trkpt lat="45.84497" lon="4.66087">
        <ele>357.35019</ele>
        <time>2023-06-04T13:25:07.000Z</time>
      </trkpt>
      <trkpt lat="45.84494" lon="4.66082">
        <ele>357.72287</ele>
        <time>2023-06-04T13:25:08.000Z</time>
      </trkpt>
      <trkpt lat="45.84494" lon="4.66079">
        <ele>357.93219</ele>
        <time>2023-06-04T13:25:09.000Z</time>
      </trkpt>
      <trkpt lat="45.84492" lon="4.66075">
        <ele>358.0914</ele>
        <time>2023-06-04T13:25:10.000Z</time>
      </trkpt>
      <trkpt lat="45.8449" lon="4.66076">
        <ele>358.30795</ele>
        <time>2023-06-04T13:25:11.000Z</time>
      </trkpt>
      <trkpt lat="45.84492" lon="4.6608">
        <ele>358.62906</ele>
        <time>2023-06-04T13:25:12.000Z</time>
      </trkpt>
      <trkpt lat="45.84489" lon="4.66083">
        <ele>358.95801</ele>
        <time>2023-06-04T13:25:13.000Z</time>
      </trkpt>
      <trkpt lat="45.84487" lon="4.6609">
        <ele>359.50452</ele>
        <time>2023-06-04T13:25:14.000Z</time>
      </trkpt>
      <trkpt lat="45.84484" lon="4.66092">
        <ele>360.04391</ele>
        <time>2023-06-04T13:25:15.000Z</time>
      </trkpt>
      <trkpt lat="45.84481" lon="4.66096">
        <ele>360.39914</ele>
        <time>2023-06-04T13:25:16.000Z</time>
      </trkpt>
      <trkpt lat="45.84478" lon="4.661">
        <ele>360.71121</ele>
        <time>2023-06-04T13:25:17.000Z</time>
      </trkpt>
      <trkpt lat="45.84477" lon="4.66105">
        <ele>361.11096</ele>
        <time>2023-06-04T13:25:18.000Z</time>
      </trkpt>
      <trkpt lat="45.84476" lon="4.6611">
        <ele>361.46283</ele>
        <time>2023-06-04T13:25:19.000Z</time>
      </trkpt>
      <trkpt lat="45.84475" lon="4.66112">
        <ele>361.72723</ele>
        <time>2023-06-04T13:25:20.000Z</time>
      </trkpt>
      <trkpt lat="45.84473" lon="4.66116">
        <ele>361.99326</ele>
        <time>2023-06-04T13:25:21.000Z</time>
      </trkpt>
      <trkpt lat="45.84471" lon="4.66114">
        <ele>362.3089</ele>
        <time>2023-06-04T13:25:27.000Z</time>
      </trkpt>
      <trkpt lat="45.84469" lon="4.66113">
        <ele>362.51065</ele>
        <time>2023-06-04T13:25:29.000Z</time>
      </trkpt>
      <trkpt lat="45.84468" lon="4.66111">
        <ele>362.80548</ele>
        <time>2023-06-04T13:25:36.000Z</time>
      </trkpt>
      <trkpt lat="45.84465" lon="4.66109">
        <ele>363.07462</ele>
        <time>2023-06-04T13:25:37.000Z</time>
      </trkpt>
      <trkpt lat="45.84466" lon="4.66112">
        <ele>363.13599</ele>
        <time>2023-06-04T13:25:41.000Z</time>
      </trkpt>
      <trkpt lat="45.84469" lon="4.66114">
        <ele>363.0899</ele>
        <time>2023-06-04T13:25:44.000Z</time>
      </trkpt>
      <trkpt lat="45.84471" lon="4.66116">
        <ele>362.98801</ele>
        <time>2023-06-04T13:25:46.000Z</time>
      </trkpt>
      <trkpt lat="45.84473" lon="4.66118">
        <ele>363.05872</ele>
        <time>2023-06-04T13:25:48.000Z</time>
      </trkpt>
      <trkpt lat="45.84472" lon="4.66116">
        <ele>363.24509</ele>
        <time>2023-06-04T13:25:51.000Z</time>
      </trkpt>
      <trkpt lat="45.84468" lon="4.66114">
        <ele>363.82227</ele>
        <time>2023-06-04T13:25:53.000Z</time>
      </trkpt>
      <trkpt lat="45.8447" lon="4.66116">
        <ele>364.24597</ele>
        <time>2023-06-04T13:26:00.000Z</time>
      </trkpt>
      <trkpt lat="45.8447" lon="4.66112">
        <ele>364.4046</ele>
        <time>2023-06-04T13:26:03.000Z</time>
      </trkpt>
      <trkpt lat="45.84467" lon="4.66112">
        <ele>364.31107</ele>
        <time>2023-06-04T13:26:06.000Z</time>
      </trkpt>
      <trkpt lat="45.84466" lon="4.66115">
        <ele>364.26605</ele>
        <time>2023-06-04T13:26:07.000Z</time>
      </trkpt>
      <trkpt lat="45.84465" lon="4.66117">
        <ele>364.31766</ele>
        <time>2023-06-04T13:26:08.000Z</time>
      </trkpt>
      <trkpt lat="45.84464" lon="4.66121">
        <ele>364.31268</ele>
        <time>2023-06-04T13:26:09.000Z</time>
      </trkpt>
      <trkpt lat="45.84463" lon="4.66124">
        <ele>364.25739</ele>
        <time>2023-06-04T13:26:10.000Z</time>
      </trkpt>
      <trkpt lat="45.84462" lon="4.66128">
        <ele>364.26151</ele>
        <time>2023-06-04T13:26:11.000Z</time>
      </trkpt>
      <trkpt lat="45.8446" lon="4.66132">
        <ele>364.28683</ele>
        <time>2023-06-04T13:26:12.000Z</time>
      </trkpt>
      <trkpt lat="45.84457" lon="4.66137">
        <ele>364.24167</ele>
        <time>2023-06-04T13:26:13.000Z</time>
      </trkpt>
      <trkpt lat="45.84454" lon="4.66141">
        <ele>363.99454</ele>
        <time>2023-06-04T13:26:14.000Z</time>
      </trkpt>
      <trkpt lat="45.84449" lon="4.66146">
        <ele>363.78537</ele>
        <time>2023-06-04T13:26:15.000Z</time>
      </trkpt>
      <trkpt lat="45.84446" lon="4.66152">
        <ele>363.4953</ele>
        <time>2023-06-04T13:26:16.000Z</time>
      </trkpt>
      <trkpt lat="45.84443" lon="4.66159">
        <ele>363.33099</ele>
        <time>2023-06-04T13:26:17.000Z</time>
      </trkpt>
      <trkpt lat="45.84441" lon="4.66167">
        <ele>363.37238</ele>
        <time>2023-06-04T13:26:18.000Z</time>
      </trkpt>
      <trkpt lat="45.84438" lon="4.66174">
        <ele>363.40994</ele>
        <time>2023-06-04T13:26:19.000Z</time>
      </trkpt>
      <trkpt lat="45.84438" lon="4.66182">
        <ele>363.52997</ele>
        <time>2023-06-04T13:26:20.000Z</time>
      </trkpt>
      <trkpt lat="45.84433" lon="4.66186">
        <ele>363.50726</ele>
        <time>2023-06-04T13:26:21.000Z</time>
      </trkpt>
      <trkpt lat="45.84432" lon="4.66194">
        <ele>363.34793</ele>
        <time>2023-06-04T13:26:22.000Z</time>
      </trkpt>
      <trkpt lat="45.84428" lon="4.66196">
        <ele>362.85962</ele>
        <time>2023-06-04T13:26:23.000Z</time>
      </trkpt>
      <trkpt lat="45.8442" lon="4.66202">
        <ele>362.41351</ele>
        <time>2023-06-04T13:26:24.000Z</time>
      </trkpt>
      <trkpt lat="45.84416" lon="4.66209">
        <ele>362.23975</ele>
        <time>2023-06-04T13:26:25.000Z</time>
      </trkpt>
      <trkpt lat="45.84416" lon="4.66217">
        <ele>362.24173</ele>
        <time>2023-06-04T13:26:26.000Z</time>
      </trkpt>
      <trkpt lat="45.84407" lon="4.66227">
        <ele>362.20508</ele>
        <time>2023-06-04T13:26:27.000Z</time>
      </trkpt>
      <trkpt lat="45.84404" lon="4.66235">
        <ele>362.00677</ele>
        <time>2023-06-04T13:26:28.000Z</time>
      </trkpt>
      <trkpt lat="45.84401" lon="4.66241">
        <ele>361.73676</ele>
        <time>2023-06-04T13:26:29.000Z</time>
      </trkpt>
      <trkpt lat="45.84398" lon="4.66246">
        <ele>361.62021</ele>
        <time>2023-06-04T13:26:30.000Z</time>
      </trkpt>
      <trkpt lat="45.84391" lon="4.66244">
        <ele>361.37585</ele>
        <time>2023-06-04T13:26:31.000Z</time>
      </trkpt>
      <trkpt lat="45.84384" lon="4.66243">
        <ele>361.21594</ele>
        <time>2023-06-04T13:26:32.000Z</time>
      </trkpt>
      <trkpt lat="45.84382" lon="4.66242">
        <ele>361.06604</ele>
        <time>2023-06-04T13:26:33.000Z</time>
      </trkpt>
      <trkpt lat="45.84376" lon="4.6624">
        <ele>361.0303</ele>
        <time>2023-06-04T13:26:34.000Z</time>
      </trkpt>
      <trkpt lat="45.84372" lon="4.66232">
        <ele>360.96646</ele>
        <time>2023-06-04T13:26:35.000Z</time>
      </trkpt>
      <trkpt lat="45.84367" lon="4.66224">
        <ele>361.01758</ele>
        <time>2023-06-04T13:26:36.000Z</time>
      </trkpt>
      <trkpt lat="45.84365" lon="4.66212">
        <ele>360.96515</ele>
        <time>2023-06-04T13:26:37.000Z</time>
      </trkpt>
      <trkpt lat="45.84367" lon="4.66198">
        <ele>360.86823</ele>
        <time>2023-06-04T13:26:38.000Z</time>
      </trkpt>
      <trkpt lat="45.84364" lon="4.6619">
        <ele>360.77802</ele>
        <time>2023-06-04T13:26:39.000Z</time>
      </trkpt>
      <trkpt lat="45.84361" lon="4.6618">
        <ele>360.67749</ele>
        <time>2023-06-04T13:26:40.000Z</time>
      </trkpt>
      <trkpt lat="45.8436" lon="4.66175">
        <ele>360.54559</ele>
        <time>2023-06-04T13:26:41.000Z</time>
      </trkpt>
      <trkpt lat="45.84358" lon="4.66166">
        <ele>360.23477</ele>
        <time>2023-06-04T13:26:42.000Z</time>
      </trkpt>
      <trkpt lat="45.84359" lon="4.66156">
        <ele>359.97827</ele>
        <time>2023-06-04T13:26:43.000Z</time>
      </trkpt>
      <trkpt lat="45.8436" lon="4.66151">
        <ele>359.71036</ele>
        <time>2023-06-04T13:26:44.000Z</time>
      </trkpt>
      <trkpt lat="45.84362" lon="4.66141">
        <ele>359.39697</ele>
        <time>2023-06-04T13:26:45.000Z</time>
      </trkpt>
      <trkpt lat="45.84359" lon="4.66136">
        <ele>359.19733</ele>
        <time>2023-06-04T13:26:46.000Z</time>
      </trkpt>
      <trkpt lat="45.84358" lon="4.66129">
        <ele>359.01968</ele>
        <time>2023-06-04T13:26:47.000Z</time>
      </trkpt>
      <trkpt lat="45.84357" lon="4.66122">
        <ele>358.92865</ele>
        <time>2023-06-04T13:26:48.000Z</time>
      </trkpt>
      <trkpt lat="45.84355" lon="4.66115">
        <ele>359.01752</ele>
        <time>2023-06-04T13:26:49.000Z</time>
      </trkpt>
      <trkpt lat="45.84348" lon="4.66104">
        <ele>358.95587</ele>
        <time>2023-06-04T13:26:50.000Z</time>
      </trkpt>
      <trkpt lat="45.84344" lon="4.66099">
        <ele>359.08292</ele>
        <time>2023-06-04T13:26:51.000Z</time>
      </trkpt>
      <trkpt lat="45.84344" lon="4.6609">
        <ele>359.04169</ele>
        <time>2023-06-04T13:26:52.000Z</time>
      </trkpt>
      <trkpt lat="45.84343" lon="4.66083">
        <ele>359.02457</ele>
        <time>2023-06-04T13:26:53.000Z</time>
      </trkpt>
      <trkpt lat="45.84345" lon="4.6608">
        <ele>358.98999</ele>
        <time>2023-06-04T13:26:55.000Z</time>
      </trkpt>
      <trkpt lat="45.84345" lon="4.66076">
        <ele>359.02063</ele>
        <time>2023-06-04T13:26:56.000Z</time>
      </trkpt>
      <trkpt lat="45.84344" lon="4.66068">
        <ele>359.04178</ele>
        <time>2023-06-04T13:26:57.000Z</time>
      </trkpt>
      <trkpt lat="45.84344" lon="4.66062">
        <ele>359.13446</ele>
        <time>2023-06-04T13:26:58.000Z</time>
      </trkpt>
      <trkpt lat="45.84342" lon="4.66056">
        <ele>359.17123</ele>
        <time>2023-06-04T13:26:59.000Z</time>
      </trkpt>
      <trkpt lat="45.84342" lon="4.66052">
        <ele>359.04224</ele>
        <time>2023-06-04T13:27:00.000Z</time>
      </trkpt>
      <trkpt lat="45.84338" lon="4.66045">
        <ele>358.81091</ele>
        <time>2023-06-04T13:27:01.000Z</time>
      </trkpt>
      <trkpt lat="45.84336" lon="4.66041">
        <ele>358.64008</ele>
        <time>2023-06-04T13:27:02.000Z</time>
      </trkpt>
      <trkpt lat="45.84334" lon="4.66033">
        <ele>358.66241</ele>
        <time>2023-06-04T13:27:03.000Z</time>
      </trkpt>
      <trkpt lat="45.84333" lon="4.66028">
        <ele>358.77386</ele>
        <time>2023-06-04T13:27:04.000Z</time>
      </trkpt>
      <trkpt lat="45.84333" lon="4.66023">
        <ele>358.93466</ele>
        <time>2023-06-04T13:27:05.000Z</time>
      </trkpt>
      <trkpt lat="45.84334" lon="4.6602">
        <ele>359.08472</ele>
        <time>2023-06-04T13:27:06.000Z</time>
      </trkpt>
      <trkpt lat="45.84332" lon="4.66013">
        <ele>359.11041</ele>
        <time>2023-06-04T13:27:07.000Z</time>
      </trkpt>
      <trkpt lat="45.84333" lon="4.66009">
        <ele>359.24921</ele>
        <time>2023-06-04T13:27:08.000Z</time>
      </trkpt>
      <trkpt lat="45.84337" lon="4.66006">
        <ele>359.36667</ele>
        <time>2023-06-04T13:27:09.000Z</time>
      </trkpt>
      <trkpt lat="45.84338" lon="4.66002">
        <ele>359.31534</ele>
        <time>2023-06-04T13:27:10.000Z</time>
      </trkpt>
      <trkpt lat="45.84341" lon="4.65998">
        <ele>359.44501</ele>
        <time>2023-06-04T13:27:11.000Z</time>
      </trkpt>
      <trkpt lat="45.84345" lon="4.65993">
        <ele>359.6062</ele>
        <time>2023-06-04T13:27:12.000Z</time>
      </trkpt>
      <trkpt lat="45.84349" lon="4.6599">
        <ele>359.89569</ele>
        <time>2023-06-04T13:27:13.000Z</time>
      </trkpt>
      <trkpt lat="45.84352" lon="4.65987">
        <ele>360.17426</ele>
        <time>2023-06-04T13:27:14.000Z</time>
      </trkpt>
      <trkpt lat="45.84357" lon="4.65981">
        <ele>360.11371</ele>
        <time>2023-06-04T13:27:15.000Z</time>
      </trkpt>
      <trkpt lat="45.84363" lon="4.65982">
        <ele>360.15366</ele>
        <time>2023-06-04T13:27:16.000Z</time>
      </trkpt>
      <trkpt lat="45.84365" lon="4.65979">
        <ele>360.22449</ele>
        <time>2023-06-04T13:27:17.000Z</time>
      </trkpt>
      <trkpt lat="45.84371" lon="4.65979">
        <ele>360.23154</ele>
        <time>2023-06-04T13:27:18.000Z</time>
      </trkpt>
      <trkpt lat="45.84375" lon="4.65976">
        <ele>360.34076</ele>
        <time>2023-06-04T13:27:19.000Z</time>
      </trkpt>
      <trkpt lat="45.84375" lon="4.65969">
        <ele>360.78693</ele>
        <time>2023-06-04T13:27:20.000Z</time>
      </trkpt>
      <trkpt lat="45.84386" lon="4.65975">
        <ele>361.3009</ele>
        <time>2023-06-04T13:27:21.000Z</time>
      </trkpt>
      <trkpt lat="45.84394" lon="4.65974">
        <ele>361.74985</ele>
        <time>2023-06-04T13:27:22.000Z</time>
      </trkpt>
      <trkpt lat="45.84402" lon="4.65977">
        <ele>362.19577</ele>
        <time>2023-06-04T13:27:23.000Z</time>
      </trkpt>
      <trkpt lat="45.84407" lon="4.65975">
        <ele>362.59116</ele>
        <time>2023-06-04T13:27:24.000Z</time>
      </trkpt>
      <trkpt lat="45.84412" lon="4.65972">
        <ele>363.02972</ele>
        <time>2023-06-04T13:27:25.000Z</time>
      </trkpt>
      <trkpt lat="45.84417" lon="4.65968">
        <ele>363.44037</ele>
        <time>2023-06-04T13:27:26.000Z</time>
      </trkpt>
      <trkpt lat="45.84422" lon="4.65964">
        <ele>363.79172</ele>
        <time>2023-06-04T13:27:27.000Z</time>
      </trkpt>
      <trkpt lat="45.84429" lon="4.65963">
        <ele>364.02765</ele>
        <time>2023-06-04T13:27:28.000Z</time>
      </trkpt>
      <trkpt lat="45.84438" lon="4.65959">
        <ele>364.25531</ele>
        <time>2023-06-04T13:27:29.000Z</time>
      </trkpt>
      <trkpt lat="45.84444" lon="4.65958">
        <ele>364.53845</ele>
        <time>2023-06-04T13:27:30.000Z</time>
      </trkpt>
      <trkpt lat="45.84443" lon="4.65954">
        <ele>364.65842</ele>
        <time>2023-06-04T13:27:31.000Z</time>
      </trkpt>
      <trkpt lat="45.84448" lon="4.65951">
        <ele>364.66751</ele>
        <time>2023-06-04T13:27:32.000Z</time>
      </trkpt>
      <trkpt lat="45.8445" lon="4.65948">
        <ele>364.60336</ele>
        <time>2023-06-04T13:27:33.000Z</time>
      </trkpt>
      <trkpt lat="45.84454" lon="4.65947">
        <ele>364.55542</ele>
        <time>2023-06-04T13:27:34.000Z</time>
      </trkpt>
      <trkpt lat="45.84459" lon="4.65946">
        <ele>364.86346</ele>
        <time>2023-06-04T13:27:35.000Z</time>
      </trkpt>
      <trkpt lat="45.84463" lon="4.65943">
        <ele>365.02829</ele>
        <time>2023-06-04T13:27:36.000Z</time>
      </trkpt>
      <trkpt lat="45.84464" lon="4.65939">
        <ele>365.06454</ele>
        <time>2023-06-04T13:27:37.000Z</time>
      </trkpt>
      <trkpt lat="45.8447" lon="4.65938">
        <ele>365.08853</ele>
        <time>2023-06-04T13:27:38.000Z</time>
      </trkpt>
      <trkpt lat="45.84476" lon="4.65935">
        <ele>364.98114</ele>
        <time>2023-06-04T13:27:39.000Z</time>
      </trkpt>
      <trkpt lat="45.84481" lon="4.65936">
        <ele>364.59546</ele>
        <time>2023-06-04T13:27:40.000Z</time>
      </trkpt>
      <trkpt lat="45.84491" lon="4.65933">
        <ele>364.27472</ele>
        <time>2023-06-04T13:27:41.000Z</time>
      </trkpt>
      <trkpt lat="45.84498" lon="4.65931">
        <ele>363.95627</ele>
        <time>2023-06-04T13:27:42.000Z</time>
      </trkpt>
      <trkpt lat="45.84506" lon="4.65928">
        <ele>363.73956</ele>
        <time>2023-06-04T13:27:43.000Z</time>
      </trkpt>
      <trkpt lat="45.8451" lon="4.65922">
        <ele>363.57199</ele>
        <time>2023-06-04T13:27:44.000Z</time>
      </trkpt>
      <trkpt lat="45.84512" lon="4.65917">
        <ele>363.44739</ele>
        <time>2023-06-04T13:27:45.000Z</time>
      </trkpt>
      <trkpt lat="45.8451" lon="4.6591">
        <ele>363.49057</ele>
        <time>2023-06-04T13:27:46.000Z</time>
      </trkpt>
      <trkpt lat="45.8451" lon="4.65904">
        <ele>363.59259</ele>
        <time>2023-06-04T13:27:47.000Z</time>
      </trkpt>
      <trkpt lat="45.84509" lon="4.65898">
        <ele>363.72687</ele>
        <time>2023-06-04T13:27:48.000Z</time>
      </trkpt>
      <trkpt lat="45.84504" lon="4.65888">
        <ele>363.80502</ele>
        <time>2023-06-04T13:27:49.000Z</time>
      </trkpt>
      <trkpt lat="45.84502" lon="4.65879">
        <ele>363.84113</ele>
        <time>2023-06-04T13:27:50.000Z</time>
      </trkpt>
      <trkpt lat="45.84502" lon="4.65872">
        <ele>363.96271</ele>
        <time>2023-06-04T13:27:51.000Z</time>
      </trkpt>
      <trkpt lat="45.84504" lon="4.65865">
        <ele>364.08463</ele>
        <time>2023-06-04T13:27:52.000Z</time>
      </trkpt>
      <trkpt lat="45.84509" lon="4.6586">
        <ele>364.29733</ele>
        <time>2023-06-04T13:27:53.000Z</time>
      </trkpt>
      <trkpt lat="45.84505" lon="4.65853">
        <ele>364.4892</ele>
        <time>2023-06-04T13:27:54.000Z</time>
      </trkpt>
      <trkpt lat="45.84504" lon="4.65847">
        <ele>364.61646</ele>
        <time>2023-06-04T13:27:55.000Z</time>
      </trkpt>
      <trkpt lat="45.84503" lon="4.6584">
        <ele>364.77826</ele>
        <time>2023-06-04T13:27:56.000Z</time>
      </trkpt>
      <trkpt lat="45.84498" lon="4.6583">
        <ele>364.98233</ele>
        <time>2023-06-04T13:27:57.000Z</time>
      </trkpt>
      <trkpt lat="45.84499" lon="4.65824">
        <ele>365.14105</ele>
        <time>2023-06-04T13:27:58.000Z</time>
      </trkpt>
      <trkpt lat="45.84497" lon="4.65818">
        <ele>365.29657</ele>
        <time>2023-06-04T13:27:59.000Z</time>
      </trkpt>
      <trkpt lat="45.84495" lon="4.65811">
        <ele>365.50555</ele>
        <time>2023-06-04T13:28:00.000Z</time>
      </trkpt>
      <trkpt lat="45.84492" lon="4.65805">
        <ele>365.56622</ele>
        <time>2023-06-04T13:28:01.000Z</time>
      </trkpt>
      <trkpt lat="45.8449" lon="4.65799">
        <ele>365.66074</ele>
        <time>2023-06-04T13:28:02.000Z</time>
      </trkpt>
      <trkpt lat="45.84489" lon="4.65794">
        <ele>365.7085</ele>
        <time>2023-06-04T13:28:03.000Z</time>
      </trkpt>
      <trkpt lat="45.84488" lon="4.6579">
        <ele>365.73065</ele>
        <time>2023-06-04T13:28:04.000Z</time>
      </trkpt>
      <trkpt lat="45.84486" lon="4.65782">
        <ele>365.66211</ele>
        <time>2023-06-04T13:28:05.000Z</time>
      </trkpt>
      <trkpt lat="45.84482" lon="4.65777">
        <ele>365.4686</ele>
        <time>2023-06-04T13:28:06.000Z</time>
      </trkpt>
      <trkpt lat="45.8448" lon="4.65772">
        <ele>365.22321</ele>
        <time>2023-06-04T13:28:07.000Z</time>
      </trkpt>
      <trkpt lat="45.84482" lon="4.65767">
        <ele>365.00543</ele>
        <time>2023-06-04T13:28:08.000Z</time>
      </trkpt>
      <trkpt lat="45.84478" lon="4.65761">
        <ele>364.89691</ele>
        <time>2023-06-04T13:28:10.000Z</time>
      </trkpt>
      <trkpt lat="45.84474" lon="4.65756">
        <ele>364.88367</ele>
        <time>2023-06-04T13:28:11.000Z</time>
      </trkpt>
      <trkpt lat="45.84469" lon="4.65749">
        <ele>364.99066</ele>
        <time>2023-06-04T13:28:12.000Z</time>
      </trkpt>
      <trkpt lat="45.84463" lon="4.6574">
        <ele>364.78802</ele>
        <time>2023-06-04T13:28:13.000Z</time>
      </trkpt>
      <trkpt lat="45.84464" lon="4.65737">
        <ele>364.68295</ele>
        <time>2023-06-04T13:28:14.000Z</time>
      </trkpt>
      <trkpt lat="45.84458" lon="4.65729">
        <ele>364.5567</ele>
        <time>2023-06-04T13:28:15.000Z</time>
      </trkpt>
      <trkpt lat="45.84457" lon="4.65723">
        <ele>364.4942</ele>
        <time>2023-06-04T13:28:16.000Z</time>
      </trkpt>
      <trkpt lat="45.84452" lon="4.65718">
        <ele>364.43039</ele>
        <time>2023-06-04T13:28:17.000Z</time>
      </trkpt>
      <trkpt lat="45.84453" lon="4.65713">
        <ele>364.46326</ele>
        <time>2023-06-04T13:28:18.000Z</time>
      </trkpt>
      <trkpt lat="45.84451" lon="4.65709">
        <ele>364.61493</ele>
        <time>2023-06-04T13:28:19.000Z</time>
      </trkpt>
      <trkpt lat="45.84453" lon="4.65705">
        <ele>364.78217</ele>
        <time>2023-06-04T13:28:20.000Z</time>
      </trkpt>
      <trkpt lat="45.8445" lon="4.65695">
        <ele>364.914</ele>
        <time>2023-06-04T13:28:21.000Z</time>
      </trkpt>
      <trkpt lat="45.84448" lon="4.65691">
        <ele>365.00787</ele>
        <time>2023-06-04T13:28:22.000Z</time>
      </trkpt>
      <trkpt lat="45.84445" lon="4.65686">
        <ele>365.10602</ele>
        <time>2023-06-04T13:28:23.000Z</time>
      </trkpt>
      <trkpt lat="45.84447" lon="4.65682">
        <ele>365.14957</ele>
        <time>2023-06-04T13:28:24.000Z</time>
      </trkpt>
      <trkpt lat="45.84442" lon="4.65675">
        <ele>365.11322</ele>
        <time>2023-06-04T13:28:25.000Z</time>
      </trkpt>
      <trkpt lat="45.84444" lon="4.6567">
        <ele>365.07867</ele>
        <time>2023-06-04T13:28:26.000Z</time>
      </trkpt>
      <trkpt lat="45.84441" lon="4.65667">
        <ele>365.08087</ele>
        <time>2023-06-04T13:28:27.000Z</time>
      </trkpt>
      <trkpt lat="45.84438" lon="4.65663">
        <ele>365.16949</ele>
        <time>2023-06-04T13:28:28.000Z</time>
      </trkpt>
      <trkpt lat="45.84436" lon="4.65656">
        <ele>365.25015</ele>
        <time>2023-06-04T13:28:29.000Z</time>
      </trkpt>
      <trkpt lat="45.84431" lon="4.65649">
        <ele>365.22858</ele>
        <time>2023-06-04T13:28:30.000Z</time>
      </trkpt>
      <trkpt lat="45.84428" lon="4.65644">
        <ele>365.27802</ele>
        <time>2023-06-04T13:28:31.000Z</time>
      </trkpt>
      <trkpt lat="45.84424" lon="4.65637">
        <ele>365.13724</ele>
        <time>2023-06-04T13:28:32.000Z</time>
      </trkpt>
      <trkpt lat="45.84421" lon="4.65631">
        <ele>365.31467</ele>
        <time>2023-06-04T13:28:33.000Z</time>
      </trkpt>
      <trkpt lat="45.84419" lon="4.65625">
        <ele>365.39142</ele>
        <time>2023-06-04T13:28:34.000Z</time>
      </trkpt>
      <trkpt lat="45.84417" lon="4.6562">
        <ele>365.5553</ele>
        <time>2023-06-04T13:28:35.000Z</time>
      </trkpt>
      <trkpt lat="45.84414" lon="4.65616">
        <ele>365.73492</ele>
        <time>2023-06-04T13:28:36.000Z</time>
      </trkpt>
      <trkpt lat="45.8441" lon="4.65611">
        <ele>365.90839</ele>
        <time>2023-06-04T13:28:37.000Z</time>
      </trkpt>
      <trkpt lat="45.84409" lon="4.65603">
        <ele>366.10867</ele>
        <time>2023-06-04T13:28:38.000Z</time>
      </trkpt>
      <trkpt lat="45.84406" lon="4.65597">
        <ele>366.23114</ele>
        <time>2023-06-04T13:28:39.000Z</time>
      </trkpt>
      <trkpt lat="45.84404" lon="4.65594">
        <ele>366.40793</ele>
        <time>2023-06-04T13:28:40.000Z</time>
      </trkpt>
      <trkpt lat="45.84401" lon="4.65588">
        <ele>366.64343</ele>
        <time>2023-06-04T13:28:41.000Z</time>
      </trkpt>
      <trkpt lat="45.844" lon="4.65583">
        <ele>366.98041</ele>
        <time>2023-06-04T13:28:42.000Z</time>
      </trkpt>
      <trkpt lat="45.84396" lon="4.65579">
        <ele>367.31927</ele>
        <time>2023-06-04T13:28:43.000Z</time>
      </trkpt>
      <trkpt lat="45.84395" lon="4.65572">
        <ele>367.69022</ele>
        <time>2023-06-04T13:28:44.000Z</time>
      </trkpt>
      <trkpt lat="45.84394" lon="4.65567">
        <ele>368.14581</ele>
        <time>2023-06-04T13:28:45.000Z</time>
      </trkpt>
      <trkpt lat="45.84392" lon="4.65562">
        <ele>368.60089</ele>
        <time>2023-06-04T13:28:46.000Z</time>
      </trkpt>
      <trkpt lat="45.84393" lon="4.6556">
        <ele>369.07248</ele>
        <time>2023-06-04T13:28:47.000Z</time>
      </trkpt>
      <trkpt lat="45.8439" lon="4.65553">
        <ele>369.47586</ele>
        <time>2023-06-04T13:28:48.000Z</time>
      </trkpt>
      <trkpt lat="45.84388" lon="4.65547">
        <ele>369.85974</ele>
        <time>2023-06-04T13:28:49.000Z</time>
      </trkpt>
      <trkpt lat="45.84385" lon="4.65538">
        <ele>370.27652</ele>
        <time>2023-06-04T13:28:50.000Z</time>
      </trkpt>
      <trkpt lat="45.84384" lon="4.6553">
        <ele>370.6105</ele>
        <time>2023-06-04T13:28:51.000Z</time>
      </trkpt>
      <trkpt lat="45.84383" lon="4.65524">
        <ele>370.93719</ele>
        <time>2023-06-04T13:28:52.000Z</time>
      </trkpt>
      <trkpt lat="45.84378" lon="4.65518">
        <ele>371.3212</ele>
        <time>2023-06-04T13:28:53.000Z</time>
      </trkpt>
      <trkpt lat="45.84381" lon="4.65517">
        <ele>371.66461</ele>
        <time>2023-06-04T13:28:54.000Z</time>
      </trkpt>
      <trkpt lat="45.84379" lon="4.65512">
        <ele>372.02921</ele>
        <time>2023-06-04T13:28:56.000Z</time>
      </trkpt>
      <trkpt lat="45.8438" lon="4.65503">
        <ele>372.38681</ele>
        <time>2023-06-04T13:28:57.000Z</time>
      </trkpt>
      <trkpt lat="45.84376" lon="4.65496">
        <ele>372.7663</ele>
        <time>2023-06-04T13:28:58.000Z</time>
      </trkpt>
      <trkpt lat="45.84374" lon="4.65489">
        <ele>373.08746</ele>
        <time>2023-06-04T13:28:59.000Z</time>
      </trkpt>
      <trkpt lat="45.84375" lon="4.65483">
        <ele>373.48383</ele>
        <time>2023-06-04T13:29:00.000Z</time>
      </trkpt>
      <trkpt lat="45.84372" lon="4.6548">
        <ele>373.8826</ele>
        <time>2023-06-04T13:29:01.000Z</time>
      </trkpt>
      <trkpt lat="45.84373" lon="4.65473">
        <ele>374.21283</ele>
        <time>2023-06-04T13:29:02.000Z</time>
      </trkpt>
      <trkpt lat="45.8437" lon="4.65467">
        <ele>374.49615</ele>
        <time>2023-06-04T13:29:03.000Z</time>
      </trkpt>
      <trkpt lat="45.84368" lon="4.65461">
        <ele>374.90079</ele>
        <time>2023-06-04T13:29:04.000Z</time>
      </trkpt>
      <trkpt lat="45.84368" lon="4.65457">
        <ele>375.24597</ele>
        <time>2023-06-04T13:29:05.000Z</time>
      </trkpt>
      <trkpt lat="45.84368" lon="4.65453">
        <ele>375.57245</ele>
        <time>2023-06-04T13:29:06.000Z</time>
      </trkpt>
      <trkpt lat="45.84367" lon="4.65448">
        <ele>375.88159</ele>
        <time>2023-06-04T13:29:07.000Z</time>
      </trkpt>
      <trkpt lat="45.84363" lon="4.65439">
        <ele>376.15579</ele>
        <time>2023-06-04T13:29:08.000Z</time>
      </trkpt>
      <trkpt lat="45.84364" lon="4.65432">
        <ele>376.40182</ele>
        <time>2023-06-04T13:29:09.000Z</time>
      </trkpt>
      <trkpt lat="45.84363" lon="4.65424">
        <ele>376.62256</ele>
        <time>2023-06-04T13:29:10.000Z</time>
      </trkpt>
      <trkpt lat="45.8436" lon="4.65416">
        <ele>376.82501</ele>
        <time>2023-06-04T13:29:11.000Z</time>
      </trkpt>
      <trkpt lat="45.84357" lon="4.65412">
        <ele>376.98322</ele>
        <time>2023-06-04T13:29:12.000Z</time>
      </trkpt>
      <trkpt lat="45.84355" lon="4.65408">
        <ele>377.14648</ele>
        <time>2023-06-04T13:29:13.000Z</time>
      </trkpt>
      <trkpt lat="45.84354" lon="4.65403">
        <ele>377.29388</ele>
        <time>2023-06-04T13:29:15.000Z</time>
      </trkpt>
      <trkpt lat="45.84357" lon="4.65403">
        <ele>377.44</ele>
        <time>2023-06-04T13:29:16.000Z</time>
      </trkpt>
      <trkpt lat="45.84355" lon="4.65402">
        <ele>377.47574</ele>
        <time>2023-06-04T13:29:17.000Z</time>
      </trkpt>
      <trkpt lat="45.84353" lon="4.65406">
        <ele>377.58649</ele>
        <time>2023-06-04T13:29:19.000Z</time>
      </trkpt>
      <trkpt lat="45.84351" lon="4.65404">
        <ele>377.6925</ele>
        <time>2023-06-04T13:29:20.000Z</time>
      </trkpt>
      <trkpt lat="45.84348" lon="4.65403">
        <ele>377.8515</ele>
        <time>2023-06-04T13:29:21.000Z</time>
      </trkpt>
      <trkpt lat="45.84346" lon="4.65402">
        <ele>377.93097</ele>
        <time>2023-06-04T13:29:22.000Z</time>
      </trkpt>
      <trkpt lat="45.84344" lon="4.65402">
        <ele>378.00656</ele>
        <time>2023-06-04T13:29:23.000Z</time>
      </trkpt>
      <trkpt lat="45.8434" lon="4.65403">
        <ele>378.14572</ele>
        <time>2023-06-04T13:29:24.000Z</time>
      </trkpt>
      <trkpt lat="45.84337" lon="4.65404">
        <ele>378.31558</ele>
        <time>2023-06-04T13:29:25.000Z</time>
      </trkpt>
      <trkpt lat="45.84333" lon="4.65404">
        <ele>378.42462</ele>
        <time>2023-06-04T13:29:26.000Z</time>
      </trkpt>
      <trkpt lat="45.84329" lon="4.65405">
        <ele>378.39398</ele>
        <time>2023-06-04T13:29:27.000Z</time>
      </trkpt>
      <trkpt lat="45.84322" lon="4.65397">
        <ele>378.3233</ele>
        <time>2023-06-04T13:29:28.000Z</time>
      </trkpt>
      <trkpt lat="45.84319" lon="4.654">
        <ele>378.32471</ele>
        <time>2023-06-04T13:29:29.000Z</time>
      </trkpt>
      <trkpt lat="45.84316" lon="4.65404">
        <ele>378.27637</ele>
        <time>2023-06-04T13:29:30.000Z</time>
      </trkpt>
      <trkpt lat="45.84313" lon="4.65404">
        <ele>378.25848</ele>
        <time>2023-06-04T13:29:31.000Z</time>
      </trkpt>
      <trkpt lat="45.8431" lon="4.65396">
        <ele>378.2796</ele>
        <time>2023-06-04T13:29:32.000Z</time>
      </trkpt>
      <trkpt lat="45.84308" lon="4.65393">
        <ele>378.34479</ele>
        <time>2023-06-04T13:29:33.000Z</time>
      </trkpt>
      <trkpt lat="45.84304" lon="4.65393">
        <ele>378.46982</ele>
        <time>2023-06-04T13:29:35.000Z</time>
      </trkpt>
      <trkpt lat="45.843" lon="4.65391">
        <ele>378.6156</ele>
        <time>2023-06-04T13:29:36.000Z</time>
      </trkpt>
      <trkpt lat="45.84295" lon="4.65392">
        <ele>378.74039</ele>
        <time>2023-06-04T13:29:37.000Z</time>
      </trkpt>
      <trkpt lat="45.8429" lon="4.65391">
        <ele>378.89673</ele>
        <time>2023-06-04T13:29:39.000Z</time>
      </trkpt>
      <trkpt lat="45.84288" lon="4.65392">
        <ele>379.08737</ele>
        <time>2023-06-04T13:29:40.000Z</time>
      </trkpt>
      <trkpt lat="45.84284" lon="4.65392">
        <ele>379.21323</ele>
        <time>2023-06-04T13:29:42.000Z</time>
      </trkpt>
      <trkpt lat="45.84281" lon="4.65391">
        <ele>379.32578</ele>
        <time>2023-06-04T13:29:43.000Z</time>
      </trkpt>
      <trkpt lat="45.84277" lon="4.65391">
        <ele>379.37494</ele>
        <time>2023-06-04T13:29:44.000Z</time>
      </trkpt>
      <trkpt lat="45.84274" lon="4.65392">
        <ele>379.46735</ele>
        <time>2023-06-04T13:29:45.000Z</time>
      </trkpt>
      <trkpt lat="45.84272" lon="4.65391">
        <ele>379.59033</ele>
        <time>2023-06-04T13:29:46.000Z</time>
      </trkpt>
      <trkpt lat="45.84269" lon="4.6539">
        <ele>379.7215</ele>
        <time>2023-06-04T13:29:47.000Z</time>
      </trkpt>
      <trkpt lat="45.84265" lon="4.65388">
        <ele>379.87311</ele>
        <time>2023-06-04T13:29:48.000Z</time>
      </trkpt>
      <trkpt lat="45.84262" lon="4.65386">
        <ele>379.90579</ele>
        <time>2023-06-04T13:29:49.000Z</time>
      </trkpt>
      <trkpt lat="45.8426" lon="4.65385">
        <ele>380.06967</ele>
        <time>2023-06-04T13:29:50.000Z</time>
      </trkpt>
      <trkpt lat="45.84256" lon="4.65385">
        <ele>380.20612</ele>
        <time>2023-06-04T13:29:51.000Z</time>
      </trkpt>
      <trkpt lat="45.84252" lon="4.65383">
        <ele>380.26202</ele>
        <time>2023-06-04T13:29:52.000Z</time>
      </trkpt>
      <trkpt lat="45.84247" lon="4.65382">
        <ele>380.35062</ele>
        <time>2023-06-04T13:29:53.000Z</time>
      </trkpt>
      <trkpt lat="45.84243" lon="4.65381">
        <ele>380.46002</ele>
        <time>2023-06-04T13:29:54.000Z</time>
      </trkpt>
      <trkpt lat="45.84239" lon="4.6538">
        <ele>380.53894</ele>
        <time>2023-06-04T13:29:55.000Z</time>
      </trkpt>
      <trkpt lat="45.84231" lon="4.65381">
        <ele>380.57449</ele>
        <time>2023-06-04T13:29:56.000Z</time>
      </trkpt>
      <trkpt lat="45.84228" lon="4.65383">
        <ele>380.55704</ele>
        <time>2023-06-04T13:29:57.000Z</time>
      </trkpt>
      <trkpt lat="45.84218" lon="4.65381">
        <ele>380.53128</ele>
        <time>2023-06-04T13:29:58.000Z</time>
      </trkpt>
      <trkpt lat="45.84213" lon="4.65378">
        <ele>380.48846</ele>
        <time>2023-06-04T13:29:59.000Z</time>
      </trkpt>
      <trkpt lat="45.84206" lon="4.6538">
        <ele>380.39569</ele>
        <time>2023-06-04T13:30:00.000Z</time>
      </trkpt>
      <trkpt lat="45.84204" lon="4.65379">
        <ele>380.30096</ele>
        <time>2023-06-04T13:30:01.000Z</time>
      </trkpt>
      <trkpt lat="45.842" lon="4.65379">
        <ele>380.19818</ele>
        <time>2023-06-04T13:30:02.000Z</time>
      </trkpt>
      <trkpt lat="45.84194" lon="4.65381">
        <ele>380.07489</ele>
        <time>2023-06-04T13:30:03.000Z</time>
      </trkpt>
      <trkpt lat="45.84191" lon="4.65382">
        <ele>379.97736</ele>
        <time>2023-06-04T13:30:04.000Z</time>
      </trkpt>
      <trkpt lat="45.84185" lon="4.65386">
        <ele>379.81268</ele>
        <time>2023-06-04T13:30:05.000Z</time>
      </trkpt>
      <trkpt lat="45.8418" lon="4.65386">
        <ele>379.64655</ele>
        <time>2023-06-04T13:30:06.000Z</time>
      </trkpt>
      <trkpt lat="45.84175" lon="4.65385">
        <ele>379.44562</ele>
        <time>2023-06-04T13:30:07.000Z</time>
      </trkpt>
      <trkpt lat="45.84168" lon="4.65386">
        <ele>378.17609</ele>
        <time>2023-06-04T13:30:08.000Z</time>
      </trkpt>
      <trkpt lat="45.84164" lon="4.65387">
        <ele>376.90652</ele>
        <time>2023-06-04T13:30:09.000Z</time>
      </trkpt>
      <trkpt lat="45.84157" lon="4.65385">
        <ele>375.75525</ele>
        <time>2023-06-04T13:30:10.000Z</time>
      </trkpt>
      <trkpt lat="45.84154" lon="4.6539">
        <ele>374.48685</ele>
        <time>2023-06-04T13:30:11.000Z</time>
      </trkpt>
      <trkpt lat="45.84149" lon="4.65387">
        <ele>373.17615</ele>
        <time>2023-06-04T13:30:12.000Z</time>
      </trkpt>
      <trkpt lat="45.84147" lon="4.6538">
        <ele>371.81171</ele>
        <time>2023-06-04T13:30:13.000Z</time>
      </trkpt>
      <trkpt lat="45.84142" lon="4.65378">
        <ele>370.29376</ele>
        <time>2023-06-04T13:30:14.000Z</time>
      </trkpt>
      <trkpt lat="45.84144" lon="4.65368">
        <ele>370.18985</ele>
        <time>2023-06-04T13:30:15.000Z</time>
      </trkpt>
      <trkpt lat="45.84141" lon="4.65363">
        <ele>370.1235</ele>
        <time>2023-06-04T13:30:16.000Z</time>
      </trkpt>
      <trkpt lat="45.84135" lon="4.65368">
        <ele>368.7757</ele>
        <time>2023-06-04T13:30:19.000Z</time>
      </trkpt>
      <trkpt lat="45.84131" lon="4.65371">
        <ele>367.47714</ele>
        <time>2023-06-04T13:30:20.000Z</time>
      </trkpt>
      <trkpt lat="45.84128" lon="4.65374">
        <ele>366.17938</ele>
        <time>2023-06-04T13:30:21.000Z</time>
      </trkpt>
      <trkpt lat="45.84124" lon="4.65375">
        <ele>364.93518</ele>
        <time>2023-06-04T13:30:22.000Z</time>
      </trkpt>
      <trkpt lat="45.8412" lon="4.65376">
        <ele>364.95563</ele>
        <time>2023-06-04T13:30:23.000Z</time>
      </trkpt>
      <trkpt lat="45.84118" lon="4.65382">
        <ele>364.89035</ele>
        <time>2023-06-04T13:30:24.000Z</time>
      </trkpt>
      <trkpt lat="45.84112" lon="4.65386">
        <ele>364.85165</ele>
        <time>2023-06-04T13:30:25.000Z</time>
      </trkpt>
      <trkpt lat="45.84109" lon="4.6539">
        <ele>364.83554</ele>
        <time>2023-06-04T13:30:26.000Z</time>
      </trkpt>
      <trkpt lat="45.84101" lon="4.65392">
        <ele>364.79208</ele>
        <time>2023-06-04T13:30:27.000Z</time>
      </trkpt>
      <trkpt lat="45.84094" lon="4.65395">
        <ele>364.67126</ele>
        <time>2023-06-04T13:30:28.000Z</time>
      </trkpt>
      <trkpt lat="45.84094" lon="4.65399">
        <ele>364.60077</ele>
        <time>2023-06-04T13:30:29.000Z</time>
      </trkpt>
      <trkpt lat="45.84088" lon="4.65401">
        <ele>365.5462</ele>
        <time>2023-06-04T13:30:30.000Z</time>
      </trkpt>
      <trkpt lat="45.84083" lon="4.65394">
        <ele>366.53632</ele>
        <time>2023-06-04T13:30:31.000Z</time>
      </trkpt>
      <trkpt lat="45.84079" lon="4.65397">
        <ele>367.41959</ele>
        <time>2023-06-04T13:30:32.000Z</time>
      </trkpt>
      <trkpt lat="45.84073" lon="4.65394">
        <ele>368.47104</ele>
        <time>2023-06-04T13:30:33.000Z</time>
      </trkpt>
      <trkpt lat="45.8407" lon="4.65392">
        <ele>369.54712</ele>
        <time>2023-06-04T13:30:34.000Z</time>
      </trkpt>
      <trkpt lat="45.84065" lon="4.65391">
        <ele>370.63974</ele>
        <time>2023-06-04T13:30:35.000Z</time>
      </trkpt>
      <trkpt lat="45.84063" lon="4.65394">
        <ele>371.82889</ele>
        <time>2023-06-04T13:30:36.000Z</time>
      </trkpt>
      <trkpt lat="45.84057" lon="4.65393">
        <ele>371.65961</ele>
        <time>2023-06-04T13:30:37.000Z</time>
      </trkpt>
      <trkpt lat="45.84055" lon="4.65398">
        <ele>371.57867</ele>
        <time>2023-06-04T13:30:38.000Z</time>
      </trkpt>
      <trkpt lat="45.84054" lon="4.65402">
        <ele>372.81201</ele>
        <time>2023-06-04T13:30:39.000Z</time>
      </trkpt>
      <trkpt lat="45.84051" lon="4.654">
        <ele>374.0004</ele>
        <time>2023-06-04T13:30:40.000Z</time>
      </trkpt>
      <trkpt lat="45.84049" lon="4.65396">
        <ele>375.20331</ele>
        <time>2023-06-04T13:30:41.000Z</time>
      </trkpt>
      <trkpt lat="45.84054" lon="4.65387">
        <ele>376.39581</ele>
        <time>2023-06-04T13:30:43.000Z</time>
      </trkpt>
      <trkpt lat="45.84052" lon="4.6538">
        <ele>376.30438</ele>
        <time>2023-06-04T13:30:44.000Z</time>
      </trkpt>
      <trkpt lat="45.84054" lon="4.65377">
        <ele>376.30569</ele>
        <time>2023-06-04T13:30:45.000Z</time>
      </trkpt>
      <trkpt lat="45.84056" lon="4.65373">
        <ele>376.31964</ele>
        <time>2023-06-04T13:30:46.000Z</time>
      </trkpt>
      <trkpt lat="45.84058" lon="4.65371">
        <ele>376.25388</ele>
        <time>2023-06-04T13:30:47.000Z</time>
      </trkpt>
      <trkpt lat="45.84061" lon="4.65369">
        <ele>376.2883</ele>
        <time>2023-06-04T13:30:48.000Z</time>
      </trkpt>
      <trkpt lat="45.84076" lon="4.65377">
        <ele>376.34747</ele>
        <time>2023-06-04T13:30:49.000Z</time>
      </trkpt>
      <trkpt lat="45.84079" lon="4.65374">
        <ele>376.41992</ele>
        <time>2023-06-04T13:30:50.000Z</time>
      </trkpt>
      <trkpt lat="45.84083" lon="4.65371">
        <ele>376.49927</ele>
        <time>2023-06-04T13:30:51.000Z</time>
      </trkpt>
      <trkpt lat="45.84088" lon="4.65372">
        <ele>376.53546</ele>
        <time>2023-06-04T13:30:52.000Z</time>
      </trkpt>
      <trkpt lat="45.8409" lon="4.6537">
        <ele>376.5954</ele>
        <time>2023-06-04T13:30:53.000Z</time>
      </trkpt>
      <trkpt lat="45.84096" lon="4.65369">
        <ele>376.62445</ele>
        <time>2023-06-04T13:30:54.000Z</time>
      </trkpt>
      <trkpt lat="45.84102" lon="4.65369">
        <ele>376.73871</ele>
        <time>2023-06-04T13:30:56.000Z</time>
      </trkpt>
      <trkpt lat="45.84106" lon="4.65364">
        <ele>376.83139</ele>
        <time>2023-06-04T13:30:57.000Z</time>
      </trkpt>
      <trkpt lat="45.84106" lon="4.65359">
        <ele>376.97086</ele>
        <time>2023-06-04T13:30:58.000Z</time>
      </trkpt>
      <trkpt lat="45.8411" lon="4.65354">
        <ele>377.07803</ele>
        <time>2023-06-04T13:30:59.000Z</time>
      </trkpt>
      <trkpt lat="45.84112" lon="4.65351">
        <ele>377.10001</ele>
        <time>2023-06-04T13:31:00.000Z</time>
      </trkpt>
      <trkpt lat="45.84117" lon="4.65348">
        <ele>377.11267</ele>
        <time>2023-06-04T13:31:01.000Z</time>
      </trkpt>
      <trkpt lat="45.84121" lon="4.65347">
        <ele>377.09988</ele>
        <time>2023-06-04T13:31:02.000Z</time>
      </trkpt>
      <trkpt lat="45.84126" lon="4.65347">
        <ele>377.07138</ele>
        <time>2023-06-04T13:31:03.000Z</time>
      </trkpt>
      <trkpt lat="45.84129" lon="4.65344">
        <ele>377.04535</ele>
        <time>2023-06-04T13:31:04.000Z</time>
      </trkpt>
      <trkpt lat="45.84135" lon="4.65341">
        <ele>377.06622</ele>
        <time>2023-06-04T13:31:05.000Z</time>
      </trkpt>
      <trkpt lat="45.84137" lon="4.65338">
        <ele>377.08661</ele>
        <time>2023-06-04T13:31:06.000Z</time>
      </trkpt>
      <trkpt lat="45.84143" lon="4.65336">
        <ele>377.09714</ele>
        <time>2023-06-04T13:31:07.000Z</time>
      </trkpt>
      <trkpt lat="45.84144" lon="4.6533">
        <ele>375.40546</ele>
        <time>2023-06-04T13:31:08.000Z</time>
      </trkpt>
      <trkpt lat="45.84151" lon="4.65328">
        <ele>375.32837</ele>
        <time>2023-06-04T13:31:09.000Z</time>
      </trkpt>
      <trkpt lat="45.84151" lon="4.6532">
        <ele>375.418</ele>
        <time>2023-06-04T13:31:10.000Z</time>
      </trkpt>
      <trkpt lat="45.84151" lon="4.65318">
        <ele>375.47046</ele>
        <time>2023-06-04T13:31:11.000Z</time>
      </trkpt>
      <trkpt lat="45.84145" lon="4.65312">
        <ele>375.37921</ele>
        <time>2023-06-04T13:31:12.000Z</time>
      </trkpt>
      <trkpt lat="45.84141" lon="4.65304">
        <ele>375.32321</ele>
        <time>2023-06-04T13:31:13.000Z</time>
      </trkpt>
      <trkpt lat="45.84136" lon="4.653">
        <ele>375.2626</ele>
        <time>2023-06-04T13:31:14.000Z</time>
      </trkpt>
      <trkpt lat="45.84129" lon="4.65295">
        <ele>375.19598</ele>
        <time>2023-06-04T13:31:15.000Z</time>
      </trkpt>
      <trkpt lat="45.84126" lon="4.65296">
        <ele>375.23294</ele>
        <time>2023-06-04T13:31:16.000Z</time>
      </trkpt>
      <trkpt lat="45.84123" lon="4.65293">
        <ele>375.32111</ele>
        <time>2023-06-04T13:31:17.000Z</time>
      </trkpt>
      <trkpt lat="45.8412" lon="4.65291">
        <ele>375.41412</ele>
        <time>2023-06-04T13:31:18.000Z</time>
      </trkpt>
      <trkpt lat="45.84115" lon="4.65285">
        <ele>375.51212</ele>
        <time>2023-06-04T13:31:19.000Z</time>
      </trkpt>
      <trkpt lat="45.84112" lon="4.65282">
        <ele>375.61246</ele>
        <time>2023-06-04T13:31:20.000Z</time>
      </trkpt>
      <trkpt lat="45.8411" lon="4.65276">
        <ele>375.68561</ele>
        <time>2023-06-04T13:31:21.000Z</time>
      </trkpt>
      <trkpt lat="45.84107" lon="4.6527">
        <ele>375.78769</ele>
        <time>2023-06-04T13:31:22.000Z</time>
      </trkpt>
      <trkpt lat="45.84099" lon="4.65263">
        <ele>375.92218</ele>
        <time>2023-06-04T13:31:23.000Z</time>
      </trkpt>
      <trkpt lat="45.84096" lon="4.65261">
        <ele>375.86475</ele>
        <time>2023-06-04T13:31:24.000Z</time>
      </trkpt>
      <trkpt lat="45.8409" lon="4.65259">
        <ele>375.80573</ele>
        <time>2023-06-04T13:31:25.000Z</time>
      </trkpt>
      <trkpt lat="45.84086" lon="4.65258">
        <ele>375.74268</ele>
        <time>2023-06-04T13:31:26.000Z</time>
      </trkpt>
      <trkpt lat="45.84081" lon="4.65256">
        <ele>374.18442</ele>
        <time>2023-06-04T13:31:27.000Z</time>
      </trkpt>
      <trkpt lat="45.84079" lon="4.65255">
        <ele>374.46088</ele>
        <time>2023-06-04T13:31:28.000Z</time>
      </trkpt>
      <trkpt lat="45.84075" lon="4.65255">
        <ele>373.18546</ele>
        <time>2023-06-04T13:31:29.000Z</time>
      </trkpt>
      <trkpt lat="45.84074" lon="4.65258">
        <ele>373.32214</ele>
        <time>2023-06-04T13:31:31.000Z</time>
      </trkpt>
      <trkpt lat="45.84071" lon="4.65256">
        <ele>373.45255</ele>
        <time>2023-06-04T13:31:32.000Z</time>
      </trkpt>
      <trkpt lat="45.84068" lon="4.65261">
        <ele>373.74573</ele>
        <time>2023-06-04T13:31:33.000Z</time>
      </trkpt>
      <trkpt lat="45.84064" lon="4.65259">
        <ele>374.04755</ele>
        <time>2023-06-04T13:31:34.000Z</time>
      </trkpt>
      <trkpt lat="45.84055" lon="4.65255">
        <ele>374.32269</ele>
        <time>2023-06-04T13:31:35.000Z</time>
      </trkpt>
      <trkpt lat="45.84049" lon="4.65256">
        <ele>374.60791</ele>
        <time>2023-06-04T13:31:36.000Z</time>
      </trkpt>
      <trkpt lat="45.84045" lon="4.65253">
        <ele>374.72195</ele>
        <time>2023-06-04T13:31:37.000Z</time>
      </trkpt>
      <trkpt lat="45.84041" lon="4.65253">
        <ele>374.84915</ele>
        <time>2023-06-04T13:31:38.000Z</time>
      </trkpt>
      <trkpt lat="45.84041" lon="4.65258">
        <ele>374.94342</ele>
        <time>2023-06-04T13:31:39.000Z</time>
      </trkpt>
      <trkpt lat="45.84037" lon="4.65261">
        <ele>375.05963</ele>
        <time>2023-06-04T13:31:40.000Z</time>
      </trkpt>
      <trkpt lat="45.84033" lon="4.65257">
        <ele>375.15671</ele>
        <time>2023-06-04T13:31:41.000Z</time>
      </trkpt>
      <trkpt lat="45.84031" lon="4.65261">
        <ele>375.29233</ele>
        <time>2023-06-04T13:31:42.000Z</time>
      </trkpt>
      <trkpt lat="45.84026" lon="4.65263">
        <ele>375.40585</ele>
        <time>2023-06-04T13:31:43.000Z</time>
      </trkpt>
      <trkpt lat="45.84021" lon="4.65262">
        <ele>375.4964</ele>
        <time>2023-06-04T13:31:44.000Z</time>
      </trkpt>
      <trkpt lat="45.84018" lon="4.65266">
        <ele>375.83112</ele>
        <time>2023-06-04T13:31:45.000Z</time>
      </trkpt>
      <trkpt lat="45.84013" lon="4.65267">
        <ele>376.19403</ele>
        <time>2023-06-04T13:31:46.000Z</time>
      </trkpt>
      <trkpt lat="45.8401" lon="4.65269">
        <ele>376.55112</ele>
        <time>2023-06-04T13:31:47.000Z</time>
      </trkpt>
      <trkpt lat="45.84007" lon="4.65271">
        <ele>378.39548</ele>
        <time>2023-06-04T13:31:48.000Z</time>
      </trkpt>
      <trkpt lat="45.84003" lon="4.65272">
        <ele>380.13745</ele>
        <time>2023-06-04T13:31:49.000Z</time>
      </trkpt>
      <trkpt lat="45.83999" lon="4.65274">
        <ele>381.76138</ele>
        <time>2023-06-04T13:31:50.000Z</time>
      </trkpt>
      <trkpt lat="45.83996" lon="4.65276">
        <ele>381.79095</ele>
        <time>2023-06-04T13:31:51.000Z</time>
      </trkpt>
      <trkpt lat="45.83993" lon="4.65278">
        <ele>381.849</ele>
        <time>2023-06-04T13:31:52.000Z</time>
      </trkpt>
      <trkpt lat="45.8399" lon="4.6528">
        <ele>381.91061</ele>
        <time>2023-06-04T13:31:53.000Z</time>
      </trkpt>
      <trkpt lat="45.83987" lon="4.65281">
        <ele>381.97195</ele>
        <time>2023-06-04T13:31:54.000Z</time>
      </trkpt>
      <trkpt lat="45.83984" lon="4.65282">
        <ele>382.10327</ele>
        <time>2023-06-04T13:31:55.000Z</time>
      </trkpt>
      <trkpt lat="45.8398" lon="4.65283">
        <ele>382.24786</ele>
        <time>2023-06-04T13:31:56.000Z</time>
      </trkpt>
      <trkpt lat="45.83976" lon="4.65283">
        <ele>382.40225</ele>
        <time>2023-06-04T13:31:57.000Z</time>
      </trkpt>
      <trkpt lat="45.83971" lon="4.65284">
        <ele>382.5419</ele>
        <time>2023-06-04T13:31:58.000Z</time>
      </trkpt>
      <trkpt lat="45.83966" lon="4.65284">
        <ele>382.66943</ele>
        <time>2023-06-04T13:31:59.000Z</time>
      </trkpt>
      <trkpt lat="45.83962" lon="4.65285">
        <ele>382.75882</ele>
        <time>2023-06-04T13:32:00.000Z</time>
      </trkpt>
      <trkpt lat="45.83957" lon="4.65286">
        <ele>382.84555</ele>
        <time>2023-06-04T13:32:01.000Z</time>
      </trkpt>
      <trkpt lat="45.83951" lon="4.65286">
        <ele>382.89386</ele>
        <time>2023-06-04T13:32:02.000Z</time>
      </trkpt>
      <trkpt lat="45.83945" lon="4.65285">
        <ele>382.98065</ele>
        <time>2023-06-04T13:32:03.000Z</time>
      </trkpt>
      <trkpt lat="45.83943" lon="4.65279">
        <ele>383.0871</ele>
        <time>2023-06-04T13:32:04.000Z</time>
      </trkpt>
      <trkpt lat="45.83941" lon="4.65274">
        <ele>383.18719</ele>
        <time>2023-06-04T13:32:05.000Z</time>
      </trkpt>
      <trkpt lat="45.83939" lon="4.65269">
        <ele>383.30292</ele>
        <time>2023-06-04T13:32:06.000Z</time>
      </trkpt>
      <trkpt lat="45.83939" lon="4.65264">
        <ele>383.46964</ele>
        <time>2023-06-04T13:32:07.000Z</time>
      </trkpt>
      <trkpt lat="45.83939" lon="4.65258">
        <ele>383.651</ele>
        <time>2023-06-04T13:32:08.000Z</time>
      </trkpt>
      <trkpt lat="45.83939" lon="4.65253">
        <ele>383.82623</ele>
        <time>2023-06-04T13:32:09.000Z</time>
      </trkpt>
      <trkpt lat="45.8394" lon="4.65248">
        <ele>384.01898</ele>
        <time>2023-06-04T13:32:10.000Z</time>
      </trkpt>
      <trkpt lat="45.83939" lon="4.65243">
        <ele>384.22107</ele>
        <time>2023-06-04T13:32:11.000Z</time>
      </trkpt>
      <trkpt lat="45.83939" lon="4.65239">
        <ele>384.43378</ele>
        <time>2023-06-04T13:32:12.000Z</time>
      </trkpt>
      <trkpt lat="45.8394" lon="4.65233">
        <ele>384.62628</ele>
        <time>2023-06-04T13:32:13.000Z</time>
      </trkpt>
      <trkpt lat="45.8394" lon="4.65228">
        <ele>384.80023</ele>
        <time>2023-06-04T13:32:14.000Z</time>
      </trkpt>
      <trkpt lat="45.83941" lon="4.65223">
        <ele>384.9491</ele>
        <time>2023-06-04T13:32:15.000Z</time>
      </trkpt>
      <trkpt lat="45.83941" lon="4.65218">
        <ele>385.09784</ele>
        <time>2023-06-04T13:32:16.000Z</time>
      </trkpt>
      <trkpt lat="45.83942" lon="4.65215">
        <ele>385.24063</ele>
        <time>2023-06-04T13:32:17.000Z</time>
      </trkpt>
      <trkpt lat="45.83942" lon="4.65211">
        <ele>385.41327</ele>
        <time>2023-06-04T13:32:18.000Z</time>
      </trkpt>
      <trkpt lat="45.83941" lon="4.65208">
        <ele>385.62067</ele>
        <time>2023-06-04T13:32:19.000Z</time>
      </trkpt>
      <trkpt lat="45.83941" lon="4.65204">
        <ele>385.82916</ele>
        <time>2023-06-04T13:32:20.000Z</time>
      </trkpt>
      <trkpt lat="45.83941" lon="4.65199">
        <ele>386.06186</ele>
        <time>2023-06-04T13:32:21.000Z</time>
      </trkpt>
      <trkpt lat="45.8394" lon="4.65194">
        <ele>386.36053</ele>
        <time>2023-06-04T13:32:22.000Z</time>
      </trkpt>
      <trkpt lat="45.83939" lon="4.65189">
        <ele>386.58603</ele>
        <time>2023-06-04T13:32:23.000Z</time>
      </trkpt>
      <trkpt lat="45.83939" lon="4.65185">
        <ele>386.8024</ele>
        <time>2023-06-04T13:32:24.000Z</time>
      </trkpt>
      <trkpt lat="45.83938" lon="4.65181">
        <ele>387.01938</ele>
        <time>2023-06-04T13:32:25.000Z</time>
      </trkpt>
      <trkpt lat="45.83937" lon="4.65177">
        <ele>387.19827</ele>
        <time>2023-06-04T13:32:26.000Z</time>
      </trkpt>
      <trkpt lat="45.83932" lon="4.65165">
        <ele>387.34201</ele>
        <time>2023-06-04T13:32:27.000Z</time>
      </trkpt>
      <trkpt lat="45.83931" lon="4.6516">
        <ele>387.5235</ele>
        <time>2023-06-04T13:32:28.000Z</time>
      </trkpt>
      <trkpt lat="45.83929" lon="4.65158">
        <ele>387.69992</ele>
        <time>2023-06-04T13:32:29.000Z</time>
      </trkpt>
      <trkpt lat="45.83931" lon="4.65158">
        <ele>387.85715</ele>
        <time>2023-06-04T13:32:30.000Z</time>
      </trkpt>
      <trkpt lat="45.83932" lon="4.65153">
        <ele>387.99753</ele>
        <time>2023-06-04T13:32:31.000Z</time>
      </trkpt>
      <trkpt lat="45.83933" lon="4.65149">
        <ele>388.15009</ele>
        <time>2023-06-04T13:32:32.000Z</time>
      </trkpt>
      <trkpt lat="45.83933" lon="4.65145">
        <ele>388.35434</ele>
        <time>2023-06-04T13:32:33.000Z</time>
      </trkpt>
      <trkpt lat="45.83931" lon="4.65139">
        <ele>388.58069</ele>
        <time>2023-06-04T13:32:34.000Z</time>
      </trkpt>
      <trkpt lat="45.83929" lon="4.65135">
        <ele>388.77899</ele>
        <time>2023-06-04T13:32:35.000Z</time>
      </trkpt>
      <trkpt lat="45.8393" lon="4.65136">
        <ele>388.94876</ele>
        <time>2023-06-04T13:32:36.000Z</time>
      </trkpt>
      <trkpt lat="45.83929" lon="4.65127">
        <ele>389.10419</ele>
        <time>2023-06-04T13:32:37.000Z</time>
      </trkpt>
      <trkpt lat="45.83927" lon="4.65121">
        <ele>389.2149</ele>
        <time>2023-06-04T13:32:38.000Z</time>
      </trkpt>
      <trkpt lat="45.83926" lon="4.65117">
        <ele>389.32367</ele>
        <time>2023-06-04T13:32:39.000Z</time>
      </trkpt>
      <trkpt lat="45.83924" lon="4.65113">
        <ele>389.44049</ele>
        <time>2023-06-04T13:32:40.000Z</time>
      </trkpt>
      <trkpt lat="45.83922" lon="4.65109">
        <ele>389.40192</ele>
        <time>2023-06-04T13:32:41.000Z</time>
      </trkpt>
      <trkpt lat="45.83921" lon="4.65106">
        <ele>389.35745</ele>
        <time>2023-06-04T13:32:42.000Z</time>
      </trkpt>
      <trkpt lat="45.8392" lon="4.65102">
        <ele>389.3313</ele>
        <time>2023-06-04T13:32:43.000Z</time>
      </trkpt>
      <trkpt lat="45.83918" lon="4.65099">
        <ele>389.27454</ele>
        <time>2023-06-04T13:32:44.000Z</time>
      </trkpt>
      <trkpt lat="45.83917" lon="4.65096">
        <ele>389.10272</ele>
        <time>2023-06-04T13:32:45.000Z</time>
      </trkpt>
      <trkpt lat="45.83914" lon="4.65092">
        <ele>389.02802</ele>
        <time>2023-06-04T13:32:46.000Z</time>
      </trkpt>
      <trkpt lat="45.83908" lon="4.65084">
        <ele>388.96506</ele>
        <time>2023-06-04T13:32:47.000Z</time>
      </trkpt>
      <trkpt lat="45.83911" lon="4.65085">
        <ele>388.84796</ele>
        <time>2023-06-04T13:32:48.000Z</time>
      </trkpt>
      <trkpt lat="45.83912" lon="4.65079">
        <ele>388.67642</ele>
        <time>2023-06-04T13:32:49.000Z</time>
      </trkpt>
      <trkpt lat="45.83916" lon="4.65077">
        <ele>388.52155</ele>
        <time>2023-06-04T13:32:50.000Z</time>
      </trkpt>
      <trkpt lat="45.83916" lon="4.65074">
        <ele>388.42728</ele>
        <time>2023-06-04T13:32:52.000Z</time>
      </trkpt>
      <trkpt lat="45.83914" lon="4.65074">
        <ele>388.34552</ele>
        <time>2023-06-04T13:32:56.000Z</time>
      </trkpt>
      <trkpt lat="45.83917" lon="4.65083">
        <ele>388.23236</ele>
        <time>2023-06-04T13:32:57.000Z</time>
      </trkpt>
      <trkpt lat="45.83919" lon="4.65087">
        <ele>388.15262</ele>
        <time>2023-06-04T13:32:58.000Z</time>
      </trkpt>
      <trkpt lat="45.83921" lon="4.65092">
        <ele>388.19785</ele>
        <time>2023-06-04T13:32:59.000Z</time>
      </trkpt>
      <trkpt lat="45.83923" lon="4.65098">
        <ele>388.2525</ele>
        <time>2023-06-04T13:33:00.000Z</time>
      </trkpt>
      <trkpt lat="45.83924" lon="4.65104">
        <ele>388.33185</ele>
        <time>2023-06-04T13:33:01.000Z</time>
      </trkpt>
      <trkpt lat="45.83927" lon="4.65116">
        <ele>388.46216</ele>
        <time>2023-06-04T13:33:02.000Z</time>
      </trkpt>
      <trkpt lat="45.83932" lon="4.65129">
        <ele>388.58786</ele>
        <time>2023-06-04T13:33:03.000Z</time>
      </trkpt>
      <trkpt lat="45.83933" lon="4.65133">
        <ele>388.68155</ele>
        <time>2023-06-04T13:33:04.000Z</time>
      </trkpt>
      <trkpt lat="45.83927" lon="4.65141">
        <ele>388.87433</ele>
        <time>2023-06-04T13:33:06.000Z</time>
      </trkpt>
      <trkpt lat="45.83922" lon="4.65147">
        <ele>389.01178</ele>
        <time>2023-06-04T13:33:07.000Z</time>
      </trkpt>
      <trkpt lat="45.83919" lon="4.65149">
        <ele>389.13712</ele>
        <time>2023-06-04T13:33:08.000Z</time>
      </trkpt>
      <trkpt lat="45.83913" lon="4.65154">
        <ele>389.29678</ele>
        <time>2023-06-04T13:33:09.000Z</time>
      </trkpt>
      <trkpt lat="45.83904" lon="4.6515">
        <ele>389.48056</ele>
        <time>2023-06-04T13:33:10.000Z</time>
      </trkpt>
      <trkpt lat="45.83897" lon="4.6515">
        <ele>389.61679</ele>
        <time>2023-06-04T13:33:11.000Z</time>
      </trkpt>
      <trkpt lat="45.83893" lon="4.65153">
        <ele>389.57654</ele>
        <time>2023-06-04T13:33:12.000Z</time>
      </trkpt>
      <trkpt lat="45.83888" lon="4.65152">
        <ele>389.5665</ele>
        <time>2023-06-04T13:33:13.000Z</time>
      </trkpt>
      <trkpt lat="45.83885" lon="4.65155">
        <ele>389.60382</ele>
        <time>2023-06-04T13:33:14.000Z</time>
      </trkpt>
      <trkpt lat="45.8388" lon="4.65156">
        <ele>389.65982</ele>
        <time>2023-06-04T13:33:15.000Z</time>
      </trkpt>
      <trkpt lat="45.83872" lon="4.65155">
        <ele>389.77814</ele>
        <time>2023-06-04T13:33:16.000Z</time>
      </trkpt>
      <trkpt lat="45.83865" lon="4.65155">
        <ele>389.74658</ele>
        <time>2023-06-04T13:33:17.000Z</time>
      </trkpt>
      <trkpt lat="45.83862" lon="4.65155">
        <ele>389.65277</ele>
        <time>2023-06-04T13:33:18.000Z</time>
      </trkpt>
      <trkpt lat="45.83861" lon="4.65159">
        <ele>389.49066</ele>
        <time>2023-06-04T13:33:19.000Z</time>
      </trkpt>
      <trkpt lat="45.83855" lon="4.65158">
        <ele>389.20535</ele>
        <time>2023-06-04T13:33:20.000Z</time>
      </trkpt>
      <trkpt lat="45.83851" lon="4.6516">
        <ele>388.91092</ele>
        <time>2023-06-04T13:33:21.000Z</time>
      </trkpt>
      <trkpt lat="45.83848" lon="4.6516">
        <ele>388.61923</ele>
        <time>2023-06-04T13:33:22.000Z</time>
      </trkpt>
      <trkpt lat="45.83844" lon="4.65163">
        <ele>388.30792</ele>
        <time>2023-06-04T13:33:23.000Z</time>
      </trkpt>
      <trkpt lat="45.83838" lon="4.65165">
        <ele>387.99323</ele>
        <time>2023-06-04T13:33:24.000Z</time>
      </trkpt>
      <trkpt lat="45.83833" lon="4.65164">
        <ele>387.70941</ele>
        <time>2023-06-04T13:33:25.000Z</time>
      </trkpt>
      <trkpt lat="45.83826" lon="4.65166">
        <ele>387.47266</ele>
        <time>2023-06-04T13:33:26.000Z</time>
      </trkpt>
      <trkpt lat="45.8382" lon="4.65165">
        <ele>387.26578</ele>
        <time>2023-06-04T13:33:27.000Z</time>
      </trkpt>
      <trkpt lat="45.83815" lon="4.65166">
        <ele>387.09805</ele>
        <time>2023-06-04T13:33:28.000Z</time>
      </trkpt>
      <trkpt lat="45.83809" lon="4.65165">
        <ele>386.95624</ele>
        <time>2023-06-04T13:33:29.000Z</time>
      </trkpt>
      <trkpt lat="45.83802" lon="4.65165">
        <ele>386.84961</ele>
        <time>2023-06-04T13:33:30.000Z</time>
      </trkpt>
      <trkpt lat="45.83796" lon="4.65166">
        <ele>386.6824</ele>
        <time>2023-06-04T13:33:31.000Z</time>
      </trkpt>
      <trkpt lat="45.83794" lon="4.6517">
        <ele>386.68573</ele>
        <time>2023-06-04T13:33:32.000Z</time>
      </trkpt>
      <trkpt lat="45.8379" lon="4.6517">
        <ele>386.64154</ele>
        <time>2023-06-04T13:33:33.000Z</time>
      </trkpt>
      <trkpt lat="45.83785" lon="4.65171">
        <ele>386.63519</ele>
        <time>2023-06-04T13:33:34.000Z</time>
      </trkpt>
      <trkpt lat="45.8378" lon="4.65172">
        <ele>386.62573</ele>
        <time>2023-06-04T13:33:35.000Z</time>
      </trkpt>
      <trkpt lat="45.83777" lon="4.65173">
        <ele>386.5257</ele>
        <time>2023-06-04T13:33:36.000Z</time>
      </trkpt>
      <trkpt lat="45.83773" lon="4.65174">
        <ele>386.51776</ele>
        <time>2023-06-04T13:33:37.000Z</time>
      </trkpt>
      <trkpt lat="45.83772" lon="4.65179">
        <ele>386.56937</ele>
        <time>2023-06-04T13:33:38.000Z</time>
      </trkpt>
      <trkpt lat="45.83767" lon="4.65178">
        <ele>386.63599</ele>
        <time>2023-06-04T13:33:39.000Z</time>
      </trkpt>
      <trkpt lat="45.83763" lon="4.65177">
        <ele>386.70941</ele>
        <time>2023-06-04T13:33:40.000Z</time>
      </trkpt>
      <trkpt lat="45.83759" lon="4.6518">
        <ele>386.79474</ele>
        <time>2023-06-04T13:33:41.000Z</time>
      </trkpt>
      <trkpt lat="45.83757" lon="4.65181">
        <ele>386.8663</ele>
        <time>2023-06-04T13:33:42.000Z</time>
      </trkpt>
      <trkpt lat="45.83751" lon="4.65177">
        <ele>386.92566</ele>
        <time>2023-06-04T13:33:43.000Z</time>
      </trkpt>
      <trkpt lat="45.83751" lon="4.6518">
        <ele>386.95279</ele>
        <time>2023-06-04T13:33:44.000Z</time>
      </trkpt>
      <trkpt lat="45.83747" lon="4.6518">
        <ele>386.98883</ele>
        <time>2023-06-04T13:33:45.000Z</time>
      </trkpt>
      <trkpt lat="45.83744" lon="4.65181">
        <ele>387.03305</ele>
        <time>2023-06-04T13:33:46.000Z</time>
      </trkpt>
      <trkpt lat="45.83741" lon="4.65181">
        <ele>387.07758</ele>
        <time>2023-06-04T13:33:47.000Z</time>
      </trkpt>
      <trkpt lat="45.83739" lon="4.65183">
        <ele>387.20111</ele>
        <time>2023-06-04T13:33:49.000Z</time>
      </trkpt>
      <trkpt lat="45.83737" lon="4.65184">
        <ele>387.29874</ele>
        <time>2023-06-04T13:33:50.000Z</time>
      </trkpt>
      <trkpt lat="45.83734" lon="4.65185">
        <ele>387.39499</ele>
        <time>2023-06-04T13:33:51.000Z</time>
      </trkpt>
      <trkpt lat="45.83731" lon="4.65185">
        <ele>387.55194</ele>
        <time>2023-06-04T13:33:52.000Z</time>
      </trkpt>
      <trkpt lat="45.83727" lon="4.65185">
        <ele>387.69614</ele>
        <time>2023-06-04T13:33:53.000Z</time>
      </trkpt>
      <trkpt lat="45.83722" lon="4.65185">
        <ele>387.87457</ele>
        <time>2023-06-04T13:33:54.000Z</time>
      </trkpt>
      <trkpt lat="45.83717" lon="4.65184">
        <ele>388.02914</ele>
        <time>2023-06-04T13:33:55.000Z</time>
      </trkpt>
      <trkpt lat="45.83714" lon="4.65184">
        <ele>388.19507</ele>
        <time>2023-06-04T13:33:56.000Z</time>
      </trkpt>
      <trkpt lat="45.8371" lon="4.65183">
        <ele>388.32782</ele>
        <time>2023-06-04T13:33:57.000Z</time>
      </trkpt>
      <trkpt lat="45.83706" lon="4.65182">
        <ele>388.53067</ele>
        <time>2023-06-04T13:33:58.000Z</time>
      </trkpt>
      <trkpt lat="45.83704" lon="4.6518">
        <ele>388.74936</ele>
        <time>2023-06-04T13:33:59.000Z</time>
      </trkpt>
      <trkpt lat="45.83703" lon="4.65176">
        <ele>388.99133</ele>
        <time>2023-06-04T13:34:00.000Z</time>
      </trkpt>
      <trkpt lat="45.83704" lon="4.6517">
        <ele>389.24799</ele>
        <time>2023-06-04T13:34:01.000Z</time>
      </trkpt>
      <trkpt lat="45.83706" lon="4.65165">
        <ele>389.50192</ele>
        <time>2023-06-04T13:34:02.000Z</time>
      </trkpt>
      <trkpt lat="45.83708" lon="4.65159">
        <ele>389.75095</ele>
        <time>2023-06-04T13:34:03.000Z</time>
      </trkpt>
      <trkpt lat="45.83709" lon="4.65155">
        <ele>389.97705</ele>
        <time>2023-06-04T13:34:04.000Z</time>
      </trkpt>
      <trkpt lat="45.8371" lon="4.6515">
        <ele>390.22455</ele>
        <time>2023-06-04T13:34:05.000Z</time>
      </trkpt>
      <trkpt lat="45.83712" lon="4.65143">
        <ele>390.45041</ele>
        <time>2023-06-04T13:34:06.000Z</time>
      </trkpt>
      <trkpt lat="45.83713" lon="4.65136">
        <ele>390.68402</ele>
        <time>2023-06-04T13:34:07.000Z</time>
      </trkpt>
      <trkpt lat="45.83713" lon="4.65132">
        <ele>390.91345</ele>
        <time>2023-06-04T13:34:08.000Z</time>
      </trkpt>
      <trkpt lat="45.83713" lon="4.65128">
        <ele>391.07251</ele>
        <time>2023-06-04T13:34:09.000Z</time>
      </trkpt>
      <trkpt lat="45.83713" lon="4.65125">
        <ele>391.24161</ele>
        <time>2023-06-04T13:34:10.000Z</time>
      </trkpt>
      <trkpt lat="45.83713" lon="4.6512">
        <ele>391.44089</ele>
        <time>2023-06-04T13:34:11.000Z</time>
      </trkpt>
      <trkpt lat="45.83713" lon="4.65115">
        <ele>391.61499</ele>
        <time>2023-06-04T13:34:12.000Z</time>
      </trkpt>
      <trkpt lat="45.83715" lon="4.6511">
        <ele>391.83029</ele>
        <time>2023-06-04T13:34:13.000Z</time>
      </trkpt>
      <trkpt lat="45.83716" lon="4.65105">
        <ele>392.04706</ele>
        <time>2023-06-04T13:34:14.000Z</time>
      </trkpt>
      <trkpt lat="45.83718" lon="4.65101">
        <ele>392.25763</ele>
        <time>2023-06-04T13:34:15.000Z</time>
      </trkpt>
      <trkpt lat="45.83719" lon="4.65098">
        <ele>392.29657</ele>
        <time>2023-06-04T13:34:16.000Z</time>
      </trkpt>
      <trkpt lat="45.8372" lon="4.65093">
        <ele>392.32489</ele>
        <time>2023-06-04T13:34:17.000Z</time>
      </trkpt>
      <trkpt lat="45.8372" lon="4.65087">
        <ele>392.32904</ele>
        <time>2023-06-04T13:34:18.000Z</time>
      </trkpt>
      <trkpt lat="45.83721" lon="4.65081">
        <ele>392.31418</ele>
        <time>2023-06-04T13:34:19.000Z</time>
      </trkpt>
      <trkpt lat="45.83722" lon="4.65076">
        <ele>392.28107</ele>
        <time>2023-06-04T13:34:20.000Z</time>
      </trkpt>
      <trkpt lat="45.83722" lon="4.65071">
        <ele>392.24643</ele>
        <time>2023-06-04T13:34:21.000Z</time>
      </trkpt>
      <trkpt lat="45.83723" lon="4.65065">
        <ele>392.16843</ele>
        <time>2023-06-04T13:34:22.000Z</time>
      </trkpt>
      <trkpt lat="45.83723" lon="4.6506">
        <ele>392.08731</ele>
        <time>2023-06-04T13:34:23.000Z</time>
      </trkpt>
      <trkpt lat="45.83723" lon="4.65054">
        <ele>392.06494</ele>
        <time>2023-06-04T13:34:24.000Z</time>
      </trkpt>
      <trkpt lat="45.83722" lon="4.65049">
        <ele>392.04297</ele>
        <time>2023-06-04T13:34:25.000Z</time>
      </trkpt>
      <trkpt lat="45.83721" lon="4.65046">
        <ele>392.04556</ele>
        <time>2023-06-04T13:34:26.000Z</time>
      </trkpt>
      <trkpt lat="45.83721" lon="4.6504">
        <ele>392.00262</ele>
        <time>2023-06-04T13:34:28.000Z</time>
      </trkpt>
      <trkpt lat="45.83721" lon="4.65036">
        <ele>391.90311</ele>
        <time>2023-06-04T13:34:29.000Z</time>
      </trkpt>
      <trkpt lat="45.83722" lon="4.65033">
        <ele>391.79791</ele>
        <time>2023-06-04T13:34:30.000Z</time>
      </trkpt>
      <trkpt lat="45.83722" lon="4.6503">
        <ele>391.66919</ele>
        <time>2023-06-04T13:34:31.000Z</time>
      </trkpt>
      <trkpt lat="45.83723" lon="4.65026">
        <ele>391.5517</ele>
        <time>2023-06-04T13:34:32.000Z</time>
      </trkpt>
      <trkpt lat="45.83723" lon="4.65022">
        <ele>391.40079</ele>
        <time>2023-06-04T13:34:33.000Z</time>
      </trkpt>
      <trkpt lat="45.83723" lon="4.65017">
        <ele>391.24078</ele>
        <time>2023-06-04T13:34:34.000Z</time>
      </trkpt>
      <trkpt lat="45.83724" lon="4.65011">
        <ele>391.09399</ele>
        <time>2023-06-04T13:34:35.000Z</time>
      </trkpt>
      <trkpt lat="45.83724" lon="4.65007">
        <ele>390.95801</ele>
        <time>2023-06-04T13:34:36.000Z</time>
      </trkpt>
      <trkpt lat="45.83723" lon="4.65002">
        <ele>390.99933</ele>
        <time>2023-06-04T13:34:37.000Z</time>
      </trkpt>
      <trkpt lat="45.83722" lon="4.64997">
        <ele>391.12994</ele>
        <time>2023-06-04T13:34:38.000Z</time>
      </trkpt>
      <trkpt lat="45.83721" lon="4.64991">
        <ele>391.21548</ele>
        <time>2023-06-04T13:34:39.000Z</time>
      </trkpt>
      <trkpt lat="45.83721" lon="4.64987">
        <ele>391.30133</ele>
        <time>2023-06-04T13:34:40.000Z</time>
      </trkpt>
      <trkpt lat="45.83722" lon="4.64985">
        <ele>391.32996</ele>
        <time>2023-06-04T13:34:41.000Z</time>
      </trkpt>
      <trkpt lat="45.83723" lon="4.64982">
        <ele>391.36676</ele>
        <time>2023-06-04T13:34:42.000Z</time>
      </trkpt>
      <trkpt lat="45.83724" lon="4.64979">
        <ele>391.46344</ele>
        <time>2023-06-04T13:34:43.000Z</time>
      </trkpt>
      <trkpt lat="45.83725" lon="4.64976">
        <ele>391.61053</ele>
        <time>2023-06-04T13:34:44.000Z</time>
      </trkpt>
      <trkpt lat="45.83725" lon="4.64973">
        <ele>391.79449</ele>
        <time>2023-06-04T13:34:45.000Z</time>
      </trkpt>
      <trkpt lat="45.83725" lon="4.64968">
        <ele>392.03116</ele>
        <time>2023-06-04T13:34:46.000Z</time>
      </trkpt>
      <trkpt lat="45.83724" lon="4.64961">
        <ele>392.2269</ele>
        <time>2023-06-04T13:34:47.000Z</time>
      </trkpt>
      <trkpt lat="45.83723" lon="4.64955">
        <ele>392.42511</ele>
        <time>2023-06-04T13:34:48.000Z</time>
      </trkpt>
      <trkpt lat="45.83724" lon="4.6495">
        <ele>392.66898</ele>
        <time>2023-06-04T13:34:49.000Z</time>
      </trkpt>
      <trkpt lat="45.83725" lon="4.64946">
        <ele>392.94571</ele>
        <time>2023-06-04T13:34:50.000Z</time>
      </trkpt>
      <trkpt lat="45.83727" lon="4.64943">
        <ele>393.19183</ele>
        <time>2023-06-04T13:34:51.000Z</time>
      </trkpt>
      <trkpt lat="45.83728" lon="4.6494">
        <ele>393.48111</ele>
        <time>2023-06-04T13:34:52.000Z</time>
      </trkpt>
      <trkpt lat="45.8373" lon="4.64937">
        <ele>393.78333</ele>
        <time>2023-06-04T13:34:53.000Z</time>
      </trkpt>
      <trkpt lat="45.8373" lon="4.64933">
        <ele>394.00018</ele>
        <time>2023-06-04T13:34:54.000Z</time>
      </trkpt>
      <trkpt lat="45.83731" lon="4.64928">
        <ele>394.16287</ele>
        <time>2023-06-04T13:34:55.000Z</time>
      </trkpt>
      <trkpt lat="45.83731" lon="4.64924">
        <ele>394.24042</ele>
        <time>2023-06-04T13:34:56.000Z</time>
      </trkpt>
      <trkpt lat="45.83732" lon="4.64921">
        <ele>394.25757</ele>
        <time>2023-06-04T13:34:57.000Z</time>
      </trkpt>
      <trkpt lat="45.83733" lon="4.64918">
        <ele>394.19913</ele>
        <time>2023-06-04T13:34:58.000Z</time>
      </trkpt>
      <trkpt lat="45.83734" lon="4.64915">
        <ele>394.12949</ele>
        <time>2023-06-04T13:34:59.000Z</time>
      </trkpt>
      <trkpt lat="45.83734" lon="4.64912">
        <ele>394.03543</ele>
        <time>2023-06-04T13:35:00.000Z</time>
      </trkpt>
      <trkpt lat="45.83737" lon="4.64906">
        <ele>394.02884</ele>
        <time>2023-06-04T13:35:02.000Z</time>
      </trkpt>
      <trkpt lat="45.83739" lon="4.64901">
        <ele>394.05899</ele>
        <time>2023-06-04T13:35:03.000Z</time>
      </trkpt>
      <trkpt lat="45.83741" lon="4.64898">
        <ele>394.09961</ele>
        <time>2023-06-04T13:35:04.000Z</time>
      </trkpt>
      <trkpt lat="45.83743" lon="4.64895">
        <ele>394.1203</ele>
        <time>2023-06-04T13:35:05.000Z</time>
      </trkpt>
      <trkpt lat="45.83745" lon="4.64892">
        <ele>394.01373</ele>
        <time>2023-06-04T13:35:06.000Z</time>
      </trkpt>
      <trkpt lat="45.83747" lon="4.64889">
        <ele>393.84589</ele>
        <time>2023-06-04T13:35:07.000Z</time>
      </trkpt>
      <trkpt lat="45.83748" lon="4.64886">
        <ele>393.71964</ele>
        <time>2023-06-04T13:35:08.000Z</time>
      </trkpt>
      <trkpt lat="45.83749" lon="4.64883">
        <ele>393.63849</ele>
        <time>2023-06-04T13:35:09.000Z</time>
      </trkpt>
      <trkpt lat="45.83749" lon="4.64879">
        <ele>393.55746</ele>
        <time>2023-06-04T13:35:10.000Z</time>
      </trkpt>
      <trkpt lat="45.8375" lon="4.64875">
        <ele>393.43668</ele>
        <time>2023-06-04T13:35:11.000Z</time>
      </trkpt>
      <trkpt lat="45.8375" lon="4.64872">
        <ele>393.37396</ele>
        <time>2023-06-04T13:35:12.000Z</time>
      </trkpt>
      <trkpt lat="45.83751" lon="4.6487">
        <ele>393.27191</ele>
        <time>2023-06-04T13:35:13.000Z</time>
      </trkpt>
      <trkpt lat="45.83753" lon="4.64867">
        <ele>393.19196</ele>
        <time>2023-06-04T13:35:14.000Z</time>
      </trkpt>
      <trkpt lat="45.83756" lon="4.64863">
        <ele>393.1554</ele>
        <time>2023-06-04T13:35:15.000Z</time>
      </trkpt>
      <trkpt lat="45.83758" lon="4.6486">
        <ele>393.19092</ele>
        <time>2023-06-04T13:35:16.000Z</time>
      </trkpt>
      <trkpt lat="45.8376" lon="4.64858">
        <ele>393.33197</ele>
        <time>2023-06-04T13:35:17.000Z</time>
      </trkpt>
      <trkpt lat="45.83761" lon="4.64856">
        <ele>393.52951</ele>
        <time>2023-06-04T13:35:18.000Z</time>
      </trkpt>
      <trkpt lat="45.83763" lon="4.64853">
        <ele>393.79865</ele>
        <time>2023-06-04T13:35:19.000Z</time>
      </trkpt>
      <trkpt lat="45.83765" lon="4.64851">
        <ele>394.13718</ele>
        <time>2023-06-04T13:35:20.000Z</time>
      </trkpt>
      <trkpt lat="45.83768" lon="4.64849">
        <ele>394.46857</ele>
        <time>2023-06-04T13:35:21.000Z</time>
      </trkpt>
      <trkpt lat="45.8377" lon="4.64848">
        <ele>394.7901</ele>
        <time>2023-06-04T13:35:22.000Z</time>
      </trkpt>
      <trkpt lat="45.83773" lon="4.64849">
        <ele>394.91302</ele>
        <time>2023-06-04T13:35:23.000Z</time>
      </trkpt>
      <trkpt lat="45.83775" lon="4.64848">
        <ele>395.02231</ele>
        <time>2023-06-04T13:35:24.000Z</time>
      </trkpt>
      <trkpt lat="45.83777" lon="4.64847">
        <ele>395.22192</ele>
        <time>2023-06-04T13:35:26.000Z</time>
      </trkpt>
      <trkpt lat="45.83779" lon="4.64846">
        <ele>395.24591</ele>
        <time>2023-06-04T13:35:30.000Z</time>
      </trkpt>
      <trkpt lat="45.83782" lon="4.6485">
        <ele>395.57379</ele>
        <time>2023-06-04T13:35:33.000Z</time>
      </trkpt>
      <trkpt lat="45.83784" lon="4.64851">
        <ele>395.87311</ele>
        <time>2023-06-04T13:35:34.000Z</time>
      </trkpt>
      <trkpt lat="45.83786" lon="4.64853">
        <ele>396.13574</ele>
        <time>2023-06-04T13:35:35.000Z</time>
      </trkpt>
      <trkpt lat="45.83788" lon="4.64855">
        <ele>396.34497</ele>
        <time>2023-06-04T13:35:37.000Z</time>
      </trkpt>
      <trkpt lat="45.83785" lon="4.64855">
        <ele>396.40738</ele>
        <time>2023-06-04T13:35:41.000Z</time>
      </trkpt>
      <trkpt lat="45.83783" lon="4.64852">
        <ele>396.39508</ele>
        <time>2023-06-04T13:35:51.000Z</time>
      </trkpt>
      <trkpt lat="45.8378" lon="4.64851">
        <ele>396.36673</ele>
        <time>2023-06-04T13:35:52.000Z</time>
      </trkpt>
      <trkpt lat="45.83781" lon="4.64856">
        <ele>396.37054</ele>
        <time>2023-06-04T13:35:57.000Z</time>
      </trkpt>
      <trkpt lat="45.83782" lon="4.64858">
        <ele>396.30469</ele>
        <time>2023-06-04T13:35:58.000Z</time>
      </trkpt>
      <trkpt lat="45.83784" lon="4.6486">
        <ele>396.49692</ele>
        <time>2023-06-04T13:36:00.000Z</time>
      </trkpt>
      <trkpt lat="45.83786" lon="4.64861">
        <ele>396.70212</ele>
        <time>2023-06-04T13:36:02.000Z</time>
      </trkpt>
      <trkpt lat="45.83785" lon="4.64859">
        <ele>396.60333</ele>
        <time>2023-06-04T13:36:04.000Z</time>
      </trkpt>
      <trkpt lat="45.83785" lon="4.64855">
        <ele>396.64056</ele>
        <time>2023-06-04T13:36:06.000Z</time>
      </trkpt>
      <trkpt lat="45.83784" lon="4.64853">
        <ele>396.49432</ele>
        <time>2023-06-04T13:36:09.000Z</time>
      </trkpt>
      <trkpt lat="45.83785" lon="4.6485">
        <ele>396.2626</ele>
        <time>2023-06-04T13:36:11.000Z</time>
      </trkpt>
      <trkpt lat="45.83785" lon="4.64847">
        <ele>396.53888</ele>
        <time>2023-06-04T13:36:15.000Z</time>
      </trkpt>
      <trkpt lat="45.83787" lon="4.64846">
        <ele>396.73444</ele>
        <time>2023-06-04T13:36:20.000Z</time>
      </trkpt>
      <trkpt lat="45.83789" lon="4.64846">
        <ele>397.00711</ele>
        <time>2023-06-04T13:36:22.000Z</time>
      </trkpt>
      <trkpt lat="45.83792" lon="4.64846">
        <ele>397.23001</ele>
        <time>2023-06-04T13:36:24.000Z</time>
      </trkpt>
      <trkpt lat="45.83794" lon="4.64847">
        <ele>397.6893</ele>
        <time>2023-06-04T13:36:26.000Z</time>
      </trkpt>
      <trkpt lat="45.83792" lon="4.64846">
        <ele>397.5325</ele>
        <time>2023-06-04T13:36:29.000Z</time>
      </trkpt>
      <trkpt lat="45.83794" lon="4.6485">
        <ele>397.55292</ele>
        <time>2023-06-04T13:36:35.000Z</time>
      </trkpt>
      <trkpt lat="45.83795" lon="4.64853">
        <ele>397.72491</ele>
        <time>2023-06-04T13:36:37.000Z</time>
      </trkpt>
      <trkpt lat="45.83795" lon="4.6485">
        <ele>397.78668</ele>
        <time>2023-06-04T13:36:39.000Z</time>
      </trkpt>
      <trkpt lat="45.83795" lon="4.64846">
        <ele>397.90799</ele>
        <time>2023-06-04T13:36:40.000Z</time>
      </trkpt>
      <trkpt lat="45.83796" lon="4.64842">
        <ele>397.83176</ele>
        <time>2023-06-04T13:36:41.000Z</time>
      </trkpt>
      <trkpt lat="45.83794" lon="4.64841">
        <ele>397.77631</ele>
        <time>2023-06-04T13:36:47.000Z</time>
      </trkpt>
      <trkpt lat="45.83794" lon="4.64844">
        <ele>397.47391</ele>
        <time>2023-06-04T13:36:51.000Z</time>
      </trkpt>
      <trkpt lat="45.83793" lon="4.64841">
        <ele>397.60941</ele>
        <time>2023-06-04T13:36:58.000Z</time>
      </trkpt>
      <trkpt lat="45.83793" lon="4.64837">
        <ele>397.3653</ele>
        <time>2023-06-04T13:36:59.000Z</time>
      </trkpt>
      <trkpt lat="45.83794" lon="4.64833">
        <ele>396.98398</ele>
        <time>2023-06-04T13:37:00.000Z</time>
      </trkpt>
      <trkpt lat="45.83797" lon="4.64829">
        <ele>396.76999</ele>
        <time>2023-06-04T13:37:01.000Z</time>
      </trkpt>
      <trkpt lat="45.83798" lon="4.64824">
        <ele>396.38828</ele>
        <time>2023-06-04T13:37:02.000Z</time>
      </trkpt>
      <trkpt lat="45.83799" lon="4.6482">
        <ele>396.12637</ele>
        <time>2023-06-04T13:37:03.000Z</time>
      </trkpt>
      <trkpt lat="45.83798" lon="4.64828">
        <ele>396.10236</ele>
        <time>2023-06-04T13:37:06.000Z</time>
      </trkpt>
      <trkpt lat="45.83797" lon="4.64831">
        <ele>395.69165</ele>
        <time>2023-06-04T13:37:07.000Z</time>
      </trkpt>
      <trkpt lat="45.83796" lon="4.64834">
        <ele>395.76639</ele>
        <time>2023-06-04T13:37:09.000Z</time>
      </trkpt>
      <trkpt lat="45.83795" lon="4.64837">
        <ele>395.98849</ele>
        <time>2023-06-04T13:37:11.000Z</time>
      </trkpt>
      <trkpt lat="45.83796" lon="4.64838">
        <ele>395.94614</ele>
        <time>2023-06-04T13:37:15.000Z</time>
      </trkpt>
      <trkpt lat="45.83799" lon="4.64836">
        <ele>396.36469</ele>
        <time>2023-06-04T13:37:18.000Z</time>
      </trkpt>
      <trkpt lat="45.83802" lon="4.64832">
        <ele>396.99023</ele>
        <time>2023-06-04T13:37:20.000Z</time>
      </trkpt>
      <trkpt lat="45.83803" lon="4.64828">
        <ele>397.47974</ele>
        <time>2023-06-04T13:37:21.000Z</time>
      </trkpt>
      <trkpt lat="45.83804" lon="4.64825">
        <ele>397.9137</ele>
        <time>2023-06-04T13:37:22.000Z</time>
      </trkpt>
      <trkpt lat="45.83805" lon="4.64823">
        <ele>398.5069</ele>
        <time>2023-06-04T13:37:23.000Z</time>
      </trkpt>
      <trkpt lat="45.83806" lon="4.64821">
        <ele>399.06146</ele>
        <time>2023-06-04T13:37:24.000Z</time>
      </trkpt>
      <trkpt lat="45.83808" lon="4.6482">
        <ele>399.72733</ele>
        <time>2023-06-04T13:37:26.000Z</time>
      </trkpt>
      <trkpt lat="45.8381" lon="4.64822">
        <ele>400.26407</ele>
        <time>2023-06-04T13:37:28.000Z</time>
      </trkpt>
      <trkpt lat="45.83812" lon="4.64821">
        <ele>401.013</ele>
        <time>2023-06-04T13:37:29.000Z</time>
      </trkpt>
      <trkpt lat="45.83815" lon="4.64819">
        <ele>401.38641</ele>
        <time>2023-06-04T13:37:32.000Z</time>
      </trkpt>
      <trkpt lat="45.83818" lon="4.64819">
        <ele>401.70206</ele>
        <time>2023-06-04T13:37:33.000Z</time>
      </trkpt>
      <trkpt lat="45.83822" lon="4.64816">
        <ele>402.09702</ele>
        <time>2023-06-04T13:37:35.000Z</time>
      </trkpt>
      <trkpt lat="45.83824" lon="4.64813">
        <ele>402.58868</ele>
        <time>2023-06-04T13:37:36.000Z</time>
      </trkpt>
      <trkpt lat="45.83827" lon="4.6481">
        <ele>403.09381</ele>
        <time>2023-06-04T13:37:37.000Z</time>
      </trkpt>
      <trkpt lat="45.83829" lon="4.64807">
        <ele>403.65884</ele>
        <time>2023-06-04T13:37:38.000Z</time>
      </trkpt>
      <trkpt lat="45.83832" lon="4.64805">
        <ele>404.07916</ele>
        <time>2023-06-04T13:37:39.000Z</time>
      </trkpt>
      <trkpt lat="45.83834" lon="4.64803">
        <ele>404.31833</ele>
        <time>2023-06-04T13:37:40.000Z</time>
      </trkpt>
      <trkpt lat="45.83836" lon="4.64801">
        <ele>404.36078</ele>
        <time>2023-06-04T13:37:41.000Z</time>
      </trkpt>
      <trkpt lat="45.83838" lon="4.64798">
        <ele>404.24792</ele>
        <time>2023-06-04T13:37:42.000Z</time>
      </trkpt>
      <trkpt lat="45.8384" lon="4.64796">
        <ele>404.23929</ele>
        <time>2023-06-04T13:37:43.000Z</time>
      </trkpt>
      <trkpt lat="45.83842" lon="4.64793">
        <ele>403.88196</ele>
        <time>2023-06-04T13:37:44.000Z</time>
      </trkpt>
      <trkpt lat="45.83844" lon="4.64791">
        <ele>403.35028</ele>
        <time>2023-06-04T13:37:45.000Z</time>
      </trkpt>
      <trkpt lat="45.83846" lon="4.64789">
        <ele>402.65271</ele>
        <time>2023-06-04T13:37:46.000Z</time>
      </trkpt>
      <trkpt lat="45.83847" lon="4.64787">
        <ele>402.4057</ele>
        <time>2023-06-04T13:37:47.000Z</time>
      </trkpt>
      <trkpt lat="45.83849" lon="4.64785">
        <ele>402.05142</ele>
        <time>2023-06-04T13:37:48.000Z</time>
      </trkpt>
      <trkpt lat="45.83852" lon="4.64781">
        <ele>401.88953</ele>
        <time>2023-06-04T13:37:49.000Z</time>
      </trkpt>
      <trkpt lat="45.83854" lon="4.64778">
        <ele>401.92761</ele>
        <time>2023-06-04T13:37:50.000Z</time>
      </trkpt>
      <trkpt lat="45.83856" lon="4.64775">
        <ele>402.06146</ele>
        <time>2023-06-04T13:37:51.000Z</time>
      </trkpt>
      <trkpt lat="45.83857" lon="4.64772">
        <ele>402.25287</ele>
        <time>2023-06-04T13:37:52.000Z</time>
      </trkpt>
      <trkpt lat="45.83859" lon="4.64769">
        <ele>402.55066</ele>
        <time>2023-06-04T13:37:53.000Z</time>
      </trkpt>
      <trkpt lat="45.83861" lon="4.64767">
        <ele>403.02142</ele>
        <time>2023-06-04T13:37:54.000Z</time>
      </trkpt>
      <trkpt lat="45.83863" lon="4.64764">
        <ele>403.47186</ele>
        <time>2023-06-04T13:37:55.000Z</time>
      </trkpt>
      <trkpt lat="45.83866" lon="4.64761">
        <ele>403.97705</ele>
        <time>2023-06-04T13:37:57.000Z</time>
      </trkpt>
      <trkpt lat="45.83868" lon="4.64762">
        <ele>404.4505</ele>
        <time>2023-06-04T13:37:59.000Z</time>
      </trkpt>
      <trkpt lat="45.83869" lon="4.6476">
        <ele>404.65683</ele>
        <time>2023-06-04T13:38:02.000Z</time>
      </trkpt>
      <trkpt lat="45.83871" lon="4.64757">
        <ele>404.84079</ele>
        <time>2023-06-04T13:38:03.000Z</time>
      </trkpt>
      <trkpt lat="45.83872" lon="4.64755">
        <ele>405.0275</ele>
        <time>2023-06-04T13:38:04.000Z</time>
      </trkpt>
      <trkpt lat="45.83874" lon="4.64754">
        <ele>405.12979</ele>
        <time>2023-06-04T13:38:05.000Z</time>
      </trkpt>
      <trkpt lat="45.83876" lon="4.64751">
        <ele>405.12308</ele>
        <time>2023-06-04T13:38:06.000Z</time>
      </trkpt>
      <trkpt lat="45.83879" lon="4.64747">
        <ele>405.08609</ele>
        <time>2023-06-04T13:38:07.000Z</time>
      </trkpt>
      <trkpt lat="45.83882" lon="4.64743">
        <ele>404.92709</ele>
        <time>2023-06-04T13:38:08.000Z</time>
      </trkpt>
      <trkpt lat="45.83886" lon="4.64739">
        <ele>405.08551</ele>
        <time>2023-06-04T13:38:09.000Z</time>
      </trkpt>
      <trkpt lat="45.83896" lon="4.64735">
        <ele>405.29007</ele>
        <time>2023-06-04T13:38:10.000Z</time>
      </trkpt>
      <trkpt lat="45.83901" lon="4.64733">
        <ele>404.99561</ele>
        <time>2023-06-04T13:38:11.000Z</time>
      </trkpt>
      <trkpt lat="45.83906" lon="4.64731">
        <ele>405.14301</ele>
        <time>2023-06-04T13:38:12.000Z</time>
      </trkpt>
      <trkpt lat="45.83909" lon="4.64728">
        <ele>405.16779</ele>
        <time>2023-06-04T13:38:13.000Z</time>
      </trkpt>
      <trkpt lat="45.83914" lon="4.64725">
        <ele>405.24747</ele>
        <time>2023-06-04T13:38:14.000Z</time>
      </trkpt>
      <trkpt lat="45.83919" lon="4.64721">
        <ele>405.32126</ele>
        <time>2023-06-04T13:38:15.000Z</time>
      </trkpt>
      <trkpt lat="45.83924" lon="4.6472">
        <ele>405.28339</ele>
        <time>2023-06-04T13:38:16.000Z</time>
      </trkpt>
      <trkpt lat="45.83927" lon="4.64716">
        <ele>404.82767</ele>
        <time>2023-06-04T13:38:17.000Z</time>
      </trkpt>
      <trkpt lat="45.83932" lon="4.64713">
        <ele>404.81689</ele>
        <time>2023-06-04T13:38:18.000Z</time>
      </trkpt>
      <trkpt lat="45.83938" lon="4.64714">
        <ele>404.84979</ele>
        <time>2023-06-04T13:38:19.000Z</time>
      </trkpt>
      <trkpt lat="45.8394" lon="4.6471">
        <ele>404.88626</ele>
        <time>2023-06-04T13:38:20.000Z</time>
      </trkpt>
      <trkpt lat="45.83945" lon="4.64708">
        <ele>404.00284</ele>
        <time>2023-06-04T13:38:21.000Z</time>
      </trkpt>
      <trkpt lat="45.83944" lon="4.64702">
        <ele>403.37195</ele>
        <time>2023-06-04T13:38:23.000Z</time>
      </trkpt>
      <trkpt lat="45.83942" lon="4.64699">
        <ele>402.7803</ele>
        <time>2023-06-04T13:38:24.000Z</time>
      </trkpt>
      <trkpt lat="45.83936" lon="4.64696">
        <ele>402.24127</ele>
        <time>2023-06-04T13:38:25.000Z</time>
      </trkpt>
      <trkpt lat="45.83933" lon="4.64692">
        <ele>401.8277</ele>
        <time>2023-06-04T13:38:26.000Z</time>
      </trkpt>
      <trkpt lat="45.83929" lon="4.64687">
        <ele>401.48697</ele>
        <time>2023-06-04T13:38:27.000Z</time>
      </trkpt>
      <trkpt lat="45.83926" lon="4.64684">
        <ele>401.34921</ele>
        <time>2023-06-04T13:38:28.000Z</time>
      </trkpt>
      <trkpt lat="45.83925" lon="4.64681">
        <ele>400.25455</ele>
        <time>2023-06-04T13:38:29.000Z</time>
      </trkpt>
      <trkpt lat="45.83923" lon="4.64677">
        <ele>399.36127</ele>
        <time>2023-06-04T13:38:30.000Z</time>
      </trkpt>
      <trkpt lat="45.83921" lon="4.64673">
        <ele>398.5777</ele>
        <time>2023-06-04T13:38:31.000Z</time>
      </trkpt>
      <trkpt lat="45.83921" lon="4.6467">
        <ele>397.69736</ele>
        <time>2023-06-04T13:38:32.000Z</time>
      </trkpt>
      <trkpt lat="45.83919" lon="4.64667">
        <ele>396.38773</ele>
        <time>2023-06-04T13:38:33.000Z</time>
      </trkpt>
      <trkpt lat="45.83917" lon="4.64663">
        <ele>395.16119</ele>
        <time>2023-06-04T13:38:34.000Z</time>
      </trkpt>
      <trkpt lat="45.83914" lon="4.64659">
        <ele>393.73346</ele>
        <time>2023-06-04T13:38:35.000Z</time>
      </trkpt>
      <trkpt lat="45.83907" lon="4.64656">
        <ele>393.04095</ele>
        <time>2023-06-04T13:38:36.000Z</time>
      </trkpt>
      <trkpt lat="45.83907" lon="4.64653">
        <ele>392.34174</ele>
        <time>2023-06-04T13:38:37.000Z</time>
      </trkpt>
      <trkpt lat="45.83905" lon="4.64649">
        <ele>390.72842</ele>
        <time>2023-06-04T13:38:39.000Z</time>
      </trkpt>
      <trkpt lat="45.83898" lon="4.64645">
        <ele>388.57529</ele>
        <time>2023-06-04T13:38:40.000Z</time>
      </trkpt>
      <trkpt lat="45.83894" lon="4.64641">
        <ele>387.94406</ele>
        <time>2023-06-04T13:38:42.000Z</time>
      </trkpt>
      <trkpt lat="45.83892" lon="4.64638">
        <ele>387.21243</ele>
        <time>2023-06-04T13:38:43.000Z</time>
      </trkpt>
      <trkpt lat="45.83887" lon="4.64632">
        <ele>387.48999</ele>
        <time>2023-06-04T13:38:44.000Z</time>
      </trkpt>
      <trkpt lat="45.83888" lon="4.64628">
        <ele>387.73007</ele>
        <time>2023-06-04T13:38:45.000Z</time>
      </trkpt>
      <trkpt lat="45.83883" lon="4.64624">
        <ele>387.94434</ele>
        <time>2023-06-04T13:38:46.000Z</time>
      </trkpt>
      <trkpt lat="45.83881" lon="4.64621">
        <ele>388.18604</ele>
        <time>2023-06-04T13:38:47.000Z</time>
      </trkpt>
      <trkpt lat="45.8388" lon="4.64618">
        <ele>388.30164</ele>
        <time>2023-06-04T13:38:48.000Z</time>
      </trkpt>
      <trkpt lat="45.83879" lon="4.64616">
        <ele>388.42548</ele>
        <time>2023-06-04T13:38:49.000Z</time>
      </trkpt>
      <trkpt lat="45.83878" lon="4.64613">
        <ele>388.49289</ele>
        <time>2023-06-04T13:38:50.000Z</time>
      </trkpt>
      <trkpt lat="45.83877" lon="4.6461">
        <ele>389.44962</ele>
        <time>2023-06-04T13:38:51.000Z</time>
      </trkpt>
      <trkpt lat="45.83875" lon="4.64606">
        <ele>390.19928</ele>
        <time>2023-06-04T13:38:52.000Z</time>
      </trkpt>
      <trkpt lat="45.83873" lon="4.64603">
        <ele>390.85883</ele>
        <time>2023-06-04T13:38:53.000Z</time>
      </trkpt>
      <trkpt lat="45.83871" lon="4.646">
        <ele>391.59909</ele>
        <time>2023-06-04T13:38:54.000Z</time>
      </trkpt>
      <trkpt lat="45.83871" lon="4.64597">
        <ele>392.33478</ele>
        <time>2023-06-04T13:38:55.000Z</time>
      </trkpt>
      <trkpt lat="45.8387" lon="4.64594">
        <ele>391.88684</ele>
        <time>2023-06-04T13:38:56.000Z</time>
      </trkpt>
      <trkpt lat="45.8387" lon="4.64591">
        <ele>391.46225</ele>
        <time>2023-06-04T13:38:57.000Z</time>
      </trkpt>
      <trkpt lat="45.83869" lon="4.64587">
        <ele>390.44852</ele>
        <time>2023-06-04T13:38:58.000Z</time>
      </trkpt>
      <trkpt lat="45.83868" lon="4.64583">
        <ele>389.3154</ele>
        <time>2023-06-04T13:38:59.000Z</time>
      </trkpt>
      <trkpt lat="45.83867" lon="4.64578">
        <ele>389.35233</ele>
        <time>2023-06-04T13:39:00.000Z</time>
      </trkpt>
      <trkpt lat="45.83865" lon="4.64573">
        <ele>389.32324</ele>
        <time>2023-06-04T13:39:01.000Z</time>
      </trkpt>
      <trkpt lat="45.83864" lon="4.64568">
        <ele>387.80548</ele>
        <time>2023-06-04T13:39:02.000Z</time>
      </trkpt>
      <trkpt lat="45.83863" lon="4.64564">
        <ele>386.30133</ele>
        <time>2023-06-04T13:39:03.000Z</time>
      </trkpt>
      <trkpt lat="45.8386" lon="4.64552">
        <ele>384.33554</ele>
        <time>2023-06-04T13:39:04.000Z</time>
      </trkpt>
      <trkpt lat="45.83855" lon="4.64548">
        <ele>383.18033</ele>
        <time>2023-06-04T13:39:05.000Z</time>
      </trkpt>
      <trkpt lat="45.83858" lon="4.64553">
        <ele>381.25409</ele>
        <time>2023-06-04T13:39:07.000Z</time>
      </trkpt>
      <trkpt lat="45.83856" lon="4.64549">
        <ele>379.38028</ele>
        <time>2023-06-04T13:39:08.000Z</time>
      </trkpt>
      <trkpt lat="45.83855" lon="4.64545">
        <ele>377.409</ele>
        <time>2023-06-04T13:39:09.000Z</time>
      </trkpt>
      <trkpt lat="45.83855" lon="4.64541">
        <ele>375.40524</ele>
        <time>2023-06-04T13:39:10.000Z</time>
      </trkpt>
      <trkpt lat="45.83856" lon="4.64534">
        <ele>373.37738</ele>
        <time>2023-06-04T13:39:11.000Z</time>
      </trkpt>
      <trkpt lat="45.83856" lon="4.6453">
        <ele>371.66571</ele>
        <time>2023-06-04T13:39:13.000Z</time>
      </trkpt>
      <trkpt lat="45.8385" lon="4.64526">
        <ele>370.76407</ele>
        <time>2023-06-04T13:39:14.000Z</time>
      </trkpt>
      <trkpt lat="45.83845" lon="4.64522">
        <ele>369.85687</ele>
        <time>2023-06-04T13:39:15.000Z</time>
      </trkpt>
      <trkpt lat="45.83842" lon="4.64511">
        <ele>368.30566</ele>
        <time>2023-06-04T13:39:16.000Z</time>
      </trkpt>
      <trkpt lat="45.83838" lon="4.64503">
        <ele>367.09415</ele>
        <time>2023-06-04T13:39:18.000Z</time>
      </trkpt>
      <trkpt lat="45.83835" lon="4.64497">
        <ele>366.89053</ele>
        <time>2023-06-04T13:39:19.000Z</time>
      </trkpt>
      <trkpt lat="45.83835" lon="4.64491">
        <ele>366.55341</ele>
        <time>2023-06-04T13:39:20.000Z</time>
      </trkpt>
      <trkpt lat="45.83834" lon="4.64486">
        <ele>365.73306</ele>
        <time>2023-06-04T13:39:22.000Z</time>
      </trkpt>
      <trkpt lat="45.83832" lon="4.64484">
        <ele>365.09882</ele>
        <time>2023-06-04T13:39:23.000Z</time>
      </trkpt>
      <trkpt lat="45.8383" lon="4.64474">
        <ele>365.62997</ele>
        <time>2023-06-04T13:39:25.000Z</time>
      </trkpt>
      <trkpt lat="45.8383" lon="4.64465">
        <ele>366.33017</ele>
        <time>2023-06-04T13:39:26.000Z</time>
      </trkpt>
      <trkpt lat="45.83825" lon="4.64463">
        <ele>366.94601</ele>
        <time>2023-06-04T13:39:28.000Z</time>
      </trkpt>
      <trkpt lat="45.83823" lon="4.64452">
        <ele>367.68912</ele>
        <time>2023-06-04T13:39:29.000Z</time>
      </trkpt>
      <trkpt lat="45.83819" lon="4.64448">
        <ele>368.94736</ele>
        <time>2023-06-04T13:39:30.000Z</time>
      </trkpt>
      <trkpt lat="45.83816" lon="4.64441">
        <ele>369.01019</ele>
        <time>2023-06-04T13:39:31.000Z</time>
      </trkpt>
      <trkpt lat="45.83813" lon="4.64433">
        <ele>370.03403</ele>
        <time>2023-06-04T13:39:32.000Z</time>
      </trkpt>
      <trkpt lat="45.83809" lon="4.64426">
        <ele>370.88702</ele>
        <time>2023-06-04T13:39:33.000Z</time>
      </trkpt>
      <trkpt lat="45.83805" lon="4.6442">
        <ele>371.90399</ele>
        <time>2023-06-04T13:39:34.000Z</time>
      </trkpt>
      <trkpt lat="45.83807" lon="4.6442">
        <ele>372.92111</ele>
        <time>2023-06-04T13:39:35.000Z</time>
      </trkpt>
      <trkpt lat="45.83805" lon="4.64414">
        <ele>374.12787</ele>
        <time>2023-06-04T13:39:36.000Z</time>
      </trkpt>
      <trkpt lat="45.83803" lon="4.64407">
        <ele>375.14133</ele>
        <time>2023-06-04T13:39:37.000Z</time>
      </trkpt>
      <trkpt lat="45.83801" lon="4.64401">
        <ele>375.27966</ele>
        <time>2023-06-04T13:39:38.000Z</time>
      </trkpt>
      <trkpt lat="45.83796" lon="4.64392">
        <ele>375.39493</ele>
        <time>2023-06-04T13:39:39.000Z</time>
      </trkpt>
      <trkpt lat="45.83798" lon="4.64386">
        <ele>375.75519</ele>
        <time>2023-06-04T13:39:40.000Z</time>
      </trkpt>
      <trkpt lat="45.83794" lon="4.6438">
        <ele>375.80209</ele>
        <time>2023-06-04T13:39:41.000Z</time>
      </trkpt>
      <trkpt lat="45.8379" lon="4.6437">
        <ele>376.93988</ele>
        <time>2023-06-04T13:39:42.000Z</time>
      </trkpt>
      <trkpt lat="45.83789" lon="4.64368">
        <ele>378.08502</ele>
        <time>2023-06-04T13:39:43.000Z</time>
      </trkpt>
      <trkpt lat="45.83784" lon="4.64361">
        <ele>379.13672</ele>
        <time>2023-06-04T13:39:44.000Z</time>
      </trkpt>
      <trkpt lat="45.8378" lon="4.64352">
        <ele>380.20883</ele>
        <time>2023-06-04T13:39:45.000Z</time>
      </trkpt>
      <trkpt lat="45.83776" lon="4.64346">
        <ele>381.23175</ele>
        <time>2023-06-04T13:39:46.000Z</time>
      </trkpt>
      <trkpt lat="45.83771" lon="4.64342">
        <ele>382.24286</ele>
        <time>2023-06-04T13:39:47.000Z</time>
      </trkpt>
      <trkpt lat="45.83768" lon="4.64335">
        <ele>383.25455</ele>
        <time>2023-06-04T13:39:48.000Z</time>
      </trkpt>
      <trkpt lat="45.83765" lon="4.64332">
        <ele>384.29248</ele>
        <time>2023-06-04T13:39:49.000Z</time>
      </trkpt>
      <trkpt lat="45.83764" lon="4.64326">
        <ele>385.14981</ele>
        <time>2023-06-04T13:39:50.000Z</time>
      </trkpt>
      <trkpt lat="45.83756" lon="4.64321">
        <ele>386.20319</ele>
        <time>2023-06-04T13:39:51.000Z</time>
      </trkpt>
      <trkpt lat="45.8375" lon="4.64315">
        <ele>387.54053</ele>
        <time>2023-06-04T13:39:52.000Z</time>
      </trkpt>
      <trkpt lat="45.83745" lon="4.64309">
        <ele>389.48126</ele>
        <time>2023-06-04T13:39:53.000Z</time>
      </trkpt>
      <trkpt lat="45.8374" lon="4.64303">
        <ele>390.02768</ele>
        <time>2023-06-04T13:39:54.000Z</time>
      </trkpt>
      <trkpt lat="45.83737" lon="4.64296">
        <ele>390.57773</ele>
        <time>2023-06-04T13:39:55.000Z</time>
      </trkpt>
      <trkpt lat="45.83733" lon="4.64291">
        <ele>390.97122</ele>
        <time>2023-06-04T13:39:56.000Z</time>
      </trkpt>
      <trkpt lat="45.83729" lon="4.64284">
        <ele>391.33307</ele>
        <time>2023-06-04T13:39:57.000Z</time>
      </trkpt>
      <trkpt lat="45.83725" lon="4.64278">
        <ele>391.75735</ele>
        <time>2023-06-04T13:39:58.000Z</time>
      </trkpt>
      <trkpt lat="45.83717" lon="4.64273">
        <ele>393.82599</ele>
        <time>2023-06-04T13:39:59.000Z</time>
      </trkpt>
      <trkpt lat="45.83716" lon="4.64268">
        <ele>396.29025</ele>
        <time>2023-06-04T13:40:00.000Z</time>
      </trkpt>
      <trkpt lat="45.8371" lon="4.64262">
        <ele>398.86362</ele>
        <time>2023-06-04T13:40:01.000Z</time>
      </trkpt>
      <trkpt lat="45.83708" lon="4.64252">
        <ele>400.43033</ele>
        <time>2023-06-04T13:40:02.000Z</time>
      </trkpt>
      <trkpt lat="45.83704" lon="4.64245">
        <ele>402.22183</ele>
        <time>2023-06-04T13:40:03.000Z</time>
      </trkpt>
      <trkpt lat="45.83698" lon="4.64239">
        <ele>404.4603</ele>
        <time>2023-06-04T13:40:04.000Z</time>
      </trkpt>
      <trkpt lat="45.83696" lon="4.64234">
        <ele>406.60049</ele>
        <time>2023-06-04T13:40:05.000Z</time>
      </trkpt>
      <trkpt lat="45.83692" lon="4.64229">
        <ele>407.65634</ele>
        <time>2023-06-04T13:40:06.000Z</time>
      </trkpt>
      <trkpt lat="45.83689" lon="4.64224">
        <ele>408.7016</ele>
        <time>2023-06-04T13:40:07.000Z</time>
      </trkpt>
      <trkpt lat="45.83683" lon="4.64216">
        <ele>409.81192</ele>
        <time>2023-06-04T13:40:08.000Z</time>
      </trkpt>
      <trkpt lat="45.8368" lon="4.64211">
        <ele>410.77203</ele>
        <time>2023-06-04T13:40:09.000Z</time>
      </trkpt>
      <trkpt lat="45.83674" lon="4.64204">
        <ele>411.75934</ele>
        <time>2023-06-04T13:40:10.000Z</time>
      </trkpt>
      <trkpt lat="45.83668" lon="4.64197">
        <ele>411.62726</ele>
        <time>2023-06-04T13:40:11.000Z</time>
      </trkpt>
      <trkpt lat="45.83664" lon="4.64189">
        <ele>411.54184</ele>
        <time>2023-06-04T13:40:12.000Z</time>
      </trkpt>
      <trkpt lat="45.83659" lon="4.6418">
        <ele>410.89227</ele>
        <time>2023-06-04T13:40:13.000Z</time>
      </trkpt>
      <trkpt lat="45.83654" lon="4.64174">
        <ele>411.5332</ele>
        <time>2023-06-04T13:40:14.000Z</time>
      </trkpt>
      <trkpt lat="45.83649" lon="4.64164">
        <ele>412.07782</ele>
        <time>2023-06-04T13:40:15.000Z</time>
      </trkpt>
      <trkpt lat="45.83643" lon="4.64155">
        <ele>412.65796</ele>
        <time>2023-06-04T13:40:16.000Z</time>
      </trkpt>
      <trkpt lat="45.83639" lon="4.64147">
        <ele>413.06561</ele>
        <time>2023-06-04T13:40:17.000Z</time>
      </trkpt>
      <trkpt lat="45.83635" lon="4.64145">
        <ele>413.37909</ele>
        <time>2023-06-04T13:40:18.000Z</time>
      </trkpt>
      <trkpt lat="45.83627" lon="4.64138">
        <ele>412.22784</ele>
        <time>2023-06-04T13:40:19.000Z</time>
      </trkpt>
      <trkpt lat="45.83616" lon="4.64127">
        <ele>411.07227</ele>
        <time>2023-06-04T13:40:20.000Z</time>
      </trkpt>
      <trkpt lat="45.83609" lon="4.64118">
        <ele>409.77319</ele>
        <time>2023-06-04T13:40:21.000Z</time>
      </trkpt>
      <trkpt lat="45.83603" lon="4.64108">
        <ele>408.58203</ele>
        <time>2023-06-04T13:40:22.000Z</time>
      </trkpt>
      <trkpt lat="45.83598" lon="4.641">
        <ele>407.10611</ele>
        <time>2023-06-04T13:40:23.000Z</time>
      </trkpt>
      <trkpt lat="45.83593" lon="4.64092">
        <ele>405.78717</ele>
        <time>2023-06-04T13:40:24.000Z</time>
      </trkpt>
      <trkpt lat="45.83583" lon="4.64083">
        <ele>404.43784</ele>
        <time>2023-06-04T13:40:25.000Z</time>
      </trkpt>
      <trkpt lat="45.83575" lon="4.64075">
        <ele>403.20709</ele>
        <time>2023-06-04T13:40:26.000Z</time>
      </trkpt>
      <trkpt lat="45.8357" lon="4.64068">
        <ele>401.98938</ele>
        <time>2023-06-04T13:40:27.000Z</time>
      </trkpt>
      <trkpt lat="45.83565" lon="4.64063">
        <ele>400.7366</ele>
        <time>2023-06-04T13:40:28.000Z</time>
      </trkpt>
      <trkpt lat="45.83558" lon="4.64057">
        <ele>400.40518</ele>
        <time>2023-06-04T13:40:29.000Z</time>
      </trkpt>
      <trkpt lat="45.8355" lon="4.64054">
        <ele>400.0542</ele>
        <time>2023-06-04T13:40:30.000Z</time>
      </trkpt>
      <trkpt lat="45.83543" lon="4.64046">
        <ele>401.01111</ele>
        <time>2023-06-04T13:40:31.000Z</time>
      </trkpt>
      <trkpt lat="45.83539" lon="4.64037">
        <ele>401.45001</ele>
        <time>2023-06-04T13:40:32.000Z</time>
      </trkpt>
      <trkpt lat="45.83534" lon="4.64031">
        <ele>401.13965</ele>
        <time>2023-06-04T13:40:33.000Z</time>
      </trkpt>
      <trkpt lat="45.83527" lon="4.64024">
        <ele>401.21515</ele>
        <time>2023-06-04T13:40:34.000Z</time>
      </trkpt>
      <trkpt lat="45.8352" lon="4.64011">
        <ele>401.48355</ele>
        <time>2023-06-04T13:40:35.000Z</time>
      </trkpt>
      <trkpt lat="45.83515" lon="4.64002">
        <ele>401.69647</ele>
        <time>2023-06-04T13:40:36.000Z</time>
      </trkpt>
      <trkpt lat="45.83508" lon="4.63992">
        <ele>401.73483</ele>
        <time>2023-06-04T13:40:37.000Z</time>
      </trkpt>
      <trkpt lat="45.83501" lon="4.63988">
        <ele>401.83832</ele>
        <time>2023-06-04T13:40:38.000Z</time>
      </trkpt>
      <trkpt lat="45.83495" lon="4.63984">
        <ele>401.87384</ele>
        <time>2023-06-04T13:40:39.000Z</time>
      </trkpt>
      <trkpt lat="45.83493" lon="4.63984">
        <ele>401.95538</ele>
        <time>2023-06-04T13:40:40.000Z</time>
      </trkpt>
      <trkpt lat="45.83488" lon="4.63976">
        <ele>402.08405</ele>
        <time>2023-06-04T13:40:42.000Z</time>
      </trkpt>
      <trkpt lat="45.8349" lon="4.63973">
        <ele>402.39215</ele>
        <time>2023-06-04T13:40:43.000Z</time>
      </trkpt>
      <trkpt lat="45.83495" lon="4.63971">
        <ele>402.93835</ele>
        <time>2023-06-04T13:40:44.000Z</time>
      </trkpt>
      <trkpt lat="45.83506" lon="4.63974">
        <ele>403.35562</ele>
        <time>2023-06-04T13:40:45.000Z</time>
      </trkpt>
      <trkpt lat="45.83515" lon="4.63976">
        <ele>403.8566</ele>
        <time>2023-06-04T13:40:46.000Z</time>
      </trkpt>
      <trkpt lat="45.83523" lon="4.63977">
        <ele>404.26178</ele>
        <time>2023-06-04T13:40:47.000Z</time>
      </trkpt>
      <trkpt lat="45.8353" lon="4.63975">
        <ele>404.63055</ele>
        <time>2023-06-04T13:40:48.000Z</time>
      </trkpt>
      <trkpt lat="45.83538" lon="4.63978">
        <ele>405.05856</ele>
        <time>2023-06-04T13:40:49.000Z</time>
      </trkpt>
      <trkpt lat="45.83549" lon="4.63985">
        <ele>404.56836</ele>
        <time>2023-06-04T13:40:50.000Z</time>
      </trkpt>
      <trkpt lat="45.8356" lon="4.63986">
        <ele>404.10614</ele>
        <time>2023-06-04T13:40:51.000Z</time>
      </trkpt>
      <trkpt lat="45.83569" lon="4.63983">
        <ele>403.62589</ele>
        <time>2023-06-04T13:40:52.000Z</time>
      </trkpt>
      <trkpt lat="45.83584" lon="4.63979">
        <ele>403.18179</ele>
        <time>2023-06-04T13:40:53.000Z</time>
      </trkpt>
      <trkpt lat="45.83592" lon="4.63982">
        <ele>403.42053</ele>
        <time>2023-06-04T13:40:54.000Z</time>
      </trkpt>
      <trkpt lat="45.83604" lon="4.63985">
        <ele>403.31854</ele>
        <time>2023-06-04T13:40:55.000Z</time>
      </trkpt>
      <trkpt lat="45.83615" lon="4.63987">
        <ele>403.07126</ele>
        <time>2023-06-04T13:40:56.000Z</time>
      </trkpt>
      <trkpt lat="45.83627" lon="4.63987">
        <ele>402.8139</ele>
        <time>2023-06-04T13:40:57.000Z</time>
      </trkpt>
      <trkpt lat="45.83637" lon="4.63989">
        <ele>402.83798</ele>
        <time>2023-06-04T13:40:58.000Z</time>
      </trkpt>
      <trkpt lat="45.83649" lon="4.63994">
        <ele>402.78119</ele>
        <time>2023-06-04T13:40:59.000Z</time>
      </trkpt>
      <trkpt lat="45.8366" lon="4.63995">
        <ele>402.62979</ele>
        <time>2023-06-04T13:41:00.000Z</time>
      </trkpt>
      <trkpt lat="45.83672" lon="4.63998">
        <ele>402.22931</ele>
        <time>2023-06-04T13:41:01.000Z</time>
      </trkpt>
      <trkpt lat="45.83683" lon="4.64">
        <ele>401.83929</ele>
        <time>2023-06-04T13:41:02.000Z</time>
      </trkpt>
      <trkpt lat="45.83694" lon="4.64">
        <ele>401.20096</ele>
        <time>2023-06-04T13:41:03.000Z</time>
      </trkpt>
      <trkpt lat="45.83704" lon="4.64001">
        <ele>400.53754</ele>
        <time>2023-06-04T13:41:04.000Z</time>
      </trkpt>
      <trkpt lat="45.83716" lon="4.64002">
        <ele>399.73102</ele>
        <time>2023-06-04T13:41:05.000Z</time>
      </trkpt>
      <trkpt lat="45.83726" lon="4.64002">
        <ele>398.86505</ele>
        <time>2023-06-04T13:41:06.000Z</time>
      </trkpt>
      <trkpt lat="45.83738" lon="4.64002">
        <ele>397.9584</ele>
        <time>2023-06-04T13:41:07.000Z</time>
      </trkpt>
      <trkpt lat="45.83751" lon="4.64006">
        <ele>397.05457</ele>
        <time>2023-06-04T13:41:08.000Z</time>
      </trkpt>
      <trkpt lat="45.83763" lon="4.64009">
        <ele>396.0257</ele>
        <time>2023-06-04T13:41:09.000Z</time>
      </trkpt>
      <trkpt lat="45.83775" lon="4.64014">
        <ele>395.01337</ele>
        <time>2023-06-04T13:41:10.000Z</time>
      </trkpt>
      <trkpt lat="45.83786" lon="4.64017">
        <ele>394.04297</ele>
        <time>2023-06-04T13:41:11.000Z</time>
      </trkpt>
      <trkpt lat="45.838" lon="4.64021">
        <ele>393.10138</ele>
        <time>2023-06-04T13:41:12.000Z</time>
      </trkpt>
      <trkpt lat="45.8381" lon="4.64022">
        <ele>392.1019</ele>
        <time>2023-06-04T13:41:13.000Z</time>
      </trkpt>
      <trkpt lat="45.83824" lon="4.64026">
        <ele>391.17432</ele>
        <time>2023-06-04T13:41:14.000Z</time>
      </trkpt>
      <trkpt lat="45.83835" lon="4.64028">
        <ele>390.16681</ele>
        <time>2023-06-04T13:41:15.000Z</time>
      </trkpt>
      <trkpt lat="45.83849" lon="4.6403">
        <ele>389.13901</ele>
        <time>2023-06-04T13:41:16.000Z</time>
      </trkpt>
      <trkpt lat="45.83858" lon="4.64032">
        <ele>388.02237</ele>
        <time>2023-06-04T13:41:17.000Z</time>
      </trkpt>
      <trkpt lat="45.83868" lon="4.64034">
        <ele>386.90555</ele>
        <time>2023-06-04T13:41:18.000Z</time>
      </trkpt>
      <trkpt lat="45.83874" lon="4.64035">
        <ele>385.88431</ele>
        <time>2023-06-04T13:41:19.000Z</time>
      </trkpt>
      <trkpt lat="45.83881" lon="4.64036">
        <ele>384.905</ele>
        <time>2023-06-04T13:41:20.000Z</time>
      </trkpt>
      <trkpt lat="45.83889" lon="4.64037">
        <ele>384.18182</ele>
        <time>2023-06-04T13:41:21.000Z</time>
      </trkpt>
      <trkpt lat="45.83895" lon="4.64036">
        <ele>383.49924</ele>
        <time>2023-06-04T13:41:22.000Z</time>
      </trkpt>
      <trkpt lat="45.83899" lon="4.64037">
        <ele>382.82779</ele>
        <time>2023-06-04T13:41:23.000Z</time>
      </trkpt>
      <trkpt lat="45.83897" lon="4.6404">
        <ele>382.2316</ele>
        <time>2023-06-04T13:41:25.000Z</time>
      </trkpt>
      <trkpt lat="45.83903" lon="4.6404">
        <ele>381.70023</ele>
        <time>2023-06-04T13:41:26.000Z</time>
      </trkpt>
      <trkpt lat="45.83899" lon="4.64035">
        <ele>381.17963</ele>
        <time>2023-06-04T13:41:29.000Z</time>
      </trkpt>
      <trkpt lat="45.83892" lon="4.64028">
        <ele>380.71002</ele>
        <time>2023-06-04T13:41:30.000Z</time>
      </trkpt>
      <trkpt lat="45.83889" lon="4.64022">
        <ele>380.43179</ele>
        <time>2023-06-04T13:41:31.000Z</time>
      </trkpt>
      <trkpt lat="45.83885" lon="4.64018">
        <ele>380.27502</ele>
        <time>2023-06-04T13:41:32.000Z</time>
      </trkpt>
      <trkpt lat="45.83884" lon="4.64016">
        <ele>380.17563</ele>
        <time>2023-06-04T13:41:33.000Z</time>
      </trkpt>
      <trkpt lat="45.83879" lon="4.64012">
        <ele>380.06168</ele>
        <time>2023-06-04T13:41:34.000Z</time>
      </trkpt>
      <trkpt lat="45.83876" lon="4.6401">
        <ele>379.87177</ele>
        <time>2023-06-04T13:41:36.000Z</time>
      </trkpt>
      <trkpt lat="45.83871" lon="4.64003">
        <ele>379.70526</ele>
        <time>2023-06-04T13:41:37.000Z</time>
      </trkpt>
      <trkpt lat="45.83867" lon="4.64">
        <ele>379.63123</ele>
        <time>2023-06-04T13:41:38.000Z</time>
      </trkpt>
      <trkpt lat="45.83865" lon="4.63997">
        <ele>379.698</ele>
        <time>2023-06-04T13:41:39.000Z</time>
      </trkpt>
      <trkpt lat="45.83863" lon="4.63995">
        <ele>379.79675</ele>
        <time>2023-06-04T13:41:40.000Z</time>
      </trkpt>
      <trkpt lat="45.83857" lon="4.63993">
        <ele>380.00052</ele>
        <time>2023-06-04T13:41:41.000Z</time>
      </trkpt>
      <trkpt lat="45.83854" lon="4.63989">
        <ele>380.19348</ele>
        <time>2023-06-04T13:41:42.000Z</time>
      </trkpt>
      <trkpt lat="45.83853" lon="4.63986">
        <ele>380.33716</ele>
        <time>2023-06-04T13:41:43.000Z</time>
      </trkpt>
      <trkpt lat="45.8385" lon="4.63982">
        <ele>380.55518</ele>
        <time>2023-06-04T13:41:44.000Z</time>
      </trkpt>
      <trkpt lat="45.83847" lon="4.63978">
        <ele>380.76025</ele>
        <time>2023-06-04T13:41:45.000Z</time>
      </trkpt>
      <trkpt lat="45.83843" lon="4.63975">
        <ele>380.90762</ele>
        <time>2023-06-04T13:41:46.000Z</time>
      </trkpt>
      <trkpt lat="45.83841" lon="4.63972">
        <ele>381.0119</ele>
        <time>2023-06-04T13:41:47.000Z</time>
      </trkpt>
      <trkpt lat="45.83839" lon="4.63969">
        <ele>381.02686</ele>
        <time>2023-06-04T13:41:49.000Z</time>
      </trkpt>
      <trkpt lat="45.83836" lon="4.63966">
        <ele>381.06979</ele>
        <time>2023-06-04T13:41:50.000Z</time>
      </trkpt>
      <trkpt lat="45.83832" lon="4.63961">
        <ele>381.14026</ele>
        <time>2023-06-04T13:41:51.000Z</time>
      </trkpt>
      <trkpt lat="45.83825" lon="4.63953">
        <ele>381.25952</ele>
        <time>2023-06-04T13:41:52.000Z</time>
      </trkpt>
      <trkpt lat="45.83823" lon="4.63949">
        <ele>381.18616</ele>
        <time>2023-06-04T13:41:53.000Z</time>
      </trkpt>
      <trkpt lat="45.83823" lon="4.63945">
        <ele>380.6532</ele>
        <time>2023-06-04T13:41:54.000Z</time>
      </trkpt>
      <trkpt lat="45.83819" lon="4.63941">
        <ele>379.89435</ele>
        <time>2023-06-04T13:41:55.000Z</time>
      </trkpt>
      <trkpt lat="45.83816" lon="4.63937">
        <ele>379.04852</ele>
        <time>2023-06-04T13:41:56.000Z</time>
      </trkpt>
      <trkpt lat="45.83813" lon="4.63934">
        <ele>378.94894</ele>
        <time>2023-06-04T13:41:57.000Z</time>
      </trkpt>
      <trkpt lat="45.83811" lon="4.63931">
        <ele>378.84583</ele>
        <time>2023-06-04T13:41:58.000Z</time>
      </trkpt>
      <trkpt lat="45.83809" lon="4.63929">
        <ele>378.78372</ele>
        <time>2023-06-04T13:41:59.000Z</time>
      </trkpt>
      <trkpt lat="45.83807" lon="4.63927">
        <ele>378.69476</ele>
        <time>2023-06-04T13:42:00.000Z</time>
      </trkpt>
      <trkpt lat="45.83805" lon="4.63926">
        <ele>378.63959</ele>
        <time>2023-06-04T13:42:01.000Z</time>
      </trkpt>
      <trkpt lat="45.83802" lon="4.63924">
        <ele>378.52887</ele>
        <time>2023-06-04T13:42:02.000Z</time>
      </trkpt>
      <trkpt lat="45.83799" lon="4.63922">
        <ele>378.4935</ele>
        <time>2023-06-04T13:42:03.000Z</time>
      </trkpt>
      <trkpt lat="45.83796" lon="4.6392">
        <ele>378.48657</ele>
        <time>2023-06-04T13:42:04.000Z</time>
      </trkpt>
      <trkpt lat="45.83792" lon="4.63917">
        <ele>378.43399</ele>
        <time>2023-06-04T13:42:05.000Z</time>
      </trkpt>
      <trkpt lat="45.83788" lon="4.63915">
        <ele>378.40451</ele>
        <time>2023-06-04T13:42:06.000Z</time>
      </trkpt>
      <trkpt lat="45.83784" lon="4.63912">
        <ele>378.45834</ele>
        <time>2023-06-04T13:42:07.000Z</time>
      </trkpt>
      <trkpt lat="45.8378" lon="4.63909">
        <ele>378.55487</ele>
        <time>2023-06-04T13:42:08.000Z</time>
      </trkpt>
      <trkpt lat="45.83776" lon="4.63907">
        <ele>378.6297</ele>
        <time>2023-06-04T13:42:09.000Z</time>
      </trkpt>
      <trkpt lat="45.83772" lon="4.63904">
        <ele>378.72028</ele>
        <time>2023-06-04T13:42:10.000Z</time>
      </trkpt>
      <trkpt lat="45.83768" lon="4.639">
        <ele>378.87845</ele>
        <time>2023-06-04T13:42:11.000Z</time>
      </trkpt>
      <trkpt lat="45.83765" lon="4.63897">
        <ele>379.02786</ele>
        <time>2023-06-04T13:42:12.000Z</time>
      </trkpt>
      <trkpt lat="45.83762" lon="4.63894">
        <ele>379.15768</ele>
        <time>2023-06-04T13:42:13.000Z</time>
      </trkpt>
      <trkpt lat="45.83758" lon="4.63892">
        <ele>379.71072</ele>
        <time>2023-06-04T13:42:14.000Z</time>
      </trkpt>
      <trkpt lat="45.83754" lon="4.63889">
        <ele>380.50748</ele>
        <time>2023-06-04T13:42:15.000Z</time>
      </trkpt>
      <trkpt lat="45.83751" lon="4.63886">
        <ele>381.27295</ele>
        <time>2023-06-04T13:42:16.000Z</time>
      </trkpt>
      <trkpt lat="45.83748" lon="4.63883">
        <ele>381.35416</ele>
        <time>2023-06-04T13:42:17.000Z</time>
      </trkpt>
      <trkpt lat="45.83745" lon="4.63879">
        <ele>381.41653</ele>
        <time>2023-06-04T13:42:18.000Z</time>
      </trkpt>
      <trkpt lat="45.83742" lon="4.63875">
        <ele>381.37442</ele>
        <time>2023-06-04T13:42:19.000Z</time>
      </trkpt>
      <trkpt lat="45.83738" lon="4.63871">
        <ele>381.33972</ele>
        <time>2023-06-04T13:42:20.000Z</time>
      </trkpt>
      <trkpt lat="45.83735" lon="4.63867">
        <ele>381.27783</ele>
        <time>2023-06-04T13:42:21.000Z</time>
      </trkpt>
      <trkpt lat="45.83732" lon="4.63864">
        <ele>381.22797</ele>
        <time>2023-06-04T13:42:22.000Z</time>
      </trkpt>
      <trkpt lat="45.83729" lon="4.63862">
        <ele>381.13358</ele>
        <time>2023-06-04T13:42:23.000Z</time>
      </trkpt>
      <trkpt lat="45.83726" lon="4.63859">
        <ele>381.04404</ele>
        <time>2023-06-04T13:42:24.000Z</time>
      </trkpt>
      <trkpt lat="45.83724" lon="4.63856">
        <ele>380.97</ele>
        <time>2023-06-04T13:42:25.000Z</time>
      </trkpt>
      <trkpt lat="45.83722" lon="4.63853">
        <ele>380.88739</ele>
        <time>2023-06-04T13:42:26.000Z</time>
      </trkpt>
      <trkpt lat="45.8372" lon="4.63851">
        <ele>380.76166</ele>
        <time>2023-06-04T13:42:27.000Z</time>
      </trkpt>
      <trkpt lat="45.83718" lon="4.63849">
        <ele>380.68143</ele>
        <time>2023-06-04T13:42:28.000Z</time>
      </trkpt>
      <trkpt lat="45.83715" lon="4.63846">
        <ele>380.62674</ele>
        <time>2023-06-04T13:42:29.000Z</time>
      </trkpt>
      <trkpt lat="45.83713" lon="4.63843">
        <ele>380.52432</ele>
        <time>2023-06-04T13:42:30.000Z</time>
      </trkpt>
      <trkpt lat="45.8371" lon="4.63838">
        <ele>380.40674</ele>
        <time>2023-06-04T13:42:31.000Z</time>
      </trkpt>
      <trkpt lat="45.83707" lon="4.63834">
        <ele>380.33749</ele>
        <time>2023-06-04T13:42:32.000Z</time>
      </trkpt>
      <trkpt lat="45.83704" lon="4.6383">
        <ele>380.30096</ele>
        <time>2023-06-04T13:42:33.000Z</time>
      </trkpt>
      <trkpt lat="45.83701" lon="4.63826">
        <ele>380.27872</ele>
        <time>2023-06-04T13:42:34.000Z</time>
      </trkpt>
      <trkpt lat="45.83697" lon="4.63824">
        <ele>380.16977</ele>
        <time>2023-06-04T13:42:35.000Z</time>
      </trkpt>
      <trkpt lat="45.83694" lon="4.63821">
        <ele>380.14691</ele>
        <time>2023-06-04T13:42:36.000Z</time>
      </trkpt>
      <trkpt lat="45.8369" lon="4.63819">
        <ele>380.12115</ele>
        <time>2023-06-04T13:42:37.000Z</time>
      </trkpt>
      <trkpt lat="45.83687" lon="4.63817">
        <ele>380.14621</ele>
        <time>2023-06-04T13:42:38.000Z</time>
      </trkpt>
      <trkpt lat="45.83684" lon="4.63814">
        <ele>380.20364</ele>
        <time>2023-06-04T13:42:39.000Z</time>
      </trkpt>
      <trkpt lat="45.83681" lon="4.63811">
        <ele>380.31348</ele>
        <time>2023-06-04T13:42:40.000Z</time>
      </trkpt>
      <trkpt lat="45.83679" lon="4.63808">
        <ele>380.45758</ele>
        <time>2023-06-04T13:42:41.000Z</time>
      </trkpt>
      <trkpt lat="45.83675" lon="4.63804">
        <ele>380.55853</ele>
        <time>2023-06-04T13:42:42.000Z</time>
      </trkpt>
      <trkpt lat="45.83672" lon="4.63801">
        <ele>380.65674</ele>
        <time>2023-06-04T13:42:43.000Z</time>
      </trkpt>
      <trkpt lat="45.83668" lon="4.63799">
        <ele>380.70435</ele>
        <time>2023-06-04T13:42:44.000Z</time>
      </trkpt>
      <trkpt lat="45.83666" lon="4.63796">
        <ele>380.76071</ele>
        <time>2023-06-04T13:42:45.000Z</time>
      </trkpt>
      <trkpt lat="45.83663" lon="4.63793">
        <ele>380.80127</ele>
        <time>2023-06-04T13:42:46.000Z</time>
      </trkpt>
      <trkpt lat="45.83661" lon="4.63789">
        <ele>380.86523</ele>
        <time>2023-06-04T13:42:47.000Z</time>
      </trkpt>
      <trkpt lat="45.83659" lon="4.63785">
        <ele>380.89172</ele>
        <time>2023-06-04T13:42:48.000Z</time>
      </trkpt>
      <trkpt lat="45.83655" lon="4.63777">
        <ele>380.94009</ele>
        <time>2023-06-04T13:42:49.000Z</time>
      </trkpt>
      <trkpt lat="45.83647" lon="4.63767">
        <ele>380.15375</ele>
        <time>2023-06-04T13:42:50.000Z</time>
      </trkpt>
      <trkpt lat="45.83644" lon="4.63763">
        <ele>379.38077</ele>
        <time>2023-06-04T13:42:51.000Z</time>
      </trkpt>
      <trkpt lat="45.83639" lon="4.63753">
        <ele>379.5683</ele>
        <time>2023-06-04T13:42:52.000Z</time>
      </trkpt>
      <trkpt lat="45.83638" lon="4.6375">
        <ele>379.41553</ele>
        <time>2023-06-04T13:42:53.000Z</time>
      </trkpt>
      <trkpt lat="45.83635" lon="4.63748">
        <ele>379.26236</ele>
        <time>2023-06-04T13:42:54.000Z</time>
      </trkpt>
      <trkpt lat="45.83632" lon="4.63744">
        <ele>379.18549</ele>
        <time>2023-06-04T13:42:55.000Z</time>
      </trkpt>
      <trkpt lat="45.8363" lon="4.6374">
        <ele>379.20844</ele>
        <time>2023-06-04T13:42:56.000Z</time>
      </trkpt>
      <trkpt lat="45.83624" lon="4.6373">
        <ele>379.19894</ele>
        <time>2023-06-04T13:42:57.000Z</time>
      </trkpt>
      <trkpt lat="45.83624" lon="4.63718">
        <ele>379.13586</ele>
        <time>2023-06-04T13:42:58.000Z</time>
      </trkpt>
      <trkpt lat="45.83621" lon="4.63714">
        <ele>379.01996</ele>
        <time>2023-06-04T13:42:59.000Z</time>
      </trkpt>
      <trkpt lat="45.83621" lon="4.6371">
        <ele>378.80386</ele>
        <time>2023-06-04T13:43:00.000Z</time>
      </trkpt>
      <trkpt lat="45.83621" lon="4.63702">
        <ele>378.70026</ele>
        <time>2023-06-04T13:43:01.000Z</time>
      </trkpt>
      <trkpt lat="45.83619" lon="4.63696">
        <ele>378.69788</ele>
        <time>2023-06-04T13:43:02.000Z</time>
      </trkpt>
      <trkpt lat="45.83614" lon="4.63692">
        <ele>378.74442</ele>
        <time>2023-06-04T13:43:03.000Z</time>
      </trkpt>
      <trkpt lat="45.83607" lon="4.63686">
        <ele>378.81</ele>
        <time>2023-06-04T13:43:04.000Z</time>
      </trkpt>
      <trkpt lat="45.83605" lon="4.63682">
        <ele>378.96069</ele>
        <time>2023-06-04T13:43:05.000Z</time>
      </trkpt>
      <trkpt lat="45.83605" lon="4.63678">
        <ele>379.05829</ele>
        <time>2023-06-04T13:43:06.000Z</time>
      </trkpt>
      <trkpt lat="45.83604" lon="4.63673">
        <ele>379.16547</ele>
        <time>2023-06-04T13:43:07.000Z</time>
      </trkpt>
      <trkpt lat="45.83605" lon="4.63668">
        <ele>379.30966</ele>
        <time>2023-06-04T13:43:08.000Z</time>
      </trkpt>
      <trkpt lat="45.836" lon="4.63661">
        <ele>379.43845</ele>
        <time>2023-06-04T13:43:09.000Z</time>
      </trkpt>
      <trkpt lat="45.83595" lon="4.63659">
        <ele>380.42447</ele>
        <time>2023-06-04T13:43:10.000Z</time>
      </trkpt>
      <trkpt lat="45.83591" lon="4.63653">
        <ele>381.362</ele>
        <time>2023-06-04T13:43:11.000Z</time>
      </trkpt>
      <trkpt lat="45.8359" lon="4.63648">
        <ele>381.186</ele>
        <time>2023-06-04T13:43:12.000Z</time>
      </trkpt>
      <trkpt lat="45.83586" lon="4.63646">
        <ele>381.27911</ele>
        <time>2023-06-04T13:43:13.000Z</time>
      </trkpt>
      <trkpt lat="45.83582" lon="4.63641">
        <ele>381.32822</ele>
        <time>2023-06-04T13:43:14.000Z</time>
      </trkpt>
      <trkpt lat="45.83579" lon="4.63639">
        <ele>380.9808</ele>
        <time>2023-06-04T13:43:15.000Z</time>
      </trkpt>
      <trkpt lat="45.83575" lon="4.63638">
        <ele>380.55475</ele>
        <time>2023-06-04T13:43:16.000Z</time>
      </trkpt>
      <trkpt lat="45.83573" lon="4.63632">
        <ele>380.00299</ele>
        <time>2023-06-04T13:43:17.000Z</time>
      </trkpt>
      <trkpt lat="45.8357" lon="4.63629">
        <ele>380.09351</ele>
        <time>2023-06-04T13:43:18.000Z</time>
      </trkpt>
      <trkpt lat="45.8357" lon="4.63625">
        <ele>380.19547</ele>
        <time>2023-06-04T13:43:19.000Z</time>
      </trkpt>
      <trkpt lat="45.83566" lon="4.6362">
        <ele>380.35291</ele>
        <time>2023-06-04T13:43:20.000Z</time>
      </trkpt>
      <trkpt lat="45.83562" lon="4.63611">
        <ele>380.32864</ele>
        <time>2023-06-04T13:43:21.000Z</time>
      </trkpt>
      <trkpt lat="45.83558" lon="4.63605">
        <ele>380.28745</ele>
        <time>2023-06-04T13:43:22.000Z</time>
      </trkpt>
      <trkpt lat="45.83556" lon="4.63598">
        <ele>379.62796</ele>
        <time>2023-06-04T13:43:23.000Z</time>
      </trkpt>
      <trkpt lat="45.83553" lon="4.63589">
        <ele>379.63013</ele>
        <time>2023-06-04T13:43:24.000Z</time>
      </trkpt>
      <trkpt lat="45.83553" lon="4.63583">
        <ele>379.53607</ele>
        <time>2023-06-04T13:43:25.000Z</time>
      </trkpt>
      <trkpt lat="45.83549" lon="4.63579">
        <ele>379.48294</ele>
        <time>2023-06-04T13:43:26.000Z</time>
      </trkpt>
      <trkpt lat="45.83546" lon="4.63572">
        <ele>379.49701</ele>
        <time>2023-06-04T13:43:28.000Z</time>
      </trkpt>
      <trkpt lat="45.83538" lon="4.63565">
        <ele>379.54657</ele>
        <time>2023-06-04T13:43:29.000Z</time>
      </trkpt>
      <trkpt lat="45.83535" lon="4.63556">
        <ele>379.64603</ele>
        <time>2023-06-04T13:43:30.000Z</time>
      </trkpt>
      <trkpt lat="45.83531" lon="4.63551">
        <ele>379.77237</ele>
        <time>2023-06-04T13:43:31.000Z</time>
      </trkpt>
      <trkpt lat="45.83527" lon="4.63547">
        <ele>379.84244</ele>
        <time>2023-06-04T13:43:32.000Z</time>
      </trkpt>
      <trkpt lat="45.83523" lon="4.63544">
        <ele>379.94711</ele>
        <time>2023-06-04T13:43:33.000Z</time>
      </trkpt>
      <trkpt lat="45.83519" lon="4.63537">
        <ele>380.08969</ele>
        <time>2023-06-04T13:43:34.000Z</time>
      </trkpt>
      <trkpt lat="45.83516" lon="4.63527">
        <ele>380.23291</ele>
        <time>2023-06-04T13:43:35.000Z</time>
      </trkpt>
      <trkpt lat="45.83514" lon="4.6352">
        <ele>380.70837</ele>
        <time>2023-06-04T13:43:36.000Z</time>
      </trkpt>
      <trkpt lat="45.83512" lon="4.63511">
        <ele>381.10977</ele>
        <time>2023-06-04T13:43:38.000Z</time>
      </trkpt>
      <trkpt lat="45.8351" lon="4.63509">
        <ele>381.69156</ele>
        <time>2023-06-04T13:43:39.000Z</time>
      </trkpt>
      <trkpt lat="45.8351" lon="4.63501">
        <ele>381.729</ele>
        <time>2023-06-04T13:43:40.000Z</time>
      </trkpt>
      <trkpt lat="45.83507" lon="4.6349">
        <ele>381.78784</ele>
        <time>2023-06-04T13:43:41.000Z</time>
      </trkpt>
      <trkpt lat="45.83509" lon="4.63482">
        <ele>381.79117</ele>
        <time>2023-06-04T13:43:42.000Z</time>
      </trkpt>
      <trkpt lat="45.8351" lon="4.63473">
        <ele>381.84427</ele>
        <time>2023-06-04T13:43:43.000Z</time>
      </trkpt>
      <trkpt lat="45.8351" lon="4.63464">
        <ele>381.88715</ele>
        <time>2023-06-04T13:43:44.000Z</time>
      </trkpt>
      <trkpt lat="45.8352" lon="4.63468">
        <ele>382.586</ele>
        <time>2023-06-04T13:43:45.000Z</time>
      </trkpt>
      <trkpt lat="45.83522" lon="4.63459">
        <ele>382.63412</ele>
        <time>2023-06-04T13:43:46.000Z</time>
      </trkpt>
      <trkpt lat="45.83525" lon="4.63455">
        <ele>382.63266</ele>
        <time>2023-06-04T13:43:47.000Z</time>
      </trkpt>
      <trkpt lat="45.83529" lon="4.63449">
        <ele>382.53058</ele>
        <time>2023-06-04T13:43:48.000Z</time>
      </trkpt>
      <trkpt lat="45.83532" lon="4.63439">
        <ele>382.35272</ele>
        <time>2023-06-04T13:43:49.000Z</time>
      </trkpt>
      <trkpt lat="45.83536" lon="4.6343">
        <ele>382.09625</ele>
        <time>2023-06-04T13:43:50.000Z</time>
      </trkpt>
      <trkpt lat="45.8354" lon="4.63419">
        <ele>381.965</ele>
        <time>2023-06-04T13:43:51.000Z</time>
      </trkpt>
      <trkpt lat="45.83541" lon="4.63415">
        <ele>381.80048</ele>
        <time>2023-06-04T13:43:52.000Z</time>
      </trkpt>
      <trkpt lat="45.83543" lon="4.63413">
        <ele>381.74646</ele>
        <time>2023-06-04T13:43:53.000Z</time>
      </trkpt>
      <trkpt lat="45.83545" lon="4.63411">
        <ele>381.73581</ele>
        <time>2023-06-04T13:43:54.000Z</time>
      </trkpt>
      <trkpt lat="45.8355" lon="4.63408">
        <ele>381.76141</ele>
        <time>2023-06-04T13:43:55.000Z</time>
      </trkpt>
      <trkpt lat="45.83551" lon="4.634">
        <ele>381.76776</ele>
        <time>2023-06-04T13:43:56.000Z</time>
      </trkpt>
      <trkpt lat="45.8355" lon="4.6339">
        <ele>381.82269</ele>
        <time>2023-06-04T13:43:57.000Z</time>
      </trkpt>
      <trkpt lat="45.83552" lon="4.63382">
        <ele>381.89429</ele>
        <time>2023-06-04T13:43:58.000Z</time>
      </trkpt>
      <trkpt lat="45.83553" lon="4.63378">
        <ele>381.87512</ele>
        <time>2023-06-04T13:43:59.000Z</time>
      </trkpt>
      <trkpt lat="45.83556" lon="4.63366">
        <ele>381.85034</ele>
        <time>2023-06-04T13:44:00.000Z</time>
      </trkpt>
      <trkpt lat="45.83557" lon="4.63357">
        <ele>381.80908</ele>
        <time>2023-06-04T13:44:01.000Z</time>
      </trkpt>
      <trkpt lat="45.83561" lon="4.63351">
        <ele>381.75079</ele>
        <time>2023-06-04T13:44:02.000Z</time>
      </trkpt>
      <trkpt lat="45.83564" lon="4.63345">
        <ele>381.69086</ele>
        <time>2023-06-04T13:44:03.000Z</time>
      </trkpt>
      <trkpt lat="45.83571" lon="4.63334">
        <ele>381.74426</ele>
        <time>2023-06-04T13:44:04.000Z</time>
      </trkpt>
      <trkpt lat="45.83575" lon="4.63326">
        <ele>381.7562</ele>
        <time>2023-06-04T13:44:05.000Z</time>
      </trkpt>
      <trkpt lat="45.83577" lon="4.63318">
        <ele>381.36084</ele>
        <time>2023-06-04T13:44:06.000Z</time>
      </trkpt>
      <trkpt lat="45.8358" lon="4.63309">
        <ele>381.05783</ele>
        <time>2023-06-04T13:44:07.000Z</time>
      </trkpt>
      <trkpt lat="45.83585" lon="4.63302">
        <ele>380.77899</ele>
        <time>2023-06-04T13:44:08.000Z</time>
      </trkpt>
      <trkpt lat="45.83592" lon="4.63293">
        <ele>380.45953</ele>
        <time>2023-06-04T13:44:09.000Z</time>
      </trkpt>
      <trkpt lat="45.83595" lon="4.63284">
        <ele>380.18756</ele>
        <time>2023-06-04T13:44:10.000Z</time>
      </trkpt>
      <trkpt lat="45.83596" lon="4.6328">
        <ele>379.72046</ele>
        <time>2023-06-04T13:44:11.000Z</time>
      </trkpt>
      <trkpt lat="45.83597" lon="4.63269">
        <ele>379.48569</ele>
        <time>2023-06-04T13:44:12.000Z</time>
      </trkpt>
      <trkpt lat="45.83599" lon="4.63258">
        <ele>379.08539</ele>
        <time>2023-06-04T13:44:13.000Z</time>
      </trkpt>
      <trkpt lat="45.83598" lon="4.63249">
        <ele>378.63922</ele>
        <time>2023-06-04T13:44:14.000Z</time>
      </trkpt>
      <trkpt lat="45.83596" lon="4.63237">
        <ele>378.2392</ele>
        <time>2023-06-04T13:44:15.000Z</time>
      </trkpt>
      <trkpt lat="45.83594" lon="4.63226">
        <ele>377.90451</ele>
        <time>2023-06-04T13:44:16.000Z</time>
      </trkpt>
      <trkpt lat="45.83593" lon="4.63213">
        <ele>377.54205</ele>
        <time>2023-06-04T13:44:17.000Z</time>
      </trkpt>
      <trkpt lat="45.8359" lon="4.632">
        <ele>377.16754</ele>
        <time>2023-06-04T13:44:18.000Z</time>
      </trkpt>
      <trkpt lat="45.83588" lon="4.63191">
        <ele>376.87759</ele>
        <time>2023-06-04T13:44:19.000Z</time>
      </trkpt>
      <trkpt lat="45.83584" lon="4.6318">
        <ele>376.59482</ele>
        <time>2023-06-04T13:44:20.000Z</time>
      </trkpt>
      <trkpt lat="45.83582" lon="4.63169">
        <ele>376.33615</ele>
        <time>2023-06-04T13:44:21.000Z</time>
      </trkpt>
      <trkpt lat="45.83581" lon="4.63159">
        <ele>376.05933</ele>
        <time>2023-06-04T13:44:22.000Z</time>
      </trkpt>
      <trkpt lat="45.83575" lon="4.63152">
        <ele>375.7547</ele>
        <time>2023-06-04T13:44:23.000Z</time>
      </trkpt>
      <trkpt lat="45.83575" lon="4.63147">
        <ele>375.35034</ele>
        <time>2023-06-04T13:44:24.000Z</time>
      </trkpt>
      <trkpt lat="45.83569" lon="4.63139">
        <ele>374.90298</ele>
        <time>2023-06-04T13:44:25.000Z</time>
      </trkpt>
      <trkpt lat="45.83565" lon="4.6313">
        <ele>374.9545</ele>
        <time>2023-06-04T13:44:26.000Z</time>
      </trkpt>
      <trkpt lat="45.83563" lon="4.6312">
        <ele>374.9057</ele>
        <time>2023-06-04T13:44:27.000Z</time>
      </trkpt>
      <trkpt lat="45.83558" lon="4.63109">
        <ele>374.85199</ele>
        <time>2023-06-04T13:44:28.000Z</time>
      </trkpt>
      <trkpt lat="45.83556" lon="4.63097">
        <ele>374.71475</ele>
        <time>2023-06-04T13:44:29.000Z</time>
      </trkpt>
      <trkpt lat="45.83554" lon="4.63087">
        <ele>374.56271</ele>
        <time>2023-06-04T13:44:30.000Z</time>
      </trkpt>
      <trkpt lat="45.83548" lon="4.63077">
        <ele>374.55423</ele>
        <time>2023-06-04T13:44:31.000Z</time>
      </trkpt>
      <trkpt lat="45.83544" lon="4.63063">
        <ele>374.39807</ele>
        <time>2023-06-04T13:44:32.000Z</time>
      </trkpt>
      <trkpt lat="45.83538" lon="4.63055">
        <ele>374.46118</ele>
        <time>2023-06-04T13:44:33.000Z</time>
      </trkpt>
      <trkpt lat="45.83537" lon="4.63047">
        <ele>374.55264</ele>
        <time>2023-06-04T13:44:34.000Z</time>
      </trkpt>
      <trkpt lat="45.83532" lon="4.6304">
        <ele>374.55164</ele>
        <time>2023-06-04T13:44:35.000Z</time>
      </trkpt>
      <trkpt lat="45.83532" lon="4.63028">
        <ele>374.53421</ele>
        <time>2023-06-04T13:44:36.000Z</time>
      </trkpt>
      <trkpt lat="45.83534" lon="4.63018">
        <ele>374.35767</ele>
        <time>2023-06-04T13:44:37.000Z</time>
      </trkpt>
      <trkpt lat="45.83534" lon="4.63007">
        <ele>373.46133</ele>
        <time>2023-06-04T13:44:38.000Z</time>
      </trkpt>
      <trkpt lat="45.83536" lon="4.62995">
        <ele>372.09882</ele>
        <time>2023-06-04T13:44:39.000Z</time>
      </trkpt>
      <trkpt lat="45.83537" lon="4.62985">
        <ele>370.68686</ele>
        <time>2023-06-04T13:44:40.000Z</time>
      </trkpt>
      <trkpt lat="45.83536" lon="4.62976">
        <ele>369.24155</ele>
        <time>2023-06-04T13:44:41.000Z</time>
      </trkpt>
      <trkpt lat="45.83534" lon="4.62967">
        <ele>368.23398</ele>
        <time>2023-06-04T13:44:42.000Z</time>
      </trkpt>
      <trkpt lat="45.83532" lon="4.62957">
        <ele>367.22028</ele>
        <time>2023-06-04T13:44:43.000Z</time>
      </trkpt>
      <trkpt lat="45.83532" lon="4.6295">
        <ele>365.77988</ele>
        <time>2023-06-04T13:44:44.000Z</time>
      </trkpt>
      <trkpt lat="45.83533" lon="4.62942">
        <ele>364.32153</ele>
        <time>2023-06-04T13:44:45.000Z</time>
      </trkpt>
      <trkpt lat="45.83532" lon="4.62935">
        <ele>362.5719</ele>
        <time>2023-06-04T13:44:46.000Z</time>
      </trkpt>
      <trkpt lat="45.83532" lon="4.62929">
        <ele>360.88022</ele>
        <time>2023-06-04T13:44:47.000Z</time>
      </trkpt>
      <trkpt lat="45.83529" lon="4.62922">
        <ele>359.24225</ele>
        <time>2023-06-04T13:44:48.000Z</time>
      </trkpt>
      <trkpt lat="45.83528" lon="4.62914">
        <ele>357.71698</ele>
        <time>2023-06-04T13:44:49.000Z</time>
      </trkpt>
      <trkpt lat="45.83527" lon="4.62906">
        <ele>356.18475</ele>
        <time>2023-06-04T13:44:50.000Z</time>
      </trkpt>
      <trkpt lat="45.83526" lon="4.62901">
        <ele>354.56006</ele>
        <time>2023-06-04T13:44:51.000Z</time>
      </trkpt>
      <trkpt lat="45.83526" lon="4.62892">
        <ele>352.83865</ele>
        <time>2023-06-04T13:44:52.000Z</time>
      </trkpt>
      <trkpt lat="45.83523" lon="4.62886">
        <ele>351.22034</ele>
        <time>2023-06-04T13:44:53.000Z</time>
      </trkpt>
      <trkpt lat="45.83519" lon="4.62879">
        <ele>349.66711</ele>
        <time>2023-06-04T13:44:54.000Z</time>
      </trkpt>
      <trkpt lat="45.83514" lon="4.62872">
        <ele>348.11987</ele>
        <time>2023-06-04T13:44:55.000Z</time>
      </trkpt>
      <trkpt lat="45.83509" lon="4.62865">
        <ele>346.59457</ele>
        <time>2023-06-04T13:44:56.000Z</time>
      </trkpt>
      <trkpt lat="45.83506" lon="4.62859">
        <ele>345.25165</ele>
        <time>2023-06-04T13:44:57.000Z</time>
      </trkpt>
      <trkpt lat="45.83503" lon="4.62857">
        <ele>344.66797</ele>
        <time>2023-06-04T13:44:58.000Z</time>
      </trkpt>
      <trkpt lat="45.83499" lon="4.62852">
        <ele>344.53204</ele>
        <time>2023-06-04T13:44:59.000Z</time>
      </trkpt>
      <trkpt lat="45.83496" lon="4.62846">
        <ele>344.42236</ele>
        <time>2023-06-04T13:45:00.000Z</time>
      </trkpt>
      <trkpt lat="45.83492" lon="4.62845">
        <ele>344.36395</ele>
        <time>2023-06-04T13:45:01.000Z</time>
      </trkpt>
      <trkpt lat="45.83489" lon="4.62842">
        <ele>344.69217</ele>
        <time>2023-06-04T13:45:02.000Z</time>
      </trkpt>
      <trkpt lat="45.83485" lon="4.62838">
        <ele>345.09729</ele>
        <time>2023-06-04T13:45:03.000Z</time>
      </trkpt>
      <trkpt lat="45.83481" lon="4.62838">
        <ele>345.91599</ele>
        <time>2023-06-04T13:45:04.000Z</time>
      </trkpt>
      <trkpt lat="45.83475" lon="4.62834">
        <ele>346.86752</ele>
        <time>2023-06-04T13:45:05.000Z</time>
      </trkpt>
      <trkpt lat="45.83472" lon="4.62833">
        <ele>347.9935</ele>
        <time>2023-06-04T13:45:06.000Z</time>
      </trkpt>
      <trkpt lat="45.83467" lon="4.62828">
        <ele>349.02808</ele>
        <time>2023-06-04T13:45:07.000Z</time>
      </trkpt>
      <trkpt lat="45.83461" lon="4.6282">
        <ele>350.01596</ele>
        <time>2023-06-04T13:45:08.000Z</time>
      </trkpt>
      <trkpt lat="45.83456" lon="4.62814">
        <ele>351.0412</ele>
        <time>2023-06-04T13:45:09.000Z</time>
      </trkpt>
      <trkpt lat="45.83452" lon="4.6281">
        <ele>352.15506</ele>
        <time>2023-06-04T13:45:10.000Z</time>
      </trkpt>
      <trkpt lat="45.83447" lon="4.62807">
        <ele>353.25449</ele>
        <time>2023-06-04T13:45:11.000Z</time>
      </trkpt>
      <trkpt lat="45.83443" lon="4.62804">
        <ele>354.38254</ele>
        <time>2023-06-04T13:45:12.000Z</time>
      </trkpt>
      <trkpt lat="45.83438" lon="4.628">
        <ele>355.32184</ele>
        <time>2023-06-04T13:45:13.000Z</time>
      </trkpt>
      <trkpt lat="45.83434" lon="4.62797">
        <ele>356.23114</ele>
        <time>2023-06-04T13:45:14.000Z</time>
      </trkpt>
      <trkpt lat="45.83433" lon="4.62791">
        <ele>357.16324</ele>
        <time>2023-06-04T13:45:15.000Z</time>
      </trkpt>
      <trkpt lat="45.8343" lon="4.62787">
        <ele>358.24615</ele>
        <time>2023-06-04T13:45:16.000Z</time>
      </trkpt>
      <trkpt lat="45.83427" lon="4.62784">
        <ele>359.20468</ele>
        <time>2023-06-04T13:45:17.000Z</time>
      </trkpt>
      <trkpt lat="45.83424" lon="4.62781">
        <ele>360.3056</ele>
        <time>2023-06-04T13:45:18.000Z</time>
      </trkpt>
      <trkpt lat="45.83421" lon="4.62779">
        <ele>361.60376</ele>
        <time>2023-06-04T13:45:19.000Z</time>
      </trkpt>
      <trkpt lat="45.8342" lon="4.62773">
        <ele>362.88641</ele>
        <time>2023-06-04T13:45:20.000Z</time>
      </trkpt>
      <trkpt lat="45.83418" lon="4.6277">
        <ele>364.04013</ele>
        <time>2023-06-04T13:45:21.000Z</time>
      </trkpt>
      <trkpt lat="45.8341" lon="4.62768">
        <ele>364.51276</ele>
        <time>2023-06-04T13:45:22.000Z</time>
      </trkpt>
      <trkpt lat="45.83406" lon="4.62768">
        <ele>364.84821</ele>
        <time>2023-06-04T13:45:23.000Z</time>
      </trkpt>
      <trkpt lat="45.83406" lon="4.62773">
        <ele>365.25717</ele>
        <time>2023-06-04T13:45:25.000Z</time>
      </trkpt>
      <trkpt lat="45.83406" lon="4.62779">
        <ele>365.56113</ele>
        <time>2023-06-04T13:45:26.000Z</time>
      </trkpt>
      <trkpt lat="45.83406" lon="4.62784">
        <ele>365.91376</ele>
        <time>2023-06-04T13:45:27.000Z</time>
      </trkpt>
      <trkpt lat="45.83407" lon="4.62789">
        <ele>366.42249</ele>
        <time>2023-06-04T13:45:28.000Z</time>
      </trkpt>
      <trkpt lat="45.83406" lon="4.62794">
        <ele>367.27414</ele>
        <time>2023-06-04T13:45:29.000Z</time>
      </trkpt>
      <trkpt lat="45.83407" lon="4.62799">
        <ele>368.10959</ele>
        <time>2023-06-04T13:45:30.000Z</time>
      </trkpt>
      <trkpt lat="45.83407" lon="4.62803">
        <ele>368.87442</ele>
        <time>2023-06-04T13:45:31.000Z</time>
      </trkpt>
      <trkpt lat="45.83409" lon="4.62809">
        <ele>369.71149</ele>
        <time>2023-06-04T13:45:32.000Z</time>
      </trkpt>
      <trkpt lat="45.83411" lon="4.62813">
        <ele>370.62711</ele>
        <time>2023-06-04T13:45:33.000Z</time>
      </trkpt>
      <trkpt lat="45.83413" lon="4.62819">
        <ele>371.56595</ele>
        <time>2023-06-04T13:45:34.000Z</time>
      </trkpt>
      <trkpt lat="45.83416" lon="4.62824">
        <ele>372.38254</ele>
        <time>2023-06-04T13:45:35.000Z</time>
      </trkpt>
      <trkpt lat="45.83417" lon="4.62828">
        <ele>373.25397</ele>
        <time>2023-06-04T13:45:36.000Z</time>
      </trkpt>
      <trkpt lat="45.83417" lon="4.62833">
        <ele>373.87814</ele>
        <time>2023-06-04T13:45:37.000Z</time>
      </trkpt>
      <trkpt lat="45.83418" lon="4.62838">
        <ele>374.51935</ele>
        <time>2023-06-04T13:45:38.000Z</time>
      </trkpt>
      <trkpt lat="45.83418" lon="4.62844">
        <ele>375.05307</ele>
        <time>2023-06-04T13:45:39.000Z</time>
      </trkpt>
      <trkpt lat="45.83418" lon="4.62848">
        <ele>375.32184</ele>
        <time>2023-06-04T13:45:40.000Z</time>
      </trkpt>
      <trkpt lat="45.83419" lon="4.62853">
        <ele>375.51514</ele>
        <time>2023-06-04T13:45:41.000Z</time>
      </trkpt>
      <trkpt lat="45.83421" lon="4.62856">
        <ele>375.87775</ele>
        <time>2023-06-04T13:45:42.000Z</time>
      </trkpt>
      <trkpt lat="45.83422" lon="4.6286">
        <ele>376.1369</ele>
        <time>2023-06-04T13:45:43.000Z</time>
      </trkpt>
      <trkpt lat="45.83424" lon="4.62865">
        <ele>376.48355</ele>
        <time>2023-06-04T13:45:44.000Z</time>
      </trkpt>
      <trkpt lat="45.83426" lon="4.62871">
        <ele>376.76031</ele>
        <time>2023-06-04T13:45:45.000Z</time>
      </trkpt>
      <trkpt lat="45.83428" lon="4.62876">
        <ele>376.98477</ele>
        <time>2023-06-04T13:45:46.000Z</time>
      </trkpt>
      <trkpt lat="45.83429" lon="4.62881">
        <ele>377.23605</ele>
        <time>2023-06-04T13:45:47.000Z</time>
      </trkpt>
      <trkpt lat="45.83432" lon="4.62886">
        <ele>377.45126</ele>
        <time>2023-06-04T13:45:48.000Z</time>
      </trkpt>
      <trkpt lat="45.83433" lon="4.62891">
        <ele>377.39941</ele>
        <time>2023-06-04T13:45:49.000Z</time>
      </trkpt>
      <trkpt lat="45.83434" lon="4.62895">
        <ele>377.29413</ele>
        <time>2023-06-04T13:45:50.000Z</time>
      </trkpt>
      <trkpt lat="45.83434" lon="4.62899">
        <ele>377.18942</ele>
        <time>2023-06-04T13:45:51.000Z</time>
      </trkpt>
      <trkpt lat="45.83434" lon="4.62902">
        <ele>377.00287</ele>
        <time>2023-06-04T13:45:52.000Z</time>
      </trkpt>
      <trkpt lat="45.83433" lon="4.62907">
        <ele>376.81561</ele>
        <time>2023-06-04T13:45:54.000Z</time>
      </trkpt>
      <trkpt lat="45.83433" lon="4.6291">
        <ele>376.52435</ele>
        <time>2023-06-04T13:45:55.000Z</time>
      </trkpt>
      <trkpt lat="45.83434" lon="4.62916">
        <ele>376.32773</ele>
        <time>2023-06-04T13:45:56.000Z</time>
      </trkpt>
      <trkpt lat="45.83436" lon="4.62922">
        <ele>375.99561</ele>
        <time>2023-06-04T13:45:57.000Z</time>
      </trkpt>
      <trkpt lat="45.83439" lon="4.62932">
        <ele>375.74881</ele>
        <time>2023-06-04T13:45:58.000Z</time>
      </trkpt>
      <trkpt lat="45.83438" lon="4.62937">
        <ele>375.56104</ele>
        <time>2023-06-04T13:45:59.000Z</time>
      </trkpt>
      <trkpt lat="45.83438" lon="4.62941">
        <ele>375.3912</ele>
        <time>2023-06-04T13:46:00.000Z</time>
      </trkpt>
      <trkpt lat="45.83438" lon="4.62947">
        <ele>375.32858</ele>
        <time>2023-06-04T13:46:01.000Z</time>
      </trkpt>
      <trkpt lat="45.8344" lon="4.62952">
        <ele>375.43359</ele>
        <time>2023-06-04T13:46:02.000Z</time>
      </trkpt>
      <trkpt lat="45.83441" lon="4.62959">
        <ele>375.54877</ele>
        <time>2023-06-04T13:46:03.000Z</time>
      </trkpt>
      <trkpt lat="45.83443" lon="4.62961">
        <ele>375.71512</ele>
        <time>2023-06-04T13:46:04.000Z</time>
      </trkpt>
      <trkpt lat="45.83443" lon="4.62967">
        <ele>375.85287</ele>
        <time>2023-06-04T13:46:05.000Z</time>
      </trkpt>
      <trkpt lat="45.83447" lon="4.62971">
        <ele>375.98203</ele>
        <time>2023-06-04T13:46:06.000Z</time>
      </trkpt>
      <trkpt lat="45.83446" lon="4.62973">
        <ele>375.83127</ele>
        <time>2023-06-04T13:46:08.000Z</time>
      </trkpt>
      <trkpt lat="45.83445" lon="4.62978">
        <ele>375.83612</ele>
        <time>2023-06-04T13:46:09.000Z</time>
      </trkpt>
      <trkpt lat="45.83445" lon="4.62984">
        <ele>375.7547</ele>
        <time>2023-06-04T13:46:10.000Z</time>
      </trkpt>
      <trkpt lat="45.83443" lon="4.6299">
        <ele>375.64941</ele>
        <time>2023-06-04T13:46:11.000Z</time>
      </trkpt>
      <trkpt lat="45.83443" lon="4.62995">
        <ele>375.63995</ele>
        <time>2023-06-04T13:46:12.000Z</time>
      </trkpt>
      <trkpt lat="45.83442" lon="4.62999">
        <ele>375.6456</ele>
        <time>2023-06-04T13:46:13.000Z</time>
      </trkpt>
      <trkpt lat="45.83441" lon="4.63004">
        <ele>375.69156</ele>
        <time>2023-06-04T13:46:14.000Z</time>
      </trkpt>
      <trkpt lat="45.8344" lon="4.63009">
        <ele>375.59302</ele>
        <time>2023-06-04T13:46:15.000Z</time>
      </trkpt>
      <trkpt lat="45.83438" lon="4.63012">
        <ele>374.23956</ele>
        <time>2023-06-04T13:46:16.000Z</time>
      </trkpt>
      <trkpt lat="45.83436" lon="4.63015">
        <ele>372.88989</ele>
        <time>2023-06-04T13:46:18.000Z</time>
      </trkpt>
      <trkpt lat="45.83434" lon="4.63018">
        <ele>371.61279</ele>
        <time>2023-06-04T13:46:19.000Z</time>
      </trkpt>
      <trkpt lat="45.83431" lon="4.63021">
        <ele>370.33148</ele>
        <time>2023-06-04T13:46:20.000Z</time>
      </trkpt>
      <trkpt lat="45.83428" lon="4.63025">
        <ele>369.10431</ele>
        <time>2023-06-04T13:46:21.000Z</time>
      </trkpt>
      <trkpt lat="45.83424" lon="4.63029">
        <ele>367.89981</ele>
        <time>2023-06-04T13:46:22.000Z</time>
      </trkpt>
      <trkpt lat="45.8342" lon="4.63031">
        <ele>366.67142</ele>
        <time>2023-06-04T13:46:23.000Z</time>
      </trkpt>
      <trkpt lat="45.83415" lon="4.63034">
        <ele>365.34067</ele>
        <time>2023-06-04T13:46:24.000Z</time>
      </trkpt>
      <trkpt lat="45.83411" lon="4.63035">
        <ele>363.91925</ele>
        <time>2023-06-04T13:46:25.000Z</time>
      </trkpt>
      <trkpt lat="45.83407" lon="4.63036">
        <ele>362.41595</ele>
        <time>2023-06-04T13:46:26.000Z</time>
      </trkpt>
      <trkpt lat="45.83403" lon="4.63037">
        <ele>360.90115</ele>
        <time>2023-06-04T13:46:27.000Z</time>
      </trkpt>
      <trkpt lat="45.834" lon="4.63036">
        <ele>359.4306</ele>
        <time>2023-06-04T13:46:28.000Z</time>
      </trkpt>
      <trkpt lat="45.83396" lon="4.63035">
        <ele>358.33731</ele>
        <time>2023-06-04T13:46:29.000Z</time>
      </trkpt>
      <trkpt lat="45.83393" lon="4.63034">
        <ele>357.06213</ele>
        <time>2023-06-04T13:46:30.000Z</time>
      </trkpt>
      <trkpt lat="45.8339" lon="4.63032">
        <ele>355.84717</ele>
        <time>2023-06-04T13:46:31.000Z</time>
      </trkpt>
      <trkpt lat="45.83387" lon="4.63029">
        <ele>354.64743</ele>
        <time>2023-06-04T13:46:32.000Z</time>
      </trkpt>
      <trkpt lat="45.83382" lon="4.63027">
        <ele>353.40109</ele>
        <time>2023-06-04T13:46:33.000Z</time>
      </trkpt>
      <trkpt lat="45.83378" lon="4.63026">
        <ele>352.13321</ele>
        <time>2023-06-04T13:46:34.000Z</time>
      </trkpt>
      <trkpt lat="45.83374" lon="4.63026">
        <ele>350.84586</ele>
        <time>2023-06-04T13:46:35.000Z</time>
      </trkpt>
      <trkpt lat="45.83371" lon="4.63026">
        <ele>349.64984</ele>
        <time>2023-06-04T13:46:36.000Z</time>
      </trkpt>
      <trkpt lat="45.83368" lon="4.63027">
        <ele>349.76666</ele>
        <time>2023-06-04T13:46:37.000Z</time>
      </trkpt>
      <trkpt lat="45.83365" lon="4.63031">
        <ele>349.9086</ele>
        <time>2023-06-04T13:46:38.000Z</time>
      </trkpt>
      <trkpt lat="45.83363" lon="4.63035">
        <ele>350.07501</ele>
        <time>2023-06-04T13:46:39.000Z</time>
      </trkpt>
      <trkpt lat="45.83362" lon="4.63048">
        <ele>350.18988</ele>
        <time>2023-06-04T13:46:40.000Z</time>
      </trkpt>
      <trkpt lat="45.83363" lon="4.63051">
        <ele>350.35858</ele>
        <time>2023-06-04T13:46:41.000Z</time>
      </trkpt>
      <trkpt lat="45.83365" lon="4.63055">
        <ele>351.80981</ele>
        <time>2023-06-04T13:46:42.000Z</time>
      </trkpt>
      <trkpt lat="45.83364" lon="4.6306">
        <ele>353.27631</ele>
        <time>2023-06-04T13:46:43.000Z</time>
      </trkpt>
      <trkpt lat="45.83366" lon="4.63065">
        <ele>354.67065</ele>
        <time>2023-06-04T13:46:44.000Z</time>
      </trkpt>
      <trkpt lat="45.83366" lon="4.63069">
        <ele>356.11569</ele>
        <time>2023-06-04T13:46:45.000Z</time>
      </trkpt>
      <trkpt lat="45.83366" lon="4.63072">
        <ele>357.65988</ele>
        <time>2023-06-04T13:46:46.000Z</time>
      </trkpt>
      <trkpt lat="45.83363" lon="4.6308">
        <ele>359.23859</ele>
        <time>2023-06-04T13:46:47.000Z</time>
      </trkpt>
      <trkpt lat="45.83367" lon="4.63082">
        <ele>360.80789</ele>
        <time>2023-06-04T13:46:48.000Z</time>
      </trkpt>
      <trkpt lat="45.83367" lon="4.63086">
        <ele>362.30502</ele>
        <time>2023-06-04T13:46:49.000Z</time>
      </trkpt>
      <trkpt lat="45.83367" lon="4.6309">
        <ele>363.99185</ele>
        <time>2023-06-04T13:46:50.000Z</time>
      </trkpt>
      <trkpt lat="45.83367" lon="4.63094">
        <ele>365.72729</ele>
        <time>2023-06-04T13:46:51.000Z</time>
      </trkpt>
      <trkpt lat="45.83365" lon="4.63099">
        <ele>367.60382</ele>
        <time>2023-06-04T13:46:53.000Z</time>
      </trkpt>
      <trkpt lat="45.83364" lon="4.63103">
        <ele>369.11279</ele>
        <time>2023-06-04T13:46:54.000Z</time>
      </trkpt>
      <trkpt lat="45.83363" lon="4.63108">
        <ele>370.66351</ele>
        <time>2023-06-04T13:46:55.000Z</time>
      </trkpt>
      <trkpt lat="45.83362" lon="4.63113">
        <ele>372.26218</ele>
        <time>2023-06-04T13:46:56.000Z</time>
      </trkpt>
      <trkpt lat="45.83361" lon="4.63117">
        <ele>373.8476</ele>
        <time>2023-06-04T13:46:57.000Z</time>
      </trkpt>
      <trkpt lat="45.8336" lon="4.63121">
        <ele>375.42239</ele>
        <time>2023-06-04T13:46:58.000Z</time>
      </trkpt>
      <trkpt lat="45.83359" lon="4.63124">
        <ele>376.95792</ele>
        <time>2023-06-04T13:46:59.000Z</time>
      </trkpt>
      <trkpt lat="45.8336" lon="4.6313">
        <ele>378.33948</ele>
        <time>2023-06-04T13:47:01.000Z</time>
      </trkpt>
      <trkpt lat="45.83361" lon="4.63133">
        <ele>379.81097</ele>
        <time>2023-06-04T13:47:02.000Z</time>
      </trkpt>
      <trkpt lat="45.83363" lon="4.63137">
        <ele>381.17725</ele>
        <time>2023-06-04T13:47:03.000Z</time>
      </trkpt>
      <trkpt lat="45.83364" lon="4.6314">
        <ele>381.21518</ele>
        <time>2023-06-04T13:47:04.000Z</time>
      </trkpt>
      <trkpt lat="45.83364" lon="4.63144">
        <ele>381.32281</ele>
        <time>2023-06-04T13:47:05.000Z</time>
      </trkpt>
      <trkpt lat="45.83364" lon="4.63149">
        <ele>381.48868</ele>
        <time>2023-06-04T13:47:06.000Z</time>
      </trkpt>
      <trkpt lat="45.83362" lon="4.63153">
        <ele>380.97949</ele>
        <time>2023-06-04T13:47:07.000Z</time>
      </trkpt>
      <trkpt lat="45.83361" lon="4.63157">
        <ele>380.45523</ele>
        <time>2023-06-04T13:47:08.000Z</time>
      </trkpt>
      <trkpt lat="45.8336" lon="4.63161">
        <ele>379.90646</ele>
        <time>2023-06-04T13:47:09.000Z</time>
      </trkpt>
      <trkpt lat="45.83359" lon="4.63164">
        <ele>380.08221</ele>
        <time>2023-06-04T13:47:10.000Z</time>
      </trkpt>
      <trkpt lat="45.83359" lon="4.63167">
        <ele>380.23041</ele>
        <time>2023-06-04T13:47:11.000Z</time>
      </trkpt>
      <trkpt lat="45.83358" lon="4.63171">
        <ele>380.17456</ele>
        <time>2023-06-04T13:47:12.000Z</time>
      </trkpt>
      <trkpt lat="45.83358" lon="4.63174">
        <ele>380.01007</ele>
        <time>2023-06-04T13:47:13.000Z</time>
      </trkpt>
      <trkpt lat="45.83358" lon="4.63178">
        <ele>379.03259</ele>
        <time>2023-06-04T13:47:14.000Z</time>
      </trkpt>
      <trkpt lat="45.83358" lon="4.63182">
        <ele>378.40884</ele>
        <time>2023-06-04T13:47:15.000Z</time>
      </trkpt>
      <trkpt lat="45.83357" lon="4.63186">
        <ele>377.74673</ele>
        <time>2023-06-04T13:47:16.000Z</time>
      </trkpt>
      <trkpt lat="45.83357" lon="4.6319">
        <ele>377.04523</ele>
        <time>2023-06-04T13:47:17.000Z</time>
      </trkpt>
      <trkpt lat="45.83356" lon="4.63195">
        <ele>377.10419</ele>
        <time>2023-06-04T13:47:18.000Z</time>
      </trkpt>
      <trkpt lat="45.83356" lon="4.632">
        <ele>377.04105</ele>
        <time>2023-06-04T13:47:19.000Z</time>
      </trkpt>
      <trkpt lat="45.83355" lon="4.63202">
        <ele>377.05414</ele>
        <time>2023-06-04T13:47:20.000Z</time>
      </trkpt>
      <trkpt lat="45.83355" lon="4.63205">
        <ele>377.29837</ele>
        <time>2023-06-04T13:47:21.000Z</time>
      </trkpt>
      <trkpt lat="45.83354" lon="4.63208">
        <ele>377.54486</ele>
        <time>2023-06-04T13:47:22.000Z</time>
      </trkpt>
      <trkpt lat="45.83353" lon="4.63212">
        <ele>377.81573</ele>
        <time>2023-06-04T13:47:23.000Z</time>
      </trkpt>
      <trkpt lat="45.83353" lon="4.63217">
        <ele>378.07849</ele>
        <time>2023-06-04T13:47:24.000Z</time>
      </trkpt>
      <trkpt lat="45.83352" lon="4.63223">
        <ele>378.25186</ele>
        <time>2023-06-04T13:47:25.000Z</time>
      </trkpt>
      <trkpt lat="45.83351" lon="4.63228">
        <ele>378.51184</ele>
        <time>2023-06-04T13:47:26.000Z</time>
      </trkpt>
      <trkpt lat="45.83349" lon="4.63233">
        <ele>379.37399</ele>
        <time>2023-06-04T13:47:27.000Z</time>
      </trkpt>
      <trkpt lat="45.83348" lon="4.63237">
        <ele>380.18378</ele>
        <time>2023-06-04T13:47:28.000Z</time>
      </trkpt>
      <trkpt lat="45.83347" lon="4.6324">
        <ele>381.07513</ele>
        <time>2023-06-04T13:47:29.000Z</time>
      </trkpt>
      <trkpt lat="45.83348" lon="4.63242">
        <ele>381.20184</ele>
        <time>2023-06-04T13:47:30.000Z</time>
      </trkpt>
      <trkpt lat="45.83349" lon="4.63246">
        <ele>381.4201</ele>
        <time>2023-06-04T13:47:31.000Z</time>
      </trkpt>
      <trkpt lat="45.8335" lon="4.63251">
        <ele>381.71439</ele>
        <time>2023-06-04T13:47:32.000Z</time>
      </trkpt>
      <trkpt lat="45.83351" lon="4.63255">
        <ele>382.0788</ele>
        <time>2023-06-04T13:47:33.000Z</time>
      </trkpt>
      <trkpt lat="45.83351" lon="4.63259">
        <ele>383.12817</ele>
        <time>2023-06-04T13:47:34.000Z</time>
      </trkpt>
      <trkpt lat="45.83352" lon="4.63264">
        <ele>384.15973</ele>
        <time>2023-06-04T13:47:35.000Z</time>
      </trkpt>
      <trkpt lat="45.83352" lon="4.63269">
        <ele>385.17841</ele>
        <time>2023-06-04T13:47:36.000Z</time>
      </trkpt>
      <trkpt lat="45.83352" lon="4.63273">
        <ele>386.20819</ele>
        <time>2023-06-04T13:47:37.000Z</time>
      </trkpt>
      <trkpt lat="45.83352" lon="4.63278">
        <ele>386.49942</ele>
        <time>2023-06-04T13:47:38.000Z</time>
      </trkpt>
      <trkpt lat="45.83351" lon="4.63283">
        <ele>386.93536</ele>
        <time>2023-06-04T13:47:39.000Z</time>
      </trkpt>
      <trkpt lat="45.83351" lon="4.63288">
        <ele>387.29474</ele>
        <time>2023-06-04T13:47:40.000Z</time>
      </trkpt>
      <trkpt lat="45.8335" lon="4.63294">
        <ele>387.67667</ele>
        <time>2023-06-04T13:47:41.000Z</time>
      </trkpt>
      <trkpt lat="45.83351" lon="4.633">
        <ele>388.01538</ele>
        <time>2023-06-04T13:47:42.000Z</time>
      </trkpt>
      <trkpt lat="45.83351" lon="4.63304">
        <ele>388.33261</ele>
        <time>2023-06-04T13:47:43.000Z</time>
      </trkpt>
      <trkpt lat="45.83351" lon="4.63308">
        <ele>388.65997</ele>
        <time>2023-06-04T13:47:44.000Z</time>
      </trkpt>
      <trkpt lat="45.83351" lon="4.63312">
        <ele>388.99332</ele>
        <time>2023-06-04T13:47:45.000Z</time>
      </trkpt>
      <trkpt lat="45.8335" lon="4.63316">
        <ele>389.2923</ele>
        <time>2023-06-04T13:47:46.000Z</time>
      </trkpt>
      <trkpt lat="45.83349" lon="4.63319">
        <ele>389.64459</ele>
        <time>2023-06-04T13:47:47.000Z</time>
      </trkpt>
      <trkpt lat="45.83347" lon="4.63324">
        <ele>390.008</ele>
        <time>2023-06-04T13:47:48.000Z</time>
      </trkpt>
      <trkpt lat="45.83347" lon="4.63328">
        <ele>390.31934</ele>
        <time>2023-06-04T13:47:49.000Z</time>
      </trkpt>
      <trkpt lat="45.83347" lon="4.63332">
        <ele>390.62445</ele>
        <time>2023-06-04T13:47:50.000Z</time>
      </trkpt>
      <trkpt lat="45.83347" lon="4.63336">
        <ele>390.90851</ele>
        <time>2023-06-04T13:47:51.000Z</time>
      </trkpt>
      <trkpt lat="45.83347" lon="4.63341">
        <ele>391.16412</ele>
        <time>2023-06-04T13:47:52.000Z</time>
      </trkpt>
      <trkpt lat="45.83347" lon="4.63345">
        <ele>391.29279</ele>
        <time>2023-06-04T13:47:53.000Z</time>
      </trkpt>
      <trkpt lat="45.83346" lon="4.6335">
        <ele>391.40497</ele>
        <time>2023-06-04T13:47:54.000Z</time>
      </trkpt>
      <trkpt lat="45.83345" lon="4.63356">
        <ele>391.64044</ele>
        <time>2023-06-04T13:47:55.000Z</time>
      </trkpt>
      <trkpt lat="45.83345" lon="4.63361">
        <ele>391.82925</ele>
        <time>2023-06-04T13:47:56.000Z</time>
      </trkpt>
      <trkpt lat="45.83344" lon="4.63366">
        <ele>392.02396</ele>
        <time>2023-06-04T13:47:57.000Z</time>
      </trkpt>
      <trkpt lat="45.83343" lon="4.63371">
        <ele>392.18622</ele>
        <time>2023-06-04T13:47:58.000Z</time>
      </trkpt>
      <trkpt lat="45.83341" lon="4.63377">
        <ele>392.33636</ele>
        <time>2023-06-04T13:47:59.000Z</time>
      </trkpt>
      <trkpt lat="45.83339" lon="4.63381">
        <ele>392.49741</ele>
        <time>2023-06-04T13:48:00.000Z</time>
      </trkpt>
      <trkpt lat="45.83337" lon="4.63385">
        <ele>392.56549</ele>
        <time>2023-06-04T13:48:01.000Z</time>
      </trkpt>
      <trkpt lat="45.83336" lon="4.63389">
        <ele>392.64127</ele>
        <time>2023-06-04T13:48:02.000Z</time>
      </trkpt>
      <trkpt lat="45.83335" lon="4.63393">
        <ele>392.74597</ele>
        <time>2023-06-04T13:48:03.000Z</time>
      </trkpt>
      <trkpt lat="45.83334" lon="4.63397">
        <ele>392.85718</ele>
        <time>2023-06-04T13:48:04.000Z</time>
      </trkpt>
      <trkpt lat="45.83334" lon="4.634">
        <ele>392.9747</ele>
        <time>2023-06-04T13:48:05.000Z</time>
      </trkpt>
      <trkpt lat="45.83334" lon="4.63404">
        <ele>393.04413</ele>
        <time>2023-06-04T13:48:06.000Z</time>
      </trkpt>
      <trkpt lat="45.83335" lon="4.63409">
        <ele>393.08344</ele>
        <time>2023-06-04T13:48:07.000Z</time>
      </trkpt>
      <trkpt lat="45.83335" lon="4.63413">
        <ele>393.1156</ele>
        <time>2023-06-04T13:48:08.000Z</time>
      </trkpt>
      <trkpt lat="45.83334" lon="4.63418">
        <ele>393.13324</ele>
        <time>2023-06-04T13:48:09.000Z</time>
      </trkpt>
      <trkpt lat="45.83334" lon="4.63424">
        <ele>393.17169</ele>
        <time>2023-06-04T13:48:10.000Z</time>
      </trkpt>
      <trkpt lat="45.83334" lon="4.63428">
        <ele>393.25946</ele>
        <time>2023-06-04T13:48:11.000Z</time>
      </trkpt>
      <trkpt lat="45.83334" lon="4.63431">
        <ele>393.35995</ele>
        <time>2023-06-04T13:48:12.000Z</time>
      </trkpt>
      <trkpt lat="45.83334" lon="4.63434">
        <ele>393.5556</ele>
        <time>2023-06-04T13:48:13.000Z</time>
      </trkpt>
      <trkpt lat="45.83334" lon="4.63438">
        <ele>393.73013</ele>
        <time>2023-06-04T13:48:14.000Z</time>
      </trkpt>
      <trkpt lat="45.83333" lon="4.63442">
        <ele>393.83066</ele>
        <time>2023-06-04T13:48:15.000Z</time>
      </trkpt>
      <trkpt lat="45.83332" lon="4.63447">
        <ele>393.98267</ele>
        <time>2023-06-04T13:48:16.000Z</time>
      </trkpt>
      <trkpt lat="45.83332" lon="4.63451">
        <ele>394.12125</ele>
        <time>2023-06-04T13:48:17.000Z</time>
      </trkpt>
      <trkpt lat="45.83333" lon="4.63455">
        <ele>394.27927</ele>
        <time>2023-06-04T13:48:18.000Z</time>
      </trkpt>
      <trkpt lat="45.83333" lon="4.63459">
        <ele>394.43878</ele>
        <time>2023-06-04T13:48:19.000Z</time>
      </trkpt>
      <trkpt lat="45.83333" lon="4.63462">
        <ele>394.61639</ele>
        <time>2023-06-04T13:48:20.000Z</time>
      </trkpt>
      <trkpt lat="45.83331" lon="4.63465">
        <ele>394.80255</ele>
        <time>2023-06-04T13:48:21.000Z</time>
      </trkpt>
      <trkpt lat="45.83328" lon="4.63468">
        <ele>394.98703</ele>
        <time>2023-06-04T13:48:22.000Z</time>
      </trkpt>
      <trkpt lat="45.83325" lon="4.63471">
        <ele>395.17139</ele>
        <time>2023-06-04T13:48:23.000Z</time>
      </trkpt>
      <trkpt lat="45.83324" lon="4.63474">
        <ele>395.34937</ele>
        <time>2023-06-04T13:48:24.000Z</time>
      </trkpt>
      <trkpt lat="45.83323" lon="4.63477">
        <ele>395.52133</ele>
        <time>2023-06-04T13:48:25.000Z</time>
      </trkpt>
      <trkpt lat="45.83325" lon="4.6348">
        <ele>395.69586</ele>
        <time>2023-06-04T13:48:26.000Z</time>
      </trkpt>
      <trkpt lat="45.83325" lon="4.63485">
        <ele>395.89191</ele>
        <time>2023-06-04T13:48:27.000Z</time>
      </trkpt>
      <trkpt lat="45.83325" lon="4.63491">
        <ele>396.09848</ele>
        <time>2023-06-04T13:48:28.000Z</time>
      </trkpt>
      <trkpt lat="45.83325" lon="4.63497">
        <ele>396.31177</ele>
        <time>2023-06-04T13:48:29.000Z</time>
      </trkpt>
      <trkpt lat="45.83325" lon="4.63502">
        <ele>396.5108</ele>
        <time>2023-06-04T13:48:30.000Z</time>
      </trkpt>
      <trkpt lat="45.83325" lon="4.63508">
        <ele>396.66769</ele>
        <time>2023-06-04T13:48:31.000Z</time>
      </trkpt>
      <trkpt lat="45.83325" lon="4.63512">
        <ele>396.77261</ele>
        <time>2023-06-04T13:48:32.000Z</time>
      </trkpt>
      <trkpt lat="45.83324" lon="4.63517">
        <ele>396.90891</ele>
        <time>2023-06-04T13:48:33.000Z</time>
      </trkpt>
      <trkpt lat="45.83322" lon="4.63523">
        <ele>397.0477</ele>
        <time>2023-06-04T13:48:34.000Z</time>
      </trkpt>
      <trkpt lat="45.83309" lon="4.63533">
        <ele>397.08777</ele>
        <time>2023-06-04T13:48:35.000Z</time>
      </trkpt>
      <trkpt lat="45.83309" lon="4.63537">
        <ele>397.11993</ele>
        <time>2023-06-04T13:48:36.000Z</time>
      </trkpt>
      <trkpt lat="45.83308" lon="4.63542">
        <ele>397.14551</ele>
        <time>2023-06-04T13:48:37.000Z</time>
      </trkpt>
      <trkpt lat="45.83308" lon="4.63547">
        <ele>397.16913</ele>
        <time>2023-06-04T13:48:38.000Z</time>
      </trkpt>
      <trkpt lat="45.83309" lon="4.63553">
        <ele>397.17789</ele>
        <time>2023-06-04T13:48:39.000Z</time>
      </trkpt>
      <trkpt lat="45.83312" lon="4.6355">
        <ele>397.21173</ele>
        <time>2023-06-04T13:48:40.000Z</time>
      </trkpt>
      <trkpt lat="45.83314" lon="4.63558">
        <ele>397.20834</ele>
        <time>2023-06-04T13:48:41.000Z</time>
      </trkpt>
      <trkpt lat="45.83312" lon="4.63564">
        <ele>397.22607</ele>
        <time>2023-06-04T13:48:42.000Z</time>
      </trkpt>
      <trkpt lat="45.83309" lon="4.63567">
        <ele>397.2478</ele>
        <time>2023-06-04T13:48:43.000Z</time>
      </trkpt>
      <trkpt lat="45.8331" lon="4.63571">
        <ele>397.25497</ele>
        <time>2023-06-04T13:48:44.000Z</time>
      </trkpt>
      <trkpt lat="45.83309" lon="4.63574">
        <ele>397.25336</ele>
        <time>2023-06-04T13:48:45.000Z</time>
      </trkpt>
      <trkpt lat="45.83307" lon="4.63576">
        <ele>397.26166</ele>
        <time>2023-06-04T13:48:46.000Z</time>
      </trkpt>
      <trkpt lat="45.83305" lon="4.63578">
        <ele>397.26266</ele>
        <time>2023-06-04T13:48:47.000Z</time>
      </trkpt>
      <trkpt lat="45.83303" lon="4.63581">
        <ele>397.22137</ele>
        <time>2023-06-04T13:48:48.000Z</time>
      </trkpt>
      <trkpt lat="45.83301" lon="4.63585">
        <ele>397.18301</ele>
        <time>2023-06-04T13:48:49.000Z</time>
      </trkpt>
      <trkpt lat="45.83301" lon="4.6359">
        <ele>397.21542</ele>
        <time>2023-06-04T13:48:50.000Z</time>
      </trkpt>
      <trkpt lat="45.833" lon="4.63594">
        <ele>397.27533</ele>
        <time>2023-06-04T13:48:51.000Z</time>
      </trkpt>
      <trkpt lat="45.83301" lon="4.63599">
        <ele>397.3634</ele>
        <time>2023-06-04T13:48:52.000Z</time>
      </trkpt>
      <trkpt lat="45.83301" lon="4.63604">
        <ele>397.46744</ele>
        <time>2023-06-04T13:48:53.000Z</time>
      </trkpt>
      <trkpt lat="45.83301" lon="4.6361">
        <ele>397.59967</ele>
        <time>2023-06-04T13:48:54.000Z</time>
      </trkpt>
      <trkpt lat="45.83299" lon="4.63614">
        <ele>397.79449</ele>
        <time>2023-06-04T13:48:55.000Z</time>
      </trkpt>
      <trkpt lat="45.83297" lon="4.63618">
        <ele>398.02066</ele>
        <time>2023-06-04T13:48:56.000Z</time>
      </trkpt>
      <trkpt lat="45.83295" lon="4.63622">
        <ele>398.27173</ele>
        <time>2023-06-04T13:48:57.000Z</time>
      </trkpt>
      <trkpt lat="45.83293" lon="4.63627">
        <ele>398.50018</ele>
        <time>2023-06-04T13:48:58.000Z</time>
      </trkpt>
      <trkpt lat="45.83291" lon="4.63632">
        <ele>398.72455</ele>
        <time>2023-06-04T13:48:59.000Z</time>
      </trkpt>
      <trkpt lat="45.83291" lon="4.63638">
        <ele>398.89981</ele>
        <time>2023-06-04T13:49:00.000Z</time>
      </trkpt>
      <trkpt lat="45.83291" lon="4.63643">
        <ele>399.08459</ele>
        <time>2023-06-04T13:49:01.000Z</time>
      </trkpt>
      <trkpt lat="45.83292" lon="4.63646">
        <ele>399.26215</ele>
        <time>2023-06-04T13:49:02.000Z</time>
      </trkpt>
      <trkpt lat="45.83291" lon="4.6365">
        <ele>399.42816</ele>
        <time>2023-06-04T13:49:03.000Z</time>
      </trkpt>
      <trkpt lat="45.8329" lon="4.63655">
        <ele>399.63913</ele>
        <time>2023-06-04T13:49:04.000Z</time>
      </trkpt>
      <trkpt lat="45.83289" lon="4.63658">
        <ele>399.87363</ele>
        <time>2023-06-04T13:49:05.000Z</time>
      </trkpt>
      <trkpt lat="45.83288" lon="4.63663">
        <ele>400.15747</ele>
        <time>2023-06-04T13:49:07.000Z</time>
      </trkpt>
      <trkpt lat="45.83287" lon="4.63667">
        <ele>400.58508</ele>
        <time>2023-06-04T13:49:09.000Z</time>
      </trkpt>
      <trkpt lat="45.83285" lon="4.63671">
        <ele>401.08475</ele>
        <time>2023-06-04T13:49:10.000Z</time>
      </trkpt>
      <trkpt lat="45.83284" lon="4.63674">
        <ele>401.53741</ele>
        <time>2023-06-04T13:49:11.000Z</time>
      </trkpt>
      <trkpt lat="45.83283" lon="4.63677">
        <ele>401.94046</ele>
        <time>2023-06-04T13:49:12.000Z</time>
      </trkpt>
      <trkpt lat="45.83282" lon="4.63682">
        <ele>402.30115</ele>
        <time>2023-06-04T13:49:13.000Z</time>
      </trkpt>
      <trkpt lat="45.83282" lon="4.63686">
        <ele>402.72882</ele>
        <time>2023-06-04T13:49:14.000Z</time>
      </trkpt>
      <trkpt lat="45.83282" lon="4.63691">
        <ele>403.13654</ele>
        <time>2023-06-04T13:49:15.000Z</time>
      </trkpt>
      <trkpt lat="45.83282" lon="4.63695">
        <ele>403.45703</ele>
        <time>2023-06-04T13:49:16.000Z</time>
      </trkpt>
      <trkpt lat="45.83281" lon="4.63697">
        <ele>403.75021</ele>
        <time>2023-06-04T13:49:17.000Z</time>
      </trkpt>
      <trkpt lat="45.83281" lon="4.63702">
        <ele>404.03876</ele>
        <time>2023-06-04T13:49:19.000Z</time>
      </trkpt>
      <trkpt lat="45.8328" lon="4.63706">
        <ele>404.32074</ele>
        <time>2023-06-04T13:49:20.000Z</time>
      </trkpt>
      <trkpt lat="45.8328" lon="4.63711">
        <ele>404.48779</ele>
        <time>2023-06-04T13:49:21.000Z</time>
      </trkpt>
      <trkpt lat="45.8328" lon="4.63714">
        <ele>404.65948</ele>
        <time>2023-06-04T13:49:22.000Z</time>
      </trkpt>
      <trkpt lat="45.8328" lon="4.63718">
        <ele>404.86005</ele>
        <time>2023-06-04T13:49:23.000Z</time>
      </trkpt>
      <trkpt lat="45.83279" lon="4.63723">
        <ele>403.75378</ele>
        <time>2023-06-04T13:49:24.000Z</time>
      </trkpt>
      <trkpt lat="45.83278" lon="4.63726">
        <ele>402.78839</ele>
        <time>2023-06-04T13:49:25.000Z</time>
      </trkpt>
      <trkpt lat="45.83277" lon="4.6373">
        <ele>401.77567</ele>
        <time>2023-06-04T13:49:26.000Z</time>
      </trkpt>
      <trkpt lat="45.83277" lon="4.63733">
        <ele>400.70987</ele>
        <time>2023-06-04T13:49:27.000Z</time>
      </trkpt>
      <trkpt lat="45.83276" lon="4.63736">
        <ele>399.6127</ele>
        <time>2023-06-04T13:49:28.000Z</time>
      </trkpt>
      <trkpt lat="45.83276" lon="4.6374">
        <ele>398.31308</ele>
        <time>2023-06-04T13:49:29.000Z</time>
      </trkpt>
      <trkpt lat="45.83276" lon="4.63745">
        <ele>396.83109</ele>
        <time>2023-06-04T13:49:30.000Z</time>
      </trkpt>
      <trkpt lat="45.83276" lon="4.6375">
        <ele>395.42261</ele>
        <time>2023-06-04T13:49:31.000Z</time>
      </trkpt>
      <trkpt lat="45.83277" lon="4.63755">
        <ele>394.06879</ele>
        <time>2023-06-04T13:49:32.000Z</time>
      </trkpt>
      <trkpt lat="45.83277" lon="4.63758">
        <ele>394.10114</ele>
        <time>2023-06-04T13:49:33.000Z</time>
      </trkpt>
      <trkpt lat="45.83277" lon="4.63762">
        <ele>394.22406</ele>
        <time>2023-06-04T13:49:34.000Z</time>
      </trkpt>
      <trkpt lat="45.83277" lon="4.63766">
        <ele>394.23483</ele>
        <time>2023-06-04T13:49:35.000Z</time>
      </trkpt>
      <trkpt lat="45.83276" lon="4.6377">
        <ele>394.05469</ele>
        <time>2023-06-04T13:49:36.000Z</time>
      </trkpt>
      <trkpt lat="45.83276" lon="4.63774">
        <ele>394.07904</ele>
        <time>2023-06-04T13:49:37.000Z</time>
      </trkpt>
      <trkpt lat="45.83274" lon="4.63776">
        <ele>394.11469</ele>
        <time>2023-06-04T13:49:38.000Z</time>
      </trkpt>
      <trkpt lat="45.83273" lon="4.63779">
        <ele>394.0993</ele>
        <time>2023-06-04T13:49:39.000Z</time>
      </trkpt>
      <trkpt lat="45.83272" lon="4.63783">
        <ele>394.04718</ele>
        <time>2023-06-04T13:49:40.000Z</time>
      </trkpt>
      <trkpt lat="45.83271" lon="4.63786">
        <ele>394.15485</ele>
        <time>2023-06-04T13:49:41.000Z</time>
      </trkpt>
      <trkpt lat="45.83271" lon="4.63791">
        <ele>394.27829</ele>
        <time>2023-06-04T13:49:42.000Z</time>
      </trkpt>
      <trkpt lat="45.83271" lon="4.63797">
        <ele>394.41101</ele>
        <time>2023-06-04T13:49:43.000Z</time>
      </trkpt>
      <trkpt lat="45.8327" lon="4.63802">
        <ele>395.89554</ele>
        <time>2023-06-04T13:49:44.000Z</time>
      </trkpt>
      <trkpt lat="45.83269" lon="4.63806">
        <ele>397.25931</ele>
        <time>2023-06-04T13:49:45.000Z</time>
      </trkpt>
      <trkpt lat="45.83269" lon="4.6381">
        <ele>398.70331</ele>
        <time>2023-06-04T13:49:46.000Z</time>
      </trkpt>
      <trkpt lat="45.83269" lon="4.63815">
        <ele>400.11032</ele>
        <time>2023-06-04T13:49:47.000Z</time>
      </trkpt>
      <trkpt lat="45.83268" lon="4.63818">
        <ele>401.42416</ele>
        <time>2023-06-04T13:49:48.000Z</time>
      </trkpt>
      <trkpt lat="45.83268" lon="4.63822">
        <ele>402.87775</ele>
        <time>2023-06-04T13:49:49.000Z</time>
      </trkpt>
      <trkpt lat="45.83267" lon="4.63827">
        <ele>404.4028</ele>
        <time>2023-06-04T13:49:51.000Z</time>
      </trkpt>
      <trkpt lat="45.83267" lon="4.63831">
        <ele>406.04688</ele>
        <time>2023-06-04T13:49:52.000Z</time>
      </trkpt>
      <trkpt lat="45.83266" lon="4.63835">
        <ele>407.78806</ele>
        <time>2023-06-04T13:49:53.000Z</time>
      </trkpt>
      <trkpt lat="45.83264" lon="4.63838">
        <ele>408.09937</ele>
        <time>2023-06-04T13:49:54.000Z</time>
      </trkpt>
      <trkpt lat="45.83262" lon="4.63841">
        <ele>408.34146</ele>
        <time>2023-06-04T13:49:55.000Z</time>
      </trkpt>
      <trkpt lat="45.83261" lon="4.63844">
        <ele>408.58719</ele>
        <time>2023-06-04T13:49:56.000Z</time>
      </trkpt>
      <trkpt lat="45.8326" lon="4.63849">
        <ele>409.0611</ele>
        <time>2023-06-04T13:49:57.000Z</time>
      </trkpt>
      <trkpt lat="45.8326" lon="4.63854">
        <ele>409.42767</ele>
        <time>2023-06-04T13:49:58.000Z</time>
      </trkpt>
      <trkpt lat="45.83258" lon="4.63859">
        <ele>409.83408</ele>
        <time>2023-06-04T13:50:00.000Z</time>
      </trkpt>
      <trkpt lat="45.83256" lon="4.63861">
        <ele>410.20758</ele>
        <time>2023-06-04T13:50:01.000Z</time>
      </trkpt>
      <trkpt lat="45.83254" lon="4.63864">
        <ele>410.64545</ele>
        <time>2023-06-04T13:50:02.000Z</time>
      </trkpt>
      <trkpt lat="45.83252" lon="4.63867">
        <ele>411.04852</ele>
        <time>2023-06-04T13:50:03.000Z</time>
      </trkpt>
      <trkpt lat="45.83249" lon="4.6387">
        <ele>411.54126</ele>
        <time>2023-06-04T13:50:04.000Z</time>
      </trkpt>
      <trkpt lat="45.83246" lon="4.6387">
        <ele>412.01334</ele>
        <time>2023-06-04T13:50:05.000Z</time>
      </trkpt>
      <trkpt lat="45.83244" lon="4.63869">
        <ele>412.45679</ele>
        <time>2023-06-04T13:50:06.000Z</time>
      </trkpt>
      <trkpt lat="45.8324" lon="4.63865">
        <ele>412.867</ele>
        <time>2023-06-04T13:50:07.000Z</time>
      </trkpt>
      <trkpt lat="45.83237" lon="4.63862">
        <ele>412.23911</ele>
        <time>2023-06-04T13:50:08.000Z</time>
      </trkpt>
      <trkpt lat="45.83234" lon="4.63858">
        <ele>411.7337</ele>
        <time>2023-06-04T13:50:09.000Z</time>
      </trkpt>
      <trkpt lat="45.83232" lon="4.63856">
        <ele>411.35464</ele>
        <time>2023-06-04T13:50:10.000Z</time>
      </trkpt>
      <trkpt lat="45.8323" lon="4.63853">
        <ele>410.93945</ele>
        <time>2023-06-04T13:50:11.000Z</time>
      </trkpt>
      <trkpt lat="45.83229" lon="4.6385">
        <ele>410.20148</ele>
        <time>2023-06-04T13:50:12.000Z</time>
      </trkpt>
      <trkpt lat="45.83226" lon="4.63848">
        <ele>410.09503</ele>
        <time>2023-06-04T13:50:13.000Z</time>
      </trkpt>
      <trkpt lat="45.83224" lon="4.63845">
        <ele>409.86581</ele>
        <time>2023-06-04T13:50:14.000Z</time>
      </trkpt>
      <trkpt lat="45.83222" lon="4.63844">
        <ele>409.67609</ele>
        <time>2023-06-04T13:50:15.000Z</time>
      </trkpt>
      <trkpt lat="45.83219" lon="4.63842">
        <ele>409.49225</ele>
        <time>2023-06-04T13:50:16.000Z</time>
      </trkpt>
      <trkpt lat="45.83217" lon="4.6384">
        <ele>409.61676</ele>
        <time>2023-06-04T13:50:17.000Z</time>
      </trkpt>
      <trkpt lat="45.83214" lon="4.63839">
        <ele>409.70273</ele>
        <time>2023-06-04T13:50:18.000Z</time>
      </trkpt>
      <trkpt lat="45.83211" lon="4.63837">
        <ele>409.7457</ele>
        <time>2023-06-04T13:50:19.000Z</time>
      </trkpt>
      <trkpt lat="45.83208" lon="4.63835">
        <ele>409.86871</ele>
        <time>2023-06-04T13:50:20.000Z</time>
      </trkpt>
      <trkpt lat="45.83206" lon="4.63833">
        <ele>410.25385</ele>
        <time>2023-06-04T13:50:21.000Z</time>
      </trkpt>
      <trkpt lat="45.83203" lon="4.6383">
        <ele>410.7189</ele>
        <time>2023-06-04T13:50:22.000Z</time>
      </trkpt>
      <trkpt lat="45.83201" lon="4.63829">
        <ele>411.19345</ele>
        <time>2023-06-04T13:50:23.000Z</time>
      </trkpt>
      <trkpt lat="45.83199" lon="4.63827">
        <ele>411.56415</ele>
        <time>2023-06-04T13:50:24.000Z</time>
      </trkpt>
      <trkpt lat="45.83197" lon="4.63826">
        <ele>411.96826</ele>
        <time>2023-06-04T13:50:25.000Z</time>
      </trkpt>
      <trkpt lat="45.83195" lon="4.63825">
        <ele>412.32584</ele>
        <time>2023-06-04T13:50:26.000Z</time>
      </trkpt>
      <trkpt lat="45.83192" lon="4.63824">
        <ele>412.70499</ele>
        <time>2023-06-04T13:50:27.000Z</time>
      </trkpt>
      <trkpt lat="45.83188" lon="4.63822">
        <ele>414.12372</ele>
        <time>2023-06-04T13:50:28.000Z</time>
      </trkpt>
      <trkpt lat="45.83184" lon="4.63821">
        <ele>415.5379</ele>
        <time>2023-06-04T13:50:29.000Z</time>
      </trkpt>
      <trkpt lat="45.83181" lon="4.6382">
        <ele>416.95688</ele>
        <time>2023-06-04T13:50:30.000Z</time>
      </trkpt>
      <trkpt lat="45.83177" lon="4.63819">
        <ele>418.40985</ele>
        <time>2023-06-04T13:50:31.000Z</time>
      </trkpt>
      <trkpt lat="45.83174" lon="4.63816">
        <ele>420.07642</ele>
        <time>2023-06-04T13:50:32.000Z</time>
      </trkpt>
      <trkpt lat="45.83171" lon="4.63813">
        <ele>420.89154</ele>
        <time>2023-06-04T13:50:33.000Z</time>
      </trkpt>
      <trkpt lat="45.83169" lon="4.63811">
        <ele>421.71246</ele>
        <time>2023-06-04T13:50:34.000Z</time>
      </trkpt>
      <trkpt lat="45.83166" lon="4.63807">
        <ele>422.45978</ele>
        <time>2023-06-04T13:50:35.000Z</time>
      </trkpt>
      <trkpt lat="45.83163" lon="4.63804">
        <ele>423.19989</ele>
        <time>2023-06-04T13:50:36.000Z</time>
      </trkpt>
      <trkpt lat="45.83161" lon="4.63802">
        <ele>423.5838</ele>
        <time>2023-06-04T13:50:37.000Z</time>
      </trkpt>
      <trkpt lat="45.83159" lon="4.63801">
        <ele>423.97723</ele>
        <time>2023-06-04T13:50:38.000Z</time>
      </trkpt>
      <trkpt lat="45.83156" lon="4.638">
        <ele>424.46793</ele>
        <time>2023-06-04T13:50:39.000Z</time>
      </trkpt>
      <trkpt lat="45.83152" lon="4.63798">
        <ele>424.87094</ele>
        <time>2023-06-04T13:50:40.000Z</time>
      </trkpt>
      <trkpt lat="45.83149" lon="4.63797">
        <ele>425.1546</ele>
        <time>2023-06-04T13:50:41.000Z</time>
      </trkpt>
      <trkpt lat="45.83146" lon="4.63796">
        <ele>425.33237</ele>
        <time>2023-06-04T13:50:42.000Z</time>
      </trkpt>
      <trkpt lat="45.83142" lon="4.63794">
        <ele>425.48413</ele>
        <time>2023-06-04T13:50:43.000Z</time>
      </trkpt>
      <trkpt lat="45.83139" lon="4.63792">
        <ele>425.61435</ele>
        <time>2023-06-04T13:50:44.000Z</time>
      </trkpt>
      <trkpt lat="45.83137" lon="4.63791">
        <ele>425.6604</ele>
        <time>2023-06-04T13:50:45.000Z</time>
      </trkpt>
      <trkpt lat="45.83133" lon="4.63788">
        <ele>425.7453</ele>
        <time>2023-06-04T13:50:47.000Z</time>
      </trkpt>
      <trkpt lat="45.83131" lon="4.63786">
        <ele>425.80688</ele>
        <time>2023-06-04T13:50:48.000Z</time>
      </trkpt>
      <trkpt lat="45.83129" lon="4.63784">
        <ele>425.02753</ele>
        <time>2023-06-04T13:50:49.000Z</time>
      </trkpt>
      <trkpt lat="45.83126" lon="4.63782">
        <ele>424.11188</ele>
        <time>2023-06-04T13:50:50.000Z</time>
      </trkpt>
      <trkpt lat="45.83124" lon="4.6378">
        <ele>423.09027</ele>
        <time>2023-06-04T13:50:51.000Z</time>
      </trkpt>
      <trkpt lat="45.83121" lon="4.63778">
        <ele>422.13443</ele>
        <time>2023-06-04T13:50:52.000Z</time>
      </trkpt>
      <trkpt lat="45.83118" lon="4.63777">
        <ele>421.4043</ele>
        <time>2023-06-04T13:50:53.000Z</time>
      </trkpt>
      <trkpt lat="45.83115" lon="4.63775">
        <ele>420.60443</ele>
        <time>2023-06-04T13:50:54.000Z</time>
      </trkpt>
      <trkpt lat="45.83112" lon="4.63773">
        <ele>419.89249</ele>
        <time>2023-06-04T13:50:55.000Z</time>
      </trkpt>
      <trkpt lat="45.83109" lon="4.63773">
        <ele>419.34106</ele>
        <time>2023-06-04T13:50:56.000Z</time>
      </trkpt>
      <trkpt lat="45.83106" lon="4.63773">
        <ele>418.80869</ele>
        <time>2023-06-04T13:50:57.000Z</time>
      </trkpt>
      <trkpt lat="45.83103" lon="4.63774">
        <ele>418.4187</ele>
        <time>2023-06-04T13:50:58.000Z</time>
      </trkpt>
      <trkpt lat="45.831" lon="4.63771">
        <ele>418.65976</ele>
        <time>2023-06-04T13:51:00.000Z</time>
      </trkpt>
      <trkpt lat="45.83098" lon="4.63769">
        <ele>418.81046</ele>
        <time>2023-06-04T13:51:01.000Z</time>
      </trkpt>
      <trkpt lat="45.83096" lon="4.63767">
        <ele>418.92877</ele>
        <time>2023-06-04T13:51:02.000Z</time>
      </trkpt>
      <trkpt lat="45.83095" lon="4.63764">
        <ele>418.91229</ele>
        <time>2023-06-04T13:51:03.000Z</time>
      </trkpt>
      <trkpt lat="45.83093" lon="4.63761">
        <ele>418.81998</ele>
        <time>2023-06-04T13:51:04.000Z</time>
      </trkpt>
      <trkpt lat="45.83091" lon="4.63759">
        <ele>418.77798</ele>
        <time>2023-06-04T13:51:05.000Z</time>
      </trkpt>
      <trkpt lat="45.83089" lon="4.63757">
        <ele>418.81015</ele>
        <time>2023-06-04T13:51:06.000Z</time>
      </trkpt>
      <trkpt lat="45.83087" lon="4.63756">
        <ele>418.88763</ele>
        <time>2023-06-04T13:51:07.000Z</time>
      </trkpt>
      <trkpt lat="45.83085" lon="4.63754">
        <ele>418.98648</ele>
        <time>2023-06-04T13:51:08.000Z</time>
      </trkpt>
      <trkpt lat="45.83083" lon="4.63752">
        <ele>419.0965</ele>
        <time>2023-06-04T13:51:09.000Z</time>
      </trkpt>
      <trkpt lat="45.8308" lon="4.63749">
        <ele>420.00787</ele>
        <time>2023-06-04T13:51:10.000Z</time>
      </trkpt>
      <trkpt lat="45.83077" lon="4.63747">
        <ele>420.95233</ele>
        <time>2023-06-04T13:51:11.000Z</time>
      </trkpt>
      <trkpt lat="45.83074" lon="4.63745">
        <ele>421.96671</ele>
        <time>2023-06-04T13:51:12.000Z</time>
      </trkpt>
      <trkpt lat="45.83072" lon="4.63743">
        <ele>422.92636</ele>
        <time>2023-06-04T13:51:13.000Z</time>
      </trkpt>
      <trkpt lat="45.83069" lon="4.63742">
        <ele>423.64911</ele>
        <time>2023-06-04T13:51:15.000Z</time>
      </trkpt>
      <trkpt lat="45.83066" lon="4.63739">
        <ele>424.46973</ele>
        <time>2023-06-04T13:51:16.000Z</time>
      </trkpt>
      <trkpt lat="45.83063" lon="4.63737">
        <ele>425.24933</ele>
        <time>2023-06-04T13:51:17.000Z</time>
      </trkpt>
      <trkpt lat="45.83059" lon="4.63735">
        <ele>425.95029</ele>
        <time>2023-06-04T13:51:18.000Z</time>
      </trkpt>
      <trkpt lat="45.83055" lon="4.63734">
        <ele>426.6459</ele>
        <time>2023-06-04T13:51:19.000Z</time>
      </trkpt>
      <trkpt lat="45.83053" lon="4.63731">
        <ele>427.30023</ele>
        <time>2023-06-04T13:51:20.000Z</time>
      </trkpt>
      <trkpt lat="45.8305" lon="4.63729">
        <ele>427.27979</ele>
        <time>2023-06-04T13:51:21.000Z</time>
      </trkpt>
      <trkpt lat="45.83049" lon="4.63726">
        <ele>427.29938</ele>
        <time>2023-06-04T13:51:22.000Z</time>
      </trkpt>
      <trkpt lat="45.83046" lon="4.63722">
        <ele>427.34497</ele>
        <time>2023-06-04T13:51:23.000Z</time>
      </trkpt>
      <trkpt lat="45.83042" lon="4.63719">
        <ele>427.4498</ele>
        <time>2023-06-04T13:51:24.000Z</time>
      </trkpt>
      <trkpt lat="45.83039" lon="4.63716">
        <ele>427.6351</ele>
        <time>2023-06-04T13:51:25.000Z</time>
      </trkpt>
      <trkpt lat="45.83036" lon="4.63714">
        <ele>427.836</ele>
        <time>2023-06-04T13:51:26.000Z</time>
      </trkpt>
      <trkpt lat="45.83033" lon="4.63712">
        <ele>427.96915</ele>
        <time>2023-06-04T13:51:27.000Z</time>
      </trkpt>
      <trkpt lat="45.83031" lon="4.63712">
        <ele>428.12167</ele>
        <time>2023-06-04T13:51:28.000Z</time>
      </trkpt>
      <trkpt lat="45.83029" lon="4.63711">
        <ele>428.20273</ele>
        <time>2023-06-04T13:51:29.000Z</time>
      </trkpt>
      <trkpt lat="45.83027" lon="4.63711">
        <ele>428.2417</ele>
        <time>2023-06-04T13:51:30.000Z</time>
      </trkpt>
      <trkpt lat="45.83025" lon="4.6371">
        <ele>428.28448</ele>
        <time>2023-06-04T13:51:31.000Z</time>
      </trkpt>
      <trkpt lat="45.83022" lon="4.63708">
        <ele>428.37445</ele>
        <time>2023-06-04T13:51:32.000Z</time>
      </trkpt>
      <trkpt lat="45.83019" lon="4.63706">
        <ele>428.41815</ele>
        <time>2023-06-04T13:51:33.000Z</time>
      </trkpt>
      <trkpt lat="45.83015" lon="4.63702">
        <ele>428.46045</ele>
        <time>2023-06-04T13:51:34.000Z</time>
      </trkpt>
      <trkpt lat="45.83013" lon="4.63699">
        <ele>428.56357</ele>
        <time>2023-06-04T13:51:35.000Z</time>
      </trkpt>
      <trkpt lat="45.83011" lon="4.63696">
        <ele>428.66217</ele>
        <time>2023-06-04T13:51:36.000Z</time>
      </trkpt>
      <trkpt lat="45.83008" lon="4.63693">
        <ele>428.7702</ele>
        <time>2023-06-04T13:51:37.000Z</time>
      </trkpt>
      <trkpt lat="45.83005" lon="4.6369">
        <ele>428.89502</ele>
        <time>2023-06-04T13:51:38.000Z</time>
      </trkpt>
      <trkpt lat="45.83002" lon="4.63689">
        <ele>428.97714</ele>
        <time>2023-06-04T13:51:39.000Z</time>
      </trkpt>
      <trkpt lat="45.82999" lon="4.63687">
        <ele>429.02823</ele>
        <time>2023-06-04T13:51:40.000Z</time>
      </trkpt>
      <trkpt lat="45.82994" lon="4.63685">
        <ele>429.14624</ele>
        <time>2023-06-04T13:51:41.000Z</time>
      </trkpt>
      <trkpt lat="45.82987" lon="4.63682">
        <ele>429.2099</ele>
        <time>2023-06-04T13:51:42.000Z</time>
      </trkpt>
      <trkpt lat="45.82981" lon="4.63679">
        <ele>429.30499</ele>
        <time>2023-06-04T13:51:43.000Z</time>
      </trkpt>
      <trkpt lat="45.82977" lon="4.63676">
        <ele>429.41962</ele>
        <time>2023-06-04T13:51:44.000Z</time>
      </trkpt>
      <trkpt lat="45.82974" lon="4.6367">
        <ele>429.52252</ele>
        <time>2023-06-04T13:51:46.000Z</time>
      </trkpt>
      <trkpt lat="45.82971" lon="4.63666">
        <ele>429.57144</ele>
        <time>2023-06-04T13:51:48.000Z</time>
      </trkpt>
      <trkpt lat="45.82966" lon="4.63665">
        <ele>429.63184</ele>
        <time>2023-06-04T13:51:49.000Z</time>
      </trkpt>
      <trkpt lat="45.82963" lon="4.63661">
        <ele>429.69336</ele>
        <time>2023-06-04T13:51:50.000Z</time>
      </trkpt>
      <trkpt lat="45.8296" lon="4.63662">
        <ele>429.80072</ele>
        <time>2023-06-04T13:51:51.000Z</time>
      </trkpt>
      <trkpt lat="45.82956" lon="4.63657">
        <ele>429.88849</ele>
        <time>2023-06-04T13:51:52.000Z</time>
      </trkpt>
      <trkpt lat="45.82955" lon="4.63653">
        <ele>429.97934</ele>
        <time>2023-06-04T13:51:53.000Z</time>
      </trkpt>
      <trkpt lat="45.82951" lon="4.6365">
        <ele>430.0957</ele>
        <time>2023-06-04T13:51:54.000Z</time>
      </trkpt>
      <trkpt lat="45.82947" lon="4.63647">
        <ele>430.29523</ele>
        <time>2023-06-04T13:51:55.000Z</time>
      </trkpt>
      <trkpt lat="45.82941" lon="4.63643">
        <ele>430.49576</ele>
        <time>2023-06-04T13:51:56.000Z</time>
      </trkpt>
      <trkpt lat="45.82936" lon="4.63642">
        <ele>430.733</ele>
        <time>2023-06-04T13:51:57.000Z</time>
      </trkpt>
      <trkpt lat="45.8293" lon="4.63639">
        <ele>430.93881</ele>
        <time>2023-06-04T13:51:58.000Z</time>
      </trkpt>
      <trkpt lat="45.82926" lon="4.63635">
        <ele>431.08551</ele>
        <time>2023-06-04T13:51:59.000Z</time>
      </trkpt>
      <trkpt lat="45.82922" lon="4.63633">
        <ele>431.19287</ele>
        <time>2023-06-04T13:52:00.000Z</time>
      </trkpt>
      <trkpt lat="45.82919" lon="4.6363">
        <ele>431.34506</ele>
        <time>2023-06-04T13:52:01.000Z</time>
      </trkpt>
      <trkpt lat="45.82916" lon="4.63627">
        <ele>431.55771</ele>
        <time>2023-06-04T13:52:02.000Z</time>
      </trkpt>
      <trkpt lat="45.82911" lon="4.63625">
        <ele>431.68369</ele>
        <time>2023-06-04T13:52:03.000Z</time>
      </trkpt>
      <trkpt lat="45.82906" lon="4.63623">
        <ele>431.79596</ele>
        <time>2023-06-04T13:52:04.000Z</time>
      </trkpt>
      <trkpt lat="45.829" lon="4.6362">
        <ele>431.85889</ele>
        <time>2023-06-04T13:52:05.000Z</time>
      </trkpt>
      <trkpt lat="45.82895" lon="4.63621">
        <ele>431.8793</ele>
        <time>2023-06-04T13:52:06.000Z</time>
      </trkpt>
      <trkpt lat="45.82891" lon="4.63619">
        <ele>431.87939</ele>
        <time>2023-06-04T13:52:07.000Z</time>
      </trkpt>
      <trkpt lat="45.82885" lon="4.63615">
        <ele>431.86346</ele>
        <time>2023-06-04T13:52:08.000Z</time>
      </trkpt>
      <trkpt lat="45.82876" lon="4.63612">
        <ele>431.84467</ele>
        <time>2023-06-04T13:52:09.000Z</time>
      </trkpt>
      <trkpt lat="45.82869" lon="4.63611">
        <ele>431.8266</ele>
        <time>2023-06-04T13:52:10.000Z</time>
      </trkpt>
      <trkpt lat="45.82864" lon="4.63609">
        <ele>431.79449</ele>
        <time>2023-06-04T13:52:11.000Z</time>
      </trkpt>
      <trkpt lat="45.82859" lon="4.63608">
        <ele>431.33627</ele>
        <time>2023-06-04T13:52:12.000Z</time>
      </trkpt>
      <trkpt lat="45.82855" lon="4.63605">
        <ele>430.86954</ele>
        <time>2023-06-04T13:52:13.000Z</time>
      </trkpt>
      <trkpt lat="45.82849" lon="4.63607">
        <ele>430.40225</ele>
        <time>2023-06-04T13:52:14.000Z</time>
      </trkpt>
      <trkpt lat="45.82847" lon="4.63607">
        <ele>429.91998</ele>
        <time>2023-06-04T13:52:15.000Z</time>
      </trkpt>
      <trkpt lat="45.8284" lon="4.63603">
        <ele>429.45313</ele>
        <time>2023-06-04T13:52:16.000Z</time>
      </trkpt>
      <trkpt lat="45.82834" lon="4.63607">
        <ele>429.00128</ele>
        <time>2023-06-04T13:52:17.000Z</time>
      </trkpt>
      <trkpt lat="45.82827" lon="4.63601">
        <ele>428.47705</ele>
        <time>2023-06-04T13:52:18.000Z</time>
      </trkpt>
      <trkpt lat="45.82822" lon="4.636">
        <ele>427.93817</ele>
        <time>2023-06-04T13:52:19.000Z</time>
      </trkpt>
      <trkpt lat="45.82815" lon="4.63599">
        <ele>427.45581</ele>
        <time>2023-06-04T13:52:20.000Z</time>
      </trkpt>
      <trkpt lat="45.82808" lon="4.63595">
        <ele>426.92676</ele>
        <time>2023-06-04T13:52:21.000Z</time>
      </trkpt>
      <trkpt lat="45.82803" lon="4.63598">
        <ele>426.37753</ele>
        <time>2023-06-04T13:52:22.000Z</time>
      </trkpt>
      <trkpt lat="45.82796" lon="4.63596">
        <ele>425.88361</ele>
        <time>2023-06-04T13:52:23.000Z</time>
      </trkpt>
      <trkpt lat="45.8279" lon="4.63593">
        <ele>425.45224</ele>
        <time>2023-06-04T13:52:24.000Z</time>
      </trkpt>
      <trkpt lat="45.82783" lon="4.63592">
        <ele>425.08676</ele>
        <time>2023-06-04T13:52:25.000Z</time>
      </trkpt>
      <trkpt lat="45.82775" lon="4.63593">
        <ele>424.74188</ele>
        <time>2023-06-04T13:52:26.000Z</time>
      </trkpt>
      <trkpt lat="45.82769" lon="4.6359">
        <ele>424.41367</ele>
        <time>2023-06-04T13:52:27.000Z</time>
      </trkpt>
      <trkpt lat="45.82762" lon="4.63585">
        <ele>424.06317</ele>
        <time>2023-06-04T13:52:28.000Z</time>
      </trkpt>
      <trkpt lat="45.82755" lon="4.63583">
        <ele>423.66211</ele>
        <time>2023-06-04T13:52:29.000Z</time>
      </trkpt>
      <trkpt lat="45.82752" lon="4.63579">
        <ele>423.23016</ele>
        <time>2023-06-04T13:52:30.000Z</time>
      </trkpt>
      <trkpt lat="45.82746" lon="4.63579">
        <ele>422.75986</ele>
        <time>2023-06-04T13:52:31.000Z</time>
      </trkpt>
      <trkpt lat="45.82739" lon="4.63577">
        <ele>422.80167</ele>
        <time>2023-06-04T13:52:32.000Z</time>
      </trkpt>
      <trkpt lat="45.82729" lon="4.63575">
        <ele>422.86133</ele>
        <time>2023-06-04T13:52:33.000Z</time>
      </trkpt>
      <trkpt lat="45.82723" lon="4.63572">
        <ele>422.87759</ele>
        <time>2023-06-04T13:52:34.000Z</time>
      </trkpt>
      <trkpt lat="45.82717" lon="4.6357">
        <ele>422.88086</ele>
        <time>2023-06-04T13:52:35.000Z</time>
      </trkpt>
      <trkpt lat="45.82711" lon="4.63568">
        <ele>422.82755</ele>
        <time>2023-06-04T13:52:36.000Z</time>
      </trkpt>
      <trkpt lat="45.82704" lon="4.63565">
        <ele>422.69785</ele>
        <time>2023-06-04T13:52:37.000Z</time>
      </trkpt>
      <trkpt lat="45.82698" lon="4.63564">
        <ele>422.69482</ele>
        <time>2023-06-04T13:52:38.000Z</time>
      </trkpt>
      <trkpt lat="45.82693" lon="4.63563">
        <ele>422.66275</ele>
        <time>2023-06-04T13:52:39.000Z</time>
      </trkpt>
      <trkpt lat="45.82688" lon="4.63566">
        <ele>422.55576</ele>
        <time>2023-06-04T13:52:40.000Z</time>
      </trkpt>
      <trkpt lat="45.82684" lon="4.63571">
        <ele>422.34042</ele>
        <time>2023-06-04T13:52:42.000Z</time>
      </trkpt>
      <trkpt lat="45.82678" lon="4.63574">
        <ele>422.00665</ele>
        <time>2023-06-04T13:52:43.000Z</time>
      </trkpt>
      <trkpt lat="45.8268" lon="4.63584">
        <ele>421.68646</ele>
        <time>2023-06-04T13:52:44.000Z</time>
      </trkpt>
      <trkpt lat="45.8268" lon="4.63592">
        <ele>421.27011</ele>
        <time>2023-06-04T13:52:45.000Z</time>
      </trkpt>
      <trkpt lat="45.82681" lon="4.63597">
        <ele>420.81314</ele>
        <time>2023-06-04T13:52:46.000Z</time>
      </trkpt>
      <trkpt lat="45.82681" lon="4.63605">
        <ele>420.29874</ele>
        <time>2023-06-04T13:52:47.000Z</time>
      </trkpt>
      <trkpt lat="45.82681" lon="4.63612">
        <ele>419.73325</ele>
        <time>2023-06-04T13:52:48.000Z</time>
      </trkpt>
      <trkpt lat="45.82679" lon="4.63621">
        <ele>419.16299</ele>
        <time>2023-06-04T13:52:49.000Z</time>
      </trkpt>
      <trkpt lat="45.82679" lon="4.63626">
        <ele>418.74527</ele>
        <time>2023-06-04T13:52:50.000Z</time>
      </trkpt>
      <trkpt lat="45.82677" lon="4.6363">
        <ele>418.29843</ele>
        <time>2023-06-04T13:52:51.000Z</time>
      </trkpt>
      <trkpt lat="45.82675" lon="4.63634">
        <ele>417.9288</ele>
        <time>2023-06-04T13:52:52.000Z</time>
      </trkpt>
      <trkpt lat="45.82673" lon="4.63639">
        <ele>417.49652</ele>
        <time>2023-06-04T13:52:53.000Z</time>
      </trkpt>
      <trkpt lat="45.82672" lon="4.63647">
        <ele>417.04938</ele>
        <time>2023-06-04T13:52:54.000Z</time>
      </trkpt>
      <trkpt lat="45.8267" lon="4.63658">
        <ele>416.55518</ele>
        <time>2023-06-04T13:52:55.000Z</time>
      </trkpt>
      <trkpt lat="45.8267" lon="4.63666">
        <ele>416.07431</ele>
        <time>2023-06-04T13:52:56.000Z</time>
      </trkpt>
      <trkpt lat="45.82672" lon="4.63681">
        <ele>415.62115</ele>
        <time>2023-06-04T13:52:57.000Z</time>
      </trkpt>
      <trkpt lat="45.82674" lon="4.63688">
        <ele>415.2272</ele>
        <time>2023-06-04T13:52:58.000Z</time>
      </trkpt>
      <trkpt lat="45.82672" lon="4.63698">
        <ele>414.72491</ele>
        <time>2023-06-04T13:52:59.000Z</time>
      </trkpt>
      <trkpt lat="45.82675" lon="4.63711">
        <ele>414.20816</ele>
        <time>2023-06-04T13:53:00.000Z</time>
      </trkpt>
      <trkpt lat="45.8267" lon="4.63722">
        <ele>414.32355</ele>
        <time>2023-06-04T13:53:01.000Z</time>
      </trkpt>
      <trkpt lat="45.82667" lon="4.63737">
        <ele>414.58658</ele>
        <time>2023-06-04T13:53:02.000Z</time>
      </trkpt>
      <trkpt lat="45.82666" lon="4.63747">
        <ele>414.94815</ele>
        <time>2023-06-04T13:53:03.000Z</time>
      </trkpt>
      <trkpt lat="45.82663" lon="4.63754">
        <ele>415.25806</ele>
        <time>2023-06-04T13:53:04.000Z</time>
      </trkpt>
      <trkpt lat="45.82662" lon="4.63761">
        <ele>415.66327</ele>
        <time>2023-06-04T13:53:05.000Z</time>
      </trkpt>
      <trkpt lat="45.82664" lon="4.63767">
        <ele>416.00543</ele>
        <time>2023-06-04T13:53:06.000Z</time>
      </trkpt>
      <trkpt lat="45.82663" lon="4.63775">
        <ele>416.35953</ele>
        <time>2023-06-04T13:53:07.000Z</time>
      </trkpt>
      <trkpt lat="45.82661" lon="4.63777">
        <ele>416.77139</ele>
        <time>2023-06-04T13:53:08.000Z</time>
      </trkpt>
      <trkpt lat="45.82662" lon="4.6378">
        <ele>417.19327</ele>
        <time>2023-06-04T13:53:09.000Z</time>
      </trkpt>
      <trkpt lat="45.82658" lon="4.63789">
        <ele>417.5419</ele>
        <time>2023-06-04T13:53:10.000Z</time>
      </trkpt>
      <trkpt lat="45.82658" lon="4.63799">
        <ele>417.87485</ele>
        <time>2023-06-04T13:53:11.000Z</time>
      </trkpt>
      <trkpt lat="45.82654" lon="4.63809">
        <ele>418.2045</ele>
        <time>2023-06-04T13:53:12.000Z</time>
      </trkpt>
      <trkpt lat="45.82651" lon="4.63816">
        <ele>418.55078</ele>
        <time>2023-06-04T13:53:13.000Z</time>
      </trkpt>
      <trkpt lat="45.82649" lon="4.63827">
        <ele>418.91251</ele>
        <time>2023-06-04T13:53:14.000Z</time>
      </trkpt>
      <trkpt lat="45.82643" lon="4.63829">
        <ele>419.31622</ele>
        <time>2023-06-04T13:53:15.000Z</time>
      </trkpt>
      <trkpt lat="45.8264" lon="4.63837">
        <ele>419.72549</ele>
        <time>2023-06-04T13:53:16.000Z</time>
      </trkpt>
      <trkpt lat="45.82641" lon="4.63848">
        <ele>420.10083</ele>
        <time>2023-06-04T13:53:17.000Z</time>
      </trkpt>
      <trkpt lat="45.82637" lon="4.6385">
        <ele>420.44873</ele>
        <time>2023-06-04T13:53:18.000Z</time>
      </trkpt>
      <trkpt lat="45.82635" lon="4.63853">
        <ele>420.84732</ele>
        <time>2023-06-04T13:53:19.000Z</time>
      </trkpt>
      <trkpt lat="45.8263" lon="4.63858">
        <ele>421.30328</ele>
        <time>2023-06-04T13:53:20.000Z</time>
      </trkpt>
      <trkpt lat="45.82626" lon="4.63866">
        <ele>421.14883</ele>
        <time>2023-06-04T13:53:21.000Z</time>
      </trkpt>
      <trkpt lat="45.8262" lon="4.63871">
        <ele>420.96075</ele>
        <time>2023-06-04T13:53:22.000Z</time>
      </trkpt>
      <trkpt lat="45.82613" lon="4.63877">
        <ele>420.72662</ele>
        <time>2023-06-04T13:53:23.000Z</time>
      </trkpt>
      <trkpt lat="45.82605" lon="4.63879">
        <ele>420.47324</ele>
        <time>2023-06-04T13:53:24.000Z</time>
      </trkpt>
      <trkpt lat="45.82602" lon="4.6388">
        <ele>420.09732</ele>
        <time>2023-06-04T13:53:25.000Z</time>
      </trkpt>
      <trkpt lat="45.82596" lon="4.63882">
        <ele>419.80225</ele>
        <time>2023-06-04T13:53:26.000Z</time>
      </trkpt>
      <trkpt lat="45.82591" lon="4.63887">
        <ele>419.59473</ele>
        <time>2023-06-04T13:53:27.000Z</time>
      </trkpt>
      <trkpt lat="45.82587" lon="4.63888">
        <ele>419.33441</ele>
        <time>2023-06-04T13:53:28.000Z</time>
      </trkpt>
      <trkpt lat="45.82582" lon="4.63887">
        <ele>418.98895</ele>
        <time>2023-06-04T13:53:29.000Z</time>
      </trkpt>
      <trkpt lat="45.82578" lon="4.63891">
        <ele>418.65958</ele>
        <time>2023-06-04T13:53:30.000Z</time>
      </trkpt>
      <trkpt lat="45.82577" lon="4.63895">
        <ele>418.30966</ele>
        <time>2023-06-04T13:53:31.000Z</time>
      </trkpt>
      <trkpt lat="45.82579" lon="4.63901">
        <ele>417.88681</ele>
        <time>2023-06-04T13:53:32.000Z</time>
      </trkpt>
      <trkpt lat="45.82577" lon="4.63903">
        <ele>417.40106</ele>
        <time>2023-06-04T13:53:33.000Z</time>
      </trkpt>
      <trkpt lat="45.82575" lon="4.63906">
        <ele>416.83505</ele>
        <time>2023-06-04T13:53:34.000Z</time>
      </trkpt>
      <trkpt lat="45.82573" lon="4.63911">
        <ele>416.25772</ele>
        <time>2023-06-04T13:53:35.000Z</time>
      </trkpt>
      <trkpt lat="45.82573" lon="4.63914">
        <ele>415.65118</ele>
        <time>2023-06-04T13:53:36.000Z</time>
      </trkpt>
      <trkpt lat="45.82574" lon="4.63917">
        <ele>415.10565</ele>
        <time>2023-06-04T13:53:37.000Z</time>
      </trkpt>
      <trkpt lat="45.82573" lon="4.63919">
        <ele>414.53375</ele>
        <time>2023-06-04T13:53:38.000Z</time>
      </trkpt>
      <trkpt lat="45.82572" lon="4.63922">
        <ele>413.97583</ele>
        <time>2023-06-04T13:53:39.000Z</time>
      </trkpt>
      <trkpt lat="45.8257" lon="4.6392">
        <ele>413.43213</ele>
        <time>2023-06-04T13:53:40.000Z</time>
      </trkpt>
      <trkpt lat="45.82569" lon="4.63916">
        <ele>412.8833</ele>
        <time>2023-06-04T13:53:41.000Z</time>
      </trkpt>
      <trkpt lat="45.82569" lon="4.63914">
        <ele>412.36188</ele>
        <time>2023-06-04T13:53:42.000Z</time>
      </trkpt>
      <trkpt lat="45.82569" lon="4.6391">
        <ele>411.8436</ele>
        <time>2023-06-04T13:53:44.000Z</time>
      </trkpt>
      <trkpt lat="45.8257" lon="4.63907">
        <ele>411.35278</ele>
        <time>2023-06-04T13:53:45.000Z</time>
      </trkpt>
      <trkpt lat="45.82571" lon="4.63903">
        <ele>410.9726</ele>
        <time>2023-06-04T13:53:46.000Z</time>
      </trkpt>
      <trkpt lat="45.82574" lon="4.639">
        <ele>410.56342</ele>
        <time>2023-06-04T13:53:47.000Z</time>
      </trkpt>
      <trkpt lat="45.82576" lon="4.63897">
        <ele>410.13095</ele>
        <time>2023-06-04T13:53:48.000Z</time>
      </trkpt>
      <trkpt lat="45.82578" lon="4.63894">
        <ele>409.73111</ele>
        <time>2023-06-04T13:53:49.000Z</time>
      </trkpt>
      <trkpt lat="45.8258" lon="4.63892">
        <ele>409.45026</ele>
        <time>2023-06-04T13:53:50.000Z</time>
      </trkpt>
      <trkpt lat="45.82583" lon="4.63889">
        <ele>409.15967</ele>
        <time>2023-06-04T13:53:51.000Z</time>
      </trkpt>
      <trkpt lat="45.82586" lon="4.63887">
        <ele>408.97784</ele>
        <time>2023-06-04T13:53:52.000Z</time>
      </trkpt>
      <trkpt lat="45.82587" lon="4.63885">
        <ele>408.80161</ele>
        <time>2023-06-04T13:53:53.000Z</time>
      </trkpt>
      <trkpt lat="45.82588" lon="4.63882">
        <ele>408.7359</ele>
        <time>2023-06-04T13:53:54.000Z</time>
      </trkpt>
      <trkpt lat="45.82587" lon="4.63878">
        <ele>408.73737</ele>
        <time>2023-06-04T13:53:55.000Z</time>
      </trkpt>
      <trkpt lat="45.82584" lon="4.63874">
        <ele>408.75369</ele>
        <time>2023-06-04T13:53:56.000Z</time>
      </trkpt>
      <trkpt lat="45.82581" lon="4.6387">
        <ele>408.80414</ele>
        <time>2023-06-04T13:53:57.000Z</time>
      </trkpt>
      <trkpt lat="45.82576" lon="4.63866">
        <ele>408.82962</ele>
        <time>2023-06-04T13:53:58.000Z</time>
      </trkpt>
      <trkpt lat="45.82573" lon="4.63863">
        <ele>408.92776</ele>
        <time>2023-06-04T13:53:59.000Z</time>
      </trkpt>
      <trkpt lat="45.82566" lon="4.63854">
        <ele>409.00836</ele>
        <time>2023-06-04T13:54:00.000Z</time>
      </trkpt>
      <trkpt lat="45.82565" lon="4.63851">
        <ele>409.04251</ele>
        <time>2023-06-04T13:54:01.000Z</time>
      </trkpt>
      <trkpt lat="45.82562" lon="4.6385">
        <ele>409.20746</ele>
        <time>2023-06-04T13:54:02.000Z</time>
      </trkpt>
      <trkpt lat="45.82561" lon="4.63844">
        <ele>409.28952</ele>
        <time>2023-06-04T13:54:03.000Z</time>
      </trkpt>
      <trkpt lat="45.82558" lon="4.63841">
        <ele>409.4278</ele>
        <time>2023-06-04T13:54:04.000Z</time>
      </trkpt>
      <trkpt lat="45.82556" lon="4.63838">
        <ele>409.55307</ele>
        <time>2023-06-04T13:54:05.000Z</time>
      </trkpt>
      <trkpt lat="45.82554" lon="4.63833">
        <ele>409.67578</ele>
        <time>2023-06-04T13:54:07.000Z</time>
      </trkpt>
      <trkpt lat="45.82551" lon="4.63832">
        <ele>409.76944</ele>
        <time>2023-06-04T13:54:09.000Z</time>
      </trkpt>
      <trkpt lat="45.8255" lon="4.63834">
        <ele>409.85904</ele>
        <time>2023-06-04T13:54:10.000Z</time>
      </trkpt>
      <trkpt lat="45.82548" lon="4.63836">
        <ele>409.95883</ele>
        <time>2023-06-04T13:54:11.000Z</time>
      </trkpt>
      <trkpt lat="45.82547" lon="4.63839">
        <ele>410.07257</ele>
        <time>2023-06-04T13:54:13.000Z</time>
      </trkpt>
      <trkpt lat="45.82549" lon="4.63842">
        <ele>410.14136</ele>
        <time>2023-06-04T13:54:15.000Z</time>
      </trkpt>
      <trkpt lat="45.82551" lon="4.63845">
        <ele>410.19366</ele>
        <time>2023-06-04T13:54:17.000Z</time>
      </trkpt>
      <trkpt lat="45.82552" lon="4.63848">
        <ele>410.34222</ele>
        <time>2023-06-04T13:54:19.000Z</time>
      </trkpt>
      <trkpt lat="45.82555" lon="4.63849">
        <ele>410.37848</ele>
        <time>2023-06-04T13:54:21.000Z</time>
      </trkpt>
      <trkpt lat="45.82558" lon="4.63849">
        <ele>410.4357</ele>
        <time>2023-06-04T13:54:22.000Z</time>
      </trkpt>
      <trkpt lat="45.82561" lon="4.6385">
        <ele>410.63599</ele>
        <time>2023-06-04T13:54:23.000Z</time>
      </trkpt>
      <trkpt lat="45.82564" lon="4.63852">
        <ele>410.80231</ele>
        <time>2023-06-04T13:54:24.000Z</time>
      </trkpt>
      <trkpt lat="45.82566" lon="4.63855">
        <ele>410.74927</ele>
        <time>2023-06-04T13:54:25.000Z</time>
      </trkpt>
      <trkpt lat="45.82568" lon="4.63858">
        <ele>410.67218</ele>
        <time>2023-06-04T13:54:26.000Z</time>
      </trkpt>
      <trkpt lat="45.8257" lon="4.63861">
        <ele>410.63696</ele>
        <time>2023-06-04T13:54:27.000Z</time>
      </trkpt>
      <trkpt lat="45.82572" lon="4.63864">
        <ele>410.63541</ele>
        <time>2023-06-04T13:54:28.000Z</time>
      </trkpt>
      <trkpt lat="45.82574" lon="4.63868">
        <ele>410.49323</ele>
        <time>2023-06-04T13:54:29.000Z</time>
      </trkpt>
      <trkpt lat="45.82576" lon="4.63871">
        <ele>410.48944</ele>
        <time>2023-06-04T13:54:30.000Z</time>
      </trkpt>
      <trkpt lat="45.82579" lon="4.63874">
        <ele>410.40796</ele>
        <time>2023-06-04T13:54:31.000Z</time>
      </trkpt>
      <trkpt lat="45.82582" lon="4.63878">
        <ele>410.34125</ele>
        <time>2023-06-04T13:54:33.000Z</time>
      </trkpt>
      <trkpt lat="45.82584" lon="4.63881">
        <ele>410.30331</ele>
        <time>2023-06-04T13:54:34.000Z</time>
      </trkpt>
      <trkpt lat="45.82586" lon="4.63883">
        <ele>410.2973</ele>
        <time>2023-06-04T13:54:35.000Z</time>
      </trkpt>
      <trkpt lat="45.82589" lon="4.63886">
        <ele>410.29169</ele>
        <time>2023-06-04T13:54:36.000Z</time>
      </trkpt>
      <trkpt lat="45.82591" lon="4.6389">
        <ele>410.24951</ele>
        <time>2023-06-04T13:54:37.000Z</time>
      </trkpt>
      <trkpt lat="45.82592" lon="4.63893">
        <ele>410.2142</ele>
        <time>2023-06-04T13:54:38.000Z</time>
      </trkpt>
      <trkpt lat="45.82592" lon="4.63897">
        <ele>409.77695</ele>
        <time>2023-06-04T13:54:40.000Z</time>
      </trkpt>
      <trkpt lat="45.82594" lon="4.639">
        <ele>409.31488</ele>
        <time>2023-06-04T13:54:42.000Z</time>
      </trkpt>
      <trkpt lat="45.82592" lon="4.63898">
        <ele>408.79608</ele>
        <time>2023-06-04T13:54:43.000Z</time>
      </trkpt>
      <trkpt lat="45.8259" lon="4.63896">
        <ele>408.38211</ele>
        <time>2023-06-04T13:54:46.000Z</time>
      </trkpt>
      <trkpt lat="45.82589" lon="4.63895">
        <ele>407.92615</ele>
        <time>2023-06-04T13:54:47.000Z</time>
      </trkpt>
      <trkpt lat="45.82588" lon="4.63892">
        <ele>407.36877</ele>
        <time>2023-06-04T13:54:48.000Z</time>
      </trkpt>
      <trkpt lat="45.82587" lon="4.6389">
        <ele>406.84451</ele>
        <time>2023-06-04T13:54:49.000Z</time>
      </trkpt>
      <trkpt lat="45.82587" lon="4.63887">
        <ele>406.53925</ele>
        <time>2023-06-04T13:54:53.000Z</time>
      </trkpt>
      <trkpt lat="45.82585" lon="4.63889">
        <ele>406.18732</ele>
        <time>2023-06-04T13:54:56.000Z</time>
      </trkpt>
      <trkpt lat="45.82583" lon="4.63891">
        <ele>406.40265</ele>
        <time>2023-06-04T13:54:58.000Z</time>
      </trkpt>
      <trkpt lat="45.8258" lon="4.63894">
        <ele>406.56766</ele>
        <time>2023-06-04T13:55:00.000Z</time>
      </trkpt>
      <trkpt lat="45.82578" lon="4.63899">
        <ele>406.7663</ele>
        <time>2023-06-04T13:55:02.000Z</time>
      </trkpt>
      <trkpt lat="45.82576" lon="4.63903">
        <ele>406.86823</ele>
        <time>2023-06-04T13:55:03.000Z</time>
      </trkpt>
      <trkpt lat="45.82575" lon="4.63907">
        <ele>406.97998</ele>
        <time>2023-06-04T13:55:04.000Z</time>
      </trkpt>
      <trkpt lat="45.82574" lon="4.6391">
        <ele>407.07489</ele>
        <time>2023-06-04T13:55:05.000Z</time>
      </trkpt>
      <trkpt lat="45.82573" lon="4.63914">
        <ele>407.1123</ele>
        <time>2023-06-04T13:55:06.000Z</time>
      </trkpt>
      <trkpt lat="45.82572" lon="4.63917">
        <ele>407.21332</ele>
        <time>2023-06-04T13:55:07.000Z</time>
      </trkpt>
      <trkpt lat="45.8257" lon="4.63921">
        <ele>407.30884</ele>
        <time>2023-06-04T13:55:08.000Z</time>
      </trkpt>
      <trkpt lat="45.82569" lon="4.63923">
        <ele>407.42999</ele>
        <time>2023-06-04T13:55:09.000Z</time>
      </trkpt>
      <trkpt lat="45.82566" lon="4.63925">
        <ele>407.61841</ele>
        <time>2023-06-04T13:55:12.000Z</time>
      </trkpt>
      <trkpt lat="45.82564" lon="4.63926">
        <ele>408.07144</ele>
        <time>2023-06-04T13:55:13.000Z</time>
      </trkpt>
      <trkpt lat="45.82561" lon="4.63927">
        <ele>408.53915</ele>
        <time>2023-06-04T13:55:14.000Z</time>
      </trkpt>
      <trkpt lat="45.82559" lon="4.63928">
        <ele>409.00516</ele>
        <time>2023-06-04T13:55:15.000Z</time>
      </trkpt>
      <trkpt lat="45.82556" lon="4.6393">
        <ele>409.42505</ele>
        <time>2023-06-04T13:55:16.000Z</time>
      </trkpt>
      <trkpt lat="45.82554" lon="4.63933">
        <ele>409.85742</ele>
        <time>2023-06-04T13:55:17.000Z</time>
      </trkpt>
      <trkpt lat="45.82552" lon="4.63936">
        <ele>410.28696</ele>
        <time>2023-06-04T13:55:18.000Z</time>
      </trkpt>
      <trkpt lat="45.8255" lon="4.63939">
        <ele>410.69522</ele>
        <time>2023-06-04T13:55:19.000Z</time>
      </trkpt>
      <trkpt lat="45.82547" lon="4.63943">
        <ele>411.0423</ele>
        <time>2023-06-04T13:55:20.000Z</time>
      </trkpt>
      <trkpt lat="45.82544" lon="4.63947">
        <ele>411.47745</ele>
        <time>2023-06-04T13:55:21.000Z</time>
      </trkpt>
      <trkpt lat="45.8254" lon="4.6395">
        <ele>411.30225</ele>
        <time>2023-06-04T13:55:22.000Z</time>
      </trkpt>
      <trkpt lat="45.82537" lon="4.63954">
        <ele>411.19073</ele>
        <time>2023-06-04T13:55:23.000Z</time>
      </trkpt>
      <trkpt lat="45.82533" lon="4.63957">
        <ele>411.10556</ele>
        <time>2023-06-04T13:55:24.000Z</time>
      </trkpt>
      <trkpt lat="45.8253" lon="4.63959">
        <ele>411.03412</ele>
        <time>2023-06-04T13:55:25.000Z</time>
      </trkpt>
      <trkpt lat="45.82528" lon="4.63959">
        <ele>411.01929</ele>
        <time>2023-06-04T13:55:26.000Z</time>
      </trkpt>
      <trkpt lat="45.82525" lon="4.63959">
        <ele>411.04443</ele>
        <time>2023-06-04T13:55:28.000Z</time>
      </trkpt>
      <trkpt lat="45.82524" lon="4.63962">
        <ele>411.15805</ele>
        <time>2023-06-04T13:55:30.000Z</time>
      </trkpt>
      <trkpt lat="45.82526" lon="4.63963">
        <ele>411.29453</ele>
        <time>2023-06-04T13:55:32.000Z</time>
      </trkpt>
      <trkpt lat="45.82527" lon="4.6396">
        <ele>411.21011</ele>
        <time>2023-06-04T13:55:36.000Z</time>
      </trkpt>
      <trkpt lat="45.82528" lon="4.63957">
        <ele>411.12036</ele>
        <time>2023-06-04T13:55:39.000Z</time>
      </trkpt>
      <trkpt lat="45.82526" lon="4.63954">
        <ele>410.91568</ele>
        <time>2023-06-04T13:55:42.000Z</time>
      </trkpt>
      <trkpt lat="45.82525" lon="4.63953">
        <ele>410.88544</ele>
        <time>2023-06-04T13:55:46.000Z</time>
      </trkpt>
      <trkpt lat="45.82524" lon="4.63956">
        <ele>411.01361</ele>
        <time>2023-06-04T13:55:50.000Z</time>
      </trkpt>
      <trkpt lat="45.82526" lon="4.63958">
        <ele>411.13647</ele>
        <time>2023-06-04T13:55:51.000Z</time>
      </trkpt>
      <trkpt lat="45.82528" lon="4.63961">
        <ele>411.31567</ele>
        <time>2023-06-04T13:55:53.000Z</time>
      </trkpt>
      <trkpt lat="45.82529" lon="4.63958">
        <ele>410.1535</ele>
        <time>2023-06-04T13:56:02.000Z</time>
      </trkpt>
      <trkpt lat="45.82528" lon="4.63954">
        <ele>408.9917</ele>
        <time>2023-06-04T13:56:03.000Z</time>
      </trkpt>
      <trkpt lat="45.82529" lon="4.63951">
        <ele>407.87006</ele>
        <time>2023-06-04T13:56:06.000Z</time>
      </trkpt>
      <trkpt lat="45.82527" lon="4.63953">
        <ele>406.9068</ele>
        <time>2023-06-04T13:56:09.000Z</time>
      </trkpt>
      <trkpt lat="45.82526" lon="4.63954">
        <ele>405.87726</ele>
        <time>2023-06-04T13:56:11.000Z</time>
      </trkpt>
      <trkpt lat="45.82524" lon="4.63956">
        <ele>404.80621</ele>
        <time>2023-06-04T13:56:13.000Z</time>
      </trkpt>
      <trkpt lat="45.82521" lon="4.63957">
        <ele>403.70697</ele>
        <time>2023-06-04T13:56:16.000Z</time>
      </trkpt>
      <trkpt lat="45.8252" lon="4.63959">
        <ele>402.59674</ele>
        <time>2023-06-04T13:56:18.000Z</time>
      </trkpt>
      <trkpt lat="45.82521" lon="4.63957">
        <ele>401.55536</ele>
        <time>2023-06-04T13:56:20.000Z</time>
      </trkpt>
      <trkpt lat="45.82519" lon="4.63956">
        <ele>400.96722</ele>
        <time>2023-06-04T13:56:39.000Z</time>
      </trkpt>
      <trkpt lat="45.82518" lon="4.63959">
        <ele>400.49933</ele>
        <time>2023-06-04T13:56:52.000Z</time>
      </trkpt>
      <trkpt lat="45.8252" lon="4.63961">
        <ele>399.91705</ele>
        <time>2023-06-04T13:56:55.000Z</time>
      </trkpt>
      <trkpt lat="45.82522" lon="4.63963">
        <ele>399.23843</ele>
        <time>2023-06-04T13:56:57.000Z</time>
      </trkpt>
      <trkpt lat="45.82521" lon="4.63968">
        <ele>398.6972</ele>
        <time>2023-06-04T13:56:59.000Z</time>
      </trkpt>
      <trkpt lat="45.8252" lon="4.6397">
        <ele>398.15515</ele>
        <time>2023-06-04T13:57:00.000Z</time>
      </trkpt>
      <trkpt lat="45.82517" lon="4.63972">
        <ele>397.61163</ele>
        <time>2023-06-04T13:57:01.000Z</time>
      </trkpt>
      <trkpt lat="45.82515" lon="4.63974">
        <ele>397.05396</ele>
        <time>2023-06-04T13:57:02.000Z</time>
      </trkpt>
      <trkpt lat="45.82512" lon="4.63976">
        <ele>396.3042</ele>
        <time>2023-06-04T13:57:03.000Z</time>
      </trkpt>
      <trkpt lat="45.82509" lon="4.63978">
        <ele>395.59222</ele>
        <time>2023-06-04T13:57:04.000Z</time>
      </trkpt>
      <trkpt lat="45.82507" lon="4.6398">
        <ele>394.77893</ele>
        <time>2023-06-04T13:57:05.000Z</time>
      </trkpt>
      <trkpt lat="45.82505" lon="4.63982">
        <ele>395.31436</ele>
        <time>2023-06-04T13:57:06.000Z</time>
      </trkpt>
      <trkpt lat="45.82503" lon="4.63985">
        <ele>395.79547</ele>
        <time>2023-06-04T13:57:07.000Z</time>
      </trkpt>
      <trkpt lat="45.825" lon="4.63989">
        <ele>396.24326</ele>
        <time>2023-06-04T13:57:08.000Z</time>
      </trkpt>
      <trkpt lat="45.82497" lon="4.63992">
        <ele>396.61084</ele>
        <time>2023-06-04T13:57:09.000Z</time>
      </trkpt>
      <trkpt lat="45.82493" lon="4.63994">
        <ele>396.90155</ele>
        <time>2023-06-04T13:57:10.000Z</time>
      </trkpt>
      <trkpt lat="45.8249" lon="4.63996">
        <ele>397.26041</ele>
        <time>2023-06-04T13:57:11.000Z</time>
      </trkpt>
      <trkpt lat="45.82488" lon="4.63998">
        <ele>397.63086</ele>
        <time>2023-06-04T13:57:12.000Z</time>
      </trkpt>
      <trkpt lat="45.82485" lon="4.63999">
        <ele>397.9653</ele>
        <time>2023-06-04T13:57:13.000Z</time>
      </trkpt>
      <trkpt lat="45.82483" lon="4.64002">
        <ele>398.22806</ele>
        <time>2023-06-04T13:57:14.000Z</time>
      </trkpt>
      <trkpt lat="45.8248" lon="4.64005">
        <ele>398.02048</ele>
        <time>2023-06-04T13:57:15.000Z</time>
      </trkpt>
      <trkpt lat="45.82477" lon="4.64007">
        <ele>398.22388</ele>
        <time>2023-06-04T13:57:16.000Z</time>
      </trkpt>
      <trkpt lat="45.82474" lon="4.64009">
        <ele>398.46552</ele>
        <time>2023-06-04T13:57:17.000Z</time>
      </trkpt>
      <trkpt lat="45.8247" lon="4.6401">
        <ele>398.73639</ele>
        <time>2023-06-04T13:57:18.000Z</time>
      </trkpt>
      <trkpt lat="45.82467" lon="4.64011">
        <ele>399.21844</ele>
        <time>2023-06-04T13:57:19.000Z</time>
      </trkpt>
      <trkpt lat="45.82464" lon="4.64012">
        <ele>399.86456</ele>
        <time>2023-06-04T13:57:20.000Z</time>
      </trkpt>
      <trkpt lat="45.82462" lon="4.64014">
        <ele>400.53946</ele>
        <time>2023-06-04T13:57:21.000Z</time>
      </trkpt>
      <trkpt lat="45.82462" lon="4.64017">
        <ele>400.91446</ele>
        <time>2023-06-04T13:57:22.000Z</time>
      </trkpt>
      <trkpt lat="45.82461" lon="4.6402">
        <ele>401.4313</ele>
        <time>2023-06-04T13:57:23.000Z</time>
      </trkpt>
      <trkpt lat="45.82462" lon="4.64023">
        <ele>401.88174</ele>
        <time>2023-06-04T13:57:24.000Z</time>
      </trkpt>
      <trkpt lat="45.82461" lon="4.64027">
        <ele>402.31671</ele>
        <time>2023-06-04T13:57:26.000Z</time>
      </trkpt>
      <trkpt lat="45.82464" lon="4.64023">
        <ele>402.65042</ele>
        <time>2023-06-04T13:57:28.000Z</time>
      </trkpt>
      <trkpt lat="45.82465" lon="4.64021">
        <ele>402.96826</ele>
        <time>2023-06-04T13:57:29.000Z</time>
      </trkpt>
      <trkpt lat="45.82467" lon="4.64019">
        <ele>403.18472</ele>
        <time>2023-06-04T13:57:31.000Z</time>
      </trkpt>
      <trkpt lat="45.82468" lon="4.64017">
        <ele>403.34955</ele>
        <time>2023-06-04T13:57:32.000Z</time>
      </trkpt>
      <trkpt lat="45.82467" lon="4.64014">
        <ele>403.67422</ele>
        <time>2023-06-04T13:57:34.000Z</time>
      </trkpt>
      <trkpt lat="45.82468" lon="4.64017">
        <ele>404.14249</ele>
        <time>2023-06-04T13:57:37.000Z</time>
      </trkpt>
      <trkpt lat="45.82468" lon="4.64021">
        <ele>404.61029</ele>
        <time>2023-06-04T13:57:38.000Z</time>
      </trkpt>
      <trkpt lat="45.82469" lon="4.64024">
        <ele>405.07806</ele>
        <time>2023-06-04T13:57:39.000Z</time>
      </trkpt>
      <trkpt lat="45.82471" lon="4.64026">
        <ele>405.55917</ele>
        <time>2023-06-04T13:57:40.000Z</time>
      </trkpt>
      <trkpt lat="45.82474" lon="4.64026">
        <ele>406.07642</ele>
        <time>2023-06-04T13:57:41.000Z</time>
      </trkpt>
      <trkpt lat="45.82477" lon="4.64024">
        <ele>406.11441</ele>
        <time>2023-06-04T13:57:42.000Z</time>
      </trkpt>
      <trkpt lat="45.82477" lon="4.6402">
        <ele>406.15948</ele>
        <time>2023-06-04T13:57:44.000Z</time>
      </trkpt>
      <trkpt lat="45.82475" lon="4.64019">
        <ele>406.17764</ele>
        <time>2023-06-04T13:57:45.000Z</time>
      </trkpt>
      <trkpt lat="45.82473" lon="4.64018">
        <ele>406.00592</ele>
        <time>2023-06-04T13:57:46.000Z</time>
      </trkpt>
      <trkpt lat="45.82471" lon="4.6402">
        <ele>405.59619</ele>
        <time>2023-06-04T13:57:47.000Z</time>
      </trkpt>
      <trkpt lat="45.8247" lon="4.64023">
        <ele>405.20532</ele>
        <time>2023-06-04T13:57:48.000Z</time>
      </trkpt>
      <trkpt lat="45.82469" lon="4.64026">
        <ele>405.26239</ele>
        <time>2023-06-04T13:57:49.000Z</time>
      </trkpt>
      <trkpt lat="45.82469" lon="4.64029">
        <ele>405.28101</ele>
        <time>2023-06-04T13:57:50.000Z</time>
      </trkpt>
      <trkpt lat="45.82467" lon="4.64032">
        <ele>405.32367</ele>
        <time>2023-06-04T13:57:51.000Z</time>
      </trkpt>
      <trkpt lat="45.82465" lon="4.64035">
        <ele>405.14325</ele>
        <time>2023-06-04T13:57:52.000Z</time>
      </trkpt>
      <trkpt lat="45.82463" lon="4.64036">
        <ele>405.07715</ele>
        <time>2023-06-04T13:57:53.000Z</time>
      </trkpt>
      <trkpt lat="45.82461" lon="4.64038">
        <ele>405.09888</ele>
        <time>2023-06-04T13:57:54.000Z</time>
      </trkpt>
      <trkpt lat="45.8246" lon="4.64042">
        <ele>405.42352</ele>
        <time>2023-06-04T13:57:57.000Z</time>
      </trkpt>
      <trkpt lat="45.82457" lon="4.64042">
        <ele>405.57904</ele>
        <time>2023-06-04T13:58:02.000Z</time>
      </trkpt>
      <trkpt lat="45.82453" lon="4.64044">
        <ele>405.86243</ele>
        <time>2023-06-04T13:58:04.000Z</time>
      </trkpt>
      <trkpt lat="45.8245" lon="4.64046">
        <ele>405.98367</ele>
        <time>2023-06-04T13:58:05.000Z</time>
      </trkpt>
      <trkpt lat="45.82448" lon="4.6405">
        <ele>406.1069</ele>
        <time>2023-06-04T13:58:06.000Z</time>
      </trkpt>
      <trkpt lat="45.82446" lon="4.64053">
        <ele>406.15631</ele>
        <time>2023-06-04T13:58:07.000Z</time>
      </trkpt>
      <trkpt lat="45.82445" lon="4.64056">
        <ele>406.13037</ele>
        <time>2023-06-04T13:58:08.000Z</time>
      </trkpt>
      <trkpt lat="45.82443" lon="4.6406">
        <ele>406.04648</ele>
        <time>2023-06-04T13:58:09.000Z</time>
      </trkpt>
      <trkpt lat="45.82441" lon="4.64064">
        <ele>405.93335</ele>
        <time>2023-06-04T13:58:10.000Z</time>
      </trkpt>
      <trkpt lat="45.82439" lon="4.64068">
        <ele>405.78732</ele>
        <time>2023-06-04T13:58:11.000Z</time>
      </trkpt>
      <trkpt lat="45.82438" lon="4.64072">
        <ele>405.61963</ele>
        <time>2023-06-04T13:58:12.000Z</time>
      </trkpt>
      <trkpt lat="45.82437" lon="4.64075">
        <ele>405.54291</ele>
        <time>2023-06-04T13:58:13.000Z</time>
      </trkpt>
      <trkpt lat="45.82438" lon="4.64079">
        <ele>405.64481</ele>
        <time>2023-06-04T13:58:14.000Z</time>
      </trkpt>
      <trkpt lat="45.82439" lon="4.64084">
        <ele>405.69055</ele>
        <time>2023-06-04T13:58:15.000Z</time>
      </trkpt>
      <trkpt lat="45.82439" lon="4.64088">
        <ele>405.6124</ele>
        <time>2023-06-04T13:58:16.000Z</time>
      </trkpt>
      <trkpt lat="45.82439" lon="4.64092">
        <ele>405.47345</ele>
        <time>2023-06-04T13:58:17.000Z</time>
      </trkpt>
      <trkpt lat="45.82439" lon="4.64097">
        <ele>405.28693</ele>
        <time>2023-06-04T13:58:18.000Z</time>
      </trkpt>
      <trkpt lat="45.82438" lon="4.64103">
        <ele>405.38556</ele>
        <time>2023-06-04T13:58:19.000Z</time>
      </trkpt>
      <trkpt lat="45.82436" lon="4.64109">
        <ele>405.42059</ele>
        <time>2023-06-04T13:58:20.000Z</time>
      </trkpt>
      <trkpt lat="45.82434" lon="4.64114">
        <ele>405.36102</ele>
        <time>2023-06-04T13:58:21.000Z</time>
      </trkpt>
      <trkpt lat="45.82425" lon="4.64135">
        <ele>404.12738</ele>
        <time>2023-06-04T13:58:22.000Z</time>
      </trkpt>
      <trkpt lat="45.82419" lon="4.64136">
        <ele>404.19034</ele>
        <time>2023-06-04T13:58:24.000Z</time>
      </trkpt>
      <trkpt lat="45.82412" lon="4.64135">
        <ele>404.01019</ele>
        <time>2023-06-04T13:58:26.000Z</time>
      </trkpt>
      <trkpt lat="45.82413" lon="4.64138">
        <ele>403.68622</ele>
        <time>2023-06-04T13:58:27.000Z</time>
      </trkpt>
      <trkpt lat="45.82408" lon="4.64142">
        <ele>403.32501</ele>
        <time>2023-06-04T13:58:29.000Z</time>
      </trkpt>
      <trkpt lat="45.82409" lon="4.64141">
        <ele>402.99799</ele>
        <time>2023-06-04T13:58:30.000Z</time>
      </trkpt>
      <trkpt lat="45.82408" lon="4.64143">
        <ele>402.7005</ele>
        <time>2023-06-04T13:58:31.000Z</time>
      </trkpt>
      <trkpt lat="45.82407" lon="4.64147">
        <ele>402.55411</ele>
        <time>2023-06-04T13:58:32.000Z</time>
      </trkpt>
      <trkpt lat="45.82406" lon="4.64149">
        <ele>402.32504</ele>
        <time>2023-06-04T13:58:33.000Z</time>
      </trkpt>
      <trkpt lat="45.82404" lon="4.64154">
        <ele>402.11337</ele>
        <time>2023-06-04T13:58:34.000Z</time>
      </trkpt>
      <trkpt lat="45.82403" lon="4.64157">
        <ele>401.95233</ele>
        <time>2023-06-04T13:58:35.000Z</time>
      </trkpt>
      <trkpt lat="45.824" lon="4.64161">
        <ele>401.66583</ele>
        <time>2023-06-04T13:58:36.000Z</time>
      </trkpt>
      <trkpt lat="45.82397" lon="4.64165">
        <ele>401.31906</ele>
        <time>2023-06-04T13:58:37.000Z</time>
      </trkpt>
      <trkpt lat="45.82394" lon="4.64168">
        <ele>401.1402</ele>
        <time>2023-06-04T13:58:38.000Z</time>
      </trkpt>
      <trkpt lat="45.82392" lon="4.6417">
        <ele>400.96564</ele>
        <time>2023-06-04T13:58:39.000Z</time>
      </trkpt>
      <trkpt lat="45.82389" lon="4.64174">
        <ele>400.51923</ele>
        <time>2023-06-04T13:58:40.000Z</time>
      </trkpt>
      <trkpt lat="45.82386" lon="4.64178">
        <ele>400.20279</ele>
        <time>2023-06-04T13:58:41.000Z</time>
      </trkpt>
      <trkpt lat="45.82384" lon="4.64183">
        <ele>399.90018</ele>
        <time>2023-06-04T13:58:42.000Z</time>
      </trkpt>
      <trkpt lat="45.82382" lon="4.64187">
        <ele>399.66733</ele>
        <time>2023-06-04T13:58:43.000Z</time>
      </trkpt>
      <trkpt lat="45.8238" lon="4.64191">
        <ele>399.45605</ele>
        <time>2023-06-04T13:58:44.000Z</time>
      </trkpt>
      <trkpt lat="45.82376" lon="4.64194">
        <ele>400.302</ele>
        <time>2023-06-04T13:58:45.000Z</time>
      </trkpt>
      <trkpt lat="45.82372" lon="4.64196">
        <ele>400.06857</ele>
        <time>2023-06-04T13:58:46.000Z</time>
      </trkpt>
      <trkpt lat="45.82369" lon="4.64197">
        <ele>399.85626</ele>
        <time>2023-06-04T13:58:47.000Z</time>
      </trkpt>
      <trkpt lat="45.82367" lon="4.64198">
        <ele>399.77081</ele>
        <time>2023-06-04T13:58:48.000Z</time>
      </trkpt>
      <trkpt lat="45.82365" lon="4.64199">
        <ele>399.68536</ele>
        <time>2023-06-04T13:58:49.000Z</time>
      </trkpt>
      <trkpt lat="45.82362" lon="4.642">
        <ele>399.59869</ele>
        <time>2023-06-04T13:58:50.000Z</time>
      </trkpt>
      <trkpt lat="45.82358" lon="4.642">
        <ele>399.55069</ele>
        <time>2023-06-04T13:58:52.000Z</time>
      </trkpt>
      <trkpt lat="45.82357" lon="4.64207">
        <ele>399.44632</ele>
        <time>2023-06-04T13:58:53.000Z</time>
      </trkpt>
      <trkpt lat="45.82351" lon="4.64212">
        <ele>399.3363</ele>
        <time>2023-06-04T13:58:54.000Z</time>
      </trkpt>
      <trkpt lat="45.82345" lon="4.64221">
        <ele>399.30737</ele>
        <time>2023-06-04T13:58:55.000Z</time>
      </trkpt>
      <trkpt lat="45.82343" lon="4.64232">
        <ele>399.3006</ele>
        <time>2023-06-04T13:58:56.000Z</time>
      </trkpt>
      <trkpt lat="45.82341" lon="4.6424">
        <ele>399.36948</ele>
        <time>2023-06-04T13:58:57.000Z</time>
      </trkpt>
      <trkpt lat="45.82337" lon="4.64251">
        <ele>399.34955</ele>
        <time>2023-06-04T13:58:58.000Z</time>
      </trkpt>
      <trkpt lat="45.82334" lon="4.64258">
        <ele>399.20349</ele>
        <time>2023-06-04T13:58:59.000Z</time>
      </trkpt>
      <trkpt lat="45.82333" lon="4.64264">
        <ele>399.16324</ele>
        <time>2023-06-04T13:59:00.000Z</time>
      </trkpt>
      <trkpt lat="45.8233" lon="4.64271">
        <ele>399.34662</ele>
        <time>2023-06-04T13:59:01.000Z</time>
      </trkpt>
      <trkpt lat="45.82332" lon="4.64276">
        <ele>399.37976</ele>
        <time>2023-06-04T13:59:02.000Z</time>
      </trkpt>
      <trkpt lat="45.82333" lon="4.64282">
        <ele>399.41107</ele>
        <time>2023-06-04T13:59:04.000Z</time>
      </trkpt>
      <trkpt lat="45.82338" lon="4.64283">
        <ele>399.35797</ele>
        <time>2023-06-04T13:59:05.000Z</time>
      </trkpt>
      <trkpt lat="45.82338" lon="4.64286">
        <ele>399.29608</ele>
        <time>2023-06-04T13:59:06.000Z</time>
      </trkpt>
      <trkpt lat="45.82337" lon="4.64289">
        <ele>399.2121</ele>
        <time>2023-06-04T13:59:07.000Z</time>
      </trkpt>
      <trkpt lat="45.82332" lon="4.64281">
        <ele>399.14688</ele>
        <time>2023-06-04T13:59:08.000Z</time>
      </trkpt>
      <trkpt lat="45.82327" lon="4.64283">
        <ele>399.03528</ele>
        <time>2023-06-04T13:59:09.000Z</time>
      </trkpt>
      <trkpt lat="45.8232" lon="4.6429">
        <ele>399.18414</ele>
        <time>2023-06-04T13:59:10.000Z</time>
      </trkpt>
      <trkpt lat="45.82319" lon="4.64292">
        <ele>399.46964</ele>
        <time>2023-06-04T13:59:11.000Z</time>
      </trkpt>
      <trkpt lat="45.82323" lon="4.64286">
        <ele>399.95645</ele>
        <time>2023-06-04T13:59:13.000Z</time>
      </trkpt>
      <trkpt lat="45.82327" lon="4.64283">
        <ele>400.59857</ele>
        <time>2023-06-04T13:59:14.000Z</time>
      </trkpt>
      <trkpt lat="45.82333" lon="4.64285">
        <ele>400.87616</ele>
        <time>2023-06-04T13:59:15.000Z</time>
      </trkpt>
      <trkpt lat="45.82335" lon="4.64283">
        <ele>401.16064</ele>
        <time>2023-06-04T13:59:18.000Z</time>
      </trkpt>
      <trkpt lat="45.82334" lon="4.6428">
        <ele>401.40289</ele>
        <time>2023-06-04T13:59:19.000Z</time>
      </trkpt>
      <trkpt lat="45.82337" lon="4.64279">
        <ele>401.49249</ele>
        <time>2023-06-04T13:59:20.000Z</time>
      </trkpt>
      <trkpt lat="45.82341" lon="4.6428">
        <ele>401.5152</ele>
        <time>2023-06-04T13:59:21.000Z</time>
      </trkpt>
      <trkpt lat="45.82344" lon="4.6428">
        <ele>401.62848</ele>
        <time>2023-06-04T13:59:22.000Z</time>
      </trkpt>
      <trkpt lat="45.82347" lon="4.6428">
        <ele>401.79337</ele>
        <time>2023-06-04T13:59:23.000Z</time>
      </trkpt>
      <trkpt lat="45.82349" lon="4.64281">
        <ele>401.8465</ele>
        <time>2023-06-04T13:59:24.000Z</time>
      </trkpt>
      <trkpt lat="45.82352" lon="4.64283">
        <ele>401.86893</ele>
        <time>2023-06-04T13:59:25.000Z</time>
      </trkpt>
      <trkpt lat="45.82354" lon="4.64285">
        <ele>402.0462</ele>
        <time>2023-06-04T13:59:26.000Z</time>
      </trkpt>
      <trkpt lat="45.82356" lon="4.64287">
        <ele>402.35049</ele>
        <time>2023-06-04T13:59:27.000Z</time>
      </trkpt>
      <trkpt lat="45.82357" lon="4.64289">
        <ele>402.69104</ele>
        <time>2023-06-04T13:59:29.000Z</time>
      </trkpt>
      <trkpt lat="45.82358" lon="4.64292">
        <ele>402.99948</ele>
        <time>2023-06-04T13:59:31.000Z</time>
      </trkpt>
      <trkpt lat="45.82358" lon="4.64288">
        <ele>403.11002</ele>
        <time>2023-06-04T13:59:36.000Z</time>
      </trkpt>
      <trkpt lat="45.82356" lon="4.64285">
        <ele>403.20087</ele>
        <time>2023-06-04T13:59:37.000Z</time>
      </trkpt>
      <trkpt lat="45.82354" lon="4.64283">
        <ele>403.33237</ele>
        <time>2023-06-04T13:59:38.000Z</time>
      </trkpt>
      <trkpt lat="45.82353" lon="4.64281">
        <ele>403.11343</ele>
        <time>2023-06-04T13:59:39.000Z</time>
      </trkpt>
      <trkpt lat="45.8235" lon="4.64281">
        <ele>402.82367</ele>
        <time>2023-06-04T13:59:40.000Z</time>
      </trkpt>
      <trkpt lat="45.82347" lon="4.64281">
        <ele>402.36969</ele>
        <time>2023-06-04T13:59:41.000Z</time>
      </trkpt>
      <trkpt lat="45.82344" lon="4.64283">
        <ele>401.64777</ele>
        <time>2023-06-04T13:59:42.000Z</time>
      </trkpt>
      <trkpt lat="45.8234" lon="4.64284">
        <ele>401.20834</ele>
        <time>2023-06-04T13:59:43.000Z</time>
      </trkpt>
      <trkpt lat="45.82336" lon="4.64284">
        <ele>400.84592</ele>
        <time>2023-06-04T13:59:44.000Z</time>
      </trkpt>
      <trkpt lat="45.82333" lon="4.64283">
        <ele>400.47168</ele>
        <time>2023-06-04T13:59:45.000Z</time>
      </trkpt>
      <trkpt lat="45.82331" lon="4.64284">
        <ele>400.32825</ele>
        <time>2023-06-04T13:59:46.000Z</time>
      </trkpt>
      <trkpt lat="45.82329" lon="4.64285">
        <ele>400.47137</ele>
        <time>2023-06-04T13:59:48.000Z</time>
      </trkpt>
      <trkpt lat="45.82327" lon="4.64284">
        <ele>400.1489</ele>
        <time>2023-06-04T13:59:53.000Z</time>
      </trkpt>
      <trkpt lat="45.82328" lon="4.64281">
        <ele>400.04593</ele>
        <time>2023-06-04T13:59:56.000Z</time>
      </trkpt>
      <trkpt lat="45.82331" lon="4.64281">
        <ele>400.03442</ele>
        <time>2023-06-04T13:59:58.000Z</time>
      </trkpt>
      <trkpt lat="45.82334" lon="4.64283">
        <ele>400.07822</ele>
        <time>2023-06-04T13:59:59.000Z</time>
      </trkpt>
      <trkpt lat="45.82335" lon="4.64285">
        <ele>400.09872</ele>
        <time>2023-06-04T14:00:00.000Z</time>
      </trkpt>
      <trkpt lat="45.82334" lon="4.64288">
        <ele>399.81165</ele>
        <time>2023-06-04T14:00:03.000Z</time>
      </trkpt>
      <trkpt lat="45.82333" lon="4.64291">
        <ele>399.60449</ele>
        <time>2023-06-04T14:00:05.000Z</time>
      </trkpt>
      <trkpt lat="45.82335" lon="4.6429">
        <ele>399.44354</ele>
        <time>2023-06-04T14:00:08.000Z</time>
      </trkpt>
      <trkpt lat="45.82333" lon="4.64287">
        <ele>399.50311</ele>
        <time>2023-06-04T14:00:13.000Z</time>
      </trkpt>
      <trkpt lat="45.82331" lon="4.64287">
        <ele>399.56464</ele>
        <time>2023-06-04T14:00:14.000Z</time>
      </trkpt>
      <trkpt lat="45.82329" lon="4.64285">
        <ele>399.53082</ele>
        <time>2023-06-04T14:00:20.000Z</time>
      </trkpt>
      <trkpt lat="45.82328" lon="4.64286">
        <ele>400.01553</ele>
        <time>2023-06-04T14:00:24.000Z</time>
      </trkpt>
      <trkpt lat="45.8233" lon="4.64286">
        <ele>400.26764</ele>
        <time>2023-06-04T14:00:32.000Z</time>
      </trkpt>
      <trkpt lat="45.82334" lon="4.64287">
        <ele>400.53937</ele>
        <time>2023-06-04T14:00:34.000Z</time>
      </trkpt>
      <trkpt lat="45.82335" lon="4.64286">
        <ele>401.17267</ele>
        <time>2023-06-04T14:00:36.000Z</time>
      </trkpt>
      <trkpt lat="45.82338" lon="4.64286">
        <ele>401.81439</ele>
        <time>2023-06-04T14:00:40.000Z</time>
      </trkpt>
      <trkpt lat="45.8234" lon="4.64285">
        <ele>402.54303</ele>
        <time>2023-06-04T14:00:41.000Z</time>
      </trkpt>
      <trkpt lat="45.82343" lon="4.64285">
        <ele>402.961</ele>
        <time>2023-06-04T14:00:42.000Z</time>
      </trkpt>
      <trkpt lat="45.8234" lon="4.64284">
        <ele>403.08411</ele>
        <time>2023-06-04T14:00:44.000Z</time>
      </trkpt>
      <trkpt lat="45.82339" lon="4.64289">
        <ele>402.87827</ele>
        <time>2023-06-04T14:00:49.000Z</time>
      </trkpt>
      <trkpt lat="45.82337" lon="4.64293">
        <ele>403.06589</ele>
        <time>2023-06-04T14:00:50.000Z</time>
      </trkpt>
      <trkpt lat="45.82335" lon="4.64297">
        <ele>402.87729</ele>
        <time>2023-06-04T14:00:51.000Z</time>
      </trkpt>
      <trkpt lat="45.82334" lon="4.64301">
        <ele>402.52493</ele>
        <time>2023-06-04T14:00:52.000Z</time>
      </trkpt>
      <trkpt lat="45.82333" lon="4.64304">
        <ele>402.16602</ele>
        <time>2023-06-04T14:00:53.000Z</time>
      </trkpt>
      <trkpt lat="45.82332" lon="4.64307">
        <ele>401.7959</ele>
        <time>2023-06-04T14:00:54.000Z</time>
      </trkpt>
      <trkpt lat="45.82331" lon="4.6431">
        <ele>401.61334</ele>
        <time>2023-06-04T14:00:55.000Z</time>
      </trkpt>
      <trkpt lat="45.8233" lon="4.64312">
        <ele>401.37372</ele>
        <time>2023-06-04T14:00:56.000Z</time>
      </trkpt>
      <trkpt lat="45.82329" lon="4.64315">
        <ele>401.16388</ele>
        <time>2023-06-04T14:00:57.000Z</time>
      </trkpt>
      <trkpt lat="45.82329" lon="4.64318">
        <ele>400.88498</ele>
        <time>2023-06-04T14:00:58.000Z</time>
      </trkpt>
      <trkpt lat="45.8233" lon="4.64323">
        <ele>400.64792</ele>
        <time>2023-06-04T14:00:59.000Z</time>
      </trkpt>
      <trkpt lat="45.82332" lon="4.64327">
        <ele>400.52008</ele>
        <time>2023-06-04T14:01:00.000Z</time>
      </trkpt>
      <trkpt lat="45.82334" lon="4.6433">
        <ele>399.97943</ele>
        <time>2023-06-04T14:01:01.000Z</time>
      </trkpt>
      <trkpt lat="45.82335" lon="4.64334">
        <ele>399.64032</ele>
        <time>2023-06-04T14:01:02.000Z</time>
      </trkpt>
      <trkpt lat="45.82335" lon="4.64337">
        <ele>399.35101</ele>
        <time>2023-06-04T14:01:03.000Z</time>
      </trkpt>
      <trkpt lat="45.82335" lon="4.6434">
        <ele>398.9118</ele>
        <time>2023-06-04T14:01:04.000Z</time>
      </trkpt>
      <trkpt lat="45.82336" lon="4.64344">
        <ele>398.53162</ele>
        <time>2023-06-04T14:01:05.000Z</time>
      </trkpt>
      <trkpt lat="45.82336" lon="4.64348">
        <ele>398.07806</ele>
        <time>2023-06-04T14:01:06.000Z</time>
      </trkpt>
      <trkpt lat="45.82336" lon="4.64353">
        <ele>397.92258</ele>
        <time>2023-06-04T14:01:07.000Z</time>
      </trkpt>
      <trkpt lat="45.82336" lon="4.64358">
        <ele>398.00671</ele>
        <time>2023-06-04T14:01:08.000Z</time>
      </trkpt>
      <trkpt lat="45.82336" lon="4.6436">
        <ele>398.21884</ele>
        <time>2023-06-04T14:01:09.000Z</time>
      </trkpt>
      <trkpt lat="45.82335" lon="4.64364">
        <ele>398.5018</ele>
        <time>2023-06-04T14:01:10.000Z</time>
      </trkpt>
      <trkpt lat="45.82335" lon="4.64368">
        <ele>398.88589</ele>
        <time>2023-06-04T14:01:11.000Z</time>
      </trkpt>
      <trkpt lat="45.82335" lon="4.64373">
        <ele>399.31073</ele>
        <time>2023-06-04T14:01:12.000Z</time>
      </trkpt>
      <trkpt lat="45.82334" lon="4.64378">
        <ele>399.77203</ele>
        <time>2023-06-04T14:01:13.000Z</time>
      </trkpt>
      <trkpt lat="45.82335" lon="4.64383">
        <ele>400.19611</ele>
        <time>2023-06-04T14:01:14.000Z</time>
      </trkpt>
      <trkpt lat="45.82336" lon="4.64388">
        <ele>400.65546</ele>
        <time>2023-06-04T14:01:15.000Z</time>
      </trkpt>
      <trkpt lat="45.82336" lon="4.64393">
        <ele>401.24088</ele>
        <time>2023-06-04T14:01:16.000Z</time>
      </trkpt>
      <trkpt lat="45.82336" lon="4.64396">
        <ele>401.76138</ele>
        <time>2023-06-04T14:01:17.000Z</time>
      </trkpt>
      <trkpt lat="45.82335" lon="4.644">
        <ele>402.25934</ele>
        <time>2023-06-04T14:01:18.000Z</time>
      </trkpt>
      <trkpt lat="45.82334" lon="4.64405">
        <ele>402.80624</ele>
        <time>2023-06-04T14:01:19.000Z</time>
      </trkpt>
      <trkpt lat="45.82332" lon="4.6441">
        <ele>403.14551</ele>
        <time>2023-06-04T14:01:20.000Z</time>
      </trkpt>
      <trkpt lat="45.8233" lon="4.64414">
        <ele>403.48596</ele>
        <time>2023-06-04T14:01:21.000Z</time>
      </trkpt>
      <trkpt lat="45.82331" lon="4.64417">
        <ele>404.00058</ele>
        <time>2023-06-04T14:01:27.000Z</time>
      </trkpt>
      <trkpt lat="45.82334" lon="4.64417">
        <ele>404.59317</ele>
        <time>2023-06-04T14:01:30.000Z</time>
      </trkpt>
      <trkpt lat="45.82332" lon="4.6442">
        <ele>405.16055</ele>
        <time>2023-06-04T14:01:34.000Z</time>
      </trkpt>
      <trkpt lat="45.8233" lon="4.64418">
        <ele>405.77969</ele>
        <time>2023-06-04T14:01:36.000Z</time>
      </trkpt>
      <trkpt lat="45.82331" lon="4.64425">
        <ele>406.45724</ele>
        <time>2023-06-04T14:01:39.000Z</time>
      </trkpt>
      <trkpt lat="45.82331" lon="4.6443">
        <ele>406.83817</ele>
        <time>2023-06-04T14:01:40.000Z</time>
      </trkpt>
      <trkpt lat="45.82331" lon="4.64437">
        <ele>407.22137</ele>
        <time>2023-06-04T14:01:41.000Z</time>
      </trkpt>
      <trkpt lat="45.82332" lon="4.64442">
        <ele>407.55264</ele>
        <time>2023-06-04T14:01:42.000Z</time>
      </trkpt>
      <trkpt lat="45.82334" lon="4.64447">
        <ele>407.83771</ele>
        <time>2023-06-04T14:01:43.000Z</time>
      </trkpt>
      <trkpt lat="45.82335" lon="4.64452">
        <ele>408.13763</ele>
        <time>2023-06-04T14:01:44.000Z</time>
      </trkpt>
      <trkpt lat="45.82336" lon="4.64455">
        <ele>408.48062</ele>
        <time>2023-06-04T14:01:45.000Z</time>
      </trkpt>
      <trkpt lat="45.82338" lon="4.64459">
        <ele>408.82468</ele>
        <time>2023-06-04T14:01:46.000Z</time>
      </trkpt>
      <trkpt lat="45.82339" lon="4.64462">
        <ele>409.13678</ele>
        <time>2023-06-04T14:01:47.000Z</time>
      </trkpt>
      <trkpt lat="45.82341" lon="4.64465">
        <ele>409.4006</ele>
        <time>2023-06-04T14:01:48.000Z</time>
      </trkpt>
      <trkpt lat="45.82342" lon="4.64468">
        <ele>409.59467</ele>
        <time>2023-06-04T14:01:49.000Z</time>
      </trkpt>
      <trkpt lat="45.82344" lon="4.64472">
        <ele>409.80951</ele>
        <time>2023-06-04T14:01:50.000Z</time>
      </trkpt>
      <trkpt lat="45.82346" lon="4.64476">
        <ele>410.06168</ele>
        <time>2023-06-04T14:01:51.000Z</time>
      </trkpt>
      <trkpt lat="45.82347" lon="4.6448">
        <ele>410.25513</ele>
        <time>2023-06-04T14:01:52.000Z</time>
      </trkpt>
      <trkpt lat="45.82349" lon="4.64484">
        <ele>410.71542</ele>
        <time>2023-06-04T14:01:53.000Z</time>
      </trkpt>
      <trkpt lat="45.8235" lon="4.6449">
        <ele>411.23209</ele>
        <time>2023-06-04T14:01:54.000Z</time>
      </trkpt>
      <trkpt lat="45.82351" lon="4.64495">
        <ele>411.57208</ele>
        <time>2023-06-04T14:01:55.000Z</time>
      </trkpt>
      <trkpt lat="45.82351" lon="4.64501">
        <ele>411.78436</ele>
        <time>2023-06-04T14:01:56.000Z</time>
      </trkpt>
      <trkpt lat="45.82351" lon="4.64507">
        <ele>411.91928</ele>
        <time>2023-06-04T14:01:57.000Z</time>
      </trkpt>
      <trkpt lat="45.82351" lon="4.64512">
        <ele>411.93008</ele>
        <time>2023-06-04T14:01:58.000Z</time>
      </trkpt>
      <trkpt lat="45.82351" lon="4.64517">
        <ele>411.84943</ele>
        <time>2023-06-04T14:01:59.000Z</time>
      </trkpt>
      <trkpt lat="45.82353" lon="4.64522">
        <ele>411.9986</ele>
        <time>2023-06-04T14:02:00.000Z</time>
      </trkpt>
      <trkpt lat="45.82354" lon="4.64527">
        <ele>412.09024</ele>
        <time>2023-06-04T14:02:01.000Z</time>
      </trkpt>
      <trkpt lat="45.82355" lon="4.64531">
        <ele>412.19965</ele>
        <time>2023-06-04T14:02:02.000Z</time>
      </trkpt>
      <trkpt lat="45.82356" lon="4.64534">
        <ele>412.31046</ele>
        <time>2023-06-04T14:02:03.000Z</time>
      </trkpt>
      <trkpt lat="45.82357" lon="4.64539">
        <ele>412.43311</ele>
        <time>2023-06-04T14:02:04.000Z</time>
      </trkpt>
      <trkpt lat="45.82358" lon="4.64543">
        <ele>412.50888</ele>
        <time>2023-06-04T14:02:05.000Z</time>
      </trkpt>
      <trkpt lat="45.82359" lon="4.64546">
        <ele>412.62338</ele>
        <time>2023-06-04T14:02:06.000Z</time>
      </trkpt>
      <trkpt lat="45.8236" lon="4.64551">
        <ele>412.729</ele>
        <time>2023-06-04T14:02:07.000Z</time>
      </trkpt>
      <trkpt lat="45.82361" lon="4.64553">
        <ele>412.91718</ele>
        <time>2023-06-04T14:02:08.000Z</time>
      </trkpt>
      <trkpt lat="45.82362" lon="4.64556">
        <ele>413.12115</ele>
        <time>2023-06-04T14:02:09.000Z</time>
      </trkpt>
      <trkpt lat="45.82362" lon="4.64559">
        <ele>413.37665</ele>
        <time>2023-06-04T14:02:10.000Z</time>
      </trkpt>
      <trkpt lat="45.82363" lon="4.64556">
        <ele>413.60626</ele>
        <time>2023-06-04T14:02:13.000Z</time>
      </trkpt>
      <trkpt lat="45.82361" lon="4.64559">
        <ele>413.72397</ele>
        <time>2023-06-04T14:02:16.000Z</time>
      </trkpt>
      <trkpt lat="45.82362" lon="4.64563">
        <ele>413.76727</ele>
        <time>2023-06-04T14:02:17.000Z</time>
      </trkpt>
      <trkpt lat="45.82362" lon="4.64567">
        <ele>413.71719</ele>
        <time>2023-06-04T14:02:18.000Z</time>
      </trkpt>
      <trkpt lat="45.82362" lon="4.64572">
        <ele>413.66928</ele>
        <time>2023-06-04T14:02:19.000Z</time>
      </trkpt>
      <trkpt lat="45.82362" lon="4.64578">
        <ele>413.70224</ele>
        <time>2023-06-04T14:02:20.000Z</time>
      </trkpt>
      <trkpt lat="45.82362" lon="4.64584">
        <ele>413.76822</ele>
        <time>2023-06-04T14:02:21.000Z</time>
      </trkpt>
      <trkpt lat="45.82361" lon="4.6459">
        <ele>413.89111</ele>
        <time>2023-06-04T14:02:22.000Z</time>
      </trkpt>
      <trkpt lat="45.8236" lon="4.64595">
        <ele>413.97119</ele>
        <time>2023-06-04T14:02:23.000Z</time>
      </trkpt>
      <trkpt lat="45.82359" lon="4.646">
        <ele>414.07968</ele>
        <time>2023-06-04T14:02:24.000Z</time>
      </trkpt>
      <trkpt lat="45.82357" lon="4.64606">
        <ele>414.14911</ele>
        <time>2023-06-04T14:02:25.000Z</time>
      </trkpt>
      <trkpt lat="45.82355" lon="4.6461">
        <ele>414.24991</ele>
        <time>2023-06-04T14:02:26.000Z</time>
      </trkpt>
      <trkpt lat="45.82354" lon="4.64615">
        <ele>414.37885</ele>
        <time>2023-06-04T14:02:28.000Z</time>
      </trkpt>
      <trkpt lat="45.82353" lon="4.6462">
        <ele>414.49454</ele>
        <time>2023-06-04T14:02:29.000Z</time>
      </trkpt>
      <trkpt lat="45.82352" lon="4.64624">
        <ele>414.40927</ele>
        <time>2023-06-04T14:02:30.000Z</time>
      </trkpt>
      <trkpt lat="45.82351" lon="4.64629">
        <ele>414.25726</ele>
        <time>2023-06-04T14:02:31.000Z</time>
      </trkpt>
      <trkpt lat="45.82352" lon="4.64633">
        <ele>414.20233</ele>
        <time>2023-06-04T14:02:32.000Z</time>
      </trkpt>
      <trkpt lat="45.82351" lon="4.64636">
        <ele>413.98511</ele>
        <time>2023-06-04T14:02:33.000Z</time>
      </trkpt>
      <trkpt lat="45.82351" lon="4.6464">
        <ele>413.67496</ele>
        <time>2023-06-04T14:02:34.000Z</time>
      </trkpt>
      <trkpt lat="45.82351" lon="4.64644">
        <ele>413.36035</ele>
        <time>2023-06-04T14:02:35.000Z</time>
      </trkpt>
      <trkpt lat="45.8235" lon="4.64648">
        <ele>413.0376</ele>
        <time>2023-06-04T14:02:36.000Z</time>
      </trkpt>
      <trkpt lat="45.82349" lon="4.64652">
        <ele>412.78888</ele>
        <time>2023-06-04T14:02:37.000Z</time>
      </trkpt>
      <trkpt lat="45.82348" lon="4.64656">
        <ele>412.56073</ele>
        <time>2023-06-04T14:02:38.000Z</time>
      </trkpt>
      <trkpt lat="45.82347" lon="4.64659">
        <ele>412.41852</ele>
        <time>2023-06-04T14:02:39.000Z</time>
      </trkpt>
      <trkpt lat="45.82347" lon="4.64663">
        <ele>412.23877</ele>
        <time>2023-06-04T14:02:40.000Z</time>
      </trkpt>
      <trkpt lat="45.82347" lon="4.64668">
        <ele>411.99274</ele>
        <time>2023-06-04T14:02:41.000Z</time>
      </trkpt>
      <trkpt lat="45.82347" lon="4.64672">
        <ele>411.63681</ele>
        <time>2023-06-04T14:02:42.000Z</time>
      </trkpt>
      <trkpt lat="45.82346" lon="4.64677">
        <ele>411.25562</ele>
        <time>2023-06-04T14:02:43.000Z</time>
      </trkpt>
      <trkpt lat="45.82345" lon="4.64682">
        <ele>410.85028</ele>
        <time>2023-06-04T14:02:44.000Z</time>
      </trkpt>
      <trkpt lat="45.82343" lon="4.64687">
        <ele>410.52411</ele>
        <time>2023-06-04T14:02:45.000Z</time>
      </trkpt>
      <trkpt lat="45.82341" lon="4.64692">
        <ele>410.19858</ele>
        <time>2023-06-04T14:02:46.000Z</time>
      </trkpt>
      <trkpt lat="45.82338" lon="4.64695">
        <ele>409.79688</ele>
        <time>2023-06-04T14:02:47.000Z</time>
      </trkpt>
      <trkpt lat="45.82337" lon="4.64699">
        <ele>409.39206</ele>
        <time>2023-06-04T14:02:48.000Z</time>
      </trkpt>
      <trkpt lat="45.82337" lon="4.64703">
        <ele>409.00513</ele>
        <time>2023-06-04T14:02:49.000Z</time>
      </trkpt>
      <trkpt lat="45.82337" lon="4.64707">
        <ele>408.76312</ele>
        <time>2023-06-04T14:02:50.000Z</time>
      </trkpt>
      <trkpt lat="45.82339" lon="4.64711">
        <ele>408.60162</ele>
        <time>2023-06-04T14:02:51.000Z</time>
      </trkpt>
      <trkpt lat="45.82339" lon="4.64716">
        <ele>408.44696</ele>
        <time>2023-06-04T14:02:52.000Z</time>
      </trkpt>
      <trkpt lat="45.8234" lon="4.6472">
        <ele>408.35928</ele>
        <time>2023-06-04T14:02:53.000Z</time>
      </trkpt>
      <trkpt lat="45.82341" lon="4.64726">
        <ele>408.3139</ele>
        <time>2023-06-04T14:02:54.000Z</time>
      </trkpt>
      <trkpt lat="45.82342" lon="4.64731">
        <ele>408.20938</ele>
        <time>2023-06-04T14:02:55.000Z</time>
      </trkpt>
      <trkpt lat="45.82343" lon="4.64736">
        <ele>408.12494</ele>
        <time>2023-06-04T14:02:56.000Z</time>
      </trkpt>
      <trkpt lat="45.82344" lon="4.64741">
        <ele>408.07367</ele>
        <time>2023-06-04T14:02:57.000Z</time>
      </trkpt>
      <trkpt lat="45.82344" lon="4.64746">
        <ele>408.02423</ele>
        <time>2023-06-04T14:02:58.000Z</time>
      </trkpt>
      <trkpt lat="45.82344" lon="4.64751">
        <ele>408.0274</ele>
        <time>2023-06-04T14:02:59.000Z</time>
      </trkpt>
      <trkpt lat="45.82343" lon="4.64757">
        <ele>407.43195</ele>
        <time>2023-06-04T14:03:00.000Z</time>
      </trkpt>
      <trkpt lat="45.82341" lon="4.64762">
        <ele>406.76743</ele>
        <time>2023-06-04T14:03:01.000Z</time>
      </trkpt>
      <trkpt lat="45.82342" lon="4.64765">
        <ele>406.76849</ele>
        <time>2023-06-04T14:03:02.000Z</time>
      </trkpt>
      <trkpt lat="45.82339" lon="4.64776">
        <ele>406.67426</ele>
        <time>2023-06-04T14:03:03.000Z</time>
      </trkpt>
      <trkpt lat="45.82337" lon="4.64783">
        <ele>406.58105</ele>
        <time>2023-06-04T14:03:04.000Z</time>
      </trkpt>
      <trkpt lat="45.82335" lon="4.64788">
        <ele>406.32111</ele>
        <time>2023-06-04T14:03:05.000Z</time>
      </trkpt>
      <trkpt lat="45.82339" lon="4.64792">
        <ele>406.10721</ele>
        <time>2023-06-04T14:03:06.000Z</time>
      </trkpt>
      <trkpt lat="45.82336" lon="4.64796">
        <ele>405.96594</ele>
        <time>2023-06-04T14:03:07.000Z</time>
      </trkpt>
      <trkpt lat="45.82334" lon="4.64802">
        <ele>405.87857</ele>
        <time>2023-06-04T14:03:08.000Z</time>
      </trkpt>
      <trkpt lat="45.8233" lon="4.64808">
        <ele>405.83307</ele>
        <time>2023-06-04T14:03:10.000Z</time>
      </trkpt>
      <trkpt lat="45.82328" lon="4.6481">
        <ele>405.98175</ele>
        <time>2023-06-04T14:03:11.000Z</time>
      </trkpt>
      <trkpt lat="45.82328" lon="4.64817">
        <ele>406.00638</ele>
        <time>2023-06-04T14:03:12.000Z</time>
      </trkpt>
      <trkpt lat="45.82326" lon="4.64824">
        <ele>406.02402</ele>
        <time>2023-06-04T14:03:13.000Z</time>
      </trkpt>
      <trkpt lat="45.82324" lon="4.64829">
        <ele>406.06235</ele>
        <time>2023-06-04T14:03:14.000Z</time>
      </trkpt>
      <trkpt lat="45.82324" lon="4.64836">
        <ele>406.10309</ele>
        <time>2023-06-04T14:03:15.000Z</time>
      </trkpt>
      <trkpt lat="45.82324" lon="4.64842">
        <ele>406.17493</ele>
        <time>2023-06-04T14:03:16.000Z</time>
      </trkpt>
      <trkpt lat="45.82322" lon="4.64846">
        <ele>406.25967</ele>
        <time>2023-06-04T14:03:17.000Z</time>
      </trkpt>
      <trkpt lat="45.82319" lon="4.64851">
        <ele>406.35913</ele>
        <time>2023-06-04T14:03:18.000Z</time>
      </trkpt>
      <trkpt lat="45.82314" lon="4.64857">
        <ele>406.39725</ele>
        <time>2023-06-04T14:03:19.000Z</time>
      </trkpt>
      <trkpt lat="45.82312" lon="4.64859">
        <ele>406.35339</ele>
        <time>2023-06-04T14:03:20.000Z</time>
      </trkpt>
      <trkpt lat="45.82308" lon="4.64865">
        <ele>406.90787</ele>
        <time>2023-06-04T14:03:21.000Z</time>
      </trkpt>
      <trkpt lat="45.82309" lon="4.64872">
        <ele>407.59436</ele>
        <time>2023-06-04T14:03:22.000Z</time>
      </trkpt>
      <trkpt lat="45.82309" lon="4.64877">
        <ele>407.69791</ele>
        <time>2023-06-04T14:03:23.000Z</time>
      </trkpt>
      <trkpt lat="45.82306" lon="4.6488">
        <ele>407.8627</ele>
        <time>2023-06-04T14:03:24.000Z</time>
      </trkpt>
      <trkpt lat="45.82307" lon="4.64887">
        <ele>408.08157</ele>
        <time>2023-06-04T14:03:25.000Z</time>
      </trkpt>
      <trkpt lat="45.82299" lon="4.64892">
        <ele>408.36453</ele>
        <time>2023-06-04T14:03:26.000Z</time>
      </trkpt>
      <trkpt lat="45.82296" lon="4.64892">
        <ele>408.57538</ele>
        <time>2023-06-04T14:03:28.000Z</time>
      </trkpt>
      <trkpt lat="45.823" lon="4.64895">
        <ele>408.93427</ele>
        <time>2023-06-04T14:03:29.000Z</time>
      </trkpt>
      <trkpt lat="45.82304" lon="4.64891">
        <ele>408.97809</ele>
        <time>2023-06-04T14:03:30.000Z</time>
      </trkpt>
      <trkpt lat="45.82301" lon="4.6489">
        <ele>409.01068</ele>
        <time>2023-06-04T14:03:31.000Z</time>
      </trkpt>
      <trkpt lat="45.823" lon="4.64888">
        <ele>408.9942</ele>
        <time>2023-06-04T14:03:33.000Z</time>
      </trkpt>
      <trkpt lat="45.82302" lon="4.64888">
        <ele>408.87036</ele>
        <time>2023-06-04T14:03:36.000Z</time>
      </trkpt>
      <trkpt lat="45.82304" lon="4.64887">
        <ele>408.7027</ele>
        <time>2023-06-04T14:03:37.000Z</time>
      </trkpt>
      <trkpt lat="45.82307" lon="4.64887">
        <ele>408.4967</ele>
        <time>2023-06-04T14:03:39.000Z</time>
      </trkpt>
      <trkpt lat="45.82305" lon="4.64888">
        <ele>408.21524</ele>
        <time>2023-06-04T14:03:43.000Z</time>
      </trkpt>
      <trkpt lat="45.82304" lon="4.64891">
        <ele>407.9986</ele>
        <time>2023-06-04T14:03:45.000Z</time>
      </trkpt>
      <trkpt lat="45.82302" lon="4.6489">
        <ele>407.80621</ele>
        <time>2023-06-04T14:03:49.000Z</time>
      </trkpt>
      <trkpt lat="45.82303" lon="4.64889">
        <ele>407.56488</ele>
        <time>2023-06-04T14:03:51.000Z</time>
      </trkpt>
      <trkpt lat="45.82306" lon="4.64889">
        <ele>407.38715</ele>
        <time>2023-06-04T14:03:52.000Z</time>
      </trkpt>
      <trkpt lat="45.82309" lon="4.64889">
        <ele>407.16547</ele>
        <time>2023-06-04T14:03:53.000Z</time>
      </trkpt>
      <trkpt lat="45.82312" lon="4.64891">
        <ele>407.05423</ele>
        <time>2023-06-04T14:03:55.000Z</time>
      </trkpt>
      <trkpt lat="45.82313" lon="4.64893">
        <ele>406.88651</ele>
        <time>2023-06-04T14:03:58.000Z</time>
      </trkpt>
      <trkpt lat="45.82311" lon="4.64893">
        <ele>406.95517</ele>
        <time>2023-06-04T14:04:01.000Z</time>
      </trkpt>
      <trkpt lat="45.82309" lon="4.64889">
        <ele>406.93164</ele>
        <time>2023-06-04T14:04:03.000Z</time>
      </trkpt>
      <trkpt lat="45.82309" lon="4.64887">
        <ele>406.92108</ele>
        <time>2023-06-04T14:04:04.000Z</time>
      </trkpt>
      <trkpt lat="45.8231" lon="4.64884">
        <ele>406.92978</ele>
        <time>2023-06-04T14:04:05.000Z</time>
      </trkpt>
      <trkpt lat="45.82312" lon="4.64882">
        <ele>407.01129</ele>
        <time>2023-06-04T14:04:06.000Z</time>
      </trkpt>
      <trkpt lat="45.8231" lon="4.64885">
        <ele>406.97382</ele>
        <time>2023-06-04T14:04:10.000Z</time>
      </trkpt>
      <trkpt lat="45.82308" lon="4.64888">
        <ele>407.18063</ele>
        <time>2023-06-04T14:04:11.000Z</time>
      </trkpt>
      <trkpt lat="45.82306" lon="4.64892">
        <ele>407.23093</ele>
        <time>2023-06-04T14:04:12.000Z</time>
      </trkpt>
      <trkpt lat="45.82302" lon="4.64897">
        <ele>407.14374</ele>
        <time>2023-06-04T14:04:13.000Z</time>
      </trkpt>
      <trkpt lat="45.82301" lon="4.649">
        <ele>407.15128</ele>
        <time>2023-06-04T14:04:14.000Z</time>
      </trkpt>
      <trkpt lat="45.82303" lon="4.64903">
        <ele>407.10699</ele>
        <time>2023-06-04T14:04:16.000Z</time>
      </trkpt>
      <trkpt lat="45.82304" lon="4.64905">
        <ele>407.04401</ele>
        <time>2023-06-04T14:04:17.000Z</time>
      </trkpt>
      <trkpt lat="45.82299" lon="4.64904">
        <ele>406.87567</ele>
        <time>2023-06-04T14:04:20.000Z</time>
      </trkpt>
      <trkpt lat="45.82295" lon="4.649">
        <ele>406.67267</ele>
        <time>2023-06-04T14:04:21.000Z</time>
      </trkpt>
      <trkpt lat="45.82292" lon="4.64897">
        <ele>406.42691</ele>
        <time>2023-06-04T14:04:22.000Z</time>
      </trkpt>
      <trkpt lat="45.8229" lon="4.64893">
        <ele>406.16962</ele>
        <time>2023-06-04T14:04:23.000Z</time>
      </trkpt>
      <trkpt lat="45.82288" lon="4.64889">
        <ele>405.93433</ele>
        <time>2023-06-04T14:04:24.000Z</time>
      </trkpt>
      <trkpt lat="45.82285" lon="4.64886">
        <ele>405.80994</ele>
        <time>2023-06-04T14:04:25.000Z</time>
      </trkpt>
      <trkpt lat="45.82281" lon="4.64884">
        <ele>405.57025</ele>
        <time>2023-06-04T14:04:26.000Z</time>
      </trkpt>
      <trkpt lat="45.82278" lon="4.64881">
        <ele>405.23004</ele>
        <time>2023-06-04T14:04:27.000Z</time>
      </trkpt>
      <trkpt lat="45.82274" lon="4.64878">
        <ele>404.73129</ele>
        <time>2023-06-04T14:04:28.000Z</time>
      </trkpt>
      <trkpt lat="45.82271" lon="4.64876">
        <ele>404.36163</ele>
        <time>2023-06-04T14:04:29.000Z</time>
      </trkpt>
      <trkpt lat="45.82268" lon="4.64874">
        <ele>404.00238</ele>
        <time>2023-06-04T14:04:30.000Z</time>
      </trkpt>
      <trkpt lat="45.82264" lon="4.64872">
        <ele>403.74884</ele>
        <time>2023-06-04T14:04:31.000Z</time>
      </trkpt>
      <trkpt lat="45.82261" lon="4.64869">
        <ele>403.50677</ele>
        <time>2023-06-04T14:04:32.000Z</time>
      </trkpt>
      <trkpt lat="45.82257" lon="4.64866">
        <ele>403.20035</ele>
        <time>2023-06-04T14:04:33.000Z</time>
      </trkpt>
      <trkpt lat="45.82254" lon="4.64863">
        <ele>402.97174</ele>
        <time>2023-06-04T14:04:34.000Z</time>
      </trkpt>
      <trkpt lat="45.82251" lon="4.64861">
        <ele>402.86432</ele>
        <time>2023-06-04T14:04:35.000Z</time>
      </trkpt>
      <trkpt lat="45.82247" lon="4.64858">
        <ele>402.80511</ele>
        <time>2023-06-04T14:04:36.000Z</time>
      </trkpt>
      <trkpt lat="45.82244" lon="4.64855">
        <ele>402.86774</ele>
        <time>2023-06-04T14:04:37.000Z</time>
      </trkpt>
      <trkpt lat="45.82241" lon="4.64853">
        <ele>403.10883</ele>
        <time>2023-06-04T14:04:38.000Z</time>
      </trkpt>
      <trkpt lat="45.82239" lon="4.6485">
        <ele>403.34787</ele>
        <time>2023-06-04T14:04:39.000Z</time>
      </trkpt>
      <trkpt lat="45.82236" lon="4.64847">
        <ele>403.77115</ele>
        <time>2023-06-04T14:04:40.000Z</time>
      </trkpt>
      <trkpt lat="45.82233" lon="4.64844">
        <ele>404.13821</ele>
        <time>2023-06-04T14:04:41.000Z</time>
      </trkpt>
      <trkpt lat="45.82231" lon="4.6484">
        <ele>404.50708</ele>
        <time>2023-06-04T14:04:42.000Z</time>
      </trkpt>
      <trkpt lat="45.82227" lon="4.64832">
        <ele>404.97247</ele>
        <time>2023-06-04T14:04:43.000Z</time>
      </trkpt>
      <trkpt lat="45.82223" lon="4.64831">
        <ele>405.41461</ele>
        <time>2023-06-04T14:04:44.000Z</time>
      </trkpt>
      <trkpt lat="45.82218" lon="4.64828">
        <ele>405.54974</ele>
        <time>2023-06-04T14:04:45.000Z</time>
      </trkpt>
      <trkpt lat="45.82216" lon="4.64826">
        <ele>405.83597</ele>
        <time>2023-06-04T14:04:46.000Z</time>
      </trkpt>
      <trkpt lat="45.82214" lon="4.64825">
        <ele>406.20062</ele>
        <time>2023-06-04T14:04:47.000Z</time>
      </trkpt>
      <trkpt lat="45.82208" lon="4.6482">
        <ele>406.53577</ele>
        <time>2023-06-04T14:04:48.000Z</time>
      </trkpt>
      <trkpt lat="45.82205" lon="4.64815">
        <ele>406.8732</ele>
        <time>2023-06-04T14:04:49.000Z</time>
      </trkpt>
      <trkpt lat="45.82203" lon="4.64811">
        <ele>407.15765</ele>
        <time>2023-06-04T14:04:50.000Z</time>
      </trkpt>
      <trkpt lat="45.82201" lon="4.64808">
        <ele>407.39453</ele>
        <time>2023-06-04T14:04:51.000Z</time>
      </trkpt>
      <trkpt lat="45.82198" lon="4.64805">
        <ele>407.68484</ele>
        <time>2023-06-04T14:04:52.000Z</time>
      </trkpt>
      <trkpt lat="45.82195" lon="4.64803">
        <ele>407.99649</ele>
        <time>2023-06-04T14:04:53.000Z</time>
      </trkpt>
      <trkpt lat="45.82191" lon="4.64801">
        <ele>408.29913</ele>
        <time>2023-06-04T14:04:54.000Z</time>
      </trkpt>
      <trkpt lat="45.82188" lon="4.64799">
        <ele>408.58496</ele>
        <time>2023-06-04T14:04:55.000Z</time>
      </trkpt>
      <trkpt lat="45.82184" lon="4.64797">
        <ele>408.86304</ele>
        <time>2023-06-04T14:04:56.000Z</time>
      </trkpt>
      <trkpt lat="45.82182" lon="4.64796">
        <ele>409.03601</ele>
        <time>2023-06-04T14:04:57.000Z</time>
      </trkpt>
      <trkpt lat="45.8218" lon="4.64793">
        <ele>409.02792</ele>
        <time>2023-06-04T14:04:58.000Z</time>
      </trkpt>
      <trkpt lat="45.82176" lon="4.64791">
        <ele>409.11115</ele>
        <time>2023-06-04T14:04:59.000Z</time>
      </trkpt>
      <trkpt lat="45.82173" lon="4.64787">
        <ele>409.22076</ele>
        <time>2023-06-04T14:05:00.000Z</time>
      </trkpt>
      <trkpt lat="45.82171" lon="4.64783">
        <ele>409.46835</ele>
        <time>2023-06-04T14:05:01.000Z</time>
      </trkpt>
      <trkpt lat="45.82169" lon="4.64779">
        <ele>409.69427</ele>
        <time>2023-06-04T14:05:02.000Z</time>
      </trkpt>
      <trkpt lat="45.82167" lon="4.64775">
        <ele>409.83536</ele>
        <time>2023-06-04T14:05:03.000Z</time>
      </trkpt>
      <trkpt lat="45.82166" lon="4.64771">
        <ele>410.03888</ele>
        <time>2023-06-04T14:05:04.000Z</time>
      </trkpt>
      <trkpt lat="45.82165" lon="4.64767">
        <ele>410.48682</ele>
        <time>2023-06-04T14:05:05.000Z</time>
      </trkpt>
      <trkpt lat="45.82164" lon="4.64762">
        <ele>410.80914</ele>
        <time>2023-06-04T14:05:06.000Z</time>
      </trkpt>
      <trkpt lat="45.82164" lon="4.64758">
        <ele>411.13672</ele>
        <time>2023-06-04T14:05:07.000Z</time>
      </trkpt>
      <trkpt lat="45.82163" lon="4.64753">
        <ele>411.43832</ele>
        <time>2023-06-04T14:05:08.000Z</time>
      </trkpt>
      <trkpt lat="45.82163" lon="4.64743">
        <ele>411.74432</ele>
        <time>2023-06-04T14:05:09.000Z</time>
      </trkpt>
      <trkpt lat="45.82159" lon="4.64737">
        <ele>412.10742</ele>
        <time>2023-06-04T14:05:10.000Z</time>
      </trkpt>
      <trkpt lat="45.8216" lon="4.64731">
        <ele>412.45532</ele>
        <time>2023-06-04T14:05:11.000Z</time>
      </trkpt>
      <trkpt lat="45.82166" lon="4.64727">
        <ele>412.65805</ele>
        <time>2023-06-04T14:05:12.000Z</time>
      </trkpt>
      <trkpt lat="45.82166" lon="4.64721">
        <ele>412.86841</ele>
        <time>2023-06-04T14:05:13.000Z</time>
      </trkpt>
      <trkpt lat="45.82164" lon="4.64717">
        <ele>413.03384</ele>
        <time>2023-06-04T14:05:14.000Z</time>
      </trkpt>
      <trkpt lat="45.82161" lon="4.64711">
        <ele>413.24799</ele>
        <time>2023-06-04T14:05:16.000Z</time>
      </trkpt>
      <trkpt lat="45.82162" lon="4.64705">
        <ele>413.49951</ele>
        <time>2023-06-04T14:05:17.000Z</time>
      </trkpt>
      <trkpt lat="45.82161" lon="4.64702">
        <ele>413.8255</ele>
        <time>2023-06-04T14:05:18.000Z</time>
      </trkpt>
      <trkpt lat="45.8216" lon="4.64697">
        <ele>414.21014</ele>
        <time>2023-06-04T14:05:19.000Z</time>
      </trkpt>
      <trkpt lat="45.8216" lon="4.6469">
        <ele>414.54224</ele>
        <time>2023-06-04T14:05:20.000Z</time>
      </trkpt>
      <trkpt lat="45.82158" lon="4.64685">
        <ele>414.8067</ele>
        <time>2023-06-04T14:05:21.000Z</time>
      </trkpt>
      <trkpt lat="45.82157" lon="4.6468">
        <ele>414.9953</ele>
        <time>2023-06-04T14:05:22.000Z</time>
      </trkpt>
      <trkpt lat="45.82156" lon="4.64675">
        <ele>415.21176</ele>
        <time>2023-06-04T14:05:23.000Z</time>
      </trkpt>
      <trkpt lat="45.82155" lon="4.6467">
        <ele>415.4379</ele>
        <time>2023-06-04T14:05:24.000Z</time>
      </trkpt>
      <trkpt lat="45.82154" lon="4.64665">
        <ele>415.62958</ele>
        <time>2023-06-04T14:05:25.000Z</time>
      </trkpt>
      <trkpt lat="45.82154" lon="4.64662">
        <ele>415.7951</ele>
        <time>2023-06-04T14:05:26.000Z</time>
      </trkpt>
      <trkpt lat="45.82153" lon="4.64659">
        <ele>416.00446</ele>
        <time>2023-06-04T14:05:27.000Z</time>
      </trkpt>
      <trkpt lat="45.82152" lon="4.64654">
        <ele>416.18857</ele>
        <time>2023-06-04T14:05:28.000Z</time>
      </trkpt>
      <trkpt lat="45.82152" lon="4.64648">
        <ele>416.34122</ele>
        <time>2023-06-04T14:05:29.000Z</time>
      </trkpt>
      <trkpt lat="45.82152" lon="4.64643">
        <ele>416.44327</ele>
        <time>2023-06-04T14:05:30.000Z</time>
      </trkpt>
      <trkpt lat="45.82151" lon="4.64638">
        <ele>416.55161</ele>
        <time>2023-06-04T14:05:31.000Z</time>
      </trkpt>
      <trkpt lat="45.8215" lon="4.64634">
        <ele>416.67065</ele>
        <time>2023-06-04T14:05:32.000Z</time>
      </trkpt>
      <trkpt lat="45.82148" lon="4.64631">
        <ele>416.78729</ele>
        <time>2023-06-04T14:05:34.000Z</time>
      </trkpt>
      <trkpt lat="45.82146" lon="4.64628">
        <ele>416.96094</ele>
        <time>2023-06-04T14:05:35.000Z</time>
      </trkpt>
      <trkpt lat="45.82143" lon="4.64625">
        <ele>417.13135</ele>
        <time>2023-06-04T14:05:36.000Z</time>
      </trkpt>
      <trkpt lat="45.82141" lon="4.64622">
        <ele>417.26108</ele>
        <time>2023-06-04T14:05:37.000Z</time>
      </trkpt>
      <trkpt lat="45.82138" lon="4.64619">
        <ele>417.42505</ele>
        <time>2023-06-04T14:05:38.000Z</time>
      </trkpt>
      <trkpt lat="45.82134" lon="4.64617">
        <ele>417.54199</ele>
        <time>2023-06-04T14:05:39.000Z</time>
      </trkpt>
      <trkpt lat="45.82131" lon="4.64616">
        <ele>417.65738</ele>
        <time>2023-06-04T14:05:40.000Z</time>
      </trkpt>
      <trkpt lat="45.82127" lon="4.64614">
        <ele>417.83194</ele>
        <time>2023-06-04T14:05:41.000Z</time>
      </trkpt>
      <trkpt lat="45.82123" lon="4.64612">
        <ele>417.97931</ele>
        <time>2023-06-04T14:05:42.000Z</time>
      </trkpt>
      <trkpt lat="45.82116" lon="4.64611">
        <ele>418.13617</ele>
        <time>2023-06-04T14:05:43.000Z</time>
      </trkpt>
      <trkpt lat="45.82112" lon="4.64606">
        <ele>418.30396</ele>
        <time>2023-06-04T14:05:44.000Z</time>
      </trkpt>
      <trkpt lat="45.8211" lon="4.64603">
        <ele>418.46509</ele>
        <time>2023-06-04T14:05:45.000Z</time>
      </trkpt>
      <trkpt lat="45.82108" lon="4.646">
        <ele>418.55728</ele>
        <time>2023-06-04T14:05:46.000Z</time>
      </trkpt>
      <trkpt lat="45.82106" lon="4.64599">
        <ele>418.27972</ele>
        <time>2023-06-04T14:05:47.000Z</time>
      </trkpt>
      <trkpt lat="45.82101" lon="4.64595">
        <ele>417.98944</ele>
        <time>2023-06-04T14:05:49.000Z</time>
      </trkpt>
      <trkpt lat="45.82095" lon="4.64593">
        <ele>417.72284</ele>
        <time>2023-06-04T14:05:50.000Z</time>
      </trkpt>
      <trkpt lat="45.82091" lon="4.64591">
        <ele>417.49634</ele>
        <time>2023-06-04T14:05:51.000Z</time>
      </trkpt>
      <trkpt lat="45.82085" lon="4.64588">
        <ele>417.2106</ele>
        <time>2023-06-04T14:05:52.000Z</time>
      </trkpt>
      <trkpt lat="45.82082" lon="4.64583">
        <ele>416.91022</ele>
        <time>2023-06-04T14:05:53.000Z</time>
      </trkpt>
      <trkpt lat="45.82077" lon="4.6458">
        <ele>416.55743</ele>
        <time>2023-06-04T14:05:54.000Z</time>
      </trkpt>
      <trkpt lat="45.82075" lon="4.64578">
        <ele>416.2872</ele>
        <time>2023-06-04T14:05:55.000Z</time>
      </trkpt>
      <trkpt lat="45.82071" lon="4.64575">
        <ele>415.93637</ele>
        <time>2023-06-04T14:05:56.000Z</time>
      </trkpt>
      <trkpt lat="45.8207" lon="4.6457">
        <ele>415.54572</ele>
        <time>2023-06-04T14:05:57.000Z</time>
      </trkpt>
      <trkpt lat="45.82066" lon="4.64568">
        <ele>415.20621</ele>
        <time>2023-06-04T14:05:58.000Z</time>
      </trkpt>
      <trkpt lat="45.8206" lon="4.64564">
        <ele>415.00717</ele>
        <time>2023-06-04T14:05:59.000Z</time>
      </trkpt>
      <trkpt lat="45.82054" lon="4.64562">
        <ele>414.81973</ele>
        <time>2023-06-04T14:06:00.000Z</time>
      </trkpt>
      <trkpt lat="45.82049" lon="4.6456">
        <ele>414.67267</ele>
        <time>2023-06-04T14:06:01.000Z</time>
      </trkpt>
      <trkpt lat="45.82044" lon="4.64557">
        <ele>414.48529</ele>
        <time>2023-06-04T14:06:02.000Z</time>
      </trkpt>
      <trkpt lat="45.82039" lon="4.64555">
        <ele>414.35117</ele>
        <time>2023-06-04T14:06:03.000Z</time>
      </trkpt>
      <trkpt lat="45.82034" lon="4.64552">
        <ele>414.19019</ele>
        <time>2023-06-04T14:06:04.000Z</time>
      </trkpt>
      <trkpt lat="45.82028" lon="4.6455">
        <ele>414.1806</ele>
        <time>2023-06-04T14:06:05.000Z</time>
      </trkpt>
      <trkpt lat="45.82024" lon="4.64546">
        <ele>414.17154</ele>
        <time>2023-06-04T14:06:06.000Z</time>
      </trkpt>
      <trkpt lat="45.82019" lon="4.64543">
        <ele>414.24902</ele>
        <time>2023-06-04T14:06:07.000Z</time>
      </trkpt>
      <trkpt lat="45.82015" lon="4.64539">
        <ele>414.72467</ele>
        <time>2023-06-04T14:06:08.000Z</time>
      </trkpt>
      <trkpt lat="45.82009" lon="4.64536">
        <ele>414.8172</ele>
        <time>2023-06-04T14:06:09.000Z</time>
      </trkpt>
      <trkpt lat="45.82004" lon="4.64533">
        <ele>414.60645</ele>
        <time>2023-06-04T14:06:10.000Z</time>
      </trkpt>
      <trkpt lat="45.81999" lon="4.6453">
        <ele>414.36786</ele>
        <time>2023-06-04T14:06:11.000Z</time>
      </trkpt>
      <trkpt lat="45.81994" lon="4.64527">
        <ele>414.21225</ele>
        <time>2023-06-04T14:06:12.000Z</time>
      </trkpt>
      <trkpt lat="45.81988" lon="4.64523">
        <ele>414.0415</ele>
        <time>2023-06-04T14:06:13.000Z</time>
      </trkpt>
      <trkpt lat="45.81983" lon="4.64519">
        <ele>413.87793</ele>
        <time>2023-06-04T14:06:14.000Z</time>
      </trkpt>
      <trkpt lat="45.81978" lon="4.64515">
        <ele>413.71249</ele>
        <time>2023-06-04T14:06:15.000Z</time>
      </trkpt>
      <trkpt lat="45.81972" lon="4.64511">
        <ele>413.54974</ele>
        <time>2023-06-04T14:06:16.000Z</time>
      </trkpt>
      <trkpt lat="45.81967" lon="4.64509">
        <ele>413.41708</ele>
        <time>2023-06-04T14:06:17.000Z</time>
      </trkpt>
      <trkpt lat="45.81962" lon="4.64505">
        <ele>413.21954</ele>
        <time>2023-06-04T14:06:18.000Z</time>
      </trkpt>
      <trkpt lat="45.81957" lon="4.645">
        <ele>413.1022</ele>
        <time>2023-06-04T14:06:19.000Z</time>
      </trkpt>
      <trkpt lat="45.8195" lon="4.64496">
        <ele>413.28207</ele>
        <time>2023-06-04T14:06:20.000Z</time>
      </trkpt>
      <trkpt lat="45.81942" lon="4.64494">
        <ele>413.38397</ele>
        <time>2023-06-04T14:06:21.000Z</time>
      </trkpt>
      <trkpt lat="45.81937" lon="4.64489">
        <ele>413.49292</ele>
        <time>2023-06-04T14:06:22.000Z</time>
      </trkpt>
      <trkpt lat="45.81933" lon="4.64486">
        <ele>413.59732</ele>
        <time>2023-06-04T14:06:23.000Z</time>
      </trkpt>
      <trkpt lat="45.81931" lon="4.64481">
        <ele>413.64764</ele>
        <time>2023-06-04T14:06:24.000Z</time>
      </trkpt>
      <trkpt lat="45.81926" lon="4.64475">
        <ele>413.49725</ele>
        <time>2023-06-04T14:06:25.000Z</time>
      </trkpt>
      <trkpt lat="45.8192" lon="4.64471">
        <ele>413.3421</ele>
        <time>2023-06-04T14:06:26.000Z</time>
      </trkpt>
      <trkpt lat="45.81917" lon="4.64467">
        <ele>413.10913</ele>
        <time>2023-06-04T14:06:27.000Z</time>
      </trkpt>
      <trkpt lat="45.81911" lon="4.64466">
        <ele>412.93106</ele>
        <time>2023-06-04T14:06:28.000Z</time>
      </trkpt>
      <trkpt lat="45.81908" lon="4.64461">
        <ele>413.13483</ele>
        <time>2023-06-04T14:06:29.000Z</time>
      </trkpt>
      <trkpt lat="45.81903" lon="4.6446">
        <ele>413.61713</ele>
        <time>2023-06-04T14:06:31.000Z</time>
      </trkpt>
      <trkpt lat="45.81904" lon="4.64456">
        <ele>414.08807</ele>
        <time>2023-06-04T14:06:32.000Z</time>
      </trkpt>
      <trkpt lat="45.819" lon="4.64454">
        <ele>414.47012</ele>
        <time>2023-06-04T14:06:34.000Z</time>
      </trkpt>
      <trkpt lat="45.81897" lon="4.64454">
        <ele>414.89911</ele>
        <time>2023-06-04T14:06:35.000Z</time>
      </trkpt>
      <trkpt lat="45.81894" lon="4.6445">
        <ele>415.56168</ele>
        <time>2023-06-04T14:06:39.000Z</time>
      </trkpt>
      <trkpt lat="45.81896" lon="4.64452">
        <ele>415.33609</ele>
        <time>2023-06-04T14:06:40.000Z</time>
      </trkpt>
      <trkpt lat="45.81898" lon="4.64455">
        <ele>415.06952</ele>
        <time>2023-06-04T14:06:41.000Z</time>
      </trkpt>
      <trkpt lat="45.819" lon="4.64457">
        <ele>414.65747</ele>
        <time>2023-06-04T14:06:42.000Z</time>
      </trkpt>
      <trkpt lat="45.81902" lon="4.64459">
        <ele>414.16064</ele>
        <time>2023-06-04T14:06:43.000Z</time>
      </trkpt>
      <trkpt lat="45.81905" lon="4.64462">
        <ele>413.4454</ele>
        <time>2023-06-04T14:06:44.000Z</time>
      </trkpt>
      <trkpt lat="45.81908" lon="4.64466">
        <ele>412.87314</ele>
        <time>2023-06-04T14:06:45.000Z</time>
      </trkpt>
      <trkpt lat="45.81911" lon="4.64468">
        <ele>412.254</ele>
        <time>2023-06-04T14:06:46.000Z</time>
      </trkpt>
      <trkpt lat="45.81914" lon="4.64471">
        <ele>412.1041</ele>
        <time>2023-06-04T14:06:47.000Z</time>
      </trkpt>
      <trkpt lat="45.81917" lon="4.64475">
        <ele>412.02496</ele>
        <time>2023-06-04T14:06:48.000Z</time>
      </trkpt>
      <trkpt lat="45.8192" lon="4.64478">
        <ele>411.98251</ele>
        <time>2023-06-04T14:06:49.000Z</time>
      </trkpt>
      <trkpt lat="45.81924" lon="4.6448">
        <ele>411.97137</ele>
        <time>2023-06-04T14:06:50.000Z</time>
      </trkpt>
      <trkpt lat="45.81928" lon="4.64482">
        <ele>412.05377</ele>
        <time>2023-06-04T14:06:51.000Z</time>
      </trkpt>
      <trkpt lat="45.81932" lon="4.64482">
        <ele>412.19904</ele>
        <time>2023-06-04T14:06:52.000Z</time>
      </trkpt>
      <trkpt lat="45.81935" lon="4.64479">
        <ele>412.2829</ele>
        <time>2023-06-04T14:06:53.000Z</time>
      </trkpt>
      <trkpt lat="45.81938" lon="4.64477">
        <ele>412.34741</ele>
        <time>2023-06-04T14:06:54.000Z</time>
      </trkpt>
      <trkpt lat="45.81939" lon="4.64473">
        <ele>412.42001</ele>
        <time>2023-06-04T14:06:55.000Z</time>
      </trkpt>
      <trkpt lat="45.8194" lon="4.64469">
        <ele>412.50821</ele>
        <time>2023-06-04T14:06:56.000Z</time>
      </trkpt>
      <trkpt lat="45.81941" lon="4.64465">
        <ele>412.73251</ele>
        <time>2023-06-04T14:06:57.000Z</time>
      </trkpt>
      <trkpt lat="45.81941" lon="4.64458">
        <ele>412.9118</ele>
        <time>2023-06-04T14:06:58.000Z</time>
      </trkpt>
      <trkpt lat="45.8194" lon="4.64451">
        <ele>412.90683</ele>
        <time>2023-06-04T14:06:59.000Z</time>
      </trkpt>
      <trkpt lat="45.8194" lon="4.64444">
        <ele>413.72226</ele>
        <time>2023-06-04T14:07:00.000Z</time>
      </trkpt>
      <trkpt lat="45.8194" lon="4.64439">
        <ele>414.58344</ele>
        <time>2023-06-04T14:07:01.000Z</time>
      </trkpt>
      <trkpt lat="45.8194" lon="4.64433">
        <ele>415.58832</ele>
        <time>2023-06-04T14:07:02.000Z</time>
      </trkpt>
      <trkpt lat="45.8194" lon="4.64426">
        <ele>416.69443</ele>
        <time>2023-06-04T14:07:03.000Z</time>
      </trkpt>
      <trkpt lat="45.8194" lon="4.64413">
        <ele>417.73822</ele>
        <time>2023-06-04T14:07:04.000Z</time>
      </trkpt>
      <trkpt lat="45.8194" lon="4.64406">
        <ele>418.4108</ele>
        <time>2023-06-04T14:07:05.000Z</time>
      </trkpt>
      <trkpt lat="45.81941" lon="4.644">
        <ele>419.16122</ele>
        <time>2023-06-04T14:07:07.000Z</time>
      </trkpt>
      <trkpt lat="45.81942" lon="4.64391">
        <ele>419.51898</ele>
        <time>2023-06-04T14:07:09.000Z</time>
      </trkpt>
      <trkpt lat="45.81942" lon="4.64385">
        <ele>419.85489</ele>
        <time>2023-06-04T14:07:11.000Z</time>
      </trkpt>
      <trkpt lat="45.81943" lon="4.64378">
        <ele>420.21405</ele>
        <time>2023-06-04T14:07:12.000Z</time>
      </trkpt>
      <trkpt lat="45.81944" lon="4.64374">
        <ele>420.608</ele>
        <time>2023-06-04T14:07:13.000Z</time>
      </trkpt>
      <trkpt lat="45.81945" lon="4.64367">
        <ele>420.88672</ele>
        <time>2023-06-04T14:07:14.000Z</time>
      </trkpt>
      <trkpt lat="45.81947" lon="4.64362">
        <ele>421.18002</ele>
        <time>2023-06-04T14:07:16.000Z</time>
      </trkpt>
      <trkpt lat="45.81947" lon="4.64357">
        <ele>421.39731</ele>
        <time>2023-06-04T14:07:17.000Z</time>
      </trkpt>
      <trkpt lat="45.81946" lon="4.64352">
        <ele>421.65302</ele>
        <time>2023-06-04T14:07:18.000Z</time>
      </trkpt>
      <trkpt lat="45.81946" lon="4.64347">
        <ele>421.9256</ele>
        <time>2023-06-04T14:07:19.000Z</time>
      </trkpt>
      <trkpt lat="45.81947" lon="4.64343">
        <ele>422.1813</ele>
        <time>2023-06-04T14:07:20.000Z</time>
      </trkpt>
      <trkpt lat="45.81949" lon="4.64339">
        <ele>422.35645</ele>
        <time>2023-06-04T14:07:21.000Z</time>
      </trkpt>
      <trkpt lat="45.81951" lon="4.64335">
        <ele>422.53369</ele>
        <time>2023-06-04T14:07:22.000Z</time>
      </trkpt>
      <trkpt lat="45.81954" lon="4.64327">
        <ele>422.72437</ele>
        <time>2023-06-04T14:07:23.000Z</time>
      </trkpt>
      <trkpt lat="45.81952" lon="4.64322">
        <ele>423.00912</ele>
        <time>2023-06-04T14:07:24.000Z</time>
      </trkpt>
      <trkpt lat="45.81956" lon="4.64316">
        <ele>423.23584</ele>
        <time>2023-06-04T14:07:25.000Z</time>
      </trkpt>
      <trkpt lat="45.81955" lon="4.64312">
        <ele>423.40128</ele>
        <time>2023-06-04T14:07:26.000Z</time>
      </trkpt>
      <trkpt lat="45.81953" lon="4.64305">
        <ele>423.53848</ele>
        <time>2023-06-04T14:07:27.000Z</time>
      </trkpt>
      <trkpt lat="45.81953" lon="4.64301">
        <ele>423.70566</ele>
        <time>2023-06-04T14:07:28.000Z</time>
      </trkpt>
      <trkpt lat="45.81952" lon="4.64294">
        <ele>423.8186</ele>
        <time>2023-06-04T14:07:29.000Z</time>
      </trkpt>
      <trkpt lat="45.8195" lon="4.6429">
        <ele>423.97574</ele>
        <time>2023-06-04T14:07:30.000Z</time>
      </trkpt>
      <trkpt lat="45.81948" lon="4.64283">
        <ele>424.05426</ele>
        <time>2023-06-04T14:07:31.000Z</time>
      </trkpt>
      <trkpt lat="45.81945" lon="4.64281">
        <ele>424.10931</ele>
        <time>2023-06-04T14:07:32.000Z</time>
      </trkpt>
      <trkpt lat="45.81945" lon="4.64275">
        <ele>423.18115</ele>
        <time>2023-06-04T14:07:33.000Z</time>
      </trkpt>
      <trkpt lat="45.81944" lon="4.64271">
        <ele>422.27179</ele>
        <time>2023-06-04T14:07:34.000Z</time>
      </trkpt>
      <trkpt lat="45.81942" lon="4.64267">
        <ele>421.39301</ele>
        <time>2023-06-04T14:07:35.000Z</time>
      </trkpt>
      <trkpt lat="45.8194" lon="4.64262">
        <ele>420.4935</ele>
        <time>2023-06-04T14:07:36.000Z</time>
      </trkpt>
      <trkpt lat="45.81938" lon="4.64257">
        <ele>419.69058</ele>
        <time>2023-06-04T14:07:37.000Z</time>
      </trkpt>
      <trkpt lat="45.81936" lon="4.64253">
        <ele>419.02289</ele>
        <time>2023-06-04T14:07:38.000Z</time>
      </trkpt>
      <trkpt lat="45.81934" lon="4.64249">
        <ele>419.22153</ele>
        <time>2023-06-04T14:07:39.000Z</time>
      </trkpt>
      <trkpt lat="45.81933" lon="4.64246">
        <ele>419.44101</ele>
        <time>2023-06-04T14:07:40.000Z</time>
      </trkpt>
      <trkpt lat="45.81932" lon="4.64244">
        <ele>419.72217</ele>
        <time>2023-06-04T14:07:41.000Z</time>
      </trkpt>
      <trkpt lat="45.81932" lon="4.64241">
        <ele>420.02643</ele>
        <time>2023-06-04T14:07:42.000Z</time>
      </trkpt>
      <trkpt lat="45.81932" lon="4.64238">
        <ele>420.32941</ele>
        <time>2023-06-04T14:07:43.000Z</time>
      </trkpt>
      <trkpt lat="45.81931" lon="4.64234">
        <ele>420.6412</ele>
        <time>2023-06-04T14:07:44.000Z</time>
      </trkpt>
      <trkpt lat="45.81932" lon="4.64232">
        <ele>420.91489</ele>
        <time>2023-06-04T14:07:45.000Z</time>
      </trkpt>
      <trkpt lat="45.81933" lon="4.64229">
        <ele>421.23984</ele>
        <time>2023-06-04T14:07:46.000Z</time>
      </trkpt>
      <trkpt lat="45.81934" lon="4.64227">
        <ele>421.58798</ele>
        <time>2023-06-04T14:07:47.000Z</time>
      </trkpt>
      <trkpt lat="45.81935" lon="4.64224">
        <ele>421.89154</ele>
        <time>2023-06-04T14:07:48.000Z</time>
      </trkpt>
      <trkpt lat="45.81935" lon="4.64221">
        <ele>422.21768</ele>
        <time>2023-06-04T14:07:49.000Z</time>
      </trkpt>
      <trkpt lat="45.81935" lon="4.64218">
        <ele>422.50861</ele>
        <time>2023-06-04T14:07:50.000Z</time>
      </trkpt>
      <trkpt lat="45.81937" lon="4.64214">
        <ele>422.78067</ele>
        <time>2023-06-04T14:07:51.000Z</time>
      </trkpt>
      <trkpt lat="45.81938" lon="4.64211">
        <ele>423.36801</ele>
        <time>2023-06-04T14:07:52.000Z</time>
      </trkpt>
      <trkpt lat="45.81935" lon="4.64211">
        <ele>424.5874</ele>
        <time>2023-06-04T14:07:56.000Z</time>
      </trkpt>
      <trkpt lat="45.81936" lon="4.64208">
        <ele>425.78232</ele>
        <time>2023-06-04T14:08:00.000Z</time>
      </trkpt>
      <trkpt lat="45.81931" lon="4.64211">
        <ele>426.95026</ele>
        <time>2023-06-04T14:08:04.000Z</time>
      </trkpt>
      <trkpt lat="45.81929" lon="4.64206">
        <ele>428.09048</ele>
        <time>2023-06-04T14:08:05.000Z</time>
      </trkpt>
      <trkpt lat="45.81927" lon="4.64201">
        <ele>429.23218</ele>
        <time>2023-06-04T14:08:07.000Z</time>
      </trkpt>
      <trkpt lat="45.81929" lon="4.64204">
        <ele>430.23224</ele>
        <time>2023-06-04T14:08:08.000Z</time>
      </trkpt>
      <trkpt lat="45.81932" lon="4.64204">
        <ele>430.28809</ele>
        <time>2023-06-04T14:08:10.000Z</time>
      </trkpt>
      <trkpt lat="45.81932" lon="4.642">
        <ele>430.3808</ele>
        <time>2023-06-04T14:08:14.000Z</time>
      </trkpt>
      <trkpt lat="45.81931" lon="4.64195">
        <ele>430.539</ele>
        <time>2023-06-04T14:08:16.000Z</time>
      </trkpt>
      <trkpt lat="45.81933" lon="4.64192">
        <ele>430.71313</ele>
        <time>2023-06-04T14:08:17.000Z</time>
      </trkpt>
      <trkpt lat="45.81935" lon="4.64191">
        <ele>430.90561</ele>
        <time>2023-06-04T14:08:19.000Z</time>
      </trkpt>
      <trkpt lat="45.81934" lon="4.64187">
        <ele>431.04996</ele>
        <time>2023-06-04T14:08:21.000Z</time>
      </trkpt>
      <trkpt lat="45.81934" lon="4.64184">
        <ele>431.21979</ele>
        <time>2023-06-04T14:08:23.000Z</time>
      </trkpt>
      <trkpt lat="45.81935" lon="4.64185">
        <ele>431.46695</ele>
        <time>2023-06-04T14:08:26.000Z</time>
      </trkpt>
      <trkpt lat="45.81938" lon="4.64186">
        <ele>431.7077</ele>
        <time>2023-06-04T14:08:29.000Z</time>
      </trkpt>
      <trkpt lat="45.81939" lon="4.64182">
        <ele>432.32391</ele>
        <time>2023-06-04T14:08:39.000Z</time>
      </trkpt>
      <trkpt lat="45.8194" lon="4.6418">
        <ele>432.84497</ele>
        <time>2023-06-04T14:08:41.000Z</time>
      </trkpt>
      <trkpt lat="45.81942" lon="4.64183">
        <ele>433.21906</ele>
        <time>2023-06-04T14:08:43.000Z</time>
      </trkpt>
      <trkpt lat="45.81943" lon="4.64186">
        <ele>433.60367</ele>
        <time>2023-06-04T14:08:45.000Z</time>
      </trkpt>
      <trkpt lat="45.81941" lon="4.64184">
        <ele>433.69775</ele>
        <time>2023-06-04T14:08:49.000Z</time>
      </trkpt>
      <trkpt lat="45.8194" lon="4.64181">
        <ele>434.09131</ele>
        <time>2023-06-04T14:08:50.000Z</time>
      </trkpt>
      <trkpt lat="45.81939" lon="4.64179">
        <ele>434.43866</ele>
        <time>2023-06-04T14:08:51.000Z</time>
      </trkpt>
      <trkpt lat="45.81942" lon="4.64178">
        <ele>434.82123</ele>
        <time>2023-06-04T14:08:54.000Z</time>
      </trkpt>
      <trkpt lat="45.81944" lon="4.64177">
        <ele>435.25348</ele>
        <time>2023-06-04T14:08:57.000Z</time>
      </trkpt>
      <trkpt lat="45.81942" lon="4.64177">
        <ele>435.55927</ele>
        <time>2023-06-04T14:09:00.000Z</time>
      </trkpt>
      <trkpt lat="45.81944" lon="4.64174">
        <ele>435.8273</ele>
        <time>2023-06-04T14:09:03.000Z</time>
      </trkpt>
      <trkpt lat="45.81945" lon="4.6417">
        <ele>436.14346</ele>
        <time>2023-06-04T14:09:05.000Z</time>
      </trkpt>
      <trkpt lat="45.81947" lon="4.64168">
        <ele>436.44125</ele>
        <time>2023-06-04T14:09:07.000Z</time>
      </trkpt>
      <trkpt lat="45.81947" lon="4.64171">
        <ele>436.66074</ele>
        <time>2023-06-04T14:09:10.000Z</time>
      </trkpt>
      <trkpt lat="45.81945" lon="4.64173">
        <ele>436.97403</ele>
        <time>2023-06-04T14:09:12.000Z</time>
      </trkpt>
      <trkpt lat="45.81942" lon="4.64174">
        <ele>437.18204</ele>
        <time>2023-06-04T14:09:15.000Z</time>
      </trkpt>
      <trkpt lat="45.8194" lon="4.64175">
        <ele>437.28183</ele>
        <time>2023-06-04T14:09:18.000Z</time>
      </trkpt>
      <trkpt lat="45.81943" lon="4.64176">
        <ele>437.5296</ele>
        <time>2023-06-04T14:09:23.000Z</time>
      </trkpt>
      <trkpt lat="45.81942" lon="4.64181">
        <ele>437.62616</ele>
        <time>2023-06-04T14:09:25.000Z</time>
      </trkpt>
      <trkpt lat="45.8194" lon="4.64184">
        <ele>437.70526</ele>
        <time>2023-06-04T14:09:26.000Z</time>
      </trkpt>
      <trkpt lat="45.81938" lon="4.64186">
        <ele>437.40479</ele>
        <time>2023-06-04T14:09:27.000Z</time>
      </trkpt>
      <trkpt lat="45.81937" lon="4.64183">
        <ele>437.25229</ele>
        <time>2023-06-04T14:09:29.000Z</time>
      </trkpt>
      <trkpt lat="45.81937" lon="4.64179">
        <ele>437.26309</ele>
        <time>2023-06-04T14:09:30.000Z</time>
      </trkpt>
      <trkpt lat="45.81939" lon="4.64175">
        <ele>437.28174</ele>
        <time>2023-06-04T14:09:31.000Z</time>
      </trkpt>
      <trkpt lat="45.8194" lon="4.64172">
        <ele>437.16943</ele>
        <time>2023-06-04T14:09:32.000Z</time>
      </trkpt>
      <trkpt lat="45.81942" lon="4.64173">
        <ele>437.26801</ele>
        <time>2023-06-04T14:09:35.000Z</time>
      </trkpt>
      <trkpt lat="45.81944" lon="4.64174">
        <ele>437.285</ele>
        <time>2023-06-04T14:09:39.000Z</time>
      </trkpt>
      <trkpt lat="45.81941" lon="4.64174">
        <ele>437.3894</ele>
        <time>2023-06-04T14:09:45.000Z</time>
      </trkpt>
      <trkpt lat="45.81939" lon="4.64175">
        <ele>437.38177</ele>
        <time>2023-06-04T14:09:48.000Z</time>
      </trkpt>
      <trkpt lat="45.8194" lon="4.64171">
        <ele>437.42734</ele>
        <time>2023-06-04T14:09:50.000Z</time>
      </trkpt>
      <trkpt lat="45.81942" lon="4.64168">
        <ele>437.67163</ele>
        <time>2023-06-04T14:09:51.000Z</time>
      </trkpt>
      <trkpt lat="45.81944" lon="4.64166">
        <ele>437.75726</ele>
        <time>2023-06-04T14:09:52.000Z</time>
      </trkpt>
      <trkpt lat="45.81945" lon="4.64163">
        <ele>437.81827</ele>
        <time>2023-06-04T14:09:53.000Z</time>
      </trkpt>
      <trkpt lat="45.81946" lon="4.64161">
        <ele>437.91797</ele>
        <time>2023-06-04T14:09:54.000Z</time>
      </trkpt>
      <trkpt lat="45.81947" lon="4.64156">
        <ele>437.7879</ele>
        <time>2023-06-04T14:09:56.000Z</time>
      </trkpt>
      <trkpt lat="45.81947" lon="4.64153">
        <ele>437.63315</ele>
        <time>2023-06-04T14:09:57.000Z</time>
      </trkpt>
      <trkpt lat="45.81949" lon="4.64149">
        <ele>437.69751</ele>
        <time>2023-06-04T14:09:59.000Z</time>
      </trkpt>
      <trkpt lat="45.8195" lon="4.64147">
        <ele>437.65332</ele>
        <time>2023-06-04T14:10:00.000Z</time>
      </trkpt>
      <trkpt lat="45.81951" lon="4.64143">
        <ele>437.66275</ele>
        <time>2023-06-04T14:10:01.000Z</time>
      </trkpt>
      <trkpt lat="45.81951" lon="4.64137">
        <ele>437.73566</ele>
        <time>2023-06-04T14:10:02.000Z</time>
      </trkpt>
      <trkpt lat="45.81952" lon="4.64132">
        <ele>437.83673</ele>
        <time>2023-06-04T14:10:03.000Z</time>
      </trkpt>
      <trkpt lat="45.81952" lon="4.64129">
        <ele>437.88232</ele>
        <time>2023-06-04T14:10:04.000Z</time>
      </trkpt>
      <trkpt lat="45.81952" lon="4.64125">
        <ele>437.93814</ele>
        <time>2023-06-04T14:10:05.000Z</time>
      </trkpt>
      <trkpt lat="45.81953" lon="4.64122">
        <ele>438.02295</ele>
        <time>2023-06-04T14:10:06.000Z</time>
      </trkpt>
      <trkpt lat="45.81954" lon="4.64119">
        <ele>438.17938</ele>
        <time>2023-06-04T14:10:07.000Z</time>
      </trkpt>
      <trkpt lat="45.81956" lon="4.64116">
        <ele>438.17221</ele>
        <time>2023-06-04T14:10:08.000Z</time>
      </trkpt>
      <trkpt lat="45.81957" lon="4.64114">
        <ele>438.28131</ele>
        <time>2023-06-04T14:10:09.000Z</time>
      </trkpt>
      <trkpt lat="45.81958" lon="4.64111">
        <ele>438.32349</ele>
        <time>2023-06-04T14:10:10.000Z</time>
      </trkpt>
      <trkpt lat="45.81959" lon="4.64107">
        <ele>438.43726</ele>
        <time>2023-06-04T14:10:11.000Z</time>
      </trkpt>
      <trkpt lat="45.8196" lon="4.64104">
        <ele>438.57135</ele>
        <time>2023-06-04T14:10:12.000Z</time>
      </trkpt>
      <trkpt lat="45.81961" lon="4.641">
        <ele>438.49576</ele>
        <time>2023-06-04T14:10:13.000Z</time>
      </trkpt>
      <trkpt lat="45.81962" lon="4.64096">
        <ele>438.62881</ele>
        <time>2023-06-04T14:10:14.000Z</time>
      </trkpt>
      <trkpt lat="45.81962" lon="4.64092">
        <ele>438.77838</ele>
        <time>2023-06-04T14:10:15.000Z</time>
      </trkpt>
      <trkpt lat="45.81962" lon="4.64087">
        <ele>438.84775</ele>
        <time>2023-06-04T14:10:16.000Z</time>
      </trkpt>
      <trkpt lat="45.81963" lon="4.64083">
        <ele>439.02133</ele>
        <time>2023-06-04T14:10:17.000Z</time>
      </trkpt>
      <trkpt lat="45.81963" lon="4.64077">
        <ele>439.21835</ele>
        <time>2023-06-04T14:10:18.000Z</time>
      </trkpt>
      <trkpt lat="45.81963" lon="4.64071">
        <ele>439.27594</ele>
        <time>2023-06-04T14:10:19.000Z</time>
      </trkpt>
      <trkpt lat="45.81963" lon="4.64066">
        <ele>439.36688</ele>
        <time>2023-06-04T14:10:20.000Z</time>
      </trkpt>
      <trkpt lat="45.81963" lon="4.64061">
        <ele>439.70444</ele>
        <time>2023-06-04T14:10:21.000Z</time>
      </trkpt>
      <trkpt lat="45.81963" lon="4.64057">
        <ele>440.07657</ele>
        <time>2023-06-04T14:10:22.000Z</time>
      </trkpt>
      <trkpt lat="45.81963" lon="4.64052">
        <ele>440.92368</ele>
        <time>2023-06-04T14:10:23.000Z</time>
      </trkpt>
      <trkpt lat="45.81963" lon="4.64044">
        <ele>441.78754</ele>
        <time>2023-06-04T14:10:24.000Z</time>
      </trkpt>
      <trkpt lat="45.81959" lon="4.64036">
        <ele>442.07642</ele>
        <time>2023-06-04T14:10:26.000Z</time>
      </trkpt>
      <trkpt lat="45.81959" lon="4.64032">
        <ele>442.33463</ele>
        <time>2023-06-04T14:10:27.000Z</time>
      </trkpt>
      <trkpt lat="45.81958" lon="4.64028">
        <ele>442.70639</ele>
        <time>2023-06-04T14:10:28.000Z</time>
      </trkpt>
      <trkpt lat="45.81957" lon="4.64024">
        <ele>443.07123</ele>
        <time>2023-06-04T14:10:29.000Z</time>
      </trkpt>
      <trkpt lat="45.81961" lon="4.64024">
        <ele>443.38727</ele>
        <time>2023-06-04T14:10:30.000Z</time>
      </trkpt>
      <trkpt lat="45.81964" lon="4.64017">
        <ele>443.71045</ele>
        <time>2023-06-04T14:10:31.000Z</time>
      </trkpt>
      <trkpt lat="45.81963" lon="4.6401">
        <ele>444.07315</ele>
        <time>2023-06-04T14:10:32.000Z</time>
      </trkpt>
      <trkpt lat="45.81963" lon="4.64005">
        <ele>444.42523</ele>
        <time>2023-06-04T14:10:33.000Z</time>
      </trkpt>
      <trkpt lat="45.81962" lon="4.63999">
        <ele>444.85074</ele>
        <time>2023-06-04T14:10:34.000Z</time>
      </trkpt>
      <trkpt lat="45.81961" lon="4.63994">
        <ele>445.18546</ele>
        <time>2023-06-04T14:10:35.000Z</time>
      </trkpt>
      <trkpt lat="45.8196" lon="4.63989">
        <ele>445.62335</ele>
        <time>2023-06-04T14:10:36.000Z</time>
      </trkpt>
      <trkpt lat="45.81959" lon="4.63984">
        <ele>446.05869</ele>
        <time>2023-06-04T14:10:37.000Z</time>
      </trkpt>
      <trkpt lat="45.81958" lon="4.63979">
        <ele>446.47388</ele>
        <time>2023-06-04T14:10:38.000Z</time>
      </trkpt>
      <trkpt lat="45.81954" lon="4.6397">
        <ele>446.96191</ele>
        <time>2023-06-04T14:10:39.000Z</time>
      </trkpt>
      <trkpt lat="45.81952" lon="4.63967">
        <ele>447.43881</ele>
        <time>2023-06-04T14:10:40.000Z</time>
      </trkpt>
      <trkpt lat="45.81954" lon="4.63965">
        <ele>447.89569</ele>
        <time>2023-06-04T14:10:41.000Z</time>
      </trkpt>
      <trkpt lat="45.81954" lon="4.6396">
        <ele>448.19269</ele>
        <time>2023-06-04T14:10:42.000Z</time>
      </trkpt>
      <trkpt lat="45.81953" lon="4.63954">
        <ele>448.42767</ele>
        <time>2023-06-04T14:10:43.000Z</time>
      </trkpt>
      <trkpt lat="45.81951" lon="4.63948">
        <ele>448.30859</ele>
        <time>2023-06-04T14:10:44.000Z</time>
      </trkpt>
      <trkpt lat="45.81952" lon="4.63938">
        <ele>447.90805</ele>
        <time>2023-06-04T14:10:45.000Z</time>
      </trkpt>
      <trkpt lat="45.81949" lon="4.63936">
        <ele>447.63876</ele>
        <time>2023-06-04T14:10:46.000Z</time>
      </trkpt>
      <trkpt lat="45.8195" lon="4.63933">
        <ele>447.11688</ele>
        <time>2023-06-04T14:10:47.000Z</time>
      </trkpt>
      <trkpt lat="45.81952" lon="4.63932">
        <ele>446.46329</ele>
        <time>2023-06-04T14:10:48.000Z</time>
      </trkpt>
      <trkpt lat="45.81954" lon="4.63927">
        <ele>445.63861</ele>
        <time>2023-06-04T14:10:49.000Z</time>
      </trkpt>
      <trkpt lat="45.81956" lon="4.63926">
        <ele>444.7897</ele>
        <time>2023-06-04T14:10:50.000Z</time>
      </trkpt>
      <trkpt lat="45.81954" lon="4.63922">
        <ele>443.90997</ele>
        <time>2023-06-04T14:10:51.000Z</time>
      </trkpt>
      <trkpt lat="45.81947" lon="4.63914">
        <ele>442.91724</ele>
        <time>2023-06-04T14:10:52.000Z</time>
      </trkpt>
      <trkpt lat="45.81944" lon="4.63909">
        <ele>442.04663</ele>
        <time>2023-06-04T14:10:53.000Z</time>
      </trkpt>
      <trkpt lat="45.81942" lon="4.63903">
        <ele>441.19717</ele>
        <time>2023-06-04T14:10:54.000Z</time>
      </trkpt>
      <trkpt lat="45.81939" lon="4.639">
        <ele>440.42432</ele>
        <time>2023-06-04T14:10:55.000Z</time>
      </trkpt>
      <trkpt lat="45.81939" lon="4.63895">
        <ele>439.42026</ele>
        <time>2023-06-04T14:10:56.000Z</time>
      </trkpt>
      <trkpt lat="45.81939" lon="4.63885">
        <ele>438.37518</ele>
        <time>2023-06-04T14:10:58.000Z</time>
      </trkpt>
      <trkpt lat="45.81935" lon="4.63878">
        <ele>437.37671</ele>
        <time>2023-06-04T14:10:59.000Z</time>
      </trkpt>
      <trkpt lat="45.81933" lon="4.63869">
        <ele>436.34122</ele>
        <time>2023-06-04T14:11:00.000Z</time>
      </trkpt>
      <trkpt lat="45.8193" lon="4.63862">
        <ele>435.37924</ele>
        <time>2023-06-04T14:11:01.000Z</time>
      </trkpt>
      <trkpt lat="45.81926" lon="4.63858">
        <ele>434.42398</ele>
        <time>2023-06-04T14:11:02.000Z</time>
      </trkpt>
      <trkpt lat="45.81924" lon="4.63851">
        <ele>433.32642</ele>
        <time>2023-06-04T14:11:03.000Z</time>
      </trkpt>
      <trkpt lat="45.8192" lon="4.63849">
        <ele>432.20801</ele>
        <time>2023-06-04T14:11:04.000Z</time>
      </trkpt>
      <trkpt lat="45.81918" lon="4.63843">
        <ele>430.88544</ele>
        <time>2023-06-04T14:11:05.000Z</time>
      </trkpt>
      <trkpt lat="45.81915" lon="4.63841">
        <ele>429.94556</ele>
        <time>2023-06-04T14:11:07.000Z</time>
      </trkpt>
      <trkpt lat="45.81913" lon="4.63839">
        <ele>429.50693</ele>
        <time>2023-06-04T14:11:08.000Z</time>
      </trkpt>
      <trkpt lat="45.81909" lon="4.63835">
        <ele>429.34668</ele>
        <time>2023-06-04T14:11:09.000Z</time>
      </trkpt>
      <trkpt lat="45.81907" lon="4.63832">
        <ele>429.39581</ele>
        <time>2023-06-04T14:11:10.000Z</time>
      </trkpt>
      <trkpt lat="45.81905" lon="4.6383">
        <ele>429.56088</ele>
        <time>2023-06-04T14:11:11.000Z</time>
      </trkpt>
      <trkpt lat="45.81904" lon="4.63822">
        <ele>429.89398</ele>
        <time>2023-06-04T14:11:12.000Z</time>
      </trkpt>
      <trkpt lat="45.81901" lon="4.63817">
        <ele>429.86279</ele>
        <time>2023-06-04T14:11:13.000Z</time>
      </trkpt>
      <trkpt lat="45.81899" lon="4.63814">
        <ele>429.84796</ele>
        <time>2023-06-04T14:11:14.000Z</time>
      </trkpt>
      <trkpt lat="45.81896" lon="4.63809">
        <ele>430.36627</ele>
        <time>2023-06-04T14:11:15.000Z</time>
      </trkpt>
      <trkpt lat="45.81893" lon="4.63805">
        <ele>430.71133</ele>
        <time>2023-06-04T14:11:16.000Z</time>
      </trkpt>
      <trkpt lat="45.81892" lon="4.63803">
        <ele>431.07867</ele>
        <time>2023-06-04T14:11:17.000Z</time>
      </trkpt>
      <trkpt lat="45.8189" lon="4.63801">
        <ele>431.56046</ele>
        <time>2023-06-04T14:11:18.000Z</time>
      </trkpt>
      <trkpt lat="45.81888" lon="4.63799">
        <ele>431.97949</ele>
        <time>2023-06-04T14:11:19.000Z</time>
      </trkpt>
      <trkpt lat="45.81887" lon="4.63796">
        <ele>432.35953</ele>
        <time>2023-06-04T14:11:20.000Z</time>
      </trkpt>
      <trkpt lat="45.81885" lon="4.63792">
        <ele>432.78476</ele>
        <time>2023-06-04T14:11:21.000Z</time>
      </trkpt>
      <trkpt lat="45.81883" lon="4.63788">
        <ele>433.2084</ele>
        <time>2023-06-04T14:11:22.000Z</time>
      </trkpt>
      <trkpt lat="45.81878" lon="4.6378">
        <ele>433.7171</ele>
        <time>2023-06-04T14:11:23.000Z</time>
      </trkpt>
      <trkpt lat="45.81876" lon="4.63773">
        <ele>434.26349</ele>
        <time>2023-06-04T14:11:25.000Z</time>
      </trkpt>
      <trkpt lat="45.81874" lon="4.63766">
        <ele>434.92499</ele>
        <time>2023-06-04T14:11:26.000Z</time>
      </trkpt>
      <trkpt lat="45.81873" lon="4.63758">
        <ele>435.72403</ele>
        <time>2023-06-04T14:11:27.000Z</time>
      </trkpt>
      <trkpt lat="45.81869" lon="4.63756">
        <ele>436.35284</ele>
        <time>2023-06-04T14:11:28.000Z</time>
      </trkpt>
      <trkpt lat="45.81866" lon="4.63754">
        <ele>436.82324</ele>
        <time>2023-06-04T14:11:29.000Z</time>
      </trkpt>
      <trkpt lat="45.81861" lon="4.6375">
        <ele>437.22968</ele>
        <time>2023-06-04T14:11:30.000Z</time>
      </trkpt>
      <trkpt lat="45.81861" lon="4.63743">
        <ele>437.4704</ele>
        <time>2023-06-04T14:11:31.000Z</time>
      </trkpt>
      <trkpt lat="45.81863" lon="4.63743">
        <ele>437.3959</ele>
        <time>2023-06-04T14:11:32.000Z</time>
      </trkpt>
      <trkpt lat="45.81861" lon="4.63736">
        <ele>436.96045</ele>
        <time>2023-06-04T14:11:33.000Z</time>
      </trkpt>
      <trkpt lat="45.81859" lon="4.63732">
        <ele>436.75861</ele>
        <time>2023-06-04T14:11:34.000Z</time>
      </trkpt>
      <trkpt lat="45.81857" lon="4.6373">
        <ele>437.23853</ele>
        <time>2023-06-04T14:11:35.000Z</time>
      </trkpt>
      <trkpt lat="45.81853" lon="4.63723">
        <ele>436.96698</ele>
        <time>2023-06-04T14:11:36.000Z</time>
      </trkpt>
      <trkpt lat="45.8185" lon="4.63718">
        <ele>436.85138</ele>
        <time>2023-06-04T14:11:37.000Z</time>
      </trkpt>
      <trkpt lat="45.8185" lon="4.63711">
        <ele>436.621</ele>
        <time>2023-06-04T14:11:38.000Z</time>
      </trkpt>
      <trkpt lat="45.81849" lon="4.63706">
        <ele>436.28094</ele>
        <time>2023-06-04T14:11:39.000Z</time>
      </trkpt>
      <trkpt lat="45.81844" lon="4.637">
        <ele>436.11237</ele>
        <time>2023-06-04T14:11:40.000Z</time>
      </trkpt>
      <trkpt lat="45.8184" lon="4.6369">
        <ele>435.94418</ele>
        <time>2023-06-04T14:11:41.000Z</time>
      </trkpt>
      <trkpt lat="45.8184" lon="4.6368">
        <ele>435.72882</ele>
        <time>2023-06-04T14:11:42.000Z</time>
      </trkpt>
      <trkpt lat="45.81836" lon="4.63674">
        <ele>435.59686</ele>
        <time>2023-06-04T14:11:43.000Z</time>
      </trkpt>
      <trkpt lat="45.81834" lon="4.63665">
        <ele>435.36578</ele>
        <time>2023-06-04T14:11:44.000Z</time>
      </trkpt>
      <trkpt lat="45.8183" lon="4.63654">
        <ele>435.19989</ele>
        <time>2023-06-04T14:11:45.000Z</time>
      </trkpt>
      <trkpt lat="45.81826" lon="4.63649">
        <ele>435.01825</ele>
        <time>2023-06-04T14:11:46.000Z</time>
      </trkpt>
      <trkpt lat="45.81824" lon="4.63643">
        <ele>434.78143</ele>
        <time>2023-06-04T14:11:47.000Z</time>
      </trkpt>
      <trkpt lat="45.8182" lon="4.63639">
        <ele>434.55283</ele>
        <time>2023-06-04T14:11:49.000Z</time>
      </trkpt>
      <trkpt lat="45.81816" lon="4.6363">
        <ele>434.41821</ele>
        <time>2023-06-04T14:11:50.000Z</time>
      </trkpt>
      <trkpt lat="45.81815" lon="4.63623">
        <ele>434.24835</ele>
        <time>2023-06-04T14:11:51.000Z</time>
      </trkpt>
      <trkpt lat="45.81811" lon="4.63618">
        <ele>434.06827</ele>
        <time>2023-06-04T14:11:52.000Z</time>
      </trkpt>
      <trkpt lat="45.81808" lon="4.63612">
        <ele>434.24503</ele>
        <time>2023-06-04T14:11:53.000Z</time>
      </trkpt>
      <trkpt lat="45.81809" lon="4.63602">
        <ele>434.66333</ele>
        <time>2023-06-04T14:11:54.000Z</time>
      </trkpt>
      <trkpt lat="45.81807" lon="4.63595">
        <ele>435.23105</ele>
        <time>2023-06-04T14:11:55.000Z</time>
      </trkpt>
      <trkpt lat="45.81807" lon="4.63589">
        <ele>435.12466</ele>
        <time>2023-06-04T14:11:56.000Z</time>
      </trkpt>
      <trkpt lat="45.81805" lon="4.63579">
        <ele>434.95639</ele>
        <time>2023-06-04T14:11:57.000Z</time>
      </trkpt>
      <trkpt lat="45.81797" lon="4.63573">
        <ele>434.66901</ele>
        <time>2023-06-04T14:11:58.000Z</time>
      </trkpt>
      <trkpt lat="45.81795" lon="4.63571">
        <ele>434.4296</ele>
        <time>2023-06-04T14:11:59.000Z</time>
      </trkpt>
      <trkpt lat="45.8179" lon="4.63568">
        <ele>434.34653</ele>
        <time>2023-06-04T14:12:00.000Z</time>
      </trkpt>
      <trkpt lat="45.81789" lon="4.63562">
        <ele>434.04019</ele>
        <time>2023-06-04T14:12:02.000Z</time>
      </trkpt>
      <trkpt lat="45.81789" lon="4.63559">
        <ele>433.67123</ele>
        <time>2023-06-04T14:12:03.000Z</time>
      </trkpt>
      <trkpt lat="45.81788" lon="4.63551">
        <ele>433.23535</ele>
        <time>2023-06-04T14:12:04.000Z</time>
      </trkpt>
      <trkpt lat="45.81786" lon="4.63547">
        <ele>433.23032</ele>
        <time>2023-06-04T14:12:05.000Z</time>
      </trkpt>
      <trkpt lat="45.81786" lon="4.63542">
        <ele>433.22186</ele>
        <time>2023-06-04T14:12:06.000Z</time>
      </trkpt>
      <trkpt lat="45.81782" lon="4.63538">
        <ele>433.20255</ele>
        <time>2023-06-04T14:12:07.000Z</time>
      </trkpt>
      <trkpt lat="45.81782" lon="4.63534">
        <ele>433.09561</ele>
        <time>2023-06-04T14:12:08.000Z</time>
      </trkpt>
      <trkpt lat="45.81779" lon="4.63528">
        <ele>433.03741</ele>
        <time>2023-06-04T14:12:09.000Z</time>
      </trkpt>
      <trkpt lat="45.81777" lon="4.63524">
        <ele>433.01788</ele>
        <time>2023-06-04T14:12:10.000Z</time>
      </trkpt>
      <trkpt lat="45.81774" lon="4.63514">
        <ele>432.86664</ele>
        <time>2023-06-04T14:12:11.000Z</time>
      </trkpt>
      <trkpt lat="45.81775" lon="4.6351">
        <ele>432.79224</ele>
        <time>2023-06-04T14:12:12.000Z</time>
      </trkpt>
      <trkpt lat="45.81768" lon="4.63504">
        <ele>432.68369</ele>
        <time>2023-06-04T14:12:13.000Z</time>
      </trkpt>
      <trkpt lat="45.81766" lon="4.63499">
        <ele>432.5733</ele>
        <time>2023-06-04T14:12:14.000Z</time>
      </trkpt>
      <trkpt lat="45.81768" lon="4.63493">
        <ele>432.76727</ele>
        <time>2023-06-04T14:12:15.000Z</time>
      </trkpt>
      <trkpt lat="45.81765" lon="4.63484">
        <ele>433.16537</ele>
        <time>2023-06-04T14:12:16.000Z</time>
      </trkpt>
      <trkpt lat="45.81763" lon="4.63478">
        <ele>433.68881</ele>
        <time>2023-06-04T14:12:17.000Z</time>
      </trkpt>
      <trkpt lat="45.8176" lon="4.63474">
        <ele>434.41284</ele>
        <time>2023-06-04T14:12:18.000Z</time>
      </trkpt>
      <trkpt lat="45.8176" lon="4.63468">
        <ele>435.25342</ele>
        <time>2023-06-04T14:12:19.000Z</time>
      </trkpt>
      <trkpt lat="45.81757" lon="4.63463">
        <ele>436.09097</ele>
        <time>2023-06-04T14:12:20.000Z</time>
      </trkpt>
      <trkpt lat="45.81756" lon="4.63461">
        <ele>436.95499</ele>
        <time>2023-06-04T14:12:21.000Z</time>
      </trkpt>
      <trkpt lat="45.81751" lon="4.63457">
        <ele>437.98785</ele>
        <time>2023-06-04T14:12:22.000Z</time>
      </trkpt>
      <trkpt lat="45.81751" lon="4.63452">
        <ele>439.05542</ele>
        <time>2023-06-04T14:12:23.000Z</time>
      </trkpt>
      <trkpt lat="45.81749" lon="4.63448">
        <ele>440.26645</ele>
        <time>2023-06-04T14:12:24.000Z</time>
      </trkpt>
      <trkpt lat="45.81745" lon="4.63443">
        <ele>441.00854</ele>
        <time>2023-06-04T14:12:25.000Z</time>
      </trkpt>
      <trkpt lat="45.81741" lon="4.63437">
        <ele>441.85272</ele>
        <time>2023-06-04T14:12:26.000Z</time>
      </trkpt>
      <trkpt lat="45.81738" lon="4.63432">
        <ele>441.9314</ele>
        <time>2023-06-04T14:12:27.000Z</time>
      </trkpt>
      <trkpt lat="45.81735" lon="4.63423">
        <ele>442.23105</ele>
        <time>2023-06-04T14:12:28.000Z</time>
      </trkpt>
      <trkpt lat="45.81735" lon="4.63414">
        <ele>442.242</ele>
        <time>2023-06-04T14:12:29.000Z</time>
      </trkpt>
      <trkpt lat="45.81731" lon="4.63409">
        <ele>442.1835</ele>
        <time>2023-06-04T14:12:30.000Z</time>
      </trkpt>
      <trkpt lat="45.81728" lon="4.63403">
        <ele>442.2565</ele>
        <time>2023-06-04T14:12:31.000Z</time>
      </trkpt>
      <trkpt lat="45.81724" lon="4.63396">
        <ele>442.29672</ele>
        <time>2023-06-04T14:12:32.000Z</time>
      </trkpt>
      <trkpt lat="45.81721" lon="4.63389">
        <ele>442.23056</ele>
        <time>2023-06-04T14:12:33.000Z</time>
      </trkpt>
      <trkpt lat="45.81719" lon="4.63389">
        <ele>441.92535</ele>
        <time>2023-06-04T14:12:34.000Z</time>
      </trkpt>
      <trkpt lat="45.81718" lon="4.63384">
        <ele>442.03534</ele>
        <time>2023-06-04T14:12:35.000Z</time>
      </trkpt>
      <trkpt lat="45.81716" lon="4.63379">
        <ele>441.82047</ele>
        <time>2023-06-04T14:12:36.000Z</time>
      </trkpt>
      <trkpt lat="45.81714" lon="4.63374">
        <ele>441.3898</ele>
        <time>2023-06-04T14:12:37.000Z</time>
      </trkpt>
      <trkpt lat="45.8171" lon="4.63368">
        <ele>440.95337</ele>
        <time>2023-06-04T14:12:38.000Z</time>
      </trkpt>
      <trkpt lat="45.81708" lon="4.63361">
        <ele>440.54214</ele>
        <time>2023-06-04T14:12:39.000Z</time>
      </trkpt>
      <trkpt lat="45.81706" lon="4.63354">
        <ele>440.15991</ele>
        <time>2023-06-04T14:12:40.000Z</time>
      </trkpt>
      <trkpt lat="45.81703" lon="4.63352">
        <ele>440.10464</ele>
        <time>2023-06-04T14:12:41.000Z</time>
      </trkpt>
      <trkpt lat="45.81701" lon="4.63343">
        <ele>440.07217</ele>
        <time>2023-06-04T14:12:42.000Z</time>
      </trkpt>
      <trkpt lat="45.81699" lon="4.63333">
        <ele>439.8714</ele>
        <time>2023-06-04T14:12:43.000Z</time>
      </trkpt>
      <trkpt lat="45.81699" lon="4.63329">
        <ele>439.61688</ele>
        <time>2023-06-04T14:12:44.000Z</time>
      </trkpt>
      <trkpt lat="45.81696" lon="4.6332">
        <ele>439.25787</ele>
        <time>2023-06-04T14:12:45.000Z</time>
      </trkpt>
      <trkpt lat="45.81694" lon="4.63315">
        <ele>438.90234</ele>
        <time>2023-06-04T14:12:46.000Z</time>
      </trkpt>
      <trkpt lat="45.81692" lon="4.63307">
        <ele>439.32599</ele>
        <time>2023-06-04T14:12:47.000Z</time>
      </trkpt>
      <trkpt lat="45.81689" lon="4.63299">
        <ele>439.54037</ele>
        <time>2023-06-04T14:12:48.000Z</time>
      </trkpt>
      <trkpt lat="45.81688" lon="4.63294">
        <ele>439.95551</ele>
        <time>2023-06-04T14:12:49.000Z</time>
      </trkpt>
      <trkpt lat="45.81687" lon="4.63288">
        <ele>440.36832</ele>
        <time>2023-06-04T14:12:50.000Z</time>
      </trkpt>
      <trkpt lat="45.81687" lon="4.63281">
        <ele>440.59644</ele>
        <time>2023-06-04T14:12:51.000Z</time>
      </trkpt>
      <trkpt lat="45.81681" lon="4.63272">
        <ele>440.71533</ele>
        <time>2023-06-04T14:12:52.000Z</time>
      </trkpt>
      <trkpt lat="45.81681" lon="4.63267">
        <ele>441.45435</ele>
        <time>2023-06-04T14:12:53.000Z</time>
      </trkpt>
      <trkpt lat="45.81678" lon="4.6326">
        <ele>442.51434</ele>
        <time>2023-06-04T14:12:54.000Z</time>
      </trkpt>
      <trkpt lat="45.81674" lon="4.63254">
        <ele>442.90375</ele>
        <time>2023-06-04T14:12:55.000Z</time>
      </trkpt>
      <trkpt lat="45.81672" lon="4.63246">
        <ele>443.37061</ele>
        <time>2023-06-04T14:12:56.000Z</time>
      </trkpt>
      <trkpt lat="45.81671" lon="4.63239">
        <ele>444.01312</ele>
        <time>2023-06-04T14:12:57.000Z</time>
      </trkpt>
      <trkpt lat="45.8167" lon="4.63235">
        <ele>444.57657</ele>
        <time>2023-06-04T14:12:58.000Z</time>
      </trkpt>
      <trkpt lat="45.8167" lon="4.63229">
        <ele>445.07935</ele>
        <time>2023-06-04T14:12:59.000Z</time>
      </trkpt>
      <trkpt lat="45.81669" lon="4.63224">
        <ele>445.53873</ele>
        <time>2023-06-04T14:13:00.000Z</time>
      </trkpt>
      <trkpt lat="45.81669" lon="4.63216">
        <ele>445.02618</ele>
        <time>2023-06-04T14:13:01.000Z</time>
      </trkpt>
      <trkpt lat="45.81667" lon="4.63212">
        <ele>444.36539</ele>
        <time>2023-06-04T14:13:02.000Z</time>
      </trkpt>
      <trkpt lat="45.81665" lon="4.63205">
        <ele>444.2674</ele>
        <time>2023-06-04T14:13:04.000Z</time>
      </trkpt>
      <trkpt lat="45.81664" lon="4.63197">
        <ele>444.12216</ele>
        <time>2023-06-04T14:13:05.000Z</time>
      </trkpt>
      <trkpt lat="45.81661" lon="4.63192">
        <ele>444.03305</ele>
        <time>2023-06-04T14:13:06.000Z</time>
      </trkpt>
      <trkpt lat="45.81661" lon="4.63187">
        <ele>443.82538</ele>
        <time>2023-06-04T14:13:08.000Z</time>
      </trkpt>
      <trkpt lat="45.81662" lon="4.63183">
        <ele>443.56964</ele>
        <time>2023-06-04T14:13:09.000Z</time>
      </trkpt>
      <trkpt lat="45.81662" lon="4.63179">
        <ele>443.27798</ele>
        <time>2023-06-04T14:13:10.000Z</time>
      </trkpt>
      <trkpt lat="45.81661" lon="4.63175">
        <ele>443.04898</ele>
        <time>2023-06-04T14:13:11.000Z</time>
      </trkpt>
      <trkpt lat="45.81659" lon="4.6317">
        <ele>442.88654</ele>
        <time>2023-06-04T14:13:12.000Z</time>
      </trkpt>
      <trkpt lat="45.81657" lon="4.63167">
        <ele>442.43399</ele>
        <time>2023-06-04T14:13:13.000Z</time>
      </trkpt>
      <trkpt lat="45.81656" lon="4.63164">
        <ele>442.14258</ele>
        <time>2023-06-04T14:13:14.000Z</time>
      </trkpt>
      <trkpt lat="45.81653" lon="4.6316">
        <ele>441.30997</ele>
        <time>2023-06-04T14:13:15.000Z</time>
      </trkpt>
      <trkpt lat="45.81651" lon="4.63156">
        <ele>440.24155</ele>
        <time>2023-06-04T14:13:16.000Z</time>
      </trkpt>
      <trkpt lat="45.81649" lon="4.63151">
        <ele>439.18457</ele>
        <time>2023-06-04T14:13:17.000Z</time>
      </trkpt>
      <trkpt lat="45.81648" lon="4.63147">
        <ele>438.67377</ele>
        <time>2023-06-04T14:13:18.000Z</time>
      </trkpt>
      <trkpt lat="45.81647" lon="4.63142">
        <ele>437.92767</ele>
        <time>2023-06-04T14:13:19.000Z</time>
      </trkpt>
      <trkpt lat="45.81646" lon="4.63137">
        <ele>437.22519</ele>
        <time>2023-06-04T14:13:20.000Z</time>
      </trkpt>
      <trkpt lat="45.81645" lon="4.63131">
        <ele>436.479</ele>
        <time>2023-06-04T14:13:21.000Z</time>
      </trkpt>
      <trkpt lat="45.81644" lon="4.63125">
        <ele>435.74146</ele>
        <time>2023-06-04T14:13:22.000Z</time>
      </trkpt>
      <trkpt lat="45.81643" lon="4.6312">
        <ele>435.65448</ele>
        <time>2023-06-04T14:13:23.000Z</time>
      </trkpt>
      <trkpt lat="45.81643" lon="4.63114">
        <ele>435.67349</ele>
        <time>2023-06-04T14:13:24.000Z</time>
      </trkpt>
      <trkpt lat="45.81642" lon="4.63108">
        <ele>435.44156</ele>
        <time>2023-06-04T14:13:25.000Z</time>
      </trkpt>
      <trkpt lat="45.81641" lon="4.63103">
        <ele>435.3252</ele>
        <time>2023-06-04T14:13:26.000Z</time>
      </trkpt>
      <trkpt lat="45.81639" lon="4.63099">
        <ele>435.11954</ele>
        <time>2023-06-04T14:13:27.000Z</time>
      </trkpt>
      <trkpt lat="45.81637" lon="4.63097">
        <ele>434.71719</ele>
        <time>2023-06-04T14:13:29.000Z</time>
      </trkpt>
      <trkpt lat="45.81635" lon="4.63095">
        <ele>434.52802</ele>
        <time>2023-06-04T14:13:32.000Z</time>
      </trkpt>
      <trkpt lat="45.81635" lon="4.63098">
        <ele>434.28369</ele>
        <time>2023-06-04T14:13:36.000Z</time>
      </trkpt>
      <trkpt lat="45.81635" lon="4.63101">
        <ele>434.03473</ele>
        <time>2023-06-04T14:13:38.000Z</time>
      </trkpt>
      <trkpt lat="45.81635" lon="4.63104">
        <ele>433.85986</ele>
        <time>2023-06-04T14:13:39.000Z</time>
      </trkpt>
      <trkpt lat="45.81634" lon="4.63108">
        <ele>434.34872</ele>
        <time>2023-06-04T14:13:41.000Z</time>
      </trkpt>
      <trkpt lat="45.81636" lon="4.6311">
        <ele>434.62762</ele>
        <time>2023-06-04T14:13:43.000Z</time>
      </trkpt>
      <trkpt lat="45.81638" lon="4.63108">
        <ele>434.79263</ele>
        <time>2023-06-04T14:13:45.000Z</time>
      </trkpt>
      <trkpt lat="45.8164" lon="4.63105">
        <ele>434.77106</ele>
        <time>2023-06-04T14:13:47.000Z</time>
      </trkpt>
      <trkpt lat="45.81641" lon="4.63103">
        <ele>434.6651</ele>
        <time>2023-06-04T14:13:51.000Z</time>
      </trkpt>
      <trkpt lat="45.81641" lon="4.631">
        <ele>434.21271</ele>
        <time>2023-06-04T14:13:56.000Z</time>
      </trkpt>
      <trkpt lat="45.81642" lon="4.63098">
        <ele>433.6857</ele>
        <time>2023-06-04T14:13:58.000Z</time>
      </trkpt>
      <trkpt lat="45.81641" lon="4.631">
        <ele>433.17856</ele>
        <time>2023-06-04T14:14:00.000Z</time>
      </trkpt>
      <trkpt lat="45.81639" lon="4.63102">
        <ele>432.84976</ele>
        <time>2023-06-04T14:14:01.000Z</time>
      </trkpt>
      <trkpt lat="45.81636" lon="4.63104">
        <ele>432.95126</ele>
        <time>2023-06-04T14:14:03.000Z</time>
      </trkpt>
      <trkpt lat="45.81634" lon="4.63103">
        <ele>432.78668</ele>
        <time>2023-06-04T14:14:05.000Z</time>
      </trkpt>
      <trkpt lat="45.81635" lon="4.63107">
        <ele>432.52216</ele>
        <time>2023-06-04T14:14:08.000Z</time>
      </trkpt>
      <trkpt lat="45.81636" lon="4.6311">
        <ele>432.08258</ele>
        <time>2023-06-04T14:14:09.000Z</time>
      </trkpt>
      <trkpt lat="45.81636" lon="4.63107">
        <ele>431.71661</ele>
        <time>2023-06-04T14:14:11.000Z</time>
      </trkpt>
      <trkpt lat="45.81636" lon="4.63102">
        <ele>431.39532</ele>
        <time>2023-06-04T14:14:12.000Z</time>
      </trkpt>
      <trkpt lat="45.81637" lon="4.63098">
        <ele>431.38062</ele>
        <time>2023-06-04T14:14:13.000Z</time>
      </trkpt>
      <trkpt lat="45.81639" lon="4.63099">
        <ele>431.14624</ele>
        <time>2023-06-04T14:14:17.000Z</time>
      </trkpt>
      <trkpt lat="45.81638" lon="4.63102">
        <ele>431.04474</ele>
        <time>2023-06-04T14:14:21.000Z</time>
      </trkpt>
      <trkpt lat="45.81639" lon="4.63104">
        <ele>431.12006</ele>
        <time>2023-06-04T14:14:27.000Z</time>
      </trkpt>
      <trkpt lat="45.81637" lon="4.63103">
        <ele>431.01328</ele>
        <time>2023-06-04T14:14:35.000Z</time>
      </trkpt>
      <trkpt lat="45.81636" lon="4.63101">
        <ele>430.77426</ele>
        <time>2023-06-04T14:14:37.000Z</time>
      </trkpt>
      <trkpt lat="45.81635" lon="4.63098">
        <ele>430.78955</ele>
        <time>2023-06-04T14:14:42.000Z</time>
      </trkpt>
      <trkpt lat="45.81634" lon="4.63095">
        <ele>431.12494</ele>
        <time>2023-06-04T14:14:43.000Z</time>
      </trkpt>
      <trkpt lat="45.81633" lon="4.6309">
        <ele>431.96915</ele>
        <time>2023-06-04T14:14:45.000Z</time>
      </trkpt>
      <trkpt lat="45.81632" lon="4.63086">
        <ele>432.82709</ele>
        <time>2023-06-04T14:14:46.000Z</time>
      </trkpt>
      <trkpt lat="45.81631" lon="4.63082">
        <ele>433.21866</ele>
        <time>2023-06-04T14:14:47.000Z</time>
      </trkpt>
      <trkpt lat="45.81631" lon="4.63077">
        <ele>433.76221</ele>
        <time>2023-06-04T14:14:48.000Z</time>
      </trkpt>
      <trkpt lat="45.8163" lon="4.63073">
        <ele>434.35001</ele>
        <time>2023-06-04T14:14:49.000Z</time>
      </trkpt>
      <trkpt lat="45.8163" lon="4.63068">
        <ele>434.94693</ele>
        <time>2023-06-04T14:14:50.000Z</time>
      </trkpt>
      <trkpt lat="45.81629" lon="4.63061">
        <ele>435.19824</ele>
        <time>2023-06-04T14:14:51.000Z</time>
      </trkpt>
      <trkpt lat="45.81628" lon="4.63055">
        <ele>435.58145</ele>
        <time>2023-06-04T14:14:52.000Z</time>
      </trkpt>
      <trkpt lat="45.81627" lon="4.63049">
        <ele>435.97256</ele>
        <time>2023-06-04T14:14:53.000Z</time>
      </trkpt>
      <trkpt lat="45.81627" lon="4.63043">
        <ele>436.29916</ele>
        <time>2023-06-04T14:14:54.000Z</time>
      </trkpt>
      <trkpt lat="45.81627" lon="4.63038">
        <ele>437.0235</ele>
        <time>2023-06-04T14:14:55.000Z</time>
      </trkpt>
      <trkpt lat="45.81626" lon="4.63034">
        <ele>437.61319</ele>
        <time>2023-06-04T14:14:56.000Z</time>
      </trkpt>
      <trkpt lat="45.81626" lon="4.63029">
        <ele>438.13931</ele>
        <time>2023-06-04T14:14:57.000Z</time>
      </trkpt>
      <trkpt lat="45.81625" lon="4.63021">
        <ele>438.68481</ele>
        <time>2023-06-04T14:14:58.000Z</time>
      </trkpt>
      <trkpt lat="45.81622" lon="4.63013">
        <ele>439.16571</ele>
        <time>2023-06-04T14:14:59.000Z</time>
      </trkpt>
      <trkpt lat="45.81623" lon="4.63007">
        <ele>439.35269</ele>
        <time>2023-06-04T14:15:00.000Z</time>
      </trkpt>
      <trkpt lat="45.81621" lon="4.62999">
        <ele>439.5687</ele>
        <time>2023-06-04T14:15:01.000Z</time>
      </trkpt>
      <trkpt lat="45.81621" lon="4.62993">
        <ele>439.57379</ele>
        <time>2023-06-04T14:15:02.000Z</time>
      </trkpt>
      <trkpt lat="45.81618" lon="4.62987">
        <ele>439.0524</ele>
        <time>2023-06-04T14:15:03.000Z</time>
      </trkpt>
      <trkpt lat="45.81619" lon="4.6298">
        <ele>438.37524</ele>
        <time>2023-06-04T14:15:04.000Z</time>
      </trkpt>
      <trkpt lat="45.8162" lon="4.62974">
        <ele>437.55914</ele>
        <time>2023-06-04T14:15:05.000Z</time>
      </trkpt>
      <trkpt lat="45.8162" lon="4.62969">
        <ele>436.82257</ele>
        <time>2023-06-04T14:15:06.000Z</time>
      </trkpt>
      <trkpt lat="45.81619" lon="4.62963">
        <ele>436.33978</ele>
        <time>2023-06-04T14:15:07.000Z</time>
      </trkpt>
      <trkpt lat="45.81622" lon="4.62961">
        <ele>435.84009</ele>
        <time>2023-06-04T14:15:08.000Z</time>
      </trkpt>
      <trkpt lat="45.81618" lon="4.6296">
        <ele>435.30475</ele>
        <time>2023-06-04T14:15:09.000Z</time>
      </trkpt>
      <trkpt lat="45.81615" lon="4.62956">
        <ele>434.70557</ele>
        <time>2023-06-04T14:15:10.000Z</time>
      </trkpt>
      <trkpt lat="45.81613" lon="4.62954">
        <ele>433.9942</ele>
        <time>2023-06-04T14:15:11.000Z</time>
      </trkpt>
      <trkpt lat="45.81612" lon="4.62951">
        <ele>433.28497</ele>
        <time>2023-06-04T14:15:12.000Z</time>
      </trkpt>
      <trkpt lat="45.81606" lon="4.62953">
        <ele>432.83917</ele>
        <time>2023-06-04T14:15:13.000Z</time>
      </trkpt>
      <trkpt lat="45.81599" lon="4.62949">
        <ele>432.47363</ele>
        <time>2023-06-04T14:15:14.000Z</time>
      </trkpt>
      <trkpt lat="45.81589" lon="4.62941">
        <ele>432.04962</ele>
        <time>2023-06-04T14:15:15.000Z</time>
      </trkpt>
      <trkpt lat="45.81581" lon="4.62941">
        <ele>432.12857</ele>
        <time>2023-06-04T14:15:16.000Z</time>
      </trkpt>
      <trkpt lat="45.81572" lon="4.62938">
        <ele>432.22174</ele>
        <time>2023-06-04T14:15:17.000Z</time>
      </trkpt>
      <trkpt lat="45.81564" lon="4.62933">
        <ele>432.24023</ele>
        <time>2023-06-04T14:15:18.000Z</time>
      </trkpt>
      <trkpt lat="45.81558" lon="4.62923">
        <ele>432.25528</ele>
        <time>2023-06-04T14:15:19.000Z</time>
      </trkpt>
      <trkpt lat="45.81555" lon="4.62919">
        <ele>431.80502</ele>
        <time>2023-06-04T14:15:20.000Z</time>
      </trkpt>
      <trkpt lat="45.81548" lon="4.6291">
        <ele>431.48087</ele>
        <time>2023-06-04T14:15:21.000Z</time>
      </trkpt>
      <trkpt lat="45.81542" lon="4.62903">
        <ele>431.30682</ele>
        <time>2023-06-04T14:15:22.000Z</time>
      </trkpt>
      <trkpt lat="45.81534" lon="4.62896">
        <ele>431.56842</ele>
        <time>2023-06-04T14:15:23.000Z</time>
      </trkpt>
      <trkpt lat="45.81525" lon="4.62888">
        <ele>431.64374</ele>
        <time>2023-06-04T14:15:24.000Z</time>
      </trkpt>
      <trkpt lat="45.81516" lon="4.62882">
        <ele>431.32782</ele>
        <time>2023-06-04T14:15:25.000Z</time>
      </trkpt>
      <trkpt lat="45.81516" lon="4.62872">
        <ele>431.26205</ele>
        <time>2023-06-04T14:15:26.000Z</time>
      </trkpt>
      <trkpt lat="45.81507" lon="4.62867">
        <ele>431.12491</ele>
        <time>2023-06-04T14:15:27.000Z</time>
      </trkpt>
      <trkpt lat="45.815" lon="4.62857">
        <ele>431.16089</ele>
        <time>2023-06-04T14:15:28.000Z</time>
      </trkpt>
      <trkpt lat="45.81491" lon="4.62851">
        <ele>431.20132</ele>
        <time>2023-06-04T14:15:29.000Z</time>
      </trkpt>
      <trkpt lat="45.81486" lon="4.62845">
        <ele>431.2832</ele>
        <time>2023-06-04T14:15:30.000Z</time>
      </trkpt>
      <trkpt lat="45.81478" lon="4.62839">
        <ele>431.41266</ele>
        <time>2023-06-04T14:15:31.000Z</time>
      </trkpt>
      <trkpt lat="45.8147" lon="4.62835">
        <ele>431.64438</ele>
        <time>2023-06-04T14:15:32.000Z</time>
      </trkpt>
      <trkpt lat="45.81464" lon="4.62831">
        <ele>431.86636</ele>
        <time>2023-06-04T14:15:33.000Z</time>
      </trkpt>
      <trkpt lat="45.81458" lon="4.62828">
        <ele>432.11166</ele>
        <time>2023-06-04T14:15:34.000Z</time>
      </trkpt>
      <trkpt lat="45.81451" lon="4.62824">
        <ele>431.90277</ele>
        <time>2023-06-04T14:15:35.000Z</time>
      </trkpt>
      <trkpt lat="45.81449" lon="4.62818">
        <ele>431.27603</ele>
        <time>2023-06-04T14:15:36.000Z</time>
      </trkpt>
      <trkpt lat="45.81444" lon="4.62815">
        <ele>430.56842</ele>
        <time>2023-06-04T14:15:37.000Z</time>
      </trkpt>
      <trkpt lat="45.81439" lon="4.62811">
        <ele>429.88422</ele>
        <time>2023-06-04T14:15:38.000Z</time>
      </trkpt>
      <trkpt lat="45.81434" lon="4.62809">
        <ele>429.18878</ele>
        <time>2023-06-04T14:15:39.000Z</time>
      </trkpt>
      <trkpt lat="45.8143" lon="4.62808">
        <ele>429.02759</ele>
        <time>2023-06-04T14:15:40.000Z</time>
      </trkpt>
      <trkpt lat="45.81424" lon="4.62803">
        <ele>428.79355</ele>
        <time>2023-06-04T14:15:41.000Z</time>
      </trkpt>
      <trkpt lat="45.8142" lon="4.62799">
        <ele>428.61017</ele>
        <time>2023-06-04T14:15:42.000Z</time>
      </trkpt>
      <trkpt lat="45.81416" lon="4.62794">
        <ele>428.45865</ele>
        <time>2023-06-04T14:15:43.000Z</time>
      </trkpt>
      <trkpt lat="45.81415" lon="4.6279">
        <ele>428.47827</ele>
        <time>2023-06-04T14:15:44.000Z</time>
      </trkpt>
      <trkpt lat="45.81414" lon="4.62786">
        <ele>428.7674</ele>
        <time>2023-06-04T14:15:45.000Z</time>
      </trkpt>
      <trkpt lat="45.81411" lon="4.62779">
        <ele>428.72623</ele>
        <time>2023-06-04T14:15:46.000Z</time>
      </trkpt>
      <trkpt lat="45.81409" lon="4.62774">
        <ele>428.754</ele>
        <time>2023-06-04T14:15:47.000Z</time>
      </trkpt>
      <trkpt lat="45.81405" lon="4.62768">
        <ele>428.72406</ele>
        <time>2023-06-04T14:15:48.000Z</time>
      </trkpt>
      <trkpt lat="45.81402" lon="4.62767">
        <ele>428.8436</ele>
        <time>2023-06-04T14:15:49.000Z</time>
      </trkpt>
      <trkpt lat="45.81399" lon="4.62764">
        <ele>428.66901</ele>
        <time>2023-06-04T14:15:50.000Z</time>
      </trkpt>
      <trkpt lat="45.81391" lon="4.62761">
        <ele>428.53436</ele>
        <time>2023-06-04T14:15:51.000Z</time>
      </trkpt>
      <trkpt lat="45.81389" lon="4.62762">
        <ele>428.32339</ele>
        <time>2023-06-04T14:15:52.000Z</time>
      </trkpt>
      <trkpt lat="45.81387" lon="4.62758">
        <ele>427.79712</ele>
        <time>2023-06-04T14:15:53.000Z</time>
      </trkpt>
      <trkpt lat="45.81387" lon="4.62754">
        <ele>427.41788</ele>
        <time>2023-06-04T14:15:54.000Z</time>
      </trkpt>
      <trkpt lat="45.81384" lon="4.62751">
        <ele>427.48138</ele>
        <time>2023-06-04T14:15:55.000Z</time>
      </trkpt>
      <trkpt lat="45.81381" lon="4.62747">
        <ele>427.60663</ele>
        <time>2023-06-04T14:15:56.000Z</time>
      </trkpt>
      <trkpt lat="45.81384" lon="4.62741">
        <ele>427.68497</ele>
        <time>2023-06-04T14:15:57.000Z</time>
      </trkpt>
      <trkpt lat="45.81379" lon="4.62742">
        <ele>427.91919</ele>
        <time>2023-06-04T14:15:59.000Z</time>
      </trkpt>
      <trkpt lat="45.81374" lon="4.62742">
        <ele>428.13745</ele>
        <time>2023-06-04T14:16:00.000Z</time>
      </trkpt>
      <trkpt lat="45.81375" lon="4.62738">
        <ele>428.36694</ele>
        <time>2023-06-04T14:16:01.000Z</time>
      </trkpt>
      <trkpt lat="45.81374" lon="4.62735">
        <ele>428.50336</ele>
        <time>2023-06-04T14:16:02.000Z</time>
      </trkpt>
      <trkpt lat="45.81372" lon="4.62732">
        <ele>428.29413</ele>
        <time>2023-06-04T14:16:03.000Z</time>
      </trkpt>
      <trkpt lat="45.81371" lon="4.62729">
        <ele>428.06192</ele>
        <time>2023-06-04T14:16:04.000Z</time>
      </trkpt>
      <trkpt lat="45.81368" lon="4.62725">
        <ele>427.75385</ele>
        <time>2023-06-04T14:16:05.000Z</time>
      </trkpt>
      <trkpt lat="45.81366" lon="4.62721">
        <ele>427.95709</ele>
        <time>2023-06-04T14:16:06.000Z</time>
      </trkpt>
      <trkpt lat="45.81364" lon="4.62717">
        <ele>428.00742</ele>
        <time>2023-06-04T14:16:07.000Z</time>
      </trkpt>
      <trkpt lat="45.81362" lon="4.62713">
        <ele>428.05487</ele>
        <time>2023-06-04T14:16:08.000Z</time>
      </trkpt>
      <trkpt lat="45.81359" lon="4.62708">
        <ele>428.05411</ele>
        <time>2023-06-04T14:16:09.000Z</time>
      </trkpt>
      <trkpt lat="45.81354" lon="4.62697">
        <ele>427.87329</ele>
        <time>2023-06-04T14:16:10.000Z</time>
      </trkpt>
      <trkpt lat="45.81349" lon="4.62694">
        <ele>427.8392</ele>
        <time>2023-06-04T14:16:11.000Z</time>
      </trkpt>
      <trkpt lat="45.81346" lon="4.62685">
        <ele>427.56439</ele>
        <time>2023-06-04T14:16:12.000Z</time>
      </trkpt>
      <trkpt lat="45.81342" lon="4.62681">
        <ele>427.36923</ele>
        <time>2023-06-04T14:16:14.000Z</time>
      </trkpt>
      <trkpt lat="45.81337" lon="4.62671">
        <ele>427.34018</ele>
        <time>2023-06-04T14:16:15.000Z</time>
      </trkpt>
      <trkpt lat="45.8133" lon="4.62663">
        <ele>427.17685</ele>
        <time>2023-06-04T14:16:16.000Z</time>
      </trkpt>
      <trkpt lat="45.81326" lon="4.62661">
        <ele>426.42523</ele>
        <time>2023-06-04T14:16:17.000Z</time>
      </trkpt>
      <trkpt lat="45.81322" lon="4.62655">
        <ele>426.11383</ele>
        <time>2023-06-04T14:16:18.000Z</time>
      </trkpt>
      <trkpt lat="45.81318" lon="4.62641">
        <ele>425.74643</ele>
        <time>2023-06-04T14:16:19.000Z</time>
      </trkpt>
      <trkpt lat="45.81315" lon="4.62634">
        <ele>425.35516</ele>
        <time>2023-06-04T14:16:20.000Z</time>
      </trkpt>
      <trkpt lat="45.81308" lon="4.62622">
        <ele>424.95465</ele>
        <time>2023-06-04T14:16:21.000Z</time>
      </trkpt>
      <trkpt lat="45.81306" lon="4.62614">
        <ele>424.63043</ele>
        <time>2023-06-04T14:16:22.000Z</time>
      </trkpt>
      <trkpt lat="45.813" lon="4.62601">
        <ele>424.41119</ele>
        <time>2023-06-04T14:16:23.000Z</time>
      </trkpt>
      <trkpt lat="45.81293" lon="4.62587">
        <ele>424.42276</ele>
        <time>2023-06-04T14:16:24.000Z</time>
      </trkpt>
      <trkpt lat="45.81291" lon="4.6258">
        <ele>424.38876</ele>
        <time>2023-06-04T14:16:25.000Z</time>
      </trkpt>
      <trkpt lat="45.81288" lon="4.62568">
        <ele>424.49594</ele>
        <time>2023-06-04T14:16:26.000Z</time>
      </trkpt>
      <trkpt lat="45.81277" lon="4.62561">
        <ele>424.18594</ele>
        <time>2023-06-04T14:16:27.000Z</time>
      </trkpt>
      <trkpt lat="45.81272" lon="4.6255">
        <ele>423.8541</ele>
        <time>2023-06-04T14:16:28.000Z</time>
      </trkpt>
      <trkpt lat="45.81267" lon="4.62543">
        <ele>423.58212</ele>
        <time>2023-06-04T14:16:29.000Z</time>
      </trkpt>
      <trkpt lat="45.81264" lon="4.62535">
        <ele>423.39337</ele>
        <time>2023-06-04T14:16:30.000Z</time>
      </trkpt>
      <trkpt lat="45.8126" lon="4.62531">
        <ele>423.05127</ele>
        <time>2023-06-04T14:16:31.000Z</time>
      </trkpt>
      <trkpt lat="45.81262" lon="4.62522">
        <ele>422.72647</ele>
        <time>2023-06-04T14:16:32.000Z</time>
      </trkpt>
      <trkpt lat="45.81256" lon="4.62519">
        <ele>423.04581</ele>
        <time>2023-06-04T14:16:33.000Z</time>
      </trkpt>
      <trkpt lat="45.8126" lon="4.6252">
        <ele>423.08804</ele>
        <time>2023-06-04T14:16:34.000Z</time>
      </trkpt>
      <trkpt lat="45.8126" lon="4.62516">
        <ele>423.10995</ele>
        <time>2023-06-04T14:16:35.000Z</time>
      </trkpt>
      <trkpt lat="45.81254" lon="4.62512">
        <ele>423.15366</ele>
        <time>2023-06-04T14:16:36.000Z</time>
      </trkpt>
      <trkpt lat="45.81251" lon="4.62509">
        <ele>423.33374</ele>
        <time>2023-06-04T14:16:37.000Z</time>
      </trkpt>
      <trkpt lat="45.81248" lon="4.62505">
        <ele>423.10815</ele>
        <time>2023-06-04T14:16:38.000Z</time>
      </trkpt>
      <trkpt lat="45.81244" lon="4.62502">
        <ele>423.02353</ele>
        <time>2023-06-04T14:16:39.000Z</time>
      </trkpt>
      <trkpt lat="45.81241" lon="4.625">
        <ele>422.6861</ele>
        <time>2023-06-04T14:16:40.000Z</time>
      </trkpt>
      <trkpt lat="45.81237" lon="4.62497">
        <ele>422.82071</ele>
        <time>2023-06-04T14:16:43.000Z</time>
      </trkpt>
      <trkpt lat="45.81232" lon="4.62494">
        <ele>422.7627</ele>
        <time>2023-06-04T14:16:44.000Z</time>
      </trkpt>
      <trkpt lat="45.81228" lon="4.62492">
        <ele>422.62354</ele>
        <time>2023-06-04T14:16:45.000Z</time>
      </trkpt>
      <trkpt lat="45.81224" lon="4.6249">
        <ele>422.31558</ele>
        <time>2023-06-04T14:16:46.000Z</time>
      </trkpt>
      <trkpt lat="45.81221" lon="4.6249">
        <ele>421.8558</ele>
        <time>2023-06-04T14:16:47.000Z</time>
      </trkpt>
      <trkpt lat="45.81218" lon="4.62489">
        <ele>421.84784</ele>
        <time>2023-06-04T14:16:48.000Z</time>
      </trkpt>
      <trkpt lat="45.81215" lon="4.62488">
        <ele>421.79214</ele>
        <time>2023-06-04T14:16:49.000Z</time>
      </trkpt>
      <trkpt lat="45.81212" lon="4.62486">
        <ele>421.97382</ele>
        <time>2023-06-04T14:16:50.000Z</time>
      </trkpt>
      <trkpt lat="45.8121" lon="4.62484">
        <ele>422.18115</ele>
        <time>2023-06-04T14:16:51.000Z</time>
      </trkpt>
      <trkpt lat="45.81207" lon="4.62481">
        <ele>422.4939</ele>
        <time>2023-06-04T14:16:52.000Z</time>
      </trkpt>
      <trkpt lat="45.81205" lon="4.62478">
        <ele>422.85577</ele>
        <time>2023-06-04T14:16:53.000Z</time>
      </trkpt>
      <trkpt lat="45.81202" lon="4.62475">
        <ele>423.17627</ele>
        <time>2023-06-04T14:16:54.000Z</time>
      </trkpt>
      <trkpt lat="45.81199" lon="4.62471">
        <ele>422.9668</ele>
        <time>2023-06-04T14:16:55.000Z</time>
      </trkpt>
      <trkpt lat="45.81195" lon="4.62468">
        <ele>423.46866</ele>
        <time>2023-06-04T14:16:56.000Z</time>
      </trkpt>
      <trkpt lat="45.81191" lon="4.62465">
        <ele>423.91171</ele>
        <time>2023-06-04T14:16:57.000Z</time>
      </trkpt>
      <trkpt lat="45.81188" lon="4.62462">
        <ele>424.31842</ele>
        <time>2023-06-04T14:16:58.000Z</time>
      </trkpt>
      <trkpt lat="45.81184" lon="4.6246">
        <ele>424.69662</ele>
        <time>2023-06-04T14:16:59.000Z</time>
      </trkpt>
      <trkpt lat="45.81181" lon="4.62458">
        <ele>425.11362</ele>
        <time>2023-06-04T14:17:00.000Z</time>
      </trkpt>
      <trkpt lat="45.81179" lon="4.62457">
        <ele>425.3895</ele>
        <time>2023-06-04T14:17:01.000Z</time>
      </trkpt>
      <trkpt lat="45.81178" lon="4.62455">
        <ele>425.90244</ele>
        <time>2023-06-04T14:17:02.000Z</time>
      </trkpt>
      <trkpt lat="45.81174" lon="4.62453">
        <ele>425.86002</ele>
        <time>2023-06-04T14:17:03.000Z</time>
      </trkpt>
      <trkpt lat="45.81168" lon="4.62449">
        <ele>425.89648</ele>
        <time>2023-06-04T14:17:04.000Z</time>
      </trkpt>
      <trkpt lat="45.81163" lon="4.62451">
        <ele>426.56464</ele>
        <time>2023-06-04T14:17:05.000Z</time>
      </trkpt>
      <trkpt lat="45.81161" lon="4.62449">
        <ele>427.37729</ele>
        <time>2023-06-04T14:17:06.000Z</time>
      </trkpt>
      <trkpt lat="45.81158" lon="4.62448">
        <ele>428.54184</ele>
        <time>2023-06-04T14:17:07.000Z</time>
      </trkpt>
      <trkpt lat="45.81155" lon="4.62446">
        <ele>429.05518</ele>
        <time>2023-06-04T14:17:08.000Z</time>
      </trkpt>
      <trkpt lat="45.81153" lon="4.62446">
        <ele>429.62311</ele>
        <time>2023-06-04T14:17:09.000Z</time>
      </trkpt>
      <trkpt lat="45.81148" lon="4.62447">
        <ele>430.18375</ele>
        <time>2023-06-04T14:17:10.000Z</time>
      </trkpt>
      <trkpt lat="45.81142" lon="4.62446">
        <ele>430.72137</ele>
        <time>2023-06-04T14:17:11.000Z</time>
      </trkpt>
      <trkpt lat="45.81139" lon="4.62443">
        <ele>431.17831</ele>
        <time>2023-06-04T14:17:12.000Z</time>
      </trkpt>
      <trkpt lat="45.81138" lon="4.62441">
        <ele>431.57675</ele>
        <time>2023-06-04T14:17:13.000Z</time>
      </trkpt>
      <trkpt lat="45.81133" lon="4.62443">
        <ele>432.03403</ele>
        <time>2023-06-04T14:17:14.000Z</time>
      </trkpt>
      <trkpt lat="45.81129" lon="4.62444">
        <ele>432.34442</ele>
        <time>2023-06-04T14:17:15.000Z</time>
      </trkpt>
      <trkpt lat="45.81125" lon="4.62441">
        <ele>432.64951</ele>
        <time>2023-06-04T14:17:16.000Z</time>
      </trkpt>
      <trkpt lat="45.8112" lon="4.62444">
        <ele>432.78842</ele>
        <time>2023-06-04T14:17:18.000Z</time>
      </trkpt>
      <trkpt lat="45.81118" lon="4.62444">
        <ele>432.93573</ele>
        <time>2023-06-04T14:17:19.000Z</time>
      </trkpt>
      <trkpt lat="45.81112" lon="4.62444">
        <ele>432.94598</ele>
        <time>2023-06-04T14:17:20.000Z</time>
      </trkpt>
      <trkpt lat="45.81106" lon="4.62445">
        <ele>432.42651</ele>
        <time>2023-06-04T14:17:21.000Z</time>
      </trkpt>
      <trkpt lat="45.81103" lon="4.62441">
        <ele>432.74268</ele>
        <time>2023-06-04T14:17:22.000Z</time>
      </trkpt>
      <trkpt lat="45.81097" lon="4.62443">
        <ele>433.07681</ele>
        <time>2023-06-04T14:17:23.000Z</time>
      </trkpt>
      <trkpt lat="45.81091" lon="4.62441">
        <ele>434.24649</ele>
        <time>2023-06-04T14:17:24.000Z</time>
      </trkpt>
      <trkpt lat="45.81088" lon="4.62438">
        <ele>435.35532</ele>
        <time>2023-06-04T14:17:25.000Z</time>
      </trkpt>
      <trkpt lat="45.81085" lon="4.62439">
        <ele>435.97333</ele>
        <time>2023-06-04T14:17:26.000Z</time>
      </trkpt>
      <trkpt lat="45.81077" lon="4.62443">
        <ele>436.64679</ele>
        <time>2023-06-04T14:17:27.000Z</time>
      </trkpt>
      <trkpt lat="45.8107" lon="4.62445">
        <ele>437.16147</ele>
        <time>2023-06-04T14:17:28.000Z</time>
      </trkpt>
      <trkpt lat="45.81068" lon="4.62448">
        <ele>436.92139</ele>
        <time>2023-06-04T14:17:29.000Z</time>
      </trkpt>
      <trkpt lat="45.81064" lon="4.62453">
        <ele>436.70087</ele>
        <time>2023-06-04T14:17:30.000Z</time>
      </trkpt>
      <trkpt lat="45.81061" lon="4.6245">
        <ele>436.37726</ele>
        <time>2023-06-04T14:17:31.000Z</time>
      </trkpt>
      <trkpt lat="45.81058" lon="4.62452">
        <ele>436.11469</ele>
        <time>2023-06-04T14:17:32.000Z</time>
      </trkpt>
      <trkpt lat="45.81051" lon="4.6245">
        <ele>435.86459</ele>
        <time>2023-06-04T14:17:33.000Z</time>
      </trkpt>
      <trkpt lat="45.81043" lon="4.62448">
        <ele>435.79599</ele>
        <time>2023-06-04T14:17:34.000Z</time>
      </trkpt>
      <trkpt lat="45.81038" lon="4.62449">
        <ele>435.60272</ele>
        <time>2023-06-04T14:17:35.000Z</time>
      </trkpt>
      <trkpt lat="45.81031" lon="4.62449">
        <ele>435.69</ele>
        <time>2023-06-04T14:17:36.000Z</time>
      </trkpt>
      <trkpt lat="45.81022" lon="4.62448">
        <ele>435.25845</ele>
        <time>2023-06-04T14:17:37.000Z</time>
      </trkpt>
      <trkpt lat="45.81014" lon="4.62445">
        <ele>435.05499</ele>
        <time>2023-06-04T14:17:38.000Z</time>
      </trkpt>
      <trkpt lat="45.81005" lon="4.62441">
        <ele>434.70361</ele>
        <time>2023-06-04T14:17:39.000Z</time>
      </trkpt>
      <trkpt lat="45.80997" lon="4.62434">
        <ele>434.60767</ele>
        <time>2023-06-04T14:17:40.000Z</time>
      </trkpt>
      <trkpt lat="45.80994" lon="4.62431">
        <ele>434.79681</ele>
        <time>2023-06-04T14:17:41.000Z</time>
      </trkpt>
      <trkpt lat="45.80986" lon="4.62425">
        <ele>434.32681</ele>
        <time>2023-06-04T14:17:42.000Z</time>
      </trkpt>
      <trkpt lat="45.80976" lon="4.62419">
        <ele>433.81061</ele>
        <time>2023-06-04T14:17:43.000Z</time>
      </trkpt>
      <trkpt lat="45.80968" lon="4.62411">
        <ele>432.64755</ele>
        <time>2023-06-04T14:17:44.000Z</time>
      </trkpt>
      <trkpt lat="45.80957" lon="4.62407">
        <ele>431.54584</ele>
        <time>2023-06-04T14:17:45.000Z</time>
      </trkpt>
      <trkpt lat="45.8095" lon="4.62403">
        <ele>430.27368</ele>
        <time>2023-06-04T14:17:46.000Z</time>
      </trkpt>
      <trkpt lat="45.80946" lon="4.62397">
        <ele>429.02106</ele>
        <time>2023-06-04T14:17:47.000Z</time>
      </trkpt>
      <trkpt lat="45.80937" lon="4.62389">
        <ele>427.65244</ele>
        <time>2023-06-04T14:17:48.000Z</time>
      </trkpt>
      <trkpt lat="45.80933" lon="4.62385">
        <ele>427.08292</ele>
        <time>2023-06-04T14:17:49.000Z</time>
      </trkpt>
      <trkpt lat="45.80925" lon="4.62378">
        <ele>426.47427</ele>
        <time>2023-06-04T14:17:50.000Z</time>
      </trkpt>
      <trkpt lat="45.80916" lon="4.62374">
        <ele>425.93872</ele>
        <time>2023-06-04T14:17:51.000Z</time>
      </trkpt>
      <trkpt lat="45.80906" lon="4.62373">
        <ele>425.36368</ele>
        <time>2023-06-04T14:17:52.000Z</time>
      </trkpt>
      <trkpt lat="45.80899" lon="4.62362">
        <ele>424.69986</ele>
        <time>2023-06-04T14:17:53.000Z</time>
      </trkpt>
      <trkpt lat="45.80894" lon="4.62359">
        <ele>423.92682</ele>
        <time>2023-06-04T14:17:54.000Z</time>
      </trkpt>
      <trkpt lat="45.80887" lon="4.62355">
        <ele>423.70386</ele>
        <time>2023-06-04T14:17:55.000Z</time>
      </trkpt>
      <trkpt lat="45.8088" lon="4.62352">
        <ele>423.40765</ele>
        <time>2023-06-04T14:17:56.000Z</time>
      </trkpt>
      <trkpt lat="45.80877" lon="4.62349">
        <ele>423.16571</ele>
        <time>2023-06-04T14:17:57.000Z</time>
      </trkpt>
      <trkpt lat="45.8087" lon="4.62346">
        <ele>422.99298</ele>
        <time>2023-06-04T14:17:58.000Z</time>
      </trkpt>
      <trkpt lat="45.80861" lon="4.62342">
        <ele>422.89178</ele>
        <time>2023-06-04T14:17:59.000Z</time>
      </trkpt>
      <trkpt lat="45.8086" lon="4.62345">
        <ele>422.48114</ele>
        <time>2023-06-04T14:18:00.000Z</time>
      </trkpt>
      <trkpt lat="45.80853" lon="4.62347">
        <ele>422.29965</ele>
        <time>2023-06-04T14:18:01.000Z</time>
      </trkpt>
      <trkpt lat="45.80846" lon="4.62348">
        <ele>422.09375</ele>
        <time>2023-06-04T14:18:02.000Z</time>
      </trkpt>
      <trkpt lat="45.80843" lon="4.62355">
        <ele>421.79858</ele>
        <time>2023-06-04T14:18:03.000Z</time>
      </trkpt>
      <trkpt lat="45.8084" lon="4.62355">
        <ele>421.38135</ele>
        <time>2023-06-04T14:18:04.000Z</time>
      </trkpt>
      <trkpt lat="45.80839" lon="4.62361">
        <ele>420.78424</ele>
        <time>2023-06-04T14:18:06.000Z</time>
      </trkpt>
      <trkpt lat="45.80835" lon="4.62364">
        <ele>420.33917</ele>
        <time>2023-06-04T14:18:07.000Z</time>
      </trkpt>
      <trkpt lat="45.80831" lon="4.62362">
        <ele>419.93866</ele>
        <time>2023-06-04T14:18:08.000Z</time>
      </trkpt>
      <trkpt lat="45.80828" lon="4.62361">
        <ele>419.7403</ele>
        <time>2023-06-04T14:18:09.000Z</time>
      </trkpt>
      <trkpt lat="45.80824" lon="4.62357">
        <ele>419.6683</ele>
        <time>2023-06-04T14:18:10.000Z</time>
      </trkpt>
      <trkpt lat="45.80821" lon="4.62355">
        <ele>419.58124</ele>
        <time>2023-06-04T14:18:11.000Z</time>
      </trkpt>
      <trkpt lat="45.80817" lon="4.62352">
        <ele>419.50009</ele>
        <time>2023-06-04T14:18:12.000Z</time>
      </trkpt>
      <trkpt lat="45.80814" lon="4.62343">
        <ele>419.42105</ele>
        <time>2023-06-04T14:18:13.000Z</time>
      </trkpt>
      <trkpt lat="45.80812" lon="4.62336">
        <ele>419.45947</ele>
        <time>2023-06-04T14:18:14.000Z</time>
      </trkpt>
      <trkpt lat="45.80811" lon="4.62328">
        <ele>419.66205</ele>
        <time>2023-06-04T14:18:15.000Z</time>
      </trkpt>
      <trkpt lat="45.80811" lon="4.6232">
        <ele>419.52115</ele>
        <time>2023-06-04T14:18:16.000Z</time>
      </trkpt>
      <trkpt lat="45.80811" lon="4.62314">
        <ele>419.38818</ele>
        <time>2023-06-04T14:18:17.000Z</time>
      </trkpt>
      <trkpt lat="45.80809" lon="4.62308">
        <ele>419.21625</ele>
        <time>2023-06-04T14:18:18.000Z</time>
      </trkpt>
      <trkpt lat="45.80809" lon="4.62302">
        <ele>419.05438</ele>
        <time>2023-06-04T14:18:19.000Z</time>
      </trkpt>
      <trkpt lat="45.80808" lon="4.6229">
        <ele>418.95197</ele>
        <time>2023-06-04T14:18:20.000Z</time>
      </trkpt>
      <trkpt lat="45.80804" lon="4.62284">
        <ele>419.01141</ele>
        <time>2023-06-04T14:18:21.000Z</time>
      </trkpt>
      <trkpt lat="45.808" lon="4.62277">
        <ele>418.99463</ele>
        <time>2023-06-04T14:18:22.000Z</time>
      </trkpt>
      <trkpt lat="45.80796" lon="4.62272">
        <ele>418.95148</ele>
        <time>2023-06-04T14:18:23.000Z</time>
      </trkpt>
      <trkpt lat="45.80795" lon="4.62263">
        <ele>418.93213</ele>
        <time>2023-06-04T14:18:24.000Z</time>
      </trkpt>
      <trkpt lat="45.80791" lon="4.62257">
        <ele>418.97964</ele>
        <time>2023-06-04T14:18:25.000Z</time>
      </trkpt>
      <trkpt lat="45.80787" lon="4.62257">
        <ele>419.32172</ele>
        <time>2023-06-04T14:18:26.000Z</time>
      </trkpt>
      <trkpt lat="45.80785" lon="4.62254">
        <ele>419.61285</ele>
        <time>2023-06-04T14:18:27.000Z</time>
      </trkpt>
      <trkpt lat="45.80782" lon="4.62252">
        <ele>419.79337</ele>
        <time>2023-06-04T14:18:28.000Z</time>
      </trkpt>
      <trkpt lat="45.80776" lon="4.62252">
        <ele>420.37924</ele>
        <time>2023-06-04T14:18:29.000Z</time>
      </trkpt>
      <trkpt lat="45.80773" lon="4.62252">
        <ele>420.92734</ele>
        <time>2023-06-04T14:18:30.000Z</time>
      </trkpt>
      <trkpt lat="45.80769" lon="4.6225">
        <ele>421.61441</ele>
        <time>2023-06-04T14:18:31.000Z</time>
      </trkpt>
      <trkpt lat="45.80765" lon="4.62249">
        <ele>422.28729</ele>
        <time>2023-06-04T14:18:32.000Z</time>
      </trkpt>
      <trkpt lat="45.80761" lon="4.62247">
        <ele>422.90689</ele>
        <time>2023-06-04T14:18:33.000Z</time>
      </trkpt>
      <trkpt lat="45.80758" lon="4.62245">
        <ele>423.44351</ele>
        <time>2023-06-04T14:18:34.000Z</time>
      </trkpt>
      <trkpt lat="45.80754" lon="4.62244">
        <ele>423.93036</ele>
        <time>2023-06-04T14:18:35.000Z</time>
      </trkpt>
      <trkpt lat="45.80751" lon="4.62243">
        <ele>424.336</ele>
        <time>2023-06-04T14:18:36.000Z</time>
      </trkpt>
      <trkpt lat="45.80747" lon="4.62242">
        <ele>424.77133</ele>
        <time>2023-06-04T14:18:37.000Z</time>
      </trkpt>
      <trkpt lat="45.80743" lon="4.62241">
        <ele>425.2475</ele>
        <time>2023-06-04T14:18:38.000Z</time>
      </trkpt>
      <trkpt lat="45.80739" lon="4.6224">
        <ele>425.67792</ele>
        <time>2023-06-04T14:18:39.000Z</time>
      </trkpt>
      <trkpt lat="45.80736" lon="4.62239">
        <ele>426.46942</ele>
        <time>2023-06-04T14:18:40.000Z</time>
      </trkpt>
      <trkpt lat="45.80733" lon="4.62238">
        <ele>426.96866</ele>
        <time>2023-06-04T14:18:41.000Z</time>
      </trkpt>
      <trkpt lat="45.80729" lon="4.62238">
        <ele>427.49188</ele>
        <time>2023-06-04T14:18:42.000Z</time>
      </trkpt>
      <trkpt lat="45.80726" lon="4.62237">
        <ele>428.04785</ele>
        <time>2023-06-04T14:18:43.000Z</time>
      </trkpt>
      <trkpt lat="45.80722" lon="4.62237">
        <ele>428.62646</ele>
        <time>2023-06-04T14:18:44.000Z</time>
      </trkpt>
      <trkpt lat="45.80719" lon="4.62237">
        <ele>429.19647</ele>
        <time>2023-06-04T14:18:45.000Z</time>
      </trkpt>
      <trkpt lat="45.80716" lon="4.62237">
        <ele>429.98886</ele>
        <time>2023-06-04T14:18:46.000Z</time>
      </trkpt>
      <trkpt lat="45.80712" lon="4.62238">
        <ele>430.82538</ele>
        <time>2023-06-04T14:18:47.000Z</time>
      </trkpt>
      <trkpt lat="45.80709" lon="4.6224">
        <ele>431.664</ele>
        <time>2023-06-04T14:18:48.000Z</time>
      </trkpt>
      <trkpt lat="45.80707" lon="4.62243">
        <ele>431.99884</ele>
        <time>2023-06-04T14:18:49.000Z</time>
      </trkpt>
      <trkpt lat="45.80705" lon="4.62246">
        <ele>431.95996</ele>
        <time>2023-06-04T14:18:50.000Z</time>
      </trkpt>
      <trkpt lat="45.80702" lon="4.62251">
        <ele>431.8299</ele>
        <time>2023-06-04T14:18:51.000Z</time>
      </trkpt>
      <trkpt lat="45.80698" lon="4.6226">
        <ele>431.65192</ele>
        <time>2023-06-04T14:18:52.000Z</time>
      </trkpt>
      <trkpt lat="45.80696" lon="4.62264">
        <ele>431.87811</ele>
        <time>2023-06-04T14:18:53.000Z</time>
      </trkpt>
      <trkpt lat="45.80694" lon="4.62269">
        <ele>432.17816</ele>
        <time>2023-06-04T14:18:54.000Z</time>
      </trkpt>
      <trkpt lat="45.80693" lon="4.62273">
        <ele>432.51016</ele>
        <time>2023-06-04T14:18:55.000Z</time>
      </trkpt>
      <trkpt lat="45.80692" lon="4.62277">
        <ele>432.84003</ele>
        <time>2023-06-04T14:18:56.000Z</time>
      </trkpt>
      <trkpt lat="45.80693" lon="4.62283">
        <ele>433.18988</ele>
        <time>2023-06-04T14:18:57.000Z</time>
      </trkpt>
      <trkpt lat="45.80693" lon="4.62287">
        <ele>433.48529</ele>
        <time>2023-06-04T14:18:58.000Z</time>
      </trkpt>
      <trkpt lat="45.80693" lon="4.62295">
        <ele>433.78427</ele>
        <time>2023-06-04T14:18:59.000Z</time>
      </trkpt>
      <trkpt lat="45.80695" lon="4.62299">
        <ele>433.73892</ele>
        <time>2023-06-04T14:19:00.000Z</time>
      </trkpt>
      <trkpt lat="45.80699" lon="4.62302">
        <ele>433.99887</ele>
        <time>2023-06-04T14:19:01.000Z</time>
      </trkpt>
      <trkpt lat="45.80701" lon="4.62304">
        <ele>433.51508</ele>
        <time>2023-06-04T14:19:02.000Z</time>
      </trkpt>
      <trkpt lat="45.80704" lon="4.62308">
        <ele>432.88037</ele>
        <time>2023-06-04T14:19:03.000Z</time>
      </trkpt>
      <trkpt lat="45.80707" lon="4.62312">
        <ele>432.77539</ele>
        <time>2023-06-04T14:19:04.000Z</time>
      </trkpt>
      <trkpt lat="45.80709" lon="4.62315">
        <ele>432.6087</ele>
        <time>2023-06-04T14:19:05.000Z</time>
      </trkpt>
      <trkpt lat="45.80711" lon="4.62318">
        <ele>432.14508</ele>
        <time>2023-06-04T14:19:06.000Z</time>
      </trkpt>
      <trkpt lat="45.80712" lon="4.62322">
        <ele>431.68887</ele>
        <time>2023-06-04T14:19:07.000Z</time>
      </trkpt>
      <trkpt lat="45.80713" lon="4.62325">
        <ele>431.35873</ele>
        <time>2023-06-04T14:19:08.000Z</time>
      </trkpt>
      <trkpt lat="45.80714" lon="4.62328">
        <ele>430.99884</ele>
        <time>2023-06-04T14:19:09.000Z</time>
      </trkpt>
      <trkpt lat="45.80715" lon="4.62332">
        <ele>431.00723</ele>
        <time>2023-06-04T14:19:10.000Z</time>
      </trkpt>
      <trkpt lat="45.80716" lon="4.62336">
        <ele>431.10651</ele>
        <time>2023-06-04T14:19:11.000Z</time>
      </trkpt>
      <trkpt lat="45.80717" lon="4.6234">
        <ele>431.15723</ele>
        <time>2023-06-04T14:19:12.000Z</time>
      </trkpt>
      <trkpt lat="45.80719" lon="4.62344">
        <ele>430.56836</ele>
        <time>2023-06-04T14:19:13.000Z</time>
      </trkpt>
      <trkpt lat="45.80721" lon="4.62347">
        <ele>429.98184</ele>
        <time>2023-06-04T14:19:14.000Z</time>
      </trkpt>
      <trkpt lat="45.80724" lon="4.6235">
        <ele>429.14191</ele>
        <time>2023-06-04T14:19:15.000Z</time>
      </trkpt>
      <trkpt lat="45.80725" lon="4.62353">
        <ele>428.77655</ele>
        <time>2023-06-04T14:19:16.000Z</time>
      </trkpt>
      <trkpt lat="45.80725" lon="4.62356">
        <ele>428.46265</ele>
        <time>2023-06-04T14:19:17.000Z</time>
      </trkpt>
      <trkpt lat="45.80725" lon="4.62361">
        <ele>427.88892</ele>
        <time>2023-06-04T14:19:18.000Z</time>
      </trkpt>
      <trkpt lat="45.80724" lon="4.62365">
        <ele>428.20645</ele>
        <time>2023-06-04T14:19:19.000Z</time>
      </trkpt>
      <trkpt lat="45.80723" lon="4.62369">
        <ele>428.60855</ele>
        <time>2023-06-04T14:19:20.000Z</time>
      </trkpt>
      <trkpt lat="45.80721" lon="4.62373">
        <ele>428.46136</ele>
        <time>2023-06-04T14:19:21.000Z</time>
      </trkpt>
      <trkpt lat="45.80719" lon="4.62377">
        <ele>429.1499</ele>
        <time>2023-06-04T14:19:22.000Z</time>
      </trkpt>
      <trkpt lat="45.80718" lon="4.6238">
        <ele>430.08487</ele>
        <time>2023-06-04T14:19:23.000Z</time>
      </trkpt>
      <trkpt lat="45.80715" lon="4.62383">
        <ele>430.42245</ele>
        <time>2023-06-04T14:19:24.000Z</time>
      </trkpt>
      <trkpt lat="45.80712" lon="4.62386">
        <ele>430.79169</ele>
        <time>2023-06-04T14:19:25.000Z</time>
      </trkpt>
      <trkpt lat="45.80709" lon="4.6239">
        <ele>431.15192</ele>
        <time>2023-06-04T14:19:26.000Z</time>
      </trkpt>
      <trkpt lat="45.80705" lon="4.62393">
        <ele>431.46906</ele>
        <time>2023-06-04T14:19:27.000Z</time>
      </trkpt>
      <trkpt lat="45.80702" lon="4.62395">
        <ele>431.72198</ele>
        <time>2023-06-04T14:19:28.000Z</time>
      </trkpt>
      <trkpt lat="45.80699" lon="4.62398">
        <ele>432.50018</ele>
        <time>2023-06-04T14:19:29.000Z</time>
      </trkpt>
      <trkpt lat="45.80696" lon="4.62401">
        <ele>433.30215</ele>
        <time>2023-06-04T14:19:30.000Z</time>
      </trkpt>
      <trkpt lat="45.80694" lon="4.62403">
        <ele>433.88666</ele>
        <time>2023-06-04T14:19:31.000Z</time>
      </trkpt>
      <trkpt lat="45.80691" lon="4.62404">
        <ele>433.79843</ele>
        <time>2023-06-04T14:19:32.000Z</time>
      </trkpt>
      <trkpt lat="45.80688" lon="4.62405">
        <ele>433.91171</ele>
        <time>2023-06-04T14:19:33.000Z</time>
      </trkpt>
      <trkpt lat="45.80685" lon="4.62407">
        <ele>433.95343</ele>
        <time>2023-06-04T14:19:34.000Z</time>
      </trkpt>
      <trkpt lat="45.80682" lon="4.62408">
        <ele>434.9881</ele>
        <time>2023-06-04T14:19:35.000Z</time>
      </trkpt>
      <trkpt lat="45.80678" lon="4.62409">
        <ele>435.91373</ele>
        <time>2023-06-04T14:19:36.000Z</time>
      </trkpt>
      <trkpt lat="45.80676" lon="4.62411">
        <ele>436.88184</ele>
        <time>2023-06-04T14:19:37.000Z</time>
      </trkpt>
      <trkpt lat="45.80673" lon="4.62413">
        <ele>438.18732</ele>
        <time>2023-06-04T14:19:38.000Z</time>
      </trkpt>
      <trkpt lat="45.8067" lon="4.62416">
        <ele>438.00333</ele>
        <time>2023-06-04T14:19:39.000Z</time>
      </trkpt>
      <trkpt lat="45.80667" lon="4.6242">
        <ele>437.9213</ele>
        <time>2023-06-04T14:19:40.000Z</time>
      </trkpt>
      <trkpt lat="45.80665" lon="4.62423">
        <ele>437.46039</ele>
        <time>2023-06-04T14:19:41.000Z</time>
      </trkpt>
      <trkpt lat="45.80663" lon="4.62426">
        <ele>437.32178</ele>
        <time>2023-06-04T14:19:42.000Z</time>
      </trkpt>
      <trkpt lat="45.80661" lon="4.62429">
        <ele>437.19843</ele>
        <time>2023-06-04T14:19:43.000Z</time>
      </trkpt>
      <trkpt lat="45.80658" lon="4.62431">
        <ele>437.22589</ele>
        <time>2023-06-04T14:19:44.000Z</time>
      </trkpt>
      <trkpt lat="45.80655" lon="4.62434">
        <ele>437.21762</ele>
        <time>2023-06-04T14:19:45.000Z</time>
      </trkpt>
      <trkpt lat="45.80653" lon="4.62437">
        <ele>437.24976</ele>
        <time>2023-06-04T14:19:46.000Z</time>
      </trkpt>
      <trkpt lat="45.80652" lon="4.62439">
        <ele>437.34503</ele>
        <time>2023-06-04T14:19:47.000Z</time>
      </trkpt>
      <trkpt lat="45.8065" lon="4.62442">
        <ele>437.54941</ele>
        <time>2023-06-04T14:19:48.000Z</time>
      </trkpt>
      <trkpt lat="45.80647" lon="4.62445">
        <ele>437.32782</ele>
        <time>2023-06-04T14:19:49.000Z</time>
      </trkpt>
      <trkpt lat="45.80643" lon="4.62446">
        <ele>437.21747</ele>
        <time>2023-06-04T14:19:50.000Z</time>
      </trkpt>
      <trkpt lat="45.8064" lon="4.62447">
        <ele>437.28912</ele>
        <time>2023-06-04T14:19:51.000Z</time>
      </trkpt>
      <trkpt lat="45.80637" lon="4.62448">
        <ele>438.1861</ele>
        <time>2023-06-04T14:19:52.000Z</time>
      </trkpt>
      <trkpt lat="45.80634" lon="4.62448">
        <ele>438.68414</ele>
        <time>2023-06-04T14:19:53.000Z</time>
      </trkpt>
      <trkpt lat="45.80631" lon="4.62449">
        <ele>440.01407</ele>
        <time>2023-06-04T14:19:54.000Z</time>
      </trkpt>
      <trkpt lat="45.80629" lon="4.62449">
        <ele>440.50879</ele>
        <time>2023-06-04T14:19:55.000Z</time>
      </trkpt>
      <trkpt lat="45.80627" lon="4.62449">
        <ele>440.64056</ele>
        <time>2023-06-04T14:19:56.000Z</time>
      </trkpt>
      <trkpt lat="45.80623" lon="4.6245">
        <ele>440.72437</ele>
        <time>2023-06-04T14:19:57.000Z</time>
      </trkpt>
      <trkpt lat="45.8062" lon="4.62451">
        <ele>440.36273</ele>
        <time>2023-06-04T14:19:58.000Z</time>
      </trkpt>
      <trkpt lat="45.80617" lon="4.62451">
        <ele>440.49503</ele>
        <time>2023-06-04T14:19:59.000Z</time>
      </trkpt>
      <trkpt lat="45.80614" lon="4.62452">
        <ele>440.46753</ele>
        <time>2023-06-04T14:20:00.000Z</time>
      </trkpt>
      <trkpt lat="45.80611" lon="4.62454">
        <ele>441.40631</ele>
        <time>2023-06-04T14:20:01.000Z</time>
      </trkpt>
      <trkpt lat="45.80608" lon="4.62456">
        <ele>441.97528</ele>
        <time>2023-06-04T14:20:02.000Z</time>
      </trkpt>
      <trkpt lat="45.80606" lon="4.62457">
        <ele>441.7941</ele>
        <time>2023-06-04T14:20:03.000Z</time>
      </trkpt>
      <trkpt lat="45.80602" lon="4.62459">
        <ele>442.08002</ele>
        <time>2023-06-04T14:20:04.000Z</time>
      </trkpt>
      <trkpt lat="45.80598" lon="4.62461">
        <ele>442.35532</ele>
        <time>2023-06-04T14:20:05.000Z</time>
      </trkpt>
      <trkpt lat="45.80594" lon="4.62463">
        <ele>442.13348</ele>
        <time>2023-06-04T14:20:06.000Z</time>
      </trkpt>
      <trkpt lat="45.8059" lon="4.62464">
        <ele>442.82333</ele>
        <time>2023-06-04T14:20:07.000Z</time>
      </trkpt>
      <trkpt lat="45.80587" lon="4.62466">
        <ele>443.45419</ele>
        <time>2023-06-04T14:20:08.000Z</time>
      </trkpt>
      <trkpt lat="45.80585" lon="4.62468">
        <ele>443.98126</ele>
        <time>2023-06-04T14:20:09.000Z</time>
      </trkpt>
      <trkpt lat="45.80584" lon="4.6247">
        <ele>444.17212</ele>
        <time>2023-06-04T14:20:10.000Z</time>
      </trkpt>
      <trkpt lat="45.80582" lon="4.62472">
        <ele>443.66348</ele>
        <time>2023-06-04T14:20:11.000Z</time>
      </trkpt>
      <trkpt lat="45.80579" lon="4.62473">
        <ele>443.07343</ele>
        <time>2023-06-04T14:20:12.000Z</time>
      </trkpt>
      <trkpt lat="45.80577" lon="4.62474">
        <ele>442.81146</ele>
        <time>2023-06-04T14:20:13.000Z</time>
      </trkpt>
      <trkpt lat="45.80575" lon="4.62475">
        <ele>442.60245</ele>
        <time>2023-06-04T14:20:14.000Z</time>
      </trkpt>
      <trkpt lat="45.80571" lon="4.62477">
        <ele>442.53973</ele>
        <time>2023-06-04T14:20:15.000Z</time>
      </trkpt>
      <trkpt lat="45.80567" lon="4.62479">
        <ele>442.51636</ele>
        <time>2023-06-04T14:20:16.000Z</time>
      </trkpt>
      <trkpt lat="45.80563" lon="4.6248">
        <ele>441.5101</ele>
        <time>2023-06-04T14:20:17.000Z</time>
      </trkpt>
      <trkpt lat="45.80559" lon="4.62481">
        <ele>441.25006</ele>
        <time>2023-06-04T14:20:18.000Z</time>
      </trkpt>
      <trkpt lat="45.80556" lon="4.62483">
        <ele>440.93857</ele>
        <time>2023-06-04T14:20:19.000Z</time>
      </trkpt>
      <trkpt lat="45.80554" lon="4.62485">
        <ele>440.59995</ele>
        <time>2023-06-04T14:20:20.000Z</time>
      </trkpt>
      <trkpt lat="45.80551" lon="4.62487">
        <ele>440.8768</ele>
        <time>2023-06-04T14:20:21.000Z</time>
      </trkpt>
      <trkpt lat="45.80548" lon="4.62489">
        <ele>441.48666</ele>
        <time>2023-06-04T14:20:22.000Z</time>
      </trkpt>
      <trkpt lat="45.80545" lon="4.62492">
        <ele>442.70245</ele>
        <time>2023-06-04T14:20:23.000Z</time>
      </trkpt>
      <trkpt lat="45.80538" lon="4.62495">
        <ele>443.2981</ele>
        <time>2023-06-04T14:20:24.000Z</time>
      </trkpt>
      <trkpt lat="45.80537" lon="4.62498">
        <ele>443.93735</ele>
        <time>2023-06-04T14:20:25.000Z</time>
      </trkpt>
      <trkpt lat="45.80535" lon="4.62505">
        <ele>444.14069</ele>
        <time>2023-06-04T14:20:26.000Z</time>
      </trkpt>
      <trkpt lat="45.80532" lon="4.62507">
        <ele>443.95441</ele>
        <time>2023-06-04T14:20:27.000Z</time>
      </trkpt>
      <trkpt lat="45.80534" lon="4.62509">
        <ele>444.24994</ele>
        <time>2023-06-04T14:20:28.000Z</time>
      </trkpt>
      <trkpt lat="45.80536" lon="4.62512">
        <ele>444.13629</ele>
        <time>2023-06-04T14:20:30.000Z</time>
      </trkpt>
      <trkpt lat="45.80541" lon="4.62514">
        <ele>444.27554</ele>
        <time>2023-06-04T14:20:31.000Z</time>
      </trkpt>
      <trkpt lat="45.80544" lon="4.62518">
        <ele>445.02701</ele>
        <time>2023-06-04T14:20:32.000Z</time>
      </trkpt>
      <trkpt lat="45.80547" lon="4.62521">
        <ele>445.53189</ele>
        <time>2023-06-04T14:20:33.000Z</time>
      </trkpt>
      <trkpt lat="45.80549" lon="4.62525">
        <ele>445.95688</ele>
        <time>2023-06-04T14:20:34.000Z</time>
      </trkpt>
      <trkpt lat="45.80551" lon="4.62528">
        <ele>445.55072</ele>
        <time>2023-06-04T14:20:35.000Z</time>
      </trkpt>
      <trkpt lat="45.80554" lon="4.62532">
        <ele>444.9808</ele>
        <time>2023-06-04T14:20:36.000Z</time>
      </trkpt>
      <trkpt lat="45.80556" lon="4.62536">
        <ele>444.39063</ele>
        <time>2023-06-04T14:20:37.000Z</time>
      </trkpt>
      <trkpt lat="45.80558" lon="4.6254">
        <ele>445.28745</ele>
        <time>2023-06-04T14:20:38.000Z</time>
      </trkpt>
      <trkpt lat="45.8056" lon="4.62544">
        <ele>445.83755</ele>
        <time>2023-06-04T14:20:39.000Z</time>
      </trkpt>
      <trkpt lat="45.80562" lon="4.62548">
        <ele>446.54834</ele>
        <time>2023-06-04T14:20:40.000Z</time>
      </trkpt>
      <trkpt lat="45.80563" lon="4.62551">
        <ele>447.36166</ele>
        <time>2023-06-04T14:20:41.000Z</time>
      </trkpt>
      <trkpt lat="45.80564" lon="4.62555">
        <ele>447.61774</ele>
        <time>2023-06-04T14:20:42.000Z</time>
      </trkpt>
      <trkpt lat="45.80566" lon="4.62558">
        <ele>447.19312</ele>
        <time>2023-06-04T14:20:43.000Z</time>
      </trkpt>
      <trkpt lat="45.80569" lon="4.62562">
        <ele>446.51337</ele>
        <time>2023-06-04T14:20:44.000Z</time>
      </trkpt>
      <trkpt lat="45.80571" lon="4.62565">
        <ele>447.47217</ele>
        <time>2023-06-04T14:20:45.000Z</time>
      </trkpt>
      <trkpt lat="45.80574" lon="4.62569">
        <ele>448.41901</ele>
        <time>2023-06-04T14:20:46.000Z</time>
      </trkpt>
      <trkpt lat="45.80576" lon="4.62572">
        <ele>450.29727</ele>
        <time>2023-06-04T14:20:47.000Z</time>
      </trkpt>
      <trkpt lat="45.80577" lon="4.62576">
        <ele>451.70502</ele>
        <time>2023-06-04T14:20:48.000Z</time>
      </trkpt>
      <trkpt lat="45.80579" lon="4.62579">
        <ele>450.68912</ele>
        <time>2023-06-04T14:20:49.000Z</time>
      </trkpt>
      <trkpt lat="45.8058" lon="4.62583">
        <ele>450.79434</ele>
        <time>2023-06-04T14:20:50.000Z</time>
      </trkpt>
      <trkpt lat="45.80581" lon="4.62587">
        <ele>450.7381</ele>
        <time>2023-06-04T14:20:51.000Z</time>
      </trkpt>
      <trkpt lat="45.80582" lon="4.62591">
        <ele>450.46783</ele>
        <time>2023-06-04T14:20:52.000Z</time>
      </trkpt>
      <trkpt lat="45.80583" lon="4.62595">
        <ele>450.10626</ele>
        <time>2023-06-04T14:20:53.000Z</time>
      </trkpt>
      <trkpt lat="45.80584" lon="4.626">
        <ele>449.86188</ele>
        <time>2023-06-04T14:20:54.000Z</time>
      </trkpt>
      <trkpt lat="45.80586" lon="4.62603">
        <ele>451.47778</ele>
        <time>2023-06-04T14:20:55.000Z</time>
      </trkpt>
      <trkpt lat="45.80588" lon="4.62607">
        <ele>453.22333</ele>
        <time>2023-06-04T14:20:56.000Z</time>
      </trkpt>
      <trkpt lat="45.8059" lon="4.6261">
        <ele>454.96719</ele>
        <time>2023-06-04T14:20:57.000Z</time>
      </trkpt>
      <trkpt lat="45.80593" lon="4.62612">
        <ele>454.93317</ele>
        <time>2023-06-04T14:20:58.000Z</time>
      </trkpt>
      <trkpt lat="45.80596" lon="4.62616">
        <ele>455.02744</ele>
        <time>2023-06-04T14:20:59.000Z</time>
      </trkpt>
      <trkpt lat="45.80597" lon="4.6262">
        <ele>455.15649</ele>
        <time>2023-06-04T14:21:00.000Z</time>
      </trkpt>
      <trkpt lat="45.80598" lon="4.62624">
        <ele>455.17911</ele>
        <time>2023-06-04T14:21:01.000Z</time>
      </trkpt>
      <trkpt lat="45.80597" lon="4.62628">
        <ele>455.13095</ele>
        <time>2023-06-04T14:21:02.000Z</time>
      </trkpt>
      <trkpt lat="45.80598" lon="4.62632">
        <ele>455.29242</ele>
        <time>2023-06-04T14:21:03.000Z</time>
      </trkpt>
      <trkpt lat="45.80599" lon="4.62636">
        <ele>455.85236</ele>
        <time>2023-06-04T14:21:04.000Z</time>
      </trkpt>
      <trkpt lat="45.80599" lon="4.6264">
        <ele>454.99716</ele>
        <time>2023-06-04T14:21:05.000Z</time>
      </trkpt>
      <trkpt lat="45.806" lon="4.62643">
        <ele>454.17227</ele>
        <time>2023-06-04T14:21:06.000Z</time>
      </trkpt>
      <trkpt lat="45.80602" lon="4.62647">
        <ele>453.23184</ele>
        <time>2023-06-04T14:21:07.000Z</time>
      </trkpt>
      <trkpt lat="45.80604" lon="4.62651">
        <ele>452.19009</ele>
        <time>2023-06-04T14:21:08.000Z</time>
      </trkpt>
      <trkpt lat="45.80605" lon="4.62655">
        <ele>453.02026</ele>
        <time>2023-06-04T14:21:09.000Z</time>
      </trkpt>
      <trkpt lat="45.80608" lon="4.62659">
        <ele>452.99921</ele>
        <time>2023-06-04T14:21:10.000Z</time>
      </trkpt>
      <trkpt lat="45.80611" lon="4.62664">
        <ele>452.96918</ele>
        <time>2023-06-04T14:21:11.000Z</time>
      </trkpt>
      <trkpt lat="45.80612" lon="4.62668">
        <ele>454.74738</ele>
        <time>2023-06-04T14:21:12.000Z</time>
      </trkpt>
      <trkpt lat="45.80614" lon="4.62672">
        <ele>456.83212</ele>
        <time>2023-06-04T14:21:14.000Z</time>
      </trkpt>
      <trkpt lat="45.80614" lon="4.62677">
        <ele>458.94522</ele>
        <time>2023-06-04T14:21:15.000Z</time>
      </trkpt>
      <trkpt lat="45.80615" lon="4.62682">
        <ele>459.16309</ele>
        <time>2023-06-04T14:21:16.000Z</time>
      </trkpt>
      <trkpt lat="45.80616" lon="4.62687">
        <ele>459.242</ele>
        <time>2023-06-04T14:21:17.000Z</time>
      </trkpt>
      <trkpt lat="45.80616" lon="4.62691">
        <ele>459.32364</ele>
        <time>2023-06-04T14:21:18.000Z</time>
      </trkpt>
      <trkpt lat="45.80616" lon="4.62694">
        <ele>460.86426</ele>
        <time>2023-06-04T14:21:19.000Z</time>
      </trkpt>
      <trkpt lat="45.80617" lon="4.62698">
        <ele>462.17969</ele>
        <time>2023-06-04T14:21:20.000Z</time>
      </trkpt>
      <trkpt lat="45.80618" lon="4.62703">
        <ele>463.46005</ele>
        <time>2023-06-04T14:21:21.000Z</time>
      </trkpt>
      <trkpt lat="45.8062" lon="4.62708">
        <ele>463.28525</ele>
        <time>2023-06-04T14:21:22.000Z</time>
      </trkpt>
      <trkpt lat="45.80623" lon="4.62712">
        <ele>463.60254</ele>
        <time>2023-06-04T14:21:23.000Z</time>
      </trkpt>
      <trkpt lat="45.80625" lon="4.62715">
        <ele>464.08969</ele>
        <time>2023-06-04T14:21:24.000Z</time>
      </trkpt>
      <trkpt lat="45.80627" lon="4.62719">
        <ele>464.53995</ele>
        <time>2023-06-04T14:21:25.000Z</time>
      </trkpt>
      <trkpt lat="45.80627" lon="4.62723">
        <ele>464.72089</ele>
        <time>2023-06-04T14:21:26.000Z</time>
      </trkpt>
      <trkpt lat="45.80627" lon="4.62727">
        <ele>464.78052</ele>
        <time>2023-06-04T14:21:27.000Z</time>
      </trkpt>
      <trkpt lat="45.80626" lon="4.6273">
        <ele>464.99982</ele>
        <time>2023-06-04T14:21:28.000Z</time>
      </trkpt>
      <trkpt lat="45.80626" lon="4.62733">
        <ele>465.13727</ele>
        <time>2023-06-04T14:21:29.000Z</time>
      </trkpt>
      <trkpt lat="45.80627" lon="4.62737">
        <ele>465.14032</ele>
        <time>2023-06-04T14:21:30.000Z</time>
      </trkpt>
      <trkpt lat="45.80627" lon="4.6274">
        <ele>466.69745</ele>
        <time>2023-06-04T14:21:31.000Z</time>
      </trkpt>
      <trkpt lat="45.80628" lon="4.62743">
        <ele>468.49609</ele>
        <time>2023-06-04T14:21:32.000Z</time>
      </trkpt>
      <trkpt lat="45.80629" lon="4.62745">
        <ele>468.63934</ele>
        <time>2023-06-04T14:21:33.000Z</time>
      </trkpt>
      <trkpt lat="45.8063" lon="4.62749">
        <ele>468.87573</ele>
        <time>2023-06-04T14:21:34.000Z</time>
      </trkpt>
      <trkpt lat="45.80629" lon="4.62752">
        <ele>469.18588</ele>
        <time>2023-06-04T14:21:35.000Z</time>
      </trkpt>
      <trkpt lat="45.80629" lon="4.62754">
        <ele>469.47418</ele>
        <time>2023-06-04T14:21:36.000Z</time>
      </trkpt>
      <trkpt lat="45.8063" lon="4.62757">
        <ele>470.48358</ele>
        <time>2023-06-04T14:21:37.000Z</time>
      </trkpt>
      <trkpt lat="45.80631" lon="4.6276">
        <ele>471.48715</ele>
        <time>2023-06-04T14:21:38.000Z</time>
      </trkpt>
      <trkpt lat="45.80632" lon="4.62763">
        <ele>472.27109</ele>
        <time>2023-06-04T14:21:39.000Z</time>
      </trkpt>
      <trkpt lat="45.80634" lon="4.62768">
        <ele>473.17828</ele>
        <time>2023-06-04T14:21:40.000Z</time>
      </trkpt>
      <trkpt lat="45.80636" lon="4.62772">
        <ele>474.11346</ele>
        <time>2023-06-04T14:21:41.000Z</time>
      </trkpt>
      <trkpt lat="45.80637" lon="4.62776">
        <ele>476.53751</ele>
        <time>2023-06-04T14:21:42.000Z</time>
      </trkpt>
      <trkpt lat="45.80638" lon="4.62779">
        <ele>478.48975</ele>
        <time>2023-06-04T14:21:43.000Z</time>
      </trkpt>
      <trkpt lat="45.80639" lon="4.62783">
        <ele>480.37793</ele>
        <time>2023-06-04T14:21:44.000Z</time>
      </trkpt>
      <trkpt lat="45.8064" lon="4.62787">
        <ele>482.24341</ele>
        <time>2023-06-04T14:21:45.000Z</time>
      </trkpt>
      <trkpt lat="45.8064" lon="4.62791">
        <ele>484.27213</ele>
        <time>2023-06-04T14:21:46.000Z</time>
      </trkpt>
      <trkpt lat="45.8064" lon="4.62795">
        <ele>486.43491</ele>
        <time>2023-06-04T14:21:47.000Z</time>
      </trkpt>
      <trkpt lat="45.80641" lon="4.62798">
        <ele>486.99689</ele>
        <time>2023-06-04T14:21:48.000Z</time>
      </trkpt>
      <trkpt lat="45.80641" lon="4.62803">
        <ele>488.14078</ele>
        <time>2023-06-04T14:21:49.000Z</time>
      </trkpt>
      <trkpt lat="45.80642" lon="4.62807">
        <ele>489.47095</ele>
        <time>2023-06-04T14:21:50.000Z</time>
      </trkpt>
      <trkpt lat="45.80644" lon="4.62811">
        <ele>489.43597</ele>
        <time>2023-06-04T14:21:51.000Z</time>
      </trkpt>
      <trkpt lat="45.80645" lon="4.62814">
        <ele>489.32944</ele>
        <time>2023-06-04T14:21:52.000Z</time>
      </trkpt>
      <trkpt lat="45.80646" lon="4.62818">
        <ele>489.34814</ele>
        <time>2023-06-04T14:21:53.000Z</time>
      </trkpt>
      <trkpt lat="45.80646" lon="4.62821">
        <ele>489.32632</ele>
        <time>2023-06-04T14:21:54.000Z</time>
      </trkpt>
      <trkpt lat="45.80647" lon="4.62825">
        <ele>489.25723</ele>
        <time>2023-06-04T14:21:55.000Z</time>
      </trkpt>
      <trkpt lat="45.80648" lon="4.62829">
        <ele>489.21198</ele>
        <time>2023-06-04T14:21:56.000Z</time>
      </trkpt>
      <trkpt lat="45.80648" lon="4.62832">
        <ele>488.57202</ele>
        <time>2023-06-04T14:21:57.000Z</time>
      </trkpt>
      <trkpt lat="45.80649" lon="4.62835">
        <ele>487.92535</ele>
        <time>2023-06-04T14:21:58.000Z</time>
      </trkpt>
      <trkpt lat="45.80649" lon="4.62839">
        <ele>487.23688</ele>
        <time>2023-06-04T14:21:59.000Z</time>
      </trkpt>
      <trkpt lat="45.8065" lon="4.62844">
        <ele>486.50836</ele>
        <time>2023-06-04T14:22:00.000Z</time>
      </trkpt>
      <trkpt lat="45.80652" lon="4.62848">
        <ele>485.78574</ele>
        <time>2023-06-04T14:22:01.000Z</time>
      </trkpt>
      <trkpt lat="45.80653" lon="4.62852">
        <ele>485.06607</ele>
        <time>2023-06-04T14:22:02.000Z</time>
      </trkpt>
      <trkpt lat="45.80654" lon="4.62857">
        <ele>484.32626</ele>
        <time>2023-06-04T14:22:03.000Z</time>
      </trkpt>
      <trkpt lat="45.80655" lon="4.6286">
        <ele>483.61401</ele>
        <time>2023-06-04T14:22:04.000Z</time>
      </trkpt>
      <trkpt lat="45.80655" lon="4.62864">
        <ele>482.87274</ele>
        <time>2023-06-04T14:22:05.000Z</time>
      </trkpt>
      <trkpt lat="45.80656" lon="4.62868">
        <ele>482.12784</ele>
        <time>2023-06-04T14:22:06.000Z</time>
      </trkpt>
      <trkpt lat="45.80656" lon="4.62872">
        <ele>481.37494</ele>
        <time>2023-06-04T14:22:07.000Z</time>
      </trkpt>
      <trkpt lat="45.80657" lon="4.62876">
        <ele>482.19464</ele>
        <time>2023-06-04T14:22:08.000Z</time>
      </trkpt>
      <trkpt lat="45.80657" lon="4.6288">
        <ele>482.521</ele>
        <time>2023-06-04T14:22:09.000Z</time>
      </trkpt>
      <trkpt lat="45.80658" lon="4.62883">
        <ele>482.80426</ele>
        <time>2023-06-04T14:22:10.000Z</time>
      </trkpt>
      <trkpt lat="45.80658" lon="4.62887">
        <ele>483.11523</ele>
        <time>2023-06-04T14:22:11.000Z</time>
      </trkpt>
      <trkpt lat="45.80658" lon="4.6289">
        <ele>483.4169</ele>
        <time>2023-06-04T14:22:12.000Z</time>
      </trkpt>
      <trkpt lat="45.80659" lon="4.62894">
        <ele>483.68253</ele>
        <time>2023-06-04T14:22:13.000Z</time>
      </trkpt>
      <trkpt lat="45.80659" lon="4.62898">
        <ele>483.93671</ele>
        <time>2023-06-04T14:22:14.000Z</time>
      </trkpt>
      <trkpt lat="45.80659" lon="4.62902">
        <ele>484.1832</ele>
        <time>2023-06-04T14:22:15.000Z</time>
      </trkpt>
      <trkpt lat="45.80659" lon="4.62906">
        <ele>484.44067</ele>
        <time>2023-06-04T14:22:16.000Z</time>
      </trkpt>
      <trkpt lat="45.8066" lon="4.6291">
        <ele>484.68536</ele>
        <time>2023-06-04T14:22:17.000Z</time>
      </trkpt>
      <trkpt lat="45.80661" lon="4.62914">
        <ele>484.93066</ele>
        <time>2023-06-04T14:22:18.000Z</time>
      </trkpt>
      <trkpt lat="45.80662" lon="4.62918">
        <ele>485.19073</ele>
        <time>2023-06-04T14:22:19.000Z</time>
      </trkpt>
      <trkpt lat="45.80663" lon="4.62922">
        <ele>485.49078</ele>
        <time>2023-06-04T14:22:20.000Z</time>
      </trkpt>
      <trkpt lat="45.80664" lon="4.62926">
        <ele>485.7662</ele>
        <time>2023-06-04T14:22:21.000Z</time>
      </trkpt>
      <trkpt lat="45.80665" lon="4.62931">
        <ele>486.05151</ele>
        <time>2023-06-04T14:22:22.000Z</time>
      </trkpt>
      <trkpt lat="45.80666" lon="4.62934">
        <ele>486.30688</ele>
        <time>2023-06-04T14:22:23.000Z</time>
      </trkpt>
      <trkpt lat="45.80666" lon="4.62938">
        <ele>486.53232</ele>
        <time>2023-06-04T14:22:24.000Z</time>
      </trkpt>
      <trkpt lat="45.80667" lon="4.62942">
        <ele>486.7728</ele>
        <time>2023-06-04T14:22:25.000Z</time>
      </trkpt>
      <trkpt lat="45.80668" lon="4.62946">
        <ele>486.98663</ele>
        <time>2023-06-04T14:22:26.000Z</time>
      </trkpt>
      <trkpt lat="45.80669" lon="4.6295">
        <ele>487.20874</ele>
        <time>2023-06-04T14:22:27.000Z</time>
      </trkpt>
      <trkpt lat="45.8067" lon="4.62954">
        <ele>487.4545</ele>
        <time>2023-06-04T14:22:28.000Z</time>
      </trkpt>
      <trkpt lat="45.8067" lon="4.62958">
        <ele>487.36639</ele>
        <time>2023-06-04T14:22:29.000Z</time>
      </trkpt>
      <trkpt lat="45.80671" lon="4.62962">
        <ele>487.30396</ele>
        <time>2023-06-04T14:22:30.000Z</time>
      </trkpt>
      <trkpt lat="45.80672" lon="4.62966">
        <ele>487.22052</ele>
        <time>2023-06-04T14:22:31.000Z</time>
      </trkpt>
      <trkpt lat="45.80673" lon="4.62969">
        <ele>487.11481</ele>
        <time>2023-06-04T14:22:32.000Z</time>
      </trkpt>
      <trkpt lat="45.80674" lon="4.62972">
        <ele>486.94693</ele>
        <time>2023-06-04T14:22:33.000Z</time>
      </trkpt>
      <trkpt lat="45.80675" lon="4.62976">
        <ele>486.76343</ele>
        <time>2023-06-04T14:22:34.000Z</time>
      </trkpt>
      <trkpt lat="45.80675" lon="4.62981">
        <ele>486.61066</ele>
        <time>2023-06-04T14:22:35.000Z</time>
      </trkpt>
      <trkpt lat="45.80676" lon="4.62985">
        <ele>486.34586</ele>
        <time>2023-06-04T14:22:36.000Z</time>
      </trkpt>
      <trkpt lat="45.80678" lon="4.6299">
        <ele>485.97784</ele>
        <time>2023-06-04T14:22:37.000Z</time>
      </trkpt>
      <trkpt lat="45.80679" lon="4.62995">
        <ele>485.64951</ele>
        <time>2023-06-04T14:22:38.000Z</time>
      </trkpt>
      <trkpt lat="45.80681" lon="4.62999">
        <ele>485.39069</ele>
        <time>2023-06-04T14:22:39.000Z</time>
      </trkpt>
      <trkpt lat="45.80683" lon="4.63003">
        <ele>485.0401</ele>
        <time>2023-06-04T14:22:40.000Z</time>
      </trkpt>
      <trkpt lat="45.80686" lon="4.63006">
        <ele>484.40405</ele>
        <time>2023-06-04T14:22:41.000Z</time>
      </trkpt>
      <trkpt lat="45.80689" lon="4.63011">
        <ele>483.81021</ele>
        <time>2023-06-04T14:22:42.000Z</time>
      </trkpt>
      <trkpt lat="45.80692" lon="4.63015">
        <ele>483.01959</ele>
        <time>2023-06-04T14:22:43.000Z</time>
      </trkpt>
      <trkpt lat="45.80695" lon="4.63018">
        <ele>482.16422</ele>
        <time>2023-06-04T14:22:44.000Z</time>
      </trkpt>
      <trkpt lat="45.80698" lon="4.6302">
        <ele>481.43561</ele>
        <time>2023-06-04T14:22:45.000Z</time>
      </trkpt>
      <trkpt lat="45.807" lon="4.63023">
        <ele>480.63559</ele>
        <time>2023-06-04T14:22:46.000Z</time>
      </trkpt>
      <trkpt lat="45.80702" lon="4.63024">
        <ele>479.93881</ele>
        <time>2023-06-04T14:22:47.000Z</time>
      </trkpt>
      <trkpt lat="45.80704" lon="4.63026">
        <ele>479.59091</ele>
        <time>2023-06-04T14:22:48.000Z</time>
      </trkpt>
      <trkpt lat="45.80706" lon="4.63028">
        <ele>478.62018</ele>
        <time>2023-06-04T14:22:49.000Z</time>
      </trkpt>
      <trkpt lat="45.80709" lon="4.6303">
        <ele>478.26019</ele>
        <time>2023-06-04T14:22:50.000Z</time>
      </trkpt>
      <trkpt lat="45.80712" lon="4.63032">
        <ele>477.79254</ele>
        <time>2023-06-04T14:22:51.000Z</time>
      </trkpt>
      <trkpt lat="45.80715" lon="4.63032">
        <ele>477.04254</ele>
        <time>2023-06-04T14:22:52.000Z</time>
      </trkpt>
      <trkpt lat="45.80717" lon="4.63034">
        <ele>476.67099</ele>
        <time>2023-06-04T14:22:54.000Z</time>
      </trkpt>
      <trkpt lat="45.8072" lon="4.63035">
        <ele>476.41254</ele>
        <time>2023-06-04T14:22:55.000Z</time>
      </trkpt>
      <trkpt lat="45.80722" lon="4.63036">
        <ele>476.15088</ele>
        <time>2023-06-04T14:22:56.000Z</time>
      </trkpt>
      <trkpt lat="45.80725" lon="4.63037">
        <ele>476.00836</ele>
        <time>2023-06-04T14:22:57.000Z</time>
      </trkpt>
      <trkpt lat="45.80728" lon="4.63038">
        <ele>475.75372</ele>
        <time>2023-06-04T14:22:58.000Z</time>
      </trkpt>
      <trkpt lat="45.80732" lon="4.63038">
        <ele>475.33212</ele>
        <time>2023-06-04T14:22:59.000Z</time>
      </trkpt>
      <trkpt lat="45.80736" lon="4.63039">
        <ele>475.80414</ele>
        <time>2023-06-04T14:23:00.000Z</time>
      </trkpt>
      <trkpt lat="45.8074" lon="4.6304">
        <ele>476.53949</ele>
        <time>2023-06-04T14:23:01.000Z</time>
      </trkpt>
      <trkpt lat="45.80744" lon="4.6304">
        <ele>477.55371</ele>
        <time>2023-06-04T14:23:02.000Z</time>
      </trkpt>
      <trkpt lat="45.80751" lon="4.63039">
        <ele>478.33847</ele>
        <time>2023-06-04T14:23:03.000Z</time>
      </trkpt>
      <trkpt lat="45.80753" lon="4.63042">
        <ele>479.34967</ele>
        <time>2023-06-04T14:23:04.000Z</time>
      </trkpt>
      <trkpt lat="45.80758" lon="4.63043">
        <ele>480.45343</ele>
        <time>2023-06-04T14:23:05.000Z</time>
      </trkpt>
      <trkpt lat="45.8076" lon="4.63046">
        <ele>481.36334</ele>
        <time>2023-06-04T14:23:06.000Z</time>
      </trkpt>
      <trkpt lat="45.80762" lon="4.63047">
        <ele>482.32953</ele>
        <time>2023-06-04T14:23:07.000Z</time>
      </trkpt>
      <trkpt lat="45.80765" lon="4.63047">
        <ele>483.19171</ele>
        <time>2023-06-04T14:23:08.000Z</time>
      </trkpt>
      <trkpt lat="45.80767" lon="4.63048">
        <ele>483.1922</ele>
        <time>2023-06-04T14:23:09.000Z</time>
      </trkpt>
      <trkpt lat="45.8077" lon="4.63049">
        <ele>484.05194</ele>
        <time>2023-06-04T14:23:10.000Z</time>
      </trkpt>
      <trkpt lat="45.80773" lon="4.63052">
        <ele>484.44403</ele>
        <time>2023-06-04T14:23:11.000Z</time>
      </trkpt>
      <trkpt lat="45.80776" lon="4.63053">
        <ele>484.78555</ele>
        <time>2023-06-04T14:23:12.000Z</time>
      </trkpt>
      <trkpt lat="45.80779" lon="4.63058">
        <ele>485.24521</ele>
        <time>2023-06-04T14:23:13.000Z</time>
      </trkpt>
      <trkpt lat="45.80783" lon="4.63059">
        <ele>485.57928</ele>
        <time>2023-06-04T14:23:14.000Z</time>
      </trkpt>
      <trkpt lat="45.80787" lon="4.63061">
        <ele>485.60382</ele>
        <time>2023-06-04T14:23:15.000Z</time>
      </trkpt>
      <trkpt lat="45.8079" lon="4.63063">
        <ele>485.60977</ele>
        <time>2023-06-04T14:23:16.000Z</time>
      </trkpt>
      <trkpt lat="45.80793" lon="4.63063">
        <ele>485.58618</ele>
        <time>2023-06-04T14:23:17.000Z</time>
      </trkpt>
      <trkpt lat="45.80796" lon="4.63064">
        <ele>485.91779</ele>
        <time>2023-06-04T14:23:18.000Z</time>
      </trkpt>
      <trkpt lat="45.80799" lon="4.63064">
        <ele>486.57217</ele>
        <time>2023-06-04T14:23:19.000Z</time>
      </trkpt>
      <trkpt lat="45.80802" lon="4.63065">
        <ele>486.3064</ele>
        <time>2023-06-04T14:23:20.000Z</time>
      </trkpt>
      <trkpt lat="45.80805" lon="4.63065">
        <ele>485.74887</ele>
        <time>2023-06-04T14:23:21.000Z</time>
      </trkpt>
      <trkpt lat="45.80808" lon="4.63066">
        <ele>484.95184</ele>
        <time>2023-06-04T14:23:22.000Z</time>
      </trkpt>
      <trkpt lat="45.80811" lon="4.63068">
        <ele>484.04071</ele>
        <time>2023-06-04T14:23:24.000Z</time>
      </trkpt>
      <trkpt lat="45.80814" lon="4.6307">
        <ele>483.28751</ele>
        <time>2023-06-04T14:23:25.000Z</time>
      </trkpt>
      <trkpt lat="45.80816" lon="4.63072">
        <ele>482.38947</ele>
        <time>2023-06-04T14:23:26.000Z</time>
      </trkpt>
      <trkpt lat="45.80819" lon="4.63074">
        <ele>481.54208</ele>
        <time>2023-06-04T14:23:27.000Z</time>
      </trkpt>
      <trkpt lat="45.80822" lon="4.63076">
        <ele>480.71622</ele>
        <time>2023-06-04T14:23:28.000Z</time>
      </trkpt>
      <trkpt lat="45.80824" lon="4.63077">
        <ele>480.05453</ele>
        <time>2023-06-04T14:23:29.000Z</time>
      </trkpt>
      <trkpt lat="45.80826" lon="4.63079">
        <ele>480.64056</ele>
        <time>2023-06-04T14:23:30.000Z</time>
      </trkpt>
      <trkpt lat="45.80829" lon="4.63081">
        <ele>480.93863</ele>
        <time>2023-06-04T14:23:31.000Z</time>
      </trkpt>
      <trkpt lat="45.80832" lon="4.63082">
        <ele>481.112</ele>
        <time>2023-06-04T14:23:32.000Z</time>
      </trkpt>
      <trkpt lat="45.80835" lon="4.63084">
        <ele>481.47607</ele>
        <time>2023-06-04T14:23:33.000Z</time>
      </trkpt>
      <trkpt lat="45.80838" lon="4.63085">
        <ele>481.90698</ele>
        <time>2023-06-04T14:23:34.000Z</time>
      </trkpt>
      <trkpt lat="45.8084" lon="4.63086">
        <ele>482.00775</ele>
        <time>2023-06-04T14:23:35.000Z</time>
      </trkpt>
      <trkpt lat="45.80843" lon="4.63087">
        <ele>482.52612</ele>
        <time>2023-06-04T14:23:36.000Z</time>
      </trkpt>
      <trkpt lat="45.80846" lon="4.63088">
        <ele>482.94965</ele>
        <time>2023-06-04T14:23:37.000Z</time>
      </trkpt>
      <trkpt lat="45.80848" lon="4.6309">
        <ele>483.22626</ele>
        <time>2023-06-04T14:23:38.000Z</time>
      </trkpt>
      <trkpt lat="45.8085" lon="4.63092">
        <ele>483.45581</ele>
        <time>2023-06-04T14:23:39.000Z</time>
      </trkpt>
      <trkpt lat="45.80852" lon="4.63095">
        <ele>483.48471</ele>
        <time>2023-06-04T14:23:40.000Z</time>
      </trkpt>
      <trkpt lat="45.80854" lon="4.63097">
        <ele>483.1832</ele>
        <time>2023-06-04T14:23:41.000Z</time>
      </trkpt>
      <trkpt lat="45.80858" lon="4.631">
        <ele>483.84247</ele>
        <time>2023-06-04T14:23:42.000Z</time>
      </trkpt>
      <trkpt lat="45.80861" lon="4.63101">
        <ele>484.04907</ele>
        <time>2023-06-04T14:23:43.000Z</time>
      </trkpt>
      <trkpt lat="45.80864" lon="4.63103">
        <ele>484.54401</ele>
        <time>2023-06-04T14:23:44.000Z</time>
      </trkpt>
      <trkpt lat="45.80867" lon="4.63105">
        <ele>484.89886</ele>
        <time>2023-06-04T14:23:45.000Z</time>
      </trkpt>
      <trkpt lat="45.80869" lon="4.63106">
        <ele>485.37329</ele>
        <time>2023-06-04T14:23:46.000Z</time>
      </trkpt>
      <trkpt lat="45.80871" lon="4.63108">
        <ele>485.86139</ele>
        <time>2023-06-04T14:23:47.000Z</time>
      </trkpt>
      <trkpt lat="45.80874" lon="4.63109">
        <ele>488.91992</ele>
        <time>2023-06-04T14:23:48.000Z</time>
      </trkpt>
      <trkpt lat="45.80877" lon="4.63109">
        <ele>489.41797</ele>
        <time>2023-06-04T14:23:49.000Z</time>
      </trkpt>
      <trkpt lat="45.8088" lon="4.63108">
        <ele>489.1539</ele>
        <time>2023-06-04T14:23:50.000Z</time>
      </trkpt>
      <trkpt lat="45.80883" lon="4.63107">
        <ele>489.23575</ele>
        <time>2023-06-04T14:23:51.000Z</time>
      </trkpt>
      <trkpt lat="45.80886" lon="4.63104">
        <ele>489.26874</ele>
        <time>2023-06-04T14:23:52.000Z</time>
      </trkpt>
      <trkpt lat="45.80888" lon="4.63099">
        <ele>489.27179</ele>
        <time>2023-06-04T14:23:53.000Z</time>
      </trkpt>
      <trkpt lat="45.80891" lon="4.63093">
        <ele>491.50537</ele>
        <time>2023-06-04T14:23:54.000Z</time>
      </trkpt>
      <trkpt lat="45.80892" lon="4.63087">
        <ele>491.86182</ele>
        <time>2023-06-04T14:23:55.000Z</time>
      </trkpt>
      <trkpt lat="45.80894" lon="4.63081">
        <ele>492.0246</ele>
        <time>2023-06-04T14:23:56.000Z</time>
      </trkpt>
      <trkpt lat="45.80895" lon="4.63076">
        <ele>492.30191</ele>
        <time>2023-06-04T14:23:57.000Z</time>
      </trkpt>
      <trkpt lat="45.80896" lon="4.63072">
        <ele>492.73846</ele>
        <time>2023-06-04T14:23:58.000Z</time>
      </trkpt>
      <trkpt lat="45.80897" lon="4.63068">
        <ele>493.08148</ele>
        <time>2023-06-04T14:23:59.000Z</time>
      </trkpt>
      <trkpt lat="45.80898" lon="4.63065">
        <ele>495.63165</ele>
        <time>2023-06-04T14:24:00.000Z</time>
      </trkpt>
      <trkpt lat="45.80898" lon="4.6306">
        <ele>496.39517</ele>
        <time>2023-06-04T14:24:02.000Z</time>
      </trkpt>
      <trkpt lat="45.80898" lon="4.63056">
        <ele>496.3349</ele>
        <time>2023-06-04T14:24:04.000Z</time>
      </trkpt>
      <trkpt lat="45.809" lon="4.63055">
        <ele>496.95953</ele>
        <time>2023-06-04T14:24:05.000Z</time>
      </trkpt>
      <trkpt lat="45.80903" lon="4.63055">
        <ele>499.70209</ele>
        <time>2023-06-04T14:24:06.000Z</time>
      </trkpt>
      <trkpt lat="45.80905" lon="4.63056">
        <ele>500.46002</ele>
        <time>2023-06-04T14:24:07.000Z</time>
      </trkpt>
      <trkpt lat="45.80907" lon="4.63056">
        <ele>501.2381</ele>
        <time>2023-06-04T14:24:08.000Z</time>
      </trkpt>
      <trkpt lat="45.8091" lon="4.63056">
        <ele>502.03134</ele>
        <time>2023-06-04T14:24:09.000Z</time>
      </trkpt>
      <trkpt lat="45.80912" lon="4.63055">
        <ele>500.29437</ele>
        <time>2023-06-04T14:24:10.000Z</time>
      </trkpt>
      <trkpt lat="45.80915" lon="4.63055">
        <ele>500.8631</ele>
        <time>2023-06-04T14:24:11.000Z</time>
      </trkpt>
      <trkpt lat="45.80918" lon="4.63054">
        <ele>503.31577</ele>
        <time>2023-06-04T14:24:13.000Z</time>
      </trkpt>
      <trkpt lat="45.8092" lon="4.63051">
        <ele>504.02383</ele>
        <time>2023-06-04T14:24:15.000Z</time>
      </trkpt>
      <trkpt lat="45.80922" lon="4.6305">
        <ele>504.76324</ele>
        <time>2023-06-04T14:24:16.000Z</time>
      </trkpt>
      <trkpt lat="45.80923" lon="4.63049">
        <ele>505.53799</ele>
        <time>2023-06-04T14:24:17.000Z</time>
      </trkpt>
      <trkpt lat="45.80924" lon="4.63044">
        <ele>506.33887</ele>
        <time>2023-06-04T14:24:19.000Z</time>
      </trkpt>
      <trkpt lat="45.80923" lon="4.63041">
        <ele>507.65601</ele>
        <time>2023-06-04T14:24:20.000Z</time>
      </trkpt>
      <trkpt lat="45.80923" lon="4.63038">
        <ele>508.88998</ele>
        <time>2023-06-04T14:24:21.000Z</time>
      </trkpt>
      <trkpt lat="45.80921" lon="4.63035">
        <ele>510.59106</ele>
        <time>2023-06-04T14:24:22.000Z</time>
      </trkpt>
      <trkpt lat="45.8092" lon="4.63032">
        <ele>512.37012</ele>
        <time>2023-06-04T14:24:23.000Z</time>
      </trkpt>
      <trkpt lat="45.80918" lon="4.63029">
        <ele>514.10822</ele>
        <time>2023-06-04T14:24:24.000Z</time>
      </trkpt>
      <trkpt lat="45.80916" lon="4.63028">
        <ele>513.6441</ele>
        <time>2023-06-04T14:24:25.000Z</time>
      </trkpt>
      <trkpt lat="45.80913" lon="4.63026">
        <ele>515.19781</ele>
        <time>2023-06-04T14:24:26.000Z</time>
      </trkpt>
      <trkpt lat="45.80911" lon="4.63026">
        <ele>516.66406</ele>
        <time>2023-06-04T14:24:27.000Z</time>
      </trkpt>
      <trkpt lat="45.80909" lon="4.63027">
        <ele>517.85883</ele>
        <time>2023-06-04T14:24:28.000Z</time>
      </trkpt>
      <trkpt lat="45.80907" lon="4.63029">
        <ele>516.99542</ele>
        <time>2023-06-04T14:24:29.000Z</time>
      </trkpt>
      <trkpt lat="45.80905" lon="4.63032">
        <ele>518.11536</ele>
        <time>2023-06-04T14:24:30.000Z</time>
      </trkpt>
      <trkpt lat="45.80902" lon="4.63034">
        <ele>519.23907</ele>
        <time>2023-06-04T14:24:31.000Z</time>
      </trkpt>
      <trkpt lat="45.80899" lon="4.63037">
        <ele>520.44861</ele>
        <time>2023-06-04T14:24:32.000Z</time>
      </trkpt>
      <trkpt lat="45.80898" lon="4.63041">
        <ele>521.63116</ele>
        <time>2023-06-04T14:24:33.000Z</time>
      </trkpt>
      <trkpt lat="45.80897" lon="4.63044">
        <ele>522.9137</ele>
        <time>2023-06-04T14:24:34.000Z</time>
      </trkpt>
      <trkpt lat="45.80896" lon="4.63047">
        <ele>522.35242</ele>
        <time>2023-06-04T14:24:35.000Z</time>
      </trkpt>
      <trkpt lat="45.80895" lon="4.63051">
        <ele>523.53699</ele>
        <time>2023-06-04T14:24:36.000Z</time>
      </trkpt>
      <trkpt lat="45.80893" lon="4.63055">
        <ele>525.26355</ele>
        <time>2023-06-04T14:24:37.000Z</time>
      </trkpt>
      <trkpt lat="45.80892" lon="4.63058">
        <ele>526.86749</ele>
        <time>2023-06-04T14:24:38.000Z</time>
      </trkpt>
      <trkpt lat="45.80892" lon="4.63061">
        <ele>526.30145</ele>
        <time>2023-06-04T14:24:39.000Z</time>
      </trkpt>
      <trkpt lat="45.80892" lon="4.63064">
        <ele>527.23132</ele>
        <time>2023-06-04T14:24:40.000Z</time>
      </trkpt>
      <trkpt lat="45.80895" lon="4.63069">
        <ele>528.17377</ele>
        <time>2023-06-04T14:24:42.000Z</time>
      </trkpt>
      <trkpt lat="45.80897" lon="4.6307">
        <ele>528.60431</ele>
        <time>2023-06-04T14:24:43.000Z</time>
      </trkpt>
      <trkpt lat="45.80896" lon="4.63067">
        <ele>528.98871</ele>
        <time>2023-06-04T14:24:45.000Z</time>
      </trkpt>
      <trkpt lat="45.80895" lon="4.63062">
        <ele>529.31812</ele>
        <time>2023-06-04T14:24:46.000Z</time>
      </trkpt>
      <trkpt lat="45.80894" lon="4.6306">
        <ele>529.63623</ele>
        <time>2023-06-04T14:24:47.000Z</time>
      </trkpt>
      <trkpt lat="45.80893" lon="4.63057">
        <ele>530.03601</ele>
        <time>2023-06-04T14:24:48.000Z</time>
      </trkpt>
      <trkpt lat="45.80892" lon="4.63055">
        <ele>530.5719</ele>
        <time>2023-06-04T14:24:50.000Z</time>
      </trkpt>
      <trkpt lat="45.80896" lon="4.63054">
        <ele>531.68176</ele>
        <time>2023-06-04T14:24:54.000Z</time>
      </trkpt>
      <trkpt lat="45.80898" lon="4.63055">
        <ele>532.73578</ele>
        <time>2023-06-04T14:24:55.000Z</time>
      </trkpt>
      <trkpt lat="45.809" lon="4.63057">
        <ele>533.71143</ele>
        <time>2023-06-04T14:24:56.000Z</time>
      </trkpt>
      <trkpt lat="45.80902" lon="4.6306">
        <ele>534.59772</ele>
        <time>2023-06-04T14:24:58.000Z</time>
      </trkpt>
      <trkpt lat="45.80904" lon="4.63062">
        <ele>535.21301</ele>
        <time>2023-06-04T14:25:00.000Z</time>
      </trkpt>
      <trkpt lat="45.80903" lon="4.63064">
        <ele>535.81848</ele>
        <time>2023-06-04T14:25:04.000Z</time>
      </trkpt>
      <trkpt lat="45.80903" lon="4.63067">
        <ele>536.44965</ele>
        <time>2023-06-04T14:25:08.000Z</time>
      </trkpt>
      <trkpt lat="45.80901" lon="4.63069">
        <ele>537.01306</ele>
        <time>2023-06-04T14:25:10.000Z</time>
      </trkpt>
      <trkpt lat="45.809" lon="4.63067">
        <ele>537.68121</ele>
        <time>2023-06-04T14:25:13.000Z</time>
      </trkpt>
      <trkpt lat="45.80899" lon="4.63064">
        <ele>537.8197</ele>
        <time>2023-06-04T14:25:18.000Z</time>
      </trkpt>
      <trkpt lat="45.80901" lon="4.63063">
        <ele>538.22375</ele>
        <time>2023-06-04T14:25:25.000Z</time>
      </trkpt>
      <trkpt lat="45.80902" lon="4.63066">
        <ele>538.50085</ele>
        <time>2023-06-04T14:25:31.000Z</time>
      </trkpt>
      <trkpt lat="45.80903" lon="4.63064">
        <ele>538.64691</ele>
        <time>2023-06-04T14:25:33.000Z</time>
      </trkpt>
      <trkpt lat="45.80905" lon="4.63066">
        <ele>538.81763</ele>
        <time>2023-06-04T14:25:35.000Z</time>
      </trkpt>
      <trkpt lat="45.80904" lon="4.63069">
        <ele>539.12238</ele>
        <time>2023-06-04T14:25:36.000Z</time>
      </trkpt>
      <trkpt lat="45.80902" lon="4.6307">
        <ele>539.3717</ele>
        <time>2023-06-04T14:25:37.000Z</time>
      </trkpt>
      <trkpt lat="45.809" lon="4.6307">
        <ele>539.63757</ele>
        <time>2023-06-04T14:25:38.000Z</time>
      </trkpt>
      <trkpt lat="45.80898" lon="4.63067">
        <ele>539.9234</ele>
        <time>2023-06-04T14:25:41.000Z</time>
      </trkpt>
      <trkpt lat="45.809" lon="4.63064">
        <ele>540.27368</ele>
        <time>2023-06-04T14:25:45.000Z</time>
      </trkpt>
      <trkpt lat="45.80899" lon="4.63062">
        <ele>540.61273</ele>
        <time>2023-06-04T14:25:49.000Z</time>
      </trkpt>
      <trkpt lat="45.80897" lon="4.6306">
        <ele>540.68292</ele>
        <time>2023-06-04T14:25:50.000Z</time>
      </trkpt>
      <trkpt lat="45.80895" lon="4.63059">
        <ele>540.81299</ele>
        <time>2023-06-04T14:25:52.000Z</time>
      </trkpt>
      <trkpt lat="45.80893" lon="4.63062">
        <ele>540.98132</ele>
        <time>2023-06-04T14:25:53.000Z</time>
      </trkpt>
      <trkpt lat="45.80891" lon="4.63066">
        <ele>541.22327</ele>
        <time>2023-06-04T14:25:54.000Z</time>
      </trkpt>
      <trkpt lat="45.8089" lon="4.6307">
        <ele>541.5639</ele>
        <time>2023-06-04T14:25:55.000Z</time>
      </trkpt>
      <trkpt lat="45.80889" lon="4.63073">
        <ele>541.92328</ele>
        <time>2023-06-04T14:25:56.000Z</time>
      </trkpt>
      <trkpt lat="45.8089" lon="4.6307">
        <ele>542.22845</ele>
        <time>2023-06-04T14:26:02.000Z</time>
      </trkpt>
      <trkpt lat="45.80893" lon="4.63069">
        <ele>542.58044</ele>
        <time>2023-06-04T14:26:04.000Z</time>
      </trkpt>
      <trkpt lat="45.80895" lon="4.6307">
        <ele>542.80945</ele>
        <time>2023-06-04T14:26:09.000Z</time>
      </trkpt>
      <trkpt lat="45.80895" lon="4.63073">
        <ele>543.06244</ele>
        <time>2023-06-04T14:26:11.000Z</time>
      </trkpt>
      <trkpt lat="45.80896" lon="4.63076">
        <ele>543.12207</ele>
        <time>2023-06-04T14:26:12.000Z</time>
      </trkpt>
      <trkpt lat="45.80896" lon="4.63079">
        <ele>543.30621</ele>
        <time>2023-06-04T14:26:13.000Z</time>
      </trkpt>
      <trkpt lat="45.80895" lon="4.63083">
        <ele>543.67114</ele>
        <time>2023-06-04T14:26:14.000Z</time>
      </trkpt>
      <trkpt lat="45.80894" lon="4.63086">
        <ele>544.08289</ele>
        <time>2023-06-04T14:26:15.000Z</time>
      </trkpt>
      <trkpt lat="45.80894" lon="4.63089">
        <ele>544.4743</ele>
        <time>2023-06-04T14:26:16.000Z</time>
      </trkpt>
      <trkpt lat="45.80891" lon="4.63092">
        <ele>544.83783</ele>
        <time>2023-06-04T14:26:17.000Z</time>
      </trkpt>
      <trkpt lat="45.80889" lon="4.63097">
        <ele>545.22546</ele>
        <time>2023-06-04T14:26:18.000Z</time>
      </trkpt>
      <trkpt lat="45.80886" lon="4.63101">
        <ele>545.5802</ele>
        <time>2023-06-04T14:26:19.000Z</time>
      </trkpt>
      <trkpt lat="45.80883" lon="4.63104">
        <ele>545.80707</ele>
        <time>2023-06-04T14:26:20.000Z</time>
      </trkpt>
      <trkpt lat="45.80881" lon="4.63109">
        <ele>545.93213</ele>
        <time>2023-06-04T14:26:21.000Z</time>
      </trkpt>
      <trkpt lat="45.80878" lon="4.63112">
        <ele>546.00793</ele>
        <time>2023-06-04T14:26:22.000Z</time>
      </trkpt>
      <trkpt lat="45.80876" lon="4.63116">
        <ele>545.97607</ele>
        <time>2023-06-04T14:26:23.000Z</time>
      </trkpt>
      <trkpt lat="45.80874" lon="4.63118">
        <ele>545.9679</ele>
        <time>2023-06-04T14:26:24.000Z</time>
      </trkpt>
      <trkpt lat="45.80873" lon="4.63123">
        <ele>545.99127</ele>
        <time>2023-06-04T14:26:26.000Z</time>
      </trkpt>
      <trkpt lat="45.80872" lon="4.63127">
        <ele>546.06342</ele>
        <time>2023-06-04T14:26:27.000Z</time>
      </trkpt>
      <trkpt lat="45.80871" lon="4.63131">
        <ele>546.11774</ele>
        <time>2023-06-04T14:26:28.000Z</time>
      </trkpt>
      <trkpt lat="45.80871" lon="4.63134">
        <ele>546.19006</ele>
        <time>2023-06-04T14:26:29.000Z</time>
      </trkpt>
      <trkpt lat="45.80872" lon="4.63137">
        <ele>543.08594</ele>
        <time>2023-06-04T14:26:30.000Z</time>
      </trkpt>
      <trkpt lat="45.80875" lon="4.63141">
        <ele>542.99274</ele>
        <time>2023-06-04T14:26:31.000Z</time>
      </trkpt>
      <trkpt lat="45.80879" lon="4.63145">
        <ele>542.82312</ele>
        <time>2023-06-04T14:26:32.000Z</time>
      </trkpt>
      <trkpt lat="45.80883" lon="4.63148">
        <ele>542.65857</ele>
        <time>2023-06-04T14:26:33.000Z</time>
      </trkpt>
      <trkpt lat="45.80885" lon="4.63151">
        <ele>542.50842</ele>
        <time>2023-06-04T14:26:34.000Z</time>
      </trkpt>
      <trkpt lat="45.80887" lon="4.63154">
        <ele>542.30054</ele>
        <time>2023-06-04T14:26:35.000Z</time>
      </trkpt>
      <trkpt lat="45.80889" lon="4.63157">
        <ele>539.75012</ele>
        <time>2023-06-04T14:26:36.000Z</time>
      </trkpt>
      <trkpt lat="45.80892" lon="4.63161">
        <ele>539.30865</ele>
        <time>2023-06-04T14:26:37.000Z</time>
      </trkpt>
      <trkpt lat="45.80894" lon="4.63164">
        <ele>539.01801</ele>
        <time>2023-06-04T14:26:38.000Z</time>
      </trkpt>
      <trkpt lat="45.80897" lon="4.63165">
        <ele>538.75293</ele>
        <time>2023-06-04T14:26:39.000Z</time>
      </trkpt>
      <trkpt lat="45.809" lon="4.63166">
        <ele>538.539</ele>
        <time>2023-06-04T14:26:40.000Z</time>
      </trkpt>
      <trkpt lat="45.80902" lon="4.63167">
        <ele>538.38147</ele>
        <time>2023-06-04T14:26:41.000Z</time>
      </trkpt>
      <trkpt lat="45.80903" lon="4.63169">
        <ele>538.29816</ele>
        <time>2023-06-04T14:26:42.000Z</time>
      </trkpt>
      <trkpt lat="45.80906" lon="4.63172">
        <ele>538.25116</ele>
        <time>2023-06-04T14:26:44.000Z</time>
      </trkpt>
      <trkpt lat="45.80907" lon="4.63175">
        <ele>538.23059</ele>
        <time>2023-06-04T14:26:45.000Z</time>
      </trkpt>
      <trkpt lat="45.80909" lon="4.6318">
        <ele>538.1712</ele>
        <time>2023-06-04T14:26:47.000Z</time>
      </trkpt>
      <trkpt lat="45.80911" lon="4.63185">
        <ele>538.02649</ele>
        <time>2023-06-04T14:26:48.000Z</time>
      </trkpt>
      <trkpt lat="45.80914" lon="4.6319">
        <ele>537.85278</ele>
        <time>2023-06-04T14:26:49.000Z</time>
      </trkpt>
      <trkpt lat="45.80917" lon="4.63194">
        <ele>537.70862</ele>
        <time>2023-06-04T14:26:50.000Z</time>
      </trkpt>
      <trkpt lat="45.80919" lon="4.63198">
        <ele>537.56921</ele>
        <time>2023-06-04T14:26:51.000Z</time>
      </trkpt>
      <trkpt lat="45.80922" lon="4.63202">
        <ele>540.59949</ele>
        <time>2023-06-04T14:26:52.000Z</time>
      </trkpt>
      <trkpt lat="45.80923" lon="4.63204">
        <ele>540.6532</ele>
        <time>2023-06-04T14:26:53.000Z</time>
      </trkpt>
      <trkpt lat="45.80926" lon="4.63208">
        <ele>540.72144</ele>
        <time>2023-06-04T14:26:55.000Z</time>
      </trkpt>
      <trkpt lat="45.80927" lon="4.63211">
        <ele>540.85809</ele>
        <time>2023-06-04T14:26:56.000Z</time>
      </trkpt>
      <trkpt lat="45.80928" lon="4.63215">
        <ele>541.01465</ele>
        <time>2023-06-04T14:26:57.000Z</time>
      </trkpt>
      <trkpt lat="45.80929" lon="4.63218">
        <ele>541.19153</ele>
        <time>2023-06-04T14:26:58.000Z</time>
      </trkpt>
      <trkpt lat="45.80931" lon="4.63221">
        <ele>543.71631</ele>
        <time>2023-06-04T14:26:59.000Z</time>
      </trkpt>
      <trkpt lat="45.80933" lon="4.63224">
        <ele>544.03345</ele>
        <time>2023-06-04T14:27:00.000Z</time>
      </trkpt>
      <trkpt lat="45.80935" lon="4.63226">
        <ele>544.26672</ele>
        <time>2023-06-04T14:27:01.000Z</time>
      </trkpt>
      <trkpt lat="45.80937" lon="4.63228">
        <ele>544.48041</ele>
        <time>2023-06-04T14:27:02.000Z</time>
      </trkpt>
      <trkpt lat="45.8094" lon="4.6323">
        <ele>544.63135</ele>
        <time>2023-06-04T14:27:03.000Z</time>
      </trkpt>
      <trkpt lat="45.80942" lon="4.63233">
        <ele>544.69525</ele>
        <time>2023-06-04T14:27:04.000Z</time>
      </trkpt>
      <trkpt lat="45.80945" lon="4.63235">
        <ele>544.73175</ele>
        <time>2023-06-04T14:27:05.000Z</time>
      </trkpt>
      <trkpt lat="45.80948" lon="4.63238">
        <ele>544.77332</ele>
        <time>2023-06-04T14:27:06.000Z</time>
      </trkpt>
      <trkpt lat="45.80951" lon="4.63242">
        <ele>544.80255</ele>
        <time>2023-06-04T14:27:07.000Z</time>
      </trkpt>
      <trkpt lat="45.80953" lon="4.63245">
        <ele>544.83862</ele>
        <time>2023-06-04T14:27:08.000Z</time>
      </trkpt>
      <trkpt lat="45.80955" lon="4.63248">
        <ele>544.94196</ele>
        <time>2023-06-04T14:27:09.000Z</time>
      </trkpt>
      <trkpt lat="45.80957" lon="4.63253">
        <ele>545.04138</ele>
        <time>2023-06-04T14:27:10.000Z</time>
      </trkpt>
      <trkpt lat="45.8096" lon="4.63257">
        <ele>545.05096</ele>
        <time>2023-06-04T14:27:11.000Z</time>
      </trkpt>
      <trkpt lat="45.80962" lon="4.63262">
        <ele>545.03223</ele>
        <time>2023-06-04T14:27:12.000Z</time>
      </trkpt>
      <trkpt lat="45.80963" lon="4.63267">
        <ele>544.95917</ele>
        <time>2023-06-04T14:27:13.000Z</time>
      </trkpt>
      <trkpt lat="45.80965" lon="4.63271">
        <ele>544.8783</ele>
        <time>2023-06-04T14:27:14.000Z</time>
      </trkpt>
      <trkpt lat="45.80966" lon="4.63274">
        <ele>544.82336</ele>
        <time>2023-06-04T14:27:15.000Z</time>
      </trkpt>
      <trkpt lat="45.80968" lon="4.63278">
        <ele>544.7464</ele>
        <time>2023-06-04T14:27:16.000Z</time>
      </trkpt>
      <trkpt lat="45.80971" lon="4.63282">
        <ele>544.64636</ele>
        <time>2023-06-04T14:27:17.000Z</time>
      </trkpt>
      <trkpt lat="45.80973" lon="4.63285">
        <ele>544.49805</ele>
        <time>2023-06-04T14:27:18.000Z</time>
      </trkpt>
      <trkpt lat="45.80975" lon="4.63286">
        <ele>544.31195</ele>
        <time>2023-06-04T14:27:19.000Z</time>
      </trkpt>
      <trkpt lat="45.80977" lon="4.63289">
        <ele>544.19574</ele>
        <time>2023-06-04T14:27:20.000Z</time>
      </trkpt>
      <trkpt lat="45.8098" lon="4.63292">
        <ele>544.0578</ele>
        <time>2023-06-04T14:27:21.000Z</time>
      </trkpt>
      <trkpt lat="45.80983" lon="4.63294">
        <ele>543.93854</ele>
        <time>2023-06-04T14:27:22.000Z</time>
      </trkpt>
      <trkpt lat="45.80986" lon="4.63297">
        <ele>543.82227</ele>
        <time>2023-06-04T14:27:23.000Z</time>
      </trkpt>
      <trkpt lat="45.80989" lon="4.63301">
        <ele>543.7616</ele>
        <time>2023-06-04T14:27:24.000Z</time>
      </trkpt>
      <trkpt lat="45.80992" lon="4.63304">
        <ele>543.67419</ele>
        <time>2023-06-04T14:27:25.000Z</time>
      </trkpt>
      <trkpt lat="45.80996" lon="4.63306">
        <ele>543.59424</ele>
        <time>2023-06-04T14:27:26.000Z</time>
      </trkpt>
      <trkpt lat="45.81" lon="4.63307">
        <ele>543.51129</ele>
        <time>2023-06-04T14:27:27.000Z</time>
      </trkpt>
      <trkpt lat="45.81005" lon="4.63306">
        <ele>543.47461</ele>
        <time>2023-06-04T14:27:28.000Z</time>
      </trkpt>
      <trkpt lat="45.81008" lon="4.63305">
        <ele>543.38635</ele>
        <time>2023-06-04T14:27:29.000Z</time>
      </trkpt>
      <trkpt lat="45.81011" lon="4.63305">
        <ele>543.34363</ele>
        <time>2023-06-04T14:27:30.000Z</time>
      </trkpt>
      <trkpt lat="45.81013" lon="4.63305">
        <ele>543.38525</ele>
        <time>2023-06-04T14:27:31.000Z</time>
      </trkpt>
      <trkpt lat="45.81016" lon="4.63306">
        <ele>543.41504</ele>
        <time>2023-06-04T14:27:32.000Z</time>
      </trkpt>
      <trkpt lat="45.81018" lon="4.63306">
        <ele>543.45807</ele>
        <time>2023-06-04T14:27:33.000Z</time>
      </trkpt>
      <trkpt lat="45.81022" lon="4.63306">
        <ele>543.52942</ele>
        <time>2023-06-04T14:27:34.000Z</time>
      </trkpt>
      <trkpt lat="45.81025" lon="4.63307">
        <ele>543.58728</ele>
        <time>2023-06-04T14:27:35.000Z</time>
      </trkpt>
      <trkpt lat="45.81027" lon="4.63308">
        <ele>543.63416</ele>
        <time>2023-06-04T14:27:36.000Z</time>
      </trkpt>
      <trkpt lat="45.8103" lon="4.6331">
        <ele>543.64478</ele>
        <time>2023-06-04T14:27:37.000Z</time>
      </trkpt>
      <trkpt lat="45.81031" lon="4.63311">
        <ele>543.74695</ele>
        <time>2023-06-04T14:27:38.000Z</time>
      </trkpt>
      <trkpt lat="45.81034" lon="4.63314">
        <ele>543.85486</ele>
        <time>2023-06-04T14:27:40.000Z</time>
      </trkpt>
      <trkpt lat="45.81037" lon="4.63317">
        <ele>543.91608</ele>
        <time>2023-06-04T14:27:42.000Z</time>
      </trkpt>
      <trkpt lat="45.81038" lon="4.63313">
        <ele>544.02124</ele>
        <time>2023-06-04T14:27:45.000Z</time>
      </trkpt>
      <trkpt lat="45.81035" lon="4.63315">
        <ele>544.15808</ele>
        <time>2023-06-04T14:27:49.000Z</time>
      </trkpt>
      <trkpt lat="45.81035" lon="4.63317">
        <ele>544.32941</ele>
        <time>2023-06-04T14:27:52.000Z</time>
      </trkpt>
      <trkpt lat="45.81034" lon="4.63316">
        <ele>544.55151</ele>
        <time>2023-06-04T14:27:54.000Z</time>
      </trkpt>
      <trkpt lat="45.81033" lon="4.63313">
        <ele>544.77448</ele>
        <time>2023-06-04T14:27:56.000Z</time>
      </trkpt>
      <trkpt lat="45.81035" lon="4.63317">
        <ele>544.93243</ele>
        <time>2023-06-04T14:28:00.000Z</time>
      </trkpt>
      <trkpt lat="45.81037" lon="4.63321">
        <ele>545.08643</ele>
        <time>2023-06-04T14:28:01.000Z</time>
      </trkpt>
      <trkpt lat="45.81039" lon="4.63322">
        <ele>545.22852</ele>
        <time>2023-06-04T14:28:02.000Z</time>
      </trkpt>
      <trkpt lat="45.81038" lon="4.63319">
        <ele>545.40759</ele>
        <time>2023-06-04T14:28:10.000Z</time>
      </trkpt>
      <trkpt lat="45.81036" lon="4.63317">
        <ele>545.60663</ele>
        <time>2023-06-04T14:28:11.000Z</time>
      </trkpt>
      <trkpt lat="45.81033" lon="4.63316">
        <ele>545.85382</ele>
        <time>2023-06-04T14:28:13.000Z</time>
      </trkpt>
      <trkpt lat="45.81032" lon="4.63319">
        <ele>546.07257</ele>
        <time>2023-06-04T14:28:16.000Z</time>
      </trkpt>
      <trkpt lat="45.81032" lon="4.63323">
        <ele>546.20764</ele>
        <time>2023-06-04T14:28:18.000Z</time>
      </trkpt>
      <trkpt lat="45.81032" lon="4.6333">
        <ele>546.34698</ele>
        <time>2023-06-04T14:28:20.000Z</time>
      </trkpt>
      <trkpt lat="45.8103" lon="4.63334">
        <ele>546.45624</ele>
        <time>2023-06-04T14:28:21.000Z</time>
      </trkpt>
      <trkpt lat="45.81029" lon="4.63337">
        <ele>546.53821</ele>
        <time>2023-06-04T14:28:22.000Z</time>
      </trkpt>
      <trkpt lat="45.81027" lon="4.6334">
        <ele>546.65796</ele>
        <time>2023-06-04T14:28:23.000Z</time>
      </trkpt>
      <trkpt lat="45.81027" lon="4.63343">
        <ele>546.70325</ele>
        <time>2023-06-04T14:28:24.000Z</time>
      </trkpt>
      <trkpt lat="45.81026" lon="4.63346">
        <ele>546.77191</ele>
        <time>2023-06-04T14:28:25.000Z</time>
      </trkpt>
      <trkpt lat="45.81027" lon="4.63349">
        <ele>546.82617</ele>
        <time>2023-06-04T14:28:27.000Z</time>
      </trkpt>
      <trkpt lat="45.81028" lon="4.63346">
        <ele>546.80682</ele>
        <time>2023-06-04T14:28:29.000Z</time>
      </trkpt>
      <trkpt lat="45.81029" lon="4.63343">
        <ele>546.79089</ele>
        <time>2023-06-04T14:28:31.000Z</time>
      </trkpt>
      <trkpt lat="45.81028" lon="4.63345">
        <ele>546.78992</ele>
        <time>2023-06-04T14:28:35.000Z</time>
      </trkpt>
      <trkpt lat="45.81028" lon="4.63341">
        <ele>546.69489</ele>
        <time>2023-06-04T14:28:39.000Z</time>
      </trkpt>
      <trkpt lat="45.8103" lon="4.63342">
        <ele>546.63617</ele>
        <time>2023-06-04T14:28:45.000Z</time>
      </trkpt>
      <trkpt lat="45.81028" lon="4.63344">
        <ele>546.55237</ele>
        <time>2023-06-04T14:28:52.000Z</time>
      </trkpt>
      <trkpt lat="45.81026" lon="4.63343">
        <ele>546.5119</ele>
        <time>2023-06-04T14:28:54.000Z</time>
      </trkpt>
      <trkpt lat="45.81024" lon="4.63347">
        <ele>546.50409</ele>
        <time>2023-06-04T14:28:56.000Z</time>
      </trkpt>
      <trkpt lat="45.81024" lon="4.63352">
        <ele>546.4696</ele>
        <time>2023-06-04T14:28:57.000Z</time>
      </trkpt>
      <trkpt lat="45.81023" lon="4.63356">
        <ele>546.38416</ele>
        <time>2023-06-04T14:28:58.000Z</time>
      </trkpt>
      <trkpt lat="45.81021" lon="4.6336">
        <ele>546.24158</ele>
        <time>2023-06-04T14:28:59.000Z</time>
      </trkpt>
      <trkpt lat="45.81019" lon="4.63362">
        <ele>546.12964</ele>
        <time>2023-06-04T14:29:00.000Z</time>
      </trkpt>
      <trkpt lat="45.81018" lon="4.63366">
        <ele>545.99316</ele>
        <time>2023-06-04T14:29:02.000Z</time>
      </trkpt>
      <trkpt lat="45.81018" lon="4.63369">
        <ele>545.75488</ele>
        <time>2023-06-04T14:29:07.000Z</time>
      </trkpt>
      <trkpt lat="45.81019" lon="4.63373">
        <ele>545.58124</ele>
        <time>2023-06-04T14:29:08.000Z</time>
      </trkpt>
      <trkpt lat="45.8102" lon="4.63377">
        <ele>545.39246</ele>
        <time>2023-06-04T14:29:09.000Z</time>
      </trkpt>
      <trkpt lat="45.8102" lon="4.6338">
        <ele>545.22052</ele>
        <time>2023-06-04T14:29:10.000Z</time>
      </trkpt>
      <trkpt lat="45.81019" lon="4.63383">
        <ele>545.05225</ele>
        <time>2023-06-04T14:29:11.000Z</time>
      </trkpt>
      <trkpt lat="45.81017" lon="4.63385">
        <ele>544.82831</ele>
        <time>2023-06-04T14:29:13.000Z</time>
      </trkpt>
      <trkpt lat="45.81015" lon="4.63387">
        <ele>544.55566</ele>
        <time>2023-06-04T14:29:14.000Z</time>
      </trkpt>
      <trkpt lat="45.81014" lon="4.6339">
        <ele>544.30408</ele>
        <time>2023-06-04T14:29:16.000Z</time>
      </trkpt>
      <trkpt lat="45.81013" lon="4.63392">
        <ele>543.97168</ele>
        <time>2023-06-04T14:29:18.000Z</time>
      </trkpt>
      <trkpt lat="45.81014" lon="4.63396">
        <ele>543.75421</ele>
        <time>2023-06-04T14:29:21.000Z</time>
      </trkpt>
      <trkpt lat="45.81014" lon="4.63398">
        <ele>543.57104</ele>
        <time>2023-06-04T14:29:22.000Z</time>
      </trkpt>
      <trkpt lat="45.81013" lon="4.63403">
        <ele>543.31982</ele>
        <time>2023-06-04T14:29:24.000Z</time>
      </trkpt>
      <trkpt lat="45.81011" lon="4.63408">
        <ele>543.11316</ele>
        <time>2023-06-04T14:29:26.000Z</time>
      </trkpt>
      <trkpt lat="45.8101" lon="4.63411">
        <ele>542.8844</ele>
        <time>2023-06-04T14:29:27.000Z</time>
      </trkpt>
      <trkpt lat="45.81009" lon="4.63415">
        <ele>542.62054</ele>
        <time>2023-06-04T14:29:28.000Z</time>
      </trkpt>
      <trkpt lat="45.81008" lon="4.63419">
        <ele>542.35107</ele>
        <time>2023-06-04T14:29:29.000Z</time>
      </trkpt>
      <trkpt lat="45.8101" lon="4.6342">
        <ele>542.07739</ele>
        <time>2023-06-04T14:29:31.000Z</time>
      </trkpt>
      <trkpt lat="45.81013" lon="4.63421">
        <ele>541.75476</ele>
        <time>2023-06-04T14:29:33.000Z</time>
      </trkpt>
      <trkpt lat="45.81014" lon="4.63426">
        <ele>541.37817</ele>
        <time>2023-06-04T14:29:35.000Z</time>
      </trkpt>
      <trkpt lat="45.81013" lon="4.6343">
        <ele>541.052</ele>
        <time>2023-06-04T14:29:37.000Z</time>
      </trkpt>
      <trkpt lat="45.81012" lon="4.63437">
        <ele>540.78845</ele>
        <time>2023-06-04T14:29:39.000Z</time>
      </trkpt>
      <trkpt lat="45.8101" lon="4.63442">
        <ele>540.47412</ele>
        <time>2023-06-04T14:29:40.000Z</time>
      </trkpt>
      <trkpt lat="45.81007" lon="4.63445">
        <ele>540.19128</ele>
        <time>2023-06-04T14:29:41.000Z</time>
      </trkpt>
      <trkpt lat="45.81006" lon="4.63443">
        <ele>539.90137</ele>
        <time>2023-06-04T14:29:44.000Z</time>
      </trkpt>
      <trkpt lat="45.81005" lon="4.63441">
        <ele>539.79547</ele>
        <time>2023-06-04T14:29:51.000Z</time>
      </trkpt>
      <trkpt lat="45.81002" lon="4.63444">
        <ele>539.76105</ele>
        <time>2023-06-04T14:29:53.000Z</time>
      </trkpt>
      <trkpt lat="45.81002" lon="4.6344">
        <ele>539.67908</ele>
        <time>2023-06-04T14:29:57.000Z</time>
      </trkpt>
      <trkpt lat="45.81004" lon="4.63439">
        <ele>539.62158</ele>
        <time>2023-06-04T14:29:58.000Z</time>
      </trkpt>
      <trkpt lat="45.81007" lon="4.63438">
        <ele>539.66205</ele>
        <time>2023-06-04T14:29:59.000Z</time>
      </trkpt>
      <trkpt lat="45.81009" lon="4.63437">
        <ele>539.53857</ele>
        <time>2023-06-04T14:30:00.000Z</time>
      </trkpt>
      <trkpt lat="45.8101" lon="4.63441">
        <ele>539.56195</ele>
        <time>2023-06-04T14:30:03.000Z</time>
      </trkpt>
      <trkpt lat="45.81009" lon="4.63446">
        <ele>539.42413</ele>
        <time>2023-06-04T14:30:05.000Z</time>
      </trkpt>
      <trkpt lat="45.81008" lon="4.63449">
        <ele>539.30109</ele>
        <time>2023-06-04T14:30:06.000Z</time>
      </trkpt>
      <trkpt lat="45.81007" lon="4.63454">
        <ele>539.25446</ele>
        <time>2023-06-04T14:30:07.000Z</time>
      </trkpt>
      <trkpt lat="45.81006" lon="4.6346">
        <ele>539.22528</ele>
        <time>2023-06-04T14:30:08.000Z</time>
      </trkpt>
      <trkpt lat="45.81005" lon="4.63465">
        <ele>539.16992</ele>
        <time>2023-06-04T14:30:09.000Z</time>
      </trkpt>
      <trkpt lat="45.81005" lon="4.63471">
        <ele>539.13904</ele>
        <time>2023-06-04T14:30:10.000Z</time>
      </trkpt>
      <trkpt lat="45.81003" lon="4.63476">
        <ele>539.13055</ele>
        <time>2023-06-04T14:30:11.000Z</time>
      </trkpt>
      <trkpt lat="45.81003" lon="4.63479">
        <ele>539.21747</ele>
        <time>2023-06-04T14:30:12.000Z</time>
      </trkpt>
      <trkpt lat="45.81001" lon="4.63485">
        <ele>539.23633</ele>
        <time>2023-06-04T14:30:14.000Z</time>
      </trkpt>
      <trkpt lat="45.81001" lon="4.63488">
        <ele>539.35101</ele>
        <time>2023-06-04T14:30:15.000Z</time>
      </trkpt>
      <trkpt lat="45.81" lon="4.63492">
        <ele>539.37384</ele>
        <time>2023-06-04T14:30:16.000Z</time>
      </trkpt>
      <trkpt lat="45.81004" lon="4.63494">
        <ele>535.12756</ele>
        <time>2023-06-04T14:30:22.000Z</time>
      </trkpt>
      <trkpt lat="45.81006" lon="4.63494">
        <ele>535.02606</ele>
        <time>2023-06-04T14:30:23.000Z</time>
      </trkpt>
      <trkpt lat="45.8101" lon="4.63492">
        <ele>534.75006</ele>
        <time>2023-06-04T14:30:25.000Z</time>
      </trkpt>
      <trkpt lat="45.81012" lon="4.6349">
        <ele>534.42902</ele>
        <time>2023-06-04T14:30:26.000Z</time>
      </trkpt>
      <trkpt lat="45.81012" lon="4.63487">
        <ele>530.75476</ele>
        <time>2023-06-04T14:30:28.000Z</time>
      </trkpt>
      <trkpt lat="45.81009" lon="4.63487">
        <ele>530.31958</ele>
        <time>2023-06-04T14:30:29.000Z</time>
      </trkpt>
      <trkpt lat="45.81005" lon="4.63488">
        <ele>529.57611</ele>
        <time>2023-06-04T14:30:30.000Z</time>
      </trkpt>
      <trkpt lat="45.81002" lon="4.6349">
        <ele>528.88751</ele>
        <time>2023-06-04T14:30:31.000Z</time>
      </trkpt>
      <trkpt lat="45.81002" lon="4.63494">
        <ele>528.11041</ele>
        <time>2023-06-04T14:30:33.000Z</time>
      </trkpt>
      <trkpt lat="45.81002" lon="4.63496">
        <ele>527.4834</ele>
        <time>2023-06-04T14:30:34.000Z</time>
      </trkpt>
      <trkpt lat="45.81003" lon="4.63499">
        <ele>526.70947</ele>
        <time>2023-06-04T14:30:35.000Z</time>
      </trkpt>
      <trkpt lat="45.81003" lon="4.63503">
        <ele>526.46423</ele>
        <time>2023-06-04T14:30:36.000Z</time>
      </trkpt>
      <trkpt lat="45.81003" lon="4.63508">
        <ele>526.22852</ele>
        <time>2023-06-04T14:30:37.000Z</time>
      </trkpt>
      <trkpt lat="45.81002" lon="4.63511">
        <ele>525.96033</ele>
        <time>2023-06-04T14:30:38.000Z</time>
      </trkpt>
      <trkpt lat="45.81001" lon="4.63514">
        <ele>525.7561</ele>
        <time>2023-06-04T14:30:39.000Z</time>
      </trkpt>
      <trkpt lat="45.80999" lon="4.6352">
        <ele>525.51355</ele>
        <time>2023-06-04T14:30:40.000Z</time>
      </trkpt>
      <trkpt lat="45.80997" lon="4.63526">
        <ele>525.20959</ele>
        <time>2023-06-04T14:30:41.000Z</time>
      </trkpt>
      <trkpt lat="45.80996" lon="4.6353">
        <ele>525.11469</ele>
        <time>2023-06-04T14:30:42.000Z</time>
      </trkpt>
      <trkpt lat="45.80996" lon="4.63534">
        <ele>524.4198</ele>
        <time>2023-06-04T14:30:43.000Z</time>
      </trkpt>
      <trkpt lat="45.80996" lon="4.63537">
        <ele>523.77582</ele>
        <time>2023-06-04T14:30:44.000Z</time>
      </trkpt>
      <trkpt lat="45.80998" lon="4.63539">
        <ele>527.35278</ele>
        <time>2023-06-04T14:30:47.000Z</time>
      </trkpt>
      <trkpt lat="45.81" lon="4.63537">
        <ele>523.6037</ele>
        <time>2023-06-04T14:30:50.000Z</time>
      </trkpt>
      <trkpt lat="45.80999" lon="4.63534">
        <ele>523.03259</ele>
        <time>2023-06-04T14:30:52.000Z</time>
      </trkpt>
      <trkpt lat="45.80998" lon="4.6353">
        <ele>522.44666</ele>
        <time>2023-06-04T14:30:54.000Z</time>
      </trkpt>
      <trkpt lat="45.80997" lon="4.63528">
        <ele>521.9436</ele>
        <time>2023-06-04T14:30:56.000Z</time>
      </trkpt>
      <trkpt lat="45.80997" lon="4.63532">
        <ele>518.94739</ele>
        <time>2023-06-04T14:31:03.000Z</time>
      </trkpt>
      <trkpt lat="45.80997" lon="4.63536">
        <ele>517.31171</ele>
        <time>2023-06-04T14:31:04.000Z</time>
      </trkpt>
      <trkpt lat="45.80996" lon="4.63541">
        <ele>515.9314</ele>
        <time>2023-06-04T14:31:06.000Z</time>
      </trkpt>
      <trkpt lat="45.80995" lon="4.63547">
        <ele>514.40021</ele>
        <time>2023-06-04T14:31:08.000Z</time>
      </trkpt>
      <trkpt lat="45.80995" lon="4.63551">
        <ele>512.9176</ele>
        <time>2023-06-04T14:31:09.000Z</time>
      </trkpt>
      <trkpt lat="45.80996" lon="4.63556">
        <ele>511.58066</ele>
        <time>2023-06-04T14:31:10.000Z</time>
      </trkpt>
      <trkpt lat="45.80996" lon="4.6356">
        <ele>509.60928</ele>
        <time>2023-06-04T14:31:11.000Z</time>
      </trkpt>
      <trkpt lat="45.80995" lon="4.63564">
        <ele>507.6106</ele>
        <time>2023-06-04T14:31:12.000Z</time>
      </trkpt>
      <trkpt lat="45.80995" lon="4.63569">
        <ele>505.66064</ele>
        <time>2023-06-04T14:31:13.000Z</time>
      </trkpt>
      <trkpt lat="45.80994" lon="4.63573">
        <ele>503.62857</ele>
        <time>2023-06-04T14:31:14.000Z</time>
      </trkpt>
      <trkpt lat="45.80994" lon="4.63576">
        <ele>501.63721</ele>
        <time>2023-06-04T14:31:15.000Z</time>
      </trkpt>
      <trkpt lat="45.80994" lon="4.63579">
        <ele>499.68863</ele>
        <time>2023-06-04T14:31:16.000Z</time>
      </trkpt>
      <trkpt lat="45.80996" lon="4.63581">
        <ele>497.59357</ele>
        <time>2023-06-04T14:31:17.000Z</time>
      </trkpt>
      <trkpt lat="45.80997" lon="4.63582">
        <ele>495.98917</ele>
        <time>2023-06-04T14:31:18.000Z</time>
      </trkpt>
      <trkpt lat="45.80999" lon="4.63583">
        <ele>494.41177</ele>
        <time>2023-06-04T14:31:19.000Z</time>
      </trkpt>
      <trkpt lat="45.81002" lon="4.63584">
        <ele>492.854</ele>
        <time>2023-06-04T14:31:20.000Z</time>
      </trkpt>
      <trkpt lat="45.81006" lon="4.63585">
        <ele>494.47729</ele>
        <time>2023-06-04T14:31:21.000Z</time>
      </trkpt>
      <trkpt lat="45.8101" lon="4.63585">
        <ele>492.92178</ele>
        <time>2023-06-04T14:31:22.000Z</time>
      </trkpt>
      <trkpt lat="45.81014" lon="4.63584">
        <ele>491.40533</ele>
        <time>2023-06-04T14:31:23.000Z</time>
      </trkpt>
      <trkpt lat="45.81017" lon="4.63586">
        <ele>493.29507</ele>
        <time>2023-06-04T14:31:25.000Z</time>
      </trkpt>
      <trkpt lat="45.81019" lon="4.63587">
        <ele>494.41992</ele>
        <time>2023-06-04T14:31:26.000Z</time>
      </trkpt>
      <trkpt lat="45.81019" lon="4.6359">
        <ele>494.46704</ele>
        <time>2023-06-04T14:31:28.000Z</time>
      </trkpt>
      <trkpt lat="45.81021" lon="4.63592">
        <ele>494.14447</ele>
        <time>2023-06-04T14:31:35.000Z</time>
      </trkpt>
      <trkpt lat="45.81023" lon="4.63594">
        <ele>493.92096</ele>
        <time>2023-06-04T14:31:37.000Z</time>
      </trkpt>
      <trkpt lat="45.81025" lon="4.63594">
        <ele>493.6962</ele>
        <time>2023-06-04T14:31:38.000Z</time>
      </trkpt>
      <trkpt lat="45.81027" lon="4.63595">
        <ele>493.4418</ele>
        <time>2023-06-04T14:31:39.000Z</time>
      </trkpt>
      <trkpt lat="45.81029" lon="4.63596">
        <ele>493.2337</ele>
        <time>2023-06-04T14:31:40.000Z</time>
      </trkpt>
      <trkpt lat="45.81028" lon="4.63598">
        <ele>492.94</ele>
        <time>2023-06-04T14:31:41.000Z</time>
      </trkpt>
      <trkpt lat="45.81027" lon="4.636">
        <ele>492.66251</ele>
        <time>2023-06-04T14:31:42.000Z</time>
      </trkpt>
      <trkpt lat="45.81026" lon="4.63595">
        <ele>492.39093</ele>
        <time>2023-06-04T14:31:46.000Z</time>
      </trkpt>
      <trkpt lat="45.81026" lon="4.6359">
        <ele>492.10089</ele>
        <time>2023-06-04T14:31:47.000Z</time>
      </trkpt>
      <trkpt lat="45.81026" lon="4.63587">
        <ele>491.85968</ele>
        <time>2023-06-04T14:31:49.000Z</time>
      </trkpt>
      <trkpt lat="45.81027" lon="4.63589">
        <ele>491.69824</ele>
        <time>2023-06-04T14:31:51.000Z</time>
      </trkpt>
      <trkpt lat="45.81029" lon="4.63592">
        <ele>491.63315</ele>
        <time>2023-06-04T14:31:52.000Z</time>
      </trkpt>
      <trkpt lat="45.81031" lon="4.63595">
        <ele>491.58975</ele>
        <time>2023-06-04T14:31:53.000Z</time>
      </trkpt>
      <trkpt lat="45.8103" lon="4.636">
        <ele>491.5831</ele>
        <time>2023-06-04T14:31:55.000Z</time>
      </trkpt>
      <trkpt lat="45.81035" lon="4.63597">
        <ele>491.53061</ele>
        <time>2023-06-04T14:32:02.000Z</time>
      </trkpt>
      <trkpt lat="45.8104" lon="4.63596">
        <ele>491.46991</ele>
        <time>2023-06-04T14:32:03.000Z</time>
      </trkpt>
      <trkpt lat="45.81043" lon="4.63596">
        <ele>491.41351</ele>
        <time>2023-06-04T14:32:04.000Z</time>
      </trkpt>
      <trkpt lat="45.81046" lon="4.63594">
        <ele>491.27115</ele>
        <time>2023-06-04T14:32:05.000Z</time>
      </trkpt>
      <trkpt lat="45.81049" lon="4.63594">
        <ele>491.14609</ele>
        <time>2023-06-04T14:32:06.000Z</time>
      </trkpt>
      <trkpt lat="45.81052" lon="4.63594">
        <ele>490.99957</ele>
        <time>2023-06-04T14:32:07.000Z</time>
      </trkpt>
      <trkpt lat="45.81055" lon="4.63593">
        <ele>490.92227</ele>
        <time>2023-06-04T14:32:08.000Z</time>
      </trkpt>
      <trkpt lat="45.81059" lon="4.63593">
        <ele>490.89102</ele>
        <time>2023-06-04T14:32:09.000Z</time>
      </trkpt>
      <trkpt lat="45.81069" lon="4.63585">
        <ele>490.85001</ele>
        <time>2023-06-04T14:32:10.000Z</time>
      </trkpt>
      <trkpt lat="45.81065" lon="4.63584">
        <ele>490.85547</ele>
        <time>2023-06-04T14:32:11.000Z</time>
      </trkpt>
      <trkpt lat="45.81067" lon="4.63589">
        <ele>490.83881</ele>
        <time>2023-06-04T14:32:12.000Z</time>
      </trkpt>
      <trkpt lat="45.81069" lon="4.6359">
        <ele>490.89349</ele>
        <time>2023-06-04T14:32:13.000Z</time>
      </trkpt>
      <trkpt lat="45.81076" lon="4.63589">
        <ele>490.95004</ele>
        <time>2023-06-04T14:32:14.000Z</time>
      </trkpt>
      <trkpt lat="45.81078" lon="4.63591">
        <ele>491.01898</ele>
        <time>2023-06-04T14:32:15.000Z</time>
      </trkpt>
      <trkpt lat="45.8108" lon="4.63593">
        <ele>491.05771</ele>
        <time>2023-06-04T14:32:16.000Z</time>
      </trkpt>
      <trkpt lat="45.81082" lon="4.63592">
        <ele>491.077</ele>
        <time>2023-06-04T14:32:18.000Z</time>
      </trkpt>
      <trkpt lat="45.81084" lon="4.63592">
        <ele>491.08774</ele>
        <time>2023-06-04T14:32:24.000Z</time>
      </trkpt>
      <trkpt lat="45.81086" lon="4.63593">
        <ele>491.05591</ele>
        <time>2023-06-04T14:32:26.000Z</time>
      </trkpt>
      <trkpt lat="45.81084" lon="4.63593">
        <ele>486.55649</ele>
        <time>2023-06-04T14:32:32.000Z</time>
      </trkpt>
      <trkpt lat="45.81086" lon="4.63593">
        <ele>482.67538</ele>
        <time>2023-06-04T14:32:41.000Z</time>
      </trkpt>
      <trkpt lat="45.81089" lon="4.63592">
        <ele>482.23105</ele>
        <time>2023-06-04T14:32:43.000Z</time>
      </trkpt>
      <trkpt lat="45.81092" lon="4.63593">
        <ele>481.77866</ele>
        <time>2023-06-04T14:32:44.000Z</time>
      </trkpt>
      <trkpt lat="45.81095" lon="4.63594">
        <ele>481.28882</ele>
        <time>2023-06-04T14:32:45.000Z</time>
      </trkpt>
      <trkpt lat="45.81097" lon="4.63597">
        <ele>480.83405</ele>
        <time>2023-06-04T14:32:46.000Z</time>
      </trkpt>
      <trkpt lat="45.811" lon="4.63595">
        <ele>476.8924</ele>
        <time>2023-06-04T14:32:47.000Z</time>
      </trkpt>
      <trkpt lat="45.81099" lon="4.63592">
        <ele>476.19937</ele>
        <time>2023-06-04T14:32:48.000Z</time>
      </trkpt>
      <trkpt lat="45.81096" lon="4.6359">
        <ele>475.48135</ele>
        <time>2023-06-04T14:32:49.000Z</time>
      </trkpt>
      <trkpt lat="45.81094" lon="4.63591">
        <ele>474.69327</ele>
        <time>2023-06-04T14:32:51.000Z</time>
      </trkpt>
      <trkpt lat="45.81093" lon="4.63593">
        <ele>471.51212</ele>
        <time>2023-06-04T14:32:53.000Z</time>
      </trkpt>
      <trkpt lat="45.81096" lon="4.63594">
        <ele>471.23676</ele>
        <time>2023-06-04T14:33:01.000Z</time>
      </trkpt>
      <trkpt lat="45.81098" lon="4.63595">
        <ele>470.98813</ele>
        <time>2023-06-04T14:33:02.000Z</time>
      </trkpt>
      <trkpt lat="45.811" lon="4.63596">
        <ele>470.73788</ele>
        <time>2023-06-04T14:33:03.000Z</time>
      </trkpt>
      <trkpt lat="45.81102" lon="4.63598">
        <ele>470.4809</ele>
        <time>2023-06-04T14:33:04.000Z</time>
      </trkpt>
      <trkpt lat="45.81105" lon="4.636">
        <ele>470.23529</ele>
        <time>2023-06-04T14:33:05.000Z</time>
      </trkpt>
      <trkpt lat="45.81107" lon="4.63602">
        <ele>470.08316</ele>
        <time>2023-06-04T14:33:06.000Z</time>
      </trkpt>
      <trkpt lat="45.81109" lon="4.63605">
        <ele>469.84082</ele>
        <time>2023-06-04T14:33:08.000Z</time>
      </trkpt>
      <trkpt lat="45.81112" lon="4.63611">
        <ele>469.55405</ele>
        <time>2023-06-04T14:33:10.000Z</time>
      </trkpt>
      <trkpt lat="45.81115" lon="4.63614">
        <ele>469.2417</ele>
        <time>2023-06-04T14:33:11.000Z</time>
      </trkpt>
      <trkpt lat="45.81118" lon="4.63617">
        <ele>473.39484</ele>
        <time>2023-06-04T14:33:12.000Z</time>
      </trkpt>
      <trkpt lat="45.81121" lon="4.6362">
        <ele>476.87421</ele>
        <time>2023-06-04T14:33:13.000Z</time>
      </trkpt>
      <trkpt lat="45.81123" lon="4.63622">
        <ele>476.94946</ele>
        <time>2023-06-04T14:33:14.000Z</time>
      </trkpt>
      <trkpt lat="45.81127" lon="4.63624">
        <ele>477.07697</ele>
        <time>2023-06-04T14:33:15.000Z</time>
      </trkpt>
      <trkpt lat="45.8113" lon="4.63625">
        <ele>477.21051</ele>
        <time>2023-06-04T14:33:16.000Z</time>
      </trkpt>
      <trkpt lat="45.81134" lon="4.63625">
        <ele>477.37689</ele>
        <time>2023-06-04T14:33:17.000Z</time>
      </trkpt>
      <trkpt lat="45.81137" lon="4.63626">
        <ele>481.0126</ele>
        <time>2023-06-04T14:33:18.000Z</time>
      </trkpt>
      <trkpt lat="45.81139" lon="4.63626">
        <ele>481.40796</ele>
        <time>2023-06-04T14:33:19.000Z</time>
      </trkpt>
      <trkpt lat="45.81142" lon="4.63626">
        <ele>481.84088</ele>
        <time>2023-06-04T14:33:20.000Z</time>
      </trkpt>
      <trkpt lat="45.81146" lon="4.63624">
        <ele>482.30127</ele>
        <time>2023-06-04T14:33:21.000Z</time>
      </trkpt>
      <trkpt lat="45.81151" lon="4.63622">
        <ele>485.1561</ele>
        <time>2023-06-04T14:33:22.000Z</time>
      </trkpt>
      <trkpt lat="45.81156" lon="4.63621">
        <ele>485.05508</ele>
        <time>2023-06-04T14:33:23.000Z</time>
      </trkpt>
      <trkpt lat="45.81161" lon="4.63621">
        <ele>484.94757</ele>
        <time>2023-06-04T14:33:24.000Z</time>
      </trkpt>
      <trkpt lat="45.81165" lon="4.63622">
        <ele>484.86002</ele>
        <time>2023-06-04T14:33:25.000Z</time>
      </trkpt>
      <trkpt lat="45.81166" lon="4.63626">
        <ele>484.76581</ele>
        <time>2023-06-04T14:33:26.000Z</time>
      </trkpt>
      <trkpt lat="45.81168" lon="4.63629">
        <ele>484.66</ele>
        <time>2023-06-04T14:33:27.000Z</time>
      </trkpt>
      <trkpt lat="45.8117" lon="4.63634">
        <ele>484.51202</ele>
        <time>2023-06-04T14:33:28.000Z</time>
      </trkpt>
      <trkpt lat="45.81171" lon="4.63638">
        <ele>484.43301</ele>
        <time>2023-06-04T14:33:29.000Z</time>
      </trkpt>
      <trkpt lat="45.81172" lon="4.63641">
        <ele>484.42426</ele>
        <time>2023-06-04T14:33:30.000Z</time>
      </trkpt>
      <trkpt lat="45.81172" lon="4.63644">
        <ele>484.45328</ele>
        <time>2023-06-04T14:33:31.000Z</time>
      </trkpt>
      <trkpt lat="45.81173" lon="4.63647">
        <ele>484.51129</ele>
        <time>2023-06-04T14:33:32.000Z</time>
      </trkpt>
      <trkpt lat="45.81175" lon="4.63652">
        <ele>484.63721</ele>
        <time>2023-06-04T14:33:34.000Z</time>
      </trkpt>
      <trkpt lat="45.81176" lon="4.63654">
        <ele>484.79443</ele>
        <time>2023-06-04T14:33:35.000Z</time>
      </trkpt>
      <trkpt lat="45.81178" lon="4.63657">
        <ele>484.89331</ele>
        <time>2023-06-04T14:33:36.000Z</time>
      </trkpt>
      <trkpt lat="45.8118" lon="4.63659">
        <ele>485.01459</ele>
        <time>2023-06-04T14:33:37.000Z</time>
      </trkpt>
      <trkpt lat="45.81182" lon="4.63663">
        <ele>485.11646</ele>
        <time>2023-06-04T14:33:38.000Z</time>
      </trkpt>
      <trkpt lat="45.81185" lon="4.63668">
        <ele>485.2377</ele>
        <time>2023-06-04T14:33:39.000Z</time>
      </trkpt>
      <trkpt lat="45.81186" lon="4.63672">
        <ele>485.33643</ele>
        <time>2023-06-04T14:33:40.000Z</time>
      </trkpt>
      <trkpt lat="45.81187" lon="4.63674">
        <ele>485.4151</ele>
        <time>2023-06-04T14:33:41.000Z</time>
      </trkpt>
      <trkpt lat="45.8119" lon="4.63674">
        <ele>485.49176</ele>
        <time>2023-06-04T14:33:43.000Z</time>
      </trkpt>
      <trkpt lat="45.81192" lon="4.63675">
        <ele>485.51025</ele>
        <time>2023-06-04T14:33:45.000Z</time>
      </trkpt>
      <trkpt lat="45.81195" lon="4.6368">
        <ele>485.50458</ele>
        <time>2023-06-04T14:33:47.000Z</time>
      </trkpt>
      <trkpt lat="45.81197" lon="4.63682">
        <ele>485.48566</ele>
        <time>2023-06-04T14:33:48.000Z</time>
      </trkpt>
      <trkpt lat="45.81199" lon="4.63683">
        <ele>485.47006</ele>
        <time>2023-06-04T14:33:49.000Z</time>
      </trkpt>
      <trkpt lat="45.81201" lon="4.63684">
        <ele>485.44556</ele>
        <time>2023-06-04T14:33:50.000Z</time>
      </trkpt>
      <trkpt lat="45.81203" lon="4.63686">
        <ele>485.42456</ele>
        <time>2023-06-04T14:33:51.000Z</time>
      </trkpt>
      <trkpt lat="45.81206" lon="4.63689">
        <ele>485.40518</ele>
        <time>2023-06-04T14:33:52.000Z</time>
      </trkpt>
      <trkpt lat="45.81208" lon="4.63691">
        <ele>485.37119</ele>
        <time>2023-06-04T14:33:53.000Z</time>
      </trkpt>
      <trkpt lat="45.8121" lon="4.63695">
        <ele>485.29849</ele>
        <time>2023-06-04T14:33:54.000Z</time>
      </trkpt>
      <trkpt lat="45.81212" lon="4.63698">
        <ele>485.15753</ele>
        <time>2023-06-04T14:33:55.000Z</time>
      </trkpt>
      <trkpt lat="45.81215" lon="4.63701">
        <ele>485.00409</ele>
        <time>2023-06-04T14:33:56.000Z</time>
      </trkpt>
      <trkpt lat="45.81218" lon="4.63706">
        <ele>484.82632</ele>
        <time>2023-06-04T14:33:57.000Z</time>
      </trkpt>
      <trkpt lat="45.81221" lon="4.6371">
        <ele>484.62296</ele>
        <time>2023-06-04T14:33:58.000Z</time>
      </trkpt>
      <trkpt lat="45.81224" lon="4.63713">
        <ele>484.45575</ele>
        <time>2023-06-04T14:33:59.000Z</time>
      </trkpt>
      <trkpt lat="45.81226" lon="4.63715">
        <ele>484.26514</ele>
        <time>2023-06-04T14:34:00.000Z</time>
      </trkpt>
      <trkpt lat="45.81229" lon="4.63717">
        <ele>483.99911</ele>
        <time>2023-06-04T14:34:01.000Z</time>
      </trkpt>
      <trkpt lat="45.81231" lon="4.6372">
        <ele>483.72476</ele>
        <time>2023-06-04T14:34:02.000Z</time>
      </trkpt>
      <trkpt lat="45.81234" lon="4.63722">
        <ele>483.47247</ele>
        <time>2023-06-04T14:34:03.000Z</time>
      </trkpt>
      <trkpt lat="45.81237" lon="4.63725">
        <ele>483.2666</ele>
        <time>2023-06-04T14:34:04.000Z</time>
      </trkpt>
      <trkpt lat="45.81242" lon="4.63728">
        <ele>483.07632</ele>
        <time>2023-06-04T14:34:05.000Z</time>
      </trkpt>
      <trkpt lat="45.81246" lon="4.63731">
        <ele>482.98346</ele>
        <time>2023-06-04T14:34:06.000Z</time>
      </trkpt>
      <trkpt lat="45.81249" lon="4.63734">
        <ele>482.92734</ele>
        <time>2023-06-04T14:34:07.000Z</time>
      </trkpt>
      <trkpt lat="45.81251" lon="4.63737">
        <ele>482.84116</ele>
        <time>2023-06-04T14:34:08.000Z</time>
      </trkpt>
      <trkpt lat="45.81254" lon="4.63742">
        <ele>482.7923</ele>
        <time>2023-06-04T14:34:10.000Z</time>
      </trkpt>
      <trkpt lat="45.81257" lon="4.63747">
        <ele>482.7644</ele>
        <time>2023-06-04T14:34:11.000Z</time>
      </trkpt>
      <trkpt lat="45.81259" lon="4.63751">
        <ele>482.69907</ele>
        <time>2023-06-04T14:34:12.000Z</time>
      </trkpt>
      <trkpt lat="45.81261" lon="4.63755">
        <ele>482.65527</ele>
        <time>2023-06-04T14:34:13.000Z</time>
      </trkpt>
      <trkpt lat="45.81264" lon="4.63759">
        <ele>482.63705</ele>
        <time>2023-06-04T14:34:14.000Z</time>
      </trkpt>
      <trkpt lat="45.81267" lon="4.63762">
        <ele>482.64313</ele>
        <time>2023-06-04T14:34:15.000Z</time>
      </trkpt>
      <trkpt lat="45.8127" lon="4.63766">
        <ele>482.64307</ele>
        <time>2023-06-04T14:34:16.000Z</time>
      </trkpt>
      <trkpt lat="45.81272" lon="4.6377">
        <ele>482.60849</ele>
        <time>2023-06-04T14:34:17.000Z</time>
      </trkpt>
      <trkpt lat="45.81274" lon="4.63773">
        <ele>482.53192</ele>
        <time>2023-06-04T14:34:18.000Z</time>
      </trkpt>
      <trkpt lat="45.81275" lon="4.63775">
        <ele>482.465</ele>
        <time>2023-06-04T14:34:19.000Z</time>
      </trkpt>
      <trkpt lat="45.81277" lon="4.63777">
        <ele>482.32993</ele>
        <time>2023-06-04T14:34:20.000Z</time>
      </trkpt>
      <trkpt lat="45.8128" lon="4.63779">
        <ele>482.15454</ele>
        <time>2023-06-04T14:34:21.000Z</time>
      </trkpt>
      <trkpt lat="45.81282" lon="4.63781">
        <ele>482.06284</ele>
        <time>2023-06-04T14:34:22.000Z</time>
      </trkpt>
      <trkpt lat="45.81285" lon="4.63781">
        <ele>481.9588</ele>
        <time>2023-06-04T14:34:24.000Z</time>
      </trkpt>
      <trkpt lat="45.81288" lon="4.63781">
        <ele>481.81818</ele>
        <time>2023-06-04T14:34:25.000Z</time>
      </trkpt>
      <trkpt lat="45.8129" lon="4.63782">
        <ele>481.64508</ele>
        <time>2023-06-04T14:34:27.000Z</time>
      </trkpt>
      <trkpt lat="45.81293" lon="4.63784">
        <ele>481.4332</ele>
        <time>2023-06-04T14:34:28.000Z</time>
      </trkpt>
      <trkpt lat="45.81295" lon="4.63787">
        <ele>481.12613</ele>
        <time>2023-06-04T14:34:29.000Z</time>
      </trkpt>
      <trkpt lat="45.81297" lon="4.6379">
        <ele>480.85336</ele>
        <time>2023-06-04T14:34:30.000Z</time>
      </trkpt>
      <trkpt lat="45.81299" lon="4.63794">
        <ele>480.57852</ele>
        <time>2023-06-04T14:34:31.000Z</time>
      </trkpt>
      <trkpt lat="45.81301" lon="4.63796">
        <ele>480.25333</ele>
        <time>2023-06-04T14:34:32.000Z</time>
      </trkpt>
      <trkpt lat="45.81303" lon="4.63799">
        <ele>479.93375</ele>
        <time>2023-06-04T14:34:33.000Z</time>
      </trkpt>
      <trkpt lat="45.81307" lon="4.63802">
        <ele>479.66904</ele>
        <time>2023-06-04T14:34:34.000Z</time>
      </trkpt>
      <trkpt lat="45.81313" lon="4.63807">
        <ele>479.32202</ele>
        <time>2023-06-04T14:34:35.000Z</time>
      </trkpt>
      <trkpt lat="45.81319" lon="4.63812">
        <ele>478.93976</ele>
        <time>2023-06-04T14:34:36.000Z</time>
      </trkpt>
      <trkpt lat="45.81325" lon="4.63814">
        <ele>478.51065</ele>
        <time>2023-06-04T14:34:37.000Z</time>
      </trkpt>
      <trkpt lat="45.81331" lon="4.63817">
        <ele>477.92554</ele>
        <time>2023-06-04T14:34:38.000Z</time>
      </trkpt>
      <trkpt lat="45.81341" lon="4.63823">
        <ele>477.36163</ele>
        <time>2023-06-04T14:34:39.000Z</time>
      </trkpt>
      <trkpt lat="45.81342" lon="4.63832">
        <ele>476.81885</ele>
        <time>2023-06-04T14:34:40.000Z</time>
      </trkpt>
      <trkpt lat="45.81345" lon="4.63839">
        <ele>476.27985</ele>
        <time>2023-06-04T14:34:41.000Z</time>
      </trkpt>
      <trkpt lat="45.81348" lon="4.63843">
        <ele>475.75888</ele>
        <time>2023-06-04T14:34:42.000Z</time>
      </trkpt>
      <trkpt lat="45.81349" lon="4.63847">
        <ele>475.2359</ele>
        <time>2023-06-04T14:34:43.000Z</time>
      </trkpt>
      <trkpt lat="45.81351" lon="4.63855">
        <ele>474.69025</ele>
        <time>2023-06-04T14:34:44.000Z</time>
      </trkpt>
      <trkpt lat="45.81355" lon="4.63856">
        <ele>474.12442</ele>
        <time>2023-06-04T14:34:45.000Z</time>
      </trkpt>
      <trkpt lat="45.81357" lon="4.63856">
        <ele>473.62714</ele>
        <time>2023-06-04T14:34:46.000Z</time>
      </trkpt>
      <trkpt lat="45.8136" lon="4.63856">
        <ele>473.13174</ele>
        <time>2023-06-04T14:34:47.000Z</time>
      </trkpt>
      <trkpt lat="45.81362" lon="4.63859">
        <ele>472.5061</ele>
        <time>2023-06-04T14:34:48.000Z</time>
      </trkpt>
      <trkpt lat="45.81365" lon="4.63858">
        <ele>471.92749</ele>
        <time>2023-06-04T14:34:49.000Z</time>
      </trkpt>
      <trkpt lat="45.81363" lon="4.63857">
        <ele>471.34808</ele>
        <time>2023-06-04T14:34:50.000Z</time>
      </trkpt>
      <trkpt lat="45.81357" lon="4.63859">
        <ele>470.90854</ele>
        <time>2023-06-04T14:34:52.000Z</time>
      </trkpt>
      <trkpt lat="45.81359" lon="4.63857">
        <ele>470.52594</ele>
        <time>2023-06-04T14:34:54.000Z</time>
      </trkpt>
      <trkpt lat="45.81361" lon="4.63856">
        <ele>470.26361</ele>
        <time>2023-06-04T14:34:55.000Z</time>
      </trkpt>
      <trkpt lat="45.81364" lon="4.63854">
        <ele>469.98358</ele>
        <time>2023-06-04T14:34:57.000Z</time>
      </trkpt>
      <trkpt lat="45.81367" lon="4.63855">
        <ele>469.63965</ele>
        <time>2023-06-04T14:34:59.000Z</time>
      </trkpt>
      <trkpt lat="45.8137" lon="4.63854">
        <ele>469.33554</ele>
        <time>2023-06-04T14:35:02.000Z</time>
      </trkpt>
      <trkpt lat="45.81373" lon="4.63851">
        <ele>469.01431</ele>
        <time>2023-06-04T14:35:03.000Z</time>
      </trkpt>
      <trkpt lat="45.81376" lon="4.63849">
        <ele>468.91498</ele>
        <time>2023-06-04T14:35:04.000Z</time>
      </trkpt>
      <trkpt lat="45.81377" lon="4.63846">
        <ele>468.84229</ele>
        <time>2023-06-04T14:35:05.000Z</time>
      </trkpt>
      <trkpt lat="45.81379" lon="4.63843">
        <ele>468.7381</ele>
        <time>2023-06-04T14:35:07.000Z</time>
      </trkpt>
      <trkpt lat="45.81379" lon="4.63839">
        <ele>468.5661</ele>
        <time>2023-06-04T14:35:09.000Z</time>
      </trkpt>
      <trkpt lat="45.8138" lon="4.63838">
        <ele>468.39508</ele>
        <time>2023-06-04T14:35:10.000Z</time>
      </trkpt>
      <trkpt lat="45.81383" lon="4.63836">
        <ele>468.23529</ele>
        <time>2023-06-04T14:35:11.000Z</time>
      </trkpt>
      <trkpt lat="45.81385" lon="4.63834">
        <ele>468.20184</ele>
        <time>2023-06-04T14:35:12.000Z</time>
      </trkpt>
      <trkpt lat="45.81387" lon="4.63833">
        <ele>468.18451</ele>
        <time>2023-06-04T14:35:13.000Z</time>
      </trkpt>
      <trkpt lat="45.81389" lon="4.63831">
        <ele>468.08902</ele>
        <time>2023-06-04T14:35:14.000Z</time>
      </trkpt>
      <trkpt lat="45.81392" lon="4.6383">
        <ele>468.0687</ele>
        <time>2023-06-04T14:35:16.000Z</time>
      </trkpt>
      <trkpt lat="45.81395" lon="4.63829">
        <ele>468.29034</ele>
        <time>2023-06-04T14:35:17.000Z</time>
      </trkpt>
      <trkpt lat="45.81392" lon="4.6383">
        <ele>468.56635</ele>
        <time>2023-06-04T14:35:21.000Z</time>
      </trkpt>
      <trkpt lat="45.8139" lon="4.63829">
        <ele>468.96307</ele>
        <time>2023-06-04T14:35:25.000Z</time>
      </trkpt>
      <trkpt lat="45.81393" lon="4.63831">
        <ele>469.19394</ele>
        <time>2023-06-04T14:35:31.000Z</time>
      </trkpt>
      <trkpt lat="45.81394" lon="4.63829">
        <ele>469.28174</ele>
        <time>2023-06-04T14:35:33.000Z</time>
      </trkpt>
      <trkpt lat="45.81396" lon="4.63831">
        <ele>469.32895</ele>
        <time>2023-06-04T14:35:41.000Z</time>
      </trkpt>
      <trkpt lat="45.81394" lon="4.63832">
        <ele>469.26276</ele>
        <time>2023-06-04T14:35:44.000Z</time>
      </trkpt>
      <trkpt lat="45.81392" lon="4.63833">
        <ele>469.36456</ele>
        <time>2023-06-04T14:35:45.000Z</time>
      </trkpt>
      <trkpt lat="45.8139" lon="4.63836">
        <ele>469.44165</ele>
        <time>2023-06-04T14:35:46.000Z</time>
      </trkpt>
      <trkpt lat="45.81388" lon="4.63837">
        <ele>469.52155</ele>
        <time>2023-06-04T14:35:47.000Z</time>
      </trkpt>
      <trkpt lat="45.81386" lon="4.63838">
        <ele>469.54288</ele>
        <time>2023-06-04T14:35:48.000Z</time>
      </trkpt>
      <trkpt lat="45.81383" lon="4.6384">
        <ele>469.48047</ele>
        <time>2023-06-04T14:35:49.000Z</time>
      </trkpt>
      <trkpt lat="45.8138" lon="4.63842">
        <ele>469.40997</ele>
        <time>2023-06-04T14:35:50.000Z</time>
      </trkpt>
      <trkpt lat="45.81377" lon="4.63843">
        <ele>469.40668</ele>
        <time>2023-06-04T14:35:51.000Z</time>
      </trkpt>
      <trkpt lat="45.81375" lon="4.63845">
        <ele>469.46918</ele>
        <time>2023-06-04T14:35:52.000Z</time>
      </trkpt>
      <trkpt lat="45.81376" lon="4.63847">
        <ele>469.70425</ele>
        <time>2023-06-04T14:36:01.000Z</time>
      </trkpt>
      <trkpt lat="45.81373" lon="4.63847">
        <ele>469.72528</ele>
        <time>2023-06-04T14:36:05.000Z</time>
      </trkpt>
      <trkpt lat="45.81371" lon="4.63849">
        <ele>469.66757</ele>
        <time>2023-06-04T14:36:06.000Z</time>
      </trkpt>
      <trkpt lat="45.81368" lon="4.63852">
        <ele>469.59003</ele>
        <time>2023-06-04T14:36:07.000Z</time>
      </trkpt>
      <trkpt lat="45.81366" lon="4.63856">
        <ele>469.44888</ele>
        <time>2023-06-04T14:36:08.000Z</time>
      </trkpt>
      <trkpt lat="45.81366" lon="4.63861">
        <ele>469.18326</ele>
        <time>2023-06-04T14:36:09.000Z</time>
      </trkpt>
      <trkpt lat="45.81367" lon="4.63866">
        <ele>468.91815</ele>
        <time>2023-06-04T14:36:10.000Z</time>
      </trkpt>
      <trkpt lat="45.8137" lon="4.63871">
        <ele>468.5174</ele>
        <time>2023-06-04T14:36:11.000Z</time>
      </trkpt>
      <trkpt lat="45.81373" lon="4.63873">
        <ele>468.08832</ele>
        <time>2023-06-04T14:36:12.000Z</time>
      </trkpt>
      <trkpt lat="45.81376" lon="4.63875">
        <ele>467.84619</ele>
        <time>2023-06-04T14:36:13.000Z</time>
      </trkpt>
      <trkpt lat="45.81381" lon="4.63876">
        <ele>467.40594</ele>
        <time>2023-06-04T14:36:14.000Z</time>
      </trkpt>
      <trkpt lat="45.81387" lon="4.63877">
        <ele>467.13531</ele>
        <time>2023-06-04T14:36:15.000Z</time>
      </trkpt>
      <trkpt lat="45.81399" lon="4.63871">
        <ele>466.87378</ele>
        <time>2023-06-04T14:36:16.000Z</time>
      </trkpt>
      <trkpt lat="45.81405" lon="4.63872">
        <ele>466.56476</ele>
        <time>2023-06-04T14:36:17.000Z</time>
      </trkpt>
      <trkpt lat="45.8141" lon="4.63875">
        <ele>466.21381</ele>
        <time>2023-06-04T14:36:18.000Z</time>
      </trkpt>
      <trkpt lat="45.81415" lon="4.63874">
        <ele>465.858</ele>
        <time>2023-06-04T14:36:19.000Z</time>
      </trkpt>
      <trkpt lat="45.81422" lon="4.63878">
        <ele>465.65561</ele>
        <time>2023-06-04T14:36:20.000Z</time>
      </trkpt>
      <trkpt lat="45.81424" lon="4.63881">
        <ele>465.55731</ele>
        <time>2023-06-04T14:36:21.000Z</time>
      </trkpt>
      <trkpt lat="45.81424" lon="4.63888">
        <ele>465.45636</ele>
        <time>2023-06-04T14:36:22.000Z</time>
      </trkpt>
      <trkpt lat="45.81423" lon="4.63894">
        <ele>465.41754</ele>
        <time>2023-06-04T14:36:23.000Z</time>
      </trkpt>
      <trkpt lat="45.81422" lon="4.639">
        <ele>465.29971</ele>
        <time>2023-06-04T14:36:24.000Z</time>
      </trkpt>
      <trkpt lat="45.81422" lon="4.6391">
        <ele>465.2641</ele>
        <time>2023-06-04T14:36:25.000Z</time>
      </trkpt>
      <trkpt lat="45.81419" lon="4.63919">
        <ele>465.30731</ele>
        <time>2023-06-04T14:36:26.000Z</time>
      </trkpt>
      <trkpt lat="45.81419" lon="4.63927">
        <ele>465.427</ele>
        <time>2023-06-04T14:36:27.000Z</time>
      </trkpt>
      <trkpt lat="45.81414" lon="4.63938">
        <ele>465.38629</ele>
        <time>2023-06-04T14:36:28.000Z</time>
      </trkpt>
      <trkpt lat="45.81412" lon="4.63944">
        <ele>465.36337</ele>
        <time>2023-06-04T14:36:29.000Z</time>
      </trkpt>
      <trkpt lat="45.8141" lon="4.63954">
        <ele>465.38495</ele>
        <time>2023-06-04T14:36:30.000Z</time>
      </trkpt>
      <trkpt lat="45.81406" lon="4.63961">
        <ele>465.33368</ele>
        <time>2023-06-04T14:36:31.000Z</time>
      </trkpt>
      <trkpt lat="45.814" lon="4.63969">
        <ele>465.28775</ele>
        <time>2023-06-04T14:36:32.000Z</time>
      </trkpt>
      <trkpt lat="45.81397" lon="4.63975">
        <ele>465.11172</ele>
        <time>2023-06-04T14:36:33.000Z</time>
      </trkpt>
      <trkpt lat="45.81392" lon="4.63983">
        <ele>464.98212</ele>
        <time>2023-06-04T14:36:34.000Z</time>
      </trkpt>
      <trkpt lat="45.8139" lon="4.6399">
        <ele>464.74985</ele>
        <time>2023-06-04T14:36:35.000Z</time>
      </trkpt>
      <trkpt lat="45.81385" lon="4.63992">
        <ele>464.42148</ele>
        <time>2023-06-04T14:36:36.000Z</time>
      </trkpt>
      <trkpt lat="45.81384" lon="4.64">
        <ele>464.15216</ele>
        <time>2023-06-04T14:36:37.000Z</time>
      </trkpt>
      <trkpt lat="45.81386" lon="4.64002">
        <ele>463.9205</ele>
        <time>2023-06-04T14:36:38.000Z</time>
      </trkpt>
      <trkpt lat="45.81387" lon="4.64006">
        <ele>463.60092</ele>
        <time>2023-06-04T14:36:39.000Z</time>
      </trkpt>
      <trkpt lat="45.81388" lon="4.64013">
        <ele>463.23965</ele>
        <time>2023-06-04T14:36:40.000Z</time>
      </trkpt>
      <trkpt lat="45.8139" lon="4.64019">
        <ele>462.81723</ele>
        <time>2023-06-04T14:36:41.000Z</time>
      </trkpt>
      <trkpt lat="45.81393" lon="4.64025">
        <ele>462.30508</ele>
        <time>2023-06-04T14:36:42.000Z</time>
      </trkpt>
      <trkpt lat="45.81399" lon="4.64028">
        <ele>461.68448</ele>
        <time>2023-06-04T14:36:43.000Z</time>
      </trkpt>
      <trkpt lat="45.8141" lon="4.64023">
        <ele>461.04184</ele>
        <time>2023-06-04T14:36:44.000Z</time>
      </trkpt>
      <trkpt lat="45.81413" lon="4.64027">
        <ele>460.58145</ele>
        <time>2023-06-04T14:36:45.000Z</time>
      </trkpt>
      <trkpt lat="45.81413" lon="4.64031">
        <ele>460.11313</ele>
        <time>2023-06-04T14:36:46.000Z</time>
      </trkpt>
      <trkpt lat="45.81419" lon="4.64029">
        <ele>459.461</ele>
        <time>2023-06-04T14:36:47.000Z</time>
      </trkpt>
      <trkpt lat="45.81424" lon="4.64031">
        <ele>458.91153</ele>
        <time>2023-06-04T14:36:48.000Z</time>
      </trkpt>
      <trkpt lat="45.81428" lon="4.64032">
        <ele>458.64063</ele>
        <time>2023-06-04T14:36:49.000Z</time>
      </trkpt>
      <trkpt lat="45.81432" lon="4.64033">
        <ele>458.2749</ele>
        <time>2023-06-04T14:36:50.000Z</time>
      </trkpt>
      <trkpt lat="45.81436" lon="4.64037">
        <ele>457.96747</ele>
        <time>2023-06-04T14:36:51.000Z</time>
      </trkpt>
      <trkpt lat="45.81433" lon="4.64041">
        <ele>457.72943</ele>
        <time>2023-06-04T14:36:52.000Z</time>
      </trkpt>
      <trkpt lat="45.81432" lon="4.64044">
        <ele>455.10092</ele>
        <time>2023-06-04T14:36:54.000Z</time>
      </trkpt>
      <trkpt lat="45.81428" lon="4.64052">
        <ele>454.81464</ele>
        <time>2023-06-04T14:36:55.000Z</time>
      </trkpt>
      <trkpt lat="45.81427" lon="4.64058">
        <ele>454.5542</ele>
        <time>2023-06-04T14:36:56.000Z</time>
      </trkpt>
      <trkpt lat="45.81425" lon="4.64064">
        <ele>454.32578</ele>
        <time>2023-06-04T14:36:57.000Z</time>
      </trkpt>
      <trkpt lat="45.81427" lon="4.64074">
        <ele>454.08301</ele>
        <time>2023-06-04T14:36:58.000Z</time>
      </trkpt>
      <trkpt lat="45.81429" lon="4.64085">
        <ele>453.87787</ele>
        <time>2023-06-04T14:36:59.000Z</time>
      </trkpt>
      <trkpt lat="45.81431" lon="4.64096">
        <ele>451.39536</ele>
        <time>2023-06-04T14:37:00.000Z</time>
      </trkpt>
      <trkpt lat="45.81432" lon="4.64109">
        <ele>451.10391</ele>
        <time>2023-06-04T14:37:01.000Z</time>
      </trkpt>
      <trkpt lat="45.8143" lon="4.64125">
        <ele>450.74628</ele>
        <time>2023-06-04T14:37:02.000Z</time>
      </trkpt>
      <trkpt lat="45.81433" lon="4.64138">
        <ele>450.27515</ele>
        <time>2023-06-04T14:37:03.000Z</time>
      </trkpt>
      <trkpt lat="45.81434" lon="4.6415">
        <ele>449.8205</ele>
        <time>2023-06-04T14:37:04.000Z</time>
      </trkpt>
      <trkpt lat="45.81431" lon="4.64165">
        <ele>449.40283</ele>
        <time>2023-06-04T14:37:05.000Z</time>
      </trkpt>
      <trkpt lat="45.81427" lon="4.64176">
        <ele>448.75211</ele>
        <time>2023-06-04T14:37:06.000Z</time>
      </trkpt>
      <trkpt lat="45.81427" lon="4.64185">
        <ele>448.13007</ele>
        <time>2023-06-04T14:37:07.000Z</time>
      </trkpt>
      <trkpt lat="45.81425" lon="4.64191">
        <ele>447.55634</ele>
        <time>2023-06-04T14:37:08.000Z</time>
      </trkpt>
      <trkpt lat="45.81424" lon="4.642">
        <ele>446.96283</ele>
        <time>2023-06-04T14:37:09.000Z</time>
      </trkpt>
      <trkpt lat="45.81423" lon="4.64211">
        <ele>446.02286</ele>
        <time>2023-06-04T14:37:10.000Z</time>
      </trkpt>
      <trkpt lat="45.81422" lon="4.64222">
        <ele>445.069</ele>
        <time>2023-06-04T14:37:11.000Z</time>
      </trkpt>
      <trkpt lat="45.81419" lon="4.6423">
        <ele>444.07196</ele>
        <time>2023-06-04T14:37:12.000Z</time>
      </trkpt>
      <trkpt lat="45.81417" lon="4.64237">
        <ele>443.07245</ele>
        <time>2023-06-04T14:37:13.000Z</time>
      </trkpt>
      <trkpt lat="45.81416" lon="4.64246">
        <ele>444.73593</ele>
        <time>2023-06-04T14:37:14.000Z</time>
      </trkpt>
      <trkpt lat="45.81413" lon="4.64255">
        <ele>444.12695</ele>
        <time>2023-06-04T14:37:15.000Z</time>
      </trkpt>
      <trkpt lat="45.81411" lon="4.64262">
        <ele>443.5976</ele>
        <time>2023-06-04T14:37:16.000Z</time>
      </trkpt>
      <trkpt lat="45.8141" lon="4.64272">
        <ele>443.14706</ele>
        <time>2023-06-04T14:37:17.000Z</time>
      </trkpt>
      <trkpt lat="45.81408" lon="4.6428">
        <ele>442.71445</ele>
        <time>2023-06-04T14:37:18.000Z</time>
      </trkpt>
      <trkpt lat="45.81406" lon="4.64289">
        <ele>442.31805</ele>
        <time>2023-06-04T14:37:19.000Z</time>
      </trkpt>
      <trkpt lat="45.81397" lon="4.64298">
        <ele>444.64728</ele>
        <time>2023-06-04T14:37:20.000Z</time>
      </trkpt>
      <trkpt lat="45.81401" lon="4.64303">
        <ele>444.71338</ele>
        <time>2023-06-04T14:37:21.000Z</time>
      </trkpt>
      <trkpt lat="45.81403" lon="4.64304">
        <ele>444.91495</ele>
        <time>2023-06-04T14:37:22.000Z</time>
      </trkpt>
      <trkpt lat="45.81404" lon="4.64312">
        <ele>445.31747</ele>
        <time>2023-06-04T14:37:23.000Z</time>
      </trkpt>
      <trkpt lat="45.81408" lon="4.64318">
        <ele>445.79535</ele>
        <time>2023-06-04T14:37:24.000Z</time>
      </trkpt>
      <trkpt lat="45.81419" lon="4.64327">
        <ele>446.01947</ele>
        <time>2023-06-04T14:37:25.000Z</time>
      </trkpt>
      <trkpt lat="45.81429" lon="4.64338">
        <ele>446.33951</ele>
        <time>2023-06-04T14:37:26.000Z</time>
      </trkpt>
      <trkpt lat="45.81436" lon="4.64344">
        <ele>446.73926</ele>
        <time>2023-06-04T14:37:27.000Z</time>
      </trkpt>
      <trkpt lat="45.8144" lon="4.64352">
        <ele>447.03424</ele>
        <time>2023-06-04T14:37:28.000Z</time>
      </trkpt>
      <trkpt lat="45.81446" lon="4.64359">
        <ele>447.62442</ele>
        <time>2023-06-04T14:37:29.000Z</time>
      </trkpt>
      <trkpt lat="45.81449" lon="4.64365">
        <ele>448.17059</ele>
        <time>2023-06-04T14:37:30.000Z</time>
      </trkpt>
      <trkpt lat="45.81447" lon="4.64373">
        <ele>448.13483</ele>
        <time>2023-06-04T14:37:31.000Z</time>
      </trkpt>
      <trkpt lat="45.81448" lon="4.64383">
        <ele>448.45181</ele>
        <time>2023-06-04T14:37:32.000Z</time>
      </trkpt>
      <trkpt lat="45.81448" lon="4.64392">
        <ele>448.78848</ele>
        <time>2023-06-04T14:37:33.000Z</time>
      </trkpt>
      <trkpt lat="45.81445" lon="4.64396">
        <ele>448.63339</ele>
        <time>2023-06-04T14:37:34.000Z</time>
      </trkpt>
      <trkpt lat="45.81445" lon="4.64405">
        <ele>448.44678</ele>
        <time>2023-06-04T14:37:35.000Z</time>
      </trkpt>
      <trkpt lat="45.81445" lon="4.64409">
        <ele>448.19208</ele>
        <time>2023-06-04T14:37:36.000Z</time>
      </trkpt>
      <trkpt lat="45.81443" lon="4.64412">
        <ele>447.78629</ele>
        <time>2023-06-04T14:37:37.000Z</time>
      </trkpt>
      <trkpt lat="45.81441" lon="4.64415">
        <ele>447.89191</ele>
        <time>2023-06-04T14:37:38.000Z</time>
      </trkpt>
      <trkpt lat="45.81439" lon="4.64418">
        <ele>447.9787</ele>
        <time>2023-06-04T14:37:39.000Z</time>
      </trkpt>
      <trkpt lat="45.81437" lon="4.6442">
        <ele>447.73941</ele>
        <time>2023-06-04T14:37:40.000Z</time>
      </trkpt>
      <trkpt lat="45.81435" lon="4.64427">
        <ele>447.49048</ele>
        <time>2023-06-04T14:37:41.000Z</time>
      </trkpt>
      <trkpt lat="45.81436" lon="4.64432">
        <ele>447.16498</ele>
        <time>2023-06-04T14:37:42.000Z</time>
      </trkpt>
      <trkpt lat="45.81435" lon="4.64436">
        <ele>445.18561</ele>
        <time>2023-06-04T14:37:43.000Z</time>
      </trkpt>
      <trkpt lat="45.81433" lon="4.6444">
        <ele>444.67487</ele>
        <time>2023-06-04T14:37:44.000Z</time>
      </trkpt>
      <trkpt lat="45.81432" lon="4.64443">
        <ele>444.33258</ele>
        <time>2023-06-04T14:37:45.000Z</time>
      </trkpt>
      <trkpt lat="45.8143" lon="4.64447">
        <ele>442.47769</ele>
        <time>2023-06-04T14:37:46.000Z</time>
      </trkpt>
      <trkpt lat="45.81429" lon="4.64451">
        <ele>440.49649</ele>
        <time>2023-06-04T14:37:47.000Z</time>
      </trkpt>
      <trkpt lat="45.81428" lon="4.64455">
        <ele>438.73648</ele>
        <time>2023-06-04T14:37:48.000Z</time>
      </trkpt>
      <trkpt lat="45.81429" lon="4.64458">
        <ele>436.86362</ele>
        <time>2023-06-04T14:37:49.000Z</time>
      </trkpt>
      <trkpt lat="45.81428" lon="4.64463">
        <ele>435.03784</ele>
        <time>2023-06-04T14:37:50.000Z</time>
      </trkpt>
      <trkpt lat="45.81427" lon="4.64469">
        <ele>433.81186</ele>
        <time>2023-06-04T14:37:51.000Z</time>
      </trkpt>
      <trkpt lat="45.81426" lon="4.64474">
        <ele>432.37988</ele>
        <time>2023-06-04T14:37:52.000Z</time>
      </trkpt>
      <trkpt lat="45.81425" lon="4.64479">
        <ele>430.84561</ele>
        <time>2023-06-04T14:37:53.000Z</time>
      </trkpt>
      <trkpt lat="45.81424" lon="4.64484">
        <ele>429.58755</ele>
        <time>2023-06-04T14:37:54.000Z</time>
      </trkpt>
      <trkpt lat="45.81422" lon="4.64489">
        <ele>428.35016</ele>
        <time>2023-06-04T14:37:55.000Z</time>
      </trkpt>
      <trkpt lat="45.8142" lon="4.64492">
        <ele>427.03229</ele>
        <time>2023-06-04T14:37:56.000Z</time>
      </trkpt>
      <trkpt lat="45.81418" lon="4.64496">
        <ele>425.81818</ele>
        <time>2023-06-04T14:37:57.000Z</time>
      </trkpt>
      <trkpt lat="45.81417" lon="4.645">
        <ele>424.04474</ele>
        <time>2023-06-04T14:37:58.000Z</time>
      </trkpt>
      <trkpt lat="45.81415" lon="4.64505">
        <ele>422.27383</ele>
        <time>2023-06-04T14:37:59.000Z</time>
      </trkpt>
      <trkpt lat="45.81413" lon="4.6451">
        <ele>420.46045</ele>
        <time>2023-06-04T14:38:00.000Z</time>
      </trkpt>
      <trkpt lat="45.81411" lon="4.64514">
        <ele>418.68073</ele>
        <time>2023-06-04T14:38:01.000Z</time>
      </trkpt>
      <trkpt lat="45.81403" lon="4.64521">
        <ele>416.91473</ele>
        <time>2023-06-04T14:38:02.000Z</time>
      </trkpt>
      <trkpt lat="45.81403" lon="4.64527">
        <ele>416.84967</ele>
        <time>2023-06-04T14:38:03.000Z</time>
      </trkpt>
      <trkpt lat="45.81403" lon="4.64532">
        <ele>415.23419</ele>
        <time>2023-06-04T14:38:04.000Z</time>
      </trkpt>
      <trkpt lat="45.81403" lon="4.6454">
        <ele>413.67764</ele>
        <time>2023-06-04T14:38:06.000Z</time>
      </trkpt>
      <trkpt lat="45.81404" lon="4.64544">
        <ele>413.58282</ele>
        <time>2023-06-04T14:38:07.000Z</time>
      </trkpt>
      <trkpt lat="45.81405" lon="4.64546">
        <ele>413.55087</ele>
        <time>2023-06-04T14:38:08.000Z</time>
      </trkpt>
      <trkpt lat="45.81404" lon="4.6455">
        <ele>413.55316</ele>
        <time>2023-06-04T14:38:09.000Z</time>
      </trkpt>
      <trkpt lat="45.814" lon="4.64552">
        <ele>413.42603</ele>
        <time>2023-06-04T14:38:10.000Z</time>
      </trkpt>
      <trkpt lat="45.81398" lon="4.64553">
        <ele>413.32373</ele>
        <time>2023-06-04T14:38:11.000Z</time>
      </trkpt>
      <trkpt lat="45.81398" lon="4.64556">
        <ele>413.19302</ele>
        <time>2023-06-04T14:38:12.000Z</time>
      </trkpt>
      <trkpt lat="45.81398" lon="4.64561">
        <ele>412.93683</ele>
        <time>2023-06-04T14:38:14.000Z</time>
      </trkpt>
      <trkpt lat="45.81399" lon="4.64566">
        <ele>412.81561</ele>
        <time>2023-06-04T14:38:15.000Z</time>
      </trkpt>
      <trkpt lat="45.81401" lon="4.64571">
        <ele>412.72687</ele>
        <time>2023-06-04T14:38:16.000Z</time>
      </trkpt>
      <trkpt lat="45.81402" lon="4.64575">
        <ele>412.64484</ele>
        <time>2023-06-04T14:38:17.000Z</time>
      </trkpt>
      <trkpt lat="45.81405" lon="4.6458">
        <ele>412.63916</ele>
        <time>2023-06-04T14:38:18.000Z</time>
      </trkpt>
      <trkpt lat="45.81411" lon="4.64585">
        <ele>412.62711</ele>
        <time>2023-06-04T14:38:19.000Z</time>
      </trkpt>
      <trkpt lat="45.81416" lon="4.64589">
        <ele>412.67285</ele>
        <time>2023-06-04T14:38:20.000Z</time>
      </trkpt>
      <trkpt lat="45.81419" lon="4.64592">
        <ele>412.62646</ele>
        <time>2023-06-04T14:38:21.000Z</time>
      </trkpt>
      <trkpt lat="45.81421" lon="4.64594">
        <ele>412.56192</ele>
        <time>2023-06-04T14:38:22.000Z</time>
      </trkpt>
      <trkpt lat="45.81422" lon="4.64598">
        <ele>412.4444</ele>
        <time>2023-06-04T14:38:23.000Z</time>
      </trkpt>
      <trkpt lat="45.8142" lon="4.646">
        <ele>412.31192</ele>
        <time>2023-06-04T14:38:24.000Z</time>
      </trkpt>
      <trkpt lat="45.81419" lon="4.64603">
        <ele>412.11554</ele>
        <time>2023-06-04T14:38:25.000Z</time>
      </trkpt>
      <trkpt lat="45.81416" lon="4.64604">
        <ele>411.95035</ele>
        <time>2023-06-04T14:38:26.000Z</time>
      </trkpt>
      <trkpt lat="45.8141" lon="4.64607">
        <ele>411.71698</ele>
        <time>2023-06-04T14:38:27.000Z</time>
      </trkpt>
      <trkpt lat="45.81404" lon="4.64609">
        <ele>411.48065</ele>
        <time>2023-06-04T14:38:28.000Z</time>
      </trkpt>
      <trkpt lat="45.81401" lon="4.64611">
        <ele>411.17032</ele>
        <time>2023-06-04T14:38:29.000Z</time>
      </trkpt>
      <trkpt lat="45.81398" lon="4.64613">
        <ele>410.84335</ele>
        <time>2023-06-04T14:38:30.000Z</time>
      </trkpt>
      <trkpt lat="45.81392" lon="4.64612">
        <ele>410.48773</ele>
        <time>2023-06-04T14:38:31.000Z</time>
      </trkpt>
      <trkpt lat="45.81386" lon="4.64613">
        <ele>410.18344</ele>
        <time>2023-06-04T14:38:32.000Z</time>
      </trkpt>
      <trkpt lat="45.81379" lon="4.64619">
        <ele>409.96149</ele>
        <time>2023-06-04T14:38:33.000Z</time>
      </trkpt>
      <trkpt lat="45.81373" lon="4.64622">
        <ele>409.88165</ele>
        <time>2023-06-04T14:38:34.000Z</time>
      </trkpt>
      <trkpt lat="45.81368" lon="4.64624">
        <ele>409.86197</ele>
        <time>2023-06-04T14:38:35.000Z</time>
      </trkpt>
      <trkpt lat="45.81364" lon="4.64631">
        <ele>409.59265</ele>
        <time>2023-06-04T14:38:37.000Z</time>
      </trkpt>
      <trkpt lat="45.81367" lon="4.64616">
        <ele>409.41904</ele>
        <time>2023-06-04T14:38:38.000Z</time>
      </trkpt>
      <trkpt lat="45.81365" lon="4.64622">
        <ele>409.27515</ele>
        <time>2023-06-04T14:38:39.000Z</time>
      </trkpt>
      <trkpt lat="45.81362" lon="4.6463">
        <ele>409.09796</ele>
        <time>2023-06-04T14:38:40.000Z</time>
      </trkpt>
      <trkpt lat="45.81356" lon="4.64636">
        <ele>408.90887</ele>
        <time>2023-06-04T14:38:41.000Z</time>
      </trkpt>
      <trkpt lat="45.81354" lon="4.64637">
        <ele>408.68964</ele>
        <time>2023-06-04T14:38:43.000Z</time>
      </trkpt>
      <trkpt lat="45.81349" lon="4.64644">
        <ele>408.5416</ele>
        <time>2023-06-04T14:38:44.000Z</time>
      </trkpt>
      <trkpt lat="45.81347" lon="4.64653">
        <ele>408.51138</ele>
        <time>2023-06-04T14:38:45.000Z</time>
      </trkpt>
      <trkpt lat="45.81343" lon="4.64668">
        <ele>408.52432</ele>
        <time>2023-06-04T14:38:46.000Z</time>
      </trkpt>
      <trkpt lat="45.81335" lon="4.64677">
        <ele>408.50293</ele>
        <time>2023-06-04T14:38:47.000Z</time>
      </trkpt>
      <trkpt lat="45.81331" lon="4.64685">
        <ele>408.4267</ele>
        <time>2023-06-04T14:38:48.000Z</time>
      </trkpt>
      <trkpt lat="45.81328" lon="4.64692">
        <ele>408.35406</ele>
        <time>2023-06-04T14:38:49.000Z</time>
      </trkpt>
      <trkpt lat="45.81326" lon="4.64702">
        <ele>408.38406</ele>
        <time>2023-06-04T14:38:50.000Z</time>
      </trkpt>
      <trkpt lat="45.81326" lon="4.64709">
        <ele>408.54404</ele>
        <time>2023-06-04T14:38:51.000Z</time>
      </trkpt>
      <trkpt lat="45.81321" lon="4.64719">
        <ele>408.73322</ele>
        <time>2023-06-04T14:38:52.000Z</time>
      </trkpt>
      <trkpt lat="45.81317" lon="4.64729">
        <ele>408.94351</ele>
        <time>2023-06-04T14:38:53.000Z</time>
      </trkpt>
      <trkpt lat="45.81307" lon="4.64737">
        <ele>409.0704</ele>
        <time>2023-06-04T14:38:54.000Z</time>
      </trkpt>
      <trkpt lat="45.81305" lon="4.64741">
        <ele>409.03998</ele>
        <time>2023-06-04T14:38:55.000Z</time>
      </trkpt>
      <trkpt lat="45.81302" lon="4.64749">
        <ele>408.86447</ele>
        <time>2023-06-04T14:38:56.000Z</time>
      </trkpt>
      <trkpt lat="45.81301" lon="4.64756">
        <ele>408.61603</ele>
        <time>2023-06-04T14:38:57.000Z</time>
      </trkpt>
      <trkpt lat="45.81297" lon="4.64763">
        <ele>408.62564</ele>
        <time>2023-06-04T14:38:58.000Z</time>
      </trkpt>
      <trkpt lat="45.81292" lon="4.6477">
        <ele>408.60904</ele>
        <time>2023-06-04T14:38:59.000Z</time>
      </trkpt>
      <trkpt lat="45.81289" lon="4.64774">
        <ele>408.62653</ele>
        <time>2023-06-04T14:39:00.000Z</time>
      </trkpt>
      <trkpt lat="45.81285" lon="4.64783">
        <ele>408.67264</ele>
        <time>2023-06-04T14:39:01.000Z</time>
      </trkpt>
      <trkpt lat="45.81281" lon="4.64791">
        <ele>408.72787</ele>
        <time>2023-06-04T14:39:02.000Z</time>
      </trkpt>
      <trkpt lat="45.81275" lon="4.64802">
        <ele>408.90738</ele>
        <time>2023-06-04T14:39:03.000Z</time>
      </trkpt>
      <trkpt lat="45.81274" lon="4.6481">
        <ele>408.99603</ele>
        <time>2023-06-04T14:39:04.000Z</time>
      </trkpt>
      <trkpt lat="45.81266" lon="4.64812">
        <ele>408.91214</ele>
        <time>2023-06-04T14:39:05.000Z</time>
      </trkpt>
      <trkpt lat="45.81263" lon="4.64813">
        <ele>408.90948</ele>
        <time>2023-06-04T14:39:06.000Z</time>
      </trkpt>
      <trkpt lat="45.8126" lon="4.64803">
        <ele>409.0358</ele>
        <time>2023-06-04T14:39:07.000Z</time>
      </trkpt>
      <trkpt lat="45.81254" lon="4.64803">
        <ele>408.98276</ele>
        <time>2023-06-04T14:39:08.000Z</time>
      </trkpt>
      <trkpt lat="45.81244" lon="4.64795">
        <ele>408.98083</ele>
        <time>2023-06-04T14:39:09.000Z</time>
      </trkpt>
      <trkpt lat="45.81237" lon="4.64793">
        <ele>408.89264</ele>
        <time>2023-06-04T14:39:10.000Z</time>
      </trkpt>
      <trkpt lat="45.81231" lon="4.64792">
        <ele>408.9231</ele>
        <time>2023-06-04T14:39:11.000Z</time>
      </trkpt>
      <trkpt lat="45.81227" lon="4.64796">
        <ele>408.73135</ele>
        <time>2023-06-04T14:39:13.000Z</time>
      </trkpt>
      <trkpt lat="45.81224" lon="4.64802">
        <ele>408.56824</ele>
        <time>2023-06-04T14:39:14.000Z</time>
      </trkpt>
      <trkpt lat="45.81221" lon="4.64806">
        <ele>408.52368</ele>
        <time>2023-06-04T14:39:15.000Z</time>
      </trkpt>
      <trkpt lat="45.81219" lon="4.64804">
        <ele>408.10455</ele>
        <time>2023-06-04T14:39:16.000Z</time>
      </trkpt>
      <trkpt lat="45.81211" lon="4.64806">
        <ele>407.72702</ele>
        <time>2023-06-04T14:39:17.000Z</time>
      </trkpt>
      <trkpt lat="45.81208" lon="4.6481">
        <ele>407.37506</ele>
        <time>2023-06-04T14:39:19.000Z</time>
      </trkpt>
      <trkpt lat="45.81204" lon="4.64814">
        <ele>406.83453</ele>
        <time>2023-06-04T14:39:20.000Z</time>
      </trkpt>
      <trkpt lat="45.81201" lon="4.64816">
        <ele>406.22177</ele>
        <time>2023-06-04T14:39:21.000Z</time>
      </trkpt>
      <trkpt lat="45.81196" lon="4.64821">
        <ele>405.52005</ele>
        <time>2023-06-04T14:39:22.000Z</time>
      </trkpt>
      <trkpt lat="45.81195" lon="4.64822">
        <ele>405.11533</ele>
        <time>2023-06-04T14:39:23.000Z</time>
      </trkpt>
      <trkpt lat="45.81194" lon="4.64827">
        <ele>404.72781</ele>
        <time>2023-06-04T14:39:24.000Z</time>
      </trkpt>
      <trkpt lat="45.81194" lon="4.64834">
        <ele>404.31482</ele>
        <time>2023-06-04T14:39:25.000Z</time>
      </trkpt>
      <trkpt lat="45.81191" lon="4.6484">
        <ele>403.94046</ele>
        <time>2023-06-04T14:39:26.000Z</time>
      </trkpt>
      <trkpt lat="45.81187" lon="4.64845">
        <ele>403.52557</ele>
        <time>2023-06-04T14:39:27.000Z</time>
      </trkpt>
      <trkpt lat="45.81184" lon="4.64851">
        <ele>402.99042</ele>
        <time>2023-06-04T14:39:28.000Z</time>
      </trkpt>
      <trkpt lat="45.81184" lon="4.64855">
        <ele>402.42081</ele>
        <time>2023-06-04T14:39:29.000Z</time>
      </trkpt>
      <trkpt lat="45.81183" lon="4.6486">
        <ele>402.09943</ele>
        <time>2023-06-04T14:39:30.000Z</time>
      </trkpt>
      <trkpt lat="45.81182" lon="4.64866">
        <ele>401.68753</ele>
        <time>2023-06-04T14:39:31.000Z</time>
      </trkpt>
      <trkpt lat="45.8118" lon="4.64872">
        <ele>401.27325</ele>
        <time>2023-06-04T14:39:32.000Z</time>
      </trkpt>
      <trkpt lat="45.81178" lon="4.64878">
        <ele>400.85791</ele>
        <time>2023-06-04T14:39:33.000Z</time>
      </trkpt>
      <trkpt lat="45.81176" lon="4.64884">
        <ele>400.94305</ele>
        <time>2023-06-04T14:39:34.000Z</time>
      </trkpt>
      <trkpt lat="45.81171" lon="4.64896">
        <ele>401.00232</ele>
        <time>2023-06-04T14:39:35.000Z</time>
      </trkpt>
      <trkpt lat="45.81174" lon="4.64898">
        <ele>400.68921</ele>
        <time>2023-06-04T14:39:36.000Z</time>
      </trkpt>
      <trkpt lat="45.81171" lon="4.64903">
        <ele>400.84164</ele>
        <time>2023-06-04T14:39:37.000Z</time>
      </trkpt>
      <trkpt lat="45.8117" lon="4.64909">
        <ele>400.97675</ele>
        <time>2023-06-04T14:39:38.000Z</time>
      </trkpt>
      <trkpt lat="45.81166" lon="4.64916">
        <ele>400.99786</ele>
        <time>2023-06-04T14:39:39.000Z</time>
      </trkpt>
      <trkpt lat="45.81166" lon="4.64922">
        <ele>401.21222</ele>
        <time>2023-06-04T14:39:40.000Z</time>
      </trkpt>
      <trkpt lat="45.81166" lon="4.64928">
        <ele>401.384</ele>
        <time>2023-06-04T14:39:41.000Z</time>
      </trkpt>
      <trkpt lat="45.81161" lon="4.64942">
        <ele>401.60617</ele>
        <time>2023-06-04T14:39:42.000Z</time>
      </trkpt>
      <trkpt lat="45.81159" lon="4.64956">
        <ele>401.49152</ele>
        <time>2023-06-04T14:39:43.000Z</time>
      </trkpt>
      <trkpt lat="45.81157" lon="4.64966">
        <ele>401.25082</ele>
        <time>2023-06-04T14:39:44.000Z</time>
      </trkpt>
      <trkpt lat="45.81153" lon="4.64971">
        <ele>400.72504</ele>
        <time>2023-06-04T14:39:46.000Z</time>
      </trkpt>
      <trkpt lat="45.81156" lon="4.64978">
        <ele>400.1416</ele>
        <time>2023-06-04T14:39:47.000Z</time>
      </trkpt>
      <trkpt lat="45.81157" lon="4.64982">
        <ele>399.63385</ele>
        <time>2023-06-04T14:39:48.000Z</time>
      </trkpt>
      <trkpt lat="45.81159" lon="4.64991">
        <ele>399.10858</ele>
        <time>2023-06-04T14:39:49.000Z</time>
      </trkpt>
      <trkpt lat="45.81159" lon="4.64999">
        <ele>398.50381</ele>
        <time>2023-06-04T14:39:50.000Z</time>
      </trkpt>
      <trkpt lat="45.81157" lon="4.65005">
        <ele>397.94757</ele>
        <time>2023-06-04T14:39:51.000Z</time>
      </trkpt>
      <trkpt lat="45.81158" lon="4.65012">
        <ele>397.47028</ele>
        <time>2023-06-04T14:39:52.000Z</time>
      </trkpt>
      <trkpt lat="45.81161" lon="4.65015">
        <ele>397.1156</ele>
        <time>2023-06-04T14:39:53.000Z</time>
      </trkpt>
      <trkpt lat="45.81167" lon="4.65024">
        <ele>396.62628</ele>
        <time>2023-06-04T14:39:54.000Z</time>
      </trkpt>
      <trkpt lat="45.81172" lon="4.65028">
        <ele>395.91522</ele>
        <time>2023-06-04T14:39:55.000Z</time>
      </trkpt>
      <trkpt lat="45.81174" lon="4.65033">
        <ele>395.13391</ele>
        <time>2023-06-04T14:39:56.000Z</time>
      </trkpt>
      <trkpt lat="45.81175" lon="4.65036">
        <ele>394.60779</ele>
        <time>2023-06-04T14:39:57.000Z</time>
      </trkpt>
      <trkpt lat="45.81177" lon="4.65038">
        <ele>394.02512</ele>
        <time>2023-06-04T14:39:58.000Z</time>
      </trkpt>
      <trkpt lat="45.8118" lon="4.6504">
        <ele>393.4288</ele>
        <time>2023-06-04T14:39:59.000Z</time>
      </trkpt>
      <trkpt lat="45.81182" lon="4.65046">
        <ele>392.85809</ele>
        <time>2023-06-04T14:40:00.000Z</time>
      </trkpt>
      <trkpt lat="45.81181" lon="4.65051">
        <ele>392.37003</ele>
        <time>2023-06-04T14:40:01.000Z</time>
      </trkpt>
      <trkpt lat="45.81184" lon="4.65052">
        <ele>391.97571</ele>
        <time>2023-06-04T14:40:02.000Z</time>
      </trkpt>
      <trkpt lat="45.81187" lon="4.65055">
        <ele>391.48407</ele>
        <time>2023-06-04T14:40:03.000Z</time>
      </trkpt>
      <trkpt lat="45.81189" lon="4.65058">
        <ele>391.11581</ele>
        <time>2023-06-04T14:40:04.000Z</time>
      </trkpt>
      <trkpt lat="45.81192" lon="4.65062">
        <ele>390.8952</ele>
        <time>2023-06-04T14:40:05.000Z</time>
      </trkpt>
      <trkpt lat="45.81195" lon="4.65065">
        <ele>391.01791</ele>
        <time>2023-06-04T14:40:06.000Z</time>
      </trkpt>
      <trkpt lat="45.81198" lon="4.65068">
        <ele>391.18625</ele>
        <time>2023-06-04T14:40:07.000Z</time>
      </trkpt>
      <trkpt lat="45.812" lon="4.65072">
        <ele>391.46533</ele>
        <time>2023-06-04T14:40:08.000Z</time>
      </trkpt>
      <trkpt lat="45.81202" lon="4.65076">
        <ele>391.58609</ele>
        <time>2023-06-04T14:40:09.000Z</time>
      </trkpt>
      <trkpt lat="45.81204" lon="4.6508">
        <ele>391.62726</ele>
        <time>2023-06-04T14:40:10.000Z</time>
      </trkpt>
      <trkpt lat="45.81207" lon="4.65083">
        <ele>391.57867</ele>
        <time>2023-06-04T14:40:11.000Z</time>
      </trkpt>
      <trkpt lat="45.81209" lon="4.65087">
        <ele>391.52362</ele>
        <time>2023-06-04T14:40:12.000Z</time>
      </trkpt>
      <trkpt lat="45.81212" lon="4.6509">
        <ele>391.41022</ele>
        <time>2023-06-04T14:40:13.000Z</time>
      </trkpt>
      <trkpt lat="45.81216" lon="4.65095">
        <ele>391.33649</ele>
        <time>2023-06-04T14:40:14.000Z</time>
      </trkpt>
      <trkpt lat="45.81219" lon="4.651">
        <ele>391.29712</ele>
        <time>2023-06-04T14:40:15.000Z</time>
      </trkpt>
      <trkpt lat="45.81227" lon="4.65111">
        <ele>390.93628</ele>
        <time>2023-06-04T14:40:16.000Z</time>
      </trkpt>
      <trkpt lat="45.8123" lon="4.65117">
        <ele>390.75073</ele>
        <time>2023-06-04T14:40:18.000Z</time>
      </trkpt>
      <trkpt lat="45.81233" lon="4.65121">
        <ele>390.5838</ele>
        <time>2023-06-04T14:40:19.000Z</time>
      </trkpt>
      <trkpt lat="45.81239" lon="4.65127">
        <ele>390.47412</ele>
        <time>2023-06-04T14:40:21.000Z</time>
      </trkpt>
      <trkpt lat="45.81243" lon="4.65133">
        <ele>390.42361</ele>
        <time>2023-06-04T14:40:22.000Z</time>
      </trkpt>
      <trkpt lat="45.81244" lon="4.65139">
        <ele>390.29819</ele>
        <time>2023-06-04T14:40:23.000Z</time>
      </trkpt>
      <trkpt lat="45.81246" lon="4.65141">
        <ele>390.13541</ele>
        <time>2023-06-04T14:40:24.000Z</time>
      </trkpt>
      <trkpt lat="45.8125" lon="4.65144">
        <ele>390.15912</ele>
        <time>2023-06-04T14:40:25.000Z</time>
      </trkpt>
      <trkpt lat="45.81253" lon="4.65148">
        <ele>389.98203</ele>
        <time>2023-06-04T14:40:26.000Z</time>
      </trkpt>
      <trkpt lat="45.81256" lon="4.65153">
        <ele>389.70059</ele>
        <time>2023-06-04T14:40:27.000Z</time>
      </trkpt>
      <trkpt lat="45.81259" lon="4.65158">
        <ele>389.50256</ele>
        <time>2023-06-04T14:40:28.000Z</time>
      </trkpt>
      <trkpt lat="45.81262" lon="4.65162">
        <ele>389.32175</ele>
        <time>2023-06-04T14:40:29.000Z</time>
      </trkpt>
      <trkpt lat="45.81264" lon="4.65167">
        <ele>389.03415</ele>
        <time>2023-06-04T14:40:30.000Z</time>
      </trkpt>
      <trkpt lat="45.81266" lon="4.65171">
        <ele>388.86688</ele>
        <time>2023-06-04T14:40:31.000Z</time>
      </trkpt>
      <trkpt lat="45.81268" lon="4.65175">
        <ele>388.93494</ele>
        <time>2023-06-04T14:40:32.000Z</time>
      </trkpt>
      <trkpt lat="45.81271" lon="4.65179">
        <ele>388.69312</ele>
        <time>2023-06-04T14:40:33.000Z</time>
      </trkpt>
      <trkpt lat="45.81273" lon="4.65184">
        <ele>388.58453</ele>
        <time>2023-06-04T14:40:34.000Z</time>
      </trkpt>
      <trkpt lat="45.81275" lon="4.65188">
        <ele>388.46664</ele>
        <time>2023-06-04T14:40:35.000Z</time>
      </trkpt>
      <trkpt lat="45.81282" lon="4.65193">
        <ele>388.40994</ele>
        <time>2023-06-04T14:40:36.000Z</time>
      </trkpt>
      <trkpt lat="45.81285" lon="4.65199">
        <ele>388.21698</ele>
        <time>2023-06-04T14:40:37.000Z</time>
      </trkpt>
      <trkpt lat="45.81288" lon="4.65202">
        <ele>388.36456</ele>
        <time>2023-06-04T14:40:38.000Z</time>
      </trkpt>
      <trkpt lat="45.8129" lon="4.65207">
        <ele>388.56738</ele>
        <time>2023-06-04T14:40:39.000Z</time>
      </trkpt>
      <trkpt lat="45.81293" lon="4.65211">
        <ele>388.80902</ele>
        <time>2023-06-04T14:40:40.000Z</time>
      </trkpt>
      <trkpt lat="45.81297" lon="4.65211">
        <ele>389.04813</ele>
        <time>2023-06-04T14:40:41.000Z</time>
      </trkpt>
      <trkpt lat="45.81302" lon="4.65219">
        <ele>389.14481</ele>
        <time>2023-06-04T14:40:42.000Z</time>
      </trkpt>
      <trkpt lat="45.81304" lon="4.65226">
        <ele>389.28424</ele>
        <time>2023-06-04T14:40:43.000Z</time>
      </trkpt>
      <trkpt lat="45.81305" lon="4.65232">
        <ele>389.44305</ele>
        <time>2023-06-04T14:40:44.000Z</time>
      </trkpt>
      <trkpt lat="45.8131" lon="4.65236">
        <ele>389.48126</ele>
        <time>2023-06-04T14:40:46.000Z</time>
      </trkpt>
      <trkpt lat="45.81313" lon="4.65243">
        <ele>389.67627</ele>
        <time>2023-06-04T14:40:47.000Z</time>
      </trkpt>
      <trkpt lat="45.81316" lon="4.65248">
        <ele>390.04639</ele>
        <time>2023-06-04T14:40:48.000Z</time>
      </trkpt>
      <trkpt lat="45.8132" lon="4.65254">
        <ele>390.26599</ele>
        <time>2023-06-04T14:40:49.000Z</time>
      </trkpt>
      <trkpt lat="45.81323" lon="4.65258">
        <ele>390.52097</ele>
        <time>2023-06-04T14:40:50.000Z</time>
      </trkpt>
      <trkpt lat="45.81327" lon="4.65261">
        <ele>390.71991</ele>
        <time>2023-06-04T14:40:51.000Z</time>
      </trkpt>
      <trkpt lat="45.81333" lon="4.65268">
        <ele>390.97516</ele>
        <time>2023-06-04T14:40:52.000Z</time>
      </trkpt>
      <trkpt lat="45.81339" lon="4.6527">
        <ele>391.24997</ele>
        <time>2023-06-04T14:40:53.000Z</time>
      </trkpt>
      <trkpt lat="45.81345" lon="4.65279">
        <ele>391.92053</ele>
        <time>2023-06-04T14:40:54.000Z</time>
      </trkpt>
      <trkpt lat="45.81348" lon="4.65282">
        <ele>392.48764</ele>
        <time>2023-06-04T14:40:55.000Z</time>
      </trkpt>
      <trkpt lat="45.81353" lon="4.65286">
        <ele>393.09076</ele>
        <time>2023-06-04T14:40:56.000Z</time>
      </trkpt>
      <trkpt lat="45.81355" lon="4.65291">
        <ele>393.36154</ele>
        <time>2023-06-04T14:40:57.000Z</time>
      </trkpt>
      <trkpt lat="45.81358" lon="4.65297">
        <ele>393.1998</ele>
        <time>2023-06-04T14:40:58.000Z</time>
      </trkpt>
      <trkpt lat="45.81363" lon="4.65302">
        <ele>393.20767</ele>
        <time>2023-06-04T14:40:59.000Z</time>
      </trkpt>
      <trkpt lat="45.81365" lon="4.65301">
        <ele>393.08252</ele>
        <time>2023-06-04T14:41:00.000Z</time>
      </trkpt>
      <trkpt lat="45.81366" lon="4.65306">
        <ele>392.96674</ele>
        <time>2023-06-04T14:41:01.000Z</time>
      </trkpt>
      <trkpt lat="45.81363" lon="4.65306">
        <ele>392.82993</ele>
        <time>2023-06-04T14:41:02.000Z</time>
      </trkpt>
      <trkpt lat="45.81368" lon="4.65309">
        <ele>392.83353</ele>
        <time>2023-06-04T14:41:04.000Z</time>
      </trkpt>
      <trkpt lat="45.8137" lon="4.65304">
        <ele>392.57651</ele>
        <time>2023-06-04T14:41:06.000Z</time>
      </trkpt>
      <trkpt lat="45.81371" lon="4.653">
        <ele>392.58777</ele>
        <time>2023-06-04T14:41:08.000Z</time>
      </trkpt>
      <trkpt lat="45.81365" lon="4.653">
        <ele>392.60938</ele>
        <time>2023-06-04T14:41:09.000Z</time>
      </trkpt>
      <trkpt lat="45.81365" lon="4.65296">
        <ele>392.35504</ele>
        <time>2023-06-04T14:41:11.000Z</time>
      </trkpt>
      <trkpt lat="45.81368" lon="4.65294">
        <ele>391.79236</ele>
        <time>2023-06-04T14:41:13.000Z</time>
      </trkpt>
      <trkpt lat="45.81371" lon="4.65294">
        <ele>391.39813</ele>
        <time>2023-06-04T14:41:14.000Z</time>
      </trkpt>
      <trkpt lat="45.81374" lon="4.65295">
        <ele>391.04852</ele>
        <time>2023-06-04T14:41:15.000Z</time>
      </trkpt>
      <trkpt lat="45.81379" lon="4.65297">
        <ele>390.74814</ele>
        <time>2023-06-04T14:41:16.000Z</time>
      </trkpt>
      <trkpt lat="45.81387" lon="4.65302">
        <ele>390.30487</ele>
        <time>2023-06-04T14:41:17.000Z</time>
      </trkpt>
      <trkpt lat="45.81392" lon="4.65306">
        <ele>389.71771</ele>
        <time>2023-06-04T14:41:18.000Z</time>
      </trkpt>
      <trkpt lat="45.81398" lon="4.6531">
        <ele>389.02753</ele>
        <time>2023-06-04T14:41:19.000Z</time>
      </trkpt>
      <trkpt lat="45.81404" lon="4.65313">
        <ele>388.37518</ele>
        <time>2023-06-04T14:41:20.000Z</time>
      </trkpt>
      <trkpt lat="45.8141" lon="4.65318">
        <ele>387.63708</ele>
        <time>2023-06-04T14:41:21.000Z</time>
      </trkpt>
      <trkpt lat="45.81417" lon="4.65326">
        <ele>387.05109</ele>
        <time>2023-06-04T14:41:22.000Z</time>
      </trkpt>
      <trkpt lat="45.81423" lon="4.65329">
        <ele>387.08121</ele>
        <time>2023-06-04T14:41:23.000Z</time>
      </trkpt>
      <trkpt lat="45.81428" lon="4.65331">
        <ele>386.90875</ele>
        <time>2023-06-04T14:41:24.000Z</time>
      </trkpt>
      <trkpt lat="45.81436" lon="4.65336">
        <ele>386.75351</ele>
        <time>2023-06-04T14:41:25.000Z</time>
      </trkpt>
      <trkpt lat="45.81441" lon="4.65336">
        <ele>386.58521</ele>
        <time>2023-06-04T14:41:26.000Z</time>
      </trkpt>
      <trkpt lat="45.81448" lon="4.65339">
        <ele>386.37518</ele>
        <time>2023-06-04T14:41:27.000Z</time>
      </trkpt>
      <trkpt lat="45.81454" lon="4.65348">
        <ele>386.20358</ele>
        <time>2023-06-04T14:41:28.000Z</time>
      </trkpt>
      <trkpt lat="45.81461" lon="4.6535">
        <ele>386.1911</ele>
        <time>2023-06-04T14:41:29.000Z</time>
      </trkpt>
      <trkpt lat="45.81469" lon="4.65356">
        <ele>385.70432</ele>
        <time>2023-06-04T14:41:30.000Z</time>
      </trkpt>
      <trkpt lat="45.81474" lon="4.6536">
        <ele>385.30475</ele>
        <time>2023-06-04T14:41:31.000Z</time>
      </trkpt>
      <trkpt lat="45.81479" lon="4.65367">
        <ele>385.05875</ele>
        <time>2023-06-04T14:41:32.000Z</time>
      </trkpt>
      <trkpt lat="45.81481" lon="4.65369">
        <ele>385.12784</ele>
        <time>2023-06-04T14:41:33.000Z</time>
      </trkpt>
      <trkpt lat="45.81486" lon="4.65375">
        <ele>385.05499</ele>
        <time>2023-06-04T14:41:34.000Z</time>
      </trkpt>
      <trkpt lat="45.81492" lon="4.65385">
        <ele>385.05679</ele>
        <time>2023-06-04T14:41:35.000Z</time>
      </trkpt>
      <trkpt lat="45.81496" lon="4.65385">
        <ele>385.29468</ele>
        <time>2023-06-04T14:41:36.000Z</time>
      </trkpt>
      <trkpt lat="45.81506" lon="4.65396">
        <ele>385.7579</ele>
        <time>2023-06-04T14:41:37.000Z</time>
      </trkpt>
      <trkpt lat="45.81509" lon="4.65402">
        <ele>385.69366</ele>
        <time>2023-06-04T14:41:38.000Z</time>
      </trkpt>
      <trkpt lat="45.81514" lon="4.65409">
        <ele>385.78937</ele>
        <time>2023-06-04T14:41:39.000Z</time>
      </trkpt>
      <trkpt lat="45.81521" lon="4.65414">
        <ele>385.65594</ele>
        <time>2023-06-04T14:41:40.000Z</time>
      </trkpt>
      <trkpt lat="45.81525" lon="4.65417">
        <ele>385.78717</ele>
        <time>2023-06-04T14:41:41.000Z</time>
      </trkpt>
      <trkpt lat="45.81529" lon="4.6542">
        <ele>386.10126</ele>
        <time>2023-06-04T14:41:42.000Z</time>
      </trkpt>
      <trkpt lat="45.81529" lon="4.65428">
        <ele>386.24182</ele>
        <time>2023-06-04T14:41:43.000Z</time>
      </trkpt>
      <trkpt lat="45.81533" lon="4.65437">
        <ele>386.46426</ele>
        <time>2023-06-04T14:41:45.000Z</time>
      </trkpt>
      <trkpt lat="45.81533" lon="4.6544">
        <ele>386.67206</ele>
        <time>2023-06-04T14:41:46.000Z</time>
      </trkpt>
      <trkpt lat="45.81535" lon="4.65443">
        <ele>386.98056</ele>
        <time>2023-06-04T14:41:47.000Z</time>
      </trkpt>
      <trkpt lat="45.81539" lon="4.65445">
        <ele>387.37479</ele>
        <time>2023-06-04T14:41:48.000Z</time>
      </trkpt>
      <trkpt lat="45.8154" lon="4.65453">
        <ele>387.4361</ele>
        <time>2023-06-04T14:41:49.000Z</time>
      </trkpt>
      <trkpt lat="45.81543" lon="4.65457">
        <ele>387.19278</ele>
        <time>2023-06-04T14:41:50.000Z</time>
      </trkpt>
      <trkpt lat="45.81545" lon="4.65466">
        <ele>386.9566</ele>
        <time>2023-06-04T14:41:51.000Z</time>
      </trkpt>
      <trkpt lat="45.81544" lon="4.65475">
        <ele>386.50897</ele>
        <time>2023-06-04T14:41:52.000Z</time>
      </trkpt>
      <trkpt lat="45.81542" lon="4.65479">
        <ele>386.23889</ele>
        <time>2023-06-04T14:41:53.000Z</time>
      </trkpt>
      <trkpt lat="45.81543" lon="4.65485">
        <ele>385.93762</ele>
        <time>2023-06-04T14:41:54.000Z</time>
      </trkpt>
      <trkpt lat="45.81546" lon="4.65486">
        <ele>385.52591</ele>
        <time>2023-06-04T14:41:55.000Z</time>
      </trkpt>
      <trkpt lat="45.81547" lon="4.65493">
        <ele>385.03848</ele>
        <time>2023-06-04T14:41:56.000Z</time>
      </trkpt>
      <trkpt lat="45.81552" lon="4.65497">
        <ele>384.39709</ele>
        <time>2023-06-04T14:41:57.000Z</time>
      </trkpt>
      <trkpt lat="45.81554" lon="4.65501">
        <ele>383.37692</ele>
        <time>2023-06-04T14:41:58.000Z</time>
      </trkpt>
      <trkpt lat="45.81553" lon="4.65506">
        <ele>382.97</ele>
        <time>2023-06-04T14:41:59.000Z</time>
      </trkpt>
      <trkpt lat="45.81549" lon="4.65514">
        <ele>382.41306</ele>
        <time>2023-06-04T14:42:01.000Z</time>
      </trkpt>
      <trkpt lat="45.81551" lon="4.65517">
        <ele>382.1257</ele>
        <time>2023-06-04T14:42:02.000Z</time>
      </trkpt>
      <trkpt lat="45.81555" lon="4.65528">
        <ele>381.82916</ele>
        <time>2023-06-04T14:42:04.000Z</time>
      </trkpt>
      <trkpt lat="45.81555" lon="4.65537">
        <ele>381.22705</ele>
        <time>2023-06-04T14:42:05.000Z</time>
      </trkpt>
      <trkpt lat="45.81551" lon="4.65542">
        <ele>380.78598</ele>
        <time>2023-06-04T14:42:06.000Z</time>
      </trkpt>
      <trkpt lat="45.81553" lon="4.65546">
        <ele>380.57327</ele>
        <time>2023-06-04T14:42:07.000Z</time>
      </trkpt>
      <trkpt lat="45.81555" lon="4.65542">
        <ele>380.2543</ele>
        <time>2023-06-04T14:42:08.000Z</time>
      </trkpt>
      <trkpt lat="45.81557" lon="4.65546">
        <ele>379.80917</ele>
        <time>2023-06-04T14:42:09.000Z</time>
      </trkpt>
      <trkpt lat="45.81556" lon="4.65553">
        <ele>379.25702</ele>
        <time>2023-06-04T14:42:10.000Z</time>
      </trkpt>
      <trkpt lat="45.8156" lon="4.65561">
        <ele>378.94833</ele>
        <time>2023-06-04T14:42:11.000Z</time>
      </trkpt>
      <trkpt lat="45.81563" lon="4.65568">
        <ele>378.85727</ele>
        <time>2023-06-04T14:42:12.000Z</time>
      </trkpt>
      <trkpt lat="45.81563" lon="4.65574">
        <ele>379.01074</ele>
        <time>2023-06-04T14:42:13.000Z</time>
      </trkpt>
      <trkpt lat="45.81564" lon="4.65579">
        <ele>379.25055</ele>
        <time>2023-06-04T14:42:14.000Z</time>
      </trkpt>
      <trkpt lat="45.81564" lon="4.65583">
        <ele>379.41965</ele>
        <time>2023-06-04T14:42:15.000Z</time>
      </trkpt>
      <trkpt lat="45.81563" lon="4.65587">
        <ele>379.59302</ele>
        <time>2023-06-04T14:42:16.000Z</time>
      </trkpt>
      <trkpt lat="45.81562" lon="4.65594">
        <ele>379.7872</ele>
        <time>2023-06-04T14:42:17.000Z</time>
      </trkpt>
      <trkpt lat="45.81563" lon="4.65599">
        <ele>379.96744</ele>
        <time>2023-06-04T14:42:18.000Z</time>
      </trkpt>
      <trkpt lat="45.81563" lon="4.65604">
        <ele>380.18964</ele>
        <time>2023-06-04T14:42:19.000Z</time>
      </trkpt>
      <trkpt lat="45.81564" lon="4.65609">
        <ele>380.81894</ele>
        <time>2023-06-04T14:42:20.000Z</time>
      </trkpt>
      <trkpt lat="45.81564" lon="4.65614">
        <ele>381.43893</ele>
        <time>2023-06-04T14:42:21.000Z</time>
      </trkpt>
      <trkpt lat="45.81564" lon="4.65618">
        <ele>382.07822</ele>
        <time>2023-06-04T14:42:22.000Z</time>
      </trkpt>
      <trkpt lat="45.81565" lon="4.65623">
        <ele>382.69482</ele>
        <time>2023-06-04T14:42:23.000Z</time>
      </trkpt>
      <trkpt lat="45.81568" lon="4.65635">
        <ele>382.96707</ele>
        <time>2023-06-04T14:42:24.000Z</time>
      </trkpt>
      <trkpt lat="45.81569" lon="4.65642">
        <ele>383.59735</ele>
        <time>2023-06-04T14:42:26.000Z</time>
      </trkpt>
      <trkpt lat="45.81567" lon="4.65646">
        <ele>383.99164</ele>
        <time>2023-06-04T14:42:27.000Z</time>
      </trkpt>
      <trkpt lat="45.8156" lon="4.6565">
        <ele>383.97809</ele>
        <time>2023-06-04T14:42:28.000Z</time>
      </trkpt>
      <trkpt lat="45.81554" lon="4.65653">
        <ele>384.11676</ele>
        <time>2023-06-04T14:42:29.000Z</time>
      </trkpt>
      <trkpt lat="45.81558" lon="4.65658">
        <ele>384.50452</ele>
        <time>2023-06-04T14:42:30.000Z</time>
      </trkpt>
      <trkpt lat="45.8156" lon="4.65663">
        <ele>384.90387</ele>
        <time>2023-06-04T14:42:31.000Z</time>
      </trkpt>
      <trkpt lat="45.81559" lon="4.65667">
        <ele>385.42026</ele>
        <time>2023-06-04T14:42:32.000Z</time>
      </trkpt>
      <trkpt lat="45.81558" lon="4.65671">
        <ele>385.91754</ele>
        <time>2023-06-04T14:42:33.000Z</time>
      </trkpt>
      <trkpt lat="45.81558" lon="4.65677">
        <ele>386.23035</ele>
        <time>2023-06-04T14:42:34.000Z</time>
      </trkpt>
      <trkpt lat="45.81558" lon="4.65682">
        <ele>386.61932</ele>
        <time>2023-06-04T14:42:35.000Z</time>
      </trkpt>
      <trkpt lat="45.81558" lon="4.65687">
        <ele>387.16754</ele>
        <time>2023-06-04T14:42:36.000Z</time>
      </trkpt>
      <trkpt lat="45.81558" lon="4.65691">
        <ele>387.66278</ele>
        <time>2023-06-04T14:42:37.000Z</time>
      </trkpt>
      <trkpt lat="45.81558" lon="4.65696">
        <ele>387.86166</ele>
        <time>2023-06-04T14:42:38.000Z</time>
      </trkpt>
      <trkpt lat="45.81557" lon="4.657">
        <ele>388.06317</ele>
        <time>2023-06-04T14:42:39.000Z</time>
      </trkpt>
      <trkpt lat="45.81556" lon="4.65704">
        <ele>388.12543</ele>
        <time>2023-06-04T14:42:40.000Z</time>
      </trkpt>
      <trkpt lat="45.81555" lon="4.6571">
        <ele>388.05591</ele>
        <time>2023-06-04T14:42:41.000Z</time>
      </trkpt>
      <trkpt lat="45.81554" lon="4.65715">
        <ele>387.94452</ele>
        <time>2023-06-04T14:42:42.000Z</time>
      </trkpt>
      <trkpt lat="45.81554" lon="4.65721">
        <ele>387.86786</ele>
        <time>2023-06-04T14:42:43.000Z</time>
      </trkpt>
      <trkpt lat="45.81555" lon="4.65725">
        <ele>387.64172</ele>
        <time>2023-06-04T14:42:44.000Z</time>
      </trkpt>
      <trkpt lat="45.81556" lon="4.6573">
        <ele>387.70349</ele>
        <time>2023-06-04T14:42:45.000Z</time>
      </trkpt>
      <trkpt lat="45.81557" lon="4.65734">
        <ele>387.49323</ele>
        <time>2023-06-04T14:42:46.000Z</time>
      </trkpt>
      <trkpt lat="45.81557" lon="4.65738">
        <ele>387.35461</ele>
        <time>2023-06-04T14:42:47.000Z</time>
      </trkpt>
      <trkpt lat="45.81558" lon="4.65742">
        <ele>387.37558</ele>
        <time>2023-06-04T14:42:48.000Z</time>
      </trkpt>
      <trkpt lat="45.81558" lon="4.65745">
        <ele>387.30524</ele>
        <time>2023-06-04T14:42:49.000Z</time>
      </trkpt>
      <trkpt lat="45.8156" lon="4.65747">
        <ele>387.01974</ele>
        <time>2023-06-04T14:42:50.000Z</time>
      </trkpt>
      <trkpt lat="45.81562" lon="4.65751">
        <ele>386.79199</ele>
        <time>2023-06-04T14:42:51.000Z</time>
      </trkpt>
      <trkpt lat="45.81563" lon="4.65754">
        <ele>386.59805</ele>
        <time>2023-06-04T14:42:52.000Z</time>
      </trkpt>
      <trkpt lat="45.81564" lon="4.65759">
        <ele>386.51129</ele>
        <time>2023-06-04T14:42:53.000Z</time>
      </trkpt>
      <trkpt lat="45.81564" lon="4.65763">
        <ele>386.51709</ele>
        <time>2023-06-04T14:42:54.000Z</time>
      </trkpt>
      <trkpt lat="45.81565" lon="4.65768">
        <ele>386.54044</ele>
        <time>2023-06-04T14:42:55.000Z</time>
      </trkpt>
      <trkpt lat="45.81566" lon="4.65771">
        <ele>386.39316</ele>
        <time>2023-06-04T14:42:56.000Z</time>
      </trkpt>
      <trkpt lat="45.81566" lon="4.65774">
        <ele>386.21786</ele>
        <time>2023-06-04T14:42:57.000Z</time>
      </trkpt>
      <trkpt lat="45.81566" lon="4.65777">
        <ele>386.55954</ele>
        <time>2023-06-04T14:42:58.000Z</time>
      </trkpt>
      <trkpt lat="45.81565" lon="4.6578">
        <ele>386.80167</ele>
        <time>2023-06-04T14:42:59.000Z</time>
      </trkpt>
      <trkpt lat="45.81564" lon="4.65781">
        <ele>387.09561</ele>
        <time>2023-06-04T14:43:00.000Z</time>
      </trkpt>
      <trkpt lat="45.81562" lon="4.65782">
        <ele>387.63248</ele>
        <time>2023-06-04T14:43:01.000Z</time>
      </trkpt>
      <trkpt lat="45.8156" lon="4.65784">
        <ele>388.33725</ele>
        <time>2023-06-04T14:43:02.000Z</time>
      </trkpt>
      <trkpt lat="45.81558" lon="4.65785">
        <ele>388.75079</ele>
        <time>2023-06-04T14:43:03.000Z</time>
      </trkpt>
      <trkpt lat="45.81557" lon="4.65789">
        <ele>389.39218</ele>
        <time>2023-06-04T14:43:04.000Z</time>
      </trkpt>
      <trkpt lat="45.81557" lon="4.65793">
        <ele>389.92197</ele>
        <time>2023-06-04T14:43:05.000Z</time>
      </trkpt>
      <trkpt lat="45.81557" lon="4.65798">
        <ele>390.50659</ele>
        <time>2023-06-04T14:43:06.000Z</time>
      </trkpt>
      <trkpt lat="45.81558" lon="4.65802">
        <ele>391.03946</ele>
        <time>2023-06-04T14:43:07.000Z</time>
      </trkpt>
      <trkpt lat="45.81559" lon="4.65806">
        <ele>391.63889</ele>
        <time>2023-06-04T14:43:08.000Z</time>
      </trkpt>
      <trkpt lat="45.81559" lon="4.6581">
        <ele>392.22586</ele>
        <time>2023-06-04T14:43:09.000Z</time>
      </trkpt>
      <trkpt lat="45.81561" lon="4.65814">
        <ele>392.89362</ele>
        <time>2023-06-04T14:43:10.000Z</time>
      </trkpt>
      <trkpt lat="45.81563" lon="4.65818">
        <ele>393.48907</ele>
        <time>2023-06-04T14:43:11.000Z</time>
      </trkpt>
      <trkpt lat="45.81565" lon="4.65822">
        <ele>393.88297</ele>
        <time>2023-06-04T14:43:12.000Z</time>
      </trkpt>
      <trkpt lat="45.81566" lon="4.65827">
        <ele>394.30038</ele>
        <time>2023-06-04T14:43:13.000Z</time>
      </trkpt>
      <trkpt lat="45.81567" lon="4.65831">
        <ele>394.71622</ele>
        <time>2023-06-04T14:43:14.000Z</time>
      </trkpt>
      <trkpt lat="45.81568" lon="4.65834">
        <ele>395.29608</ele>
        <time>2023-06-04T14:43:15.000Z</time>
      </trkpt>
      <trkpt lat="45.81568" lon="4.65838">
        <ele>395.85767</ele>
        <time>2023-06-04T14:43:16.000Z</time>
      </trkpt>
      <trkpt lat="45.81568" lon="4.65841">
        <ele>396.39948</ele>
        <time>2023-06-04T14:43:17.000Z</time>
      </trkpt>
      <trkpt lat="45.81568" lon="4.65844">
        <ele>396.78006</ele>
        <time>2023-06-04T14:43:18.000Z</time>
      </trkpt>
      <trkpt lat="45.81568" lon="4.65847">
        <ele>397.33035</ele>
        <time>2023-06-04T14:43:19.000Z</time>
      </trkpt>
      <trkpt lat="45.81569" lon="4.65852">
        <ele>397.9093</ele>
        <time>2023-06-04T14:43:20.000Z</time>
      </trkpt>
      <trkpt lat="45.81569" lon="4.65855">
        <ele>398.27045</ele>
        <time>2023-06-04T14:43:21.000Z</time>
      </trkpt>
      <trkpt lat="45.81568" lon="4.65859">
        <ele>398.50238</ele>
        <time>2023-06-04T14:43:22.000Z</time>
      </trkpt>
      <trkpt lat="45.81568" lon="4.65862">
        <ele>398.88779</ele>
        <time>2023-06-04T14:43:23.000Z</time>
      </trkpt>
      <trkpt lat="45.81569" lon="4.65865">
        <ele>399.09393</ele>
        <time>2023-06-04T14:43:24.000Z</time>
      </trkpt>
      <trkpt lat="45.81569" lon="4.65869">
        <ele>399.20868</ele>
        <time>2023-06-04T14:43:25.000Z</time>
      </trkpt>
      <trkpt lat="45.8157" lon="4.65872">
        <ele>399.32181</ele>
        <time>2023-06-04T14:43:26.000Z</time>
      </trkpt>
      <trkpt lat="45.8157" lon="4.65876">
        <ele>399.31628</ele>
        <time>2023-06-04T14:43:27.000Z</time>
      </trkpt>
      <trkpt lat="45.81569" lon="4.65879">
        <ele>399.28729</ele>
        <time>2023-06-04T14:43:28.000Z</time>
      </trkpt>
      <trkpt lat="45.81569" lon="4.65884">
        <ele>399.04553</ele>
        <time>2023-06-04T14:43:29.000Z</time>
      </trkpt>
      <trkpt lat="45.81569" lon="4.65889">
        <ele>398.79019</ele>
        <time>2023-06-04T14:43:30.000Z</time>
      </trkpt>
      <trkpt lat="45.81568" lon="4.65894">
        <ele>398.49054</ele>
        <time>2023-06-04T14:43:31.000Z</time>
      </trkpt>
      <trkpt lat="45.81568" lon="4.65898">
        <ele>398.2131</ele>
        <time>2023-06-04T14:43:32.000Z</time>
      </trkpt>
      <trkpt lat="45.81568" lon="4.65903">
        <ele>397.87024</ele>
        <time>2023-06-04T14:43:33.000Z</time>
      </trkpt>
      <trkpt lat="45.81569" lon="4.65908">
        <ele>397.56821</ele>
        <time>2023-06-04T14:43:34.000Z</time>
      </trkpt>
      <trkpt lat="45.81569" lon="4.65912">
        <ele>397.04001</ele>
        <time>2023-06-04T14:43:35.000Z</time>
      </trkpt>
      <trkpt lat="45.8157" lon="4.65917">
        <ele>396.50479</ele>
        <time>2023-06-04T14:43:36.000Z</time>
      </trkpt>
      <trkpt lat="45.8157" lon="4.65922">
        <ele>396.00397</ele>
        <time>2023-06-04T14:43:37.000Z</time>
      </trkpt>
      <trkpt lat="45.8157" lon="4.65927">
        <ele>395.5192</ele>
        <time>2023-06-04T14:43:38.000Z</time>
      </trkpt>
      <trkpt lat="45.81569" lon="4.65932">
        <ele>394.9303</ele>
        <time>2023-06-04T14:43:39.000Z</time>
      </trkpt>
      <trkpt lat="45.81569" lon="4.65937">
        <ele>394.28827</ele>
        <time>2023-06-04T14:43:40.000Z</time>
      </trkpt>
      <trkpt lat="45.81569" lon="4.65943">
        <ele>393.64529</ele>
        <time>2023-06-04T14:43:41.000Z</time>
      </trkpt>
      <trkpt lat="45.8157" lon="4.65948">
        <ele>392.97055</ele>
        <time>2023-06-04T14:43:42.000Z</time>
      </trkpt>
      <trkpt lat="45.8157" lon="4.65953">
        <ele>392.43671</ele>
        <time>2023-06-04T14:43:43.000Z</time>
      </trkpt>
      <trkpt lat="45.81571" lon="4.65959">
        <ele>391.56152</ele>
        <time>2023-06-04T14:43:44.000Z</time>
      </trkpt>
      <trkpt lat="45.81571" lon="4.65964">
        <ele>390.71884</ele>
        <time>2023-06-04T14:43:45.000Z</time>
      </trkpt>
      <trkpt lat="45.81571" lon="4.65969">
        <ele>389.87314</ele>
        <time>2023-06-04T14:43:46.000Z</time>
      </trkpt>
      <trkpt lat="45.81571" lon="4.65973">
        <ele>389.17636</ele>
        <time>2023-06-04T14:43:47.000Z</time>
      </trkpt>
      <trkpt lat="45.81572" lon="4.65976">
        <ele>388.54501</ele>
        <time>2023-06-04T14:43:48.000Z</time>
      </trkpt>
      <trkpt lat="45.81572" lon="4.65981">
        <ele>388.20679</ele>
        <time>2023-06-04T14:43:50.000Z</time>
      </trkpt>
      <trkpt lat="45.81573" lon="4.65985">
        <ele>387.80688</ele>
        <time>2023-06-04T14:43:51.000Z</time>
      </trkpt>
      <trkpt lat="45.81573" lon="4.6599">
        <ele>387.47354</ele>
        <time>2023-06-04T14:43:52.000Z</time>
      </trkpt>
      <trkpt lat="45.81574" lon="4.65995">
        <ele>387.21198</ele>
        <time>2023-06-04T14:43:53.000Z</time>
      </trkpt>
      <trkpt lat="45.81575" lon="4.66">
        <ele>386.99921</ele>
        <time>2023-06-04T14:43:54.000Z</time>
      </trkpt>
      <trkpt lat="45.81576" lon="4.66005">
        <ele>386.74887</ele>
        <time>2023-06-04T14:43:55.000Z</time>
      </trkpt>
      <trkpt lat="45.81577" lon="4.6601">
        <ele>386.51221</ele>
        <time>2023-06-04T14:43:56.000Z</time>
      </trkpt>
      <trkpt lat="45.81578" lon="4.66018">
        <ele>386.23428</ele>
        <time>2023-06-04T14:43:57.000Z</time>
      </trkpt>
      <trkpt lat="45.81579" lon="4.66025">
        <ele>385.8974</ele>
        <time>2023-06-04T14:43:58.000Z</time>
      </trkpt>
      <trkpt lat="45.81579" lon="4.66032">
        <ele>385.54434</ele>
        <time>2023-06-04T14:43:59.000Z</time>
      </trkpt>
      <trkpt lat="45.81583" lon="4.6604">
        <ele>385.20514</ele>
        <time>2023-06-04T14:44:00.000Z</time>
      </trkpt>
      <trkpt lat="45.81588" lon="4.66046">
        <ele>384.88257</ele>
        <time>2023-06-04T14:44:01.000Z</time>
      </trkpt>
      <trkpt lat="45.81589" lon="4.66056">
        <ele>384.57974</ele>
        <time>2023-06-04T14:44:02.000Z</time>
      </trkpt>
      <trkpt lat="45.81586" lon="4.66065">
        <ele>384.19461</ele>
        <time>2023-06-04T14:44:03.000Z</time>
      </trkpt>
      <trkpt lat="45.81593" lon="4.66069">
        <ele>383.7532</ele>
        <time>2023-06-04T14:44:04.000Z</time>
      </trkpt>
      <trkpt lat="45.81596" lon="4.66078">
        <ele>383.66241</ele>
        <time>2023-06-04T14:44:05.000Z</time>
      </trkpt>
      <trkpt lat="45.81599" lon="4.66087">
        <ele>383.54556</ele>
        <time>2023-06-04T14:44:06.000Z</time>
      </trkpt>
      <trkpt lat="45.816" lon="4.66093">
        <ele>383.40201</ele>
        <time>2023-06-04T14:44:07.000Z</time>
      </trkpt>
      <trkpt lat="45.81602" lon="4.66102">
        <ele>383.7291</ele>
        <time>2023-06-04T14:44:08.000Z</time>
      </trkpt>
      <trkpt lat="45.8161" lon="4.66105">
        <ele>383.95377</ele>
        <time>2023-06-04T14:44:09.000Z</time>
      </trkpt>
      <trkpt lat="45.81616" lon="4.66107">
        <ele>384.18848</ele>
        <time>2023-06-04T14:44:10.000Z</time>
      </trkpt>
      <trkpt lat="45.81612" lon="4.66113">
        <ele>384.47324</ele>
        <time>2023-06-04T14:44:11.000Z</time>
      </trkpt>
      <trkpt lat="45.8161" lon="4.66115">
        <ele>384.84631</ele>
        <time>2023-06-04T14:44:12.000Z</time>
      </trkpt>
      <trkpt lat="45.81603" lon="4.66114">
        <ele>385.2569</ele>
        <time>2023-06-04T14:44:13.000Z</time>
      </trkpt>
      <trkpt lat="45.81596" lon="4.66112">
        <ele>385.56671</ele>
        <time>2023-06-04T14:44:14.000Z</time>
      </trkpt>
      <trkpt lat="45.81592" lon="4.66112">
        <ele>385.94598</ele>
        <time>2023-06-04T14:44:16.000Z</time>
      </trkpt>
      <trkpt lat="45.81589" lon="4.66111">
        <ele>386.38809</ele>
        <time>2023-06-04T14:44:17.000Z</time>
      </trkpt>
      <trkpt lat="45.81586" lon="4.66111">
        <ele>386.90784</ele>
        <time>2023-06-04T14:44:18.000Z</time>
      </trkpt>
      <trkpt lat="45.81583" lon="4.66111">
        <ele>387.52481</ele>
        <time>2023-06-04T14:44:19.000Z</time>
      </trkpt>
      <trkpt lat="45.81578" lon="4.6611">
        <ele>388.18216</ele>
        <time>2023-06-04T14:44:20.000Z</time>
      </trkpt>
      <trkpt lat="45.81576" lon="4.66111">
        <ele>388.8497</ele>
        <time>2023-06-04T14:44:21.000Z</time>
      </trkpt>
      <trkpt lat="45.81575" lon="4.66105">
        <ele>389.81104</ele>
        <time>2023-06-04T14:44:22.000Z</time>
      </trkpt>
      <trkpt lat="45.81577" lon="4.66107">
        <ele>390.80914</ele>
        <time>2023-06-04T14:44:25.000Z</time>
      </trkpt>
      <trkpt lat="45.8158" lon="4.66109">
        <ele>391.69775</ele>
        <time>2023-06-04T14:44:26.000Z</time>
      </trkpt>
      <trkpt lat="45.81582" lon="4.66111">
        <ele>392.59528</ele>
        <time>2023-06-04T14:44:27.000Z</time>
      </trkpt>
      <trkpt lat="45.81585" lon="4.66112">
        <ele>393.51376</ele>
        <time>2023-06-04T14:44:28.000Z</time>
      </trkpt>
      <trkpt lat="45.8159" lon="4.66114">
        <ele>394.45978</ele>
        <time>2023-06-04T14:44:29.000Z</time>
      </trkpt>
      <trkpt lat="45.81595" lon="4.66114">
        <ele>395.55988</ele>
        <time>2023-06-04T14:44:30.000Z</time>
      </trkpt>
      <trkpt lat="45.816" lon="4.66114">
        <ele>396.08392</ele>
        <time>2023-06-04T14:44:31.000Z</time>
      </trkpt>
      <trkpt lat="45.81613" lon="4.6611">
        <ele>396.59064</ele>
        <time>2023-06-04T14:44:32.000Z</time>
      </trkpt>
      <trkpt lat="45.81619" lon="4.66114">
        <ele>397.03424</ele>
        <time>2023-06-04T14:44:33.000Z</time>
      </trkpt>
      <trkpt lat="45.81626" lon="4.66122">
        <ele>397.42294</ele>
        <time>2023-06-04T14:44:34.000Z</time>
      </trkpt>
      <trkpt lat="45.81629" lon="4.66127">
        <ele>397.82538</ele>
        <time>2023-06-04T14:44:35.000Z</time>
      </trkpt>
      <trkpt lat="45.81632" lon="4.66132">
        <ele>398.07739</ele>
        <time>2023-06-04T14:44:36.000Z</time>
      </trkpt>
      <trkpt lat="45.81635" lon="4.66139">
        <ele>398.38675</ele>
        <time>2023-06-04T14:44:37.000Z</time>
      </trkpt>
      <trkpt lat="45.8164" lon="4.66145">
        <ele>398.69965</ele>
        <time>2023-06-04T14:44:38.000Z</time>
      </trkpt>
      <trkpt lat="45.81645" lon="4.66152">
        <ele>399.20642</ele>
        <time>2023-06-04T14:44:39.000Z</time>
      </trkpt>
      <trkpt lat="45.81653" lon="4.66158">
        <ele>399.49219</ele>
        <time>2023-06-04T14:44:40.000Z</time>
      </trkpt>
      <trkpt lat="45.81656" lon="4.66164">
        <ele>399.51874</ele>
        <time>2023-06-04T14:44:41.000Z</time>
      </trkpt>
      <trkpt lat="45.81664" lon="4.66168">
        <ele>399.77484</ele>
        <time>2023-06-04T14:44:42.000Z</time>
      </trkpt>
      <trkpt lat="45.81663" lon="4.66178">
        <ele>399.99908</ele>
        <time>2023-06-04T14:44:43.000Z</time>
      </trkpt>
      <trkpt lat="45.81664" lon="4.66189">
        <ele>399.61453</ele>
        <time>2023-06-04T14:44:44.000Z</time>
      </trkpt>
      <trkpt lat="45.81666" lon="4.66195">
        <ele>399.40503</ele>
        <time>2023-06-04T14:44:45.000Z</time>
      </trkpt>
      <trkpt lat="45.81669" lon="4.66203">
        <ele>399.27032</ele>
        <time>2023-06-04T14:44:46.000Z</time>
      </trkpt>
      <trkpt lat="45.81664" lon="4.6621">
        <ele>399.00278</ele>
        <time>2023-06-04T14:44:47.000Z</time>
      </trkpt>
      <trkpt lat="45.81659" lon="4.66214">
        <ele>398.75137</ele>
        <time>2023-06-04T14:44:48.000Z</time>
      </trkpt>
      <trkpt lat="45.81654" lon="4.6622">
        <ele>398.38287</ele>
        <time>2023-06-04T14:44:49.000Z</time>
      </trkpt>
      <trkpt lat="45.81648" lon="4.66222">
        <ele>397.94009</ele>
        <time>2023-06-04T14:44:50.000Z</time>
      </trkpt>
      <trkpt lat="45.81644" lon="4.66219">
        <ele>397.61157</ele>
        <time>2023-06-04T14:44:51.000Z</time>
      </trkpt>
      <trkpt lat="45.81638" lon="4.66222">
        <ele>397.38458</ele>
        <time>2023-06-04T14:44:52.000Z</time>
      </trkpt>
      <trkpt lat="45.81636" lon="4.66227">
        <ele>397.06979</ele>
        <time>2023-06-04T14:44:53.000Z</time>
      </trkpt>
      <trkpt lat="45.81633" lon="4.66231">
        <ele>396.7099</ele>
        <time>2023-06-04T14:44:54.000Z</time>
      </trkpt>
      <trkpt lat="45.81627" lon="4.66228">
        <ele>396.32205</ele>
        <time>2023-06-04T14:44:55.000Z</time>
      </trkpt>
      <trkpt lat="45.81621" lon="4.66228">
        <ele>396.01477</ele>
        <time>2023-06-04T14:44:56.000Z</time>
      </trkpt>
      <trkpt lat="45.81617" lon="4.66232">
        <ele>395.75726</ele>
        <time>2023-06-04T14:44:57.000Z</time>
      </trkpt>
      <trkpt lat="45.81611" lon="4.66236">
        <ele>395.44135</ele>
        <time>2023-06-04T14:44:58.000Z</time>
      </trkpt>
      <trkpt lat="45.81608" lon="4.66236">
        <ele>395.05524</ele>
        <time>2023-06-04T14:44:59.000Z</time>
      </trkpt>
      <trkpt lat="45.81602" lon="4.66238">
        <ele>394.83502</ele>
        <time>2023-06-04T14:45:00.000Z</time>
      </trkpt>
      <trkpt lat="45.81596" lon="4.66238">
        <ele>394.67834</ele>
        <time>2023-06-04T14:45:01.000Z</time>
      </trkpt>
      <trkpt lat="45.81591" lon="4.6624">
        <ele>394.39749</ele>
        <time>2023-06-04T14:45:02.000Z</time>
      </trkpt>
      <trkpt lat="45.81587" lon="4.6624">
        <ele>394.20175</ele>
        <time>2023-06-04T14:45:03.000Z</time>
      </trkpt>
      <trkpt lat="45.81581" lon="4.66241">
        <ele>394.24774</ele>
        <time>2023-06-04T14:45:04.000Z</time>
      </trkpt>
      <trkpt lat="45.81576" lon="4.66242">
        <ele>394.01801</ele>
        <time>2023-06-04T14:45:05.000Z</time>
      </trkpt>
      <trkpt lat="45.81573" lon="4.66243">
        <ele>393.81577</ele>
        <time>2023-06-04T14:45:06.000Z</time>
      </trkpt>
      <trkpt lat="45.8157" lon="4.66245">
        <ele>393.73795</ele>
        <time>2023-06-04T14:45:07.000Z</time>
      </trkpt>
      <trkpt lat="45.81566" lon="4.66248">
        <ele>393.66168</ele>
        <time>2023-06-04T14:45:08.000Z</time>
      </trkpt>
      <trkpt lat="45.81563" lon="4.66252">
        <ele>393.7572</ele>
        <time>2023-06-04T14:45:09.000Z</time>
      </trkpt>
      <trkpt lat="45.81558" lon="4.66255">
        <ele>393.74078</ele>
        <time>2023-06-04T14:45:10.000Z</time>
      </trkpt>
      <trkpt lat="45.81552" lon="4.66258">
        <ele>393.73343</ele>
        <time>2023-06-04T14:45:11.000Z</time>
      </trkpt>
      <trkpt lat="45.81548" lon="4.66256">
        <ele>393.68771</ele>
        <time>2023-06-04T14:45:12.000Z</time>
      </trkpt>
      <trkpt lat="45.81545" lon="4.66254">
        <ele>393.82852</ele>
        <time>2023-06-04T14:45:13.000Z</time>
      </trkpt>
      <trkpt lat="45.81541" lon="4.66259">
        <ele>394.00848</ele>
        <time>2023-06-04T14:45:14.000Z</time>
      </trkpt>
      <trkpt lat="45.81535" lon="4.66265">
        <ele>394.12134</ele>
        <time>2023-06-04T14:45:15.000Z</time>
      </trkpt>
      <trkpt lat="45.81532" lon="4.66266">
        <ele>394.1972</ele>
        <time>2023-06-04T14:45:16.000Z</time>
      </trkpt>
      <trkpt lat="45.81525" lon="4.66271">
        <ele>394.22073</ele>
        <time>2023-06-04T14:45:17.000Z</time>
      </trkpt>
      <trkpt lat="45.81521" lon="4.66272">
        <ele>394.1716</ele>
        <time>2023-06-04T14:45:18.000Z</time>
      </trkpt>
      <trkpt lat="45.81517" lon="4.66276">
        <ele>393.96307</ele>
        <time>2023-06-04T14:45:19.000Z</time>
      </trkpt>
      <trkpt lat="45.81515" lon="4.66278">
        <ele>393.75339</ele>
        <time>2023-06-04T14:45:20.000Z</time>
      </trkpt>
      <trkpt lat="45.81512" lon="4.66281">
        <ele>393.68024</ele>
        <time>2023-06-04T14:45:21.000Z</time>
      </trkpt>
      <trkpt lat="45.81508" lon="4.66282">
        <ele>393.50641</ele>
        <time>2023-06-04T14:45:22.000Z</time>
      </trkpt>
      <trkpt lat="45.81502" lon="4.66282">
        <ele>393.35965</ele>
        <time>2023-06-04T14:45:23.000Z</time>
      </trkpt>
      <trkpt lat="45.81501" lon="4.66288">
        <ele>393.25162</ele>
        <time>2023-06-04T14:45:24.000Z</time>
      </trkpt>
      <trkpt lat="45.81498" lon="4.66284">
        <ele>393.20047</ele>
        <time>2023-06-04T14:45:25.000Z</time>
      </trkpt>
      <trkpt lat="45.81494" lon="4.66283">
        <ele>393.17093</ele>
        <time>2023-06-04T14:45:26.000Z</time>
      </trkpt>
      <trkpt lat="45.8149" lon="4.66281">
        <ele>393.29837</ele>
        <time>2023-06-04T14:45:28.000Z</time>
      </trkpt>
      <trkpt lat="45.81486" lon="4.66285">
        <ele>393.49701</ele>
        <time>2023-06-04T14:45:30.000Z</time>
      </trkpt>
      <trkpt lat="45.81483" lon="4.66286">
        <ele>393.55267</ele>
        <time>2023-06-04T14:45:31.000Z</time>
      </trkpt>
      <trkpt lat="45.8148" lon="4.66288">
        <ele>393.57413</ele>
        <time>2023-06-04T14:45:32.000Z</time>
      </trkpt>
      <trkpt lat="45.81476" lon="4.6629">
        <ele>393.60406</ele>
        <time>2023-06-04T14:45:33.000Z</time>
      </trkpt>
      <trkpt lat="45.81472" lon="4.66293">
        <ele>393.60135</ele>
        <time>2023-06-04T14:45:34.000Z</time>
      </trkpt>
      <trkpt lat="45.81466" lon="4.66296">
        <ele>393.53336</ele>
        <time>2023-06-04T14:45:35.000Z</time>
      </trkpt>
      <trkpt lat="45.81461" lon="4.66298">
        <ele>393.5072</ele>
        <time>2023-06-04T14:45:36.000Z</time>
      </trkpt>
      <trkpt lat="45.81455" lon="4.66296">
        <ele>393.47339</ele>
        <time>2023-06-04T14:45:37.000Z</time>
      </trkpt>
      <trkpt lat="45.81454" lon="4.66295">
        <ele>393.60181</ele>
        <time>2023-06-04T14:45:38.000Z</time>
      </trkpt>
      <trkpt lat="45.81451" lon="4.66296">
        <ele>393.49594</ele>
        <time>2023-06-04T14:45:39.000Z</time>
      </trkpt>
      <trkpt lat="45.81448" lon="4.66294">
        <ele>393.03278</ele>
        <time>2023-06-04T14:45:40.000Z</time>
      </trkpt>
      <trkpt lat="45.81445" lon="4.66296">
        <ele>392.52545</ele>
        <time>2023-06-04T14:45:41.000Z</time>
      </trkpt>
      <trkpt lat="45.81444" lon="4.66302">
        <ele>392.59259</ele>
        <time>2023-06-04T14:45:42.000Z</time>
      </trkpt>
      <trkpt lat="45.81446" lon="4.66301">
        <ele>392.52194</ele>
        <time>2023-06-04T14:45:44.000Z</time>
      </trkpt>
      <trkpt lat="45.81449" lon="4.66303">
        <ele>392.45428</ele>
        <time>2023-06-04T14:45:45.000Z</time>
      </trkpt>
      <trkpt lat="45.81449" lon="4.66311">
        <ele>392.28143</ele>
        <time>2023-06-04T14:45:46.000Z</time>
      </trkpt>
      <trkpt lat="45.81451" lon="4.66316">
        <ele>392.35928</ele>
        <time>2023-06-04T14:45:47.000Z</time>
      </trkpt>
      <trkpt lat="45.81453" lon="4.6632">
        <ele>392.47186</ele>
        <time>2023-06-04T14:45:48.000Z</time>
      </trkpt>
      <trkpt lat="45.81456" lon="4.66322">
        <ele>392.56982</ele>
        <time>2023-06-04T14:45:49.000Z</time>
      </trkpt>
      <trkpt lat="45.81459" lon="4.66324">
        <ele>392.57629</ele>
        <time>2023-06-04T14:45:50.000Z</time>
      </trkpt>
      <trkpt lat="45.81463" lon="4.66326">
        <ele>392.37616</ele>
        <time>2023-06-04T14:45:51.000Z</time>
      </trkpt>
      <trkpt lat="45.81467" lon="4.66327">
        <ele>392.25357</ele>
        <time>2023-06-04T14:45:52.000Z</time>
      </trkpt>
      <trkpt lat="45.81474" lon="4.66322">
        <ele>392.19049</ele>
        <time>2023-06-04T14:45:53.000Z</time>
      </trkpt>
      <trkpt lat="45.8148" lon="4.66324">
        <ele>391.9816</ele>
        <time>2023-06-04T14:45:54.000Z</time>
      </trkpt>
      <trkpt lat="45.81484" lon="4.66327">
        <ele>391.96429</ele>
        <time>2023-06-04T14:45:55.000Z</time>
      </trkpt>
      <trkpt lat="45.81491" lon="4.66329">
        <ele>391.95355</ele>
        <time>2023-06-04T14:45:56.000Z</time>
      </trkpt>
      <trkpt lat="45.81494" lon="4.66339">
        <ele>392.09308</ele>
        <time>2023-06-04T14:45:57.000Z</time>
      </trkpt>
      <trkpt lat="45.81497" lon="4.66339">
        <ele>392.31436</ele>
        <time>2023-06-04T14:45:58.000Z</time>
      </trkpt>
      <trkpt lat="45.81499" lon="4.66341">
        <ele>392.17041</ele>
        <time>2023-06-04T14:45:59.000Z</time>
      </trkpt>
      <trkpt lat="45.81502" lon="4.66341">
        <ele>392.32831</ele>
        <time>2023-06-04T14:46:01.000Z</time>
      </trkpt>
      <trkpt lat="45.81499" lon="4.66344">
        <ele>392.78455</ele>
        <time>2023-06-04T14:46:02.000Z</time>
      </trkpt>
      <trkpt lat="45.81497" lon="4.66342">
        <ele>393.36279</ele>
        <time>2023-06-04T14:46:04.000Z</time>
      </trkpt>
      <trkpt lat="45.81494" lon="4.66338">
        <ele>393.40176</ele>
        <time>2023-06-04T14:46:06.000Z</time>
      </trkpt>
      <trkpt lat="45.81492" lon="4.66341">
        <ele>393.6395</ele>
        <time>2023-06-04T14:46:08.000Z</time>
      </trkpt>
      <trkpt lat="45.81491" lon="4.66344">
        <ele>393.94879</ele>
        <time>2023-06-04T14:46:10.000Z</time>
      </trkpt>
      <trkpt lat="45.81489" lon="4.66344">
        <ele>394.22675</ele>
        <time>2023-06-04T14:46:13.000Z</time>
      </trkpt>
      <trkpt lat="45.81488" lon="4.66341">
        <ele>394.39847</ele>
        <time>2023-06-04T14:46:14.000Z</time>
      </trkpt>
      <trkpt lat="45.81487" lon="4.66339">
        <ele>394.362</ele>
        <time>2023-06-04T14:46:15.000Z</time>
      </trkpt>
      <trkpt lat="45.81486" lon="4.66342">
        <ele>394.46411</ele>
        <time>2023-06-04T14:46:18.000Z</time>
      </trkpt>
      <trkpt lat="45.81487" lon="4.66348">
        <ele>394.60391</ele>
        <time>2023-06-04T14:46:19.000Z</time>
      </trkpt>
      <trkpt lat="45.81487" lon="4.66353">
        <ele>394.87967</ele>
        <time>2023-06-04T14:46:20.000Z</time>
      </trkpt>
      <trkpt lat="45.81487" lon="4.6636">
        <ele>395.26089</ele>
        <time>2023-06-04T14:46:21.000Z</time>
      </trkpt>
      <trkpt lat="45.81484" lon="4.66376">
        <ele>395.26801</ele>
        <time>2023-06-04T14:46:22.000Z</time>
      </trkpt>
      <trkpt lat="45.81486" lon="4.66379">
        <ele>395.35291</ele>
        <time>2023-06-04T14:46:23.000Z</time>
      </trkpt>
      <trkpt lat="45.81487" lon="4.66383">
        <ele>395.22247</ele>
        <time>2023-06-04T14:46:24.000Z</time>
      </trkpt>
      <trkpt lat="45.8149" lon="4.66393">
        <ele>395.15561</ele>
        <time>2023-06-04T14:46:25.000Z</time>
      </trkpt>
      <trkpt lat="45.8149" lon="4.66402">
        <ele>394.90265</ele>
        <time>2023-06-04T14:46:26.000Z</time>
      </trkpt>
      <trkpt lat="45.81491" lon="4.66412">
        <ele>394.63062</ele>
        <time>2023-06-04T14:46:27.000Z</time>
      </trkpt>
      <trkpt lat="45.81492" lon="4.66423">
        <ele>394.5004</ele>
        <time>2023-06-04T14:46:28.000Z</time>
      </trkpt>
      <trkpt lat="45.81495" lon="4.66433">
        <ele>394.30905</ele>
        <time>2023-06-04T14:46:29.000Z</time>
      </trkpt>
      <trkpt lat="45.81497" lon="4.66441">
        <ele>394.19818</ele>
        <time>2023-06-04T14:46:30.000Z</time>
      </trkpt>
      <trkpt lat="45.81499" lon="4.6645">
        <ele>393.99359</ele>
        <time>2023-06-04T14:46:31.000Z</time>
      </trkpt>
      <trkpt lat="45.815" lon="4.66463">
        <ele>393.68634</ele>
        <time>2023-06-04T14:46:32.000Z</time>
      </trkpt>
      <trkpt lat="45.815" lon="4.66471">
        <ele>393.37897</ele>
        <time>2023-06-04T14:46:33.000Z</time>
      </trkpt>
      <trkpt lat="45.81504" lon="4.66481">
        <ele>392.94611</ele>
        <time>2023-06-04T14:46:34.000Z</time>
      </trkpt>
      <trkpt lat="45.81508" lon="4.66492">
        <ele>392.81036</ele>
        <time>2023-06-04T14:46:35.000Z</time>
      </trkpt>
      <trkpt lat="45.81508" lon="4.66504">
        <ele>392.50598</ele>
        <time>2023-06-04T14:46:36.000Z</time>
      </trkpt>
      <trkpt lat="45.8151" lon="4.66512">
        <ele>392.36954</ele>
        <time>2023-06-04T14:46:37.000Z</time>
      </trkpt>
      <trkpt lat="45.81514" lon="4.66525">
        <ele>392.12656</ele>
        <time>2023-06-04T14:46:38.000Z</time>
      </trkpt>
      <trkpt lat="45.81519" lon="4.66538">
        <ele>391.31824</ele>
        <time>2023-06-04T14:46:39.000Z</time>
      </trkpt>
      <trkpt lat="45.81522" lon="4.66548">
        <ele>390.40347</ele>
        <time>2023-06-04T14:46:40.000Z</time>
      </trkpt>
      <trkpt lat="45.8153" lon="4.66554">
        <ele>389.39444</ele>
        <time>2023-06-04T14:46:41.000Z</time>
      </trkpt>
      <trkpt lat="45.8153" lon="4.66565">
        <ele>388.82886</ele>
        <time>2023-06-04T14:46:42.000Z</time>
      </trkpt>
      <trkpt lat="45.81534" lon="4.66575">
        <ele>388.39468</ele>
        <time>2023-06-04T14:46:43.000Z</time>
      </trkpt>
      <trkpt lat="45.81537" lon="4.66584">
        <ele>388.10596</ele>
        <time>2023-06-04T14:46:44.000Z</time>
      </trkpt>
      <trkpt lat="45.81538" lon="4.66593">
        <ele>387.80811</ele>
        <time>2023-06-04T14:46:45.000Z</time>
      </trkpt>
      <trkpt lat="45.81534" lon="4.66603">
        <ele>387.40842</ele>
        <time>2023-06-04T14:46:46.000Z</time>
      </trkpt>
      <trkpt lat="45.81529" lon="4.66608">
        <ele>386.88251</ele>
        <time>2023-06-04T14:46:47.000Z</time>
      </trkpt>
      <trkpt lat="45.81528" lon="4.66613">
        <ele>386.54074</ele>
        <time>2023-06-04T14:46:48.000Z</time>
      </trkpt>
      <trkpt lat="45.81528" lon="4.66618">
        <ele>386.26385</ele>
        <time>2023-06-04T14:46:49.000Z</time>
      </trkpt>
      <trkpt lat="45.81527" lon="4.66625">
        <ele>386.30048</ele>
        <time>2023-06-04T14:46:50.000Z</time>
      </trkpt>
      <trkpt lat="45.81525" lon="4.6663">
        <ele>386.1937</ele>
        <time>2023-06-04T14:46:51.000Z</time>
      </trkpt>
      <trkpt lat="45.81525" lon="4.66634">
        <ele>385.80243</ele>
        <time>2023-06-04T14:46:52.000Z</time>
      </trkpt>
      <trkpt lat="45.81523" lon="4.66643">
        <ele>385.44046</ele>
        <time>2023-06-04T14:46:54.000Z</time>
      </trkpt>
      <trkpt lat="45.81522" lon="4.66649">
        <ele>385.06927</ele>
        <time>2023-06-04T14:46:55.000Z</time>
      </trkpt>
      <trkpt lat="45.81524" lon="4.66656">
        <ele>384.36563</ele>
        <time>2023-06-04T14:46:56.000Z</time>
      </trkpt>
      <trkpt lat="45.81529" lon="4.66661">
        <ele>383.80524</ele>
        <time>2023-06-04T14:46:57.000Z</time>
      </trkpt>
      <trkpt lat="45.81529" lon="4.66666">
        <ele>383.19992</ele>
        <time>2023-06-04T14:46:58.000Z</time>
      </trkpt>
      <trkpt lat="45.81527" lon="4.66671">
        <ele>382.56708</ele>
        <time>2023-06-04T14:46:59.000Z</time>
      </trkpt>
      <trkpt lat="45.81525" lon="4.66676">
        <ele>382.31421</ele>
        <time>2023-06-04T14:47:00.000Z</time>
      </trkpt>
      <trkpt lat="45.81523" lon="4.66679">
        <ele>382.12695</ele>
        <time>2023-06-04T14:47:01.000Z</time>
      </trkpt>
      <trkpt lat="45.81522" lon="4.66683">
        <ele>382.24326</ele>
        <time>2023-06-04T14:47:02.000Z</time>
      </trkpt>
      <trkpt lat="45.8152" lon="4.66686">
        <ele>382.55484</ele>
        <time>2023-06-04T14:47:03.000Z</time>
      </trkpt>
      <trkpt lat="45.81519" lon="4.66689">
        <ele>382.34149</ele>
        <time>2023-06-04T14:47:04.000Z</time>
      </trkpt>
      <trkpt lat="45.81519" lon="4.66692">
        <ele>382.10989</ele>
        <time>2023-06-04T14:47:05.000Z</time>
      </trkpt>
      <trkpt lat="45.8152" lon="4.66694">
        <ele>381.92133</ele>
        <time>2023-06-04T14:47:07.000Z</time>
      </trkpt>
      <trkpt lat="45.81522" lon="4.66695">
        <ele>381.93271</ele>
        <time>2023-06-04T14:47:09.000Z</time>
      </trkpt>
      <trkpt lat="45.81525" lon="4.66693">
        <ele>382.05609</ele>
        <time>2023-06-04T14:47:10.000Z</time>
      </trkpt>
      <trkpt lat="45.81527" lon="4.66695">
        <ele>382.20477</ele>
        <time>2023-06-04T14:47:15.000Z</time>
      </trkpt>
      <trkpt lat="45.81525" lon="4.66693">
        <ele>382.75418</ele>
        <time>2023-06-04T14:47:19.000Z</time>
      </trkpt>
      <trkpt lat="45.81523" lon="4.66695">
        <ele>382.54346</ele>
        <time>2023-06-04T14:47:21.000Z</time>
      </trkpt>
      <trkpt lat="45.81523" lon="4.66697">
        <ele>382.44208</ele>
        <time>2023-06-04T14:47:22.000Z</time>
      </trkpt>
      <trkpt lat="45.81524" lon="4.66701">
        <ele>382.72772</ele>
        <time>2023-06-04T14:47:23.000Z</time>
      </trkpt>
      <trkpt lat="45.81526" lon="4.66707">
        <ele>382.89407</ele>
        <time>2023-06-04T14:47:24.000Z</time>
      </trkpt>
      <trkpt lat="45.81526" lon="4.66713">
        <ele>383.04532</ele>
        <time>2023-06-04T14:47:25.000Z</time>
      </trkpt>
      <trkpt lat="45.81527" lon="4.66719">
        <ele>383.23233</ele>
        <time>2023-06-04T14:47:26.000Z</time>
      </trkpt>
      <trkpt lat="45.81527" lon="4.66725">
        <ele>383.35455</ele>
        <time>2023-06-04T14:47:27.000Z</time>
      </trkpt>
      <trkpt lat="45.81528" lon="4.66732">
        <ele>383.58636</ele>
        <time>2023-06-04T14:47:28.000Z</time>
      </trkpt>
      <trkpt lat="45.81528" lon="4.66738">
        <ele>383.85934</ele>
        <time>2023-06-04T14:47:29.000Z</time>
      </trkpt>
      <trkpt lat="45.81532" lon="4.66748">
        <ele>384.40509</ele>
        <time>2023-06-04T14:47:30.000Z</time>
      </trkpt>
      <trkpt lat="45.81529" lon="4.66755">
        <ele>385.0239</ele>
        <time>2023-06-04T14:47:31.000Z</time>
      </trkpt>
      <trkpt lat="45.81532" lon="4.6676">
        <ele>384.99118</ele>
        <time>2023-06-04T14:47:32.000Z</time>
      </trkpt>
      <trkpt lat="45.81533" lon="4.66766">
        <ele>384.77371</ele>
        <time>2023-06-04T14:47:33.000Z</time>
      </trkpt>
      <trkpt lat="45.81532" lon="4.66773">
        <ele>385.00748</ele>
        <time>2023-06-04T14:47:34.000Z</time>
      </trkpt>
      <trkpt lat="45.81532" lon="4.66777">
        <ele>385.29742</ele>
        <time>2023-06-04T14:47:35.000Z</time>
      </trkpt>
      <trkpt lat="45.81533" lon="4.66785">
        <ele>385.4884</ele>
        <time>2023-06-04T14:47:36.000Z</time>
      </trkpt>
      <trkpt lat="45.8153" lon="4.66792">
        <ele>385.52231</ele>
        <time>2023-06-04T14:47:37.000Z</time>
      </trkpt>
      <trkpt lat="45.81528" lon="4.66798">
        <ele>385.6402</ele>
        <time>2023-06-04T14:47:38.000Z</time>
      </trkpt>
      <trkpt lat="45.81526" lon="4.66802">
        <ele>385.68903</ele>
        <time>2023-06-04T14:47:39.000Z</time>
      </trkpt>
      <trkpt lat="45.81526" lon="4.6681">
        <ele>385.24414</ele>
        <time>2023-06-04T14:47:40.000Z</time>
      </trkpt>
      <trkpt lat="45.81528" lon="4.66818">
        <ele>385.37427</ele>
        <time>2023-06-04T14:47:41.000Z</time>
      </trkpt>
      <trkpt lat="45.81525" lon="4.66823">
        <ele>385.54749</ele>
        <time>2023-06-04T14:47:42.000Z</time>
      </trkpt>
      <trkpt lat="45.81526" lon="4.66827">
        <ele>385.65594</ele>
        <time>2023-06-04T14:47:43.000Z</time>
      </trkpt>
      <trkpt lat="45.81526" lon="4.66834">
        <ele>385.68463</ele>
        <time>2023-06-04T14:47:44.000Z</time>
      </trkpt>
      <trkpt lat="45.81526" lon="4.66841">
        <ele>385.73358</ele>
        <time>2023-06-04T14:47:45.000Z</time>
      </trkpt>
      <trkpt lat="45.81525" lon="4.66846">
        <ele>385.7326</ele>
        <time>2023-06-04T14:47:46.000Z</time>
      </trkpt>
      <trkpt lat="45.81527" lon="4.66851">
        <ele>385.76474</ele>
        <time>2023-06-04T14:47:47.000Z</time>
      </trkpt>
      <trkpt lat="45.81529" lon="4.66858">
        <ele>385.8157</ele>
        <time>2023-06-04T14:47:48.000Z</time>
      </trkpt>
      <trkpt lat="45.81532" lon="4.66867">
        <ele>386.09778</ele>
        <time>2023-06-04T14:47:49.000Z</time>
      </trkpt>
      <trkpt lat="45.8153" lon="4.66874">
        <ele>386.211</ele>
        <time>2023-06-04T14:47:50.000Z</time>
      </trkpt>
      <trkpt lat="45.8153" lon="4.66879">
        <ele>386.24808</ele>
        <time>2023-06-04T14:47:51.000Z</time>
      </trkpt>
      <trkpt lat="45.81529" lon="4.66886">
        <ele>386.54877</ele>
        <time>2023-06-04T14:47:52.000Z</time>
      </trkpt>
      <trkpt lat="45.81526" lon="4.66893">
        <ele>386.8902</ele>
        <time>2023-06-04T14:47:53.000Z</time>
      </trkpt>
      <trkpt lat="45.81527" lon="4.66897">
        <ele>387.17313</ele>
        <time>2023-06-04T14:47:54.000Z</time>
      </trkpt>
      <trkpt lat="45.81524" lon="4.669">
        <ele>387.48962</ele>
        <time>2023-06-04T14:47:55.000Z</time>
      </trkpt>
      <trkpt lat="45.81523" lon="4.66906">
        <ele>387.3938</ele>
        <time>2023-06-04T14:47:56.000Z</time>
      </trkpt>
      <trkpt lat="45.81524" lon="4.66915">
        <ele>387.32806</ele>
        <time>2023-06-04T14:47:57.000Z</time>
      </trkpt>
      <trkpt lat="45.81522" lon="4.66923">
        <ele>387.0683</ele>
        <time>2023-06-04T14:47:59.000Z</time>
      </trkpt>
      <trkpt lat="45.81521" lon="4.66928">
        <ele>386.8107</ele>
        <time>2023-06-04T14:48:00.000Z</time>
      </trkpt>
      <trkpt lat="45.81521" lon="4.66934">
        <ele>386.58124</ele>
        <time>2023-06-04T14:48:01.000Z</time>
      </trkpt>
      <trkpt lat="45.81521" lon="4.6694">
        <ele>386.29929</ele>
        <time>2023-06-04T14:48:02.000Z</time>
      </trkpt>
      <trkpt lat="45.81521" lon="4.66945">
        <ele>386.12109</ele>
        <time>2023-06-04T14:48:03.000Z</time>
      </trkpt>
      <trkpt lat="45.81521" lon="4.6695">
        <ele>386.01242</ele>
        <time>2023-06-04T14:48:04.000Z</time>
      </trkpt>
      <trkpt lat="45.81523" lon="4.66957">
        <ele>386.10724</ele>
        <time>2023-06-04T14:48:05.000Z</time>
      </trkpt>
      <trkpt lat="45.81527" lon="4.66967">
        <ele>386.21573</ele>
        <time>2023-06-04T14:48:06.000Z</time>
      </trkpt>
      <trkpt lat="45.81531" lon="4.6698">
        <ele>386.56329</ele>
        <time>2023-06-04T14:48:07.000Z</time>
      </trkpt>
      <trkpt lat="45.8153" lon="4.66986">
        <ele>386.86414</ele>
        <time>2023-06-04T14:48:08.000Z</time>
      </trkpt>
      <trkpt lat="45.81529" lon="4.66994">
        <ele>387.13696</ele>
        <time>2023-06-04T14:48:09.000Z</time>
      </trkpt>
      <trkpt lat="45.81529" lon="4.66997">
        <ele>387.17416</ele>
        <time>2023-06-04T14:48:10.000Z</time>
      </trkpt>
      <trkpt lat="45.81527" lon="4.67001">
        <ele>387.50067</ele>
        <time>2023-06-04T14:48:11.000Z</time>
      </trkpt>
      <trkpt lat="45.81526" lon="4.67006">
        <ele>387.63919</ele>
        <time>2023-06-04T14:48:12.000Z</time>
      </trkpt>
      <trkpt lat="45.81523" lon="4.67009">
        <ele>388.07788</ele>
        <time>2023-06-04T14:48:13.000Z</time>
      </trkpt>
      <trkpt lat="45.81519" lon="4.67013">
        <ele>388.29178</ele>
        <time>2023-06-04T14:48:14.000Z</time>
      </trkpt>
      <trkpt lat="45.8152" lon="4.6702">
        <ele>388.64325</ele>
        <time>2023-06-04T14:48:15.000Z</time>
      </trkpt>
      <trkpt lat="45.81522" lon="4.67029">
        <ele>388.7323</ele>
        <time>2023-06-04T14:48:16.000Z</time>
      </trkpt>
      <trkpt lat="45.81522" lon="4.67036">
        <ele>389.03622</ele>
        <time>2023-06-04T14:48:17.000Z</time>
      </trkpt>
      <trkpt lat="45.81521" lon="4.67043">
        <ele>389.46484</ele>
        <time>2023-06-04T14:48:18.000Z</time>
      </trkpt>
      <trkpt lat="45.81523" lon="4.67053">
        <ele>389.95172</ele>
        <time>2023-06-04T14:48:19.000Z</time>
      </trkpt>
      <trkpt lat="45.81523" lon="4.67062">
        <ele>390.28436</ele>
        <time>2023-06-04T14:48:20.000Z</time>
      </trkpt>
      <trkpt lat="45.81523" lon="4.67068">
        <ele>390.56543</ele>
        <time>2023-06-04T14:48:21.000Z</time>
      </trkpt>
      <trkpt lat="45.81521" lon="4.67073">
        <ele>390.96573</ele>
        <time>2023-06-04T14:48:22.000Z</time>
      </trkpt>
      <trkpt lat="45.81519" lon="4.67082">
        <ele>391.10287</ele>
        <time>2023-06-04T14:48:23.000Z</time>
      </trkpt>
      <trkpt lat="45.81518" lon="4.67088">
        <ele>391.13995</ele>
        <time>2023-06-04T14:48:24.000Z</time>
      </trkpt>
      <trkpt lat="45.81518" lon="4.67096">
        <ele>391.05157</ele>
        <time>2023-06-04T14:48:25.000Z</time>
      </trkpt>
      <trkpt lat="45.81518" lon="4.67103">
        <ele>390.9223</ele>
        <time>2023-06-04T14:48:26.000Z</time>
      </trkpt>
      <trkpt lat="45.81517" lon="4.67112">
        <ele>390.70004</ele>
        <time>2023-06-04T14:48:27.000Z</time>
      </trkpt>
      <trkpt lat="45.81516" lon="4.67119">
        <ele>390.61328</ele>
        <time>2023-06-04T14:48:28.000Z</time>
      </trkpt>
      <trkpt lat="45.81516" lon="4.67126">
        <ele>390.57913</ele>
        <time>2023-06-04T14:48:29.000Z</time>
      </trkpt>
      <trkpt lat="45.81514" lon="4.67134">
        <ele>390.40985</ele>
        <time>2023-06-04T14:48:30.000Z</time>
      </trkpt>
      <trkpt lat="45.81511" lon="4.67142">
        <ele>390.00739</ele>
        <time>2023-06-04T14:48:31.000Z</time>
      </trkpt>
      <trkpt lat="45.8151" lon="4.6715">
        <ele>389.28555</ele>
        <time>2023-06-04T14:48:32.000Z</time>
      </trkpt>
      <trkpt lat="45.81509" lon="4.67157">
        <ele>388.51434</ele>
        <time>2023-06-04T14:48:33.000Z</time>
      </trkpt>
      <trkpt lat="45.81507" lon="4.67166">
        <ele>387.90277</ele>
        <time>2023-06-04T14:48:34.000Z</time>
      </trkpt>
      <trkpt lat="45.81507" lon="4.67174">
        <ele>387.33319</ele>
        <time>2023-06-04T14:48:35.000Z</time>
      </trkpt>
      <trkpt lat="45.81506" lon="4.67182">
        <ele>386.8775</ele>
        <time>2023-06-04T14:48:36.000Z</time>
      </trkpt>
      <trkpt lat="45.81503" lon="4.67189">
        <ele>386.70218</ele>
        <time>2023-06-04T14:48:37.000Z</time>
      </trkpt>
      <trkpt lat="45.81504" lon="4.67198">
        <ele>386.42987</ele>
        <time>2023-06-04T14:48:38.000Z</time>
      </trkpt>
      <trkpt lat="45.81499" lon="4.67204">
        <ele>386.25925</ele>
        <time>2023-06-04T14:48:39.000Z</time>
      </trkpt>
      <trkpt lat="45.815" lon="4.67212">
        <ele>386.20126</ele>
        <time>2023-06-04T14:48:40.000Z</time>
      </trkpt>
      <trkpt lat="45.81501" lon="4.67218">
        <ele>386.49646</ele>
        <time>2023-06-04T14:48:41.000Z</time>
      </trkpt>
      <trkpt lat="45.81496" lon="4.67226">
        <ele>386.5661</ele>
        <time>2023-06-04T14:48:42.000Z</time>
      </trkpt>
      <trkpt lat="45.81496" lon="4.67234">
        <ele>386.83051</ele>
        <time>2023-06-04T14:48:43.000Z</time>
      </trkpt>
      <trkpt lat="45.81496" lon="4.67238">
        <ele>386.67163</ele>
        <time>2023-06-04T14:48:44.000Z</time>
      </trkpt>
      <trkpt lat="45.81494" lon="4.67247">
        <ele>386.65433</ele>
        <time>2023-06-04T14:48:45.000Z</time>
      </trkpt>
      <trkpt lat="45.81493" lon="4.67254">
        <ele>386.60315</ele>
        <time>2023-06-04T14:48:46.000Z</time>
      </trkpt>
      <trkpt lat="45.81494" lon="4.67262">
        <ele>386.51273</ele>
        <time>2023-06-04T14:48:47.000Z</time>
      </trkpt>
      <trkpt lat="45.81494" lon="4.67272">
        <ele>386.39178</ele>
        <time>2023-06-04T14:48:48.000Z</time>
      </trkpt>
      <trkpt lat="45.81493" lon="4.6728">
        <ele>386.12497</ele>
        <time>2023-06-04T14:48:49.000Z</time>
      </trkpt>
      <trkpt lat="45.81489" lon="4.67287">
        <ele>386.30167</ele>
        <time>2023-06-04T14:48:50.000Z</time>
      </trkpt>
      <trkpt lat="45.8149" lon="4.67292">
        <ele>386.43613</ele>
        <time>2023-06-04T14:48:51.000Z</time>
      </trkpt>
      <trkpt lat="45.81491" lon="4.67302">
        <ele>387.12323</ele>
        <time>2023-06-04T14:48:52.000Z</time>
      </trkpt>
      <trkpt lat="45.81489" lon="4.67311">
        <ele>387.50809</ele>
        <time>2023-06-04T14:48:53.000Z</time>
      </trkpt>
      <trkpt lat="45.81487" lon="4.67321">
        <ele>387.83868</ele>
        <time>2023-06-04T14:48:54.000Z</time>
      </trkpt>
      <trkpt lat="45.81486" lon="4.67329">
        <ele>388.16855</ele>
        <time>2023-06-04T14:48:55.000Z</time>
      </trkpt>
      <trkpt lat="45.81484" lon="4.67336">
        <ele>388.00928</ele>
        <time>2023-06-04T14:48:56.000Z</time>
      </trkpt>
      <trkpt lat="45.81484" lon="4.67345">
        <ele>387.93521</ele>
        <time>2023-06-04T14:48:57.000Z</time>
      </trkpt>
      <trkpt lat="45.81483" lon="4.67353">
        <ele>387.79013</ele>
        <time>2023-06-04T14:48:59.000Z</time>
      </trkpt>
      <trkpt lat="45.81481" lon="4.67358">
        <ele>387.71655</ele>
        <time>2023-06-04T14:49:00.000Z</time>
      </trkpt>
      <trkpt lat="45.81482" lon="4.67364">
        <ele>387.68738</ele>
        <time>2023-06-04T14:49:01.000Z</time>
      </trkpt>
      <trkpt lat="45.81483" lon="4.67373">
        <ele>387.42294</ele>
        <time>2023-06-04T14:49:02.000Z</time>
      </trkpt>
      <trkpt lat="45.81483" lon="4.67382">
        <ele>387.29889</ele>
        <time>2023-06-04T14:49:03.000Z</time>
      </trkpt>
      <trkpt lat="45.8148" lon="4.67387">
        <ele>387.05539</ele>
        <time>2023-06-04T14:49:04.000Z</time>
      </trkpt>
      <trkpt lat="45.81478" lon="4.674">
        <ele>387.41556</ele>
        <time>2023-06-04T14:49:05.000Z</time>
      </trkpt>
      <trkpt lat="45.81474" lon="4.67407">
        <ele>387.47412</ele>
        <time>2023-06-04T14:49:06.000Z</time>
      </trkpt>
      <trkpt lat="45.81471" lon="4.67407">
        <ele>387.82022</ele>
        <time>2023-06-04T14:49:07.000Z</time>
      </trkpt>
      <trkpt lat="45.81465" lon="4.67406">
        <ele>388.35101</ele>
        <time>2023-06-04T14:49:08.000Z</time>
      </trkpt>
      <trkpt lat="45.81458" lon="4.6741">
        <ele>388.26199</ele>
        <time>2023-06-04T14:49:09.000Z</time>
      </trkpt>
      <trkpt lat="45.81452" lon="4.67415">
        <ele>388.28033</ele>
        <time>2023-06-04T14:49:10.000Z</time>
      </trkpt>
      <trkpt lat="45.81447" lon="4.67422">
        <ele>388.00076</ele>
        <time>2023-06-04T14:49:11.000Z</time>
      </trkpt>
      <trkpt lat="45.81444" lon="4.67421">
        <ele>387.6283</ele>
        <time>2023-06-04T14:49:12.000Z</time>
      </trkpt>
      <trkpt lat="45.81438" lon="4.67426">
        <ele>387.30005</ele>
        <time>2023-06-04T14:49:13.000Z</time>
      </trkpt>
      <trkpt lat="45.81435" lon="4.67432">
        <ele>387.04279</ele>
        <time>2023-06-04T14:49:14.000Z</time>
      </trkpt>
      <trkpt lat="45.81432" lon="4.67437">
        <ele>386.78699</ele>
        <time>2023-06-04T14:49:15.000Z</time>
      </trkpt>
      <trkpt lat="45.81427" lon="4.67443">
        <ele>386.37823</ele>
        <time>2023-06-04T14:49:16.000Z</time>
      </trkpt>
      <trkpt lat="45.81423" lon="4.67449">
        <ele>386.44583</ele>
        <time>2023-06-04T14:49:17.000Z</time>
      </trkpt>
      <trkpt lat="45.81421" lon="4.67455">
        <ele>386.37582</ele>
        <time>2023-06-04T14:49:18.000Z</time>
      </trkpt>
      <trkpt lat="45.81417" lon="4.67462">
        <ele>386.4502</ele>
        <time>2023-06-04T14:49:19.000Z</time>
      </trkpt>
      <trkpt lat="45.81412" lon="4.6747">
        <ele>386.4455</ele>
        <time>2023-06-04T14:49:20.000Z</time>
      </trkpt>
      <trkpt lat="45.81407" lon="4.67475">
        <ele>386.5014</ele>
        <time>2023-06-04T14:49:21.000Z</time>
      </trkpt>
      <trkpt lat="45.81405" lon="4.67483">
        <ele>386.5329</ele>
        <time>2023-06-04T14:49:22.000Z</time>
      </trkpt>
      <trkpt lat="45.81402" lon="4.6749">
        <ele>386.53787</ele>
        <time>2023-06-04T14:49:23.000Z</time>
      </trkpt>
      <trkpt lat="45.814" lon="4.67496">
        <ele>386.62991</ele>
        <time>2023-06-04T14:49:24.000Z</time>
      </trkpt>
      <trkpt lat="45.81394" lon="4.67505">
        <ele>386.56577</ele>
        <time>2023-06-04T14:49:25.000Z</time>
      </trkpt>
      <trkpt lat="45.81388" lon="4.67514">
        <ele>386.66876</ele>
        <time>2023-06-04T14:49:26.000Z</time>
      </trkpt>
      <trkpt lat="45.81384" lon="4.67522">
        <ele>386.55258</ele>
        <time>2023-06-04T14:49:27.000Z</time>
      </trkpt>
      <trkpt lat="45.81381" lon="4.67532">
        <ele>386.21182</ele>
        <time>2023-06-04T14:49:28.000Z</time>
      </trkpt>
      <trkpt lat="45.81381" lon="4.6754">
        <ele>386.51251</ele>
        <time>2023-06-04T14:49:30.000Z</time>
      </trkpt>
      <trkpt lat="45.81377" lon="4.67547">
        <ele>386.73984</ele>
        <time>2023-06-04T14:49:31.000Z</time>
      </trkpt>
      <trkpt lat="45.81375" lon="4.67553">
        <ele>387.01816</ele>
        <time>2023-06-04T14:49:32.000Z</time>
      </trkpt>
      <trkpt lat="45.81371" lon="4.67564">
        <ele>387.34576</ele>
        <time>2023-06-04T14:49:33.000Z</time>
      </trkpt>
      <trkpt lat="45.81373" lon="4.67569">
        <ele>387.56342</ele>
        <time>2023-06-04T14:49:34.000Z</time>
      </trkpt>
      <trkpt lat="45.81371" lon="4.67577">
        <ele>387.99832</ele>
        <time>2023-06-04T14:49:35.000Z</time>
      </trkpt>
      <trkpt lat="45.81366" lon="4.67583">
        <ele>388.28598</ele>
        <time>2023-06-04T14:49:36.000Z</time>
      </trkpt>
      <trkpt lat="45.81363" lon="4.67594">
        <ele>388.58783</ele>
        <time>2023-06-04T14:49:37.000Z</time>
      </trkpt>
      <trkpt lat="45.81361" lon="4.67603">
        <ele>388.89215</ele>
        <time>2023-06-04T14:49:38.000Z</time>
      </trkpt>
      <trkpt lat="45.81358" lon="4.67612">
        <ele>389.22873</ele>
        <time>2023-06-04T14:49:39.000Z</time>
      </trkpt>
      <trkpt lat="45.81359" lon="4.67619">
        <ele>389.65091</ele>
        <time>2023-06-04T14:49:40.000Z</time>
      </trkpt>
      <trkpt lat="45.81359" lon="4.67625">
        <ele>389.99039</ele>
        <time>2023-06-04T14:49:41.000Z</time>
      </trkpt>
      <trkpt lat="45.81355" lon="4.67631">
        <ele>390.20306</ele>
        <time>2023-06-04T14:49:42.000Z</time>
      </trkpt>
      <trkpt lat="45.81352" lon="4.6764">
        <ele>390.35333</ele>
        <time>2023-06-04T14:49:43.000Z</time>
      </trkpt>
      <trkpt lat="45.81351" lon="4.67646">
        <ele>390.43384</ele>
        <time>2023-06-04T14:49:44.000Z</time>
      </trkpt>
      <trkpt lat="45.8135" lon="4.67656">
        <ele>390.53424</ele>
        <time>2023-06-04T14:49:45.000Z</time>
      </trkpt>
      <trkpt lat="45.81348" lon="4.67665">
        <ele>390.75604</ele>
        <time>2023-06-04T14:49:46.000Z</time>
      </trkpt>
      <trkpt lat="45.81345" lon="4.67673">
        <ele>390.87659</ele>
        <time>2023-06-04T14:49:47.000Z</time>
      </trkpt>
      <trkpt lat="45.81343" lon="4.67679">
        <ele>391.02032</ele>
        <time>2023-06-04T14:49:48.000Z</time>
      </trkpt>
      <trkpt lat="45.81342" lon="4.67687">
        <ele>391.45425</ele>
        <time>2023-06-04T14:49:49.000Z</time>
      </trkpt>
      <trkpt lat="45.8134" lon="4.67694">
        <ele>391.81018</ele>
        <time>2023-06-04T14:49:50.000Z</time>
      </trkpt>
      <trkpt lat="45.81335" lon="4.67704">
        <ele>391.97882</ele>
        <time>2023-06-04T14:49:51.000Z</time>
      </trkpt>
      <trkpt lat="45.81336" lon="4.67709">
        <ele>392.32596</ele>
        <time>2023-06-04T14:49:52.000Z</time>
      </trkpt>
      <trkpt lat="45.81335" lon="4.67717">
        <ele>392.71701</ele>
        <time>2023-06-04T14:49:53.000Z</time>
      </trkpt>
      <trkpt lat="45.81333" lon="4.67724">
        <ele>393.0853</ele>
        <time>2023-06-04T14:49:54.000Z</time>
      </trkpt>
      <trkpt lat="45.8133" lon="4.6773">
        <ele>393.20181</ele>
        <time>2023-06-04T14:49:55.000Z</time>
      </trkpt>
      <trkpt lat="45.81327" lon="4.67737">
        <ele>393.38828</ele>
        <time>2023-06-04T14:49:56.000Z</time>
      </trkpt>
      <trkpt lat="45.81324" lon="4.67745">
        <ele>393.27243</ele>
        <time>2023-06-04T14:49:57.000Z</time>
      </trkpt>
      <trkpt lat="45.81323" lon="4.67754">
        <ele>393.1601</ele>
        <time>2023-06-04T14:49:58.000Z</time>
      </trkpt>
      <trkpt lat="45.81323" lon="4.67759">
        <ele>392.96472</ele>
        <time>2023-06-04T14:49:59.000Z</time>
      </trkpt>
      <trkpt lat="45.8132" lon="4.67768">
        <ele>392.56815</ele>
        <time>2023-06-04T14:50:00.000Z</time>
      </trkpt>
      <trkpt lat="45.81319" lon="4.67776">
        <ele>392.25616</ele>
        <time>2023-06-04T14:50:01.000Z</time>
      </trkpt>
      <trkpt lat="45.81315" lon="4.67781">
        <ele>391.93787</ele>
        <time>2023-06-04T14:50:02.000Z</time>
      </trkpt>
      <trkpt lat="45.81312" lon="4.67788">
        <ele>391.62888</ele>
        <time>2023-06-04T14:50:03.000Z</time>
      </trkpt>
      <trkpt lat="45.8131" lon="4.67796">
        <ele>391.39026</ele>
        <time>2023-06-04T14:50:04.000Z</time>
      </trkpt>
      <trkpt lat="45.81311" lon="4.67801">
        <ele>391.07813</ele>
        <time>2023-06-04T14:50:05.000Z</time>
      </trkpt>
      <trkpt lat="45.8131" lon="4.67807">
        <ele>390.6951</ele>
        <time>2023-06-04T14:50:06.000Z</time>
      </trkpt>
      <trkpt lat="45.81309" lon="4.67813">
        <ele>390.44958</ele>
        <time>2023-06-04T14:50:07.000Z</time>
      </trkpt>
      <trkpt lat="45.8131" lon="4.67822">
        <ele>390.23886</ele>
        <time>2023-06-04T14:50:08.000Z</time>
      </trkpt>
      <trkpt lat="45.81311" lon="4.6783">
        <ele>389.77383</ele>
        <time>2023-06-04T14:50:09.000Z</time>
      </trkpt>
      <trkpt lat="45.81311" lon="4.67835">
        <ele>389.24277</ele>
        <time>2023-06-04T14:50:10.000Z</time>
      </trkpt>
      <trkpt lat="45.81311" lon="4.67844">
        <ele>388.90121</ele>
        <time>2023-06-04T14:50:11.000Z</time>
      </trkpt>
      <trkpt lat="45.8131" lon="4.67852">
        <ele>388.2995</ele>
        <time>2023-06-04T14:50:12.000Z</time>
      </trkpt>
      <trkpt lat="45.81311" lon="4.67862">
        <ele>387.61813</ele>
        <time>2023-06-04T14:50:13.000Z</time>
      </trkpt>
      <trkpt lat="45.81311" lon="4.67871">
        <ele>387.01517</ele>
        <time>2023-06-04T14:50:14.000Z</time>
      </trkpt>
      <trkpt lat="45.81311" lon="4.67881">
        <ele>386.51004</ele>
        <time>2023-06-04T14:50:15.000Z</time>
      </trkpt>
      <trkpt lat="45.81308" lon="4.67893">
        <ele>386.05936</ele>
        <time>2023-06-04T14:50:16.000Z</time>
      </trkpt>
      <trkpt lat="45.81309" lon="4.67901">
        <ele>385.90469</ele>
        <time>2023-06-04T14:50:17.000Z</time>
      </trkpt>
      <trkpt lat="45.81306" lon="4.6791">
        <ele>385.74146</ele>
        <time>2023-06-04T14:50:18.000Z</time>
      </trkpt>
      <trkpt lat="45.81302" lon="4.67919">
        <ele>385.59711</ele>
        <time>2023-06-04T14:50:19.000Z</time>
      </trkpt>
      <trkpt lat="45.813" lon="4.67929">
        <ele>385.48468</ele>
        <time>2023-06-04T14:50:20.000Z</time>
      </trkpt>
      <trkpt lat="45.813" lon="4.67938">
        <ele>385.33609</ele>
        <time>2023-06-04T14:50:21.000Z</time>
      </trkpt>
      <trkpt lat="45.813" lon="4.67947">
        <ele>385.24796</ele>
        <time>2023-06-04T14:50:22.000Z</time>
      </trkpt>
      <trkpt lat="45.81304" lon="4.67956">
        <ele>385.25192</ele>
        <time>2023-06-04T14:50:23.000Z</time>
      </trkpt>
      <trkpt lat="45.81304" lon="4.67968">
        <ele>385.23907</ele>
        <time>2023-06-04T14:50:24.000Z</time>
      </trkpt>
      <trkpt lat="45.81305" lon="4.67977">
        <ele>385.21219</ele>
        <time>2023-06-04T14:50:25.000Z</time>
      </trkpt>
      <trkpt lat="45.8131" lon="4.67986">
        <ele>385.22086</ele>
        <time>2023-06-04T14:50:26.000Z</time>
      </trkpt>
      <trkpt lat="45.81307" lon="4.67998">
        <ele>385.22415</ele>
        <time>2023-06-04T14:50:27.000Z</time>
      </trkpt>
      <trkpt lat="45.81309" lon="4.68011">
        <ele>385.1738</ele>
        <time>2023-06-04T14:50:28.000Z</time>
      </trkpt>
      <trkpt lat="45.81308" lon="4.68023">
        <ele>384.99054</ele>
        <time>2023-06-04T14:50:29.000Z</time>
      </trkpt>
      <trkpt lat="45.81312" lon="4.6803">
        <ele>384.84781</ele>
        <time>2023-06-04T14:50:30.000Z</time>
      </trkpt>
      <trkpt lat="45.81315" lon="4.68037">
        <ele>384.7695</ele>
        <time>2023-06-04T14:50:31.000Z</time>
      </trkpt>
      <trkpt lat="45.81318" lon="4.68046">
        <ele>384.67767</ele>
        <time>2023-06-04T14:50:32.000Z</time>
      </trkpt>
      <trkpt lat="45.8132" lon="4.68058">
        <ele>384.63373</ele>
        <time>2023-06-04T14:50:33.000Z</time>
      </trkpt>
      <trkpt lat="45.81321" lon="4.68067">
        <ele>384.52097</ele>
        <time>2023-06-04T14:50:34.000Z</time>
      </trkpt>
      <trkpt lat="45.8132" lon="4.68075">
        <ele>384.37271</ele>
        <time>2023-06-04T14:50:35.000Z</time>
      </trkpt>
      <trkpt lat="45.81321" lon="4.68085">
        <ele>384.25922</ele>
        <time>2023-06-04T14:50:36.000Z</time>
      </trkpt>
      <trkpt lat="45.81324" lon="4.68097">
        <ele>384.15543</ele>
        <time>2023-06-04T14:50:37.000Z</time>
      </trkpt>
      <trkpt lat="45.8133" lon="4.68108">
        <ele>384.03326</ele>
        <time>2023-06-04T14:50:38.000Z</time>
      </trkpt>
      <trkpt lat="45.81334" lon="4.68119">
        <ele>383.90732</ele>
        <time>2023-06-04T14:50:39.000Z</time>
      </trkpt>
      <trkpt lat="45.81335" lon="4.68129">
        <ele>383.81097</ele>
        <time>2023-06-04T14:50:40.000Z</time>
      </trkpt>
      <trkpt lat="45.81335" lon="4.68138">
        <ele>383.73688</ele>
        <time>2023-06-04T14:50:41.000Z</time>
      </trkpt>
      <trkpt lat="45.81337" lon="4.68148">
        <ele>383.61926</ele>
        <time>2023-06-04T14:50:42.000Z</time>
      </trkpt>
      <trkpt lat="45.81337" lon="4.68159">
        <ele>383.42633</ele>
        <time>2023-06-04T14:50:43.000Z</time>
      </trkpt>
      <trkpt lat="45.81341" lon="4.68169">
        <ele>383.21371</ele>
        <time>2023-06-04T14:50:44.000Z</time>
      </trkpt>
      <trkpt lat="45.81343" lon="4.68179">
        <ele>383.05328</ele>
        <time>2023-06-04T14:50:45.000Z</time>
      </trkpt>
      <trkpt lat="45.81349" lon="4.68191">
        <ele>382.83661</ele>
        <time>2023-06-04T14:50:46.000Z</time>
      </trkpt>
      <trkpt lat="45.81349" lon="4.682">
        <ele>382.59885</ele>
        <time>2023-06-04T14:50:47.000Z</time>
      </trkpt>
      <trkpt lat="45.8135" lon="4.68213">
        <ele>382.34113</ele>
        <time>2023-06-04T14:50:48.000Z</time>
      </trkpt>
      <trkpt lat="45.81353" lon="4.68223">
        <ele>382.20337</ele>
        <time>2023-06-04T14:50:49.000Z</time>
      </trkpt>
      <trkpt lat="45.81358" lon="4.68234">
        <ele>382.04828</ele>
        <time>2023-06-04T14:50:50.000Z</time>
      </trkpt>
      <trkpt lat="45.81362" lon="4.68246">
        <ele>381.82513</ele>
        <time>2023-06-04T14:50:51.000Z</time>
      </trkpt>
      <trkpt lat="45.81365" lon="4.68258">
        <ele>381.68515</ele>
        <time>2023-06-04T14:50:52.000Z</time>
      </trkpt>
      <trkpt lat="45.81367" lon="4.6827">
        <ele>381.54828</ele>
        <time>2023-06-04T14:50:53.000Z</time>
      </trkpt>
      <trkpt lat="45.81368" lon="4.68278">
        <ele>381.37115</ele>
        <time>2023-06-04T14:50:54.000Z</time>
      </trkpt>
      <trkpt lat="45.81368" lon="4.6829">
        <ele>381.16107</ele>
        <time>2023-06-04T14:50:55.000Z</time>
      </trkpt>
      <trkpt lat="45.81368" lon="4.68298">
        <ele>380.93396</ele>
        <time>2023-06-04T14:50:56.000Z</time>
      </trkpt>
      <trkpt lat="45.81371" lon="4.68309">
        <ele>380.71863</ele>
        <time>2023-06-04T14:50:57.000Z</time>
      </trkpt>
      <trkpt lat="45.81373" lon="4.68319">
        <ele>380.56226</ele>
        <time>2023-06-04T14:50:58.000Z</time>
      </trkpt>
      <trkpt lat="45.81377" lon="4.68328">
        <ele>380.36819</ele>
        <time>2023-06-04T14:50:59.000Z</time>
      </trkpt>
      <trkpt lat="45.81377" lon="4.68339">
        <ele>380.10471</ele>
        <time>2023-06-04T14:51:00.000Z</time>
      </trkpt>
      <trkpt lat="45.81378" lon="4.68348">
        <ele>379.8176</ele>
        <time>2023-06-04T14:51:01.000Z</time>
      </trkpt>
      <trkpt lat="45.8138" lon="4.68358">
        <ele>379.58392</ele>
        <time>2023-06-04T14:51:02.000Z</time>
      </trkpt>
      <trkpt lat="45.8138" lon="4.68365">
        <ele>379.37027</ele>
        <time>2023-06-04T14:51:03.000Z</time>
      </trkpt>
      <trkpt lat="45.8138" lon="4.68376">
        <ele>379.23193</ele>
        <time>2023-06-04T14:51:04.000Z</time>
      </trkpt>
      <trkpt lat="45.8138" lon="4.68389">
        <ele>379.17514</ele>
        <time>2023-06-04T14:51:05.000Z</time>
      </trkpt>
      <trkpt lat="45.81383" lon="4.68401">
        <ele>379.12601</ele>
        <time>2023-06-04T14:51:06.000Z</time>
      </trkpt>
      <trkpt lat="45.81385" lon="4.68413">
        <ele>378.96527</ele>
        <time>2023-06-04T14:51:07.000Z</time>
      </trkpt>
      <trkpt lat="45.81383" lon="4.68422">
        <ele>378.90536</ele>
        <time>2023-06-04T14:51:08.000Z</time>
      </trkpt>
      <trkpt lat="45.81384" lon="4.68433">
        <ele>378.81274</ele>
        <time>2023-06-04T14:51:09.000Z</time>
      </trkpt>
      <trkpt lat="45.81381" lon="4.68443">
        <ele>378.71463</ele>
        <time>2023-06-04T14:51:10.000Z</time>
      </trkpt>
      <trkpt lat="45.8138" lon="4.68452">
        <ele>378.65762</ele>
        <time>2023-06-04T14:51:11.000Z</time>
      </trkpt>
      <trkpt lat="45.81379" lon="4.68459">
        <ele>378.56393</ele>
        <time>2023-06-04T14:51:12.000Z</time>
      </trkpt>
      <trkpt lat="45.81378" lon="4.68467">
        <ele>378.44971</ele>
        <time>2023-06-04T14:51:13.000Z</time>
      </trkpt>
      <trkpt lat="45.81376" lon="4.68478">
        <ele>378.42801</ele>
        <time>2023-06-04T14:51:14.000Z</time>
      </trkpt>
      <trkpt lat="45.81371" lon="4.68489">
        <ele>378.44504</ele>
        <time>2023-06-04T14:51:15.000Z</time>
      </trkpt>
      <trkpt lat="45.81374" lon="4.68502">
        <ele>378.49814</ele>
        <time>2023-06-04T14:51:16.000Z</time>
      </trkpt>
      <trkpt lat="45.81376" lon="4.68516">
        <ele>378.51068</ele>
        <time>2023-06-04T14:51:17.000Z</time>
      </trkpt>
      <trkpt lat="45.81379" lon="4.68524">
        <ele>378.47375</ele>
        <time>2023-06-04T14:51:18.000Z</time>
      </trkpt>
      <trkpt lat="45.8138" lon="4.68532">
        <ele>378.47162</ele>
        <time>2023-06-04T14:51:19.000Z</time>
      </trkpt>
      <trkpt lat="45.8138" lon="4.6854">
        <ele>378.49521</ele>
        <time>2023-06-04T14:51:20.000Z</time>
      </trkpt>
      <trkpt lat="45.81379" lon="4.68552">
        <ele>378.46259</ele>
        <time>2023-06-04T14:51:21.000Z</time>
      </trkpt>
      <trkpt lat="45.81379" lon="4.68563">
        <ele>378.30869</ele>
        <time>2023-06-04T14:51:22.000Z</time>
      </trkpt>
      <trkpt lat="45.81386" lon="4.68578">
        <ele>378.03961</ele>
        <time>2023-06-04T14:51:23.000Z</time>
      </trkpt>
      <trkpt lat="45.81392" lon="4.68588">
        <ele>377.71561</ele>
        <time>2023-06-04T14:51:24.000Z</time>
      </trkpt>
      <trkpt lat="45.81394" lon="4.68596">
        <ele>377.24774</ele>
        <time>2023-06-04T14:51:25.000Z</time>
      </trkpt>
      <trkpt lat="45.81398" lon="4.68605">
        <ele>376.7713</ele>
        <time>2023-06-04T14:51:26.000Z</time>
      </trkpt>
      <trkpt lat="45.81403" lon="4.68615">
        <ele>376.47601</ele>
        <time>2023-06-04T14:51:27.000Z</time>
      </trkpt>
      <trkpt lat="45.81411" lon="4.68622">
        <ele>376.15637</ele>
        <time>2023-06-04T14:51:28.000Z</time>
      </trkpt>
      <trkpt lat="45.8142" lon="4.68629">
        <ele>375.90536</ele>
        <time>2023-06-04T14:51:29.000Z</time>
      </trkpt>
      <trkpt lat="45.81425" lon="4.68641">
        <ele>375.60641</ele>
        <time>2023-06-04T14:51:30.000Z</time>
      </trkpt>
      <trkpt lat="45.81432" lon="4.68648">
        <ele>375.31064</ele>
        <time>2023-06-04T14:51:31.000Z</time>
      </trkpt>
      <trkpt lat="45.81439" lon="4.68656">
        <ele>375.60748</ele>
        <time>2023-06-04T14:51:32.000Z</time>
      </trkpt>
      <trkpt lat="45.81448" lon="4.68661">
        <ele>375.83621</ele>
        <time>2023-06-04T14:51:33.000Z</time>
      </trkpt>
      <trkpt lat="45.81456" lon="4.68669">
        <ele>376.00949</ele>
        <time>2023-06-04T14:51:34.000Z</time>
      </trkpt>
      <trkpt lat="45.81465" lon="4.68675">
        <ele>376.15781</ele>
        <time>2023-06-04T14:51:35.000Z</time>
      </trkpt>
      <trkpt lat="45.81466" lon="4.68686">
        <ele>376.23758</ele>
        <time>2023-06-04T14:51:36.000Z</time>
      </trkpt>
      <trkpt lat="45.81474" lon="4.68694">
        <ele>376.36694</ele>
        <time>2023-06-04T14:51:37.000Z</time>
      </trkpt>
      <trkpt lat="45.81482" lon="4.68701">
        <ele>376.51825</ele>
        <time>2023-06-04T14:51:38.000Z</time>
      </trkpt>
      <trkpt lat="45.81486" lon="4.68708">
        <ele>376.59799</ele>
        <time>2023-06-04T14:51:39.000Z</time>
      </trkpt>
      <trkpt lat="45.81492" lon="4.68715">
        <ele>376.67685</ele>
        <time>2023-06-04T14:51:40.000Z</time>
      </trkpt>
      <trkpt lat="45.81496" lon="4.68725">
        <ele>376.66714</ele>
        <time>2023-06-04T14:51:41.000Z</time>
      </trkpt>
      <trkpt lat="45.81503" lon="4.68733">
        <ele>376.68649</ele>
        <time>2023-06-04T14:51:42.000Z</time>
      </trkpt>
      <trkpt lat="45.81508" lon="4.68736">
        <ele>376.73798</ele>
        <time>2023-06-04T14:51:43.000Z</time>
      </trkpt>
      <trkpt lat="45.8151" lon="4.68744">
        <ele>376.76154</ele>
        <time>2023-06-04T14:51:44.000Z</time>
      </trkpt>
      <trkpt lat="45.81511" lon="4.68751">
        <ele>376.80817</ele>
        <time>2023-06-04T14:51:45.000Z</time>
      </trkpt>
      <trkpt lat="45.81514" lon="4.68753">
        <ele>376.85565</ele>
        <time>2023-06-04T14:51:46.000Z</time>
      </trkpt>
      <trkpt lat="45.81518" lon="4.68757">
        <ele>376.97488</ele>
        <time>2023-06-04T14:51:47.000Z</time>
      </trkpt>
      <trkpt lat="45.81522" lon="4.6876">
        <ele>377.04239</ele>
        <time>2023-06-04T14:51:48.000Z</time>
      </trkpt>
      <trkpt lat="45.81527" lon="4.68767">
        <ele>377.10046</ele>
        <time>2023-06-04T14:51:49.000Z</time>
      </trkpt>
      <trkpt lat="45.81533" lon="4.68774">
        <ele>377.28369</ele>
        <time>2023-06-04T14:51:50.000Z</time>
      </trkpt>
      <trkpt lat="45.81538" lon="4.68775">
        <ele>377.35205</ele>
        <time>2023-06-04T14:51:51.000Z</time>
      </trkpt>
      <trkpt lat="45.81541" lon="4.68778">
        <ele>376.82492</ele>
        <time>2023-06-04T14:51:52.000Z</time>
      </trkpt>
      <trkpt lat="45.81546" lon="4.68783">
        <ele>376.32971</ele>
        <time>2023-06-04T14:51:53.000Z</time>
      </trkpt>
      <trkpt lat="45.81549" lon="4.68792">
        <ele>375.91409</ele>
        <time>2023-06-04T14:51:54.000Z</time>
      </trkpt>
      <trkpt lat="45.81552" lon="4.68795">
        <ele>375.65448</ele>
        <time>2023-06-04T14:51:55.000Z</time>
      </trkpt>
      <trkpt lat="45.81557" lon="4.68796">
        <ele>375.07608</ele>
        <time>2023-06-04T14:51:56.000Z</time>
      </trkpt>
      <trkpt lat="45.8156" lon="4.68803">
        <ele>374.65698</ele>
        <time>2023-06-04T14:51:57.000Z</time>
      </trkpt>
      <trkpt lat="45.81565" lon="4.68805">
        <ele>374.27408</ele>
        <time>2023-06-04T14:51:58.000Z</time>
      </trkpt>
      <trkpt lat="45.81566" lon="4.68809">
        <ele>373.98065</ele>
        <time>2023-06-04T14:51:59.000Z</time>
      </trkpt>
      <trkpt lat="45.8157" lon="4.68811">
        <ele>373.71881</ele>
        <time>2023-06-04T14:52:00.000Z</time>
      </trkpt>
      <trkpt lat="45.81576" lon="4.68813">
        <ele>373.63483</ele>
        <time>2023-06-04T14:52:01.000Z</time>
      </trkpt>
      <trkpt lat="45.81581" lon="4.68819">
        <ele>373.55972</ele>
        <time>2023-06-04T14:52:02.000Z</time>
      </trkpt>
      <trkpt lat="45.81581" lon="4.68824">
        <ele>373.60785</ele>
        <time>2023-06-04T14:52:03.000Z</time>
      </trkpt>
      <trkpt lat="45.81585" lon="4.68828">
        <ele>373.41016</ele>
        <time>2023-06-04T14:52:04.000Z</time>
      </trkpt>
      <trkpt lat="45.81589" lon="4.68833">
        <ele>373.27399</ele>
        <time>2023-06-04T14:52:05.000Z</time>
      </trkpt>
      <trkpt lat="45.8159" lon="4.68839">
        <ele>373.20712</ele>
        <time>2023-06-04T14:52:06.000Z</time>
      </trkpt>
      <trkpt lat="45.81593" lon="4.6884">
        <ele>373.00229</ele>
        <time>2023-06-04T14:52:07.000Z</time>
      </trkpt>
      <trkpt lat="45.81599" lon="4.68846">
        <ele>372.78702</ele>
        <time>2023-06-04T14:52:08.000Z</time>
      </trkpt>
      <trkpt lat="45.81601" lon="4.6885">
        <ele>372.54694</ele>
        <time>2023-06-04T14:52:09.000Z</time>
      </trkpt>
      <trkpt lat="45.81604" lon="4.68853">
        <ele>372.24609</ele>
        <time>2023-06-04T14:52:10.000Z</time>
      </trkpt>
      <trkpt lat="45.81608" lon="4.6885">
        <ele>372.03839</ele>
        <time>2023-06-04T14:52:11.000Z</time>
      </trkpt>
      <trkpt lat="45.81614" lon="4.68847">
        <ele>371.85931</ele>
        <time>2023-06-04T14:52:12.000Z</time>
      </trkpt>
      <trkpt lat="45.81613" lon="4.68836">
        <ele>371.74652</ele>
        <time>2023-06-04T14:52:14.000Z</time>
      </trkpt>
      <trkpt lat="45.81614" lon="4.68829">
        <ele>371.62524</ele>
        <time>2023-06-04T14:52:15.000Z</time>
      </trkpt>
      <trkpt lat="45.81618" lon="4.68824">
        <ele>371.38416</ele>
        <time>2023-06-04T14:52:16.000Z</time>
      </trkpt>
      <trkpt lat="45.8162" lon="4.68817">
        <ele>371.57446</ele>
        <time>2023-06-04T14:52:17.000Z</time>
      </trkpt>
      <trkpt lat="45.81623" lon="4.68811">
        <ele>371.5784</ele>
        <time>2023-06-04T14:52:18.000Z</time>
      </trkpt>
      <trkpt lat="45.81628" lon="4.68808">
        <ele>371.54279</ele>
        <time>2023-06-04T14:52:19.000Z</time>
      </trkpt>
      <trkpt lat="45.81631" lon="4.68802">
        <ele>371.44565</ele>
        <time>2023-06-04T14:52:20.000Z</time>
      </trkpt>
      <trkpt lat="45.8163" lon="4.68795">
        <ele>371.31622</ele>
        <time>2023-06-04T14:52:21.000Z</time>
      </trkpt>
      <trkpt lat="45.81634" lon="4.68788">
        <ele>371.20901</ele>
        <time>2023-06-04T14:52:22.000Z</time>
      </trkpt>
      <trkpt lat="45.81636" lon="4.68781">
        <ele>371.12683</ele>
        <time>2023-06-04T14:52:23.000Z</time>
      </trkpt>
      <trkpt lat="45.81636" lon="4.68776">
        <ele>370.96588</ele>
        <time>2023-06-04T14:52:24.000Z</time>
      </trkpt>
      <trkpt lat="45.8164" lon="4.68769">
        <ele>371.06628</ele>
        <time>2023-06-04T14:52:25.000Z</time>
      </trkpt>
      <trkpt lat="45.81642" lon="4.68764">
        <ele>371.09921</ele>
        <time>2023-06-04T14:52:26.000Z</time>
      </trkpt>
      <trkpt lat="45.81645" lon="4.68757">
        <ele>371.1239</ele>
        <time>2023-06-04T14:52:27.000Z</time>
      </trkpt>
      <trkpt lat="45.81645" lon="4.68749">
        <ele>371.07233</ele>
        <time>2023-06-04T14:52:28.000Z</time>
      </trkpt>
      <trkpt lat="45.8165" lon="4.68741">
        <ele>371.0882</ele>
        <time>2023-06-04T14:52:29.000Z</time>
      </trkpt>
      <trkpt lat="45.81653" lon="4.68735">
        <ele>371.10266</ele>
        <time>2023-06-04T14:52:30.000Z</time>
      </trkpt>
      <trkpt lat="45.81654" lon="4.68728">
        <ele>371.15561</ele>
        <time>2023-06-04T14:52:31.000Z</time>
      </trkpt>
      <trkpt lat="45.81655" lon="4.68721">
        <ele>371.20435</ele>
        <time>2023-06-04T14:52:32.000Z</time>
      </trkpt>
      <trkpt lat="45.81657" lon="4.68713">
        <ele>371.20462</ele>
        <time>2023-06-04T14:52:33.000Z</time>
      </trkpt>
      <trkpt lat="45.8166" lon="4.68706">
        <ele>371.20746</ele>
        <time>2023-06-04T14:52:34.000Z</time>
      </trkpt>
      <trkpt lat="45.8166" lon="4.68699">
        <ele>371.16595</ele>
        <time>2023-06-04T14:52:35.000Z</time>
      </trkpt>
      <trkpt lat="45.81662" lon="4.6869">
        <ele>371.13226</ele>
        <time>2023-06-04T14:52:36.000Z</time>
      </trkpt>
      <trkpt lat="45.81664" lon="4.68683">
        <ele>371.08582</ele>
        <time>2023-06-04T14:52:37.000Z</time>
      </trkpt>
      <trkpt lat="45.81665" lon="4.68673">
        <ele>371.08124</ele>
        <time>2023-06-04T14:52:38.000Z</time>
      </trkpt>
      <trkpt lat="45.81666" lon="4.68666">
        <ele>371.0918</ele>
        <time>2023-06-04T14:52:39.000Z</time>
      </trkpt>
      <trkpt lat="45.81667" lon="4.68661">
        <ele>371.16791</ele>
        <time>2023-06-04T14:52:40.000Z</time>
      </trkpt>
      <trkpt lat="45.81668" lon="4.68654">
        <ele>371.73364</ele>
        <time>2023-06-04T14:52:41.000Z</time>
      </trkpt>
      <trkpt lat="45.81668" lon="4.68646">
        <ele>372.20758</ele>
        <time>2023-06-04T14:52:42.000Z</time>
      </trkpt>
      <trkpt lat="45.81673" lon="4.68642">
        <ele>372.80121</ele>
        <time>2023-06-04T14:52:43.000Z</time>
      </trkpt>
      <trkpt lat="45.81675" lon="4.68637">
        <ele>373.30652</ele>
        <time>2023-06-04T14:52:44.000Z</time>
      </trkpt>
      <trkpt lat="45.81677" lon="4.68631">
        <ele>373.75104</ele>
        <time>2023-06-04T14:52:45.000Z</time>
      </trkpt>
      <trkpt lat="45.8168" lon="4.68626">
        <ele>374.17422</ele>
        <time>2023-06-04T14:52:46.000Z</time>
      </trkpt>
      <trkpt lat="45.81683" lon="4.68625">
        <ele>374.56537</ele>
        <time>2023-06-04T14:52:47.000Z</time>
      </trkpt>
      <trkpt lat="45.81686" lon="4.68626">
        <ele>374.94931</ele>
        <time>2023-06-04T14:52:48.000Z</time>
      </trkpt>
      <trkpt lat="45.81688" lon="4.68626">
        <ele>375.35831</ele>
        <time>2023-06-04T14:52:49.000Z</time>
      </trkpt>
      <trkpt lat="45.81686" lon="4.68625">
        <ele>375.84692</ele>
        <time>2023-06-04T14:52:52.000Z</time>
      </trkpt>
      <trkpt lat="45.81686" lon="4.68622">
        <ele>376.3046</ele>
        <time>2023-06-04T14:52:54.000Z</time>
      </trkpt>
      <trkpt lat="45.81688" lon="4.68622">
        <ele>376.95505</ele>
        <time>2023-06-04T14:52:56.000Z</time>
      </trkpt>
      <trkpt lat="45.8169" lon="4.68622">
        <ele>377.81244</ele>
        <time>2023-06-04T14:52:58.000Z</time>
      </trkpt>
      <trkpt lat="45.81688" lon="4.68621">
        <ele>378.57803</ele>
        <time>2023-06-04T14:53:04.000Z</time>
      </trkpt>
      <trkpt lat="45.8169" lon="4.68619">
        <ele>379.19797</ele>
        <time>2023-06-04T14:53:09.000Z</time>
      </trkpt>
      <trkpt lat="45.81693" lon="4.68618">
        <ele>379.95944</ele>
        <time>2023-06-04T14:53:10.000Z</time>
      </trkpt>
      <trkpt lat="45.81696" lon="4.68617">
        <ele>380.33057</ele>
        <time>2023-06-04T14:53:11.000Z</time>
      </trkpt>
      <trkpt lat="45.817" lon="4.68617">
        <ele>380.67764</ele>
        <time>2023-06-04T14:53:12.000Z</time>
      </trkpt>
      <trkpt lat="45.81705" lon="4.68616">
        <ele>380.91901</ele>
        <time>2023-06-04T14:53:13.000Z</time>
      </trkpt>
      <trkpt lat="45.81709" lon="4.68616">
        <ele>381.3703</ele>
        <time>2023-06-04T14:53:14.000Z</time>
      </trkpt>
      <trkpt lat="45.81713" lon="4.68616">
        <ele>380.85767</ele>
        <time>2023-06-04T14:53:15.000Z</time>
      </trkpt>
      <trkpt lat="45.81722" lon="4.68616">
        <ele>380.34152</ele>
        <time>2023-06-04T14:53:16.000Z</time>
      </trkpt>
      <trkpt lat="45.81728" lon="4.68612">
        <ele>380.06238</ele>
        <time>2023-06-04T14:53:17.000Z</time>
      </trkpt>
      <trkpt lat="45.81731" lon="4.6861">
        <ele>379.91083</ele>
        <time>2023-06-04T14:53:18.000Z</time>
      </trkpt>
      <trkpt lat="45.81737" lon="4.68615">
        <ele>379.91928</ele>
        <time>2023-06-04T14:53:20.000Z</time>
      </trkpt>
      <trkpt lat="45.81744" lon="4.68615">
        <ele>379.99103</ele>
        <time>2023-06-04T14:53:21.000Z</time>
      </trkpt>
      <trkpt lat="45.81749" lon="4.68613">
        <ele>380.2533</ele>
        <time>2023-06-04T14:53:22.000Z</time>
      </trkpt>
      <trkpt lat="45.81754" lon="4.68615">
        <ele>380.59259</ele>
        <time>2023-06-04T14:53:23.000Z</time>
      </trkpt>
      <trkpt lat="45.81757" lon="4.68613">
        <ele>380.73309</ele>
        <time>2023-06-04T14:53:24.000Z</time>
      </trkpt>
      <trkpt lat="45.81762" lon="4.68613">
        <ele>380.84436</ele>
        <time>2023-06-04T14:53:25.000Z</time>
      </trkpt>
      <trkpt lat="45.81768" lon="4.68613">
        <ele>380.92563</ele>
        <time>2023-06-04T14:53:26.000Z</time>
      </trkpt>
      <trkpt lat="45.81771" lon="4.68613">
        <ele>380.81494</ele>
        <time>2023-06-04T14:53:27.000Z</time>
      </trkpt>
      <trkpt lat="45.81776" lon="4.68614">
        <ele>380.49191</ele>
        <time>2023-06-04T14:53:28.000Z</time>
      </trkpt>
      <trkpt lat="45.81779" lon="4.68614">
        <ele>380.18799</ele>
        <time>2023-06-04T14:53:29.000Z</time>
      </trkpt>
      <trkpt lat="45.81785" lon="4.68614">
        <ele>380.13779</ele>
        <time>2023-06-04T14:53:30.000Z</time>
      </trkpt>
      <trkpt lat="45.8179" lon="4.68612">
        <ele>379.9938</ele>
        <time>2023-06-04T14:53:31.000Z</time>
      </trkpt>
      <trkpt lat="45.81796" lon="4.68609">
        <ele>380.18329</ele>
        <time>2023-06-04T14:53:32.000Z</time>
      </trkpt>
      <trkpt lat="45.81804" lon="4.68609">
        <ele>380.40326</ele>
        <time>2023-06-04T14:53:33.000Z</time>
      </trkpt>
      <trkpt lat="45.81809" lon="4.68605">
        <ele>380.75482</ele>
        <time>2023-06-04T14:53:34.000Z</time>
      </trkpt>
      <trkpt lat="45.81811" lon="4.68605">
        <ele>380.77777</ele>
        <time>2023-06-04T14:53:35.000Z</time>
      </trkpt>
      <trkpt lat="45.81817" lon="4.68607">
        <ele>381.26471</ele>
        <time>2023-06-04T14:53:36.000Z</time>
      </trkpt>
      <trkpt lat="45.81823" lon="4.68606">
        <ele>381.7309</ele>
        <time>2023-06-04T14:53:37.000Z</time>
      </trkpt>
      <trkpt lat="45.81826" lon="4.68604">
        <ele>381.91574</ele>
        <time>2023-06-04T14:53:38.000Z</time>
      </trkpt>
      <trkpt lat="45.81832" lon="4.68603">
        <ele>382.12238</ele>
        <time>2023-06-04T14:53:39.000Z</time>
      </trkpt>
      <trkpt lat="45.81837" lon="4.68601">
        <ele>382.24274</ele>
        <time>2023-06-04T14:53:40.000Z</time>
      </trkpt>
      <trkpt lat="45.81846" lon="4.68601">
        <ele>382.29694</ele>
        <time>2023-06-04T14:53:41.000Z</time>
      </trkpt>
      <trkpt lat="45.81849" lon="4.68601">
        <ele>382.12079</ele>
        <time>2023-06-04T14:53:42.000Z</time>
      </trkpt>
      <trkpt lat="45.81855" lon="4.68602">
        <ele>381.91522</ele>
        <time>2023-06-04T14:53:43.000Z</time>
      </trkpt>
      <trkpt lat="45.81859" lon="4.68602">
        <ele>381.87216</ele>
        <time>2023-06-04T14:53:44.000Z</time>
      </trkpt>
      <trkpt lat="45.81864" lon="4.686">
        <ele>381.78629</ele>
        <time>2023-06-04T14:53:45.000Z</time>
      </trkpt>
      <trkpt lat="45.8187" lon="4.68596">
        <ele>381.76587</ele>
        <time>2023-06-04T14:53:46.000Z</time>
      </trkpt>
      <trkpt lat="45.81877" lon="4.68596">
        <ele>381.66254</ele>
        <time>2023-06-04T14:53:47.000Z</time>
      </trkpt>
      <trkpt lat="45.81882" lon="4.68595">
        <ele>381.77875</ele>
        <time>2023-06-04T14:53:48.000Z</time>
      </trkpt>
      <trkpt lat="45.81889" lon="4.68593">
        <ele>381.95398</ele>
        <time>2023-06-04T14:53:49.000Z</time>
      </trkpt>
      <trkpt lat="45.81895" lon="4.68597">
        <ele>382.09048</ele>
        <time>2023-06-04T14:53:50.000Z</time>
      </trkpt>
      <trkpt lat="45.81901" lon="4.68599">
        <ele>382.06573</ele>
        <time>2023-06-04T14:53:51.000Z</time>
      </trkpt>
      <trkpt lat="45.81905" lon="4.68596">
        <ele>382.03503</ele>
        <time>2023-06-04T14:53:52.000Z</time>
      </trkpt>
      <trkpt lat="45.81911" lon="4.68598">
        <ele>381.95392</ele>
        <time>2023-06-04T14:53:53.000Z</time>
      </trkpt>
      <trkpt lat="45.81916" lon="4.68597">
        <ele>381.89066</ele>
        <time>2023-06-04T14:53:54.000Z</time>
      </trkpt>
      <trkpt lat="45.81921" lon="4.68596">
        <ele>381.85266</ele>
        <time>2023-06-04T14:53:55.000Z</time>
      </trkpt>
      <trkpt lat="45.81927" lon="4.68593">
        <ele>381.87994</ele>
        <time>2023-06-04T14:53:56.000Z</time>
      </trkpt>
      <trkpt lat="45.81931" lon="4.68592">
        <ele>381.93414</ele>
        <time>2023-06-04T14:53:57.000Z</time>
      </trkpt>
      <trkpt lat="45.81937" lon="4.68596">
        <ele>381.93936</ele>
        <time>2023-06-04T14:53:58.000Z</time>
      </trkpt>
      <trkpt lat="45.81942" lon="4.68595">
        <ele>381.89032</ele>
        <time>2023-06-04T14:53:59.000Z</time>
      </trkpt>
      <trkpt lat="45.81947" lon="4.68598">
        <ele>381.83066</ele>
        <time>2023-06-04T14:54:00.000Z</time>
      </trkpt>
      <trkpt lat="45.81954" lon="4.686">
        <ele>381.80118</ele>
        <time>2023-06-04T14:54:01.000Z</time>
      </trkpt>
      <trkpt lat="45.81961" lon="4.68601">
        <ele>382.07547</ele>
        <time>2023-06-04T14:54:02.000Z</time>
      </trkpt>
      <trkpt lat="45.81964" lon="4.68603">
        <ele>381.34946</ele>
        <time>2023-06-04T14:54:03.000Z</time>
      </trkpt>
      <trkpt lat="45.81965" lon="4.6861">
        <ele>380.60266</ele>
        <time>2023-06-04T14:54:04.000Z</time>
      </trkpt>
      <trkpt lat="45.81964" lon="4.68616">
        <ele>379.79694</ele>
        <time>2023-06-04T14:54:05.000Z</time>
      </trkpt>
      <trkpt lat="45.81969" lon="4.6862">
        <ele>378.96625</ele>
        <time>2023-06-04T14:54:06.000Z</time>
      </trkpt>
      <trkpt lat="45.81976" lon="4.68622">
        <ele>378.228</ele>
        <time>2023-06-04T14:54:07.000Z</time>
      </trkpt>
      <trkpt lat="45.81979" lon="4.68622">
        <ele>377.24722</ele>
        <time>2023-06-04T14:54:08.000Z</time>
      </trkpt>
      <trkpt lat="45.81982" lon="4.68615">
        <ele>376.25995</ele>
        <time>2023-06-04T14:54:09.000Z</time>
      </trkpt>
      <trkpt lat="45.81987" lon="4.6861">
        <ele>375.23056</ele>
        <time>2023-06-04T14:54:10.000Z</time>
      </trkpt>
      <trkpt lat="45.81991" lon="4.68605">
        <ele>374.29352</ele>
        <time>2023-06-04T14:54:11.000Z</time>
      </trkpt>
      <trkpt lat="45.81997" lon="4.68602">
        <ele>373.42902</ele>
        <time>2023-06-04T14:54:12.000Z</time>
      </trkpt>
      <trkpt lat="45.82003" lon="4.686">
        <ele>372.59933</ele>
        <time>2023-06-04T14:54:13.000Z</time>
      </trkpt>
      <trkpt lat="45.82005" lon="4.686">
        <ele>371.71146</ele>
        <time>2023-06-04T14:54:14.000Z</time>
      </trkpt>
      <trkpt lat="45.82011" lon="4.68599">
        <ele>370.88861</ele>
        <time>2023-06-04T14:54:15.000Z</time>
      </trkpt>
      <trkpt lat="45.82019" lon="4.68602">
        <ele>370.00391</ele>
        <time>2023-06-04T14:54:16.000Z</time>
      </trkpt>
      <trkpt lat="45.82024" lon="4.68605">
        <ele>369.13882</ele>
        <time>2023-06-04T14:54:17.000Z</time>
      </trkpt>
      <trkpt lat="45.82029" lon="4.6861">
        <ele>369.68573</ele>
        <time>2023-06-04T14:54:18.000Z</time>
      </trkpt>
      <trkpt lat="45.82035" lon="4.68614">
        <ele>370.0495</ele>
        <time>2023-06-04T14:54:19.000Z</time>
      </trkpt>
      <trkpt lat="45.82036" lon="4.6862">
        <ele>370.39536</ele>
        <time>2023-06-04T14:54:20.000Z</time>
      </trkpt>
      <trkpt lat="45.82039" lon="4.68628">
        <ele>370.84225</ele>
        <time>2023-06-04T14:54:21.000Z</time>
      </trkpt>
      <trkpt lat="45.82041" lon="4.68635">
        <ele>371.00046</ele>
        <time>2023-06-04T14:54:22.000Z</time>
      </trkpt>
      <trkpt lat="45.8204" lon="4.68645">
        <ele>372.16736</ele>
        <time>2023-06-04T14:54:23.000Z</time>
      </trkpt>
      <trkpt lat="45.82036" lon="4.68652">
        <ele>373.31708</ele>
        <time>2023-06-04T14:54:24.000Z</time>
      </trkpt>
      <trkpt lat="45.82035" lon="4.68657">
        <ele>374.42688</ele>
        <time>2023-06-04T14:54:25.000Z</time>
      </trkpt>
      <trkpt lat="45.82033" lon="4.68664">
        <ele>375.61035</ele>
        <time>2023-06-04T14:54:26.000Z</time>
      </trkpt>
      <trkpt lat="45.82029" lon="4.6867">
        <ele>376.79053</ele>
        <time>2023-06-04T14:54:27.000Z</time>
      </trkpt>
      <trkpt lat="45.82027" lon="4.68677">
        <ele>378.09381</ele>
        <time>2023-06-04T14:54:28.000Z</time>
      </trkpt>
      <trkpt lat="45.82022" lon="4.68683">
        <ele>379.37631</ele>
        <time>2023-06-04T14:54:29.000Z</time>
      </trkpt>
      <trkpt lat="45.82018" lon="4.68689">
        <ele>380.9444</ele>
        <time>2023-06-04T14:54:30.000Z</time>
      </trkpt>
      <trkpt lat="45.82017" lon="4.68702">
        <ele>382.53156</ele>
        <time>2023-06-04T14:54:31.000Z</time>
      </trkpt>
      <trkpt lat="45.82016" lon="4.68711">
        <ele>384.06329</ele>
        <time>2023-06-04T14:54:32.000Z</time>
      </trkpt>
      <trkpt lat="45.82015" lon="4.68721">
        <ele>385.57745</ele>
        <time>2023-06-04T14:54:33.000Z</time>
      </trkpt>
      <trkpt lat="45.82012" lon="4.68726">
        <ele>387.11563</ele>
        <time>2023-06-04T14:54:34.000Z</time>
      </trkpt>
      <trkpt lat="45.8201" lon="4.68735">
        <ele>388.52402</ele>
        <time>2023-06-04T14:54:35.000Z</time>
      </trkpt>
      <trkpt lat="45.82012" lon="4.68742">
        <ele>389.93848</ele>
        <time>2023-06-04T14:54:36.000Z</time>
      </trkpt>
      <trkpt lat="45.82008" lon="4.68751">
        <ele>391.2623</ele>
        <time>2023-06-04T14:54:37.000Z</time>
      </trkpt>
      <trkpt lat="45.82006" lon="4.68759">
        <ele>391.18451</ele>
        <time>2023-06-04T14:54:38.000Z</time>
      </trkpt>
      <trkpt lat="45.82008" lon="4.68767">
        <ele>391.26202</ele>
        <time>2023-06-04T14:54:39.000Z</time>
      </trkpt>
      <trkpt lat="45.82008" lon="4.68781">
        <ele>391.2803</ele>
        <time>2023-06-04T14:54:40.000Z</time>
      </trkpt>
      <trkpt lat="45.82" lon="4.68791">
        <ele>391.19305</ele>
        <time>2023-06-04T14:54:41.000Z</time>
      </trkpt>
      <trkpt lat="45.81998" lon="4.68798">
        <ele>391.22937</ele>
        <time>2023-06-04T14:54:42.000Z</time>
      </trkpt>
      <trkpt lat="45.81997" lon="4.6881">
        <ele>391.17868</ele>
        <time>2023-06-04T14:54:43.000Z</time>
      </trkpt>
      <trkpt lat="45.81996" lon="4.68822">
        <ele>390.99173</ele>
        <time>2023-06-04T14:54:44.000Z</time>
      </trkpt>
      <trkpt lat="45.81995" lon="4.68831">
        <ele>390.77866</ele>
        <time>2023-06-04T14:54:45.000Z</time>
      </trkpt>
      <trkpt lat="45.81994" lon="4.68838">
        <ele>390.39221</ele>
        <time>2023-06-04T14:54:46.000Z</time>
      </trkpt>
      <trkpt lat="45.81991" lon="4.68848">
        <ele>389.97116</ele>
        <time>2023-06-04T14:54:47.000Z</time>
      </trkpt>
      <trkpt lat="45.81989" lon="4.68858">
        <ele>389.51648</ele>
        <time>2023-06-04T14:54:48.000Z</time>
      </trkpt>
      <trkpt lat="45.81989" lon="4.6887">
        <ele>389.16016</ele>
        <time>2023-06-04T14:54:49.000Z</time>
      </trkpt>
      <trkpt lat="45.81987" lon="4.68878">
        <ele>388.51727</ele>
        <time>2023-06-04T14:54:50.000Z</time>
      </trkpt>
      <trkpt lat="45.81985" lon="4.68886">
        <ele>387.86942</ele>
        <time>2023-06-04T14:54:51.000Z</time>
      </trkpt>
      <trkpt lat="45.81984" lon="4.68895">
        <ele>387.24335</ele>
        <time>2023-06-04T14:54:52.000Z</time>
      </trkpt>
      <trkpt lat="45.81979" lon="4.68902">
        <ele>386.79349</ele>
        <time>2023-06-04T14:54:53.000Z</time>
      </trkpt>
      <trkpt lat="45.81973" lon="4.68912">
        <ele>386.29318</ele>
        <time>2023-06-04T14:54:54.000Z</time>
      </trkpt>
      <trkpt lat="45.81972" lon="4.68922">
        <ele>385.98038</ele>
        <time>2023-06-04T14:54:55.000Z</time>
      </trkpt>
      <trkpt lat="45.81966" lon="4.68931">
        <ele>385.70581</ele>
        <time>2023-06-04T14:54:56.000Z</time>
      </trkpt>
      <trkpt lat="45.81969" lon="4.6894">
        <ele>385.33783</ele>
        <time>2023-06-04T14:54:57.000Z</time>
      </trkpt>
      <trkpt lat="45.81966" lon="4.68951">
        <ele>384.92987</ele>
        <time>2023-06-04T14:54:58.000Z</time>
      </trkpt>
      <trkpt lat="45.81966" lon="4.68959">
        <ele>384.60165</ele>
        <time>2023-06-04T14:54:59.000Z</time>
      </trkpt>
      <trkpt lat="45.81966" lon="4.68971">
        <ele>384.52866</ele>
        <time>2023-06-04T14:55:00.000Z</time>
      </trkpt>
      <trkpt lat="45.81963" lon="4.68983">
        <ele>384.57318</ele>
        <time>2023-06-04T14:55:01.000Z</time>
      </trkpt>
      <trkpt lat="45.81963" lon="4.68994">
        <ele>384.5517</ele>
        <time>2023-06-04T14:55:02.000Z</time>
      </trkpt>
      <trkpt lat="45.81962" lon="4.69005">
        <ele>384.6058</ele>
        <time>2023-06-04T14:55:03.000Z</time>
      </trkpt>
      <trkpt lat="45.81959" lon="4.69013">
        <ele>384.8197</ele>
        <time>2023-06-04T14:55:04.000Z</time>
      </trkpt>
      <trkpt lat="45.81961" lon="4.69024">
        <ele>385.16913</ele>
        <time>2023-06-04T14:55:05.000Z</time>
      </trkpt>
      <trkpt lat="45.81964" lon="4.69034">
        <ele>385.52643</ele>
        <time>2023-06-04T14:55:06.000Z</time>
      </trkpt>
      <trkpt lat="45.81949" lon="4.69048">
        <ele>385.85953</ele>
        <time>2023-06-04T14:55:07.000Z</time>
      </trkpt>
      <trkpt lat="45.81947" lon="4.69055">
        <ele>386.20688</ele>
        <time>2023-06-04T14:55:08.000Z</time>
      </trkpt>
      <trkpt lat="45.81946" lon="4.69067">
        <ele>386.38681</ele>
        <time>2023-06-04T14:55:09.000Z</time>
      </trkpt>
      <trkpt lat="45.81943" lon="4.69075">
        <ele>386.57898</ele>
        <time>2023-06-04T14:55:10.000Z</time>
      </trkpt>
      <trkpt lat="45.81942" lon="4.69089">
        <ele>386.73547</ele>
        <time>2023-06-04T14:55:11.000Z</time>
      </trkpt>
      <trkpt lat="45.81941" lon="4.69097">
        <ele>386.75613</ele>
        <time>2023-06-04T14:55:12.000Z</time>
      </trkpt>
      <trkpt lat="45.81938" lon="4.69106">
        <ele>386.70587</ele>
        <time>2023-06-04T14:55:13.000Z</time>
      </trkpt>
      <trkpt lat="45.81937" lon="4.69116">
        <ele>386.61075</ele>
        <time>2023-06-04T14:55:14.000Z</time>
      </trkpt>
      <trkpt lat="45.81936" lon="4.69124">
        <ele>386.43884</ele>
        <time>2023-06-04T14:55:15.000Z</time>
      </trkpt>
      <trkpt lat="45.81933" lon="4.69134">
        <ele>386.23663</ele>
        <time>2023-06-04T14:55:16.000Z</time>
      </trkpt>
      <trkpt lat="45.81928" lon="4.69137">
        <ele>386.38599</ele>
        <time>2023-06-04T14:55:17.000Z</time>
      </trkpt>
      <trkpt lat="45.81926" lon="4.69146">
        <ele>386.5788</ele>
        <time>2023-06-04T14:55:18.000Z</time>
      </trkpt>
      <trkpt lat="45.81926" lon="4.69153">
        <ele>386.77383</ele>
        <time>2023-06-04T14:55:19.000Z</time>
      </trkpt>
      <trkpt lat="45.8193" lon="4.69159">
        <ele>386.69812</ele>
        <time>2023-06-04T14:55:20.000Z</time>
      </trkpt>
      <trkpt lat="45.81932" lon="4.6917">
        <ele>386.52875</ele>
        <time>2023-06-04T14:55:21.000Z</time>
      </trkpt>
      <trkpt lat="45.81931" lon="4.69181">
        <ele>386.26685</ele>
        <time>2023-06-04T14:55:22.000Z</time>
      </trkpt>
      <trkpt lat="45.81931" lon="4.69187">
        <ele>386.10114</ele>
        <time>2023-06-04T14:55:23.000Z</time>
      </trkpt>
      <trkpt lat="45.81931" lon="4.69198">
        <ele>385.94479</ele>
        <time>2023-06-04T14:55:24.000Z</time>
      </trkpt>
      <trkpt lat="45.8193" lon="4.69207">
        <ele>384.47351</ele>
        <time>2023-06-04T14:55:26.000Z</time>
      </trkpt>
      <trkpt lat="45.81932" lon="4.69219">
        <ele>383.07275</ele>
        <time>2023-06-04T14:55:27.000Z</time>
      </trkpt>
      <trkpt lat="45.81934" lon="4.69231">
        <ele>381.73203</ele>
        <time>2023-06-04T14:55:28.000Z</time>
      </trkpt>
      <trkpt lat="45.81935" lon="4.69238">
        <ele>380.3526</ele>
        <time>2023-06-04T14:55:29.000Z</time>
      </trkpt>
      <trkpt lat="45.81933" lon="4.69248">
        <ele>379.05545</ele>
        <time>2023-06-04T14:55:30.000Z</time>
      </trkpt>
      <trkpt lat="45.81931" lon="4.69255">
        <ele>377.76407</ele>
        <time>2023-06-04T14:55:31.000Z</time>
      </trkpt>
      <trkpt lat="45.81929" lon="4.69261">
        <ele>376.51227</ele>
        <time>2023-06-04T14:55:32.000Z</time>
      </trkpt>
      <trkpt lat="45.81929" lon="4.69269">
        <ele>375.36368</ele>
        <time>2023-06-04T14:55:33.000Z</time>
      </trkpt>
      <trkpt lat="45.81927" lon="4.69273">
        <ele>374.09763</ele>
        <time>2023-06-04T14:55:34.000Z</time>
      </trkpt>
      <trkpt lat="45.81925" lon="4.69283">
        <ele>372.94604</ele>
        <time>2023-06-04T14:55:35.000Z</time>
      </trkpt>
      <trkpt lat="45.81922" lon="4.69283">
        <ele>371.82178</ele>
        <time>2023-06-04T14:55:36.000Z</time>
      </trkpt>
      <trkpt lat="45.81924" lon="4.69289">
        <ele>370.75381</ele>
        <time>2023-06-04T14:55:37.000Z</time>
      </trkpt>
      <trkpt lat="45.81916" lon="4.69295">
        <ele>369.51001</ele>
        <time>2023-06-04T14:55:38.000Z</time>
      </trkpt>
      <trkpt lat="45.81917" lon="4.69306">
        <ele>368.25446</ele>
        <time>2023-06-04T14:55:39.000Z</time>
      </trkpt>
      <trkpt lat="45.81918" lon="4.69316">
        <ele>366.93781</ele>
        <time>2023-06-04T14:55:40.000Z</time>
      </trkpt>
      <trkpt lat="45.81917" lon="4.69324">
        <ele>365.73877</ele>
        <time>2023-06-04T14:55:41.000Z</time>
      </trkpt>
      <trkpt lat="45.81916" lon="4.6933">
        <ele>364.55511</ele>
        <time>2023-06-04T14:55:42.000Z</time>
      </trkpt>
      <trkpt lat="45.81919" lon="4.6934">
        <ele>363.47348</ele>
        <time>2023-06-04T14:55:43.000Z</time>
      </trkpt>
      <trkpt lat="45.81919" lon="4.69346">
        <ele>362.38803</ele>
        <time>2023-06-04T14:55:44.000Z</time>
      </trkpt>
      <trkpt lat="45.81918" lon="4.69356">
        <ele>361.32928</ele>
        <time>2023-06-04T14:55:45.000Z</time>
      </trkpt>
      <trkpt lat="45.81918" lon="4.69361">
        <ele>361.59613</ele>
        <time>2023-06-04T14:55:46.000Z</time>
      </trkpt>
      <trkpt lat="45.81916" lon="4.69368">
        <ele>361.87607</ele>
        <time>2023-06-04T14:55:47.000Z</time>
      </trkpt>
      <trkpt lat="45.81914" lon="4.69371">
        <ele>362.14624</ele>
        <time>2023-06-04T14:55:48.000Z</time>
      </trkpt>
      <trkpt lat="45.81909" lon="4.6938">
        <ele>362.40674</ele>
        <time>2023-06-04T14:55:49.000Z</time>
      </trkpt>
      <trkpt lat="45.81909" lon="4.69387">
        <ele>362.71344</ele>
        <time>2023-06-04T14:55:50.000Z</time>
      </trkpt>
      <trkpt lat="45.81908" lon="4.69395">
        <ele>363.0752</ele>
        <time>2023-06-04T14:55:51.000Z</time>
      </trkpt>
      <trkpt lat="45.81907" lon="4.69403">
        <ele>363.41293</ele>
        <time>2023-06-04T14:55:52.000Z</time>
      </trkpt>
      <trkpt lat="45.81904" lon="4.69413">
        <ele>363.79532</ele>
        <time>2023-06-04T14:55:53.000Z</time>
      </trkpt>
      <trkpt lat="45.81905" lon="4.69421">
        <ele>364.20447</ele>
        <time>2023-06-04T14:55:54.000Z</time>
      </trkpt>
      <trkpt lat="45.81903" lon="4.69427">
        <ele>364.54547</ele>
        <time>2023-06-04T14:55:55.000Z</time>
      </trkpt>
      <trkpt lat="45.81903" lon="4.69434">
        <ele>364.90118</ele>
        <time>2023-06-04T14:55:56.000Z</time>
      </trkpt>
      <trkpt lat="45.81901" lon="4.6944">
        <ele>365.27206</ele>
        <time>2023-06-04T14:55:57.000Z</time>
      </trkpt>
      <trkpt lat="45.819" lon="4.69446">
        <ele>365.63312</ele>
        <time>2023-06-04T14:55:58.000Z</time>
      </trkpt>
      <trkpt lat="45.819" lon="4.69456">
        <ele>366.18527</ele>
        <time>2023-06-04T14:55:59.000Z</time>
      </trkpt>
      <trkpt lat="45.81899" lon="4.6946">
        <ele>366.76312</ele>
        <time>2023-06-04T14:56:00.000Z</time>
      </trkpt>
      <trkpt lat="45.81897" lon="4.69468">
        <ele>367.37268</ele>
        <time>2023-06-04T14:56:01.000Z</time>
      </trkpt>
      <trkpt lat="45.81895" lon="4.69476">
        <ele>367.98349</ele>
        <time>2023-06-04T14:56:02.000Z</time>
      </trkpt>
      <trkpt lat="45.81895" lon="4.69482">
        <ele>368.52606</ele>
        <time>2023-06-04T14:56:03.000Z</time>
      </trkpt>
      <trkpt lat="45.81893" lon="4.69488">
        <ele>369.039</ele>
        <time>2023-06-04T14:56:04.000Z</time>
      </trkpt>
      <trkpt lat="45.81894" lon="4.69492">
        <ele>369.48651</ele>
        <time>2023-06-04T14:56:05.000Z</time>
      </trkpt>
      <trkpt lat="45.8189" lon="4.695">
        <ele>369.89288</ele>
        <time>2023-06-04T14:56:06.000Z</time>
      </trkpt>
      <trkpt lat="45.81888" lon="4.69507">
        <ele>370.30893</ele>
        <time>2023-06-04T14:56:07.000Z</time>
      </trkpt>
      <trkpt lat="45.81886" lon="4.69513">
        <ele>370.68671</ele>
        <time>2023-06-04T14:56:08.000Z</time>
      </trkpt>
      <trkpt lat="45.81886" lon="4.6952">
        <ele>371.03992</ele>
        <time>2023-06-04T14:56:09.000Z</time>
      </trkpt>
      <trkpt lat="45.81885" lon="4.69527">
        <ele>371.3736</ele>
        <time>2023-06-04T14:56:10.000Z</time>
      </trkpt>
      <trkpt lat="45.81884" lon="4.69532">
        <ele>371.64032</ele>
        <time>2023-06-04T14:56:11.000Z</time>
      </trkpt>
      <trkpt lat="45.81881" lon="4.69538">
        <ele>371.92413</ele>
        <time>2023-06-04T14:56:12.000Z</time>
      </trkpt>
      <trkpt lat="45.8188" lon="4.69544">
        <ele>372.17816</ele>
        <time>2023-06-04T14:56:13.000Z</time>
      </trkpt>
      <trkpt lat="45.81879" lon="4.6955">
        <ele>372.42181</ele>
        <time>2023-06-04T14:56:14.000Z</time>
      </trkpt>
      <trkpt lat="45.81878" lon="4.69557">
        <ele>372.70447</ele>
        <time>2023-06-04T14:56:15.000Z</time>
      </trkpt>
      <trkpt lat="45.81876" lon="4.69565">
        <ele>372.93671</ele>
        <time>2023-06-04T14:56:16.000Z</time>
      </trkpt>
      <trkpt lat="45.81875" lon="4.6957">
        <ele>373.12408</ele>
        <time>2023-06-04T14:56:17.000Z</time>
      </trkpt>
      <trkpt lat="45.81875" lon="4.69575">
        <ele>373.35858</ele>
        <time>2023-06-04T14:56:18.000Z</time>
      </trkpt>
      <trkpt lat="45.81874" lon="4.69583">
        <ele>373.40454</ele>
        <time>2023-06-04T14:56:19.000Z</time>
      </trkpt>
      <trkpt lat="45.81871" lon="4.69587">
        <ele>373.38019</ele>
        <time>2023-06-04T14:56:20.000Z</time>
      </trkpt>
      <trkpt lat="45.8187" lon="4.69595">
        <ele>373.20721</ele>
        <time>2023-06-04T14:56:21.000Z</time>
      </trkpt>
      <trkpt lat="45.8187" lon="4.69605">
        <ele>373.47528</ele>
        <time>2023-06-04T14:56:22.000Z</time>
      </trkpt>
      <trkpt lat="45.81871" lon="4.69612">
        <ele>373.76556</ele>
        <time>2023-06-04T14:56:23.000Z</time>
      </trkpt>
      <trkpt lat="45.8187" lon="4.69622">
        <ele>374.05399</ele>
        <time>2023-06-04T14:56:25.000Z</time>
      </trkpt>
      <trkpt lat="45.81868" lon="4.69625">
        <ele>373.96707</ele>
        <time>2023-06-04T14:56:26.000Z</time>
      </trkpt>
      <trkpt lat="45.81868" lon="4.69632">
        <ele>373.9183</ele>
        <time>2023-06-04T14:56:27.000Z</time>
      </trkpt>
      <trkpt lat="45.81866" lon="4.69638">
        <ele>373.81622</ele>
        <time>2023-06-04T14:56:28.000Z</time>
      </trkpt>
      <trkpt lat="45.81863" lon="4.69648">
        <ele>373.69183</ele>
        <time>2023-06-04T14:56:29.000Z</time>
      </trkpt>
      <trkpt lat="45.81864" lon="4.69654">
        <ele>373.56766</ele>
        <time>2023-06-04T14:56:30.000Z</time>
      </trkpt>
      <trkpt lat="45.81861" lon="4.69658">
        <ele>373.42981</ele>
        <time>2023-06-04T14:56:31.000Z</time>
      </trkpt>
      <trkpt lat="45.81859" lon="4.69665">
        <ele>374.08112</ele>
        <time>2023-06-04T14:56:32.000Z</time>
      </trkpt>
      <trkpt lat="45.81857" lon="4.69673">
        <ele>374.78018</ele>
        <time>2023-06-04T14:56:33.000Z</time>
      </trkpt>
      <trkpt lat="45.81855" lon="4.69678">
        <ele>375.50085</ele>
        <time>2023-06-04T14:56:34.000Z</time>
      </trkpt>
      <trkpt lat="45.81855" lon="4.69683">
        <ele>376.22369</ele>
        <time>2023-06-04T14:56:35.000Z</time>
      </trkpt>
      <trkpt lat="45.81855" lon="4.69689">
        <ele>376.87848</ele>
        <time>2023-06-04T14:56:36.000Z</time>
      </trkpt>
      <trkpt lat="45.81856" lon="4.69699">
        <ele>376.76312</ele>
        <time>2023-06-04T14:56:37.000Z</time>
      </trkpt>
      <trkpt lat="45.81859" lon="4.69708">
        <ele>376.6474</ele>
        <time>2023-06-04T14:56:38.000Z</time>
      </trkpt>
      <trkpt lat="45.81858" lon="4.69715">
        <ele>376.5246</ele>
        <time>2023-06-04T14:56:39.000Z</time>
      </trkpt>
      <trkpt lat="45.81855" lon="4.69713">
        <ele>376.37338</ele>
        <time>2023-06-04T14:56:40.000Z</time>
      </trkpt>
      <trkpt lat="45.81857" lon="4.6972">
        <ele>376.2601</ele>
        <time>2023-06-04T14:56:41.000Z</time>
      </trkpt>
      <trkpt lat="45.81856" lon="4.69724">
        <ele>376.23724</ele>
        <time>2023-06-04T14:56:42.000Z</time>
      </trkpt>
      <trkpt lat="45.81858" lon="4.69732">
        <ele>376.65314</ele>
        <time>2023-06-04T14:56:43.000Z</time>
      </trkpt>
      <trkpt lat="45.8186" lon="4.69736">
        <ele>377.09308</ele>
        <time>2023-06-04T14:56:44.000Z</time>
      </trkpt>
      <trkpt lat="45.81864" lon="4.69741">
        <ele>377.5032</ele>
        <time>2023-06-04T14:56:45.000Z</time>
      </trkpt>
      <trkpt lat="45.81865" lon="4.69744">
        <ele>378.32544</ele>
        <time>2023-06-04T14:56:46.000Z</time>
      </trkpt>
      <trkpt lat="45.81867" lon="4.69745">
        <ele>379.12885</ele>
        <time>2023-06-04T14:56:47.000Z</time>
      </trkpt>
      <trkpt lat="45.81871" lon="4.69746">
        <ele>380.08234</ele>
        <time>2023-06-04T14:56:48.000Z</time>
      </trkpt>
      <trkpt lat="45.81875" lon="4.69749">
        <ele>381.10928</ele>
        <time>2023-06-04T14:56:49.000Z</time>
      </trkpt>
      <trkpt lat="45.81882" lon="4.69748">
        <ele>380.96484</ele>
        <time>2023-06-04T14:56:50.000Z</time>
      </trkpt>
      <trkpt lat="45.81886" lon="4.6975">
        <ele>381.59601</ele>
        <time>2023-06-04T14:56:51.000Z</time>
      </trkpt>
      <trkpt lat="45.81888" lon="4.69746">
        <ele>381.33661</ele>
        <time>2023-06-04T14:56:52.000Z</time>
      </trkpt>
      <trkpt lat="45.81893" lon="4.69743">
        <ele>381.04776</ele>
        <time>2023-06-04T14:56:53.000Z</time>
      </trkpt>
      <trkpt lat="45.81897" lon="4.69738">
        <ele>380.7359</ele>
        <time>2023-06-04T14:56:54.000Z</time>
      </trkpt>
      <trkpt lat="45.81902" lon="4.69737">
        <ele>380.42975</ele>
        <time>2023-06-04T14:56:55.000Z</time>
      </trkpt>
      <trkpt lat="45.81911" lon="4.69736">
        <ele>380.14517</ele>
        <time>2023-06-04T14:56:56.000Z</time>
      </trkpt>
      <trkpt lat="45.81912" lon="4.69736">
        <ele>380.66425</ele>
        <time>2023-06-04T14:56:57.000Z</time>
      </trkpt>
      <trkpt lat="45.81912" lon="4.69733">
        <ele>381.186</ele>
        <time>2023-06-04T14:56:58.000Z</time>
      </trkpt>
      <trkpt lat="45.81914" lon="4.69729">
        <ele>381.65948</ele>
        <time>2023-06-04T14:56:59.000Z</time>
      </trkpt>
      <trkpt lat="45.81917" lon="4.69728">
        <ele>382.15274</ele>
        <time>2023-06-04T14:57:00.000Z</time>
      </trkpt>
      <trkpt lat="45.81921" lon="4.69728">
        <ele>382.69977</ele>
        <time>2023-06-04T14:57:01.000Z</time>
      </trkpt>
      <trkpt lat="45.81925" lon="4.69727">
        <ele>383.2724</ele>
        <time>2023-06-04T14:57:02.000Z</time>
      </trkpt>
      <trkpt lat="45.81931" lon="4.69725">
        <ele>382.97403</ele>
        <time>2023-06-04T14:57:03.000Z</time>
      </trkpt>
      <trkpt lat="45.81935" lon="4.69725">
        <ele>382.68335</ele>
        <time>2023-06-04T14:57:04.000Z</time>
      </trkpt>
      <trkpt lat="45.8194" lon="4.69725">
        <ele>382.37827</ele>
        <time>2023-06-04T14:57:05.000Z</time>
      </trkpt>
      <trkpt lat="45.81944" lon="4.69721">
        <ele>382.08844</ele>
        <time>2023-06-04T14:57:06.000Z</time>
      </trkpt>
      <trkpt lat="45.81948" lon="4.6972">
        <ele>381.78503</ele>
        <time>2023-06-04T14:57:07.000Z</time>
      </trkpt>
      <trkpt lat="45.81951" lon="4.69717">
        <ele>381.35455</ele>
        <time>2023-06-04T14:57:08.000Z</time>
      </trkpt>
      <trkpt lat="45.81955" lon="4.69715">
        <ele>380.87677</ele>
        <time>2023-06-04T14:57:09.000Z</time>
      </trkpt>
      <trkpt lat="45.81959" lon="4.69713">
        <ele>381.56958</ele>
        <time>2023-06-04T14:57:10.000Z</time>
      </trkpt>
      <trkpt lat="45.81963" lon="4.69711">
        <ele>381.48303</ele>
        <time>2023-06-04T14:57:11.000Z</time>
      </trkpt>
      <trkpt lat="45.81965" lon="4.6971">
        <ele>381.46005</ele>
        <time>2023-06-04T14:57:12.000Z</time>
      </trkpt>
      <trkpt lat="45.81967" lon="4.69709">
        <ele>381.43735</ele>
        <time>2023-06-04T14:57:13.000Z</time>
      </trkpt>
      <trkpt lat="45.8197" lon="4.69708">
        <ele>381.4151</ele>
        <time>2023-06-04T14:57:14.000Z</time>
      </trkpt>
      <trkpt lat="45.81973" lon="4.69708">
        <ele>381.39493</ele>
        <time>2023-06-04T14:57:15.000Z</time>
      </trkpt>
      <trkpt lat="45.81976" lon="4.69706">
        <ele>381.43509</ele>
        <time>2023-06-04T14:57:16.000Z</time>
      </trkpt>
      <trkpt lat="45.81981" lon="4.69705">
        <ele>381.46637</ele>
        <time>2023-06-04T14:57:17.000Z</time>
      </trkpt>
      <trkpt lat="45.81984" lon="4.69703">
        <ele>381.50339</ele>
        <time>2023-06-04T14:57:18.000Z</time>
      </trkpt>
      <trkpt lat="45.81987" lon="4.69702">
        <ele>381.54858</ele>
        <time>2023-06-04T14:57:19.000Z</time>
      </trkpt>
      <trkpt lat="45.8199" lon="4.69702">
        <ele>381.61133</ele>
        <time>2023-06-04T14:57:20.000Z</time>
      </trkpt>
      <trkpt lat="45.81997" lon="4.69702">
        <ele>382.28439</ele>
        <time>2023-06-04T14:57:21.000Z</time>
      </trkpt>
      <trkpt lat="45.81999" lon="4.69701">
        <ele>382.93512</ele>
        <time>2023-06-04T14:57:22.000Z</time>
      </trkpt>
      <trkpt lat="45.82004" lon="4.697">
        <ele>383.55325</ele>
        <time>2023-06-04T14:57:23.000Z</time>
      </trkpt>
      <trkpt lat="45.82008" lon="4.69694">
        <ele>384.10992</ele>
        <time>2023-06-04T14:57:24.000Z</time>
      </trkpt>
      <trkpt lat="45.82011" lon="4.69692">
        <ele>384.66205</ele>
        <time>2023-06-04T14:57:25.000Z</time>
      </trkpt>
      <trkpt lat="45.82016" lon="4.69689">
        <ele>385.16397</ele>
        <time>2023-06-04T14:57:26.000Z</time>
      </trkpt>
      <trkpt lat="45.82022" lon="4.69688">
        <ele>385.69092</ele>
        <time>2023-06-04T14:57:27.000Z</time>
      </trkpt>
      <trkpt lat="45.82026" lon="4.69685">
        <ele>386.11194</ele>
        <time>2023-06-04T14:57:28.000Z</time>
      </trkpt>
      <trkpt lat="45.82031" lon="4.69682">
        <ele>386.57028</ele>
        <time>2023-06-04T14:57:29.000Z</time>
      </trkpt>
      <trkpt lat="45.82036" lon="4.69681">
        <ele>386.98541</ele>
        <time>2023-06-04T14:57:30.000Z</time>
      </trkpt>
      <trkpt lat="45.82042" lon="4.69677">
        <ele>387.46658</ele>
        <time>2023-06-04T14:57:31.000Z</time>
      </trkpt>
      <trkpt lat="45.82048" lon="4.69677">
        <ele>388.00427</ele>
        <time>2023-06-04T14:57:32.000Z</time>
      </trkpt>
      <trkpt lat="45.82056" lon="4.69675">
        <ele>388.49252</ele>
        <time>2023-06-04T14:57:33.000Z</time>
      </trkpt>
      <trkpt lat="45.82061" lon="4.69672">
        <ele>389.09052</ele>
        <time>2023-06-04T14:57:34.000Z</time>
      </trkpt>
      <trkpt lat="45.82063" lon="4.69665">
        <ele>388.55362</ele>
        <time>2023-06-04T14:57:35.000Z</time>
      </trkpt>
      <trkpt lat="45.82069" lon="4.69662">
        <ele>388.03522</ele>
        <time>2023-06-04T14:57:36.000Z</time>
      </trkpt>
      <trkpt lat="45.82071" lon="4.69661">
        <ele>387.45132</ele>
        <time>2023-06-04T14:57:37.000Z</time>
      </trkpt>
      <trkpt lat="45.82079" lon="4.69658">
        <ele>386.78391</ele>
        <time>2023-06-04T14:57:38.000Z</time>
      </trkpt>
      <trkpt lat="45.8208" lon="4.69654">
        <ele>386.18417</ele>
        <time>2023-06-04T14:57:39.000Z</time>
      </trkpt>
      <trkpt lat="45.82079" lon="4.6965">
        <ele>385.60068</ele>
        <time>2023-06-04T14:57:40.000Z</time>
      </trkpt>
      <trkpt lat="45.8208" lon="4.69647">
        <ele>384.35345</ele>
        <time>2023-06-04T14:57:41.000Z</time>
      </trkpt>
      <trkpt lat="45.82082" lon="4.69643">
        <ele>383.0939</ele>
        <time>2023-06-04T14:57:42.000Z</time>
      </trkpt>
      <trkpt lat="45.82084" lon="4.69638">
        <ele>383.08365</ele>
        <time>2023-06-04T14:57:44.000Z</time>
      </trkpt>
      <trkpt lat="45.82087" lon="4.6964">
        <ele>383.16644</ele>
        <time>2023-06-04T14:57:45.000Z</time>
      </trkpt>
      <trkpt lat="45.82091" lon="4.69638">
        <ele>383.18808</ele>
        <time>2023-06-04T14:57:47.000Z</time>
      </trkpt>
      <trkpt lat="45.82089" lon="4.69635">
        <ele>381.95319</ele>
        <time>2023-06-04T14:57:48.000Z</time>
      </trkpt>
      <trkpt lat="45.82088" lon="4.69632">
        <ele>380.71075</ele>
        <time>2023-06-04T14:57:49.000Z</time>
      </trkpt>
      <trkpt lat="45.82088" lon="4.69629">
        <ele>379.57095</ele>
        <time>2023-06-04T14:57:50.000Z</time>
      </trkpt>
      <trkpt lat="45.82087" lon="4.69625">
        <ele>378.38651</ele>
        <time>2023-06-04T14:57:51.000Z</time>
      </trkpt>
      <trkpt lat="45.82088" lon="4.69622">
        <ele>377.27667</ele>
        <time>2023-06-04T14:57:52.000Z</time>
      </trkpt>
      <trkpt lat="45.8209" lon="4.69619">
        <ele>376.08441</ele>
        <time>2023-06-04T14:57:53.000Z</time>
      </trkpt>
      <trkpt lat="45.82092" lon="4.69616">
        <ele>374.85785</ele>
        <time>2023-06-04T14:57:54.000Z</time>
      </trkpt>
      <trkpt lat="45.82095" lon="4.69612">
        <ele>373.67313</ele>
        <time>2023-06-04T14:57:55.000Z</time>
      </trkpt>
      <trkpt lat="45.82097" lon="4.69608">
        <ele>372.35925</ele>
        <time>2023-06-04T14:57:56.000Z</time>
      </trkpt>
      <trkpt lat="45.82099" lon="4.69603">
        <ele>372.14203</ele>
        <time>2023-06-04T14:57:57.000Z</time>
      </trkpt>
      <trkpt lat="45.82101" lon="4.69599">
        <ele>371.8421</ele>
        <time>2023-06-04T14:57:58.000Z</time>
      </trkpt>
      <trkpt lat="45.82103" lon="4.69594">
        <ele>371.57193</ele>
        <time>2023-06-04T14:57:59.000Z</time>
      </trkpt>
      <trkpt lat="45.82104" lon="4.6959">
        <ele>371.37506</ele>
        <time>2023-06-04T14:58:00.000Z</time>
      </trkpt>
      <trkpt lat="45.82106" lon="4.69585">
        <ele>371.11945</ele>
        <time>2023-06-04T14:58:01.000Z</time>
      </trkpt>
      <trkpt lat="45.82108" lon="4.69581">
        <ele>370.82999</ele>
        <time>2023-06-04T14:58:02.000Z</time>
      </trkpt>
      <trkpt lat="45.8211" lon="4.69577">
        <ele>370.50964</ele>
        <time>2023-06-04T14:58:03.000Z</time>
      </trkpt>
      <trkpt lat="45.82112" lon="4.69572">
        <ele>370.18445</ele>
        <time>2023-06-04T14:58:04.000Z</time>
      </trkpt>
      <trkpt lat="45.82114" lon="4.69567">
        <ele>368.63943</ele>
        <time>2023-06-04T14:58:05.000Z</time>
      </trkpt>
      <trkpt lat="45.82115" lon="4.69563">
        <ele>367.01416</ele>
        <time>2023-06-04T14:58:06.000Z</time>
      </trkpt>
      <trkpt lat="45.82117" lon="4.69558">
        <ele>365.46808</ele>
        <time>2023-06-04T14:58:07.000Z</time>
      </trkpt>
      <trkpt lat="45.8212" lon="4.69553">
        <ele>365.14801</ele>
        <time>2023-06-04T14:58:08.000Z</time>
      </trkpt>
      <trkpt lat="45.82122" lon="4.69547">
        <ele>364.80255</ele>
        <time>2023-06-04T14:58:09.000Z</time>
      </trkpt>
      <trkpt lat="45.82124" lon="4.69543">
        <ele>364.48035</ele>
        <time>2023-06-04T14:58:10.000Z</time>
      </trkpt>
      <trkpt lat="45.82127" lon="4.69538">
        <ele>364.1871</ele>
        <time>2023-06-04T14:58:11.000Z</time>
      </trkpt>
      <trkpt lat="45.82132" lon="4.69533">
        <ele>363.88507</ele>
        <time>2023-06-04T14:58:12.000Z</time>
      </trkpt>
      <trkpt lat="45.82136" lon="4.69529">
        <ele>363.63211</ele>
        <time>2023-06-04T14:58:13.000Z</time>
      </trkpt>
      <trkpt lat="45.82137" lon="4.69522">
        <ele>363.40887</ele>
        <time>2023-06-04T14:58:14.000Z</time>
      </trkpt>
      <trkpt lat="45.82141" lon="4.69515">
        <ele>363.22696</ele>
        <time>2023-06-04T14:58:15.000Z</time>
      </trkpt>
      <trkpt lat="45.82143" lon="4.6951">
        <ele>363.08221</ele>
        <time>2023-06-04T14:58:16.000Z</time>
      </trkpt>
      <trkpt lat="45.82145" lon="4.69505">
        <ele>363.78815</ele>
        <time>2023-06-04T14:58:17.000Z</time>
      </trkpt>
      <trkpt lat="45.82146" lon="4.69498">
        <ele>364.4747</ele>
        <time>2023-06-04T14:58:18.000Z</time>
      </trkpt>
      <trkpt lat="45.82148" lon="4.69493">
        <ele>365.77313</ele>
        <time>2023-06-04T14:58:19.000Z</time>
      </trkpt>
      <trkpt lat="45.82149" lon="4.69488">
        <ele>367.25677</ele>
        <time>2023-06-04T14:58:20.000Z</time>
      </trkpt>
      <trkpt lat="45.82149" lon="4.69484">
        <ele>368.80948</ele>
        <time>2023-06-04T14:58:21.000Z</time>
      </trkpt>
      <trkpt lat="45.82152" lon="4.6948">
        <ele>369.92035</ele>
        <time>2023-06-04T14:58:22.000Z</time>
      </trkpt>
      <trkpt lat="45.82159" lon="4.69475">
        <ele>371.12405</ele>
        <time>2023-06-04T14:58:23.000Z</time>
      </trkpt>
      <trkpt lat="45.82165" lon="4.69472">
        <ele>372.41486</ele>
        <time>2023-06-04T14:58:24.000Z</time>
      </trkpt>
      <trkpt lat="45.82171" lon="4.69469">
        <ele>373.73993</ele>
        <time>2023-06-04T14:58:25.000Z</time>
      </trkpt>
      <trkpt lat="45.82178" lon="4.69468">
        <ele>375.08936</ele>
        <time>2023-06-04T14:58:26.000Z</time>
      </trkpt>
      <trkpt lat="45.82184" lon="4.69463">
        <ele>376.45251</ele>
        <time>2023-06-04T14:58:27.000Z</time>
      </trkpt>
      <trkpt lat="45.82187" lon="4.69463">
        <ele>377.88852</ele>
        <time>2023-06-04T14:58:28.000Z</time>
      </trkpt>
      <trkpt lat="45.82191" lon="4.69466">
        <ele>379.28363</ele>
        <time>2023-06-04T14:58:29.000Z</time>
      </trkpt>
      <trkpt lat="45.82193" lon="4.69464">
        <ele>380.7847</ele>
        <time>2023-06-04T14:58:30.000Z</time>
      </trkpt>
      <trkpt lat="45.82199" lon="4.69466">
        <ele>382.18039</ele>
        <time>2023-06-04T14:58:31.000Z</time>
      </trkpt>
      <trkpt lat="45.82202" lon="4.69463">
        <ele>383.52765</ele>
        <time>2023-06-04T14:58:32.000Z</time>
      </trkpt>
      <trkpt lat="45.82205" lon="4.69461">
        <ele>384.77847</ele>
        <time>2023-06-04T14:58:34.000Z</time>
      </trkpt>
      <trkpt lat="45.82207" lon="4.69458">
        <ele>385.99371</ele>
        <time>2023-06-04T14:58:35.000Z</time>
      </trkpt>
      <trkpt lat="45.8221" lon="4.6946">
        <ele>386.91547</ele>
        <time>2023-06-04T14:58:37.000Z</time>
      </trkpt>
      <trkpt lat="45.82213" lon="4.69458">
        <ele>387.83017</ele>
        <time>2023-06-04T14:58:39.000Z</time>
      </trkpt>
      <trkpt lat="45.82216" lon="4.69458">
        <ele>387.2175</ele>
        <time>2023-06-04T14:58:40.000Z</time>
      </trkpt>
      <trkpt lat="45.82218" lon="4.69457">
        <ele>386.62573</ele>
        <time>2023-06-04T14:58:41.000Z</time>
      </trkpt>
      <trkpt lat="45.82216" lon="4.69457">
        <ele>387.05945</ele>
        <time>2023-06-04T14:58:43.000Z</time>
      </trkpt>
      <trkpt lat="45.82213" lon="4.69457">
        <ele>386.77109</ele>
        <time>2023-06-04T14:58:49.000Z</time>
      </trkpt>
      <trkpt lat="45.82216" lon="4.69454">
        <ele>386.43823</ele>
        <time>2023-06-04T14:58:52.000Z</time>
      </trkpt>
      <trkpt lat="45.82218" lon="4.69454">
        <ele>386.90656</ele>
        <time>2023-06-04T14:58:53.000Z</time>
      </trkpt>
      <trkpt lat="45.8222" lon="4.69454">
        <ele>385.68964</ele>
        <time>2023-06-04T14:58:55.000Z</time>
      </trkpt>
      <trkpt lat="45.82218" lon="4.69454">
        <ele>384.40738</ele>
        <time>2023-06-04T14:58:58.000Z</time>
      </trkpt>
      <trkpt lat="45.8222" lon="4.69451">
        <ele>383.13242</ele>
        <time>2023-06-04T14:59:04.000Z</time>
      </trkpt>
      <trkpt lat="45.8222" lon="4.69447">
        <ele>381.83612</ele>
        <time>2023-06-04T14:59:07.000Z</time>
      </trkpt>
      <trkpt lat="45.82221" lon="4.69441">
        <ele>380.43887</ele>
        <time>2023-06-04T14:59:09.000Z</time>
      </trkpt>
      <trkpt lat="45.82224" lon="4.69437">
        <ele>379.03687</ele>
        <time>2023-06-04T14:59:10.000Z</time>
      </trkpt>
      <trkpt lat="45.82226" lon="4.69432">
        <ele>377.65781</ele>
        <time>2023-06-04T14:59:11.000Z</time>
      </trkpt>
      <trkpt lat="45.82228" lon="4.69428">
        <ele>376.1925</ele>
        <time>2023-06-04T14:59:12.000Z</time>
      </trkpt>
      <trkpt lat="45.82229" lon="4.69423">
        <ele>374.85248</ele>
        <time>2023-06-04T14:59:13.000Z</time>
      </trkpt>
      <trkpt lat="45.82231" lon="4.6942">
        <ele>373.56427</ele>
        <time>2023-06-04T14:59:14.000Z</time>
      </trkpt>
      <trkpt lat="45.82232" lon="4.69415">
        <ele>372.33847</ele>
        <time>2023-06-04T14:59:15.000Z</time>
      </trkpt>
      <trkpt lat="45.82234" lon="4.69411">
        <ele>371.11264</ele>
        <time>2023-06-04T14:59:16.000Z</time>
      </trkpt>
      <trkpt lat="45.82236" lon="4.69406">
        <ele>370.1463</ele>
        <time>2023-06-04T14:59:17.000Z</time>
      </trkpt>
      <trkpt lat="45.82238" lon="4.69402">
        <ele>369.16949</ele>
        <time>2023-06-04T14:59:18.000Z</time>
      </trkpt>
      <trkpt lat="45.8224" lon="4.69397">
        <ele>368.85709</ele>
        <time>2023-06-04T14:59:19.000Z</time>
      </trkpt>
      <trkpt lat="45.82242" lon="4.69393">
        <ele>368.56381</ele>
        <time>2023-06-04T14:59:20.000Z</time>
      </trkpt>
      <trkpt lat="45.82245" lon="4.69388">
        <ele>366.66617</ele>
        <time>2023-06-04T14:59:21.000Z</time>
      </trkpt>
      <trkpt lat="45.82247" lon="4.69385">
        <ele>365.31848</ele>
        <time>2023-06-04T14:59:22.000Z</time>
      </trkpt>
      <trkpt lat="45.82249" lon="4.69383">
        <ele>363.97052</ele>
        <time>2023-06-04T14:59:23.000Z</time>
      </trkpt>
      <trkpt lat="45.82251" lon="4.69379">
        <ele>362.28595</ele>
        <time>2023-06-04T14:59:24.000Z</time>
      </trkpt>
      <trkpt lat="45.82252" lon="4.69373">
        <ele>362.24408</ele>
        <time>2023-06-04T14:59:25.000Z</time>
      </trkpt>
      <trkpt lat="45.82252" lon="4.69363">
        <ele>362.17059</ele>
        <time>2023-06-04T14:59:26.000Z</time>
      </trkpt>
      <trkpt lat="45.82254" lon="4.6936">
        <ele>362.04861</ele>
        <time>2023-06-04T14:59:27.000Z</time>
      </trkpt>
      <trkpt lat="45.82255" lon="4.69356">
        <ele>361.94128</ele>
        <time>2023-06-04T14:59:28.000Z</time>
      </trkpt>
      <trkpt lat="45.82257" lon="4.6935">
        <ele>361.91635</ele>
        <time>2023-06-04T14:59:29.000Z</time>
      </trkpt>
      <trkpt lat="45.82259" lon="4.69345">
        <ele>361.88022</ele>
        <time>2023-06-04T14:59:30.000Z</time>
      </trkpt>
      <trkpt lat="45.82263" lon="4.69342">
        <ele>361.8754</ele>
        <time>2023-06-04T14:59:31.000Z</time>
      </trkpt>
      <trkpt lat="45.82264" lon="4.69338">
        <ele>361.85941</ele>
        <time>2023-06-04T14:59:32.000Z</time>
      </trkpt>
      <trkpt lat="45.82265" lon="4.69332">
        <ele>361.79926</ele>
        <time>2023-06-04T14:59:33.000Z</time>
      </trkpt>
      <trkpt lat="45.82268" lon="4.69328">
        <ele>361.73886</ele>
        <time>2023-06-04T14:59:34.000Z</time>
      </trkpt>
      <trkpt lat="45.82268" lon="4.69325">
        <ele>361.71301</ele>
        <time>2023-06-04T14:59:35.000Z</time>
      </trkpt>
      <trkpt lat="45.8227" lon="4.6932">
        <ele>361.69351</ele>
        <time>2023-06-04T14:59:36.000Z</time>
      </trkpt>
      <trkpt lat="45.82272" lon="4.69318">
        <ele>361.66888</ele>
        <time>2023-06-04T14:59:37.000Z</time>
      </trkpt>
      <trkpt lat="45.82273" lon="4.69313">
        <ele>361.6684</ele>
        <time>2023-06-04T14:59:38.000Z</time>
      </trkpt>
      <trkpt lat="45.82274" lon="4.6931">
        <ele>361.68289</ele>
        <time>2023-06-04T14:59:39.000Z</time>
      </trkpt>
      <trkpt lat="45.82276" lon="4.69306">
        <ele>361.70343</ele>
        <time>2023-06-04T14:59:40.000Z</time>
      </trkpt>
      <trkpt lat="45.82278" lon="4.69303">
        <ele>361.72906</ele>
        <time>2023-06-04T14:59:41.000Z</time>
      </trkpt>
      <trkpt lat="45.8228" lon="4.693">
        <ele>361.72144</ele>
        <time>2023-06-04T14:59:42.000Z</time>
      </trkpt>
      <trkpt lat="45.82282" lon="4.69297">
        <ele>361.70511</ele>
        <time>2023-06-04T14:59:43.000Z</time>
      </trkpt>
      <trkpt lat="45.82284" lon="4.69292">
        <ele>361.64618</ele>
        <time>2023-06-04T14:59:44.000Z</time>
      </trkpt>
      <trkpt lat="45.82285" lon="4.69287">
        <ele>361.60223</ele>
        <time>2023-06-04T14:59:45.000Z</time>
      </trkpt>
      <trkpt lat="45.82287" lon="4.69281">
        <ele>361.58295</ele>
        <time>2023-06-04T14:59:46.000Z</time>
      </trkpt>
      <trkpt lat="45.82289" lon="4.69277">
        <ele>361.50107</ele>
        <time>2023-06-04T14:59:47.000Z</time>
      </trkpt>
      <trkpt lat="45.8229" lon="4.69272">
        <ele>361.43427</ele>
        <time>2023-06-04T14:59:48.000Z</time>
      </trkpt>
      <trkpt lat="45.82291" lon="4.69268">
        <ele>361.41196</ele>
        <time>2023-06-04T14:59:49.000Z</time>
      </trkpt>
      <trkpt lat="45.82292" lon="4.69262">
        <ele>361.35565</ele>
        <time>2023-06-04T14:59:50.000Z</time>
      </trkpt>
      <trkpt lat="45.82294" lon="4.69257">
        <ele>361.30771</ele>
        <time>2023-06-04T14:59:51.000Z</time>
      </trkpt>
      <trkpt lat="45.82295" lon="4.69252">
        <ele>361.22031</ele>
        <time>2023-06-04T14:59:52.000Z</time>
      </trkpt>
      <trkpt lat="45.82296" lon="4.69246">
        <ele>361.16925</ele>
        <time>2023-06-04T14:59:53.000Z</time>
      </trkpt>
      <trkpt lat="45.82298" lon="4.6924">
        <ele>361.11224</ele>
        <time>2023-06-04T14:59:54.000Z</time>
      </trkpt>
      <trkpt lat="45.823" lon="4.69234">
        <ele>361.02753</ele>
        <time>2023-06-04T14:59:55.000Z</time>
      </trkpt>
      <trkpt lat="45.82302" lon="4.69226">
        <ele>360.93274</ele>
        <time>2023-06-04T14:59:56.000Z</time>
      </trkpt>
      <trkpt lat="45.82302" lon="4.69223">
        <ele>360.83148</ele>
        <time>2023-06-04T14:59:57.000Z</time>
      </trkpt>
      <trkpt lat="45.82302" lon="4.69218">
        <ele>360.68439</ele>
        <time>2023-06-04T14:59:58.000Z</time>
      </trkpt>
      <trkpt lat="45.82304" lon="4.6921">
        <ele>360.57233</ele>
        <time>2023-06-04T14:59:59.000Z</time>
      </trkpt>
      <trkpt lat="45.82305" lon="4.69206">
        <ele>360.99493</ele>
        <time>2023-06-04T15:00:00.000Z</time>
      </trkpt>
      <trkpt lat="45.82306" lon="4.69199">
        <ele>361.39316</ele>
        <time>2023-06-04T15:00:01.000Z</time>
      </trkpt>
      <trkpt lat="45.82308" lon="4.69198">
        <ele>361.73849</ele>
        <time>2023-06-04T15:00:02.000Z</time>
      </trkpt>
      <trkpt lat="45.8231" lon="4.69192">
        <ele>362.03711</ele>
        <time>2023-06-04T15:00:03.000Z</time>
      </trkpt>
      <trkpt lat="45.82313" lon="4.69185">
        <ele>362.37042</ele>
        <time>2023-06-04T15:00:04.000Z</time>
      </trkpt>
      <trkpt lat="45.82313" lon="4.69177">
        <ele>362.77008</ele>
        <time>2023-06-04T15:00:05.000Z</time>
      </trkpt>
      <trkpt lat="45.82314" lon="4.69167">
        <ele>363.14789</ele>
        <time>2023-06-04T15:00:06.000Z</time>
      </trkpt>
      <trkpt lat="45.82315" lon="4.69159">
        <ele>363.57553</ele>
        <time>2023-06-04T15:00:07.000Z</time>
      </trkpt>
      <trkpt lat="45.82314" lon="4.69151">
        <ele>364.02451</ele>
        <time>2023-06-04T15:00:08.000Z</time>
      </trkpt>
      <trkpt lat="45.82314" lon="4.69148">
        <ele>364.42487</ele>
        <time>2023-06-04T15:00:09.000Z</time>
      </trkpt>
      <trkpt lat="45.82315" lon="4.69143">
        <ele>364.33807</ele>
        <time>2023-06-04T15:00:10.000Z</time>
      </trkpt>
      <trkpt lat="45.82315" lon="4.69132">
        <ele>364.21494</ele>
        <time>2023-06-04T15:00:11.000Z</time>
      </trkpt>
      <trkpt lat="45.82315" lon="4.69128">
        <ele>364.10153</ele>
        <time>2023-06-04T15:00:12.000Z</time>
      </trkpt>
      <trkpt lat="45.82314" lon="4.6912">
        <ele>364.03873</ele>
        <time>2023-06-04T15:00:13.000Z</time>
      </trkpt>
      <trkpt lat="45.82313" lon="4.69108">
        <ele>363.95282</ele>
        <time>2023-06-04T15:00:14.000Z</time>
      </trkpt>
      <trkpt lat="45.82313" lon="4.69101">
        <ele>363.86346</ele>
        <time>2023-06-04T15:00:15.000Z</time>
      </trkpt>
      <trkpt lat="45.82313" lon="4.69098">
        <ele>363.7829</ele>
        <time>2023-06-04T15:00:16.000Z</time>
      </trkpt>
      <trkpt lat="45.82315" lon="4.69089">
        <ele>363.6973</ele>
        <time>2023-06-04T15:00:17.000Z</time>
      </trkpt>
      <trkpt lat="45.82316" lon="4.69083">
        <ele>363.66595</ele>
        <time>2023-06-04T15:00:18.000Z</time>
      </trkpt>
      <trkpt lat="45.82317" lon="4.69079">
        <ele>363.67145</ele>
        <time>2023-06-04T15:00:19.000Z</time>
      </trkpt>
      <trkpt lat="45.82316" lon="4.69074">
        <ele>363.10141</ele>
        <time>2023-06-04T15:00:20.000Z</time>
      </trkpt>
      <trkpt lat="45.82315" lon="4.6907">
        <ele>362.53754</ele>
        <time>2023-06-04T15:00:21.000Z</time>
      </trkpt>
      <trkpt lat="45.82321" lon="4.69074">
        <ele>362.06271</ele>
        <time>2023-06-04T15:00:23.000Z</time>
      </trkpt>
      <trkpt lat="45.82323" lon="4.69076">
        <ele>361.61035</ele>
        <time>2023-06-04T15:00:24.000Z</time>
      </trkpt>
      <trkpt lat="45.82328" lon="4.69078">
        <ele>361.15402</ele>
        <time>2023-06-04T15:00:25.000Z</time>
      </trkpt>
      <trkpt lat="45.82331" lon="4.69079">
        <ele>360.64886</ele>
        <time>2023-06-04T15:00:26.000Z</time>
      </trkpt>
      <trkpt lat="45.82333" lon="4.69085">
        <ele>360.12833</ele>
        <time>2023-06-04T15:00:27.000Z</time>
      </trkpt>
      <trkpt lat="45.82335" lon="4.69089">
        <ele>359.63062</ele>
        <time>2023-06-04T15:00:28.000Z</time>
      </trkpt>
      <trkpt lat="45.82337" lon="4.69094">
        <ele>359.08646</ele>
        <time>2023-06-04T15:00:29.000Z</time>
      </trkpt>
      <trkpt lat="45.82339" lon="4.69099">
        <ele>358.55362</ele>
        <time>2023-06-04T15:00:30.000Z</time>
      </trkpt>
      <trkpt lat="45.82341" lon="4.69103">
        <ele>358.54431</ele>
        <time>2023-06-04T15:00:31.000Z</time>
      </trkpt>
      <trkpt lat="45.82342" lon="4.69108">
        <ele>358.56516</ele>
        <time>2023-06-04T15:00:32.000Z</time>
      </trkpt>
      <trkpt lat="45.82345" lon="4.69112">
        <ele>358.5683</ele>
        <time>2023-06-04T15:00:33.000Z</time>
      </trkpt>
      <trkpt lat="45.82347" lon="4.69118">
        <ele>358.52319</ele>
        <time>2023-06-04T15:00:34.000Z</time>
      </trkpt>
      <trkpt lat="45.8235" lon="4.69123">
        <ele>358.50497</ele>
        <time>2023-06-04T15:00:35.000Z</time>
      </trkpt>
      <trkpt lat="45.82353" lon="4.69128">
        <ele>358.50885</ele>
        <time>2023-06-04T15:00:36.000Z</time>
      </trkpt>
      <trkpt lat="45.82357" lon="4.69135">
        <ele>358.46149</ele>
        <time>2023-06-04T15:00:37.000Z</time>
      </trkpt>
      <trkpt lat="45.82361" lon="4.69141">
        <ele>358.43988</ele>
        <time>2023-06-04T15:00:38.000Z</time>
      </trkpt>
      <trkpt lat="45.82363" lon="4.69145">
        <ele>358.31134</ele>
        <time>2023-06-04T15:00:39.000Z</time>
      </trkpt>
      <trkpt lat="45.82363" lon="4.69151">
        <ele>358.1601</ele>
        <time>2023-06-04T15:00:40.000Z</time>
      </trkpt>
      <trkpt lat="45.82369" lon="4.69157">
        <ele>358.02032</ele>
        <time>2023-06-04T15:00:41.000Z</time>
      </trkpt>
      <trkpt lat="45.82372" lon="4.69163">
        <ele>357.90894</ele>
        <time>2023-06-04T15:00:42.000Z</time>
      </trkpt>
      <trkpt lat="45.82378" lon="4.69169">
        <ele>357.81735</ele>
        <time>2023-06-04T15:00:43.000Z</time>
      </trkpt>
      <trkpt lat="45.82379" lon="4.69176">
        <ele>357.76141</ele>
        <time>2023-06-04T15:00:44.000Z</time>
      </trkpt>
      <trkpt lat="45.8238" lon="4.6918">
        <ele>357.66034</ele>
        <time>2023-06-04T15:00:45.000Z</time>
      </trkpt>
      <trkpt lat="45.82384" lon="4.69183">
        <ele>357.48578</ele>
        <time>2023-06-04T15:00:46.000Z</time>
      </trkpt>
      <trkpt lat="45.82387" lon="4.69186">
        <ele>357.33026</ele>
        <time>2023-06-04T15:00:47.000Z</time>
      </trkpt>
      <trkpt lat="45.82391" lon="4.69189">
        <ele>357.12582</ele>
        <time>2023-06-04T15:00:48.000Z</time>
      </trkpt>
      <trkpt lat="45.82391" lon="4.69193">
        <ele>356.95633</ele>
        <time>2023-06-04T15:00:49.000Z</time>
      </trkpt>
      <trkpt lat="45.82394" lon="4.69196">
        <ele>356.77118</ele>
        <time>2023-06-04T15:00:50.000Z</time>
      </trkpt>
      <trkpt lat="45.82396" lon="4.69204">
        <ele>356.64008</ele>
        <time>2023-06-04T15:00:52.000Z</time>
      </trkpt>
      <trkpt lat="45.82396" lon="4.69209">
        <ele>356.52734</ele>
        <time>2023-06-04T15:00:53.000Z</time>
      </trkpt>
      <trkpt lat="45.82396" lon="4.69217">
        <ele>356.53638</ele>
        <time>2023-06-04T15:00:54.000Z</time>
      </trkpt>
      <trkpt lat="45.82398" lon="4.69221">
        <ele>356.53546</ele>
        <time>2023-06-04T15:00:55.000Z</time>
      </trkpt>
      <trkpt lat="45.824" lon="4.69223">
        <ele>356.50671</ele>
        <time>2023-06-04T15:00:56.000Z</time>
      </trkpt>
      <trkpt lat="45.82403" lon="4.69227">
        <ele>356.47885</ele>
        <time>2023-06-04T15:00:57.000Z</time>
      </trkpt>
      <trkpt lat="45.82406" lon="4.69231">
        <ele>356.50116</ele>
        <time>2023-06-04T15:00:58.000Z</time>
      </trkpt>
      <trkpt lat="45.8241" lon="4.69237">
        <ele>356.50516</ele>
        <time>2023-06-04T15:00:59.000Z</time>
      </trkpt>
      <trkpt lat="45.82418" lon="4.69245">
        <ele>356.59488</ele>
        <time>2023-06-04T15:01:00.000Z</time>
      </trkpt>
      <trkpt lat="45.82415" lon="4.69252">
        <ele>356.63879</ele>
        <time>2023-06-04T15:01:01.000Z</time>
      </trkpt>
      <trkpt lat="45.82419" lon="4.69258">
        <ele>356.67969</ele>
        <time>2023-06-04T15:01:02.000Z</time>
      </trkpt>
      <trkpt lat="45.82422" lon="4.69261">
        <ele>356.70425</ele>
        <time>2023-06-04T15:01:03.000Z</time>
      </trkpt>
      <trkpt lat="45.82426" lon="4.69266">
        <ele>356.71399</ele>
        <time>2023-06-04T15:01:04.000Z</time>
      </trkpt>
      <trkpt lat="45.82428" lon="4.6927">
        <ele>356.6915</ele>
        <time>2023-06-04T15:01:05.000Z</time>
      </trkpt>
      <trkpt lat="45.8243" lon="4.69276">
        <ele>356.73584</ele>
        <time>2023-06-04T15:01:06.000Z</time>
      </trkpt>
      <trkpt lat="45.82432" lon="4.69281">
        <ele>356.84262</ele>
        <time>2023-06-04T15:01:07.000Z</time>
      </trkpt>
      <trkpt lat="45.82435" lon="4.69286">
        <ele>356.94513</ele>
        <time>2023-06-04T15:01:08.000Z</time>
      </trkpt>
      <trkpt lat="45.8244" lon="4.69291">
        <ele>357.09671</ele>
        <time>2023-06-04T15:01:09.000Z</time>
      </trkpt>
      <trkpt lat="45.82443" lon="4.69297">
        <ele>357.27036</ele>
        <time>2023-06-04T15:01:10.000Z</time>
      </trkpt>
      <trkpt lat="45.82444" lon="4.69303">
        <ele>357.46716</ele>
        <time>2023-06-04T15:01:11.000Z</time>
      </trkpt>
      <trkpt lat="45.82446" lon="4.69306">
        <ele>357.61557</ele>
        <time>2023-06-04T15:01:12.000Z</time>
      </trkpt>
      <trkpt lat="45.82448" lon="4.6931">
        <ele>357.69485</ele>
        <time>2023-06-04T15:01:13.000Z</time>
      </trkpt>
      <trkpt lat="45.82449" lon="4.69316">
        <ele>357.66013</ele>
        <time>2023-06-04T15:01:14.000Z</time>
      </trkpt>
      <trkpt lat="45.8245" lon="4.69318">
        <ele>357.61713</ele>
        <time>2023-06-04T15:01:15.000Z</time>
      </trkpt>
      <trkpt lat="45.82455" lon="4.69325">
        <ele>358.61804</ele>
        <time>2023-06-04T15:01:16.000Z</time>
      </trkpt>
      <trkpt lat="45.82459" lon="4.6933">
        <ele>359.56598</ele>
        <time>2023-06-04T15:01:17.000Z</time>
      </trkpt>
      <trkpt lat="45.82461" lon="4.69334">
        <ele>360.62018</ele>
        <time>2023-06-04T15:01:18.000Z</time>
      </trkpt>
      <trkpt lat="45.82466" lon="4.69338">
        <ele>361.78302</ele>
        <time>2023-06-04T15:01:19.000Z</time>
      </trkpt>
      <trkpt lat="45.82472" lon="4.69348">
        <ele>361.72763</ele>
        <time>2023-06-04T15:01:20.000Z</time>
      </trkpt>
      <trkpt lat="45.82476" lon="4.69354">
        <ele>361.70178</ele>
        <time>2023-06-04T15:01:21.000Z</time>
      </trkpt>
      <trkpt lat="45.8248" lon="4.69363">
        <ele>361.74112</ele>
        <time>2023-06-04T15:01:22.000Z</time>
      </trkpt>
      <trkpt lat="45.82483" lon="4.69369">
        <ele>361.75119</ele>
        <time>2023-06-04T15:01:23.000Z</time>
      </trkpt>
      <trkpt lat="45.82487" lon="4.69373">
        <ele>361.75485</ele>
        <time>2023-06-04T15:01:24.000Z</time>
      </trkpt>
      <trkpt lat="45.82489" lon="4.69375">
        <ele>361.7406</ele>
        <time>2023-06-04T15:01:25.000Z</time>
      </trkpt>
      <trkpt lat="45.82489" lon="4.69381">
        <ele>361.68866</ele>
        <time>2023-06-04T15:01:26.000Z</time>
      </trkpt>
      <trkpt lat="45.8249" lon="4.69388">
        <ele>361.62064</ele>
        <time>2023-06-04T15:01:27.000Z</time>
      </trkpt>
      <trkpt lat="45.82495" lon="4.69396">
        <ele>361.59308</ele>
        <time>2023-06-04T15:01:28.000Z</time>
      </trkpt>
      <trkpt lat="45.82495" lon="4.69401">
        <ele>361.58167</ele>
        <time>2023-06-04T15:01:29.000Z</time>
      </trkpt>
      <trkpt lat="45.82497" lon="4.69407">
        <ele>361.55841</ele>
        <time>2023-06-04T15:01:30.000Z</time>
      </trkpt>
      <trkpt lat="45.82498" lon="4.6941">
        <ele>361.53638</ele>
        <time>2023-06-04T15:01:31.000Z</time>
      </trkpt>
      <trkpt lat="45.825" lon="4.69413">
        <ele>361.4856</ele>
        <time>2023-06-04T15:01:32.000Z</time>
      </trkpt>
      <trkpt lat="45.82505" lon="4.6942">
        <ele>361.47635</ele>
        <time>2023-06-04T15:01:33.000Z</time>
      </trkpt>
      <trkpt lat="45.8251" lon="4.69424">
        <ele>361.52216</ele>
        <time>2023-06-04T15:01:34.000Z</time>
      </trkpt>
      <trkpt lat="45.8251" lon="4.69427">
        <ele>362.1579</ele>
        <time>2023-06-04T15:01:35.000Z</time>
      </trkpt>
      <trkpt lat="45.82505" lon="4.69433">
        <ele>361.12421</ele>
        <time>2023-06-04T15:01:36.000Z</time>
      </trkpt>
      <trkpt lat="45.82507" lon="4.69441">
        <ele>360.173</ele>
        <time>2023-06-04T15:01:37.000Z</time>
      </trkpt>
      <trkpt lat="45.82508" lon="4.69446">
        <ele>359.78754</ele>
        <time>2023-06-04T15:01:38.000Z</time>
      </trkpt>
      <trkpt lat="45.8251" lon="4.69451">
        <ele>359.46472</ele>
        <time>2023-06-04T15:01:39.000Z</time>
      </trkpt>
      <trkpt lat="45.82513" lon="4.69455">
        <ele>360.16382</ele>
        <time>2023-06-04T15:01:40.000Z</time>
      </trkpt>
      <trkpt lat="45.8252" lon="4.69461">
        <ele>360.28555</ele>
        <time>2023-06-04T15:01:41.000Z</time>
      </trkpt>
      <trkpt lat="45.82518" lon="4.69467">
        <ele>360.38312</ele>
        <time>2023-06-04T15:01:42.000Z</time>
      </trkpt>
      <trkpt lat="45.82518" lon="4.69471">
        <ele>360.53882</ele>
        <time>2023-06-04T15:01:43.000Z</time>
      </trkpt>
      <trkpt lat="45.82519" lon="4.69476">
        <ele>360.73004</ele>
        <time>2023-06-04T15:01:44.000Z</time>
      </trkpt>
      <trkpt lat="45.82519" lon="4.69481">
        <ele>360.98132</ele>
        <time>2023-06-04T15:01:45.000Z</time>
      </trkpt>
      <trkpt lat="45.8252" lon="4.69485">
        <ele>361.25262</ele>
        <time>2023-06-04T15:01:46.000Z</time>
      </trkpt>
      <trkpt lat="45.82517" lon="4.69488">
        <ele>361.54257</ele>
        <time>2023-06-04T15:01:47.000Z</time>
      </trkpt>
      <trkpt lat="45.82516" lon="4.6949">
        <ele>361.82144</ele>
        <time>2023-06-04T15:01:48.000Z</time>
      </trkpt>
      <trkpt lat="45.82515" lon="4.69494">
        <ele>362.11658</ele>
        <time>2023-06-04T15:01:49.000Z</time>
      </trkpt>
      <trkpt lat="45.82517" lon="4.69496">
        <ele>362.38202</ele>
        <time>2023-06-04T15:01:50.000Z</time>
      </trkpt>
      <trkpt lat="45.82521" lon="4.69504">
        <ele>362.65411</ele>
        <time>2023-06-04T15:01:51.000Z</time>
      </trkpt>
      <trkpt lat="45.82523" lon="4.69508">
        <ele>362.93475</ele>
        <time>2023-06-04T15:01:53.000Z</time>
      </trkpt>
      <trkpt lat="45.82524" lon="4.69511">
        <ele>363.21384</ele>
        <time>2023-06-04T15:01:54.000Z</time>
      </trkpt>
      <trkpt lat="45.82524" lon="4.69514">
        <ele>363.48386</ele>
        <time>2023-06-04T15:01:55.000Z</time>
      </trkpt>
      <trkpt lat="45.82524" lon="4.69517">
        <ele>363.16983</ele>
        <time>2023-06-04T15:01:56.000Z</time>
      </trkpt>
      <trkpt lat="45.82523" lon="4.6952">
        <ele>363.53162</ele>
        <time>2023-06-04T15:01:57.000Z</time>
      </trkpt>
      <trkpt lat="45.82522" lon="4.69523">
        <ele>363.85416</ele>
        <time>2023-06-04T15:01:58.000Z</time>
      </trkpt>
      <trkpt lat="45.82521" lon="4.69528">
        <ele>363.49716</ele>
        <time>2023-06-04T15:01:59.000Z</time>
      </trkpt>
      <trkpt lat="45.8252" lon="4.69533">
        <ele>362.92593</ele>
        <time>2023-06-04T15:02:00.000Z</time>
      </trkpt>
      <trkpt lat="45.82519" lon="4.69537">
        <ele>362.5528</ele>
        <time>2023-06-04T15:02:01.000Z</time>
      </trkpt>
      <trkpt lat="45.82519" lon="4.6954">
        <ele>362.75955</ele>
        <time>2023-06-04T15:02:02.000Z</time>
      </trkpt>
      <trkpt lat="45.82519" lon="4.69543">
        <ele>362.96356</ele>
        <time>2023-06-04T15:02:03.000Z</time>
      </trkpt>
      <trkpt lat="45.82521" lon="4.69548">
        <ele>363.1412</ele>
        <time>2023-06-04T15:02:04.000Z</time>
      </trkpt>
      <trkpt lat="45.82522" lon="4.69552">
        <ele>363.31592</ele>
        <time>2023-06-04T15:02:05.000Z</time>
      </trkpt>
      <trkpt lat="45.82523" lon="4.69557">
        <ele>363.51245</ele>
        <time>2023-06-04T15:02:06.000Z</time>
      </trkpt>
      <trkpt lat="45.82523" lon="4.69562">
        <ele>363.68878</ele>
        <time>2023-06-04T15:02:07.000Z</time>
      </trkpt>
      <trkpt lat="45.82523" lon="4.69567">
        <ele>363.862</ele>
        <time>2023-06-04T15:02:08.000Z</time>
      </trkpt>
      <trkpt lat="45.8252" lon="4.69576">
        <ele>364.71152</ele>
        <time>2023-06-04T15:02:09.000Z</time>
      </trkpt>
      <trkpt lat="45.82518" lon="4.69584">
        <ele>365.53143</ele>
        <time>2023-06-04T15:02:10.000Z</time>
      </trkpt>
      <trkpt lat="45.82519" lon="4.69591">
        <ele>366.34814</ele>
        <time>2023-06-04T15:02:11.000Z</time>
      </trkpt>
      <trkpt lat="45.82518" lon="4.69597">
        <ele>367.12866</ele>
        <time>2023-06-04T15:02:12.000Z</time>
      </trkpt>
      <trkpt lat="45.8252" lon="4.69603">
        <ele>367.9118</ele>
        <time>2023-06-04T15:02:13.000Z</time>
      </trkpt>
      <trkpt lat="45.8252" lon="4.69607">
        <ele>368.68134</ele>
        <time>2023-06-04T15:02:14.000Z</time>
      </trkpt>
      <trkpt lat="45.82524" lon="4.69609">
        <ele>369.43597</ele>
        <time>2023-06-04T15:02:15.000Z</time>
      </trkpt>
      <trkpt lat="45.82528" lon="4.69615">
        <ele>370.80185</ele>
        <time>2023-06-04T15:02:16.000Z</time>
      </trkpt>
      <trkpt lat="45.82527" lon="4.69619">
        <ele>372.15634</ele>
        <time>2023-06-04T15:02:17.000Z</time>
      </trkpt>
      <trkpt lat="45.82525" lon="4.69623">
        <ele>372.37012</ele>
        <time>2023-06-04T15:02:18.000Z</time>
      </trkpt>
      <trkpt lat="45.82526" lon="4.69631">
        <ele>372.61298</ele>
        <time>2023-06-04T15:02:19.000Z</time>
      </trkpt>
      <trkpt lat="45.82528" lon="4.69636">
        <ele>372.92117</ele>
        <time>2023-06-04T15:02:20.000Z</time>
      </trkpt>
      <trkpt lat="45.8253" lon="4.69645">
        <ele>373.25543</ele>
        <time>2023-06-04T15:02:21.000Z</time>
      </trkpt>
      <trkpt lat="45.82533" lon="4.6965">
        <ele>373.52252</ele>
        <time>2023-06-04T15:02:22.000Z</time>
      </trkpt>
      <trkpt lat="45.82535" lon="4.69658">
        <ele>373.76669</ele>
        <time>2023-06-04T15:02:23.000Z</time>
      </trkpt>
      <trkpt lat="45.82535" lon="4.69665">
        <ele>374.02936</ele>
        <time>2023-06-04T15:02:24.000Z</time>
      </trkpt>
      <trkpt lat="45.82536" lon="4.6967">
        <ele>374.23965</ele>
        <time>2023-06-04T15:02:25.000Z</time>
      </trkpt>
      <trkpt lat="45.82536" lon="4.69677">
        <ele>374.38824</ele>
        <time>2023-06-04T15:02:26.000Z</time>
      </trkpt>
      <trkpt lat="45.82537" lon="4.6968">
        <ele>374.58221</ele>
        <time>2023-06-04T15:02:27.000Z</time>
      </trkpt>
      <trkpt lat="45.82543" lon="4.6969">
        <ele>374.78165</ele>
        <time>2023-06-04T15:02:28.000Z</time>
      </trkpt>
      <trkpt lat="45.82546" lon="4.69698">
        <ele>374.31744</ele>
        <time>2023-06-04T15:02:29.000Z</time>
      </trkpt>
      <trkpt lat="45.82544" lon="4.69703">
        <ele>373.7612</ele>
        <time>2023-06-04T15:02:30.000Z</time>
      </trkpt>
      <trkpt lat="45.82549" lon="4.69708">
        <ele>373.13168</ele>
        <time>2023-06-04T15:02:31.000Z</time>
      </trkpt>
      <trkpt lat="45.82548" lon="4.69717">
        <ele>372.48129</ele>
        <time>2023-06-04T15:02:32.000Z</time>
      </trkpt>
      <trkpt lat="45.82551" lon="4.69719">
        <ele>371.88876</ele>
        <time>2023-06-04T15:02:33.000Z</time>
      </trkpt>
      <trkpt lat="45.82552" lon="4.69724">
        <ele>371.3476</ele>
        <time>2023-06-04T15:02:34.000Z</time>
      </trkpt>
      <trkpt lat="45.82557" lon="4.6973">
        <ele>371.55652</ele>
        <time>2023-06-04T15:02:35.000Z</time>
      </trkpt>
      <trkpt lat="45.82558" lon="4.69736">
        <ele>371.07217</ele>
        <time>2023-06-04T15:02:36.000Z</time>
      </trkpt>
      <trkpt lat="45.82559" lon="4.69742">
        <ele>370.58844</ele>
        <time>2023-06-04T15:02:37.000Z</time>
      </trkpt>
      <trkpt lat="45.8256" lon="4.69746">
        <ele>371.25104</ele>
        <time>2023-06-04T15:02:38.000Z</time>
      </trkpt>
      <trkpt lat="45.82564" lon="4.69749">
        <ele>371.86136</ele>
        <time>2023-06-04T15:02:39.000Z</time>
      </trkpt>
      <trkpt lat="45.82567" lon="4.69756">
        <ele>372.41864</ele>
        <time>2023-06-04T15:02:40.000Z</time>
      </trkpt>
      <trkpt lat="45.82573" lon="4.69764">
        <ele>372.95978</ele>
        <time>2023-06-04T15:02:41.000Z</time>
      </trkpt>
      <trkpt lat="45.82575" lon="4.69769">
        <ele>373.57614</ele>
        <time>2023-06-04T15:02:42.000Z</time>
      </trkpt>
      <trkpt lat="45.82577" lon="4.69773">
        <ele>374.14859</ele>
        <time>2023-06-04T15:02:43.000Z</time>
      </trkpt>
      <trkpt lat="45.8258" lon="4.6978">
        <ele>374.73639</ele>
        <time>2023-06-04T15:02:44.000Z</time>
      </trkpt>
      <trkpt lat="45.82583" lon="4.69786">
        <ele>375.33734</ele>
        <time>2023-06-04T15:02:45.000Z</time>
      </trkpt>
      <trkpt lat="45.82585" lon="4.69791">
        <ele>375.97504</ele>
        <time>2023-06-04T15:02:46.000Z</time>
      </trkpt>
      <trkpt lat="45.82589" lon="4.69797">
        <ele>376.54724</ele>
        <time>2023-06-04T15:02:47.000Z</time>
      </trkpt>
      <trkpt lat="45.82593" lon="4.69802">
        <ele>377.14346</ele>
        <time>2023-06-04T15:02:48.000Z</time>
      </trkpt>
      <trkpt lat="45.82597" lon="4.69806">
        <ele>377.77045</ele>
        <time>2023-06-04T15:02:49.000Z</time>
      </trkpt>
      <trkpt lat="45.826" lon="4.69811">
        <ele>378.9563</ele>
        <time>2023-06-04T15:02:50.000Z</time>
      </trkpt>
      <trkpt lat="45.82603" lon="4.69815">
        <ele>380.4664</ele>
        <time>2023-06-04T15:02:51.000Z</time>
      </trkpt>
      <trkpt lat="45.82606" lon="4.69819">
        <ele>381.20184</ele>
        <time>2023-06-04T15:02:52.000Z</time>
      </trkpt>
      <trkpt lat="45.82608" lon="4.69824">
        <ele>381.91122</ele>
        <time>2023-06-04T15:02:53.000Z</time>
      </trkpt>
      <trkpt lat="45.82613" lon="4.69831">
        <ele>382.52185</ele>
        <time>2023-06-04T15:02:54.000Z</time>
      </trkpt>
      <trkpt lat="45.82616" lon="4.69836">
        <ele>382.34906</ele>
        <time>2023-06-04T15:02:55.000Z</time>
      </trkpt>
      <trkpt lat="45.8262" lon="4.69843">
        <ele>382.23837</ele>
        <time>2023-06-04T15:02:56.000Z</time>
      </trkpt>
      <trkpt lat="45.82625" lon="4.69847">
        <ele>382.7547</ele>
        <time>2023-06-04T15:02:57.000Z</time>
      </trkpt>
      <trkpt lat="45.82626" lon="4.6985">
        <ele>383.12744</ele>
        <time>2023-06-04T15:02:58.000Z</time>
      </trkpt>
      <trkpt lat="45.82629" lon="4.69862">
        <ele>383.66751</ele>
        <time>2023-06-04T15:02:59.000Z</time>
      </trkpt>
      <trkpt lat="45.8263" lon="4.69869">
        <ele>384.29541</ele>
        <time>2023-06-04T15:03:01.000Z</time>
      </trkpt>
      <trkpt lat="45.82633" lon="4.69875">
        <ele>384.93942</ele>
        <time>2023-06-04T15:03:02.000Z</time>
      </trkpt>
      <trkpt lat="45.82635" lon="4.69879">
        <ele>385.59482</ele>
        <time>2023-06-04T15:03:03.000Z</time>
      </trkpt>
      <trkpt lat="45.82639" lon="4.69881">
        <ele>386.31934</ele>
        <time>2023-06-04T15:03:04.000Z</time>
      </trkpt>
      <trkpt lat="45.82643" lon="4.69886">
        <ele>387.1329</ele>
        <time>2023-06-04T15:03:05.000Z</time>
      </trkpt>
      <trkpt lat="45.82646" lon="4.69893">
        <ele>387.88959</ele>
        <time>2023-06-04T15:03:06.000Z</time>
      </trkpt>
      <trkpt lat="45.8265" lon="4.69899">
        <ele>388.56549</ele>
        <time>2023-06-04T15:03:07.000Z</time>
      </trkpt>
      <trkpt lat="45.82654" lon="4.69904">
        <ele>389.27896</ele>
        <time>2023-06-04T15:03:08.000Z</time>
      </trkpt>
      <trkpt lat="45.82657" lon="4.69909">
        <ele>389.9328</ele>
        <time>2023-06-04T15:03:09.000Z</time>
      </trkpt>
      <trkpt lat="45.82662" lon="4.69909">
        <ele>390.52753</ele>
        <time>2023-06-04T15:03:10.000Z</time>
      </trkpt>
      <trkpt lat="45.82666" lon="4.69918">
        <ele>390.62286</ele>
        <time>2023-06-04T15:03:11.000Z</time>
      </trkpt>
      <trkpt lat="45.82672" lon="4.69922">
        <ele>390.43372</ele>
        <time>2023-06-04T15:03:12.000Z</time>
      </trkpt>
      <trkpt lat="45.82673" lon="4.69927">
        <ele>391.11826</ele>
        <time>2023-06-04T15:03:13.000Z</time>
      </trkpt>
      <trkpt lat="45.82676" lon="4.69933">
        <ele>391.72455</ele>
        <time>2023-06-04T15:03:14.000Z</time>
      </trkpt>
      <trkpt lat="45.82681" lon="4.69937">
        <ele>392.47797</ele>
        <time>2023-06-04T15:03:15.000Z</time>
      </trkpt>
      <trkpt lat="45.82686" lon="4.6994">
        <ele>393.27194</ele>
        <time>2023-06-04T15:03:16.000Z</time>
      </trkpt>
      <trkpt lat="45.82688" lon="4.6995">
        <ele>394.0777</ele>
        <time>2023-06-04T15:03:17.000Z</time>
      </trkpt>
      <trkpt lat="45.8269" lon="4.69955">
        <ele>394.21606</ele>
        <time>2023-06-04T15:03:18.000Z</time>
      </trkpt>
      <trkpt lat="45.82696" lon="4.69957">
        <ele>394.46927</ele>
        <time>2023-06-04T15:03:19.000Z</time>
      </trkpt>
      <trkpt lat="45.827" lon="4.6996">
        <ele>394.64288</ele>
        <time>2023-06-04T15:03:20.000Z</time>
      </trkpt>
      <trkpt lat="45.82704" lon="4.69966">
        <ele>394.7478</ele>
        <time>2023-06-04T15:03:21.000Z</time>
      </trkpt>
      <trkpt lat="45.82708" lon="4.69968">
        <ele>394.7818</ele>
        <time>2023-06-04T15:03:22.000Z</time>
      </trkpt>
      <trkpt lat="45.82712" lon="4.69974">
        <ele>394.79318</ele>
        <time>2023-06-04T15:03:23.000Z</time>
      </trkpt>
      <trkpt lat="45.82715" lon="4.69984">
        <ele>394.73929</ele>
        <time>2023-06-04T15:03:24.000Z</time>
      </trkpt>
      <trkpt lat="45.8272" lon="4.69988">
        <ele>394.55609</ele>
        <time>2023-06-04T15:03:25.000Z</time>
      </trkpt>
      <trkpt lat="45.82722" lon="4.69994">
        <ele>394.34723</ele>
        <time>2023-06-04T15:03:26.000Z</time>
      </trkpt>
      <trkpt lat="45.82727" lon="4.69996">
        <ele>394.09912</ele>
        <time>2023-06-04T15:03:27.000Z</time>
      </trkpt>
      <trkpt lat="45.8273" lon="4.7">
        <ele>393.85635</ele>
        <time>2023-06-04T15:03:28.000Z</time>
      </trkpt>
      <trkpt lat="45.82736" lon="4.70007">
        <ele>393.63104</ele>
        <time>2023-06-04T15:03:29.000Z</time>
      </trkpt>
      <trkpt lat="45.82744" lon="4.70011">
        <ele>393.32562</ele>
        <time>2023-06-04T15:03:30.000Z</time>
      </trkpt>
      <trkpt lat="45.82749" lon="4.70016">
        <ele>393.00787</ele>
        <time>2023-06-04T15:03:31.000Z</time>
      </trkpt>
      <trkpt lat="45.82757" lon="4.70023">
        <ele>392.85361</ele>
        <time>2023-06-04T15:03:32.000Z</time>
      </trkpt>
      <trkpt lat="45.82763" lon="4.70029">
        <ele>392.67535</ele>
        <time>2023-06-04T15:03:33.000Z</time>
      </trkpt>
      <trkpt lat="45.82769" lon="4.70033">
        <ele>392.56586</ele>
        <time>2023-06-04T15:03:34.000Z</time>
      </trkpt>
      <trkpt lat="45.82772" lon="4.70038">
        <ele>392.32285</ele>
        <time>2023-06-04T15:03:35.000Z</time>
      </trkpt>
      <trkpt lat="45.82778" lon="4.70041">
        <ele>392.078</ele>
        <time>2023-06-04T15:03:36.000Z</time>
      </trkpt>
      <trkpt lat="45.82784" lon="4.70048">
        <ele>391.83026</ele>
        <time>2023-06-04T15:03:37.000Z</time>
      </trkpt>
      <trkpt lat="45.82789" lon="4.70053">
        <ele>391.57196</ele>
        <time>2023-06-04T15:03:38.000Z</time>
      </trkpt>
      <trkpt lat="45.82794" lon="4.70062">
        <ele>391.32593</ele>
        <time>2023-06-04T15:03:39.000Z</time>
      </trkpt>
      <trkpt lat="45.82799" lon="4.70072">
        <ele>391.02911</ele>
        <time>2023-06-04T15:03:40.000Z</time>
      </trkpt>
      <trkpt lat="45.82808" lon="4.70078">
        <ele>390.79868</ele>
        <time>2023-06-04T15:03:41.000Z</time>
      </trkpt>
      <trkpt lat="45.82809" lon="4.70085">
        <ele>390.51468</ele>
        <time>2023-06-04T15:03:42.000Z</time>
      </trkpt>
      <trkpt lat="45.82813" lon="4.70093">
        <ele>390.19095</ele>
        <time>2023-06-04T15:03:43.000Z</time>
      </trkpt>
      <trkpt lat="45.82819" lon="4.70101">
        <ele>390.00458</ele>
        <time>2023-06-04T15:03:44.000Z</time>
      </trkpt>
      <trkpt lat="45.82825" lon="4.70112">
        <ele>389.87463</ele>
        <time>2023-06-04T15:03:45.000Z</time>
      </trkpt>
      <trkpt lat="45.82832" lon="4.70121">
        <ele>389.77713</ele>
        <time>2023-06-04T15:03:46.000Z</time>
      </trkpt>
      <trkpt lat="45.82835" lon="4.70128">
        <ele>389.68564</ele>
        <time>2023-06-04T15:03:47.000Z</time>
      </trkpt>
      <trkpt lat="45.8284" lon="4.70135">
        <ele>389.63766</ele>
        <time>2023-06-04T15:03:48.000Z</time>
      </trkpt>
      <trkpt lat="45.82844" lon="4.70141">
        <ele>389.69843</ele>
        <time>2023-06-04T15:03:49.000Z</time>
      </trkpt>
      <trkpt lat="45.82851" lon="4.70149">
        <ele>389.81946</ele>
        <time>2023-06-04T15:03:50.000Z</time>
      </trkpt>
      <trkpt lat="45.82856" lon="4.70156">
        <ele>390.06793</ele>
        <time>2023-06-04T15:03:51.000Z</time>
      </trkpt>
      <trkpt lat="45.82861" lon="4.70164">
        <ele>390.25787</ele>
        <time>2023-06-04T15:03:52.000Z</time>
      </trkpt>
      <trkpt lat="45.82866" lon="4.70174">
        <ele>390.35065</ele>
        <time>2023-06-04T15:03:53.000Z</time>
      </trkpt>
      <trkpt lat="45.8287" lon="4.70183">
        <ele>390.46405</ele>
        <time>2023-06-04T15:03:54.000Z</time>
      </trkpt>
      <trkpt lat="45.82873" lon="4.70189">
        <ele>390.56192</ele>
        <time>2023-06-04T15:03:55.000Z</time>
      </trkpt>
      <trkpt lat="45.82878" lon="4.702">
        <ele>390.56235</ele>
        <time>2023-06-04T15:03:56.000Z</time>
      </trkpt>
      <trkpt lat="45.82882" lon="4.70204">
        <ele>390.50333</ele>
        <time>2023-06-04T15:03:57.000Z</time>
      </trkpt>
      <trkpt lat="45.82887" lon="4.70214">
        <ele>390.47949</ele>
        <time>2023-06-04T15:03:58.000Z</time>
      </trkpt>
      <trkpt lat="45.82892" lon="4.70226">
        <ele>390.43723</ele>
        <time>2023-06-04T15:03:59.000Z</time>
      </trkpt>
      <trkpt lat="45.82895" lon="4.70236">
        <ele>390.3851</ele>
        <time>2023-06-04T15:04:00.000Z</time>
      </trkpt>
      <trkpt lat="45.82901" lon="4.70245">
        <ele>390.20416</ele>
        <time>2023-06-04T15:04:01.000Z</time>
      </trkpt>
      <trkpt lat="45.82906" lon="4.70252">
        <ele>390.03845</ele>
        <time>2023-06-04T15:04:02.000Z</time>
      </trkpt>
      <trkpt lat="45.82911" lon="4.70258">
        <ele>389.96768</ele>
        <time>2023-06-04T15:04:03.000Z</time>
      </trkpt>
      <trkpt lat="45.82913" lon="4.70267">
        <ele>389.77368</ele>
        <time>2023-06-04T15:04:04.000Z</time>
      </trkpt>
      <trkpt lat="45.82918" lon="4.70278">
        <ele>389.60101</ele>
        <time>2023-06-04T15:04:05.000Z</time>
      </trkpt>
      <trkpt lat="45.82924" lon="4.70287">
        <ele>389.46899</ele>
        <time>2023-06-04T15:04:06.000Z</time>
      </trkpt>
      <trkpt lat="45.82929" lon="4.70292">
        <ele>389.38071</ele>
        <time>2023-06-04T15:04:07.000Z</time>
      </trkpt>
      <trkpt lat="45.82932" lon="4.70297">
        <ele>389.28668</ele>
        <time>2023-06-04T15:04:08.000Z</time>
      </trkpt>
      <trkpt lat="45.82937" lon="4.70306">
        <ele>389.04071</ele>
        <time>2023-06-04T15:04:09.000Z</time>
      </trkpt>
      <trkpt lat="45.82942" lon="4.70316">
        <ele>388.91052</ele>
        <time>2023-06-04T15:04:10.000Z</time>
      </trkpt>
      <trkpt lat="45.82945" lon="4.70323">
        <ele>388.64972</ele>
        <time>2023-06-04T15:04:11.000Z</time>
      </trkpt>
      <trkpt lat="45.82951" lon="4.7033">
        <ele>388.35596</ele>
        <time>2023-06-04T15:04:12.000Z</time>
      </trkpt>
      <trkpt lat="45.82962" lon="4.70336">
        <ele>388.02661</ele>
        <time>2023-06-04T15:04:13.000Z</time>
      </trkpt>
      <trkpt lat="45.82964" lon="4.70345">
        <ele>387.81628</ele>
        <time>2023-06-04T15:04:14.000Z</time>
      </trkpt>
      <trkpt lat="45.82971" lon="4.70349">
        <ele>387.58252</ele>
        <time>2023-06-04T15:04:15.000Z</time>
      </trkpt>
      <trkpt lat="45.82974" lon="4.70355">
        <ele>387.47513</ele>
        <time>2023-06-04T15:04:16.000Z</time>
      </trkpt>
      <trkpt lat="45.82979" lon="4.70363">
        <ele>387.40799</ele>
        <time>2023-06-04T15:04:17.000Z</time>
      </trkpt>
      <trkpt lat="45.82982" lon="4.70373">
        <ele>387.30273</ele>
        <time>2023-06-04T15:04:18.000Z</time>
      </trkpt>
      <trkpt lat="45.82984" lon="4.7038">
        <ele>387.2178</ele>
        <time>2023-06-04T15:04:19.000Z</time>
      </trkpt>
      <trkpt lat="45.82987" lon="4.70389">
        <ele>387.36066</ele>
        <time>2023-06-04T15:04:20.000Z</time>
      </trkpt>
      <trkpt lat="45.82988" lon="4.70398">
        <ele>387.51523</ele>
        <time>2023-06-04T15:04:21.000Z</time>
      </trkpt>
      <trkpt lat="45.82993" lon="4.70406">
        <ele>387.7735</ele>
        <time>2023-06-04T15:04:22.000Z</time>
      </trkpt>
      <trkpt lat="45.82999" lon="4.70416">
        <ele>387.93228</ele>
        <time>2023-06-04T15:04:23.000Z</time>
      </trkpt>
      <trkpt lat="45.83003" lon="4.70423">
        <ele>388.12585</ele>
        <time>2023-06-04T15:04:24.000Z</time>
      </trkpt>
      <trkpt lat="45.83004" lon="4.70427">
        <ele>388.24683</ele>
        <time>2023-06-04T15:04:25.000Z</time>
      </trkpt>
      <trkpt lat="45.83007" lon="4.70432">
        <ele>388.32269</ele>
        <time>2023-06-04T15:04:26.000Z</time>
      </trkpt>
      <trkpt lat="45.8301" lon="4.70441">
        <ele>388.54684</ele>
        <time>2023-06-04T15:04:27.000Z</time>
      </trkpt>
      <trkpt lat="45.83012" lon="4.7045">
        <ele>388.69995</ele>
        <time>2023-06-04T15:04:28.000Z</time>
      </trkpt>
      <trkpt lat="45.83015" lon="4.70457">
        <ele>388.87869</ele>
        <time>2023-06-04T15:04:29.000Z</time>
      </trkpt>
      <trkpt lat="45.8302" lon="4.70463">
        <ele>388.95901</ele>
        <time>2023-06-04T15:04:30.000Z</time>
      </trkpt>
      <trkpt lat="45.83021" lon="4.70471">
        <ele>388.98663</ele>
        <time>2023-06-04T15:04:31.000Z</time>
      </trkpt>
      <trkpt lat="45.83023" lon="4.70478">
        <ele>388.84296</ele>
        <time>2023-06-04T15:04:32.000Z</time>
      </trkpt>
      <trkpt lat="45.83028" lon="4.70486">
        <ele>388.84961</ele>
        <time>2023-06-04T15:04:33.000Z</time>
      </trkpt>
      <trkpt lat="45.8303" lon="4.70492">
        <ele>388.64749</ele>
        <time>2023-06-04T15:04:34.000Z</time>
      </trkpt>
      <trkpt lat="45.83034" lon="4.70498">
        <ele>388.59796</ele>
        <time>2023-06-04T15:04:35.000Z</time>
      </trkpt>
      <trkpt lat="45.83038" lon="4.70505">
        <ele>388.53271</ele>
        <time>2023-06-04T15:04:36.000Z</time>
      </trkpt>
      <trkpt lat="45.83039" lon="4.70511">
        <ele>388.51105</ele>
        <time>2023-06-04T15:04:37.000Z</time>
      </trkpt>
      <trkpt lat="45.83045" lon="4.70519">
        <ele>388.435</ele>
        <time>2023-06-04T15:04:38.000Z</time>
      </trkpt>
      <trkpt lat="45.83048" lon="4.70524">
        <ele>388.29755</ele>
        <time>2023-06-04T15:04:39.000Z</time>
      </trkpt>
      <trkpt lat="45.83051" lon="4.70527">
        <ele>387.93295</ele>
        <time>2023-06-04T15:04:40.000Z</time>
      </trkpt>
      <trkpt lat="45.83052" lon="4.70536">
        <ele>387.60782</ele>
        <time>2023-06-04T15:04:41.000Z</time>
      </trkpt>
      <trkpt lat="45.83057" lon="4.70542">
        <ele>387.40497</ele>
        <time>2023-06-04T15:04:42.000Z</time>
      </trkpt>
      <trkpt lat="45.8306" lon="4.70548">
        <ele>387.34134</ele>
        <time>2023-06-04T15:04:43.000Z</time>
      </trkpt>
      <trkpt lat="45.83062" lon="4.70551">
        <ele>387.22232</ele>
        <time>2023-06-04T15:04:44.000Z</time>
      </trkpt>
      <trkpt lat="45.83065" lon="4.70558">
        <ele>387.24399</ele>
        <time>2023-06-04T15:04:45.000Z</time>
      </trkpt>
      <trkpt lat="45.83067" lon="4.70564">
        <ele>387.44055</ele>
        <time>2023-06-04T15:04:46.000Z</time>
      </trkpt>
      <trkpt lat="45.83069" lon="4.70569">
        <ele>387.4028</ele>
        <time>2023-06-04T15:04:47.000Z</time>
      </trkpt>
      <trkpt lat="45.8307" lon="4.70576">
        <ele>387.31061</ele>
        <time>2023-06-04T15:04:48.000Z</time>
      </trkpt>
      <trkpt lat="45.83074" lon="4.70581">
        <ele>387.33075</ele>
        <time>2023-06-04T15:04:49.000Z</time>
      </trkpt>
      <trkpt lat="45.83077" lon="4.70585">
        <ele>387.26968</ele>
        <time>2023-06-04T15:04:50.000Z</time>
      </trkpt>
      <trkpt lat="45.83078" lon="4.7059">
        <ele>387.45697</ele>
        <time>2023-06-04T15:04:51.000Z</time>
      </trkpt>
      <trkpt lat="45.83083" lon="4.706">
        <ele>386.29648</ele>
        <time>2023-06-04T15:04:52.000Z</time>
      </trkpt>
      <trkpt lat="45.83087" lon="4.70606">
        <ele>385.1189</ele>
        <time>2023-06-04T15:04:53.000Z</time>
      </trkpt>
      <trkpt lat="45.8309" lon="4.70609">
        <ele>383.9679</ele>
        <time>2023-06-04T15:04:54.000Z</time>
      </trkpt>
      <trkpt lat="45.83093" lon="4.7061">
        <ele>382.70477</ele>
        <time>2023-06-04T15:04:55.000Z</time>
      </trkpt>
      <trkpt lat="45.83093" lon="4.70618">
        <ele>381.93076</ele>
        <time>2023-06-04T15:04:56.000Z</time>
      </trkpt>
      <trkpt lat="45.83097" lon="4.70625">
        <ele>381.11444</ele>
        <time>2023-06-04T15:04:57.000Z</time>
      </trkpt>
      <trkpt lat="45.831" lon="4.70632">
        <ele>380.4057</ele>
        <time>2023-06-04T15:04:58.000Z</time>
      </trkpt>
      <trkpt lat="45.83102" lon="4.70639">
        <ele>379.28952</ele>
        <time>2023-06-04T15:04:59.000Z</time>
      </trkpt>
      <trkpt lat="45.83108" lon="4.7064">
        <ele>378.17719</ele>
        <time>2023-06-04T15:05:00.000Z</time>
      </trkpt>
      <trkpt lat="45.83112" lon="4.70643">
        <ele>377.5939</ele>
        <time>2023-06-04T15:05:01.000Z</time>
      </trkpt>
      <trkpt lat="45.83114" lon="4.70642">
        <ele>376.87518</ele>
        <time>2023-06-04T15:05:02.000Z</time>
      </trkpt>
      <trkpt lat="45.83119" lon="4.70636">
        <ele>375.57544</ele>
        <time>2023-06-04T15:05:03.000Z</time>
      </trkpt>
      <trkpt lat="45.83121" lon="4.70629">
        <ele>374.34338</ele>
        <time>2023-06-04T15:05:04.000Z</time>
      </trkpt>
      <trkpt lat="45.83125" lon="4.70622">
        <ele>372.95956</ele>
        <time>2023-06-04T15:05:05.000Z</time>
      </trkpt>
      <trkpt lat="45.8313" lon="4.70619">
        <ele>371.42569</ele>
        <time>2023-06-04T15:05:06.000Z</time>
      </trkpt>
      <trkpt lat="45.83133" lon="4.70614">
        <ele>370.03635</ele>
        <time>2023-06-04T15:05:07.000Z</time>
      </trkpt>
      <trkpt lat="45.83134" lon="4.7061">
        <ele>368.70486</ele>
        <time>2023-06-04T15:05:08.000Z</time>
      </trkpt>
      <trkpt lat="45.83138" lon="4.70608">
        <ele>367.27475</ele>
        <time>2023-06-04T15:05:09.000Z</time>
      </trkpt>
      <trkpt lat="45.83143" lon="4.70601">
        <ele>365.93509</ele>
        <time>2023-06-04T15:05:10.000Z</time>
      </trkpt>
      <trkpt lat="45.83146" lon="4.70599">
        <ele>364.4357</ele>
        <time>2023-06-04T15:05:11.000Z</time>
      </trkpt>
      <trkpt lat="45.8315" lon="4.70592">
        <ele>364.46216</ele>
        <time>2023-06-04T15:05:12.000Z</time>
      </trkpt>
      <trkpt lat="45.83154" lon="4.70586">
        <ele>364.45862</ele>
        <time>2023-06-04T15:05:13.000Z</time>
      </trkpt>
      <trkpt lat="45.83158" lon="4.70579">
        <ele>364.45709</ele>
        <time>2023-06-04T15:05:14.000Z</time>
      </trkpt>
      <trkpt lat="45.8316" lon="4.70571">
        <ele>364.47418</ele>
        <time>2023-06-04T15:05:15.000Z</time>
      </trkpt>
      <trkpt lat="45.83164" lon="4.70562">
        <ele>363.97406</ele>
        <time>2023-06-04T15:05:16.000Z</time>
      </trkpt>
      <trkpt lat="45.83169" lon="4.70558">
        <ele>363.48322</ele>
        <time>2023-06-04T15:05:17.000Z</time>
      </trkpt>
      <trkpt lat="45.83172" lon="4.70551">
        <ele>362.96136</ele>
        <time>2023-06-04T15:05:18.000Z</time>
      </trkpt>
      <trkpt lat="45.83174" lon="4.70548">
        <ele>362.8623</ele>
        <time>2023-06-04T15:05:19.000Z</time>
      </trkpt>
      <trkpt lat="45.8318" lon="4.70545">
        <ele>362.80634</ele>
        <time>2023-06-04T15:05:20.000Z</time>
      </trkpt>
      <trkpt lat="45.83183" lon="4.70537">
        <ele>362.25378</ele>
        <time>2023-06-04T15:05:21.000Z</time>
      </trkpt>
      <trkpt lat="45.83185" lon="4.7053">
        <ele>361.70505</ele>
        <time>2023-06-04T15:05:22.000Z</time>
      </trkpt>
      <trkpt lat="45.83191" lon="4.70528">
        <ele>361.60629</ele>
        <time>2023-06-04T15:05:23.000Z</time>
      </trkpt>
      <trkpt lat="45.83195" lon="4.70521">
        <ele>361.49365</ele>
        <time>2023-06-04T15:05:24.000Z</time>
      </trkpt>
      <trkpt lat="45.83198" lon="4.70519">
        <ele>361.39728</ele>
        <time>2023-06-04T15:05:25.000Z</time>
      </trkpt>
      <trkpt lat="45.83201" lon="4.7051">
        <ele>361.33536</ele>
        <time>2023-06-04T15:05:26.000Z</time>
      </trkpt>
      <trkpt lat="45.83207" lon="4.70504">
        <ele>361.25995</ele>
        <time>2023-06-04T15:05:27.000Z</time>
      </trkpt>
      <trkpt lat="45.83211" lon="4.70499">
        <ele>361.17975</ele>
        <time>2023-06-04T15:05:28.000Z</time>
      </trkpt>
      <trkpt lat="45.83217" lon="4.70491">
        <ele>361.09766</ele>
        <time>2023-06-04T15:05:29.000Z</time>
      </trkpt>
      <trkpt lat="45.8322" lon="4.70481">
        <ele>360.98334</ele>
        <time>2023-06-04T15:05:30.000Z</time>
      </trkpt>
      <trkpt lat="45.83227" lon="4.70476">
        <ele>360.8956</ele>
        <time>2023-06-04T15:05:31.000Z</time>
      </trkpt>
      <trkpt lat="45.8323" lon="4.70466">
        <ele>360.76669</ele>
        <time>2023-06-04T15:05:32.000Z</time>
      </trkpt>
      <trkpt lat="45.83234" lon="4.70458">
        <ele>360.62598</ele>
        <time>2023-06-04T15:05:33.000Z</time>
      </trkpt>
      <trkpt lat="45.83238" lon="4.70448">
        <ele>360.49762</ele>
        <time>2023-06-04T15:05:34.000Z</time>
      </trkpt>
      <trkpt lat="45.83242" lon="4.70441">
        <ele>360.39313</ele>
        <time>2023-06-04T15:05:35.000Z</time>
      </trkpt>
      <trkpt lat="45.83246" lon="4.70433">
        <ele>360.27173</ele>
        <time>2023-06-04T15:05:36.000Z</time>
      </trkpt>
      <trkpt lat="45.83251" lon="4.70426">
        <ele>360.15948</ele>
        <time>2023-06-04T15:05:37.000Z</time>
      </trkpt>
      <trkpt lat="45.83255" lon="4.70416">
        <ele>360.03607</ele>
        <time>2023-06-04T15:05:38.000Z</time>
      </trkpt>
      <trkpt lat="45.83261" lon="4.70407">
        <ele>359.94305</ele>
        <time>2023-06-04T15:05:39.000Z</time>
      </trkpt>
      <trkpt lat="45.83268" lon="4.704">
        <ele>359.83078</ele>
        <time>2023-06-04T15:05:40.000Z</time>
      </trkpt>
      <trkpt lat="45.83272" lon="4.70392">
        <ele>359.69482</ele>
        <time>2023-06-04T15:05:41.000Z</time>
      </trkpt>
      <trkpt lat="45.83278" lon="4.70383">
        <ele>359.53015</ele>
        <time>2023-06-04T15:05:42.000Z</time>
      </trkpt>
      <trkpt lat="45.83284" lon="4.70375">
        <ele>359.42667</ele>
        <time>2023-06-04T15:05:43.000Z</time>
      </trkpt>
      <trkpt lat="45.8329" lon="4.70368">
        <ele>359.289</ele>
        <time>2023-06-04T15:05:44.000Z</time>
      </trkpt>
      <trkpt lat="45.83294" lon="4.70358">
        <ele>359.14529</ele>
        <time>2023-06-04T15:05:45.000Z</time>
      </trkpt>
      <trkpt lat="45.83302" lon="4.7035">
        <ele>359.01736</ele>
        <time>2023-06-04T15:05:46.000Z</time>
      </trkpt>
      <trkpt lat="45.83305" lon="4.70345">
        <ele>358.87772</ele>
        <time>2023-06-04T15:05:47.000Z</time>
      </trkpt>
      <trkpt lat="45.83309" lon="4.70341">
        <ele>358.72769</ele>
        <time>2023-06-04T15:05:48.000Z</time>
      </trkpt>
      <trkpt lat="45.83314" lon="4.70335">
        <ele>358.57397</ele>
        <time>2023-06-04T15:05:49.000Z</time>
      </trkpt>
      <trkpt lat="45.83317" lon="4.70334">
        <ele>358.45239</ele>
        <time>2023-06-04T15:05:50.000Z</time>
      </trkpt>
      <trkpt lat="45.83325" lon="4.70337">
        <ele>358.29657</ele>
        <time>2023-06-04T15:05:51.000Z</time>
      </trkpt>
      <trkpt lat="45.83327" lon="4.70345">
        <ele>358.15005</ele>
        <time>2023-06-04T15:05:52.000Z</time>
      </trkpt>
      <trkpt lat="45.83333" lon="4.70348">
        <ele>358.03043</ele>
        <time>2023-06-04T15:05:53.000Z</time>
      </trkpt>
      <trkpt lat="45.83332" lon="4.70356">
        <ele>357.89716</ele>
        <time>2023-06-04T15:05:54.000Z</time>
      </trkpt>
      <trkpt lat="45.8333" lon="4.70361">
        <ele>357.7829</ele>
        <time>2023-06-04T15:05:55.000Z</time>
      </trkpt>
      <trkpt lat="45.83332" lon="4.70368">
        <ele>357.67773</ele>
        <time>2023-06-04T15:05:56.000Z</time>
      </trkpt>
      <trkpt lat="45.83333" lon="4.70376">
        <ele>357.59903</ele>
        <time>2023-06-04T15:05:57.000Z</time>
      </trkpt>
      <trkpt lat="45.83332" lon="4.70384">
        <ele>357.51852</ele>
        <time>2023-06-04T15:05:58.000Z</time>
      </trkpt>
      <trkpt lat="45.83331" lon="4.70392">
        <ele>357.43878</ele>
        <time>2023-06-04T15:05:59.000Z</time>
      </trkpt>
      <trkpt lat="45.83334" lon="4.704">
        <ele>357.33499</ele>
        <time>2023-06-04T15:06:00.000Z</time>
      </trkpt>
      <trkpt lat="45.83335" lon="4.70407">
        <ele>357.28091</ele>
        <time>2023-06-04T15:06:01.000Z</time>
      </trkpt>
      <trkpt lat="45.83331" lon="4.70417">
        <ele>357.2142</ele>
        <time>2023-06-04T15:06:02.000Z</time>
      </trkpt>
      <trkpt lat="45.83332" lon="4.7042">
        <ele>357.086</ele>
        <time>2023-06-04T15:06:03.000Z</time>
      </trkpt>
      <trkpt lat="45.8333" lon="4.70426">
        <ele>357.05173</ele>
        <time>2023-06-04T15:06:04.000Z</time>
      </trkpt>
      <trkpt lat="45.83332" lon="4.70433">
        <ele>357.02814</ele>
        <time>2023-06-04T15:06:05.000Z</time>
      </trkpt>
      <trkpt lat="45.83333" lon="4.70441">
        <ele>356.98053</ele>
        <time>2023-06-04T15:06:06.000Z</time>
      </trkpt>
      <trkpt lat="45.83332" lon="4.70449">
        <ele>356.95084</ele>
        <time>2023-06-04T15:06:07.000Z</time>
      </trkpt>
      <trkpt lat="45.83332" lon="4.70457">
        <ele>356.9494</ele>
        <time>2023-06-04T15:06:08.000Z</time>
      </trkpt>
      <trkpt lat="45.83334" lon="4.70467">
        <ele>356.94843</ele>
        <time>2023-06-04T15:06:09.000Z</time>
      </trkpt>
      <trkpt lat="45.83334" lon="4.7047">
        <ele>356.93976</ele>
        <time>2023-06-04T15:06:10.000Z</time>
      </trkpt>
      <trkpt lat="45.83335" lon="4.70473">
        <ele>356.91547</ele>
        <time>2023-06-04T15:06:11.000Z</time>
      </trkpt>
      <trkpt lat="45.83336" lon="4.70479">
        <ele>356.88239</ele>
        <time>2023-06-04T15:06:12.000Z</time>
      </trkpt>
      <trkpt lat="45.83337" lon="4.70488">
        <ele>356.81464</ele>
        <time>2023-06-04T15:06:13.000Z</time>
      </trkpt>
      <trkpt lat="45.83338" lon="4.70495">
        <ele>356.77267</ele>
        <time>2023-06-04T15:06:14.000Z</time>
      </trkpt>
      <trkpt lat="45.8334" lon="4.70503">
        <ele>356.75024</ele>
        <time>2023-06-04T15:06:15.000Z</time>
      </trkpt>
      <trkpt lat="45.83339" lon="4.70509">
        <ele>356.74332</ele>
        <time>2023-06-04T15:06:16.000Z</time>
      </trkpt>
      <trkpt lat="45.83339" lon="4.7052">
        <ele>356.71939</ele>
        <time>2023-06-04T15:06:17.000Z</time>
      </trkpt>
      <trkpt lat="45.83342" lon="4.70525">
        <ele>356.70758</ele>
        <time>2023-06-04T15:06:18.000Z</time>
      </trkpt>
      <trkpt lat="45.83342" lon="4.7053">
        <ele>357.51431</ele>
        <time>2023-06-04T15:06:19.000Z</time>
      </trkpt>
      <trkpt lat="45.83346" lon="4.70541">
        <ele>358.32648</ele>
        <time>2023-06-04T15:06:20.000Z</time>
      </trkpt>
      <trkpt lat="45.83346" lon="4.70547">
        <ele>359.12476</ele>
        <time>2023-06-04T15:06:21.000Z</time>
      </trkpt>
      <trkpt lat="45.83343" lon="4.7055">
        <ele>359.88519</ele>
        <time>2023-06-04T15:06:22.000Z</time>
      </trkpt>
      <trkpt lat="45.83343" lon="4.70558">
        <ele>360.65283</ele>
        <time>2023-06-04T15:06:23.000Z</time>
      </trkpt>
      <trkpt lat="45.83343" lon="4.70569">
        <ele>361.33588</ele>
        <time>2023-06-04T15:06:24.000Z</time>
      </trkpt>
      <trkpt lat="45.83343" lon="4.70576">
        <ele>362.02676</ele>
        <time>2023-06-04T15:06:25.000Z</time>
      </trkpt>
      <trkpt lat="45.83344" lon="4.70581">
        <ele>362.68073</ele>
        <time>2023-06-04T15:06:26.000Z</time>
      </trkpt>
      <trkpt lat="45.83345" lon="4.70588">
        <ele>363.28372</ele>
        <time>2023-06-04T15:06:27.000Z</time>
      </trkpt>
      <trkpt lat="45.83345" lon="4.70594">
        <ele>363.95114</ele>
        <time>2023-06-04T15:06:28.000Z</time>
      </trkpt>
      <trkpt lat="45.83344" lon="4.706">
        <ele>364.5845</ele>
        <time>2023-06-04T15:06:29.000Z</time>
      </trkpt>
      <trkpt lat="45.83348" lon="4.70609">
        <ele>365.2034</ele>
        <time>2023-06-04T15:06:30.000Z</time>
      </trkpt>
      <trkpt lat="45.83347" lon="4.70613">
        <ele>365.79617</ele>
        <time>2023-06-04T15:06:31.000Z</time>
      </trkpt>
      <trkpt lat="45.83347" lon="4.70621">
        <ele>365.70978</ele>
        <time>2023-06-04T15:06:32.000Z</time>
      </trkpt>
      <trkpt lat="45.83348" lon="4.7063">
        <ele>365.57285</ele>
        <time>2023-06-04T15:06:33.000Z</time>
      </trkpt>
      <trkpt lat="45.83349" lon="4.70636">
        <ele>365.45227</ele>
        <time>2023-06-04T15:06:34.000Z</time>
      </trkpt>
      <trkpt lat="45.83346" lon="4.70641">
        <ele>365.2948</ele>
        <time>2023-06-04T15:06:35.000Z</time>
      </trkpt>
      <trkpt lat="45.83345" lon="4.7065">
        <ele>365.138</ele>
        <time>2023-06-04T15:06:36.000Z</time>
      </trkpt>
      <trkpt lat="45.83346" lon="4.70652">
        <ele>364.97366</ele>
        <time>2023-06-04T15:06:37.000Z</time>
      </trkpt>
      <trkpt lat="45.83345" lon="4.7066">
        <ele>364.82236</ele>
        <time>2023-06-04T15:06:38.000Z</time>
      </trkpt>
      <trkpt lat="45.83346" lon="4.70666">
        <ele>363.90952</ele>
        <time>2023-06-04T15:06:39.000Z</time>
      </trkpt>
      <trkpt lat="45.83346" lon="4.70673">
        <ele>362.99188</ele>
        <time>2023-06-04T15:06:40.000Z</time>
      </trkpt>
      <trkpt lat="45.83345" lon="4.70679">
        <ele>362.04648</ele>
        <time>2023-06-04T15:06:41.000Z</time>
      </trkpt>
      <trkpt lat="45.83345" lon="4.70686">
        <ele>360.7381</ele>
        <time>2023-06-04T15:06:42.000Z</time>
      </trkpt>
      <trkpt lat="45.83345" lon="4.70692">
        <ele>359.45367</ele>
        <time>2023-06-04T15:06:43.000Z</time>
      </trkpt>
      <trkpt lat="45.83346" lon="4.70699">
        <ele>358.21329</ele>
        <time>2023-06-04T15:06:44.000Z</time>
      </trkpt>
      <trkpt lat="45.83342" lon="4.70703">
        <ele>356.96793</ele>
        <time>2023-06-04T15:06:45.000Z</time>
      </trkpt>
      <trkpt lat="45.83343" lon="4.70707">
        <ele>355.72766</ele>
        <time>2023-06-04T15:06:46.000Z</time>
      </trkpt>
      <trkpt lat="45.83343" lon="4.70714">
        <ele>354.49249</ele>
        <time>2023-06-04T15:06:48.000Z</time>
      </trkpt>
      <trkpt lat="45.83341" lon="4.70722">
        <ele>353.2168</ele>
        <time>2023-06-04T15:06:49.000Z</time>
      </trkpt>
      <trkpt lat="45.8334" lon="4.70728">
        <ele>352.48407</ele>
        <time>2023-06-04T15:06:50.000Z</time>
      </trkpt>
      <trkpt lat="45.83339" lon="4.70736">
        <ele>351.72955</ele>
        <time>2023-06-04T15:06:51.000Z</time>
      </trkpt>
      <trkpt lat="45.83338" lon="4.70741">
        <ele>351.07513</ele>
        <time>2023-06-04T15:06:52.000Z</time>
      </trkpt>
      <trkpt lat="45.83337" lon="4.70748">
        <ele>351.06219</ele>
        <time>2023-06-04T15:06:53.000Z</time>
      </trkpt>
      <trkpt lat="45.83338" lon="4.70756">
        <ele>351.16019</ele>
        <time>2023-06-04T15:06:54.000Z</time>
      </trkpt>
      <trkpt lat="45.8334" lon="4.70764">
        <ele>351.2197</ele>
        <time>2023-06-04T15:06:55.000Z</time>
      </trkpt>
      <trkpt lat="45.83341" lon="4.7077">
        <ele>350.77927</ele>
        <time>2023-06-04T15:06:56.000Z</time>
      </trkpt>
      <trkpt lat="45.83339" lon="4.70776">
        <ele>350.39154</ele>
        <time>2023-06-04T15:06:57.000Z</time>
      </trkpt>
      <trkpt lat="45.8334" lon="4.70781">
        <ele>350.01294</ele>
        <time>2023-06-04T15:06:58.000Z</time>
      </trkpt>
      <trkpt lat="45.83339" lon="4.70784">
        <ele>349.57574</ele>
        <time>2023-06-04T15:06:59.000Z</time>
      </trkpt>
      <trkpt lat="45.83338" lon="4.70789">
        <ele>349.10175</ele>
        <time>2023-06-04T15:07:00.000Z</time>
      </trkpt>
      <trkpt lat="45.83338" lon="4.70795">
        <ele>348.68018</ele>
        <time>2023-06-04T15:07:01.000Z</time>
      </trkpt>
      <trkpt lat="45.83334" lon="4.70798">
        <ele>348.22116</ele>
        <time>2023-06-04T15:07:02.000Z</time>
      </trkpt>
      <trkpt lat="45.83335" lon="4.70804">
        <ele>348.12726</ele>
        <time>2023-06-04T15:07:03.000Z</time>
      </trkpt>
      <trkpt lat="45.83333" lon="4.70811">
        <ele>347.99762</ele>
        <time>2023-06-04T15:07:04.000Z</time>
      </trkpt>
      <trkpt lat="45.83336" lon="4.7082">
        <ele>347.87582</ele>
        <time>2023-06-04T15:07:05.000Z</time>
      </trkpt>
      <trkpt lat="45.83332" lon="4.70827">
        <ele>347.76871</ele>
        <time>2023-06-04T15:07:06.000Z</time>
      </trkpt>
      <trkpt lat="45.83333" lon="4.70836">
        <ele>347.69037</ele>
        <time>2023-06-04T15:07:07.000Z</time>
      </trkpt>
      <trkpt lat="45.83333" lon="4.70843">
        <ele>347.65536</ele>
        <time>2023-06-04T15:07:08.000Z</time>
      </trkpt>
      <trkpt lat="45.83334" lon="4.7085">
        <ele>347.63104</ele>
        <time>2023-06-04T15:07:09.000Z</time>
      </trkpt>
      <trkpt lat="45.8333" lon="4.70859">
        <ele>347.12198</ele>
        <time>2023-06-04T15:07:10.000Z</time>
      </trkpt>
      <trkpt lat="45.83331" lon="4.70864">
        <ele>346.67136</ele>
        <time>2023-06-04T15:07:11.000Z</time>
      </trkpt>
      <trkpt lat="45.83329" lon="4.7087">
        <ele>346.16541</ele>
        <time>2023-06-04T15:07:12.000Z</time>
      </trkpt>
      <trkpt lat="45.83331" lon="4.70875">
        <ele>345.71082</ele>
        <time>2023-06-04T15:07:13.000Z</time>
      </trkpt>
      <trkpt lat="45.8333" lon="4.70879">
        <ele>345.19449</ele>
        <time>2023-06-04T15:07:14.000Z</time>
      </trkpt>
      <trkpt lat="45.8333" lon="4.70882">
        <ele>345.90192</ele>
        <time>2023-06-04T15:07:15.000Z</time>
      </trkpt>
      <trkpt lat="45.83329" lon="4.70889">
        <ele>347.06735</ele>
        <time>2023-06-04T15:07:17.000Z</time>
      </trkpt>
      <trkpt lat="45.83331" lon="4.70891">
        <ele>348.17236</ele>
        <time>2023-06-04T15:07:18.000Z</time>
      </trkpt>
      <trkpt lat="45.83333" lon="4.70894">
        <ele>349.26163</ele>
        <time>2023-06-04T15:07:19.000Z</time>
      </trkpt>
      <trkpt lat="45.83329" lon="4.70892">
        <ele>350.46912</ele>
        <time>2023-06-04T15:07:20.000Z</time>
      </trkpt>
      <trkpt lat="45.83329" lon="4.70895">
        <ele>351.77606</ele>
        <time>2023-06-04T15:07:22.000Z</time>
      </trkpt>
      <trkpt lat="45.83327" lon="4.70894">
        <ele>353.07159</ele>
        <time>2023-06-04T15:07:23.000Z</time>
      </trkpt>
      <trkpt lat="45.83326" lon="4.70892">
        <ele>354.62213</ele>
        <time>2023-06-04T15:07:25.000Z</time>
      </trkpt>
    </trkseg>
  </trk>
</gpx>